<?xml version="1.0" encoding="UTF-8"?>
<gpx version="1.1" creator="S Health_0.2" schemaLocation="http://www.topografix.com/GPX/1/1 http://www.topografix.com/GPX/1/1/gpx.xsd http://www.garmin.com/xmlschemas/TrackPointExtension/v1 http://www.garmin.com/xmlschemas/TrackPointExtensionv1.xsd" xmlns="http://www.topografix.com/GPX/1/1" xmlns:xsi="http://www.w3.org/2001/XMLSchema-instance" xsi:schemaLocation="http://www.topografix.com/GPX/1/1 http://www.topografix.com/GPX/1/1/gpx.xsd http://www.garmin.com/xmlschemas/GpxExtensions/v3 http://www.garmin.com/xmlschemas/GpxExtensionsv3.xsd http://www.garmin.com/xmlschemas/TrackPointExtension/v1 http://www.garmin.com/xmlschemas/TrackPointExtensionv1.xsd http://www.garmin.com/xmlschemas/PowerExtension/v1 http://www.garmin.com/xmlschemas/PowerExtensionv1.xsd http://www.topografix.com/GPX/gpx_style/0/2 http://www.topografix.com/GPX/gpx_style/0/2/gpx_style.xsd" xmlns:gpxtpx="http://www.garmin.com/xmlschemas/TrackPointExtension/v1" xmlns:gpxx="http://www.garmin.com/xmlschemas/GpxExtensions/v3" xmlns:gpxpx="http://www.garmin.com/xmlschemas/PowerExtension/v1" xmlns:gpx_style="http://www.topografix.com/GPX/gpx_style/0/2">
  <metadata>
    <name>Neung-13Kms3</name>
    <author>
      <name>gpx.studio</name>
      <link href="https://gpx.studio"/>
    </author>
  </metadata>
  <trk>
    <name>Neung-20220317_085442.gpx</name>
    <trkseg>
      <trkpt lat="47.53291675941858" lon="1.80617078516417">
        <ele>94.27342776330275</ele>
        <time>2022-03-17T07:55:23.905Z</time>
      </trkpt>
      <trkpt lat="47.53280875211357" lon="1.805929050917797">
        <ele>93.61968998927667</ele>
        <time>2022-03-17T07:55:47.019Z</time>
      </trkpt>
      <trkpt lat="47.53280875211357" lon="1.805929050917797">
        <ele>93.61968998927667</ele>
        <time>2022-03-17T07:55:47.019Z</time>
      </trkpt>
      <trkpt lat="47.532612782868725" lon="1.8053296312553428">
        <ele>92.4856361875786</ele>
        <time>2022-03-17T07:57:35.226Z</time>
      </trkpt>
      <trkpt lat="47.532482" lon="1.8049296">
        <ele>93.3091994453232</ele>
        <time>2022-03-17T07:58:47.439Z</time>
      </trkpt>
      <trkpt lat="47.532482" lon="1.8049296">
        <ele>136</ele>
        <time>2022-03-17T07:58:47.439Z</time>
      </trkpt>
      <trkpt lat="47.532482" lon="1.8049296">
        <ele>93.3091994453232</ele>
        <time>2022-03-17T07:58:47.439Z</time>
      </trkpt>
      <trkpt lat="47.53237148611482" lon="1.8042840353664436">
        <ele>93.82496154175725</ele>
        <time>2022-03-17T07:59:30.069Z</time>
      </trkpt>
      <trkpt lat="47.53228723261461" lon="1.8037918702426055">
        <ele>94.18995204446907</ele>
        <time>2022-03-17T08:00:02.569Z</time>
      </trkpt>
      <trkpt lat="47.53217" lon="1.8033221">
        <ele>95.18229913655736</ele>
        <time>2022-03-17T08:00:34.627Z</time>
      </trkpt>
      <trkpt lat="47.53217" lon="1.8033221">
        <ele>133</ele>
        <time>2022-03-17T08:00:34.627Z</time>
      </trkpt>
      <trkpt lat="47.53217" lon="1.8033221">
        <ele>133</ele>
        <time>2022-03-17T08:04:41.000Z</time>
      </trkpt>
      <trkpt lat="47.53217" lon="1.8033221">
        <ele>133</ele>
        <time>2022-03-17T08:04:42.000Z</time>
      </trkpt>
      <trkpt lat="47.532158" lon="1.8032987">
        <ele>134</ele>
        <time>2022-03-17T08:04:43.000Z</time>
      </trkpt>
      <trkpt lat="47.53215" lon="1.8032933">
        <ele>134</ele>
        <time>2022-03-17T08:04:44.000Z</time>
      </trkpt>
      <trkpt lat="47.532146" lon="1.8032805">
        <ele>134</ele>
        <time>2022-03-17T08:04:45.000Z</time>
      </trkpt>
      <trkpt lat="47.532135" lon="1.8032705">
        <ele>134</ele>
        <time>2022-03-17T08:04:46.000Z</time>
      </trkpt>
      <trkpt lat="47.532127" lon="1.8032584">
        <ele>133</ele>
        <time>2022-03-17T08:04:47.000Z</time>
      </trkpt>
      <trkpt lat="47.53212" lon="1.8032485">
        <ele>132</ele>
        <time>2022-03-17T08:04:48.000Z</time>
      </trkpt>
      <trkpt lat="47.532116" lon="1.8032408">
        <ele>132</ele>
        <time>2022-03-17T08:04:49.000Z</time>
      </trkpt>
      <trkpt lat="47.532104" lon="1.8032376">
        <ele>132</ele>
        <time>2022-03-17T08:04:50.000Z</time>
      </trkpt>
      <trkpt lat="47.5321" lon="1.8032252">
        <ele>132</ele>
        <time>2022-03-17T08:04:51.000Z</time>
      </trkpt>
      <trkpt lat="47.532097" lon="1.8032137">
        <ele>132</ele>
        <time>2022-03-17T08:04:52.000Z</time>
      </trkpt>
      <trkpt lat="47.53209" lon="1.8032031">
        <ele>132</ele>
        <time>2022-03-17T08:04:53.000Z</time>
      </trkpt>
      <trkpt lat="47.53208" lon="1.8031907">
        <ele>132</ele>
        <time>2022-03-17T08:04:54.000Z</time>
      </trkpt>
      <trkpt lat="47.53207" lon="1.8031832">
        <ele>132</ele>
        <time>2022-03-17T08:04:55.000Z</time>
      </trkpt>
      <trkpt lat="47.532066" lon="1.8031752">
        <ele>131</ele>
        <time>2022-03-17T08:04:56.000Z</time>
      </trkpt>
      <trkpt lat="47.532055" lon="1.8031714">
        <ele>131</ele>
        <time>2022-03-17T08:04:57.000Z</time>
      </trkpt>
      <trkpt lat="47.532047" lon="1.8031645">
        <ele>131</ele>
        <time>2022-03-17T08:04:58.000Z</time>
      </trkpt>
      <trkpt lat="47.53204" lon="1.803154">
        <ele>132</ele>
        <time>2022-03-17T08:04:59.000Z</time>
      </trkpt>
      <trkpt lat="47.532032" lon="1.8031425">
        <ele>131</ele>
        <time>2022-03-17T08:05:00.000Z</time>
      </trkpt>
      <trkpt lat="47.532017" lon="1.8031384">
        <ele>131</ele>
        <time>2022-03-17T08:05:01.000Z</time>
      </trkpt>
      <trkpt lat="47.532" lon="1.8031355">
        <ele>131</ele>
        <time>2022-03-17T08:05:02.000Z</time>
      </trkpt>
      <trkpt lat="47.53199" lon="1.803129">
        <ele>131</ele>
        <time>2022-03-17T08:05:03.000Z</time>
      </trkpt>
      <trkpt lat="47.53196" lon="1.8031224">
        <ele>131</ele>
        <time>2022-03-17T08:05:05.000Z</time>
      </trkpt>
      <trkpt lat="47.531944" lon="1.8031213">
        <ele>132</ele>
        <time>2022-03-17T08:05:06.000Z</time>
      </trkpt>
      <trkpt lat="47.531925" lon="1.8031172">
        <ele>133</ele>
        <time>2022-03-17T08:05:07.000Z</time>
      </trkpt>
      <trkpt lat="47.531918" lon="1.8031151">
        <ele>132</ele>
        <time>2022-03-17T08:05:08.000Z</time>
      </trkpt>
      <trkpt lat="47.531906" lon="1.8031144">
        <ele>132</ele>
        <time>2022-03-17T08:05:09.000Z</time>
      </trkpt>
      <trkpt lat="47.531895" lon="1.8031147">
        <ele>132</ele>
        <time>2022-03-17T08:05:10.000Z</time>
      </trkpt>
      <trkpt lat="47.53188" lon="1.8031205">
        <ele>133</ele>
        <time>2022-03-17T08:05:11.000Z</time>
      </trkpt>
      <trkpt lat="47.531868" lon="1.803123">
        <ele>134</ele>
        <time>2022-03-17T08:05:12.000Z</time>
      </trkpt>
      <trkpt lat="47.531857" lon="1.8031241">
        <ele>135</ele>
        <time>2022-03-17T08:05:13.000Z</time>
      </trkpt>
      <trkpt lat="47.531837" lon="1.803125">
        <ele>136</ele>
        <time>2022-03-17T08:05:14.000Z</time>
      </trkpt>
      <trkpt lat="47.531826" lon="1.8031228">
        <ele>136</ele>
        <time>2022-03-17T08:05:15.000Z</time>
      </trkpt>
      <trkpt lat="47.531815" lon="1.8031182">
        <ele>136</ele>
        <time>2022-03-17T08:05:16.000Z</time>
      </trkpt>
      <trkpt lat="47.5318" lon="1.803115">
        <ele>136</ele>
        <time>2022-03-17T08:05:17.000Z</time>
      </trkpt>
      <trkpt lat="47.531788" lon="1.8031145">
        <ele>137</ele>
        <time>2022-03-17T08:05:18.000Z</time>
      </trkpt>
      <trkpt lat="47.531773" lon="1.8031132">
        <ele>136</ele>
        <time>2022-03-17T08:05:19.000Z</time>
      </trkpt>
      <trkpt lat="47.531757" lon="1.8031131">
        <ele>136</ele>
        <time>2022-03-17T08:05:20.000Z</time>
      </trkpt>
      <trkpt lat="47.531746" lon="1.8031126">
        <ele>137</ele>
        <time>2022-03-17T08:05:21.000Z</time>
      </trkpt>
      <trkpt lat="47.531734" lon="1.803111">
        <ele>137</ele>
        <time>2022-03-17T08:05:22.000Z</time>
      </trkpt>
      <trkpt lat="47.531723" lon="1.8031085">
        <ele>137</ele>
        <time>2022-03-17T08:05:23.000Z</time>
      </trkpt>
      <trkpt lat="47.53171" lon="1.8031061">
        <ele>137</ele>
        <time>2022-03-17T08:05:24.000Z</time>
      </trkpt>
      <trkpt lat="47.5317" lon="1.8031052">
        <ele>136</ele>
        <time>2022-03-17T08:05:25.000Z</time>
      </trkpt>
      <trkpt lat="47.53169" lon="1.8031057">
        <ele>136</ele>
        <time>2022-03-17T08:05:26.000Z</time>
      </trkpt>
      <trkpt lat="47.531677" lon="1.803099">
        <ele>136</ele>
        <time>2022-03-17T08:05:27.000Z</time>
      </trkpt>
      <trkpt lat="47.531666" lon="1.8030947">
        <ele>136</ele>
        <time>2022-03-17T08:05:28.000Z</time>
      </trkpt>
      <trkpt lat="47.53166" lon="1.8030899">
        <ele>136</ele>
        <time>2022-03-17T08:05:29.000Z</time>
      </trkpt>
      <trkpt lat="47.531643" lon="1.8030885">
        <ele>136</ele>
        <time>2022-03-17T08:05:30.000Z</time>
      </trkpt>
      <trkpt lat="47.53163" lon="1.8030856">
        <ele>136</ele>
        <time>2022-03-17T08:05:31.000Z</time>
      </trkpt>
      <trkpt lat="47.531624" lon="1.8030796">
        <ele>136</ele>
        <time>2022-03-17T08:05:32.000Z</time>
      </trkpt>
      <trkpt lat="47.531616" lon="1.803073">
        <ele>136</ele>
        <time>2022-03-17T08:05:33.000Z</time>
      </trkpt>
      <trkpt lat="47.53161" lon="1.8030639">
        <ele>136</ele>
        <time>2022-03-17T08:05:34.000Z</time>
      </trkpt>
      <trkpt lat="47.53161" lon="1.8030508">
        <ele>136</ele>
        <time>2022-03-17T08:05:35.000Z</time>
      </trkpt>
      <trkpt lat="47.531612" lon="1.8030362">
        <ele>135</ele>
        <time>2022-03-17T08:05:36.000Z</time>
      </trkpt>
      <trkpt lat="47.53162" lon="1.803023">
        <ele>136</ele>
        <time>2022-03-17T08:05:37.000Z</time>
      </trkpt>
      <trkpt lat="47.53162" lon="1.8030146">
        <ele>136</ele>
        <time>2022-03-17T08:05:38.000Z</time>
      </trkpt>
      <trkpt lat="47.531628" lon="1.8030028">
        <ele>136</ele>
        <time>2022-03-17T08:05:39.000Z</time>
      </trkpt>
      <trkpt lat="47.531635" lon="1.8029879">
        <ele>136</ele>
        <time>2022-03-17T08:05:40.000Z</time>
      </trkpt>
      <trkpt lat="47.531643" lon="1.8029734">
        <ele>137</ele>
        <time>2022-03-17T08:05:41.000Z</time>
      </trkpt>
      <trkpt lat="47.53165" lon="1.802958">
        <ele>137</ele>
        <time>2022-03-17T08:05:42.000Z</time>
      </trkpt>
      <trkpt lat="47.53166" lon="1.8029422">
        <ele>137</ele>
        <time>2022-03-17T08:05:43.000Z</time>
      </trkpt>
      <trkpt lat="47.531666" lon="1.8029251">
        <ele>137</ele>
        <time>2022-03-17T08:05:44.000Z</time>
      </trkpt>
      <trkpt lat="47.53167" lon="1.8029068">
        <ele>138</ele>
        <time>2022-03-17T08:05:45.000Z</time>
      </trkpt>
      <trkpt lat="47.531677" lon="1.8028882">
        <ele>138</ele>
        <time>2022-03-17T08:05:46.000Z</time>
      </trkpt>
      <trkpt lat="47.531685" lon="1.8028675">
        <ele>138</ele>
        <time>2022-03-17T08:05:47.000Z</time>
      </trkpt>
      <trkpt lat="47.53169" lon="1.802848">
        <ele>139</ele>
        <time>2022-03-17T08:05:48.000Z</time>
      </trkpt>
      <trkpt lat="47.531693" lon="1.80283">
        <ele>139</ele>
        <time>2022-03-17T08:05:49.000Z</time>
      </trkpt>
      <trkpt lat="47.5317" lon="1.8028147">
        <ele>139</ele>
        <time>2022-03-17T08:05:50.000Z</time>
      </trkpt>
      <trkpt lat="47.531708" lon="1.8028008">
        <ele>139</ele>
        <time>2022-03-17T08:05:51.000Z</time>
      </trkpt>
      <trkpt lat="47.531723" lon="1.8027622">
        <ele>139</ele>
        <time>2022-03-17T08:05:53.000Z</time>
      </trkpt>
      <trkpt lat="47.53173" lon="1.8027337">
        <ele>139</ele>
        <time>2022-03-17T08:05:55.000Z</time>
      </trkpt>
      <trkpt lat="47.53174" lon="1.8027208">
        <ele>139</ele>
        <time>2022-03-17T08:05:56.000Z</time>
      </trkpt>
      <trkpt lat="47.531746" lon="1.8027046">
        <ele>139</ele>
        <time>2022-03-17T08:05:57.000Z</time>
      </trkpt>
      <trkpt lat="47.53175" lon="1.8026944">
        <ele>139</ele>
        <time>2022-03-17T08:05:58.000Z</time>
      </trkpt>
      <trkpt lat="47.531757" lon="1.8026806">
        <ele>139</ele>
        <time>2022-03-17T08:05:59.000Z</time>
      </trkpt>
      <trkpt lat="47.53177" lon="1.8026596">
        <ele>139</ele>
        <time>2022-03-17T08:06:00.000Z</time>
      </trkpt>
      <trkpt lat="47.531776" lon="1.8026413">
        <ele>140</ele>
        <time>2022-03-17T08:06:01.000Z</time>
      </trkpt>
      <trkpt lat="47.531796" lon="1.8026099">
        <ele>140</ele>
        <time>2022-03-17T08:06:03.000Z</time>
      </trkpt>
      <trkpt lat="47.53181" lon="1.8025813">
        <ele>141</ele>
        <time>2022-03-17T08:06:05.000Z</time>
      </trkpt>
      <trkpt lat="47.531815" lon="1.8025686">
        <ele>141</ele>
        <time>2022-03-17T08:06:06.000Z</time>
      </trkpt>
      <trkpt lat="47.531822" lon="1.8025533">
        <ele>141</ele>
        <time>2022-03-17T08:06:07.000Z</time>
      </trkpt>
      <trkpt lat="47.531826" lon="1.8025385">
        <ele>141</ele>
        <time>2022-03-17T08:06:08.000Z</time>
      </trkpt>
      <trkpt lat="47.531834" lon="1.8025253">
        <ele>142</ele>
        <time>2022-03-17T08:06:09.000Z</time>
      </trkpt>
      <trkpt lat="47.531845" lon="1.8025126">
        <ele>142</ele>
        <time>2022-03-17T08:06:10.000Z</time>
      </trkpt>
      <trkpt lat="47.531853" lon="1.8024992">
        <ele>142</ele>
        <time>2022-03-17T08:06:11.000Z</time>
      </trkpt>
      <trkpt lat="47.53186" lon="1.8024842">
        <ele>142</ele>
        <time>2022-03-17T08:06:12.000Z</time>
      </trkpt>
      <trkpt lat="47.53187" lon="1.8024648">
        <ele>141</ele>
        <time>2022-03-17T08:06:13.000Z</time>
      </trkpt>
      <trkpt lat="47.531876" lon="1.802448">
        <ele>141</ele>
        <time>2022-03-17T08:06:14.000Z</time>
      </trkpt>
      <trkpt lat="47.531883" lon="1.8024327">
        <ele>141</ele>
        <time>2022-03-17T08:06:15.000Z</time>
      </trkpt>
      <trkpt lat="47.531895" lon="1.8024174">
        <ele>141</ele>
        <time>2022-03-17T08:06:16.000Z</time>
      </trkpt>
      <trkpt lat="47.5319" lon="1.8024043">
        <ele>141</ele>
        <time>2022-03-17T08:06:17.000Z</time>
      </trkpt>
      <trkpt lat="47.531906" lon="1.8023868">
        <ele>142</ele>
        <time>2022-03-17T08:06:18.000Z</time>
      </trkpt>
      <trkpt lat="47.531914" lon="1.8023764">
        <ele>141</ele>
        <time>2022-03-17T08:06:19.000Z</time>
      </trkpt>
      <trkpt lat="47.531925" lon="1.8023618">
        <ele>141</ele>
        <time>2022-03-17T08:06:20.000Z</time>
      </trkpt>
      <trkpt lat="47.531933" lon="1.802347">
        <ele>141</ele>
        <time>2022-03-17T08:06:21.000Z</time>
      </trkpt>
      <trkpt lat="47.53194" lon="1.8023354">
        <ele>141</ele>
        <time>2022-03-17T08:06:22.000Z</time>
      </trkpt>
      <trkpt lat="47.531948" lon="1.8023175">
        <ele>141</ele>
        <time>2022-03-17T08:06:23.000Z</time>
      </trkpt>
      <trkpt lat="47.53196" lon="1.802303">
        <ele>141</ele>
        <time>2022-03-17T08:06:24.000Z</time>
      </trkpt>
      <trkpt lat="47.53197" lon="1.8022853">
        <ele>141</ele>
        <time>2022-03-17T08:06:25.000Z</time>
      </trkpt>
      <trkpt lat="47.531975" lon="1.8022692">
        <ele>141</ele>
        <time>2022-03-17T08:06:26.000Z</time>
      </trkpt>
      <trkpt lat="47.53198" lon="1.80225">
        <ele>140</ele>
        <time>2022-03-17T08:06:27.000Z</time>
      </trkpt>
      <trkpt lat="47.531986" lon="1.8022339">
        <ele>140</ele>
        <time>2022-03-17T08:06:28.000Z</time>
      </trkpt>
      <trkpt lat="47.531998" lon="1.8022153">
        <ele>140</ele>
        <time>2022-03-17T08:06:29.000Z</time>
      </trkpt>
      <trkpt lat="47.532" lon="1.8021955">
        <ele>140</ele>
        <time>2022-03-17T08:06:30.000Z</time>
      </trkpt>
      <trkpt lat="47.532005" lon="1.8021761">
        <ele>140</ele>
        <time>2022-03-17T08:06:31.000Z</time>
      </trkpt>
      <trkpt lat="47.532013" lon="1.8021568">
        <ele>140</ele>
        <time>2022-03-17T08:06:32.000Z</time>
      </trkpt>
      <trkpt lat="47.532017" lon="1.8021384">
        <ele>140</ele>
        <time>2022-03-17T08:06:33.000Z</time>
      </trkpt>
      <trkpt lat="47.532024" lon="1.8021225">
        <ele>141</ele>
        <time>2022-03-17T08:06:34.000Z</time>
      </trkpt>
      <trkpt lat="47.532032" lon="1.8021123">
        <ele>141</ele>
        <time>2022-03-17T08:06:35.000Z</time>
      </trkpt>
      <trkpt lat="47.53204" lon="1.8021029">
        <ele>140</ele>
        <time>2022-03-17T08:06:36.000Z</time>
      </trkpt>
      <trkpt lat="47.532043" lon="1.802093">
        <ele>140</ele>
        <time>2022-03-17T08:06:37.000Z</time>
      </trkpt>
      <trkpt lat="47.53205" lon="1.8020902">
        <ele>140</ele>
        <time>2022-03-17T08:06:38.000Z</time>
      </trkpt>
      <trkpt lat="47.532063" lon="1.8020866">
        <ele>140</ele>
        <time>2022-03-17T08:06:39.000Z</time>
      </trkpt>
      <trkpt lat="47.532074" lon="1.802074">
        <ele>140</ele>
        <time>2022-03-17T08:06:40.000Z</time>
      </trkpt>
      <trkpt lat="47.532085" lon="1.8020674">
        <ele>140</ele>
        <time>2022-03-17T08:06:41.000Z</time>
      </trkpt>
      <trkpt lat="47.5321" lon="1.8020558">
        <ele>140</ele>
        <time>2022-03-17T08:06:42.000Z</time>
      </trkpt>
      <trkpt lat="47.53211" lon="1.8020476">
        <ele>141</ele>
        <time>2022-03-17T08:06:43.000Z</time>
      </trkpt>
      <trkpt lat="47.53212" lon="1.8020391">
        <ele>140</ele>
        <time>2022-03-17T08:06:44.000Z</time>
      </trkpt>
      <trkpt lat="47.53213" lon="1.8020376">
        <ele>141</ele>
        <time>2022-03-17T08:06:45.000Z</time>
      </trkpt>
      <trkpt lat="47.532143" lon="1.8020338">
        <ele>141</ele>
        <time>2022-03-17T08:06:46.000Z</time>
      </trkpt>
      <trkpt lat="47.53215" lon="1.8020254">
        <ele>141</ele>
        <time>2022-03-17T08:06:47.000Z</time>
      </trkpt>
      <trkpt lat="47.532166" lon="1.8020171">
        <ele>141</ele>
        <time>2022-03-17T08:06:48.000Z</time>
      </trkpt>
      <trkpt lat="47.532177" lon="1.8020083">
        <ele>141</ele>
        <time>2022-03-17T08:06:49.000Z</time>
      </trkpt>
      <trkpt lat="47.532192" lon="1.8019967">
        <ele>141</ele>
        <time>2022-03-17T08:06:50.000Z</time>
      </trkpt>
      <trkpt lat="47.532207" lon="1.8019857">
        <ele>141</ele>
        <time>2022-03-17T08:06:51.000Z</time>
      </trkpt>
      <trkpt lat="47.532215" lon="1.8019793">
        <ele>141</ele>
        <time>2022-03-17T08:06:52.000Z</time>
      </trkpt>
      <trkpt lat="47.532227" lon="1.8019708">
        <ele>141</ele>
        <time>2022-03-17T08:06:53.000Z</time>
      </trkpt>
      <trkpt lat="47.532234" lon="1.8019631">
        <ele>141</ele>
        <time>2022-03-17T08:06:54.000Z</time>
      </trkpt>
      <trkpt lat="47.532246" lon="1.8019536">
        <ele>142</ele>
        <time>2022-03-17T08:06:55.000Z</time>
      </trkpt>
      <trkpt lat="47.532253" lon="1.801951">
        <ele>141</ele>
        <time>2022-03-17T08:06:56.000Z</time>
      </trkpt>
      <trkpt lat="47.532265" lon="1.8019463">
        <ele>141</ele>
        <time>2022-03-17T08:06:57.000Z</time>
      </trkpt>
      <trkpt lat="47.532276" lon="1.8019404">
        <ele>141</ele>
        <time>2022-03-17T08:06:58.000Z</time>
      </trkpt>
      <trkpt lat="47.532288" lon="1.801933">
        <ele>141</ele>
        <time>2022-03-17T08:06:59.000Z</time>
      </trkpt>
      <trkpt lat="47.532295" lon="1.801922">
        <ele>140</ele>
        <time>2022-03-17T08:07:00.000Z</time>
      </trkpt>
      <trkpt lat="47.53231" lon="1.8019102">
        <ele>140</ele>
        <time>2022-03-17T08:07:01.000Z</time>
      </trkpt>
      <trkpt lat="47.53232" lon="1.801904">
        <ele>140</ele>
        <time>2022-03-17T08:07:02.000Z</time>
      </trkpt>
      <trkpt lat="47.53233" lon="1.8018954">
        <ele>140</ele>
        <time>2022-03-17T08:07:03.000Z</time>
      </trkpt>
      <trkpt lat="47.53234" lon="1.8018851">
        <ele>140</ele>
        <time>2022-03-17T08:07:04.000Z</time>
      </trkpt>
      <trkpt lat="47.532352" lon="1.8018792">
        <ele>140</ele>
        <time>2022-03-17T08:07:05.000Z</time>
      </trkpt>
      <trkpt lat="47.532364" lon="1.801872">
        <ele>139</ele>
        <time>2022-03-17T08:07:06.000Z</time>
      </trkpt>
      <trkpt lat="47.532375" lon="1.8018643">
        <ele>139</ele>
        <time>2022-03-17T08:07:07.000Z</time>
      </trkpt>
      <trkpt lat="47.532387" lon="1.8018557">
        <ele>139</ele>
        <time>2022-03-17T08:07:08.000Z</time>
      </trkpt>
      <trkpt lat="47.532394" lon="1.801847">
        <ele>139</ele>
        <time>2022-03-17T08:07:09.000Z</time>
      </trkpt>
      <trkpt lat="47.532406" lon="1.8018392">
        <ele>139</ele>
        <time>2022-03-17T08:07:10.000Z</time>
      </trkpt>
      <trkpt lat="47.532413" lon="1.8018297">
        <ele>139</ele>
        <time>2022-03-17T08:07:11.000Z</time>
      </trkpt>
      <trkpt lat="47.532425" lon="1.8018215">
        <ele>139</ele>
        <time>2022-03-17T08:07:12.000Z</time>
      </trkpt>
      <trkpt lat="47.532436" lon="1.8018105">
        <ele>139</ele>
        <time>2022-03-17T08:07:13.000Z</time>
      </trkpt>
      <trkpt lat="47.532444" lon="1.801801">
        <ele>138</ele>
        <time>2022-03-17T08:07:14.000Z</time>
      </trkpt>
      <trkpt lat="47.53245" lon="1.8017932">
        <ele>138</ele>
        <time>2022-03-17T08:07:15.000Z</time>
      </trkpt>
      <trkpt lat="47.53246" lon="1.8017824">
        <ele>139</ele>
        <time>2022-03-17T08:07:16.000Z</time>
      </trkpt>
      <trkpt lat="47.53247" lon="1.8017738">
        <ele>139</ele>
        <time>2022-03-17T08:07:17.000Z</time>
      </trkpt>
      <trkpt lat="47.53248" lon="1.8017687">
        <ele>140</ele>
        <time>2022-03-17T08:07:18.000Z</time>
      </trkpt>
      <trkpt lat="47.53249" lon="1.801763">
        <ele>140</ele>
        <time>2022-03-17T08:07:19.000Z</time>
      </trkpt>
      <trkpt lat="47.5325" lon="1.8017583">
        <ele>140</ele>
        <time>2022-03-17T08:07:20.000Z</time>
      </trkpt>
      <trkpt lat="47.532513" lon="1.8017472">
        <ele>140</ele>
        <time>2022-03-17T08:07:21.000Z</time>
      </trkpt>
      <trkpt lat="47.532528" lon="1.8017362">
        <ele>140</ele>
        <time>2022-03-17T08:07:22.000Z</time>
      </trkpt>
      <trkpt lat="47.53254" lon="1.8017263">
        <ele>139</ele>
        <time>2022-03-17T08:07:23.000Z</time>
      </trkpt>
      <trkpt lat="47.532547" lon="1.8017201">
        <ele>139</ele>
        <time>2022-03-17T08:07:24.000Z</time>
      </trkpt>
      <trkpt lat="47.532562" lon="1.8017124">
        <ele>139</ele>
        <time>2022-03-17T08:07:25.000Z</time>
      </trkpt>
      <trkpt lat="47.532574" lon="1.8017015">
        <ele>138</ele>
        <time>2022-03-17T08:07:26.000Z</time>
      </trkpt>
      <trkpt lat="47.532585" lon="1.8016964">
        <ele>138</ele>
        <time>2022-03-17T08:07:27.000Z</time>
      </trkpt>
      <trkpt lat="47.5326" lon="1.8016908">
        <ele>138</ele>
        <time>2022-03-17T08:07:28.000Z</time>
      </trkpt>
      <trkpt lat="47.532608" lon="1.8016871">
        <ele>138</ele>
        <time>2022-03-17T08:07:29.000Z</time>
      </trkpt>
      <trkpt lat="47.532616" lon="1.8016828">
        <ele>138</ele>
        <time>2022-03-17T08:07:30.000Z</time>
      </trkpt>
      <trkpt lat="47.532623" lon="1.8016804">
        <ele>138</ele>
        <time>2022-03-17T08:07:31.000Z</time>
      </trkpt>
      <trkpt lat="47.532635" lon="1.801676">
        <ele>137</ele>
        <time>2022-03-17T08:07:32.000Z</time>
      </trkpt>
      <trkpt lat="47.532646" lon="1.801666">
        <ele>138</ele>
        <time>2022-03-17T08:07:33.000Z</time>
      </trkpt>
      <trkpt lat="47.532658" lon="1.8016572">
        <ele>138</ele>
        <time>2022-03-17T08:07:34.000Z</time>
      </trkpt>
      <trkpt lat="47.53267" lon="1.8016467">
        <ele>138</ele>
        <time>2022-03-17T08:07:35.000Z</time>
      </trkpt>
      <trkpt lat="47.53268" lon="1.801638">
        <ele>137</ele>
        <time>2022-03-17T08:07:36.000Z</time>
      </trkpt>
      <trkpt lat="47.532692" lon="1.8016331">
        <ele>138</ele>
        <time>2022-03-17T08:07:37.000Z</time>
      </trkpt>
      <trkpt lat="47.532707" lon="1.8016294">
        <ele>138</ele>
        <time>2022-03-17T08:07:38.000Z</time>
      </trkpt>
      <trkpt lat="47.532722" lon="1.8016251">
        <ele>138</ele>
        <time>2022-03-17T08:07:39.000Z</time>
      </trkpt>
      <trkpt lat="47.532734" lon="1.8016213">
        <ele>139</ele>
        <time>2022-03-17T08:07:40.000Z</time>
      </trkpt>
      <trkpt lat="47.53275" lon="1.8016181">
        <ele>139</ele>
        <time>2022-03-17T08:07:41.000Z</time>
      </trkpt>
      <trkpt lat="47.53276" lon="1.8016164">
        <ele>139</ele>
        <time>2022-03-17T08:07:42.000Z</time>
      </trkpt>
      <trkpt lat="47.532772" lon="1.8016083">
        <ele>139</ele>
        <time>2022-03-17T08:07:43.000Z</time>
      </trkpt>
      <trkpt lat="47.532787" lon="1.8016056">
        <ele>140</ele>
        <time>2022-03-17T08:07:44.000Z</time>
      </trkpt>
      <trkpt lat="47.532803" lon="1.8016032">
        <ele>140</ele>
        <time>2022-03-17T08:07:45.000Z</time>
      </trkpt>
      <trkpt lat="47.532814" lon="1.8015978">
        <ele>140</ele>
        <time>2022-03-17T08:07:46.000Z</time>
      </trkpt>
      <trkpt lat="47.532825" lon="1.8015931">
        <ele>140</ele>
        <time>2022-03-17T08:07:47.000Z</time>
      </trkpt>
      <trkpt lat="47.532837" lon="1.801586">
        <ele>141</ele>
        <time>2022-03-17T08:07:48.000Z</time>
      </trkpt>
      <trkpt lat="47.53285" lon="1.8015858">
        <ele>141</ele>
        <time>2022-03-17T08:07:49.000Z</time>
      </trkpt>
      <trkpt lat="47.532856" lon="1.8015838">
        <ele>140</ele>
        <time>2022-03-17T08:07:50.000Z</time>
      </trkpt>
      <trkpt lat="47.532867" lon="1.8015823">
        <ele>140</ele>
        <time>2022-03-17T08:07:51.000Z</time>
      </trkpt>
      <trkpt lat="47.532875" lon="1.8015816">
        <ele>139</ele>
        <time>2022-03-17T08:07:52.000Z</time>
      </trkpt>
      <trkpt lat="47.532883" lon="1.8015792">
        <ele>140</ele>
        <time>2022-03-17T08:07:53.000Z</time>
      </trkpt>
      <trkpt lat="47.532894" lon="1.8015748">
        <ele>140</ele>
        <time>2022-03-17T08:07:54.000Z</time>
      </trkpt>
      <trkpt lat="47.5329" lon="1.8015753">
        <ele>141</ele>
        <time>2022-03-17T08:07:55.000Z</time>
      </trkpt>
      <trkpt lat="47.532913" lon="1.8015718">
        <ele>141</ele>
        <time>2022-03-17T08:07:56.000Z</time>
      </trkpt>
      <trkpt lat="47.53293" lon="1.8015697">
        <ele>141</ele>
        <time>2022-03-17T08:07:57.000Z</time>
      </trkpt>
      <trkpt lat="47.532944" lon="1.8015629">
        <ele>141</ele>
        <time>2022-03-17T08:07:58.000Z</time>
      </trkpt>
      <trkpt lat="47.532955" lon="1.8015556">
        <ele>142</ele>
        <time>2022-03-17T08:07:59.000Z</time>
      </trkpt>
      <trkpt lat="47.532967" lon="1.8015567">
        <ele>142</ele>
        <time>2022-03-17T08:08:00.000Z</time>
      </trkpt>
      <trkpt lat="47.532978" lon="1.8015547">
        <ele>143</ele>
        <time>2022-03-17T08:08:01.000Z</time>
      </trkpt>
      <trkpt lat="47.53299" lon="1.8015519">
        <ele>143</ele>
        <time>2022-03-17T08:08:02.000Z</time>
      </trkpt>
      <trkpt lat="47.533005" lon="1.801551">
        <ele>144</ele>
        <time>2022-03-17T08:08:03.000Z</time>
      </trkpt>
      <trkpt lat="47.533016" lon="1.8015466">
        <ele>143</ele>
        <time>2022-03-17T08:08:04.000Z</time>
      </trkpt>
      <trkpt lat="47.533028" lon="1.8015407">
        <ele>143</ele>
        <time>2022-03-17T08:08:05.000Z</time>
      </trkpt>
      <trkpt lat="47.533035" lon="1.8015332">
        <ele>143</ele>
        <time>2022-03-17T08:08:06.000Z</time>
      </trkpt>
      <trkpt lat="47.53305" lon="1.801526">
        <ele>144</ele>
        <time>2022-03-17T08:08:07.000Z</time>
      </trkpt>
      <trkpt lat="47.533066" lon="1.8015202">
        <ele>144</ele>
        <time>2022-03-17T08:08:08.000Z</time>
      </trkpt>
      <trkpt lat="47.53308" lon="1.8015134">
        <ele>144</ele>
        <time>2022-03-17T08:08:09.000Z</time>
      </trkpt>
      <trkpt lat="47.533092" lon="1.8015078">
        <ele>144</ele>
        <time>2022-03-17T08:08:10.000Z</time>
      </trkpt>
      <trkpt lat="47.5331" lon="1.801501">
        <ele>144</ele>
        <time>2022-03-17T08:08:11.000Z</time>
      </trkpt>
      <trkpt lat="47.533115" lon="1.8014927">
        <ele>144</ele>
        <time>2022-03-17T08:08:12.000Z</time>
      </trkpt>
      <trkpt lat="47.533127" lon="1.8014886">
        <ele>144</ele>
        <time>2022-03-17T08:08:13.000Z</time>
      </trkpt>
      <trkpt lat="47.533134" lon="1.8014838">
        <ele>145</ele>
        <time>2022-03-17T08:08:14.000Z</time>
      </trkpt>
      <trkpt lat="47.533146" lon="1.8014784">
        <ele>145</ele>
        <time>2022-03-17T08:08:15.000Z</time>
      </trkpt>
      <trkpt lat="47.533157" lon="1.8014776">
        <ele>145</ele>
        <time>2022-03-17T08:08:16.000Z</time>
      </trkpt>
      <trkpt lat="47.53317" lon="1.8014733">
        <ele>146</ele>
        <time>2022-03-17T08:08:17.000Z</time>
      </trkpt>
      <trkpt lat="47.533176" lon="1.8014629">
        <ele>146</ele>
        <time>2022-03-17T08:08:18.000Z</time>
      </trkpt>
      <trkpt lat="47.533188" lon="1.8014559">
        <ele>146</ele>
        <time>2022-03-17T08:08:19.000Z</time>
      </trkpt>
      <trkpt lat="47.5332" lon="1.8014457">
        <ele>146</ele>
        <time>2022-03-17T08:08:20.000Z</time>
      </trkpt>
      <trkpt lat="47.533207" lon="1.80144">
        <ele>145</ele>
        <time>2022-03-17T08:08:21.000Z</time>
      </trkpt>
      <trkpt lat="47.53322" lon="1.8014346">
        <ele>145</ele>
        <time>2022-03-17T08:08:22.000Z</time>
      </trkpt>
      <trkpt lat="47.53323" lon="1.8014251">
        <ele>145</ele>
        <time>2022-03-17T08:08:23.000Z</time>
      </trkpt>
      <trkpt lat="47.533237" lon="1.8014127">
        <ele>145</ele>
        <time>2022-03-17T08:08:24.000Z</time>
      </trkpt>
      <trkpt lat="47.533245" lon="1.8014046">
        <ele>146</ele>
        <time>2022-03-17T08:08:25.000Z</time>
      </trkpt>
      <trkpt lat="47.533253" lon="1.8013982">
        <ele>145</ele>
        <time>2022-03-17T08:08:26.000Z</time>
      </trkpt>
      <trkpt lat="47.533264" lon="1.80139">
        <ele>146</ele>
        <time>2022-03-17T08:08:27.000Z</time>
      </trkpt>
      <trkpt lat="47.53327" lon="1.8013803">
        <ele>145</ele>
        <time>2022-03-17T08:08:28.000Z</time>
      </trkpt>
      <trkpt lat="47.53328" lon="1.8013716">
        <ele>145</ele>
        <time>2022-03-17T08:08:29.000Z</time>
      </trkpt>
      <trkpt lat="47.53329" lon="1.8013624">
        <ele>145</ele>
        <time>2022-03-17T08:08:30.000Z</time>
      </trkpt>
      <trkpt lat="47.533302" lon="1.8013545">
        <ele>145</ele>
        <time>2022-03-17T08:08:31.000Z</time>
      </trkpt>
      <trkpt lat="47.533318" lon="1.8013446">
        <ele>145</ele>
        <time>2022-03-17T08:08:32.000Z</time>
      </trkpt>
      <trkpt lat="47.53333" lon="1.8013362">
        <ele>145</ele>
        <time>2022-03-17T08:08:33.000Z</time>
      </trkpt>
      <trkpt lat="47.533337" lon="1.8013291">
        <ele>144</ele>
        <time>2022-03-17T08:08:34.000Z</time>
      </trkpt>
      <trkpt lat="47.533348" lon="1.8013211">
        <ele>144</ele>
        <time>2022-03-17T08:08:35.000Z</time>
      </trkpt>
      <trkpt lat="47.533356" lon="1.8013158">
        <ele>144</ele>
        <time>2022-03-17T08:08:36.000Z</time>
      </trkpt>
      <trkpt lat="47.533367" lon="1.8013084">
        <ele>144</ele>
        <time>2022-03-17T08:08:37.000Z</time>
      </trkpt>
      <trkpt lat="47.533382" lon="1.8012997">
        <ele>144</ele>
        <time>2022-03-17T08:08:38.000Z</time>
      </trkpt>
      <trkpt lat="47.533398" lon="1.8012923">
        <ele>144</ele>
        <time>2022-03-17T08:08:39.000Z</time>
      </trkpt>
      <trkpt lat="47.53341" lon="1.8012837">
        <ele>144</ele>
        <time>2022-03-17T08:08:40.000Z</time>
      </trkpt>
      <trkpt lat="47.53342" lon="1.8012766">
        <ele>144</ele>
        <time>2022-03-17T08:08:41.000Z</time>
      </trkpt>
      <trkpt lat="47.533432" lon="1.8012695">
        <ele>144</ele>
        <time>2022-03-17T08:08:42.000Z</time>
      </trkpt>
      <trkpt lat="47.533443" lon="1.8012658">
        <ele>144</ele>
        <time>2022-03-17T08:08:43.000Z</time>
      </trkpt>
      <trkpt lat="47.53346" lon="1.801253">
        <ele>144</ele>
        <time>2022-03-17T08:08:44.000Z</time>
      </trkpt>
      <trkpt lat="47.53347" lon="1.8012474">
        <ele>144</ele>
        <time>2022-03-17T08:08:45.000Z</time>
      </trkpt>
      <trkpt lat="47.533485" lon="1.8012402">
        <ele>145</ele>
        <time>2022-03-17T08:08:46.000Z</time>
      </trkpt>
      <trkpt lat="47.533493" lon="1.8012311">
        <ele>145</ele>
        <time>2022-03-17T08:08:47.000Z</time>
      </trkpt>
      <trkpt lat="47.5335" lon="1.8012159">
        <ele>145</ele>
        <time>2022-03-17T08:08:48.000Z</time>
      </trkpt>
      <trkpt lat="47.53351" lon="1.8012106">
        <ele>145</ele>
        <time>2022-03-17T08:08:49.000Z</time>
      </trkpt>
      <trkpt lat="47.53352" lon="1.8011997">
        <ele>145</ele>
        <time>2022-03-17T08:08:50.000Z</time>
      </trkpt>
      <trkpt lat="47.53353" lon="1.8011928">
        <ele>145</ele>
        <time>2022-03-17T08:08:51.000Z</time>
      </trkpt>
      <trkpt lat="47.533543" lon="1.8011868">
        <ele>145</ele>
        <time>2022-03-17T08:08:52.000Z</time>
      </trkpt>
      <trkpt lat="47.533554" lon="1.8011763">
        <ele>145</ele>
        <time>2022-03-17T08:08:53.000Z</time>
      </trkpt>
      <trkpt lat="47.53356" lon="1.801165">
        <ele>145</ele>
        <time>2022-03-17T08:08:54.000Z</time>
      </trkpt>
      <trkpt lat="47.533573" lon="1.8011546">
        <ele>145</ele>
        <time>2022-03-17T08:08:55.000Z</time>
      </trkpt>
      <trkpt lat="47.53359" lon="1.8011426">
        <ele>145</ele>
        <time>2022-03-17T08:08:56.000Z</time>
      </trkpt>
      <trkpt lat="47.5336" lon="1.8011317">
        <ele>146</ele>
        <time>2022-03-17T08:08:57.000Z</time>
      </trkpt>
      <trkpt lat="47.533607" lon="1.8011249">
        <ele>146</ele>
        <time>2022-03-17T08:08:58.000Z</time>
      </trkpt>
      <trkpt lat="47.53362" lon="1.8011148">
        <ele>146</ele>
        <time>2022-03-17T08:08:59.000Z</time>
      </trkpt>
      <trkpt lat="47.533627" lon="1.8011141">
        <ele>147</ele>
        <time>2022-03-17T08:09:00.000Z</time>
      </trkpt>
      <trkpt lat="47.533634" lon="1.8011109">
        <ele>147</ele>
        <time>2022-03-17T08:09:01.000Z</time>
      </trkpt>
      <trkpt lat="47.533646" lon="1.8011014">
        <ele>147</ele>
        <time>2022-03-17T08:09:02.000Z</time>
      </trkpt>
      <trkpt lat="47.533657" lon="1.8010927">
        <ele>147</ele>
        <time>2022-03-17T08:09:03.000Z</time>
      </trkpt>
      <trkpt lat="47.533665" lon="1.8010832">
        <ele>146</ele>
        <time>2022-03-17T08:09:04.000Z</time>
      </trkpt>
      <trkpt lat="47.533676" lon="1.8010787">
        <ele>146</ele>
        <time>2022-03-17T08:09:05.000Z</time>
      </trkpt>
      <trkpt lat="47.533684" lon="1.8010747">
        <ele>145</ele>
        <time>2022-03-17T08:09:06.000Z</time>
      </trkpt>
      <trkpt lat="47.53369" lon="1.8010778">
        <ele>145</ele>
        <time>2022-03-17T08:09:07.000Z</time>
      </trkpt>
      <trkpt lat="47.533703" lon="1.8010812">
        <ele>144</ele>
        <time>2022-03-17T08:09:08.000Z</time>
      </trkpt>
      <trkpt lat="47.53371" lon="1.8010895">
        <ele>143</ele>
        <time>2022-03-17T08:09:09.000Z</time>
      </trkpt>
      <trkpt lat="47.533722" lon="1.801095">
        <ele>143</ele>
        <time>2022-03-17T08:09:10.000Z</time>
      </trkpt>
      <trkpt lat="47.533726" lon="1.8011024">
        <ele>143</ele>
        <time>2022-03-17T08:09:11.000Z</time>
      </trkpt>
      <trkpt lat="47.533733" lon="1.8011117">
        <ele>143</ele>
        <time>2022-03-17T08:09:12.000Z</time>
      </trkpt>
      <trkpt lat="47.533745" lon="1.8011159">
        <ele>143</ele>
        <time>2022-03-17T08:09:13.000Z</time>
      </trkpt>
      <trkpt lat="47.533752" lon="1.8011204">
        <ele>143</ele>
        <time>2022-03-17T08:09:14.000Z</time>
      </trkpt>
      <trkpt lat="47.533764" lon="1.8011299">
        <ele>143</ele>
        <time>2022-03-17T08:09:15.000Z</time>
      </trkpt>
      <trkpt lat="47.533775" lon="1.801141">
        <ele>143</ele>
        <time>2022-03-17T08:09:16.000Z</time>
      </trkpt>
      <trkpt lat="47.533783" lon="1.8011527">
        <ele>142</ele>
        <time>2022-03-17T08:09:17.000Z</time>
      </trkpt>
      <trkpt lat="47.53379" lon="1.8011663">
        <ele>142</ele>
        <time>2022-03-17T08:09:18.000Z</time>
      </trkpt>
      <trkpt lat="47.533802" lon="1.8011779">
        <ele>142</ele>
        <time>2022-03-17T08:09:19.000Z</time>
      </trkpt>
      <trkpt lat="47.53381" lon="1.801188">
        <ele>142</ele>
        <time>2022-03-17T08:09:20.000Z</time>
      </trkpt>
      <trkpt lat="47.53382" lon="1.8011973">
        <ele>142</ele>
        <time>2022-03-17T08:09:21.000Z</time>
      </trkpt>
      <trkpt lat="47.533825" lon="1.8012015">
        <ele>142</ele>
        <time>2022-03-17T08:09:22.000Z</time>
      </trkpt>
      <trkpt lat="47.53384" lon="1.8012048">
        <ele>142</ele>
        <time>2022-03-17T08:09:23.000Z</time>
      </trkpt>
      <trkpt lat="47.533848" lon="1.8012122">
        <ele>141</ele>
        <time>2022-03-17T08:09:24.000Z</time>
      </trkpt>
      <trkpt lat="47.533863" lon="1.8012235">
        <ele>142</ele>
        <time>2022-03-17T08:09:25.000Z</time>
      </trkpt>
      <trkpt lat="47.533875" lon="1.8012309">
        <ele>142</ele>
        <time>2022-03-17T08:09:26.000Z</time>
      </trkpt>
      <trkpt lat="47.533886" lon="1.8012372">
        <ele>142</ele>
        <time>2022-03-17T08:09:27.000Z</time>
      </trkpt>
      <trkpt lat="47.533897" lon="1.8012456">
        <ele>142</ele>
        <time>2022-03-17T08:09:28.000Z</time>
      </trkpt>
      <trkpt lat="47.533905" lon="1.8012483">
        <ele>141</ele>
        <time>2022-03-17T08:09:29.000Z</time>
      </trkpt>
      <trkpt lat="47.533916" lon="1.8012502">
        <ele>141</ele>
        <time>2022-03-17T08:09:30.000Z</time>
      </trkpt>
      <trkpt lat="47.533928" lon="1.8012515">
        <ele>141</ele>
        <time>2022-03-17T08:09:31.000Z</time>
      </trkpt>
      <trkpt lat="47.53394" lon="1.8012546">
        <ele>141</ele>
        <time>2022-03-17T08:09:32.000Z</time>
      </trkpt>
      <trkpt lat="47.533947" lon="1.8012576">
        <ele>141</ele>
        <time>2022-03-17T08:09:33.000Z</time>
      </trkpt>
      <trkpt lat="47.53396" lon="1.801259">
        <ele>140</ele>
        <time>2022-03-17T08:09:34.000Z</time>
      </trkpt>
      <trkpt lat="47.53397" lon="1.8012611">
        <ele>140</ele>
        <time>2022-03-17T08:09:35.000Z</time>
      </trkpt>
      <trkpt lat="47.53398" lon="1.801257">
        <ele>140</ele>
        <time>2022-03-17T08:09:36.000Z</time>
      </trkpt>
      <trkpt lat="47.533993" lon="1.8012584">
        <ele>139</ele>
        <time>2022-03-17T08:09:37.000Z</time>
      </trkpt>
      <trkpt lat="47.534008" lon="1.8012532">
        <ele>139</ele>
        <time>2022-03-17T08:09:38.000Z</time>
      </trkpt>
      <trkpt lat="47.53402" lon="1.8012482">
        <ele>139</ele>
        <time>2022-03-17T08:09:39.000Z</time>
      </trkpt>
      <trkpt lat="47.53402" lon="1.8012477">
        <ele>139</ele>
        <time>2022-03-17T08:09:40.000Z</time>
      </trkpt>
      <trkpt lat="47.534027" lon="1.8012465">
        <ele>139</ele>
        <time>2022-03-17T08:09:41.000Z</time>
      </trkpt>
      <trkpt lat="47.534035" lon="1.8012459">
        <ele>139</ele>
        <time>2022-03-17T08:09:42.000Z</time>
      </trkpt>
      <trkpt lat="47.534035" lon="1.8012459">
        <ele>139</ele>
        <time>2022-03-17T08:09:43.000Z</time>
      </trkpt>
      <trkpt lat="47.534054" lon="1.801246">
        <ele>139</ele>
        <time>2022-03-17T08:09:44.000Z</time>
      </trkpt>
      <trkpt lat="47.53407" lon="1.8012416">
        <ele>140</ele>
        <time>2022-03-17T08:09:45.000Z</time>
      </trkpt>
      <trkpt lat="47.534084" lon="1.8012377">
        <ele>140</ele>
        <time>2022-03-17T08:09:46.000Z</time>
      </trkpt>
      <trkpt lat="47.5341" lon="1.8012338">
        <ele>140</ele>
        <time>2022-03-17T08:09:47.000Z</time>
      </trkpt>
      <trkpt lat="47.53411" lon="1.8012263">
        <ele>141</ele>
        <time>2022-03-17T08:09:48.000Z</time>
      </trkpt>
      <trkpt lat="47.534122" lon="1.8012172">
        <ele>141</ele>
        <time>2022-03-17T08:09:49.000Z</time>
      </trkpt>
      <trkpt lat="47.534138" lon="1.8012094">
        <ele>141</ele>
        <time>2022-03-17T08:09:50.000Z</time>
      </trkpt>
      <trkpt lat="47.53415" lon="1.8012043">
        <ele>141</ele>
        <time>2022-03-17T08:09:51.000Z</time>
      </trkpt>
      <trkpt lat="47.53416" lon="1.801201">
        <ele>141</ele>
        <time>2022-03-17T08:09:52.000Z</time>
      </trkpt>
      <trkpt lat="47.53417" lon="1.8011974">
        <ele>141</ele>
        <time>2022-03-17T08:09:53.000Z</time>
      </trkpt>
      <trkpt lat="47.534184" lon="1.8011891">
        <ele>141</ele>
        <time>2022-03-17T08:09:54.000Z</time>
      </trkpt>
      <trkpt lat="47.53419" lon="1.8011837">
        <ele>141</ele>
        <time>2022-03-17T08:09:55.000Z</time>
      </trkpt>
      <trkpt lat="47.534203" lon="1.8011763">
        <ele>142</ele>
        <time>2022-03-17T08:09:56.000Z</time>
      </trkpt>
      <trkpt lat="47.53421" lon="1.8011658">
        <ele>142</ele>
        <time>2022-03-17T08:09:57.000Z</time>
      </trkpt>
      <trkpt lat="47.534218" lon="1.8011585">
        <ele>142</ele>
        <time>2022-03-17T08:09:58.000Z</time>
      </trkpt>
      <trkpt lat="47.53423" lon="1.8011523">
        <ele>142</ele>
        <time>2022-03-17T08:09:59.000Z</time>
      </trkpt>
      <trkpt lat="47.53424" lon="1.801145">
        <ele>142</ele>
        <time>2022-03-17T08:10:00.000Z</time>
      </trkpt>
      <trkpt lat="47.534252" lon="1.801133">
        <ele>141</ele>
        <time>2022-03-17T08:10:01.000Z</time>
      </trkpt>
      <trkpt lat="47.534264" lon="1.801126">
        <ele>141</ele>
        <time>2022-03-17T08:10:02.000Z</time>
      </trkpt>
      <trkpt lat="47.534275" lon="1.8011197">
        <ele>141</ele>
        <time>2022-03-17T08:10:03.000Z</time>
      </trkpt>
      <trkpt lat="47.534283" lon="1.8011146">
        <ele>141</ele>
        <time>2022-03-17T08:10:04.000Z</time>
      </trkpt>
      <trkpt lat="47.534294" lon="1.801109">
        <ele>141</ele>
        <time>2022-03-17T08:10:05.000Z</time>
      </trkpt>
      <trkpt lat="47.534306" lon="1.8011035">
        <ele>141</ele>
        <time>2022-03-17T08:10:06.000Z</time>
      </trkpt>
      <trkpt lat="47.53432" lon="1.8010958">
        <ele>142</ele>
        <time>2022-03-17T08:10:07.000Z</time>
      </trkpt>
      <trkpt lat="47.534332" lon="1.8010921">
        <ele>141</ele>
        <time>2022-03-17T08:10:08.000Z</time>
      </trkpt>
      <trkpt lat="47.53434" lon="1.8010875">
        <ele>141</ele>
        <time>2022-03-17T08:10:09.000Z</time>
      </trkpt>
      <trkpt lat="47.534355" lon="1.8010818">
        <ele>141</ele>
        <time>2022-03-17T08:10:10.000Z</time>
      </trkpt>
      <trkpt lat="47.534367" lon="1.8010757">
        <ele>142</ele>
        <time>2022-03-17T08:10:11.000Z</time>
      </trkpt>
      <trkpt lat="47.53438" lon="1.8010702">
        <ele>142</ele>
        <time>2022-03-17T08:10:12.000Z</time>
      </trkpt>
      <trkpt lat="47.534393" lon="1.8010659">
        <ele>142</ele>
        <time>2022-03-17T08:10:13.000Z</time>
      </trkpt>
      <trkpt lat="47.534405" lon="1.8010612">
        <ele>142</ele>
        <time>2022-03-17T08:10:14.000Z</time>
      </trkpt>
      <trkpt lat="47.534416" lon="1.8010542">
        <ele>142</ele>
        <time>2022-03-17T08:10:15.000Z</time>
      </trkpt>
      <trkpt lat="47.534428" lon="1.8010486">
        <ele>142</ele>
        <time>2022-03-17T08:10:16.000Z</time>
      </trkpt>
      <trkpt lat="47.534428" lon="1.8010478">
        <ele>142</ele>
        <time>2022-03-17T08:10:17.000Z</time>
      </trkpt>
      <trkpt lat="47.534435" lon="1.801043">
        <ele>142</ele>
        <time>2022-03-17T08:10:18.000Z</time>
      </trkpt>
      <trkpt lat="47.534447" lon="1.8010383">
        <ele>143</ele>
        <time>2022-03-17T08:10:19.000Z</time>
      </trkpt>
      <trkpt lat="47.534454" lon="1.8010352">
        <ele>142</ele>
        <time>2022-03-17T08:10:20.000Z</time>
      </trkpt>
      <trkpt lat="47.534454" lon="1.8010348">
        <ele>142</ele>
        <time>2022-03-17T08:10:21.000Z</time>
      </trkpt>
      <trkpt lat="47.534462" lon="1.8010283">
        <ele>142</ele>
        <time>2022-03-17T08:10:22.000Z</time>
      </trkpt>
      <trkpt lat="47.534473" lon="1.801018">
        <ele>142</ele>
        <time>2022-03-17T08:10:23.000Z</time>
      </trkpt>
      <trkpt lat="47.534485" lon="1.8010018">
        <ele>143</ele>
        <time>2022-03-17T08:10:24.000Z</time>
      </trkpt>
      <trkpt lat="47.534496" lon="1.8009846">
        <ele>143</ele>
        <time>2022-03-17T08:10:25.000Z</time>
      </trkpt>
      <trkpt lat="47.534508" lon="1.8009713">
        <ele>144</ele>
        <time>2022-03-17T08:10:26.000Z</time>
      </trkpt>
      <trkpt lat="47.53452" lon="1.8009576">
        <ele>144</ele>
        <time>2022-03-17T08:10:27.000Z</time>
      </trkpt>
      <trkpt lat="47.53453" lon="1.8009448">
        <ele>144</ele>
        <time>2022-03-17T08:10:28.000Z</time>
      </trkpt>
      <trkpt lat="47.53454" lon="1.8009319">
        <ele>144</ele>
        <time>2022-03-17T08:10:29.000Z</time>
      </trkpt>
      <trkpt lat="47.534546" lon="1.8009188">
        <ele>144</ele>
        <time>2022-03-17T08:10:30.000Z</time>
      </trkpt>
      <trkpt lat="47.534554" lon="1.8009093">
        <ele>144</ele>
        <time>2022-03-17T08:10:31.000Z</time>
      </trkpt>
      <trkpt lat="47.534557" lon="1.8008963">
        <ele>143</ele>
        <time>2022-03-17T08:10:32.000Z</time>
      </trkpt>
      <trkpt lat="47.534554" lon="1.8008862">
        <ele>143</ele>
        <time>2022-03-17T08:10:33.000Z</time>
      </trkpt>
      <trkpt lat="47.534554" lon="1.8008711">
        <ele>143</ele>
        <time>2022-03-17T08:10:34.000Z</time>
      </trkpt>
      <trkpt lat="47.534554" lon="1.8008571">
        <ele>143</ele>
        <time>2022-03-17T08:10:35.000Z</time>
      </trkpt>
      <trkpt lat="47.534554" lon="1.8008426">
        <ele>143</ele>
        <time>2022-03-17T08:10:36.000Z</time>
      </trkpt>
      <trkpt lat="47.53455" lon="1.8008292">
        <ele>142</ele>
        <time>2022-03-17T08:10:37.000Z</time>
      </trkpt>
      <trkpt lat="47.534546" lon="1.8008101">
        <ele>142</ele>
        <time>2022-03-17T08:10:38.000Z</time>
      </trkpt>
      <trkpt lat="47.534542" lon="1.8007901">
        <ele>141</ele>
        <time>2022-03-17T08:10:39.000Z</time>
      </trkpt>
      <trkpt lat="47.534542" lon="1.8007731">
        <ele>141</ele>
        <time>2022-03-17T08:10:40.000Z</time>
      </trkpt>
      <trkpt lat="47.534542" lon="1.8007565">
        <ele>141</ele>
        <time>2022-03-17T08:10:41.000Z</time>
      </trkpt>
      <trkpt lat="47.534542" lon="1.8007377">
        <ele>141</ele>
        <time>2022-03-17T08:10:42.000Z</time>
      </trkpt>
      <trkpt lat="47.53454" lon="1.800718">
        <ele>140</ele>
        <time>2022-03-17T08:10:43.000Z</time>
      </trkpt>
      <trkpt lat="47.53453" lon="1.8007003">
        <ele>140</ele>
        <time>2022-03-17T08:10:44.000Z</time>
      </trkpt>
      <trkpt lat="47.534527" lon="1.80068">
        <ele>140</ele>
        <time>2022-03-17T08:10:45.000Z</time>
      </trkpt>
      <trkpt lat="47.53452" lon="1.8006624">
        <ele>140</ele>
        <time>2022-03-17T08:10:46.000Z</time>
      </trkpt>
      <trkpt lat="47.53452" lon="1.800644">
        <ele>140</ele>
        <time>2022-03-17T08:10:47.000Z</time>
      </trkpt>
      <trkpt lat="47.53451" lon="1.8006306">
        <ele>140</ele>
        <time>2022-03-17T08:10:48.000Z</time>
      </trkpt>
      <trkpt lat="47.534504" lon="1.8006115">
        <ele>140</ele>
        <time>2022-03-17T08:10:49.000Z</time>
      </trkpt>
      <trkpt lat="47.534496" lon="1.8005848">
        <ele>140</ele>
        <time>2022-03-17T08:10:50.000Z</time>
      </trkpt>
      <trkpt lat="47.534492" lon="1.800569">
        <ele>140</ele>
        <time>2022-03-17T08:10:51.000Z</time>
      </trkpt>
      <trkpt lat="47.534485" lon="1.8005532">
        <ele>140</ele>
        <time>2022-03-17T08:10:52.000Z</time>
      </trkpt>
      <trkpt lat="47.534477" lon="1.8005363">
        <ele>140</ele>
        <time>2022-03-17T08:10:53.000Z</time>
      </trkpt>
      <trkpt lat="47.53447" lon="1.8005233">
        <ele>140</ele>
        <time>2022-03-17T08:10:54.000Z</time>
      </trkpt>
      <trkpt lat="47.534466" lon="1.8005055">
        <ele>140</ele>
        <time>2022-03-17T08:10:55.000Z</time>
      </trkpt>
      <trkpt lat="47.534462" lon="1.8004876">
        <ele>140</ele>
        <time>2022-03-17T08:10:56.000Z</time>
      </trkpt>
      <trkpt lat="47.53445" lon="1.8004714">
        <ele>140</ele>
        <time>2022-03-17T08:10:57.000Z</time>
      </trkpt>
      <trkpt lat="47.534443" lon="1.800456">
        <ele>141</ele>
        <time>2022-03-17T08:10:58.000Z</time>
      </trkpt>
      <trkpt lat="47.534435" lon="1.8004375">
        <ele>141</ele>
        <time>2022-03-17T08:10:59.000Z</time>
      </trkpt>
      <trkpt lat="47.534428" lon="1.8004203">
        <ele>140</ele>
        <time>2022-03-17T08:11:00.000Z</time>
      </trkpt>
      <trkpt lat="47.534424" lon="1.8004049">
        <ele>140</ele>
        <time>2022-03-17T08:11:01.000Z</time>
      </trkpt>
      <trkpt lat="47.53441" lon="1.800391">
        <ele>140</ele>
        <time>2022-03-17T08:11:02.000Z</time>
      </trkpt>
      <trkpt lat="47.5344" lon="1.800377">
        <ele>140</ele>
        <time>2022-03-17T08:11:03.000Z</time>
      </trkpt>
      <trkpt lat="47.534397" lon="1.8003641">
        <ele>140</ele>
        <time>2022-03-17T08:11:04.000Z</time>
      </trkpt>
      <trkpt lat="47.53439" lon="1.8003497">
        <ele>140</ele>
        <time>2022-03-17T08:11:05.000Z</time>
      </trkpt>
      <trkpt lat="47.534386" lon="1.800338">
        <ele>140</ele>
        <time>2022-03-17T08:11:06.000Z</time>
      </trkpt>
      <trkpt lat="47.53438" lon="1.8003217">
        <ele>140</ele>
        <time>2022-03-17T08:11:07.000Z</time>
      </trkpt>
      <trkpt lat="47.53437" lon="1.8003062">
        <ele>140</ele>
        <time>2022-03-17T08:11:08.000Z</time>
      </trkpt>
      <trkpt lat="47.534363" lon="1.8002936">
        <ele>141</ele>
        <time>2022-03-17T08:11:09.000Z</time>
      </trkpt>
      <trkpt lat="47.534355" lon="1.8002805">
        <ele>141</ele>
        <time>2022-03-17T08:11:10.000Z</time>
      </trkpt>
      <trkpt lat="47.534348" lon="1.8002675">
        <ele>141</ele>
        <time>2022-03-17T08:11:11.000Z</time>
      </trkpt>
      <trkpt lat="47.53434" lon="1.800253">
        <ele>141</ele>
        <time>2022-03-17T08:11:12.000Z</time>
      </trkpt>
      <trkpt lat="47.534336" lon="1.8002349">
        <ele>141</ele>
        <time>2022-03-17T08:11:13.000Z</time>
      </trkpt>
      <trkpt lat="47.534332" lon="1.8002195">
        <ele>140</ele>
        <time>2022-03-17T08:11:14.000Z</time>
      </trkpt>
      <trkpt lat="47.53433" lon="1.8002062">
        <ele>140</ele>
        <time>2022-03-17T08:11:15.000Z</time>
      </trkpt>
      <trkpt lat="47.534325" lon="1.8001902">
        <ele>140</ele>
        <time>2022-03-17T08:11:16.000Z</time>
      </trkpt>
      <trkpt lat="47.53432" lon="1.8001754">
        <ele>140</ele>
        <time>2022-03-17T08:11:17.000Z</time>
      </trkpt>
      <trkpt lat="47.534313" lon="1.8001614">
        <ele>139</ele>
        <time>2022-03-17T08:11:18.000Z</time>
      </trkpt>
      <trkpt lat="47.53431" lon="1.8001503">
        <ele>140</ele>
        <time>2022-03-17T08:11:19.000Z</time>
      </trkpt>
      <trkpt lat="47.5343" lon="1.8001362">
        <ele>139</ele>
        <time>2022-03-17T08:11:20.000Z</time>
      </trkpt>
      <trkpt lat="47.534294" lon="1.8001212">
        <ele>140</ele>
        <time>2022-03-17T08:11:21.000Z</time>
      </trkpt>
      <trkpt lat="47.53429" lon="1.8001105">
        <ele>139</ele>
        <time>2022-03-17T08:11:22.000Z</time>
      </trkpt>
      <trkpt lat="47.534283" lon="1.8000987">
        <ele>139</ele>
        <time>2022-03-17T08:11:23.000Z</time>
      </trkpt>
      <trkpt lat="47.534275" lon="1.800084">
        <ele>139</ele>
        <time>2022-03-17T08:11:24.000Z</time>
      </trkpt>
      <trkpt lat="47.534267" lon="1.8000667">
        <ele>138</ele>
        <time>2022-03-17T08:11:25.000Z</time>
      </trkpt>
      <trkpt lat="47.534264" lon="1.8000506">
        <ele>139</ele>
        <time>2022-03-17T08:11:26.000Z</time>
      </trkpt>
      <trkpt lat="47.534256" lon="1.8000343">
        <ele>139</ele>
        <time>2022-03-17T08:11:27.000Z</time>
      </trkpt>
      <trkpt lat="47.53425" lon="1.8000172">
        <ele>140</ele>
        <time>2022-03-17T08:11:28.000Z</time>
      </trkpt>
      <trkpt lat="47.53424" lon="1.8000032">
        <ele>140</ele>
        <time>2022-03-17T08:11:29.000Z</time>
      </trkpt>
      <trkpt lat="47.534237" lon="1.7999837">
        <ele>140</ele>
        <time>2022-03-17T08:11:30.000Z</time>
      </trkpt>
      <trkpt lat="47.534237" lon="1.7999669">
        <ele>140</ele>
        <time>2022-03-17T08:11:31.000Z</time>
      </trkpt>
      <trkpt lat="47.53423" lon="1.7999518">
        <ele>140</ele>
        <time>2022-03-17T08:11:32.000Z</time>
      </trkpt>
      <trkpt lat="47.534225" lon="1.7999339">
        <ele>140</ele>
        <time>2022-03-17T08:11:33.000Z</time>
      </trkpt>
      <trkpt lat="47.534218" lon="1.7999185">
        <ele>140</ele>
        <time>2022-03-17T08:11:34.000Z</time>
      </trkpt>
      <trkpt lat="47.53421" lon="1.7999039">
        <ele>140</ele>
        <time>2022-03-17T08:11:35.000Z</time>
      </trkpt>
      <trkpt lat="47.534206" lon="1.7998859">
        <ele>140</ele>
        <time>2022-03-17T08:11:36.000Z</time>
      </trkpt>
      <trkpt lat="47.534203" lon="1.7998688">
        <ele>140</ele>
        <time>2022-03-17T08:11:37.000Z</time>
      </trkpt>
      <trkpt lat="47.5342" lon="1.7998525">
        <ele>140</ele>
        <time>2022-03-17T08:11:38.000Z</time>
      </trkpt>
      <trkpt lat="47.534195" lon="1.7998341">
        <ele>140</ele>
        <time>2022-03-17T08:11:39.000Z</time>
      </trkpt>
      <trkpt lat="47.534187" lon="1.7998158">
        <ele>140</ele>
        <time>2022-03-17T08:11:40.000Z</time>
      </trkpt>
      <trkpt lat="47.534184" lon="1.799798">
        <ele>140</ele>
        <time>2022-03-17T08:11:41.000Z</time>
      </trkpt>
      <trkpt lat="47.53418" lon="1.7997782">
        <ele>140</ele>
        <time>2022-03-17T08:11:42.000Z</time>
      </trkpt>
      <trkpt lat="47.534172" lon="1.7997615">
        <ele>140</ele>
        <time>2022-03-17T08:11:43.000Z</time>
      </trkpt>
      <trkpt lat="47.53417" lon="1.7997476">
        <ele>140</ele>
        <time>2022-03-17T08:11:44.000Z</time>
      </trkpt>
      <trkpt lat="47.534164" lon="1.7997347">
        <ele>140</ele>
        <time>2022-03-17T08:11:45.000Z</time>
      </trkpt>
      <trkpt lat="47.53416" lon="1.799716">
        <ele>140</ele>
        <time>2022-03-17T08:11:46.000Z</time>
      </trkpt>
      <trkpt lat="47.534157" lon="1.7996998">
        <ele>139</ele>
        <time>2022-03-17T08:11:47.000Z</time>
      </trkpt>
      <trkpt lat="47.534153" lon="1.7996808">
        <ele>139</ele>
        <time>2022-03-17T08:11:48.000Z</time>
      </trkpt>
      <trkpt lat="47.53415" lon="1.7996643">
        <ele>139</ele>
        <time>2022-03-17T08:11:49.000Z</time>
      </trkpt>
      <trkpt lat="47.534145" lon="1.7996458">
        <ele>139</ele>
        <time>2022-03-17T08:11:50.000Z</time>
      </trkpt>
      <trkpt lat="47.534138" lon="1.7996271">
        <ele>139</ele>
        <time>2022-03-17T08:11:51.000Z</time>
      </trkpt>
      <trkpt lat="47.534134" lon="1.7996132">
        <ele>139</ele>
        <time>2022-03-17T08:11:52.000Z</time>
      </trkpt>
      <trkpt lat="47.53413" lon="1.7995975">
        <ele>139</ele>
        <time>2022-03-17T08:11:53.000Z</time>
      </trkpt>
      <trkpt lat="47.534126" lon="1.799582">
        <ele>139</ele>
        <time>2022-03-17T08:11:54.000Z</time>
      </trkpt>
      <trkpt lat="47.534126" lon="1.7995672">
        <ele>139</ele>
        <time>2022-03-17T08:11:55.000Z</time>
      </trkpt>
      <trkpt lat="47.534122" lon="1.7995512">
        <ele>139</ele>
        <time>2022-03-17T08:11:56.000Z</time>
      </trkpt>
      <trkpt lat="47.534122" lon="1.7995399">
        <ele>140</ele>
        <time>2022-03-17T08:11:57.000Z</time>
      </trkpt>
      <trkpt lat="47.534122" lon="1.7995288">
        <ele>140</ele>
        <time>2022-03-17T08:11:58.000Z</time>
      </trkpt>
      <trkpt lat="47.53412" lon="1.799513">
        <ele>140</ele>
        <time>2022-03-17T08:11:59.000Z</time>
      </trkpt>
      <trkpt lat="47.53411" lon="1.7994972">
        <ele>140</ele>
        <time>2022-03-17T08:12:00.000Z</time>
      </trkpt>
      <trkpt lat="47.534107" lon="1.7994826">
        <ele>139</ele>
        <time>2022-03-17T08:12:01.000Z</time>
      </trkpt>
      <trkpt lat="47.534107" lon="1.7994667">
        <ele>139</ele>
        <time>2022-03-17T08:12:02.000Z</time>
      </trkpt>
      <trkpt lat="47.5341" lon="1.7994527">
        <ele>139</ele>
        <time>2022-03-17T08:12:03.000Z</time>
      </trkpt>
      <trkpt lat="47.5341" lon="1.7994395">
        <ele>139</ele>
        <time>2022-03-17T08:12:04.000Z</time>
      </trkpt>
      <trkpt lat="47.534092" lon="1.7994215">
        <ele>139</ele>
        <time>2022-03-17T08:12:05.000Z</time>
      </trkpt>
      <trkpt lat="47.53409" lon="1.7994024">
        <ele>140</ele>
        <time>2022-03-17T08:12:06.000Z</time>
      </trkpt>
      <trkpt lat="47.534084" lon="1.7993844">
        <ele>140</ele>
        <time>2022-03-17T08:12:07.000Z</time>
      </trkpt>
      <trkpt lat="47.53408" lon="1.799366">
        <ele>140</ele>
        <time>2022-03-17T08:12:08.000Z</time>
      </trkpt>
      <trkpt lat="47.534077" lon="1.7993438">
        <ele>139</ele>
        <time>2022-03-17T08:12:09.000Z</time>
      </trkpt>
      <trkpt lat="47.534077" lon="1.7993209">
        <ele>139</ele>
        <time>2022-03-17T08:12:10.000Z</time>
      </trkpt>
      <trkpt lat="47.534073" lon="1.799303">
        <ele>139</ele>
        <time>2022-03-17T08:12:11.000Z</time>
      </trkpt>
      <trkpt lat="47.53407" lon="1.7992847">
        <ele>138</ele>
        <time>2022-03-17T08:12:12.000Z</time>
      </trkpt>
      <trkpt lat="47.534065" lon="1.7992694">
        <ele>138</ele>
        <time>2022-03-17T08:12:13.000Z</time>
      </trkpt>
      <trkpt lat="47.534058" lon="1.7992581">
        <ele>138</ele>
        <time>2022-03-17T08:12:14.000Z</time>
      </trkpt>
      <trkpt lat="47.534058" lon="1.7992418">
        <ele>138</ele>
        <time>2022-03-17T08:12:15.000Z</time>
      </trkpt>
      <trkpt lat="47.534054" lon="1.7992271">
        <ele>138</ele>
        <time>2022-03-17T08:12:16.000Z</time>
      </trkpt>
      <trkpt lat="47.53405" lon="1.7992104">
        <ele>138</ele>
        <time>2022-03-17T08:12:17.000Z</time>
      </trkpt>
      <trkpt lat="47.534046" lon="1.7991875">
        <ele>137</ele>
        <time>2022-03-17T08:12:18.000Z</time>
      </trkpt>
      <trkpt lat="47.534046" lon="1.7991712">
        <ele>137</ele>
        <time>2022-03-17T08:12:19.000Z</time>
      </trkpt>
      <trkpt lat="47.534042" lon="1.7991537">
        <ele>137</ele>
        <time>2022-03-17T08:12:20.000Z</time>
      </trkpt>
      <trkpt lat="47.53404" lon="1.7991343">
        <ele>136</ele>
        <time>2022-03-17T08:12:21.000Z</time>
      </trkpt>
      <trkpt lat="47.534042" lon="1.7991172">
        <ele>136</ele>
        <time>2022-03-17T08:12:22.000Z</time>
      </trkpt>
      <trkpt lat="47.53404" lon="1.7990935">
        <ele>136</ele>
        <time>2022-03-17T08:12:23.000Z</time>
      </trkpt>
      <trkpt lat="47.53404" lon="1.7990752">
        <ele>136</ele>
        <time>2022-03-17T08:12:24.000Z</time>
      </trkpt>
      <trkpt lat="47.534035" lon="1.7990577">
        <ele>136</ele>
        <time>2022-03-17T08:12:25.000Z</time>
      </trkpt>
      <trkpt lat="47.53403" lon="1.7990353">
        <ele>136</ele>
        <time>2022-03-17T08:12:26.000Z</time>
      </trkpt>
      <trkpt lat="47.53403" lon="1.7990156">
        <ele>136</ele>
        <time>2022-03-17T08:12:27.000Z</time>
      </trkpt>
      <trkpt lat="47.534023" lon="1.7989804">
        <ele>136</ele>
        <time>2022-03-17T08:12:29.000Z</time>
      </trkpt>
      <trkpt lat="47.534008" lon="1.7989553">
        <ele>137</ele>
        <time>2022-03-17T08:12:31.000Z</time>
      </trkpt>
      <trkpt lat="47.534004" lon="1.7989382">
        <ele>137</ele>
        <time>2022-03-17T08:12:32.000Z</time>
      </trkpt>
      <trkpt lat="47.534" lon="1.7989193">
        <ele>137</ele>
        <time>2022-03-17T08:12:33.000Z</time>
      </trkpt>
      <trkpt lat="47.533997" lon="1.7989033">
        <ele>137</ele>
        <time>2022-03-17T08:12:34.000Z</time>
      </trkpt>
      <trkpt lat="47.533993" lon="1.7988852">
        <ele>136</ele>
        <time>2022-03-17T08:12:35.000Z</time>
      </trkpt>
      <trkpt lat="47.533993" lon="1.7988666">
        <ele>136</ele>
        <time>2022-03-17T08:12:36.000Z</time>
      </trkpt>
      <trkpt lat="47.53399" lon="1.7988467">
        <ele>137</ele>
        <time>2022-03-17T08:12:37.000Z</time>
      </trkpt>
      <trkpt lat="47.533985" lon="1.7988225">
        <ele>136</ele>
        <time>2022-03-17T08:12:38.000Z</time>
      </trkpt>
      <trkpt lat="47.53398" lon="1.798801">
        <ele>137</ele>
        <time>2022-03-17T08:12:39.000Z</time>
      </trkpt>
      <trkpt lat="47.533978" lon="1.7987825">
        <ele>137</ele>
        <time>2022-03-17T08:12:40.000Z</time>
      </trkpt>
      <trkpt lat="47.533974" lon="1.7987658">
        <ele>138</ele>
        <time>2022-03-17T08:12:41.000Z</time>
      </trkpt>
      <trkpt lat="47.533974" lon="1.798746">
        <ele>138</ele>
        <time>2022-03-17T08:12:42.000Z</time>
      </trkpt>
      <trkpt lat="47.533966" lon="1.7987304">
        <ele>138</ele>
        <time>2022-03-17T08:12:43.000Z</time>
      </trkpt>
      <trkpt lat="47.533962" lon="1.7987111">
        <ele>138</ele>
        <time>2022-03-17T08:12:44.000Z</time>
      </trkpt>
      <trkpt lat="47.53396" lon="1.7986921">
        <ele>139</ele>
        <time>2022-03-17T08:12:45.000Z</time>
      </trkpt>
      <trkpt lat="47.53396" lon="1.7986739">
        <ele>139</ele>
        <time>2022-03-17T08:12:46.000Z</time>
      </trkpt>
      <trkpt lat="47.533955" lon="1.7986536">
        <ele>139</ele>
        <time>2022-03-17T08:12:47.000Z</time>
      </trkpt>
      <trkpt lat="47.53395" lon="1.7986305">
        <ele>139</ele>
        <time>2022-03-17T08:12:48.000Z</time>
      </trkpt>
      <trkpt lat="47.53395" lon="1.7986071">
        <ele>139</ele>
        <time>2022-03-17T08:12:49.000Z</time>
      </trkpt>
      <trkpt lat="47.53395" lon="1.7985879">
        <ele>139</ele>
        <time>2022-03-17T08:12:50.000Z</time>
      </trkpt>
      <trkpt lat="47.53395" lon="1.7985688">
        <ele>139</ele>
        <time>2022-03-17T08:12:51.000Z</time>
      </trkpt>
      <trkpt lat="47.533955" lon="1.7985438">
        <ele>139</ele>
        <time>2022-03-17T08:12:52.000Z</time>
      </trkpt>
      <trkpt lat="47.533955" lon="1.7985244">
        <ele>139</ele>
        <time>2022-03-17T08:12:53.000Z</time>
      </trkpt>
      <trkpt lat="47.533955" lon="1.7985017">
        <ele>139</ele>
        <time>2022-03-17T08:12:54.000Z</time>
      </trkpt>
      <trkpt lat="47.53395" lon="1.79848">
        <ele>138</ele>
        <time>2022-03-17T08:12:55.000Z</time>
      </trkpt>
      <trkpt lat="47.53395" lon="1.79846">
        <ele>138</ele>
        <time>2022-03-17T08:12:56.000Z</time>
      </trkpt>
      <trkpt lat="47.533955" lon="1.7984383">
        <ele>138</ele>
        <time>2022-03-17T08:12:57.000Z</time>
      </trkpt>
      <trkpt lat="47.533955" lon="1.7984185">
        <ele>138</ele>
        <time>2022-03-17T08:12:58.000Z</time>
      </trkpt>
      <trkpt lat="47.53396" lon="1.7983953">
        <ele>138</ele>
        <time>2022-03-17T08:12:59.000Z</time>
      </trkpt>
      <trkpt lat="47.53396" lon="1.7983772">
        <ele>138</ele>
        <time>2022-03-17T08:13:00.000Z</time>
      </trkpt>
      <trkpt lat="47.53396" lon="1.7983586">
        <ele>138</ele>
        <time>2022-03-17T08:13:01.000Z</time>
      </trkpt>
      <trkpt lat="47.53396" lon="1.7983363">
        <ele>138</ele>
        <time>2022-03-17T08:13:02.000Z</time>
      </trkpt>
      <trkpt lat="47.53396" lon="1.7983165">
        <ele>138</ele>
        <time>2022-03-17T08:13:03.000Z</time>
      </trkpt>
      <trkpt lat="47.53396" lon="1.7982974">
        <ele>138</ele>
        <time>2022-03-17T08:13:04.000Z</time>
      </trkpt>
      <trkpt lat="47.533955" lon="1.7982805">
        <ele>138</ele>
        <time>2022-03-17T08:13:05.000Z</time>
      </trkpt>
      <trkpt lat="47.533955" lon="1.7982638">
        <ele>139</ele>
        <time>2022-03-17T08:13:06.000Z</time>
      </trkpt>
      <trkpt lat="47.53396" lon="1.7982445">
        <ele>139</ele>
        <time>2022-03-17T08:13:07.000Z</time>
      </trkpt>
      <trkpt lat="47.533955" lon="1.7982237">
        <ele>139</ele>
        <time>2022-03-17T08:13:08.000Z</time>
      </trkpt>
      <trkpt lat="47.53395" lon="1.7982057">
        <ele>138</ele>
        <time>2022-03-17T08:13:09.000Z</time>
      </trkpt>
      <trkpt lat="47.533955" lon="1.7981864">
        <ele>139</ele>
        <time>2022-03-17T08:13:10.000Z</time>
      </trkpt>
      <trkpt lat="47.53395" lon="1.798166">
        <ele>139</ele>
        <time>2022-03-17T08:13:11.000Z</time>
      </trkpt>
      <trkpt lat="47.533955" lon="1.7981427">
        <ele>139</ele>
        <time>2022-03-17T08:13:12.000Z</time>
      </trkpt>
      <trkpt lat="47.533955" lon="1.7981234">
        <ele>139</ele>
        <time>2022-03-17T08:13:13.000Z</time>
      </trkpt>
      <trkpt lat="47.533955" lon="1.7981035">
        <ele>139</ele>
        <time>2022-03-17T08:13:14.000Z</time>
      </trkpt>
      <trkpt lat="47.53396" lon="1.7980808">
        <ele>139</ele>
        <time>2022-03-17T08:13:15.000Z</time>
      </trkpt>
      <trkpt lat="47.53396" lon="1.7980616">
        <ele>139</ele>
        <time>2022-03-17T08:13:16.000Z</time>
      </trkpt>
      <trkpt lat="47.53396" lon="1.7980447">
        <ele>139</ele>
        <time>2022-03-17T08:13:17.000Z</time>
      </trkpt>
      <trkpt lat="47.53396" lon="1.7980294">
        <ele>139</ele>
        <time>2022-03-17T08:13:18.000Z</time>
      </trkpt>
      <trkpt lat="47.53396" lon="1.7980175">
        <ele>139</ele>
        <time>2022-03-17T08:13:19.000Z</time>
      </trkpt>
      <trkpt lat="47.53396" lon="1.7980032">
        <ele>138</ele>
        <time>2022-03-17T08:13:20.000Z</time>
      </trkpt>
      <trkpt lat="47.533962" lon="1.7979904">
        <ele>138</ele>
        <time>2022-03-17T08:13:21.000Z</time>
      </trkpt>
      <trkpt lat="47.533962" lon="1.7979707">
        <ele>138</ele>
        <time>2022-03-17T08:13:22.000Z</time>
      </trkpt>
      <trkpt lat="47.533962" lon="1.7979515">
        <ele>139</ele>
        <time>2022-03-17T08:13:23.000Z</time>
      </trkpt>
      <trkpt lat="47.533966" lon="1.7979308">
        <ele>139</ele>
        <time>2022-03-17T08:13:24.000Z</time>
      </trkpt>
      <trkpt lat="47.533966" lon="1.7979107">
        <ele>139</ele>
        <time>2022-03-17T08:13:25.000Z</time>
      </trkpt>
      <trkpt lat="47.53397" lon="1.797893">
        <ele>139</ele>
        <time>2022-03-17T08:13:26.000Z</time>
      </trkpt>
      <trkpt lat="47.53397" lon="1.7978723">
        <ele>139</ele>
        <time>2022-03-17T08:13:27.000Z</time>
      </trkpt>
      <trkpt lat="47.533974" lon="1.7978567">
        <ele>139</ele>
        <time>2022-03-17T08:13:28.000Z</time>
      </trkpt>
      <trkpt lat="47.533978" lon="1.7978351">
        <ele>139</ele>
        <time>2022-03-17T08:13:29.000Z</time>
      </trkpt>
      <trkpt lat="47.533978" lon="1.7978177">
        <ele>139</ele>
        <time>2022-03-17T08:13:30.000Z</time>
      </trkpt>
      <trkpt lat="47.533978" lon="1.7977984">
        <ele>138</ele>
        <time>2022-03-17T08:13:31.000Z</time>
      </trkpt>
      <trkpt lat="47.53398" lon="1.7977804">
        <ele>138</ele>
        <time>2022-03-17T08:13:32.000Z</time>
      </trkpt>
      <trkpt lat="47.533978" lon="1.7977629">
        <ele>138</ele>
        <time>2022-03-17T08:13:33.000Z</time>
      </trkpt>
      <trkpt lat="47.533978" lon="1.7977394">
        <ele>138</ele>
        <time>2022-03-17T08:13:34.000Z</time>
      </trkpt>
      <trkpt lat="47.533974" lon="1.797722">
        <ele>138</ele>
        <time>2022-03-17T08:13:35.000Z</time>
      </trkpt>
      <trkpt lat="47.533974" lon="1.7977029">
        <ele>138</ele>
        <time>2022-03-17T08:13:36.000Z</time>
      </trkpt>
      <trkpt lat="47.533978" lon="1.7976848">
        <ele>137</ele>
        <time>2022-03-17T08:13:37.000Z</time>
      </trkpt>
      <trkpt lat="47.533978" lon="1.7976711">
        <ele>138</ele>
        <time>2022-03-17T08:13:38.000Z</time>
      </trkpt>
      <trkpt lat="47.533974" lon="1.7976545">
        <ele>138</ele>
        <time>2022-03-17T08:13:39.000Z</time>
      </trkpt>
      <trkpt lat="47.533974" lon="1.7976385">
        <ele>137</ele>
        <time>2022-03-17T08:13:40.000Z</time>
      </trkpt>
      <trkpt lat="47.533974" lon="1.79762">
        <ele>137</ele>
        <time>2022-03-17T08:13:41.000Z</time>
      </trkpt>
      <trkpt lat="47.533978" lon="1.7975984">
        <ele>137</ele>
        <time>2022-03-17T08:13:42.000Z</time>
      </trkpt>
      <trkpt lat="47.533974" lon="1.7975782">
        <ele>137</ele>
        <time>2022-03-17T08:13:43.000Z</time>
      </trkpt>
      <trkpt lat="47.533978" lon="1.7975577">
        <ele>137</ele>
        <time>2022-03-17T08:13:44.000Z</time>
      </trkpt>
      <trkpt lat="47.533978" lon="1.7975347">
        <ele>138</ele>
        <time>2022-03-17T08:13:45.000Z</time>
      </trkpt>
      <trkpt lat="47.533978" lon="1.7975144">
        <ele>137</ele>
        <time>2022-03-17T08:13:46.000Z</time>
      </trkpt>
      <trkpt lat="47.533978" lon="1.7974961">
        <ele>137</ele>
        <time>2022-03-17T08:13:47.000Z</time>
      </trkpt>
      <trkpt lat="47.533978" lon="1.7974768">
        <ele>137</ele>
        <time>2022-03-17T08:13:48.000Z</time>
      </trkpt>
      <trkpt lat="47.533978" lon="1.7974608">
        <ele>137</ele>
        <time>2022-03-17T08:13:49.000Z</time>
      </trkpt>
      <trkpt lat="47.53398" lon="1.7974417">
        <ele>137</ele>
        <time>2022-03-17T08:13:50.000Z</time>
      </trkpt>
      <trkpt lat="47.533985" lon="1.7974246">
        <ele>137</ele>
        <time>2022-03-17T08:13:51.000Z</time>
      </trkpt>
      <trkpt lat="47.53398" lon="1.7974097">
        <ele>137</ele>
        <time>2022-03-17T08:13:52.000Z</time>
      </trkpt>
      <trkpt lat="47.53398" lon="1.7973948">
        <ele>137</ele>
        <time>2022-03-17T08:13:53.000Z</time>
      </trkpt>
      <trkpt lat="47.533985" lon="1.7973783">
        <ele>137</ele>
        <time>2022-03-17T08:13:54.000Z</time>
      </trkpt>
      <trkpt lat="47.533985" lon="1.7973605">
        <ele>137</ele>
        <time>2022-03-17T08:13:55.000Z</time>
      </trkpt>
      <trkpt lat="47.53399" lon="1.7973449">
        <ele>137</ele>
        <time>2022-03-17T08:13:56.000Z</time>
      </trkpt>
      <trkpt lat="47.53399" lon="1.7973257">
        <ele>137</ele>
        <time>2022-03-17T08:13:57.000Z</time>
      </trkpt>
      <trkpt lat="47.533993" lon="1.7973078">
        <ele>137</ele>
        <time>2022-03-17T08:13:58.000Z</time>
      </trkpt>
      <trkpt lat="47.533993" lon="1.7972888">
        <ele>138</ele>
        <time>2022-03-17T08:13:59.000Z</time>
      </trkpt>
      <trkpt lat="47.533993" lon="1.7972655">
        <ele>138</ele>
        <time>2022-03-17T08:14:00.000Z</time>
      </trkpt>
      <trkpt lat="47.533993" lon="1.7972469">
        <ele>138</ele>
        <time>2022-03-17T08:14:01.000Z</time>
      </trkpt>
      <trkpt lat="47.533997" lon="1.7972293">
        <ele>138</ele>
        <time>2022-03-17T08:14:02.000Z</time>
      </trkpt>
      <trkpt lat="47.533997" lon="1.79721">
        <ele>138</ele>
        <time>2022-03-17T08:14:03.000Z</time>
      </trkpt>
      <trkpt lat="47.534" lon="1.7971896">
        <ele>138</ele>
        <time>2022-03-17T08:14:04.000Z</time>
      </trkpt>
      <trkpt lat="47.533997" lon="1.7971725">
        <ele>137</ele>
        <time>2022-03-17T08:14:05.000Z</time>
      </trkpt>
      <trkpt lat="47.533993" lon="1.7971536">
        <ele>137</ele>
        <time>2022-03-17T08:14:06.000Z</time>
      </trkpt>
      <trkpt lat="47.533997" lon="1.7971338">
        <ele>136</ele>
        <time>2022-03-17T08:14:07.000Z</time>
      </trkpt>
      <trkpt lat="47.533997" lon="1.7971152">
        <ele>136</ele>
        <time>2022-03-17T08:14:08.000Z</time>
      </trkpt>
      <trkpt lat="47.534004" lon="1.7970952">
        <ele>136</ele>
        <time>2022-03-17T08:14:09.000Z</time>
      </trkpt>
      <trkpt lat="47.534008" lon="1.7970781">
        <ele>136</ele>
        <time>2022-03-17T08:14:10.000Z</time>
      </trkpt>
      <trkpt lat="47.534008" lon="1.7970599">
        <ele>136</ele>
        <time>2022-03-17T08:14:11.000Z</time>
      </trkpt>
      <trkpt lat="47.534008" lon="1.7970405">
        <ele>136</ele>
        <time>2022-03-17T08:14:12.000Z</time>
      </trkpt>
      <trkpt lat="47.53401" lon="1.7970223">
        <ele>136</ele>
        <time>2022-03-17T08:14:13.000Z</time>
      </trkpt>
      <trkpt lat="47.534016" lon="1.7970068">
        <ele>136</ele>
        <time>2022-03-17T08:14:14.000Z</time>
      </trkpt>
      <trkpt lat="47.53402" lon="1.7969857">
        <ele>136</ele>
        <time>2022-03-17T08:14:15.000Z</time>
      </trkpt>
      <trkpt lat="47.534023" lon="1.796966">
        <ele>136</ele>
        <time>2022-03-17T08:14:16.000Z</time>
      </trkpt>
      <trkpt lat="47.53402" lon="1.7969496">
        <ele>136</ele>
        <time>2022-03-17T08:14:17.000Z</time>
      </trkpt>
      <trkpt lat="47.534023" lon="1.7969306">
        <ele>136</ele>
        <time>2022-03-17T08:14:18.000Z</time>
      </trkpt>
      <trkpt lat="47.534027" lon="1.7969114">
        <ele>136</ele>
        <time>2022-03-17T08:14:19.000Z</time>
      </trkpt>
      <trkpt lat="47.534027" lon="1.7968901">
        <ele>136</ele>
        <time>2022-03-17T08:14:20.000Z</time>
      </trkpt>
      <trkpt lat="47.534023" lon="1.7968713">
        <ele>136</ele>
        <time>2022-03-17T08:14:21.000Z</time>
      </trkpt>
      <trkpt lat="47.534027" lon="1.7968519">
        <ele>136</ele>
        <time>2022-03-17T08:14:22.000Z</time>
      </trkpt>
      <trkpt lat="47.53403" lon="1.7968353">
        <ele>137</ele>
        <time>2022-03-17T08:14:23.000Z</time>
      </trkpt>
      <trkpt lat="47.534035" lon="1.7968143">
        <ele>137</ele>
        <time>2022-03-17T08:14:24.000Z</time>
      </trkpt>
      <trkpt lat="47.53404" lon="1.7967976">
        <ele>137</ele>
        <time>2022-03-17T08:14:25.000Z</time>
      </trkpt>
      <trkpt lat="47.534046" lon="1.7967794">
        <ele>137</ele>
        <time>2022-03-17T08:14:26.000Z</time>
      </trkpt>
      <trkpt lat="47.53405" lon="1.7967609">
        <ele>137</ele>
        <time>2022-03-17T08:14:27.000Z</time>
      </trkpt>
      <trkpt lat="47.53405" lon="1.7967422">
        <ele>137</ele>
        <time>2022-03-17T08:14:28.000Z</time>
      </trkpt>
      <trkpt lat="47.534054" lon="1.7967278">
        <ele>137</ele>
        <time>2022-03-17T08:14:29.000Z</time>
      </trkpt>
      <trkpt lat="47.534054" lon="1.7967131">
        <ele>137</ele>
        <time>2022-03-17T08:14:30.000Z</time>
      </trkpt>
      <trkpt lat="47.534058" lon="1.796694">
        <ele>137</ele>
        <time>2022-03-17T08:14:31.000Z</time>
      </trkpt>
      <trkpt lat="47.53406" lon="1.7966778">
        <ele>137</ele>
        <time>2022-03-17T08:14:32.000Z</time>
      </trkpt>
      <trkpt lat="47.534065" lon="1.7966597">
        <ele>137</ele>
        <time>2022-03-17T08:14:33.000Z</time>
      </trkpt>
      <trkpt lat="47.534065" lon="1.796642">
        <ele>137</ele>
        <time>2022-03-17T08:14:34.000Z</time>
      </trkpt>
      <trkpt lat="47.53406" lon="1.796627">
        <ele>137</ele>
        <time>2022-03-17T08:14:35.000Z</time>
      </trkpt>
      <trkpt lat="47.53406" lon="1.7966115">
        <ele>137</ele>
        <time>2022-03-17T08:14:36.000Z</time>
      </trkpt>
      <trkpt lat="47.53406" lon="1.7965958">
        <ele>137</ele>
        <time>2022-03-17T08:14:37.000Z</time>
      </trkpt>
      <trkpt lat="47.534065" lon="1.79658">
        <ele>137</ele>
        <time>2022-03-17T08:14:38.000Z</time>
      </trkpt>
      <trkpt lat="47.534065" lon="1.7965652">
        <ele>137</ele>
        <time>2022-03-17T08:14:39.000Z</time>
      </trkpt>
      <trkpt lat="47.53407" lon="1.7965522">
        <ele>137</ele>
        <time>2022-03-17T08:14:40.000Z</time>
      </trkpt>
      <trkpt lat="47.534065" lon="1.7965367">
        <ele>136</ele>
        <time>2022-03-17T08:14:41.000Z</time>
      </trkpt>
      <trkpt lat="47.534065" lon="1.7965231">
        <ele>136</ele>
        <time>2022-03-17T08:14:42.000Z</time>
      </trkpt>
      <trkpt lat="47.53406" lon="1.7965087">
        <ele>136</ele>
        <time>2022-03-17T08:14:43.000Z</time>
      </trkpt>
      <trkpt lat="47.53406" lon="1.7964933">
        <ele>136</ele>
        <time>2022-03-17T08:14:44.000Z</time>
      </trkpt>
      <trkpt lat="47.534065" lon="1.7964746">
        <ele>136</ele>
        <time>2022-03-17T08:14:45.000Z</time>
      </trkpt>
      <trkpt lat="47.534065" lon="1.7964554">
        <ele>136</ele>
        <time>2022-03-17T08:14:46.000Z</time>
      </trkpt>
      <trkpt lat="47.534065" lon="1.7964356">
        <ele>136</ele>
        <time>2022-03-17T08:14:47.000Z</time>
      </trkpt>
      <trkpt lat="47.534065" lon="1.7964195">
        <ele>136</ele>
        <time>2022-03-17T08:14:48.000Z</time>
      </trkpt>
      <trkpt lat="47.534065" lon="1.796402">
        <ele>136</ele>
        <time>2022-03-17T08:14:49.000Z</time>
      </trkpt>
      <trkpt lat="47.534065" lon="1.796383">
        <ele>136</ele>
        <time>2022-03-17T08:14:50.000Z</time>
      </trkpt>
      <trkpt lat="47.534065" lon="1.7963626">
        <ele>135</ele>
        <time>2022-03-17T08:14:51.000Z</time>
      </trkpt>
      <trkpt lat="47.534065" lon="1.7963448">
        <ele>135</ele>
        <time>2022-03-17T08:14:52.000Z</time>
      </trkpt>
      <trkpt lat="47.53406" lon="1.7963275">
        <ele>134</ele>
        <time>2022-03-17T08:14:53.000Z</time>
      </trkpt>
      <trkpt lat="47.53406" lon="1.7963122">
        <ele>134</ele>
        <time>2022-03-17T08:14:54.000Z</time>
      </trkpt>
      <trkpt lat="47.534058" lon="1.7962947">
        <ele>134</ele>
        <time>2022-03-17T08:14:55.000Z</time>
      </trkpt>
      <trkpt lat="47.53406" lon="1.7962784">
        <ele>134</ele>
        <time>2022-03-17T08:14:56.000Z</time>
      </trkpt>
      <trkpt lat="47.534065" lon="1.7962635">
        <ele>134</ele>
        <time>2022-03-17T08:14:57.000Z</time>
      </trkpt>
      <trkpt lat="47.534065" lon="1.7962435">
        <ele>134</ele>
        <time>2022-03-17T08:14:58.000Z</time>
      </trkpt>
      <trkpt lat="47.53407" lon="1.796225">
        <ele>134</ele>
        <time>2022-03-17T08:14:59.000Z</time>
      </trkpt>
      <trkpt lat="47.53407" lon="1.7962035">
        <ele>134</ele>
        <time>2022-03-17T08:15:00.000Z</time>
      </trkpt>
      <trkpt lat="47.534073" lon="1.7961857">
        <ele>134</ele>
        <time>2022-03-17T08:15:01.000Z</time>
      </trkpt>
      <trkpt lat="47.534077" lon="1.796166">
        <ele>134</ele>
        <time>2022-03-17T08:15:02.000Z</time>
      </trkpt>
      <trkpt lat="47.53408" lon="1.79615">
        <ele>134</ele>
        <time>2022-03-17T08:15:03.000Z</time>
      </trkpt>
      <trkpt lat="47.534084" lon="1.7961338">
        <ele>134</ele>
        <time>2022-03-17T08:15:04.000Z</time>
      </trkpt>
      <trkpt lat="47.534084" lon="1.7961222">
        <ele>134</ele>
        <time>2022-03-17T08:15:05.000Z</time>
      </trkpt>
      <trkpt lat="47.534084" lon="1.7961068">
        <ele>133</ele>
        <time>2022-03-17T08:15:06.000Z</time>
      </trkpt>
      <trkpt lat="47.534084" lon="1.7960904">
        <ele>133</ele>
        <time>2022-03-17T08:15:07.000Z</time>
      </trkpt>
      <trkpt lat="47.534084" lon="1.7960739">
        <ele>133</ele>
        <time>2022-03-17T08:15:08.000Z</time>
      </trkpt>
      <trkpt lat="47.53409" lon="1.796055">
        <ele>133</ele>
        <time>2022-03-17T08:15:09.000Z</time>
      </trkpt>
      <trkpt lat="47.534092" lon="1.796037">
        <ele>133</ele>
        <time>2022-03-17T08:15:10.000Z</time>
      </trkpt>
      <trkpt lat="47.534096" lon="1.7960188">
        <ele>133</ele>
        <time>2022-03-17T08:15:11.000Z</time>
      </trkpt>
      <trkpt lat="47.534096" lon="1.7960002">
        <ele>133</ele>
        <time>2022-03-17T08:15:12.000Z</time>
      </trkpt>
      <trkpt lat="47.534096" lon="1.7959796">
        <ele>133</ele>
        <time>2022-03-17T08:15:13.000Z</time>
      </trkpt>
      <trkpt lat="47.534096" lon="1.7959558">
        <ele>133</ele>
        <time>2022-03-17T08:15:14.000Z</time>
      </trkpt>
      <trkpt lat="47.5341" lon="1.7959373">
        <ele>133</ele>
        <time>2022-03-17T08:15:15.000Z</time>
      </trkpt>
      <trkpt lat="47.5341" lon="1.7959187">
        <ele>133</ele>
        <time>2022-03-17T08:15:16.000Z</time>
      </trkpt>
      <trkpt lat="47.5341" lon="1.7958989">
        <ele>133</ele>
        <time>2022-03-17T08:15:17.000Z</time>
      </trkpt>
      <trkpt lat="47.534103" lon="1.7958742">
        <ele>133</ele>
        <time>2022-03-17T08:15:18.000Z</time>
      </trkpt>
      <trkpt lat="47.534103" lon="1.7958512">
        <ele>133</ele>
        <time>2022-03-17T08:15:19.000Z</time>
      </trkpt>
      <trkpt lat="47.534107" lon="1.79583">
        <ele>133</ele>
        <time>2022-03-17T08:15:20.000Z</time>
      </trkpt>
      <trkpt lat="47.534107" lon="1.7958105">
        <ele>133</ele>
        <time>2022-03-17T08:15:21.000Z</time>
      </trkpt>
      <trkpt lat="47.534107" lon="1.795791">
        <ele>134</ele>
        <time>2022-03-17T08:15:22.000Z</time>
      </trkpt>
      <trkpt lat="47.53411" lon="1.7957746">
        <ele>133</ele>
        <time>2022-03-17T08:15:23.000Z</time>
      </trkpt>
      <trkpt lat="47.534115" lon="1.7957577">
        <ele>133</ele>
        <time>2022-03-17T08:15:24.000Z</time>
      </trkpt>
      <trkpt lat="47.534115" lon="1.7957392">
        <ele>133</ele>
        <time>2022-03-17T08:15:25.000Z</time>
      </trkpt>
      <trkpt lat="47.53412" lon="1.795722">
        <ele>133</ele>
        <time>2022-03-17T08:15:26.000Z</time>
      </trkpt>
      <trkpt lat="47.53412" lon="1.7957052">
        <ele>133</ele>
        <time>2022-03-17T08:15:27.000Z</time>
      </trkpt>
      <trkpt lat="47.53412" lon="1.7956895">
        <ele>133</ele>
        <time>2022-03-17T08:15:28.000Z</time>
      </trkpt>
      <trkpt lat="47.534122" lon="1.7956654">
        <ele>133</ele>
        <time>2022-03-17T08:15:29.000Z</time>
      </trkpt>
      <trkpt lat="47.53413" lon="1.795645">
        <ele>134</ele>
        <time>2022-03-17T08:15:30.000Z</time>
      </trkpt>
      <trkpt lat="47.534134" lon="1.7956258">
        <ele>134</ele>
        <time>2022-03-17T08:15:31.000Z</time>
      </trkpt>
      <trkpt lat="47.534138" lon="1.7956035">
        <ele>135</ele>
        <time>2022-03-17T08:15:32.000Z</time>
      </trkpt>
      <trkpt lat="47.53414" lon="1.7955893">
        <ele>135</ele>
        <time>2022-03-17T08:15:33.000Z</time>
      </trkpt>
      <trkpt lat="47.534145" lon="1.7955694">
        <ele>136</ele>
        <time>2022-03-17T08:15:34.000Z</time>
      </trkpt>
      <trkpt lat="47.53415" lon="1.795552">
        <ele>136</ele>
        <time>2022-03-17T08:15:35.000Z</time>
      </trkpt>
      <trkpt lat="47.53415" lon="1.7955321">
        <ele>136</ele>
        <time>2022-03-17T08:15:36.000Z</time>
      </trkpt>
      <trkpt lat="47.534153" lon="1.795513">
        <ele>136</ele>
        <time>2022-03-17T08:15:37.000Z</time>
      </trkpt>
      <trkpt lat="47.534153" lon="1.7954948">
        <ele>135</ele>
        <time>2022-03-17T08:15:38.000Z</time>
      </trkpt>
      <trkpt lat="47.534153" lon="1.7954755">
        <ele>135</ele>
        <time>2022-03-17T08:15:39.000Z</time>
      </trkpt>
      <trkpt lat="47.53416" lon="1.7954601">
        <ele>136</ele>
        <time>2022-03-17T08:15:40.000Z</time>
      </trkpt>
      <trkpt lat="47.53416" lon="1.7954444">
        <ele>135</ele>
        <time>2022-03-17T08:15:41.000Z</time>
      </trkpt>
      <trkpt lat="47.534164" lon="1.7954258">
        <ele>135</ele>
        <time>2022-03-17T08:15:42.000Z</time>
      </trkpt>
      <trkpt lat="47.53417" lon="1.7954087">
        <ele>135</ele>
        <time>2022-03-17T08:15:43.000Z</time>
      </trkpt>
      <trkpt lat="47.534172" lon="1.7953926">
        <ele>135</ele>
        <time>2022-03-17T08:15:44.000Z</time>
      </trkpt>
      <trkpt lat="47.534184" lon="1.7953798">
        <ele>136</ele>
        <time>2022-03-17T08:15:45.000Z</time>
      </trkpt>
      <trkpt lat="47.53419" lon="1.7953646">
        <ele>136</ele>
        <time>2022-03-17T08:15:46.000Z</time>
      </trkpt>
      <trkpt lat="47.5342" lon="1.7953542">
        <ele>136</ele>
        <time>2022-03-17T08:15:47.000Z</time>
      </trkpt>
      <trkpt lat="47.53421" lon="1.7953427">
        <ele>136</ele>
        <time>2022-03-17T08:15:48.000Z</time>
      </trkpt>
      <trkpt lat="47.534218" lon="1.7953265">
        <ele>137</ele>
        <time>2022-03-17T08:15:49.000Z</time>
      </trkpt>
      <trkpt lat="47.53423" lon="1.7953178">
        <ele>137</ele>
        <time>2022-03-17T08:15:50.000Z</time>
      </trkpt>
      <trkpt lat="47.53424" lon="1.7953074">
        <ele>137</ele>
        <time>2022-03-17T08:15:51.000Z</time>
      </trkpt>
      <trkpt lat="47.534252" lon="1.7952957">
        <ele>137</ele>
        <time>2022-03-17T08:15:52.000Z</time>
      </trkpt>
      <trkpt lat="47.534264" lon="1.7952859">
        <ele>138</ele>
        <time>2022-03-17T08:15:53.000Z</time>
      </trkpt>
      <trkpt lat="47.53428" lon="1.7952776">
        <ele>138</ele>
        <time>2022-03-17T08:15:54.000Z</time>
      </trkpt>
      <trkpt lat="47.53429" lon="1.7952741">
        <ele>138</ele>
        <time>2022-03-17T08:15:55.000Z</time>
      </trkpt>
      <trkpt lat="47.534306" lon="1.7952709">
        <ele>138</ele>
        <time>2022-03-17T08:15:56.000Z</time>
      </trkpt>
      <trkpt lat="47.534317" lon="1.7952651">
        <ele>138</ele>
        <time>2022-03-17T08:15:57.000Z</time>
      </trkpt>
      <trkpt lat="47.534332" lon="1.7952597">
        <ele>139</ele>
        <time>2022-03-17T08:15:58.000Z</time>
      </trkpt>
      <trkpt lat="47.53434" lon="1.7952538">
        <ele>139</ele>
        <time>2022-03-17T08:15:59.000Z</time>
      </trkpt>
      <trkpt lat="47.53435" lon="1.7952447">
        <ele>139</ele>
        <time>2022-03-17T08:16:00.000Z</time>
      </trkpt>
      <trkpt lat="47.534363" lon="1.7952392">
        <ele>139</ele>
        <time>2022-03-17T08:16:01.000Z</time>
      </trkpt>
      <trkpt lat="47.534378" lon="1.7952306">
        <ele>139</ele>
        <time>2022-03-17T08:16:02.000Z</time>
      </trkpt>
      <trkpt lat="47.534393" lon="1.7952266">
        <ele>139</ele>
        <time>2022-03-17T08:16:03.000Z</time>
      </trkpt>
      <trkpt lat="47.53441" lon="1.795224">
        <ele>140</ele>
        <time>2022-03-17T08:16:04.000Z</time>
      </trkpt>
      <trkpt lat="47.53442" lon="1.7952207">
        <ele>140</ele>
        <time>2022-03-17T08:16:05.000Z</time>
      </trkpt>
      <trkpt lat="47.534435" lon="1.7952175">
        <ele>140</ele>
        <time>2022-03-17T08:16:06.000Z</time>
      </trkpt>
      <trkpt lat="47.53445" lon="1.7952156">
        <ele>140</ele>
        <time>2022-03-17T08:16:07.000Z</time>
      </trkpt>
      <trkpt lat="47.534462" lon="1.7952133">
        <ele>141</ele>
        <time>2022-03-17T08:16:08.000Z</time>
      </trkpt>
      <trkpt lat="47.534473" lon="1.7952132">
        <ele>140</ele>
        <time>2022-03-17T08:16:09.000Z</time>
      </trkpt>
      <trkpt lat="47.534485" lon="1.795209">
        <ele>140</ele>
        <time>2022-03-17T08:16:10.000Z</time>
      </trkpt>
      <trkpt lat="47.5345" lon="1.7952046">
        <ele>140</ele>
        <time>2022-03-17T08:16:11.000Z</time>
      </trkpt>
      <trkpt lat="47.53451" lon="1.7952038">
        <ele>141</ele>
        <time>2022-03-17T08:16:12.000Z</time>
      </trkpt>
      <trkpt lat="47.534523" lon="1.7951989">
        <ele>141</ele>
        <time>2022-03-17T08:16:13.000Z</time>
      </trkpt>
      <trkpt lat="47.53454" lon="1.7951944">
        <ele>141</ele>
        <time>2022-03-17T08:16:14.000Z</time>
      </trkpt>
      <trkpt lat="47.534546" lon="1.7951919">
        <ele>141</ele>
        <time>2022-03-17T08:16:15.000Z</time>
      </trkpt>
      <trkpt lat="47.534557" lon="1.7951902">
        <ele>141</ele>
        <time>2022-03-17T08:16:16.000Z</time>
      </trkpt>
      <trkpt lat="47.53457" lon="1.7951919">
        <ele>141</ele>
        <time>2022-03-17T08:16:17.000Z</time>
      </trkpt>
      <trkpt lat="47.53458" lon="1.7951902">
        <ele>142</ele>
        <time>2022-03-17T08:16:18.000Z</time>
      </trkpt>
      <trkpt lat="47.53459" lon="1.7951862">
        <ele>141</ele>
        <time>2022-03-17T08:16:19.000Z</time>
      </trkpt>
      <trkpt lat="47.5346" lon="1.7951818">
        <ele>141</ele>
        <time>2022-03-17T08:16:20.000Z</time>
      </trkpt>
      <trkpt lat="47.534615" lon="1.7951795">
        <ele>141</ele>
        <time>2022-03-17T08:16:21.000Z</time>
      </trkpt>
      <trkpt lat="47.534622" lon="1.7951837">
        <ele>141</ele>
        <time>2022-03-17T08:16:22.000Z</time>
      </trkpt>
      <trkpt lat="47.534634" lon="1.7951782">
        <ele>141</ele>
        <time>2022-03-17T08:16:23.000Z</time>
      </trkpt>
      <trkpt lat="47.534645" lon="1.7951692">
        <ele>141</ele>
        <time>2022-03-17T08:16:24.000Z</time>
      </trkpt>
      <trkpt lat="47.534657" lon="1.795163">
        <ele>142</ele>
        <time>2022-03-17T08:16:25.000Z</time>
      </trkpt>
      <trkpt lat="47.53467" lon="1.795159">
        <ele>142</ele>
        <time>2022-03-17T08:16:26.000Z</time>
      </trkpt>
      <trkpt lat="47.534683" lon="1.7951552">
        <ele>141</ele>
        <time>2022-03-17T08:16:27.000Z</time>
      </trkpt>
      <trkpt lat="47.5347" lon="1.795149">
        <ele>142</ele>
        <time>2022-03-17T08:16:28.000Z</time>
      </trkpt>
      <trkpt lat="47.53471" lon="1.7951401">
        <ele>142</ele>
        <time>2022-03-17T08:16:29.000Z</time>
      </trkpt>
      <trkpt lat="47.534725" lon="1.7951313">
        <ele>142</ele>
        <time>2022-03-17T08:16:30.000Z</time>
      </trkpt>
      <trkpt lat="47.53474" lon="1.7951274">
        <ele>142</ele>
        <time>2022-03-17T08:16:31.000Z</time>
      </trkpt>
      <trkpt lat="47.53475" lon="1.7951218">
        <ele>142</ele>
        <time>2022-03-17T08:16:32.000Z</time>
      </trkpt>
      <trkpt lat="47.53476" lon="1.7951207">
        <ele>142</ele>
        <time>2022-03-17T08:16:33.000Z</time>
      </trkpt>
      <trkpt lat="47.53477" lon="1.7951182">
        <ele>142</ele>
        <time>2022-03-17T08:16:34.000Z</time>
      </trkpt>
      <trkpt lat="47.53478" lon="1.7951126">
        <ele>141</ele>
        <time>2022-03-17T08:16:35.000Z</time>
      </trkpt>
      <trkpt lat="47.534786" lon="1.7951064">
        <ele>142</ele>
        <time>2022-03-17T08:16:36.000Z</time>
      </trkpt>
      <trkpt lat="47.534798" lon="1.7950985">
        <ele>141</ele>
        <time>2022-03-17T08:16:37.000Z</time>
      </trkpt>
      <trkpt lat="47.53481" lon="1.7950912">
        <ele>142</ele>
        <time>2022-03-17T08:16:38.000Z</time>
      </trkpt>
      <trkpt lat="47.53482" lon="1.7950838">
        <ele>142</ele>
        <time>2022-03-17T08:16:39.000Z</time>
      </trkpt>
      <trkpt lat="47.534824" lon="1.7950739">
        <ele>142</ele>
        <time>2022-03-17T08:16:40.000Z</time>
      </trkpt>
      <trkpt lat="47.534832" lon="1.7950625">
        <ele>142</ele>
        <time>2022-03-17T08:16:41.000Z</time>
      </trkpt>
      <trkpt lat="47.53484" lon="1.7950517">
        <ele>142</ele>
        <time>2022-03-17T08:16:42.000Z</time>
      </trkpt>
      <trkpt lat="47.53485" lon="1.7950395">
        <ele>142</ele>
        <time>2022-03-17T08:16:43.000Z</time>
      </trkpt>
      <trkpt lat="47.53486" lon="1.7950287">
        <ele>142</ele>
        <time>2022-03-17T08:16:44.000Z</time>
      </trkpt>
      <trkpt lat="47.53487" lon="1.7950169">
        <ele>142</ele>
        <time>2022-03-17T08:16:45.000Z</time>
      </trkpt>
      <trkpt lat="47.53488" lon="1.7950065">
        <ele>142</ele>
        <time>2022-03-17T08:16:46.000Z</time>
      </trkpt>
      <trkpt lat="47.53489" lon="1.7949958">
        <ele>142</ele>
        <time>2022-03-17T08:16:47.000Z</time>
      </trkpt>
      <trkpt lat="47.5349" lon="1.7949849">
        <ele>141</ele>
        <time>2022-03-17T08:16:48.000Z</time>
      </trkpt>
      <trkpt lat="47.534912" lon="1.7949754">
        <ele>141</ele>
        <time>2022-03-17T08:16:49.000Z</time>
      </trkpt>
      <trkpt lat="47.534916" lon="1.7949649">
        <ele>141</ele>
        <time>2022-03-17T08:16:50.000Z</time>
      </trkpt>
      <trkpt lat="47.534927" lon="1.7949522">
        <ele>142</ele>
        <time>2022-03-17T08:16:51.000Z</time>
      </trkpt>
      <trkpt lat="47.534927" lon="1.794949">
        <ele>141</ele>
        <time>2022-03-17T08:16:52.000Z</time>
      </trkpt>
      <trkpt lat="47.534927" lon="1.794946">
        <ele>142</ele>
        <time>2022-03-17T08:16:53.000Z</time>
      </trkpt>
      <trkpt lat="47.534935" lon="1.7949431">
        <ele>142</ele>
        <time>2022-03-17T08:16:54.000Z</time>
      </trkpt>
      <trkpt lat="47.534943" lon="1.7949325">
        <ele>142</ele>
        <time>2022-03-17T08:16:55.000Z</time>
      </trkpt>
      <trkpt lat="47.53495" lon="1.7949265">
        <ele>142</ele>
        <time>2022-03-17T08:16:56.000Z</time>
      </trkpt>
      <trkpt lat="47.534958" lon="1.7949228">
        <ele>142</ele>
        <time>2022-03-17T08:16:57.000Z</time>
      </trkpt>
      <trkpt lat="47.534966" lon="1.7949193">
        <ele>142</ele>
        <time>2022-03-17T08:16:58.000Z</time>
      </trkpt>
      <trkpt lat="47.534977" lon="1.7949115">
        <ele>143</ele>
        <time>2022-03-17T08:16:59.000Z</time>
      </trkpt>
      <trkpt lat="47.53499" lon="1.7949097">
        <ele>143</ele>
        <time>2022-03-17T08:17:00.000Z</time>
      </trkpt>
      <trkpt lat="47.534996" lon="1.7949058">
        <ele>142</ele>
        <time>2022-03-17T08:17:01.000Z</time>
      </trkpt>
      <trkpt lat="47.53501" lon="1.7949036">
        <ele>142</ele>
        <time>2022-03-17T08:17:02.000Z</time>
      </trkpt>
      <trkpt lat="47.535023" lon="1.7948991">
        <ele>143</ele>
        <time>2022-03-17T08:17:03.000Z</time>
      </trkpt>
      <trkpt lat="47.535038" lon="1.7948947">
        <ele>143</ele>
        <time>2022-03-17T08:17:04.000Z</time>
      </trkpt>
      <trkpt lat="47.535053" lon="1.7948853">
        <ele>143</ele>
        <time>2022-03-17T08:17:05.000Z</time>
      </trkpt>
      <trkpt lat="47.53507" lon="1.7948804">
        <ele>143</ele>
        <time>2022-03-17T08:17:06.000Z</time>
      </trkpt>
      <trkpt lat="47.53508" lon="1.7948754">
        <ele>144</ele>
        <time>2022-03-17T08:17:07.000Z</time>
      </trkpt>
      <trkpt lat="47.53509" lon="1.7948684">
        <ele>143</ele>
        <time>2022-03-17T08:17:08.000Z</time>
      </trkpt>
      <trkpt lat="47.535107" lon="1.7948607">
        <ele>143</ele>
        <time>2022-03-17T08:17:09.000Z</time>
      </trkpt>
      <trkpt lat="47.53512" lon="1.794858">
        <ele>144</ele>
        <time>2022-03-17T08:17:10.000Z</time>
      </trkpt>
      <trkpt lat="47.53513" lon="1.7948523">
        <ele>144</ele>
        <time>2022-03-17T08:17:11.000Z</time>
      </trkpt>
      <trkpt lat="47.535145" lon="1.7948506">
        <ele>144</ele>
        <time>2022-03-17T08:17:12.000Z</time>
      </trkpt>
      <trkpt lat="47.535152" lon="1.7948456">
        <ele>144</ele>
        <time>2022-03-17T08:17:13.000Z</time>
      </trkpt>
      <trkpt lat="47.53516" lon="1.79484">
        <ele>144</ele>
        <time>2022-03-17T08:17:14.000Z</time>
      </trkpt>
      <trkpt lat="47.535175" lon="1.7948376">
        <ele>144</ele>
        <time>2022-03-17T08:17:15.000Z</time>
      </trkpt>
      <trkpt lat="47.535187" lon="1.7948378">
        <ele>145</ele>
        <time>2022-03-17T08:17:16.000Z</time>
      </trkpt>
      <trkpt lat="47.5352" lon="1.7948331">
        <ele>145</ele>
        <time>2022-03-17T08:17:17.000Z</time>
      </trkpt>
      <trkpt lat="47.53521" lon="1.7948314">
        <ele>144</ele>
        <time>2022-03-17T08:17:18.000Z</time>
      </trkpt>
      <trkpt lat="47.53522" lon="1.7948307">
        <ele>145</ele>
        <time>2022-03-17T08:17:19.000Z</time>
      </trkpt>
      <trkpt lat="47.535236" lon="1.7948279">
        <ele>145</ele>
        <time>2022-03-17T08:17:20.000Z</time>
      </trkpt>
      <trkpt lat="47.535244" lon="1.7948263">
        <ele>145</ele>
        <time>2022-03-17T08:17:21.000Z</time>
      </trkpt>
      <trkpt lat="47.535255" lon="1.7948228">
        <ele>144</ele>
        <time>2022-03-17T08:17:22.000Z</time>
      </trkpt>
      <trkpt lat="47.535263" lon="1.794817">
        <ele>144</ele>
        <time>2022-03-17T08:17:23.000Z</time>
      </trkpt>
      <trkpt lat="47.535275" lon="1.7948145">
        <ele>145</ele>
        <time>2022-03-17T08:17:24.000Z</time>
      </trkpt>
      <trkpt lat="47.53529" lon="1.794816">
        <ele>146</ele>
        <time>2022-03-17T08:17:25.000Z</time>
      </trkpt>
      <trkpt lat="47.5353" lon="1.794815">
        <ele>146</ele>
        <time>2022-03-17T08:17:26.000Z</time>
      </trkpt>
      <trkpt lat="47.53531" lon="1.7948123">
        <ele>146</ele>
        <time>2022-03-17T08:17:27.000Z</time>
      </trkpt>
      <trkpt lat="47.53532" lon="1.7948105">
        <ele>146</ele>
        <time>2022-03-17T08:17:28.000Z</time>
      </trkpt>
      <trkpt lat="47.53533" lon="1.7948079">
        <ele>146</ele>
        <time>2022-03-17T08:17:29.000Z</time>
      </trkpt>
      <trkpt lat="47.53534" lon="1.7948116">
        <ele>146</ele>
        <time>2022-03-17T08:17:30.000Z</time>
      </trkpt>
      <trkpt lat="47.535347" lon="1.7948147">
        <ele>146</ele>
        <time>2022-03-17T08:17:31.000Z</time>
      </trkpt>
      <trkpt lat="47.535362" lon="1.794812">
        <ele>146</ele>
        <time>2022-03-17T08:17:32.000Z</time>
      </trkpt>
      <trkpt lat="47.535374" lon="1.7948084">
        <ele>146</ele>
        <time>2022-03-17T08:17:33.000Z</time>
      </trkpt>
      <trkpt lat="47.535385" lon="1.7948054">
        <ele>145</ele>
        <time>2022-03-17T08:17:34.000Z</time>
      </trkpt>
      <trkpt lat="47.535397" lon="1.7947999">
        <ele>145</ele>
        <time>2022-03-17T08:17:35.000Z</time>
      </trkpt>
      <trkpt lat="47.535408" lon="1.7947937">
        <ele>145</ele>
        <time>2022-03-17T08:17:36.000Z</time>
      </trkpt>
      <trkpt lat="47.53542" lon="1.7947873">
        <ele>146</ele>
        <time>2022-03-17T08:17:37.000Z</time>
      </trkpt>
      <trkpt lat="47.53543" lon="1.7947844">
        <ele>146</ele>
        <time>2022-03-17T08:17:38.000Z</time>
      </trkpt>
      <trkpt lat="47.53544" lon="1.7947814">
        <ele>146</ele>
        <time>2022-03-17T08:17:39.000Z</time>
      </trkpt>
      <trkpt lat="47.535446" lon="1.7947787">
        <ele>147</ele>
        <time>2022-03-17T08:17:40.000Z</time>
      </trkpt>
      <trkpt lat="47.535458" lon="1.794774">
        <ele>146</ele>
        <time>2022-03-17T08:17:41.000Z</time>
      </trkpt>
      <trkpt lat="47.535473" lon="1.7947713">
        <ele>147</ele>
        <time>2022-03-17T08:17:42.000Z</time>
      </trkpt>
      <trkpt lat="47.535484" lon="1.79476">
        <ele>147</ele>
        <time>2022-03-17T08:17:43.000Z</time>
      </trkpt>
      <trkpt lat="47.535492" lon="1.7947567">
        <ele>146</ele>
        <time>2022-03-17T08:17:44.000Z</time>
      </trkpt>
      <trkpt lat="47.535503" lon="1.7947559">
        <ele>146</ele>
        <time>2022-03-17T08:17:45.000Z</time>
      </trkpt>
      <trkpt lat="47.535515" lon="1.7947524">
        <ele>147</ele>
        <time>2022-03-17T08:17:46.000Z</time>
      </trkpt>
      <trkpt lat="47.535522" lon="1.7947489">
        <ele>147</ele>
        <time>2022-03-17T08:17:47.000Z</time>
      </trkpt>
      <trkpt lat="47.535534" lon="1.7947471">
        <ele>148</ele>
        <time>2022-03-17T08:17:48.000Z</time>
      </trkpt>
      <trkpt lat="47.535545" lon="1.7947487">
        <ele>148</ele>
        <time>2022-03-17T08:17:49.000Z</time>
      </trkpt>
      <trkpt lat="47.535553" lon="1.7947477">
        <ele>148</ele>
        <time>2022-03-17T08:17:50.000Z</time>
      </trkpt>
      <trkpt lat="47.53556" lon="1.7947432">
        <ele>148</ele>
        <time>2022-03-17T08:17:51.000Z</time>
      </trkpt>
      <trkpt lat="47.535564" lon="1.794742">
        <ele>148</ele>
        <time>2022-03-17T08:17:52.000Z</time>
      </trkpt>
      <trkpt lat="47.535564" lon="1.79474">
        <ele>148</ele>
        <time>2022-03-17T08:17:53.000Z</time>
      </trkpt>
      <trkpt lat="47.53556" lon="1.7947371">
        <ele>147</ele>
        <time>2022-03-17T08:17:54.000Z</time>
      </trkpt>
      <trkpt lat="47.53556" lon="1.7947373">
        <ele>147</ele>
        <time>2022-03-17T08:17:55.000Z</time>
      </trkpt>
      <trkpt lat="47.53556" lon="1.7947373">
        <ele>147</ele>
        <time>2022-03-17T08:17:55.000Z</time>
      </trkpt>
      <trkpt lat="47.53556" lon="1.7947373">
        <ele>147</ele>
        <time>2022-03-17T08:17:55.000Z</time>
      </trkpt>
      <trkpt lat="47.535606" lon="1.7947094">
        <ele>148</ele>
        <time>2022-03-17T08:18:48.000Z</time>
      </trkpt>
      <trkpt lat="47.535618" lon="1.794713">
        <ele>148</ele>
        <time>2022-03-17T08:18:49.000Z</time>
      </trkpt>
      <trkpt lat="47.535625" lon="1.7947116">
        <ele>148</ele>
        <time>2022-03-17T08:18:50.000Z</time>
      </trkpt>
      <trkpt lat="47.535633" lon="1.7947055">
        <ele>148</ele>
        <time>2022-03-17T08:18:51.000Z</time>
      </trkpt>
      <trkpt lat="47.535645" lon="1.7947028">
        <ele>148</ele>
        <time>2022-03-17T08:18:52.000Z</time>
      </trkpt>
      <trkpt lat="47.535656" lon="1.7947046">
        <ele>148</ele>
        <time>2022-03-17T08:18:53.000Z</time>
      </trkpt>
      <trkpt lat="47.535667" lon="1.7947099">
        <ele>148</ele>
        <time>2022-03-17T08:18:54.000Z</time>
      </trkpt>
      <trkpt lat="47.53568" lon="1.794719">
        <ele>149</ele>
        <time>2022-03-17T08:18:55.000Z</time>
      </trkpt>
      <trkpt lat="47.535686" lon="1.794732">
        <ele>149</ele>
        <time>2022-03-17T08:18:56.000Z</time>
      </trkpt>
      <trkpt lat="47.535694" lon="1.7947422">
        <ele>149</ele>
        <time>2022-03-17T08:18:57.000Z</time>
      </trkpt>
      <trkpt lat="47.5357" lon="1.7947531">
        <ele>148</ele>
        <time>2022-03-17T08:18:58.000Z</time>
      </trkpt>
      <trkpt lat="47.53571" lon="1.7947628">
        <ele>148</ele>
        <time>2022-03-17T08:18:59.000Z</time>
      </trkpt>
      <trkpt lat="47.53572" lon="1.7947692">
        <ele>148</ele>
        <time>2022-03-17T08:19:00.000Z</time>
      </trkpt>
      <trkpt lat="47.53573" lon="1.7947817">
        <ele>148</ele>
        <time>2022-03-17T08:19:01.000Z</time>
      </trkpt>
      <trkpt lat="47.535736" lon="1.7947916">
        <ele>149</ele>
        <time>2022-03-17T08:19:02.000Z</time>
      </trkpt>
      <trkpt lat="47.53574" lon="1.7948023">
        <ele>149</ele>
        <time>2022-03-17T08:19:03.000Z</time>
      </trkpt>
      <trkpt lat="47.535744" lon="1.7948104">
        <ele>149</ele>
        <time>2022-03-17T08:19:04.000Z</time>
      </trkpt>
      <trkpt lat="47.535748" lon="1.794823">
        <ele>148</ele>
        <time>2022-03-17T08:19:05.000Z</time>
      </trkpt>
      <trkpt lat="47.535755" lon="1.7948372">
        <ele>148</ele>
        <time>2022-03-17T08:19:06.000Z</time>
      </trkpt>
      <trkpt lat="47.535763" lon="1.7948508">
        <ele>148</ele>
        <time>2022-03-17T08:19:07.000Z</time>
      </trkpt>
      <trkpt lat="47.535763" lon="1.7948655">
        <ele>148</ele>
        <time>2022-03-17T08:19:08.000Z</time>
      </trkpt>
      <trkpt lat="47.535767" lon="1.7948796">
        <ele>148</ele>
        <time>2022-03-17T08:19:09.000Z</time>
      </trkpt>
      <trkpt lat="47.53577" lon="1.7948961">
        <ele>148</ele>
        <time>2022-03-17T08:19:10.000Z</time>
      </trkpt>
      <trkpt lat="47.53577" lon="1.794912">
        <ele>149</ele>
        <time>2022-03-17T08:19:11.000Z</time>
      </trkpt>
      <trkpt lat="47.53577" lon="1.7949276">
        <ele>149</ele>
        <time>2022-03-17T08:19:12.000Z</time>
      </trkpt>
      <trkpt lat="47.535774" lon="1.7949429">
        <ele>148</ele>
        <time>2022-03-17T08:19:13.000Z</time>
      </trkpt>
      <trkpt lat="47.535774" lon="1.7949607">
        <ele>148</ele>
        <time>2022-03-17T08:19:14.000Z</time>
      </trkpt>
      <trkpt lat="47.53578" lon="1.7949767">
        <ele>148</ele>
        <time>2022-03-17T08:19:15.000Z</time>
      </trkpt>
      <trkpt lat="47.535786" lon="1.7949977">
        <ele>148</ele>
        <time>2022-03-17T08:19:16.000Z</time>
      </trkpt>
      <trkpt lat="47.53579" lon="1.7950134">
        <ele>149</ele>
        <time>2022-03-17T08:19:17.000Z</time>
      </trkpt>
      <trkpt lat="47.53579" lon="1.7950284">
        <ele>149</ele>
        <time>2022-03-17T08:19:18.000Z</time>
      </trkpt>
      <trkpt lat="47.53579" lon="1.7950437">
        <ele>149</ele>
        <time>2022-03-17T08:19:19.000Z</time>
      </trkpt>
      <trkpt lat="47.535793" lon="1.795067">
        <ele>149</ele>
        <time>2022-03-17T08:19:20.000Z</time>
      </trkpt>
      <trkpt lat="47.535793" lon="1.7950821">
        <ele>149</ele>
        <time>2022-03-17T08:19:21.000Z</time>
      </trkpt>
      <trkpt lat="47.535797" lon="1.7950984">
        <ele>149</ele>
        <time>2022-03-17T08:19:22.000Z</time>
      </trkpt>
      <trkpt lat="47.5358" lon="1.7951134">
        <ele>150</ele>
        <time>2022-03-17T08:19:23.000Z</time>
      </trkpt>
      <trkpt lat="47.5358" lon="1.795128">
        <ele>149</ele>
        <time>2022-03-17T08:19:24.000Z</time>
      </trkpt>
      <trkpt lat="47.5358" lon="1.7951425">
        <ele>149</ele>
        <time>2022-03-17T08:19:25.000Z</time>
      </trkpt>
      <trkpt lat="47.5358" lon="1.7951515">
        <ele>149</ele>
        <time>2022-03-17T08:19:26.000Z</time>
      </trkpt>
      <trkpt lat="47.535805" lon="1.7951645">
        <ele>149</ele>
        <time>2022-03-17T08:19:27.000Z</time>
      </trkpt>
      <trkpt lat="47.535812" lon="1.7951787">
        <ele>149</ele>
        <time>2022-03-17T08:19:28.000Z</time>
      </trkpt>
      <trkpt lat="47.535816" lon="1.7951908">
        <ele>149</ele>
        <time>2022-03-17T08:19:29.000Z</time>
      </trkpt>
      <trkpt lat="47.535816" lon="1.7952082">
        <ele>149</ele>
        <time>2022-03-17T08:19:30.000Z</time>
      </trkpt>
      <trkpt lat="47.53582" lon="1.7952237">
        <ele>149</ele>
        <time>2022-03-17T08:19:31.000Z</time>
      </trkpt>
      <trkpt lat="47.53582" lon="1.7952422">
        <ele>149</ele>
        <time>2022-03-17T08:19:32.000Z</time>
      </trkpt>
      <trkpt lat="47.535828" lon="1.79526">
        <ele>149</ele>
        <time>2022-03-17T08:19:33.000Z</time>
      </trkpt>
      <trkpt lat="47.53583" lon="1.7952783">
        <ele>149</ele>
        <time>2022-03-17T08:19:34.000Z</time>
      </trkpt>
      <trkpt lat="47.53583" lon="1.7952944">
        <ele>149</ele>
        <time>2022-03-17T08:19:35.000Z</time>
      </trkpt>
      <trkpt lat="47.53583" lon="1.7953129">
        <ele>149</ele>
        <time>2022-03-17T08:19:36.000Z</time>
      </trkpt>
      <trkpt lat="47.535835" lon="1.7953268">
        <ele>149</ele>
        <time>2022-03-17T08:19:37.000Z</time>
      </trkpt>
      <trkpt lat="47.53584" lon="1.7953404">
        <ele>149</ele>
        <time>2022-03-17T08:19:38.000Z</time>
      </trkpt>
      <trkpt lat="47.535843" lon="1.7953554">
        <ele>149</ele>
        <time>2022-03-17T08:19:39.000Z</time>
      </trkpt>
      <trkpt lat="47.535847" lon="1.7953714">
        <ele>148</ele>
        <time>2022-03-17T08:19:40.000Z</time>
      </trkpt>
      <trkpt lat="47.53585" lon="1.7953863">
        <ele>148</ele>
        <time>2022-03-17T08:19:41.000Z</time>
      </trkpt>
      <trkpt lat="47.535854" lon="1.7954017">
        <ele>148</ele>
        <time>2022-03-17T08:19:42.000Z</time>
      </trkpt>
      <trkpt lat="47.535854" lon="1.7954205">
        <ele>147</ele>
        <time>2022-03-17T08:19:43.000Z</time>
      </trkpt>
      <trkpt lat="47.53586" lon="1.7954389">
        <ele>146</ele>
        <time>2022-03-17T08:19:44.000Z</time>
      </trkpt>
      <trkpt lat="47.535862" lon="1.7954565">
        <ele>146</ele>
        <time>2022-03-17T08:19:45.000Z</time>
      </trkpt>
      <trkpt lat="47.535866" lon="1.7954746">
        <ele>146</ele>
        <time>2022-03-17T08:19:46.000Z</time>
      </trkpt>
      <trkpt lat="47.535866" lon="1.7954952">
        <ele>146</ele>
        <time>2022-03-17T08:19:47.000Z</time>
      </trkpt>
      <trkpt lat="47.53587" lon="1.7955141">
        <ele>145</ele>
        <time>2022-03-17T08:19:48.000Z</time>
      </trkpt>
      <trkpt lat="47.53587" lon="1.7955298">
        <ele>146</ele>
        <time>2022-03-17T08:19:49.000Z</time>
      </trkpt>
      <trkpt lat="47.53587" lon="1.7955445">
        <ele>146</ele>
        <time>2022-03-17T08:19:50.000Z</time>
      </trkpt>
      <trkpt lat="47.53587" lon="1.7955627">
        <ele>145</ele>
        <time>2022-03-17T08:19:51.000Z</time>
      </trkpt>
      <trkpt lat="47.535873" lon="1.7955825">
        <ele>145</ele>
        <time>2022-03-17T08:19:52.000Z</time>
      </trkpt>
      <trkpt lat="47.535877" lon="1.795601">
        <ele>145</ele>
        <time>2022-03-17T08:19:53.000Z</time>
      </trkpt>
      <trkpt lat="47.535877" lon="1.7956175">
        <ele>145</ele>
        <time>2022-03-17T08:19:54.000Z</time>
      </trkpt>
      <trkpt lat="47.535877" lon="1.7956356">
        <ele>145</ele>
        <time>2022-03-17T08:19:55.000Z</time>
      </trkpt>
      <trkpt lat="47.53588" lon="1.7956507">
        <ele>145</ele>
        <time>2022-03-17T08:19:56.000Z</time>
      </trkpt>
      <trkpt lat="47.53588" lon="1.7956686">
        <ele>146</ele>
        <time>2022-03-17T08:19:57.000Z</time>
      </trkpt>
      <trkpt lat="47.535885" lon="1.7956872">
        <ele>146</ele>
        <time>2022-03-17T08:19:58.000Z</time>
      </trkpt>
      <trkpt lat="47.535885" lon="1.7957048">
        <ele>146</ele>
        <time>2022-03-17T08:19:59.000Z</time>
      </trkpt>
      <trkpt lat="47.53589" lon="1.7957205">
        <ele>146</ele>
        <time>2022-03-17T08:20:00.000Z</time>
      </trkpt>
      <trkpt lat="47.53589" lon="1.7957362">
        <ele>146</ele>
        <time>2022-03-17T08:20:01.000Z</time>
      </trkpt>
      <trkpt lat="47.535892" lon="1.795752">
        <ele>146</ele>
        <time>2022-03-17T08:20:02.000Z</time>
      </trkpt>
      <trkpt lat="47.535892" lon="1.7957687">
        <ele>145</ele>
        <time>2022-03-17T08:20:03.000Z</time>
      </trkpt>
      <trkpt lat="47.535896" lon="1.7957852">
        <ele>146</ele>
        <time>2022-03-17T08:20:04.000Z</time>
      </trkpt>
      <trkpt lat="47.5359" lon="1.7958043">
        <ele>145</ele>
        <time>2022-03-17T08:20:05.000Z</time>
      </trkpt>
      <trkpt lat="47.535904" lon="1.7958212">
        <ele>145</ele>
        <time>2022-03-17T08:20:06.000Z</time>
      </trkpt>
      <trkpt lat="47.53591" lon="1.7958378">
        <ele>145</ele>
        <time>2022-03-17T08:20:07.000Z</time>
      </trkpt>
      <trkpt lat="47.535915" lon="1.7958568">
        <ele>145</ele>
        <time>2022-03-17T08:20:08.000Z</time>
      </trkpt>
      <trkpt lat="47.53592" lon="1.7958738">
        <ele>145</ele>
        <time>2022-03-17T08:20:09.000Z</time>
      </trkpt>
      <trkpt lat="47.535927" lon="1.7958901">
        <ele>145</ele>
        <time>2022-03-17T08:20:10.000Z</time>
      </trkpt>
      <trkpt lat="47.53593" lon="1.7959054">
        <ele>145</ele>
        <time>2022-03-17T08:20:11.000Z</time>
      </trkpt>
      <trkpt lat="47.535934" lon="1.7959207">
        <ele>145</ele>
        <time>2022-03-17T08:20:12.000Z</time>
      </trkpt>
      <trkpt lat="47.53594" lon="1.795935">
        <ele>145</ele>
        <time>2022-03-17T08:20:13.000Z</time>
      </trkpt>
      <trkpt lat="47.53594" lon="1.7959491">
        <ele>145</ele>
        <time>2022-03-17T08:20:14.000Z</time>
      </trkpt>
      <trkpt lat="47.53594" lon="1.7959658">
        <ele>145</ele>
        <time>2022-03-17T08:20:15.000Z</time>
      </trkpt>
      <trkpt lat="47.535942" lon="1.7959838">
        <ele>145</ele>
        <time>2022-03-17T08:20:16.000Z</time>
      </trkpt>
      <trkpt lat="47.535946" lon="1.7959998">
        <ele>145</ele>
        <time>2022-03-17T08:20:17.000Z</time>
      </trkpt>
      <trkpt lat="47.535946" lon="1.7960149">
        <ele>145</ele>
        <time>2022-03-17T08:20:18.000Z</time>
      </trkpt>
      <trkpt lat="47.53595" lon="1.7960335">
        <ele>145</ele>
        <time>2022-03-17T08:20:19.000Z</time>
      </trkpt>
      <trkpt lat="47.53595" lon="1.7960494">
        <ele>145</ele>
        <time>2022-03-17T08:20:20.000Z</time>
      </trkpt>
      <trkpt lat="47.535957" lon="1.7960654">
        <ele>145</ele>
        <time>2022-03-17T08:20:21.000Z</time>
      </trkpt>
      <trkpt lat="47.535957" lon="1.7960807">
        <ele>145</ele>
        <time>2022-03-17T08:20:22.000Z</time>
      </trkpt>
      <trkpt lat="47.53596" lon="1.7960912">
        <ele>144</ele>
        <time>2022-03-17T08:20:23.000Z</time>
      </trkpt>
      <trkpt lat="47.53596" lon="1.796102">
        <ele>144</ele>
        <time>2022-03-17T08:20:24.000Z</time>
      </trkpt>
      <trkpt lat="47.53596" lon="1.7961137">
        <ele>144</ele>
        <time>2022-03-17T08:20:25.000Z</time>
      </trkpt>
      <trkpt lat="47.53597" lon="1.7961267">
        <ele>144</ele>
        <time>2022-03-17T08:20:26.000Z</time>
      </trkpt>
      <trkpt lat="47.535973" lon="1.7961452">
        <ele>144</ele>
        <time>2022-03-17T08:20:27.000Z</time>
      </trkpt>
      <trkpt lat="47.535973" lon="1.7961656">
        <ele>144</ele>
        <time>2022-03-17T08:20:28.000Z</time>
      </trkpt>
      <trkpt lat="47.535976" lon="1.7961824">
        <ele>144</ele>
        <time>2022-03-17T08:20:29.000Z</time>
      </trkpt>
      <trkpt lat="47.53598" lon="1.7962012">
        <ele>144</ele>
        <time>2022-03-17T08:20:30.000Z</time>
      </trkpt>
      <trkpt lat="47.535984" lon="1.7962182">
        <ele>144</ele>
        <time>2022-03-17T08:20:31.000Z</time>
      </trkpt>
      <trkpt lat="47.535988" lon="1.796234">
        <ele>144</ele>
        <time>2022-03-17T08:20:32.000Z</time>
      </trkpt>
      <trkpt lat="47.53599" lon="1.7962502">
        <ele>144</ele>
        <time>2022-03-17T08:20:33.000Z</time>
      </trkpt>
      <trkpt lat="47.535995" lon="1.7962685">
        <ele>144</ele>
        <time>2022-03-17T08:20:34.000Z</time>
      </trkpt>
      <trkpt lat="47.536" lon="1.7962842">
        <ele>144</ele>
        <time>2022-03-17T08:20:35.000Z</time>
      </trkpt>
      <trkpt lat="47.536003" lon="1.7963004">
        <ele>144</ele>
        <time>2022-03-17T08:20:36.000Z</time>
      </trkpt>
      <trkpt lat="47.536007" lon="1.7963145">
        <ele>144</ele>
        <time>2022-03-17T08:20:37.000Z</time>
      </trkpt>
      <trkpt lat="47.53601" lon="1.7963297">
        <ele>144</ele>
        <time>2022-03-17T08:20:38.000Z</time>
      </trkpt>
      <trkpt lat="47.53601" lon="1.7963489">
        <ele>144</ele>
        <time>2022-03-17T08:20:39.000Z</time>
      </trkpt>
      <trkpt lat="47.536015" lon="1.7963661">
        <ele>145</ele>
        <time>2022-03-17T08:20:40.000Z</time>
      </trkpt>
      <trkpt lat="47.536022" lon="1.7963811">
        <ele>145</ele>
        <time>2022-03-17T08:20:41.000Z</time>
      </trkpt>
      <trkpt lat="47.53602" lon="1.7964005">
        <ele>145</ele>
        <time>2022-03-17T08:20:42.000Z</time>
      </trkpt>
      <trkpt lat="47.53602" lon="1.7964176">
        <ele>145</ele>
        <time>2022-03-17T08:20:43.000Z</time>
      </trkpt>
      <trkpt lat="47.536026" lon="1.7964311">
        <ele>145</ele>
        <time>2022-03-17T08:20:44.000Z</time>
      </trkpt>
      <trkpt lat="47.536026" lon="1.7964458">
        <ele>145</ele>
        <time>2022-03-17T08:20:45.000Z</time>
      </trkpt>
      <trkpt lat="47.53603" lon="1.7964637">
        <ele>145</ele>
        <time>2022-03-17T08:20:46.000Z</time>
      </trkpt>
      <trkpt lat="47.53603" lon="1.7964814">
        <ele>145</ele>
        <time>2022-03-17T08:20:47.000Z</time>
      </trkpt>
      <trkpt lat="47.536034" lon="1.7964983">
        <ele>145</ele>
        <time>2022-03-17T08:20:48.000Z</time>
      </trkpt>
      <trkpt lat="47.536037" lon="1.7965163">
        <ele>146</ele>
        <time>2022-03-17T08:20:49.000Z</time>
      </trkpt>
      <trkpt lat="47.53604" lon="1.7965311">
        <ele>146</ele>
        <time>2022-03-17T08:20:50.000Z</time>
      </trkpt>
      <trkpt lat="47.53604" lon="1.7965485">
        <ele>146</ele>
        <time>2022-03-17T08:20:51.000Z</time>
      </trkpt>
      <trkpt lat="47.53605" lon="1.7965652">
        <ele>146</ele>
        <time>2022-03-17T08:20:52.000Z</time>
      </trkpt>
      <trkpt lat="47.53605" lon="1.7965794">
        <ele>145</ele>
        <time>2022-03-17T08:20:53.000Z</time>
      </trkpt>
      <trkpt lat="47.536045" lon="1.7965928">
        <ele>145</ele>
        <time>2022-03-17T08:20:54.000Z</time>
      </trkpt>
      <trkpt lat="47.536053" lon="1.796609">
        <ele>146</ele>
        <time>2022-03-17T08:20:55.000Z</time>
      </trkpt>
      <trkpt lat="47.536057" lon="1.7966231">
        <ele>146</ele>
        <time>2022-03-17T08:20:56.000Z</time>
      </trkpt>
      <trkpt lat="47.53606" lon="1.7966388">
        <ele>146</ele>
        <time>2022-03-17T08:20:57.000Z</time>
      </trkpt>
      <trkpt lat="47.536064" lon="1.7966526">
        <ele>146</ele>
        <time>2022-03-17T08:20:58.000Z</time>
      </trkpt>
      <trkpt lat="47.536068" lon="1.7966663">
        <ele>146</ele>
        <time>2022-03-17T08:20:59.000Z</time>
      </trkpt>
      <trkpt lat="47.53607" lon="1.7966826">
        <ele>146</ele>
        <time>2022-03-17T08:21:00.000Z</time>
      </trkpt>
      <trkpt lat="47.536076" lon="1.796697">
        <ele>146</ele>
        <time>2022-03-17T08:21:01.000Z</time>
      </trkpt>
      <trkpt lat="47.536076" lon="1.7967108">
        <ele>145</ele>
        <time>2022-03-17T08:21:02.000Z</time>
      </trkpt>
      <trkpt lat="47.53608" lon="1.7967281">
        <ele>145</ele>
        <time>2022-03-17T08:21:03.000Z</time>
      </trkpt>
      <trkpt lat="47.536083" lon="1.7967428">
        <ele>145</ele>
        <time>2022-03-17T08:21:04.000Z</time>
      </trkpt>
      <trkpt lat="47.536087" lon="1.796758">
        <ele>144</ele>
        <time>2022-03-17T08:21:05.000Z</time>
      </trkpt>
      <trkpt lat="47.53609" lon="1.796776">
        <ele>144</ele>
        <time>2022-03-17T08:21:06.000Z</time>
      </trkpt>
      <trkpt lat="47.536095" lon="1.796792">
        <ele>144</ele>
        <time>2022-03-17T08:21:07.000Z</time>
      </trkpt>
      <trkpt lat="47.5361" lon="1.7968109">
        <ele>144</ele>
        <time>2022-03-17T08:21:08.000Z</time>
      </trkpt>
      <trkpt lat="47.536102" lon="1.7968271">
        <ele>144</ele>
        <time>2022-03-17T08:21:09.000Z</time>
      </trkpt>
      <trkpt lat="47.536106" lon="1.7968442">
        <ele>144</ele>
        <time>2022-03-17T08:21:10.000Z</time>
      </trkpt>
      <trkpt lat="47.536114" lon="1.7968607">
        <ele>144</ele>
        <time>2022-03-17T08:21:11.000Z</time>
      </trkpt>
      <trkpt lat="47.536114" lon="1.7968754">
        <ele>144</ele>
        <time>2022-03-17T08:21:12.000Z</time>
      </trkpt>
      <trkpt lat="47.53612" lon="1.7968919">
        <ele>144</ele>
        <time>2022-03-17T08:21:13.000Z</time>
      </trkpt>
      <trkpt lat="47.53613" lon="1.7969089">
        <ele>144</ele>
        <time>2022-03-17T08:21:14.000Z</time>
      </trkpt>
      <trkpt lat="47.53613" lon="1.7969246">
        <ele>144</ele>
        <time>2022-03-17T08:21:15.000Z</time>
      </trkpt>
      <trkpt lat="47.536133" lon="1.7969408">
        <ele>144</ele>
        <time>2022-03-17T08:21:16.000Z</time>
      </trkpt>
      <trkpt lat="47.536137" lon="1.7969588">
        <ele>144</ele>
        <time>2022-03-17T08:21:17.000Z</time>
      </trkpt>
      <trkpt lat="47.536137" lon="1.7969768">
        <ele>144</ele>
        <time>2022-03-17T08:21:18.000Z</time>
      </trkpt>
      <trkpt lat="47.53614" lon="1.7969958">
        <ele>145</ele>
        <time>2022-03-17T08:21:19.000Z</time>
      </trkpt>
      <trkpt lat="47.536144" lon="1.7970115">
        <ele>145</ele>
        <time>2022-03-17T08:21:20.000Z</time>
      </trkpt>
      <trkpt lat="47.536156" lon="1.7970226">
        <ele>145</ele>
        <time>2022-03-17T08:21:21.000Z</time>
      </trkpt>
      <trkpt lat="47.536167" lon="1.7970253">
        <ele>145</ele>
        <time>2022-03-17T08:21:22.000Z</time>
      </trkpt>
      <trkpt lat="47.536182" lon="1.7970155">
        <ele>144</ele>
        <time>2022-03-17T08:21:23.000Z</time>
      </trkpt>
      <trkpt lat="47.536194" lon="1.7970145">
        <ele>145</ele>
        <time>2022-03-17T08:21:24.000Z</time>
      </trkpt>
      <trkpt lat="47.536205" lon="1.7970133">
        <ele>145</ele>
        <time>2022-03-17T08:21:25.000Z</time>
      </trkpt>
      <trkpt lat="47.536217" lon="1.7970079">
        <ele>144</ele>
        <time>2022-03-17T08:21:26.000Z</time>
      </trkpt>
      <trkpt lat="47.53623" lon="1.7970079">
        <ele>145</ele>
        <time>2022-03-17T08:21:27.000Z</time>
      </trkpt>
      <trkpt lat="47.536243" lon="1.7970043">
        <ele>145</ele>
        <time>2022-03-17T08:21:28.000Z</time>
      </trkpt>
      <trkpt lat="47.53625" lon="1.7970006">
        <ele>144</ele>
        <time>2022-03-17T08:21:29.000Z</time>
      </trkpt>
      <trkpt lat="47.536263" lon="1.796993">
        <ele>144</ele>
        <time>2022-03-17T08:21:30.000Z</time>
      </trkpt>
      <trkpt lat="47.536274" lon="1.7969925">
        <ele>144</ele>
        <time>2022-03-17T08:21:31.000Z</time>
      </trkpt>
      <trkpt lat="47.53628" lon="1.7969851">
        <ele>144</ele>
        <time>2022-03-17T08:21:32.000Z</time>
      </trkpt>
      <trkpt lat="47.536297" lon="1.7969797">
        <ele>144</ele>
        <time>2022-03-17T08:21:33.000Z</time>
      </trkpt>
      <trkpt lat="47.53631" lon="1.7969743">
        <ele>145</ele>
        <time>2022-03-17T08:21:34.000Z</time>
      </trkpt>
      <trkpt lat="47.53632" lon="1.7969686">
        <ele>145</ele>
        <time>2022-03-17T08:21:35.000Z</time>
      </trkpt>
      <trkpt lat="47.53633" lon="1.7969612">
        <ele>145</ele>
        <time>2022-03-17T08:21:36.000Z</time>
      </trkpt>
      <trkpt lat="47.53634" lon="1.7969528">
        <ele>145</ele>
        <time>2022-03-17T08:21:37.000Z</time>
      </trkpt>
      <trkpt lat="47.53635" lon="1.796947">
        <ele>145</ele>
        <time>2022-03-17T08:21:38.000Z</time>
      </trkpt>
      <trkpt lat="47.536358" lon="1.7969353">
        <ele>145</ele>
        <time>2022-03-17T08:21:39.000Z</time>
      </trkpt>
      <trkpt lat="47.536366" lon="1.796925">
        <ele>144</ele>
        <time>2022-03-17T08:21:40.000Z</time>
      </trkpt>
      <trkpt lat="47.536373" lon="1.7969167">
        <ele>143</ele>
        <time>2022-03-17T08:21:41.000Z</time>
      </trkpt>
      <trkpt lat="47.53638" lon="1.7969068">
        <ele>143</ele>
        <time>2022-03-17T08:21:42.000Z</time>
      </trkpt>
      <trkpt lat="47.536392" lon="1.796895">
        <ele>143</ele>
        <time>2022-03-17T08:21:43.000Z</time>
      </trkpt>
      <trkpt lat="47.536404" lon="1.7968864">
        <ele>144</ele>
        <time>2022-03-17T08:21:44.000Z</time>
      </trkpt>
      <trkpt lat="47.536415" lon="1.796877">
        <ele>144</ele>
        <time>2022-03-17T08:21:45.000Z</time>
      </trkpt>
      <trkpt lat="47.536427" lon="1.7968705">
        <ele>144</ele>
        <time>2022-03-17T08:21:46.000Z</time>
      </trkpt>
      <trkpt lat="47.536438" lon="1.7968651">
        <ele>144</ele>
        <time>2022-03-17T08:21:47.000Z</time>
      </trkpt>
      <trkpt lat="47.536446" lon="1.7968578">
        <ele>144</ele>
        <time>2022-03-17T08:21:48.000Z</time>
      </trkpt>
      <trkpt lat="47.536457" lon="1.7968485">
        <ele>143</ele>
        <time>2022-03-17T08:21:49.000Z</time>
      </trkpt>
      <trkpt lat="47.536465" lon="1.7968407">
        <ele>143</ele>
        <time>2022-03-17T08:21:50.000Z</time>
      </trkpt>
      <trkpt lat="47.536476" lon="1.796832">
        <ele>143</ele>
        <time>2022-03-17T08:21:51.000Z</time>
      </trkpt>
      <trkpt lat="47.536484" lon="1.7968267">
        <ele>142</ele>
        <time>2022-03-17T08:21:52.000Z</time>
      </trkpt>
      <trkpt lat="47.536495" lon="1.7968193">
        <ele>142</ele>
        <time>2022-03-17T08:21:53.000Z</time>
      </trkpt>
      <trkpt lat="47.536503" lon="1.7968123">
        <ele>142</ele>
        <time>2022-03-17T08:21:54.000Z</time>
      </trkpt>
      <trkpt lat="47.536514" lon="1.7968047">
        <ele>143</ele>
        <time>2022-03-17T08:21:55.000Z</time>
      </trkpt>
      <trkpt lat="47.536526" lon="1.7967936">
        <ele>142</ele>
        <time>2022-03-17T08:21:56.000Z</time>
      </trkpt>
      <trkpt lat="47.536533" lon="1.7967836">
        <ele>142</ele>
        <time>2022-03-17T08:21:57.000Z</time>
      </trkpt>
      <trkpt lat="47.53655" lon="1.7967721">
        <ele>142</ele>
        <time>2022-03-17T08:21:58.000Z</time>
      </trkpt>
      <trkpt lat="47.53656" lon="1.7967622">
        <ele>142</ele>
        <time>2022-03-17T08:21:59.000Z</time>
      </trkpt>
      <trkpt lat="47.53657" lon="1.7967523">
        <ele>143</ele>
        <time>2022-03-17T08:22:00.000Z</time>
      </trkpt>
      <trkpt lat="47.536583" lon="1.7967432">
        <ele>143</ele>
        <time>2022-03-17T08:22:01.000Z</time>
      </trkpt>
      <trkpt lat="47.536594" lon="1.7967323">
        <ele>143</ele>
        <time>2022-03-17T08:22:02.000Z</time>
      </trkpt>
      <trkpt lat="47.536606" lon="1.7967223">
        <ele>143</ele>
        <time>2022-03-17T08:22:03.000Z</time>
      </trkpt>
      <trkpt lat="47.536617" lon="1.7967111">
        <ele>143</ele>
        <time>2022-03-17T08:22:04.000Z</time>
      </trkpt>
      <trkpt lat="47.53662" lon="1.7967021">
        <ele>143</ele>
        <time>2022-03-17T08:22:05.000Z</time>
      </trkpt>
      <trkpt lat="47.536633" lon="1.7966951">
        <ele>142</ele>
        <time>2022-03-17T08:22:06.000Z</time>
      </trkpt>
      <trkpt lat="47.536636" lon="1.7966855">
        <ele>142</ele>
        <time>2022-03-17T08:22:07.000Z</time>
      </trkpt>
      <trkpt lat="47.536648" lon="1.7966744">
        <ele>142</ele>
        <time>2022-03-17T08:22:08.000Z</time>
      </trkpt>
      <trkpt lat="47.536655" lon="1.7966645">
        <ele>142</ele>
        <time>2022-03-17T08:22:09.000Z</time>
      </trkpt>
      <trkpt lat="47.53667" lon="1.7966564">
        <ele>143</ele>
        <time>2022-03-17T08:22:10.000Z</time>
      </trkpt>
      <trkpt lat="47.53668" lon="1.7966467">
        <ele>142</ele>
        <time>2022-03-17T08:22:11.000Z</time>
      </trkpt>
      <trkpt lat="47.536686" lon="1.7966388">
        <ele>142</ele>
        <time>2022-03-17T08:22:12.000Z</time>
      </trkpt>
      <trkpt lat="47.536694" lon="1.796633">
        <ele>142</ele>
        <time>2022-03-17T08:22:13.000Z</time>
      </trkpt>
      <trkpt lat="47.5367" lon="1.7966211">
        <ele>143</ele>
        <time>2022-03-17T08:22:14.000Z</time>
      </trkpt>
      <trkpt lat="47.53671" lon="1.7966107">
        <ele>142</ele>
        <time>2022-03-17T08:22:15.000Z</time>
      </trkpt>
      <trkpt lat="47.53672" lon="1.7965999">
        <ele>142</ele>
        <time>2022-03-17T08:22:16.000Z</time>
      </trkpt>
      <trkpt lat="47.53673" lon="1.7965932">
        <ele>142</ele>
        <time>2022-03-17T08:22:17.000Z</time>
      </trkpt>
      <trkpt lat="47.536743" lon="1.7965816">
        <ele>142</ele>
        <time>2022-03-17T08:22:18.000Z</time>
      </trkpt>
      <trkpt lat="47.536755" lon="1.7965724">
        <ele>143</ele>
        <time>2022-03-17T08:22:19.000Z</time>
      </trkpt>
      <trkpt lat="47.53677" lon="1.7965617">
        <ele>142</ele>
        <time>2022-03-17T08:22:20.000Z</time>
      </trkpt>
      <trkpt lat="47.53678" lon="1.796551">
        <ele>142</ele>
        <time>2022-03-17T08:22:21.000Z</time>
      </trkpt>
      <trkpt lat="47.536793" lon="1.7965398">
        <ele>143</ele>
        <time>2022-03-17T08:22:22.000Z</time>
      </trkpt>
      <trkpt lat="47.536804" lon="1.796527">
        <ele>143</ele>
        <time>2022-03-17T08:22:23.000Z</time>
      </trkpt>
      <trkpt lat="47.53682" lon="1.7965175">
        <ele>142</ele>
        <time>2022-03-17T08:22:24.000Z</time>
      </trkpt>
      <trkpt lat="47.53683" lon="1.7965068">
        <ele>142</ele>
        <time>2022-03-17T08:22:25.000Z</time>
      </trkpt>
      <trkpt lat="47.53684" lon="1.7964953">
        <ele>143</ele>
        <time>2022-03-17T08:22:26.000Z</time>
      </trkpt>
      <trkpt lat="47.53685" lon="1.7964853">
        <ele>143</ele>
        <time>2022-03-17T08:22:27.000Z</time>
      </trkpt>
      <trkpt lat="47.53686" lon="1.7964766">
        <ele>143</ele>
        <time>2022-03-17T08:22:28.000Z</time>
      </trkpt>
      <trkpt lat="47.53687" lon="1.79647">
        <ele>143</ele>
        <time>2022-03-17T08:22:29.000Z</time>
      </trkpt>
      <trkpt lat="47.53688" lon="1.796461">
        <ele>143</ele>
        <time>2022-03-17T08:22:30.000Z</time>
      </trkpt>
      <trkpt lat="47.536892" lon="1.7964512">
        <ele>144</ele>
        <time>2022-03-17T08:22:31.000Z</time>
      </trkpt>
      <trkpt lat="47.536903" lon="1.7964423">
        <ele>143</ele>
        <time>2022-03-17T08:22:32.000Z</time>
      </trkpt>
      <trkpt lat="47.536915" lon="1.7964346">
        <ele>143</ele>
        <time>2022-03-17T08:22:33.000Z</time>
      </trkpt>
      <trkpt lat="47.536922" lon="1.7964268">
        <ele>143</ele>
        <time>2022-03-17T08:22:34.000Z</time>
      </trkpt>
      <trkpt lat="47.536934" lon="1.7964149">
        <ele>143</ele>
        <time>2022-03-17T08:22:35.000Z</time>
      </trkpt>
      <trkpt lat="47.53694" lon="1.7964077">
        <ele>143</ele>
        <time>2022-03-17T08:22:36.000Z</time>
      </trkpt>
      <trkpt lat="47.53695" lon="1.7963988">
        <ele>143</ele>
        <time>2022-03-17T08:22:37.000Z</time>
      </trkpt>
      <trkpt lat="47.53696" lon="1.7963908">
        <ele>143</ele>
        <time>2022-03-17T08:22:38.000Z</time>
      </trkpt>
      <trkpt lat="47.536976" lon="1.796384">
        <ele>143</ele>
        <time>2022-03-17T08:22:39.000Z</time>
      </trkpt>
      <trkpt lat="47.536983" lon="1.7963746">
        <ele>144</ele>
        <time>2022-03-17T08:22:40.000Z</time>
      </trkpt>
      <trkpt lat="47.536995" lon="1.7963651">
        <ele>143</ele>
        <time>2022-03-17T08:22:41.000Z</time>
      </trkpt>
      <trkpt lat="47.537003" lon="1.7963566">
        <ele>143</ele>
        <time>2022-03-17T08:22:42.000Z</time>
      </trkpt>
      <trkpt lat="47.537014" lon="1.7963463">
        <ele>144</ele>
        <time>2022-03-17T08:22:43.000Z</time>
      </trkpt>
      <trkpt lat="47.537025" lon="1.7963376">
        <ele>144</ele>
        <time>2022-03-17T08:22:44.000Z</time>
      </trkpt>
      <trkpt lat="47.537037" lon="1.7963264">
        <ele>144</ele>
        <time>2022-03-17T08:22:45.000Z</time>
      </trkpt>
      <trkpt lat="47.53705" lon="1.7963156">
        <ele>144</ele>
        <time>2022-03-17T08:22:46.000Z</time>
      </trkpt>
      <trkpt lat="47.53706" lon="1.7963021">
        <ele>144</ele>
        <time>2022-03-17T08:22:47.000Z</time>
      </trkpt>
      <trkpt lat="47.537075" lon="1.7962896">
        <ele>145</ele>
        <time>2022-03-17T08:22:48.000Z</time>
      </trkpt>
      <trkpt lat="47.537086" lon="1.7962817">
        <ele>145</ele>
        <time>2022-03-17T08:22:49.000Z</time>
      </trkpt>
      <trkpt lat="47.537098" lon="1.7962713">
        <ele>145</ele>
        <time>2022-03-17T08:22:50.000Z</time>
      </trkpt>
      <trkpt lat="47.53711" lon="1.7962611">
        <ele>146</ele>
        <time>2022-03-17T08:22:51.000Z</time>
      </trkpt>
      <trkpt lat="47.53712" lon="1.7962505">
        <ele>146</ele>
        <time>2022-03-17T08:22:52.000Z</time>
      </trkpt>
      <trkpt lat="47.53713" lon="1.7962427">
        <ele>145</ele>
        <time>2022-03-17T08:22:53.000Z</time>
      </trkpt>
      <trkpt lat="47.53714" lon="1.7962337">
        <ele>145</ele>
        <time>2022-03-17T08:22:54.000Z</time>
      </trkpt>
      <trkpt lat="47.53715" lon="1.7962251">
        <ele>145</ele>
        <time>2022-03-17T08:22:55.000Z</time>
      </trkpt>
      <trkpt lat="47.537163" lon="1.7962136">
        <ele>145</ele>
        <time>2022-03-17T08:22:56.000Z</time>
      </trkpt>
      <trkpt lat="47.537174" lon="1.7962058">
        <ele>145</ele>
        <time>2022-03-17T08:22:57.000Z</time>
      </trkpt>
      <trkpt lat="47.53718" lon="1.796195">
        <ele>145</ele>
        <time>2022-03-17T08:22:58.000Z</time>
      </trkpt>
      <trkpt lat="47.537197" lon="1.7961851">
        <ele>145</ele>
        <time>2022-03-17T08:22:59.000Z</time>
      </trkpt>
      <trkpt lat="47.53721" lon="1.7961749">
        <ele>146</ele>
        <time>2022-03-17T08:23:00.000Z</time>
      </trkpt>
      <trkpt lat="47.53722" lon="1.7961653">
        <ele>146</ele>
        <time>2022-03-17T08:23:01.000Z</time>
      </trkpt>
      <trkpt lat="47.53723" lon="1.7961532">
        <ele>146</ele>
        <time>2022-03-17T08:23:02.000Z</time>
      </trkpt>
      <trkpt lat="47.537247" lon="1.7961417">
        <ele>147</ele>
        <time>2022-03-17T08:23:03.000Z</time>
      </trkpt>
      <trkpt lat="47.53726" lon="1.7961307">
        <ele>147</ele>
        <time>2022-03-17T08:23:04.000Z</time>
      </trkpt>
      <trkpt lat="47.53727" lon="1.7961193">
        <ele>146</ele>
        <time>2022-03-17T08:23:05.000Z</time>
      </trkpt>
      <trkpt lat="47.53728" lon="1.7961098">
        <ele>146</ele>
        <time>2022-03-17T08:23:06.000Z</time>
      </trkpt>
      <trkpt lat="47.537296" lon="1.7961015">
        <ele>146</ele>
        <time>2022-03-17T08:23:07.000Z</time>
      </trkpt>
      <trkpt lat="47.537308" lon="1.796089">
        <ele>146</ele>
        <time>2022-03-17T08:23:08.000Z</time>
      </trkpt>
      <trkpt lat="47.537315" lon="1.7960786">
        <ele>146</ele>
        <time>2022-03-17T08:23:09.000Z</time>
      </trkpt>
      <trkpt lat="47.53732" lon="1.7960675">
        <ele>147</ele>
        <time>2022-03-17T08:23:10.000Z</time>
      </trkpt>
      <trkpt lat="47.53733" lon="1.796056">
        <ele>147</ele>
        <time>2022-03-17T08:23:11.000Z</time>
      </trkpt>
      <trkpt lat="47.53734" lon="1.7960489">
        <ele>147</ele>
        <time>2022-03-17T08:23:12.000Z</time>
      </trkpt>
      <trkpt lat="47.53735" lon="1.7960463">
        <ele>147</ele>
        <time>2022-03-17T08:23:13.000Z</time>
      </trkpt>
      <trkpt lat="47.537357" lon="1.7960373">
        <ele>147</ele>
        <time>2022-03-17T08:23:14.000Z</time>
      </trkpt>
      <trkpt lat="47.537365" lon="1.7960287">
        <ele>147</ele>
        <time>2022-03-17T08:23:15.000Z</time>
      </trkpt>
      <trkpt lat="47.53738" lon="1.7960228">
        <ele>147</ele>
        <time>2022-03-17T08:23:16.000Z</time>
      </trkpt>
      <trkpt lat="47.53739" lon="1.7960136">
        <ele>147</ele>
        <time>2022-03-17T08:23:17.000Z</time>
      </trkpt>
      <trkpt lat="47.5374" lon="1.7960039">
        <ele>147</ele>
        <time>2022-03-17T08:23:18.000Z</time>
      </trkpt>
      <trkpt lat="47.53741" lon="1.795993">
        <ele>147</ele>
        <time>2022-03-17T08:23:19.000Z</time>
      </trkpt>
      <trkpt lat="47.537422" lon="1.7959825">
        <ele>147</ele>
        <time>2022-03-17T08:23:20.000Z</time>
      </trkpt>
      <trkpt lat="47.537434" lon="1.7959732">
        <ele>147</ele>
        <time>2022-03-17T08:23:21.000Z</time>
      </trkpt>
      <trkpt lat="47.53744" lon="1.7959632">
        <ele>147</ele>
        <time>2022-03-17T08:23:22.000Z</time>
      </trkpt>
      <trkpt lat="47.537453" lon="1.7959509">
        <ele>147</ele>
        <time>2022-03-17T08:23:23.000Z</time>
      </trkpt>
      <trkpt lat="47.537464" lon="1.7959406">
        <ele>147</ele>
        <time>2022-03-17T08:23:24.000Z</time>
      </trkpt>
      <trkpt lat="47.537476" lon="1.7959298">
        <ele>147</ele>
        <time>2022-03-17T08:23:25.000Z</time>
      </trkpt>
      <trkpt lat="47.537483" lon="1.7959199">
        <ele>147</ele>
        <time>2022-03-17T08:23:26.000Z</time>
      </trkpt>
      <trkpt lat="47.53749" lon="1.7959125">
        <ele>147</ele>
        <time>2022-03-17T08:23:27.000Z</time>
      </trkpt>
      <trkpt lat="47.5375" lon="1.7959055">
        <ele>147</ele>
        <time>2022-03-17T08:23:28.000Z</time>
      </trkpt>
      <trkpt lat="47.537506" lon="1.7958964">
        <ele>147</ele>
        <time>2022-03-17T08:23:29.000Z</time>
      </trkpt>
      <trkpt lat="47.537518" lon="1.7958887">
        <ele>146</ele>
        <time>2022-03-17T08:23:30.000Z</time>
      </trkpt>
      <trkpt lat="47.537525" lon="1.7958808">
        <ele>146</ele>
        <time>2022-03-17T08:23:31.000Z</time>
      </trkpt>
      <trkpt lat="47.537533" lon="1.7958707">
        <ele>146</ele>
        <time>2022-03-17T08:23:32.000Z</time>
      </trkpt>
      <trkpt lat="47.53754" lon="1.7958599">
        <ele>147</ele>
        <time>2022-03-17T08:23:33.000Z</time>
      </trkpt>
      <trkpt lat="47.53755" lon="1.7958496">
        <ele>147</ele>
        <time>2022-03-17T08:23:34.000Z</time>
      </trkpt>
      <trkpt lat="47.537563" lon="1.7958422">
        <ele>146</ele>
        <time>2022-03-17T08:23:35.000Z</time>
      </trkpt>
      <trkpt lat="47.53758" lon="1.7958374">
        <ele>146</ele>
        <time>2022-03-17T08:23:36.000Z</time>
      </trkpt>
      <trkpt lat="47.537594" lon="1.7958325">
        <ele>145</ele>
        <time>2022-03-17T08:23:37.000Z</time>
      </trkpt>
      <trkpt lat="47.5376" lon="1.795822">
        <ele>145</ele>
        <time>2022-03-17T08:23:38.000Z</time>
      </trkpt>
      <trkpt lat="47.53761" lon="1.795813">
        <ele>145</ele>
        <time>2022-03-17T08:23:39.000Z</time>
      </trkpt>
      <trkpt lat="47.53762" lon="1.7958022">
        <ele>145</ele>
        <time>2022-03-17T08:23:40.000Z</time>
      </trkpt>
      <trkpt lat="47.537632" lon="1.7957917">
        <ele>145</ele>
        <time>2022-03-17T08:23:41.000Z</time>
      </trkpt>
      <trkpt lat="47.537643" lon="1.7957805">
        <ele>144</ele>
        <time>2022-03-17T08:23:42.000Z</time>
      </trkpt>
      <trkpt lat="47.53765" lon="1.7957727">
        <ele>144</ele>
        <time>2022-03-17T08:23:43.000Z</time>
      </trkpt>
      <trkpt lat="47.537663" lon="1.7957625">
        <ele>144</ele>
        <time>2022-03-17T08:23:44.000Z</time>
      </trkpt>
      <trkpt lat="47.537678" lon="1.7957535">
        <ele>144</ele>
        <time>2022-03-17T08:23:45.000Z</time>
      </trkpt>
      <trkpt lat="47.53769" lon="1.7957416">
        <ele>144</ele>
        <time>2022-03-17T08:23:46.000Z</time>
      </trkpt>
      <trkpt lat="47.537697" lon="1.7957308">
        <ele>144</ele>
        <time>2022-03-17T08:23:47.000Z</time>
      </trkpt>
      <trkpt lat="47.53771" lon="1.7957202">
        <ele>144</ele>
        <time>2022-03-17T08:23:48.000Z</time>
      </trkpt>
      <trkpt lat="47.53772" lon="1.7957112">
        <ele>144</ele>
        <time>2022-03-17T08:23:49.000Z</time>
      </trkpt>
      <trkpt lat="47.537727" lon="1.7957001">
        <ele>144</ele>
        <time>2022-03-17T08:23:50.000Z</time>
      </trkpt>
      <trkpt lat="47.537735" lon="1.7956878">
        <ele>145</ele>
        <time>2022-03-17T08:23:51.000Z</time>
      </trkpt>
      <trkpt lat="47.537743" lon="1.7956775">
        <ele>144</ele>
        <time>2022-03-17T08:23:52.000Z</time>
      </trkpt>
      <trkpt lat="47.537754" lon="1.7956662">
        <ele>144</ele>
        <time>2022-03-17T08:23:53.000Z</time>
      </trkpt>
      <trkpt lat="47.537766" lon="1.795652">
        <ele>144</ele>
        <time>2022-03-17T08:23:54.000Z</time>
      </trkpt>
      <trkpt lat="47.537777" lon="1.7956396">
        <ele>144</ele>
        <time>2022-03-17T08:23:55.000Z</time>
      </trkpt>
      <trkpt lat="47.537792" lon="1.7956276">
        <ele>144</ele>
        <time>2022-03-17T08:23:56.000Z</time>
      </trkpt>
      <trkpt lat="47.5378" lon="1.7956166">
        <ele>144</ele>
        <time>2022-03-17T08:23:57.000Z</time>
      </trkpt>
      <trkpt lat="47.53781" lon="1.7956036">
        <ele>144</ele>
        <time>2022-03-17T08:23:58.000Z</time>
      </trkpt>
      <trkpt lat="47.537823" lon="1.7955925">
        <ele>145</ele>
        <time>2022-03-17T08:23:59.000Z</time>
      </trkpt>
      <trkpt lat="47.537834" lon="1.7955798">
        <ele>145</ele>
        <time>2022-03-17T08:24:00.000Z</time>
      </trkpt>
      <trkpt lat="47.537846" lon="1.7955686">
        <ele>145</ele>
        <time>2022-03-17T08:24:01.000Z</time>
      </trkpt>
      <trkpt lat="47.537857" lon="1.795557">
        <ele>145</ele>
        <time>2022-03-17T08:24:02.000Z</time>
      </trkpt>
      <trkpt lat="47.53787" lon="1.7955489">
        <ele>145</ele>
        <time>2022-03-17T08:24:03.000Z</time>
      </trkpt>
      <trkpt lat="47.53788" lon="1.7955375">
        <ele>145</ele>
        <time>2022-03-17T08:24:04.000Z</time>
      </trkpt>
      <trkpt lat="47.537888" lon="1.795525">
        <ele>146</ele>
        <time>2022-03-17T08:24:05.000Z</time>
      </trkpt>
      <trkpt lat="47.537895" lon="1.7955136">
        <ele>146</ele>
        <time>2022-03-17T08:24:06.000Z</time>
      </trkpt>
      <trkpt lat="47.537907" lon="1.795503">
        <ele>146</ele>
        <time>2022-03-17T08:24:07.000Z</time>
      </trkpt>
      <trkpt lat="47.537914" lon="1.7954898">
        <ele>146</ele>
        <time>2022-03-17T08:24:08.000Z</time>
      </trkpt>
      <trkpt lat="47.537926" lon="1.7954799">
        <ele>146</ele>
        <time>2022-03-17T08:24:09.000Z</time>
      </trkpt>
      <trkpt lat="47.537933" lon="1.7954695">
        <ele>145</ele>
        <time>2022-03-17T08:24:10.000Z</time>
      </trkpt>
      <trkpt lat="47.53794" lon="1.7954587">
        <ele>146</ele>
        <time>2022-03-17T08:24:11.000Z</time>
      </trkpt>
      <trkpt lat="47.537952" lon="1.7954459">
        <ele>146</ele>
        <time>2022-03-17T08:24:12.000Z</time>
      </trkpt>
      <trkpt lat="47.53796" lon="1.7954388">
        <ele>146</ele>
        <time>2022-03-17T08:24:13.000Z</time>
      </trkpt>
      <trkpt lat="47.53797" lon="1.7954271">
        <ele>146</ele>
        <time>2022-03-17T08:24:14.000Z</time>
      </trkpt>
      <trkpt lat="47.537983" lon="1.795413">
        <ele>147</ele>
        <time>2022-03-17T08:24:15.000Z</time>
      </trkpt>
      <trkpt lat="47.53799" lon="1.7954">
        <ele>146</ele>
        <time>2022-03-17T08:24:16.000Z</time>
      </trkpt>
      <trkpt lat="47.538" lon="1.795387">
        <ele>147</ele>
        <time>2022-03-17T08:24:17.000Z</time>
      </trkpt>
      <trkpt lat="47.53801" lon="1.7953755">
        <ele>147</ele>
        <time>2022-03-17T08:24:18.000Z</time>
      </trkpt>
      <trkpt lat="47.538017" lon="1.7953659">
        <ele>147</ele>
        <time>2022-03-17T08:24:19.000Z</time>
      </trkpt>
      <trkpt lat="47.538033" lon="1.7953534">
        <ele>147</ele>
        <time>2022-03-17T08:24:20.000Z</time>
      </trkpt>
      <trkpt lat="47.53804" lon="1.7953404">
        <ele>147</ele>
        <time>2022-03-17T08:24:21.000Z</time>
      </trkpt>
      <trkpt lat="47.538055" lon="1.7953297">
        <ele>147</ele>
        <time>2022-03-17T08:24:22.000Z</time>
      </trkpt>
      <trkpt lat="47.538063" lon="1.7953218">
        <ele>148</ele>
        <time>2022-03-17T08:24:23.000Z</time>
      </trkpt>
      <trkpt lat="47.538082" lon="1.7953013">
        <ele>148</ele>
        <time>2022-03-17T08:24:24.000Z</time>
      </trkpt>
      <trkpt lat="47.538082" lon="1.7953013">
        <ele>148</ele>
        <time>2022-03-17T08:24:24.000Z</time>
      </trkpt>
      <trkpt lat="47.53809" lon="1.7952871">
        <ele>148</ele>
        <time>2022-03-17T08:24:26.000Z</time>
      </trkpt>
      <trkpt lat="47.5381" lon="1.7952744">
        <ele>148</ele>
        <time>2022-03-17T08:24:27.000Z</time>
      </trkpt>
      <trkpt lat="47.53811" lon="1.7952619">
        <ele>148</ele>
        <time>2022-03-17T08:24:28.000Z</time>
      </trkpt>
      <trkpt lat="47.53812" lon="1.7952528">
        <ele>149</ele>
        <time>2022-03-17T08:24:29.000Z</time>
      </trkpt>
      <trkpt lat="47.53813" lon="1.7952428">
        <ele>149</ele>
        <time>2022-03-17T08:24:30.000Z</time>
      </trkpt>
      <trkpt lat="47.538143" lon="1.7952344">
        <ele>149</ele>
        <time>2022-03-17T08:24:31.000Z</time>
      </trkpt>
      <trkpt lat="47.538155" lon="1.7952255">
        <ele>149</ele>
        <time>2022-03-17T08:24:32.000Z</time>
      </trkpt>
      <trkpt lat="47.538162" lon="1.7952139">
        <ele>149</ele>
        <time>2022-03-17T08:24:33.000Z</time>
      </trkpt>
      <trkpt lat="47.53817" lon="1.7952014">
        <ele>149</ele>
        <time>2022-03-17T08:24:34.000Z</time>
      </trkpt>
      <trkpt lat="47.53818" lon="1.7951916">
        <ele>149</ele>
        <time>2022-03-17T08:24:35.000Z</time>
      </trkpt>
      <trkpt lat="47.538193" lon="1.7951812">
        <ele>149</ele>
        <time>2022-03-17T08:24:36.000Z</time>
      </trkpt>
      <trkpt lat="47.538204" lon="1.7951685">
        <ele>149</ele>
        <time>2022-03-17T08:24:37.000Z</time>
      </trkpt>
      <trkpt lat="47.538216" lon="1.7951564">
        <ele>149</ele>
        <time>2022-03-17T08:24:38.000Z</time>
      </trkpt>
      <trkpt lat="47.538223" lon="1.7951454">
        <ele>149</ele>
        <time>2022-03-17T08:24:39.000Z</time>
      </trkpt>
      <trkpt lat="47.53823" lon="1.7951378">
        <ele>148</ele>
        <time>2022-03-17T08:24:40.000Z</time>
      </trkpt>
      <trkpt lat="47.538242" lon="1.795125">
        <ele>148</ele>
        <time>2022-03-17T08:24:41.000Z</time>
      </trkpt>
      <trkpt lat="47.538254" lon="1.7951192">
        <ele>148</ele>
        <time>2022-03-17T08:24:42.000Z</time>
      </trkpt>
      <trkpt lat="47.538265" lon="1.7951081">
        <ele>148</ele>
        <time>2022-03-17T08:24:43.000Z</time>
      </trkpt>
      <trkpt lat="47.538277" lon="1.7950953">
        <ele>147</ele>
        <time>2022-03-17T08:24:44.000Z</time>
      </trkpt>
      <trkpt lat="47.53828" lon="1.795084">
        <ele>147</ele>
        <time>2022-03-17T08:24:45.000Z</time>
      </trkpt>
      <trkpt lat="47.538292" lon="1.7950722">
        <ele>147</ele>
        <time>2022-03-17T08:24:46.000Z</time>
      </trkpt>
      <trkpt lat="47.5383" lon="1.7950625">
        <ele>146</ele>
        <time>2022-03-17T08:24:47.000Z</time>
      </trkpt>
      <trkpt lat="47.53831" lon="1.7950525">
        <ele>147</ele>
        <time>2022-03-17T08:24:48.000Z</time>
      </trkpt>
      <trkpt lat="47.538322" lon="1.7950416">
        <ele>146</ele>
        <time>2022-03-17T08:24:49.000Z</time>
      </trkpt>
      <trkpt lat="47.53833" lon="1.795034">
        <ele>146</ele>
        <time>2022-03-17T08:24:50.000Z</time>
      </trkpt>
      <trkpt lat="47.53834" lon="1.7950214">
        <ele>146</ele>
        <time>2022-03-17T08:24:51.000Z</time>
      </trkpt>
      <trkpt lat="47.538353" lon="1.795013">
        <ele>146</ele>
        <time>2022-03-17T08:24:52.000Z</time>
      </trkpt>
      <trkpt lat="47.53836" lon="1.7950027">
        <ele>146</ele>
        <time>2022-03-17T08:24:53.000Z</time>
      </trkpt>
      <trkpt lat="47.538364" lon="1.7949907">
        <ele>146</ele>
        <time>2022-03-17T08:24:54.000Z</time>
      </trkpt>
      <trkpt lat="47.538376" lon="1.7949791">
        <ele>146</ele>
        <time>2022-03-17T08:24:55.000Z</time>
      </trkpt>
      <trkpt lat="47.538387" lon="1.794968">
        <ele>146</ele>
        <time>2022-03-17T08:24:56.000Z</time>
      </trkpt>
      <trkpt lat="47.538395" lon="1.794957">
        <ele>147</ele>
        <time>2022-03-17T08:24:57.000Z</time>
      </trkpt>
      <trkpt lat="47.538403" lon="1.7949456">
        <ele>147</ele>
        <time>2022-03-17T08:24:58.000Z</time>
      </trkpt>
      <trkpt lat="47.538414" lon="1.7949325">
        <ele>147</ele>
        <time>2022-03-17T08:24:59.000Z</time>
      </trkpt>
      <trkpt lat="47.53843" lon="1.7949169">
        <ele>147</ele>
        <time>2022-03-17T08:25:00.000Z</time>
      </trkpt>
      <trkpt lat="47.538437" lon="1.7949047">
        <ele>147</ele>
        <time>2022-03-17T08:25:01.000Z</time>
      </trkpt>
      <trkpt lat="47.53845" lon="1.7948946">
        <ele>147</ele>
        <time>2022-03-17T08:25:02.000Z</time>
      </trkpt>
      <trkpt lat="47.53846" lon="1.7948824">
        <ele>147</ele>
        <time>2022-03-17T08:25:03.000Z</time>
      </trkpt>
      <trkpt lat="47.53847" lon="1.7948714">
        <ele>147</ele>
        <time>2022-03-17T08:25:04.000Z</time>
      </trkpt>
      <trkpt lat="47.538483" lon="1.7948595">
        <ele>147</ele>
        <time>2022-03-17T08:25:05.000Z</time>
      </trkpt>
      <trkpt lat="47.53849" lon="1.7948507">
        <ele>147</ele>
        <time>2022-03-17T08:25:06.000Z</time>
      </trkpt>
      <trkpt lat="47.5385" lon="1.7948403">
        <ele>147</ele>
        <time>2022-03-17T08:25:07.000Z</time>
      </trkpt>
      <trkpt lat="47.538517" lon="1.7948306">
        <ele>146</ele>
        <time>2022-03-17T08:25:08.000Z</time>
      </trkpt>
      <trkpt lat="47.53854" lon="1.7948184">
        <ele>146</ele>
        <time>2022-03-17T08:25:09.000Z</time>
      </trkpt>
      <trkpt lat="47.53854" lon="1.7948184">
        <ele>146</ele>
        <time>2022-03-17T08:25:09.000Z</time>
      </trkpt>
      <trkpt lat="47.53855" lon="1.7948065">
        <ele>145</ele>
        <time>2022-03-17T08:25:11.000Z</time>
      </trkpt>
      <trkpt lat="47.538567" lon="1.794801">
        <ele>145</ele>
        <time>2022-03-17T08:25:12.000Z</time>
      </trkpt>
      <trkpt lat="47.538578" lon="1.7948003">
        <ele>145</ele>
        <time>2022-03-17T08:25:13.000Z</time>
      </trkpt>
      <trkpt lat="47.538586" lon="1.7947983">
        <ele>145</ele>
        <time>2022-03-17T08:25:14.000Z</time>
      </trkpt>
      <trkpt lat="47.538593" lon="1.7947937">
        <ele>145</ele>
        <time>2022-03-17T08:25:15.000Z</time>
      </trkpt>
      <trkpt lat="47.538605" lon="1.7947886">
        <ele>145</ele>
        <time>2022-03-17T08:25:16.000Z</time>
      </trkpt>
      <trkpt lat="47.538616" lon="1.7947874">
        <ele>145</ele>
        <time>2022-03-17T08:25:17.000Z</time>
      </trkpt>
      <trkpt lat="47.538628" lon="1.7947875">
        <ele>145</ele>
        <time>2022-03-17T08:25:18.000Z</time>
      </trkpt>
      <trkpt lat="47.538647" lon="1.7947835">
        <ele>144</ele>
        <time>2022-03-17T08:25:19.000Z</time>
      </trkpt>
      <trkpt lat="47.538647" lon="1.7947835">
        <ele>144</ele>
        <time>2022-03-17T08:25:19.000Z</time>
      </trkpt>
      <trkpt lat="47.538654" lon="1.7947913">
        <ele>144</ele>
        <time>2022-03-17T08:25:21.000Z</time>
      </trkpt>
      <trkpt lat="47.538666" lon="1.794789">
        <ele>144</ele>
        <time>2022-03-17T08:25:22.000Z</time>
      </trkpt>
      <trkpt lat="47.538677" lon="1.7947818">
        <ele>144</ele>
        <time>2022-03-17T08:25:23.000Z</time>
      </trkpt>
      <trkpt lat="47.53869" lon="1.7947787">
        <ele>144</ele>
        <time>2022-03-17T08:25:24.000Z</time>
      </trkpt>
      <trkpt lat="47.5387" lon="1.7947774">
        <ele>145</ele>
        <time>2022-03-17T08:25:25.000Z</time>
      </trkpt>
      <trkpt lat="47.538708" lon="1.7947755">
        <ele>145</ele>
        <time>2022-03-17T08:25:26.000Z</time>
      </trkpt>
      <trkpt lat="47.53871" lon="1.7947732">
        <ele>145</ele>
        <time>2022-03-17T08:25:27.000Z</time>
      </trkpt>
      <trkpt lat="47.538727" lon="1.7947739">
        <ele>146</ele>
        <time>2022-03-17T08:25:28.000Z</time>
      </trkpt>
      <trkpt lat="47.538746" lon="1.7947717">
        <ele>145</ele>
        <time>2022-03-17T08:25:29.000Z</time>
      </trkpt>
      <trkpt lat="47.538746" lon="1.7947717">
        <ele>145</ele>
        <time>2022-03-17T08:25:29.000Z</time>
      </trkpt>
      <trkpt lat="47.538757" lon="1.7947738">
        <ele>146</ele>
        <time>2022-03-17T08:25:31.000Z</time>
      </trkpt>
      <trkpt lat="47.538776" lon="1.7947642">
        <ele>146</ele>
        <time>2022-03-17T08:25:32.000Z</time>
      </trkpt>
      <trkpt lat="47.538784" lon="1.7947563">
        <ele>146</ele>
        <time>2022-03-17T08:25:33.000Z</time>
      </trkpt>
      <trkpt lat="47.538784" lon="1.7947563">
        <ele>146</ele>
        <time>2022-03-17T08:25:33.000Z</time>
      </trkpt>
      <trkpt lat="47.53879" lon="1.7947506">
        <ele>146</ele>
        <time>2022-03-17T08:25:35.000Z</time>
      </trkpt>
      <trkpt lat="47.538803" lon="1.7947501">
        <ele>146</ele>
        <time>2022-03-17T08:25:36.000Z</time>
      </trkpt>
      <trkpt lat="47.53881" lon="1.7947427">
        <ele>146</ele>
        <time>2022-03-17T08:25:37.000Z</time>
      </trkpt>
      <trkpt lat="47.53882" lon="1.7947391">
        <ele>146</ele>
        <time>2022-03-17T08:25:38.000Z</time>
      </trkpt>
      <trkpt lat="47.53883" lon="1.794732">
        <ele>145</ele>
        <time>2022-03-17T08:25:39.000Z</time>
      </trkpt>
      <trkpt lat="47.538837" lon="1.79473">
        <ele>145</ele>
        <time>2022-03-17T08:25:40.000Z</time>
      </trkpt>
      <trkpt lat="47.538845" lon="1.7947297">
        <ele>145</ele>
        <time>2022-03-17T08:25:41.000Z</time>
      </trkpt>
      <trkpt lat="47.53885" lon="1.7947272">
        <ele>145</ele>
        <time>2022-03-17T08:25:42.000Z</time>
      </trkpt>
      <trkpt lat="47.53886" lon="1.7947286">
        <ele>145</ele>
        <time>2022-03-17T08:25:43.000Z</time>
      </trkpt>
      <trkpt lat="47.53887" lon="1.7947289">
        <ele>145</ele>
        <time>2022-03-17T08:25:44.000Z</time>
      </trkpt>
      <trkpt lat="47.538883" lon="1.7947278">
        <ele>146</ele>
        <time>2022-03-17T08:25:45.000Z</time>
      </trkpt>
      <trkpt lat="47.538902" lon="1.7947301">
        <ele>145</ele>
        <time>2022-03-17T08:25:46.000Z</time>
      </trkpt>
      <trkpt lat="47.538902" lon="1.7947301">
        <ele>145</ele>
        <time>2022-03-17T08:25:46.000Z</time>
      </trkpt>
      <trkpt lat="47.538914" lon="1.7947255">
        <ele>145</ele>
        <time>2022-03-17T08:25:48.000Z</time>
      </trkpt>
      <trkpt lat="47.53893" lon="1.7947195">
        <ele>144</ele>
        <time>2022-03-17T08:25:49.000Z</time>
      </trkpt>
      <trkpt lat="47.53895" lon="1.7947179">
        <ele>144</ele>
        <time>2022-03-17T08:25:50.000Z</time>
      </trkpt>
      <trkpt lat="47.53895" lon="1.7947179">
        <ele>144</ele>
        <time>2022-03-17T08:25:50.000Z</time>
      </trkpt>
      <trkpt lat="47.538963" lon="1.7947203">
        <ele>144</ele>
        <time>2022-03-17T08:25:52.000Z</time>
      </trkpt>
      <trkpt lat="47.538982" lon="1.7947174">
        <ele>144</ele>
        <time>2022-03-17T08:25:53.000Z</time>
      </trkpt>
      <trkpt lat="47.538982" lon="1.7947174">
        <ele>144</ele>
        <time>2022-03-17T08:25:53.000Z</time>
      </trkpt>
      <trkpt lat="47.539005" lon="1.7947103">
        <ele>145</ele>
        <time>2022-03-17T08:25:55.000Z</time>
      </trkpt>
      <trkpt lat="47.53902" lon="1.7947111">
        <ele>145</ele>
        <time>2022-03-17T08:25:56.000Z</time>
      </trkpt>
      <trkpt lat="47.539032" lon="1.7947114">
        <ele>145</ele>
        <time>2022-03-17T08:25:57.000Z</time>
      </trkpt>
      <trkpt lat="47.53904" lon="1.7947088">
        <ele>146</ele>
        <time>2022-03-17T08:25:58.000Z</time>
      </trkpt>
      <trkpt lat="47.53905" lon="1.7947094">
        <ele>146</ele>
        <time>2022-03-17T08:25:59.000Z</time>
      </trkpt>
      <trkpt lat="47.539062" lon="1.7947145">
        <ele>146</ele>
        <time>2022-03-17T08:26:00.000Z</time>
      </trkpt>
      <trkpt lat="47.539074" lon="1.7947171">
        <ele>146</ele>
        <time>2022-03-17T08:26:01.000Z</time>
      </trkpt>
      <trkpt lat="47.539085" lon="1.7947164">
        <ele>147</ele>
        <time>2022-03-17T08:26:02.000Z</time>
      </trkpt>
      <trkpt lat="47.539097" lon="1.7947111">
        <ele>147</ele>
        <time>2022-03-17T08:26:03.000Z</time>
      </trkpt>
      <trkpt lat="47.53911" lon="1.7947097">
        <ele>147</ele>
        <time>2022-03-17T08:26:04.000Z</time>
      </trkpt>
      <trkpt lat="47.53912" lon="1.7947094">
        <ele>147</ele>
        <time>2022-03-17T08:26:05.000Z</time>
      </trkpt>
      <trkpt lat="47.53913" lon="1.794708">
        <ele>147</ele>
        <time>2022-03-17T08:26:06.000Z</time>
      </trkpt>
      <trkpt lat="47.539146" lon="1.7947079">
        <ele>147</ele>
        <time>2022-03-17T08:26:07.000Z</time>
      </trkpt>
      <trkpt lat="47.539154" lon="1.7947111">
        <ele>146</ele>
        <time>2022-03-17T08:26:08.000Z</time>
      </trkpt>
      <trkpt lat="47.53917" lon="1.7947099">
        <ele>146</ele>
        <time>2022-03-17T08:26:09.000Z</time>
      </trkpt>
      <trkpt lat="47.539177" lon="1.7947099">
        <ele>146</ele>
        <time>2022-03-17T08:26:10.000Z</time>
      </trkpt>
      <trkpt lat="47.53919" lon="1.7947093">
        <ele>147</ele>
        <time>2022-03-17T08:26:11.000Z</time>
      </trkpt>
      <trkpt lat="47.539204" lon="1.7947068">
        <ele>146</ele>
        <time>2022-03-17T08:26:12.000Z</time>
      </trkpt>
      <trkpt lat="47.539215" lon="1.7947063">
        <ele>146</ele>
        <time>2022-03-17T08:26:13.000Z</time>
      </trkpt>
      <trkpt lat="47.539227" lon="1.7947025">
        <ele>146</ele>
        <time>2022-03-17T08:26:14.000Z</time>
      </trkpt>
      <trkpt lat="47.539238" lon="1.7947009">
        <ele>146</ele>
        <time>2022-03-17T08:26:15.000Z</time>
      </trkpt>
      <trkpt lat="47.539253" lon="1.7946992">
        <ele>146</ele>
        <time>2022-03-17T08:26:16.000Z</time>
      </trkpt>
      <trkpt lat="47.53926" lon="1.7946961">
        <ele>146</ele>
        <time>2022-03-17T08:26:17.000Z</time>
      </trkpt>
      <trkpt lat="47.53927" lon="1.7946893">
        <ele>145</ele>
        <time>2022-03-17T08:26:18.000Z</time>
      </trkpt>
      <trkpt lat="47.53928" lon="1.7946883">
        <ele>146</ele>
        <time>2022-03-17T08:26:19.000Z</time>
      </trkpt>
      <trkpt lat="47.539295" lon="1.794687">
        <ele>146</ele>
        <time>2022-03-17T08:26:20.000Z</time>
      </trkpt>
      <trkpt lat="47.539307" lon="1.794687">
        <ele>146</ele>
        <time>2022-03-17T08:26:21.000Z</time>
      </trkpt>
      <trkpt lat="47.539318" lon="1.7946857">
        <ele>146</ele>
        <time>2022-03-17T08:26:22.000Z</time>
      </trkpt>
      <trkpt lat="47.53933" lon="1.7946842">
        <ele>146</ele>
        <time>2022-03-17T08:26:23.000Z</time>
      </trkpt>
      <trkpt lat="47.539345" lon="1.7946856">
        <ele>146</ele>
        <time>2022-03-17T08:26:24.000Z</time>
      </trkpt>
      <trkpt lat="47.53936" lon="1.7946875">
        <ele>146</ele>
        <time>2022-03-17T08:26:25.000Z</time>
      </trkpt>
      <trkpt lat="47.539368" lon="1.7946852">
        <ele>146</ele>
        <time>2022-03-17T08:26:26.000Z</time>
      </trkpt>
      <trkpt lat="47.53938" lon="1.7946825">
        <ele>146</ele>
        <time>2022-03-17T08:26:27.000Z</time>
      </trkpt>
      <trkpt lat="47.53939" lon="1.7946817">
        <ele>146</ele>
        <time>2022-03-17T08:26:28.000Z</time>
      </trkpt>
      <trkpt lat="47.539402" lon="1.7946812">
        <ele>147</ele>
        <time>2022-03-17T08:26:29.000Z</time>
      </trkpt>
      <trkpt lat="47.539417" lon="1.7946837">
        <ele>147</ele>
        <time>2022-03-17T08:26:30.000Z</time>
      </trkpt>
      <trkpt lat="47.539433" lon="1.794687">
        <ele>147</ele>
        <time>2022-03-17T08:26:31.000Z</time>
      </trkpt>
      <trkpt lat="47.539444" lon="1.794688">
        <ele>147</ele>
        <time>2022-03-17T08:26:32.000Z</time>
      </trkpt>
      <trkpt lat="47.53946" lon="1.794689">
        <ele>147</ele>
        <time>2022-03-17T08:26:33.000Z</time>
      </trkpt>
      <trkpt lat="47.53947" lon="1.7946851">
        <ele>147</ele>
        <time>2022-03-17T08:26:34.000Z</time>
      </trkpt>
      <trkpt lat="47.539486" lon="1.7946825">
        <ele>147</ele>
        <time>2022-03-17T08:26:35.000Z</time>
      </trkpt>
      <trkpt lat="47.539497" lon="1.7946768">
        <ele>146</ele>
        <time>2022-03-17T08:26:36.000Z</time>
      </trkpt>
      <trkpt lat="47.539513" lon="1.794675">
        <ele>146</ele>
        <time>2022-03-17T08:26:37.000Z</time>
      </trkpt>
      <trkpt lat="47.539528" lon="1.794675">
        <ele>146</ele>
        <time>2022-03-17T08:26:38.000Z</time>
      </trkpt>
      <trkpt lat="47.539543" lon="1.7946712">
        <ele>146</ele>
        <time>2022-03-17T08:26:39.000Z</time>
      </trkpt>
      <trkpt lat="47.539555" lon="1.794666">
        <ele>146</ele>
        <time>2022-03-17T08:26:40.000Z</time>
      </trkpt>
      <trkpt lat="47.53957" lon="1.7946672">
        <ele>146</ele>
        <time>2022-03-17T08:26:41.000Z</time>
      </trkpt>
      <trkpt lat="47.539577" lon="1.7946631">
        <ele>146</ele>
        <time>2022-03-17T08:26:42.000Z</time>
      </trkpt>
      <trkpt lat="47.539585" lon="1.7946622">
        <ele>146</ele>
        <time>2022-03-17T08:26:43.000Z</time>
      </trkpt>
      <trkpt lat="47.5396" lon="1.7946656">
        <ele>146</ele>
        <time>2022-03-17T08:26:44.000Z</time>
      </trkpt>
      <trkpt lat="47.539608" lon="1.7946643">
        <ele>146</ele>
        <time>2022-03-17T08:26:45.000Z</time>
      </trkpt>
      <trkpt lat="47.53962" lon="1.7946622">
        <ele>146</ele>
        <time>2022-03-17T08:26:46.000Z</time>
      </trkpt>
      <trkpt lat="47.539627" lon="1.7946607">
        <ele>146</ele>
        <time>2022-03-17T08:26:47.000Z</time>
      </trkpt>
      <trkpt lat="47.539635" lon="1.7946678">
        <ele>146</ele>
        <time>2022-03-17T08:26:48.000Z</time>
      </trkpt>
      <trkpt lat="47.539646" lon="1.7946749">
        <ele>146</ele>
        <time>2022-03-17T08:26:49.000Z</time>
      </trkpt>
      <trkpt lat="47.539658" lon="1.7946773">
        <ele>146</ele>
        <time>2022-03-17T08:26:50.000Z</time>
      </trkpt>
      <trkpt lat="47.53967" lon="1.7946738">
        <ele>146</ele>
        <time>2022-03-17T08:26:51.000Z</time>
      </trkpt>
      <trkpt lat="47.539677" lon="1.7946724">
        <ele>146</ele>
        <time>2022-03-17T08:26:52.000Z</time>
      </trkpt>
      <trkpt lat="47.53969" lon="1.7946684">
        <ele>147</ele>
        <time>2022-03-17T08:26:53.000Z</time>
      </trkpt>
      <trkpt lat="47.539696" lon="1.7946656">
        <ele>147</ele>
        <time>2022-03-17T08:26:54.000Z</time>
      </trkpt>
      <trkpt lat="47.539707" lon="1.7946634">
        <ele>147</ele>
        <time>2022-03-17T08:26:55.000Z</time>
      </trkpt>
      <trkpt lat="47.53972" lon="1.7946649">
        <ele>147</ele>
        <time>2022-03-17T08:26:56.000Z</time>
      </trkpt>
      <trkpt lat="47.53973" lon="1.7946626">
        <ele>147</ele>
        <time>2022-03-17T08:26:57.000Z</time>
      </trkpt>
      <trkpt lat="47.53974" lon="1.7946637">
        <ele>147</ele>
        <time>2022-03-17T08:26:58.000Z</time>
      </trkpt>
      <trkpt lat="47.539753" lon="1.7946625">
        <ele>147</ele>
        <time>2022-03-17T08:26:59.000Z</time>
      </trkpt>
      <trkpt lat="47.53976" lon="1.794662">
        <ele>147</ele>
        <time>2022-03-17T08:27:00.000Z</time>
      </trkpt>
      <trkpt lat="47.53977" lon="1.7946563">
        <ele>147</ele>
        <time>2022-03-17T08:27:01.000Z</time>
      </trkpt>
      <trkpt lat="47.539783" lon="1.7946527">
        <ele>147</ele>
        <time>2022-03-17T08:27:02.000Z</time>
      </trkpt>
      <trkpt lat="47.53979" lon="1.7946467">
        <ele>147</ele>
        <time>2022-03-17T08:27:03.000Z</time>
      </trkpt>
      <trkpt lat="47.539803" lon="1.794642">
        <ele>147</ele>
        <time>2022-03-17T08:27:04.000Z</time>
      </trkpt>
      <trkpt lat="47.539818" lon="1.7946342">
        <ele>147</ele>
        <time>2022-03-17T08:27:05.000Z</time>
      </trkpt>
      <trkpt lat="47.539833" lon="1.7946271">
        <ele>146</ele>
        <time>2022-03-17T08:27:06.000Z</time>
      </trkpt>
      <trkpt lat="47.53985" lon="1.7946237">
        <ele>147</ele>
        <time>2022-03-17T08:27:07.000Z</time>
      </trkpt>
      <trkpt lat="47.539864" lon="1.7946253">
        <ele>146</ele>
        <time>2022-03-17T08:27:08.000Z</time>
      </trkpt>
      <trkpt lat="47.53988" lon="1.7946187">
        <ele>146</ele>
        <time>2022-03-17T08:27:09.000Z</time>
      </trkpt>
      <trkpt lat="47.53989" lon="1.7946142">
        <ele>146</ele>
        <time>2022-03-17T08:27:10.000Z</time>
      </trkpt>
      <trkpt lat="47.539906" lon="1.7946085">
        <ele>146</ele>
        <time>2022-03-17T08:27:11.000Z</time>
      </trkpt>
      <trkpt lat="47.539917" lon="1.7946001">
        <ele>146</ele>
        <time>2022-03-17T08:27:12.000Z</time>
      </trkpt>
      <trkpt lat="47.539932" lon="1.7945937">
        <ele>146</ele>
        <time>2022-03-17T08:27:13.000Z</time>
      </trkpt>
      <trkpt lat="47.539944" lon="1.7945918">
        <ele>146</ele>
        <time>2022-03-17T08:27:14.000Z</time>
      </trkpt>
      <trkpt lat="47.539955" lon="1.7945838">
        <ele>147</ele>
        <time>2022-03-17T08:27:15.000Z</time>
      </trkpt>
      <trkpt lat="47.539963" lon="1.7945791">
        <ele>147</ele>
        <time>2022-03-17T08:27:16.000Z</time>
      </trkpt>
      <trkpt lat="47.539978" lon="1.7945716">
        <ele>148</ele>
        <time>2022-03-17T08:27:17.000Z</time>
      </trkpt>
      <trkpt lat="47.53999" lon="1.7945688">
        <ele>148</ele>
        <time>2022-03-17T08:27:18.000Z</time>
      </trkpt>
      <trkpt lat="47.540005" lon="1.7945658">
        <ele>148</ele>
        <time>2022-03-17T08:27:19.000Z</time>
      </trkpt>
      <trkpt lat="47.540016" lon="1.7945577">
        <ele>147</ele>
        <time>2022-03-17T08:27:20.000Z</time>
      </trkpt>
      <trkpt lat="47.54003" lon="1.7945532">
        <ele>147</ele>
        <time>2022-03-17T08:27:21.000Z</time>
      </trkpt>
      <trkpt lat="47.54004" lon="1.794545">
        <ele>146</ele>
        <time>2022-03-17T08:27:22.000Z</time>
      </trkpt>
      <trkpt lat="47.540047" lon="1.7945395">
        <ele>146</ele>
        <time>2022-03-17T08:27:23.000Z</time>
      </trkpt>
      <trkpt lat="47.54006" lon="1.7945341">
        <ele>147</ele>
        <time>2022-03-17T08:27:24.000Z</time>
      </trkpt>
      <trkpt lat="47.540073" lon="1.7945315">
        <ele>147</ele>
        <time>2022-03-17T08:27:25.000Z</time>
      </trkpt>
      <trkpt lat="47.540085" lon="1.794528">
        <ele>147</ele>
        <time>2022-03-17T08:27:26.000Z</time>
      </trkpt>
      <trkpt lat="47.540092" lon="1.7945253">
        <ele>147</ele>
        <time>2022-03-17T08:27:27.000Z</time>
      </trkpt>
      <trkpt lat="47.540108" lon="1.794519">
        <ele>147</ele>
        <time>2022-03-17T08:27:28.000Z</time>
      </trkpt>
      <trkpt lat="47.540115" lon="1.7945137">
        <ele>147</ele>
        <time>2022-03-17T08:27:29.000Z</time>
      </trkpt>
      <trkpt lat="47.54013" lon="1.7945076">
        <ele>147</ele>
        <time>2022-03-17T08:27:30.000Z</time>
      </trkpt>
      <trkpt lat="47.54013" lon="1.7945076">
        <ele>147</ele>
        <time>2022-03-17T08:27:30.000Z</time>
      </trkpt>
      <trkpt lat="47.540154" lon="1.7944967">
        <ele>146</ele>
        <time>2022-03-17T08:27:32.000Z</time>
      </trkpt>
      <trkpt lat="47.540165" lon="1.7944895">
        <ele>146</ele>
        <time>2022-03-17T08:27:33.000Z</time>
      </trkpt>
      <trkpt lat="47.540176" lon="1.794486">
        <ele>146</ele>
        <time>2022-03-17T08:27:34.000Z</time>
      </trkpt>
      <trkpt lat="47.54019" lon="1.7944856">
        <ele>146</ele>
        <time>2022-03-17T08:27:35.000Z</time>
      </trkpt>
      <trkpt lat="47.540207" lon="1.7944807">
        <ele>147</ele>
        <time>2022-03-17T08:27:36.000Z</time>
      </trkpt>
      <trkpt lat="47.54022" lon="1.7944813">
        <ele>147</ele>
        <time>2022-03-17T08:27:37.000Z</time>
      </trkpt>
      <trkpt lat="47.54023" lon="1.7944818">
        <ele>147</ele>
        <time>2022-03-17T08:27:38.000Z</time>
      </trkpt>
      <trkpt lat="47.54024" lon="1.794481">
        <ele>147</ele>
        <time>2022-03-17T08:27:39.000Z</time>
      </trkpt>
      <trkpt lat="47.540253" lon="1.7944803">
        <ele>147</ele>
        <time>2022-03-17T08:27:40.000Z</time>
      </trkpt>
      <trkpt lat="47.540268" lon="1.794478">
        <ele>148</ele>
        <time>2022-03-17T08:27:41.000Z</time>
      </trkpt>
      <trkpt lat="47.54028" lon="1.7944716">
        <ele>148</ele>
        <time>2022-03-17T08:27:42.000Z</time>
      </trkpt>
      <trkpt lat="47.54029" lon="1.7944682">
        <ele>148</ele>
        <time>2022-03-17T08:27:43.000Z</time>
      </trkpt>
      <trkpt lat="47.540302" lon="1.7944663">
        <ele>148</ele>
        <time>2022-03-17T08:27:44.000Z</time>
      </trkpt>
      <trkpt lat="47.540314" lon="1.7944642">
        <ele>148</ele>
        <time>2022-03-17T08:27:45.000Z</time>
      </trkpt>
      <trkpt lat="47.54033" lon="1.7944611">
        <ele>148</ele>
        <time>2022-03-17T08:27:46.000Z</time>
      </trkpt>
      <trkpt lat="47.54034" lon="1.7944648">
        <ele>148</ele>
        <time>2022-03-17T08:27:47.000Z</time>
      </trkpt>
      <trkpt lat="47.54035" lon="1.7944671">
        <ele>148</ele>
        <time>2022-03-17T08:27:48.000Z</time>
      </trkpt>
      <trkpt lat="47.540363" lon="1.794466">
        <ele>149</ele>
        <time>2022-03-17T08:27:49.000Z</time>
      </trkpt>
      <trkpt lat="47.54038" lon="1.7944659">
        <ele>149</ele>
        <time>2022-03-17T08:27:50.000Z</time>
      </trkpt>
      <trkpt lat="47.540382" lon="1.7944678">
        <ele>149</ele>
        <time>2022-03-17T08:27:51.000Z</time>
      </trkpt>
      <trkpt lat="47.540394" lon="1.794466">
        <ele>149</ele>
        <time>2022-03-17T08:27:52.000Z</time>
      </trkpt>
      <trkpt lat="47.5404" lon="1.7944672">
        <ele>149</ele>
        <time>2022-03-17T08:27:53.000Z</time>
      </trkpt>
      <trkpt lat="47.54041" lon="1.7944689">
        <ele>150</ele>
        <time>2022-03-17T08:27:54.000Z</time>
      </trkpt>
      <trkpt lat="47.540424" lon="1.7944705">
        <ele>150</ele>
        <time>2022-03-17T08:27:55.000Z</time>
      </trkpt>
      <trkpt lat="47.54044" lon="1.7944728">
        <ele>150</ele>
        <time>2022-03-17T08:27:56.000Z</time>
      </trkpt>
      <trkpt lat="47.54045" lon="1.7944759">
        <ele>149</ele>
        <time>2022-03-17T08:27:57.000Z</time>
      </trkpt>
      <trkpt lat="47.540462" lon="1.7944787">
        <ele>149</ele>
        <time>2022-03-17T08:27:58.000Z</time>
      </trkpt>
      <trkpt lat="47.540474" lon="1.7944798">
        <ele>149</ele>
        <time>2022-03-17T08:27:59.000Z</time>
      </trkpt>
      <trkpt lat="47.540485" lon="1.7944785">
        <ele>149</ele>
        <time>2022-03-17T08:28:00.000Z</time>
      </trkpt>
      <trkpt lat="47.5405" lon="1.7944778">
        <ele>149</ele>
        <time>2022-03-17T08:28:01.000Z</time>
      </trkpt>
      <trkpt lat="47.540512" lon="1.7944798">
        <ele>150</ele>
        <time>2022-03-17T08:28:02.000Z</time>
      </trkpt>
      <trkpt lat="47.540524" lon="1.7944816">
        <ele>149</ele>
        <time>2022-03-17T08:28:03.000Z</time>
      </trkpt>
      <trkpt lat="47.540535" lon="1.7944827">
        <ele>150</ele>
        <time>2022-03-17T08:28:04.000Z</time>
      </trkpt>
      <trkpt lat="47.54055" lon="1.7944813">
        <ele>150</ele>
        <time>2022-03-17T08:28:05.000Z</time>
      </trkpt>
      <trkpt lat="47.540558" lon="1.7944845">
        <ele>150</ele>
        <time>2022-03-17T08:28:06.000Z</time>
      </trkpt>
      <trkpt lat="47.54057" lon="1.7944862">
        <ele>150</ele>
        <time>2022-03-17T08:28:07.000Z</time>
      </trkpt>
      <trkpt lat="47.540585" lon="1.7944885">
        <ele>150</ele>
        <time>2022-03-17T08:28:08.000Z</time>
      </trkpt>
      <trkpt lat="47.540596" lon="1.7944872">
        <ele>151</ele>
        <time>2022-03-17T08:28:09.000Z</time>
      </trkpt>
      <trkpt lat="47.540607" lon="1.7944846">
        <ele>151</ele>
        <time>2022-03-17T08:28:10.000Z</time>
      </trkpt>
      <trkpt lat="47.54062" lon="1.794487">
        <ele>151</ele>
        <time>2022-03-17T08:28:11.000Z</time>
      </trkpt>
      <trkpt lat="47.540634" lon="1.7944887">
        <ele>151</ele>
        <time>2022-03-17T08:28:12.000Z</time>
      </trkpt>
      <trkpt lat="47.540646" lon="1.7944881">
        <ele>150</ele>
        <time>2022-03-17T08:28:13.000Z</time>
      </trkpt>
      <trkpt lat="47.540657" lon="1.7944871">
        <ele>150</ele>
        <time>2022-03-17T08:28:14.000Z</time>
      </trkpt>
      <trkpt lat="47.540672" lon="1.7944881">
        <ele>150</ele>
        <time>2022-03-17T08:28:15.000Z</time>
      </trkpt>
      <trkpt lat="47.540688" lon="1.7944895">
        <ele>150</ele>
        <time>2022-03-17T08:28:16.000Z</time>
      </trkpt>
      <trkpt lat="47.5407" lon="1.794493">
        <ele>151</ele>
        <time>2022-03-17T08:28:17.000Z</time>
      </trkpt>
      <trkpt lat="47.54071" lon="1.7944957">
        <ele>151</ele>
        <time>2022-03-17T08:28:18.000Z</time>
      </trkpt>
      <trkpt lat="47.54072" lon="1.794501">
        <ele>151</ele>
        <time>2022-03-17T08:28:19.000Z</time>
      </trkpt>
      <trkpt lat="47.540733" lon="1.7944989">
        <ele>151</ele>
        <time>2022-03-17T08:28:20.000Z</time>
      </trkpt>
      <trkpt lat="47.54075" lon="1.7945006">
        <ele>151</ele>
        <time>2022-03-17T08:28:21.000Z</time>
      </trkpt>
      <trkpt lat="47.540764" lon="1.794498">
        <ele>151</ele>
        <time>2022-03-17T08:28:22.000Z</time>
      </trkpt>
      <trkpt lat="47.540775" lon="1.7944928">
        <ele>151</ele>
        <time>2022-03-17T08:28:23.000Z</time>
      </trkpt>
      <trkpt lat="47.540787" lon="1.7944844">
        <ele>151</ele>
        <time>2022-03-17T08:28:24.000Z</time>
      </trkpt>
      <trkpt lat="47.5408" lon="1.7944858">
        <ele>151</ele>
        <time>2022-03-17T08:28:25.000Z</time>
      </trkpt>
      <trkpt lat="47.540813" lon="1.7944844">
        <ele>151</ele>
        <time>2022-03-17T08:28:26.000Z</time>
      </trkpt>
      <trkpt lat="47.540825" lon="1.794483">
        <ele>151</ele>
        <time>2022-03-17T08:28:27.000Z</time>
      </trkpt>
      <trkpt lat="47.540836" lon="1.794484">
        <ele>151</ele>
        <time>2022-03-17T08:28:28.000Z</time>
      </trkpt>
      <trkpt lat="47.54085" lon="1.7944831">
        <ele>152</ele>
        <time>2022-03-17T08:28:29.000Z</time>
      </trkpt>
      <trkpt lat="47.540863" lon="1.7944826">
        <ele>151</ele>
        <time>2022-03-17T08:28:30.000Z</time>
      </trkpt>
      <trkpt lat="47.54088" lon="1.7944765">
        <ele>151</ele>
        <time>2022-03-17T08:28:31.000Z</time>
      </trkpt>
      <trkpt lat="47.54089" lon="1.7944765">
        <ele>151</ele>
        <time>2022-03-17T08:28:32.000Z</time>
      </trkpt>
      <trkpt lat="47.540897" lon="1.7944735">
        <ele>151</ele>
        <time>2022-03-17T08:28:33.000Z</time>
      </trkpt>
      <trkpt lat="47.54091" lon="1.7944747">
        <ele>151</ele>
        <time>2022-03-17T08:28:34.000Z</time>
      </trkpt>
      <trkpt lat="47.54092" lon="1.7944801">
        <ele>150</ele>
        <time>2022-03-17T08:28:35.000Z</time>
      </trkpt>
      <trkpt lat="47.54093" lon="1.7944818">
        <ele>151</ele>
        <time>2022-03-17T08:28:36.000Z</time>
      </trkpt>
      <trkpt lat="47.540943" lon="1.7944834">
        <ele>150</ele>
        <time>2022-03-17T08:28:37.000Z</time>
      </trkpt>
      <trkpt lat="47.540955" lon="1.7944872">
        <ele>150</ele>
        <time>2022-03-17T08:28:38.000Z</time>
      </trkpt>
      <trkpt lat="47.54097" lon="1.7944918">
        <ele>150</ele>
        <time>2022-03-17T08:28:39.000Z</time>
      </trkpt>
      <trkpt lat="47.54098" lon="1.794498">
        <ele>150</ele>
        <time>2022-03-17T08:28:40.000Z</time>
      </trkpt>
      <trkpt lat="47.540993" lon="1.7945044">
        <ele>151</ele>
        <time>2022-03-17T08:28:41.000Z</time>
      </trkpt>
      <trkpt lat="47.541004" lon="1.7945108">
        <ele>150</ele>
        <time>2022-03-17T08:28:42.000Z</time>
      </trkpt>
      <trkpt lat="47.54101" lon="1.7945137">
        <ele>150</ele>
        <time>2022-03-17T08:28:43.000Z</time>
      </trkpt>
      <trkpt lat="47.541023" lon="1.7945137">
        <ele>151</ele>
        <time>2022-03-17T08:28:44.000Z</time>
      </trkpt>
      <trkpt lat="47.541035" lon="1.7945172">
        <ele>151</ele>
        <time>2022-03-17T08:28:45.000Z</time>
      </trkpt>
      <trkpt lat="47.541046" lon="1.7945168">
        <ele>151</ele>
        <time>2022-03-17T08:28:46.000Z</time>
      </trkpt>
      <trkpt lat="47.541058" lon="1.7945188">
        <ele>151</ele>
        <time>2022-03-17T08:28:47.000Z</time>
      </trkpt>
      <trkpt lat="47.54107" lon="1.7945174">
        <ele>152</ele>
        <time>2022-03-17T08:28:48.000Z</time>
      </trkpt>
      <trkpt lat="47.54108" lon="1.7945166">
        <ele>152</ele>
        <time>2022-03-17T08:28:49.000Z</time>
      </trkpt>
      <trkpt lat="47.541092" lon="1.7945162">
        <ele>152</ele>
        <time>2022-03-17T08:28:50.000Z</time>
      </trkpt>
      <trkpt lat="47.541103" lon="1.7945145">
        <ele>152</ele>
        <time>2022-03-17T08:28:51.000Z</time>
      </trkpt>
      <trkpt lat="47.541115" lon="1.7945206">
        <ele>152</ele>
        <time>2022-03-17T08:28:52.000Z</time>
      </trkpt>
      <trkpt lat="47.541126" lon="1.7945218">
        <ele>152</ele>
        <time>2022-03-17T08:28:53.000Z</time>
      </trkpt>
      <trkpt lat="47.541134" lon="1.7945242">
        <ele>152</ele>
        <time>2022-03-17T08:28:54.000Z</time>
      </trkpt>
      <trkpt lat="47.541145" lon="1.7945236">
        <ele>152</ele>
        <time>2022-03-17T08:28:55.000Z</time>
      </trkpt>
      <trkpt lat="47.541153" lon="1.7945212">
        <ele>152</ele>
        <time>2022-03-17T08:28:56.000Z</time>
      </trkpt>
      <trkpt lat="47.541164" lon="1.794516">
        <ele>152</ele>
        <time>2022-03-17T08:28:57.000Z</time>
      </trkpt>
      <trkpt lat="47.541176" lon="1.7945123">
        <ele>152</ele>
        <time>2022-03-17T08:28:58.000Z</time>
      </trkpt>
      <trkpt lat="47.54119" lon="1.7945057">
        <ele>152</ele>
        <time>2022-03-17T08:28:59.000Z</time>
      </trkpt>
      <trkpt lat="47.541206" lon="1.7944984">
        <ele>153</ele>
        <time>2022-03-17T08:29:00.000Z</time>
      </trkpt>
      <trkpt lat="47.541218" lon="1.7944933">
        <ele>153</ele>
        <time>2022-03-17T08:29:01.000Z</time>
      </trkpt>
      <trkpt lat="47.541233" lon="1.794487">
        <ele>153</ele>
        <time>2022-03-17T08:29:02.000Z</time>
      </trkpt>
      <trkpt lat="47.541245" lon="1.7944745">
        <ele>153</ele>
        <time>2022-03-17T08:29:03.000Z</time>
      </trkpt>
      <trkpt lat="47.541256" lon="1.7944643">
        <ele>153</ele>
        <time>2022-03-17T08:29:04.000Z</time>
      </trkpt>
      <trkpt lat="47.541267" lon="1.7944539">
        <ele>153</ele>
        <time>2022-03-17T08:29:05.000Z</time>
      </trkpt>
      <trkpt lat="47.54128" lon="1.7944462">
        <ele>154</ele>
        <time>2022-03-17T08:29:06.000Z</time>
      </trkpt>
      <trkpt lat="47.541286" lon="1.7944351">
        <ele>155</ele>
        <time>2022-03-17T08:29:07.000Z</time>
      </trkpt>
      <trkpt lat="47.541298" lon="1.7944225">
        <ele>155</ele>
        <time>2022-03-17T08:29:08.000Z</time>
      </trkpt>
      <trkpt lat="47.54131" lon="1.794406">
        <ele>154</ele>
        <time>2022-03-17T08:29:09.000Z</time>
      </trkpt>
      <trkpt lat="47.54132" lon="1.7943975">
        <ele>155</ele>
        <time>2022-03-17T08:29:10.000Z</time>
      </trkpt>
      <trkpt lat="47.54133" lon="1.7943906">
        <ele>154</ele>
        <time>2022-03-17T08:29:11.000Z</time>
      </trkpt>
      <trkpt lat="47.541336" lon="1.7943808">
        <ele>154</ele>
        <time>2022-03-17T08:29:12.000Z</time>
      </trkpt>
      <trkpt lat="47.541344" lon="1.7943693">
        <ele>153</ele>
        <time>2022-03-17T08:29:13.000Z</time>
      </trkpt>
      <trkpt lat="47.541355" lon="1.7943572">
        <ele>153</ele>
        <time>2022-03-17T08:29:14.000Z</time>
      </trkpt>
      <trkpt lat="47.541363" lon="1.7943451">
        <ele>153</ele>
        <time>2022-03-17T08:29:15.000Z</time>
      </trkpt>
      <trkpt lat="47.541374" lon="1.7943321">
        <ele>152</ele>
        <time>2022-03-17T08:29:16.000Z</time>
      </trkpt>
      <trkpt lat="47.54139" lon="1.7943223">
        <ele>152</ele>
        <time>2022-03-17T08:29:17.000Z</time>
      </trkpt>
      <trkpt lat="47.541397" lon="1.794308">
        <ele>152</ele>
        <time>2022-03-17T08:29:18.000Z</time>
      </trkpt>
      <trkpt lat="47.54141" lon="1.7942985">
        <ele>152</ele>
        <time>2022-03-17T08:29:19.000Z</time>
      </trkpt>
      <trkpt lat="47.541416" lon="1.7942859">
        <ele>152</ele>
        <time>2022-03-17T08:29:20.000Z</time>
      </trkpt>
      <trkpt lat="47.541428" lon="1.7942753">
        <ele>152</ele>
        <time>2022-03-17T08:29:21.000Z</time>
      </trkpt>
      <trkpt lat="47.54144" lon="1.794268">
        <ele>152</ele>
        <time>2022-03-17T08:29:22.000Z</time>
      </trkpt>
      <trkpt lat="47.54145" lon="1.794256">
        <ele>151</ele>
        <time>2022-03-17T08:29:23.000Z</time>
      </trkpt>
      <trkpt lat="47.54146" lon="1.7942456">
        <ele>151</ele>
        <time>2022-03-17T08:29:24.000Z</time>
      </trkpt>
      <trkpt lat="47.541466" lon="1.7942332">
        <ele>151</ele>
        <time>2022-03-17T08:29:25.000Z</time>
      </trkpt>
      <trkpt lat="47.541473" lon="1.7942253">
        <ele>151</ele>
        <time>2022-03-17T08:29:26.000Z</time>
      </trkpt>
      <trkpt lat="47.541485" lon="1.7942177">
        <ele>150</ele>
        <time>2022-03-17T08:29:27.000Z</time>
      </trkpt>
      <trkpt lat="47.5415" lon="1.7942083">
        <ele>150</ele>
        <time>2022-03-17T08:29:28.000Z</time>
      </trkpt>
      <trkpt lat="47.54151" lon="1.7941945">
        <ele>150</ele>
        <time>2022-03-17T08:29:29.000Z</time>
      </trkpt>
      <trkpt lat="47.541523" lon="1.7941856">
        <ele>150</ele>
        <time>2022-03-17T08:29:30.000Z</time>
      </trkpt>
      <trkpt lat="47.541534" lon="1.7941766">
        <ele>150</ele>
        <time>2022-03-17T08:29:31.000Z</time>
      </trkpt>
      <trkpt lat="47.541546" lon="1.7941673">
        <ele>150</ele>
        <time>2022-03-17T08:29:32.000Z</time>
      </trkpt>
      <trkpt lat="47.541557" lon="1.7941592">
        <ele>150</ele>
        <time>2022-03-17T08:29:33.000Z</time>
      </trkpt>
      <trkpt lat="47.54157" lon="1.7941518">
        <ele>150</ele>
        <time>2022-03-17T08:29:34.000Z</time>
      </trkpt>
      <trkpt lat="47.54158" lon="1.7941432">
        <ele>150</ele>
        <time>2022-03-17T08:29:35.000Z</time>
      </trkpt>
      <trkpt lat="47.54159" lon="1.7941328">
        <ele>150</ele>
        <time>2022-03-17T08:29:36.000Z</time>
      </trkpt>
      <trkpt lat="47.541595" lon="1.7941247">
        <ele>150</ele>
        <time>2022-03-17T08:29:37.000Z</time>
      </trkpt>
      <trkpt lat="47.541607" lon="1.794113">
        <ele>150</ele>
        <time>2022-03-17T08:29:38.000Z</time>
      </trkpt>
      <trkpt lat="47.541615" lon="1.7941027">
        <ele>150</ele>
        <time>2022-03-17T08:29:39.000Z</time>
      </trkpt>
      <trkpt lat="47.541626" lon="1.7940941">
        <ele>150</ele>
        <time>2022-03-17T08:29:40.000Z</time>
      </trkpt>
      <trkpt lat="47.541634" lon="1.7940851">
        <ele>150</ele>
        <time>2022-03-17T08:29:41.000Z</time>
      </trkpt>
      <trkpt lat="47.541645" lon="1.7940737">
        <ele>150</ele>
        <time>2022-03-17T08:29:42.000Z</time>
      </trkpt>
      <trkpt lat="47.541653" lon="1.7940657">
        <ele>151</ele>
        <time>2022-03-17T08:29:43.000Z</time>
      </trkpt>
      <trkpt lat="47.541664" lon="1.7940569">
        <ele>151</ele>
        <time>2022-03-17T08:29:44.000Z</time>
      </trkpt>
      <trkpt lat="47.541676" lon="1.7940452">
        <ele>151</ele>
        <time>2022-03-17T08:29:45.000Z</time>
      </trkpt>
      <trkpt lat="47.541683" lon="1.7940344">
        <ele>151</ele>
        <time>2022-03-17T08:29:46.000Z</time>
      </trkpt>
      <trkpt lat="47.541695" lon="1.7940258">
        <ele>151</ele>
        <time>2022-03-17T08:29:47.000Z</time>
      </trkpt>
      <trkpt lat="47.541706" lon="1.7940146">
        <ele>151</ele>
        <time>2022-03-17T08:29:48.000Z</time>
      </trkpt>
      <trkpt lat="47.541718" lon="1.794003">
        <ele>151</ele>
        <time>2022-03-17T08:29:49.000Z</time>
      </trkpt>
      <trkpt lat="47.541725" lon="1.7939955">
        <ele>151</ele>
        <time>2022-03-17T08:29:50.000Z</time>
      </trkpt>
      <trkpt lat="47.541733" lon="1.7939826">
        <ele>151</ele>
        <time>2022-03-17T08:29:51.000Z</time>
      </trkpt>
      <trkpt lat="47.541744" lon="1.7939727">
        <ele>151</ele>
        <time>2022-03-17T08:29:52.000Z</time>
      </trkpt>
      <trkpt lat="47.54175" lon="1.7939647">
        <ele>151</ele>
        <time>2022-03-17T08:29:53.000Z</time>
      </trkpt>
      <trkpt lat="47.54176" lon="1.7939543">
        <ele>151</ele>
        <time>2022-03-17T08:29:54.000Z</time>
      </trkpt>
      <trkpt lat="47.541767" lon="1.7939452">
        <ele>151</ele>
        <time>2022-03-17T08:29:55.000Z</time>
      </trkpt>
      <trkpt lat="47.54178" lon="1.7939335">
        <ele>151</ele>
        <time>2022-03-17T08:29:56.000Z</time>
      </trkpt>
      <trkpt lat="47.541786" lon="1.793924">
        <ele>151</ele>
        <time>2022-03-17T08:29:57.000Z</time>
      </trkpt>
      <trkpt lat="47.541794" lon="1.7939124">
        <ele>151</ele>
        <time>2022-03-17T08:29:58.000Z</time>
      </trkpt>
      <trkpt lat="47.541805" lon="1.7939034">
        <ele>151</ele>
        <time>2022-03-17T08:29:59.000Z</time>
      </trkpt>
      <trkpt lat="47.54182" lon="1.7938919">
        <ele>152</ele>
        <time>2022-03-17T08:30:00.000Z</time>
      </trkpt>
      <trkpt lat="47.541832" lon="1.7938819">
        <ele>152</ele>
        <time>2022-03-17T08:30:01.000Z</time>
      </trkpt>
      <trkpt lat="47.541843" lon="1.793877">
        <ele>152</ele>
        <time>2022-03-17T08:30:02.000Z</time>
      </trkpt>
      <trkpt lat="47.541855" lon="1.7938681">
        <ele>152</ele>
        <time>2022-03-17T08:30:03.000Z</time>
      </trkpt>
      <trkpt lat="47.541866" lon="1.7938565">
        <ele>151</ele>
        <time>2022-03-17T08:30:04.000Z</time>
      </trkpt>
      <trkpt lat="47.541874" lon="1.7938458">
        <ele>152</ele>
        <time>2022-03-17T08:30:05.000Z</time>
      </trkpt>
      <trkpt lat="47.54188" lon="1.7938327">
        <ele>152</ele>
        <time>2022-03-17T08:30:06.000Z</time>
      </trkpt>
      <trkpt lat="47.541893" lon="1.7938256">
        <ele>151</ele>
        <time>2022-03-17T08:30:07.000Z</time>
      </trkpt>
      <trkpt lat="47.541904" lon="1.7938211">
        <ele>151</ele>
        <time>2022-03-17T08:30:08.000Z</time>
      </trkpt>
      <trkpt lat="47.541916" lon="1.7938125">
        <ele>151</ele>
        <time>2022-03-17T08:30:09.000Z</time>
      </trkpt>
      <trkpt lat="47.541924" lon="1.7938038">
        <ele>151</ele>
        <time>2022-03-17T08:30:10.000Z</time>
      </trkpt>
      <trkpt lat="47.541935" lon="1.7937938">
        <ele>152</ele>
        <time>2022-03-17T08:30:11.000Z</time>
      </trkpt>
      <trkpt lat="47.541943" lon="1.7937853">
        <ele>151</ele>
        <time>2022-03-17T08:30:12.000Z</time>
      </trkpt>
      <trkpt lat="47.54195" lon="1.7937777">
        <ele>151</ele>
        <time>2022-03-17T08:30:13.000Z</time>
      </trkpt>
      <trkpt lat="47.541958" lon="1.793766">
        <ele>151</ele>
        <time>2022-03-17T08:30:14.000Z</time>
      </trkpt>
      <trkpt lat="47.54197" lon="1.7937516">
        <ele>151</ele>
        <time>2022-03-17T08:30:15.000Z</time>
      </trkpt>
      <trkpt lat="47.541977" lon="1.7937407">
        <ele>152</ele>
        <time>2022-03-17T08:30:16.000Z</time>
      </trkpt>
      <trkpt lat="47.541985" lon="1.7937311">
        <ele>152</ele>
        <time>2022-03-17T08:30:17.000Z</time>
      </trkpt>
      <trkpt lat="47.541992" lon="1.7937224">
        <ele>152</ele>
        <time>2022-03-17T08:30:18.000Z</time>
      </trkpt>
      <trkpt lat="47.542007" lon="1.7937137">
        <ele>152</ele>
        <time>2022-03-17T08:30:19.000Z</time>
      </trkpt>
      <trkpt lat="47.542015" lon="1.7937005">
        <ele>152</ele>
        <time>2022-03-17T08:30:20.000Z</time>
      </trkpt>
      <trkpt lat="47.54203" lon="1.7936898">
        <ele>152</ele>
        <time>2022-03-17T08:30:21.000Z</time>
      </trkpt>
      <trkpt lat="47.54204" lon="1.7936779">
        <ele>152</ele>
        <time>2022-03-17T08:30:22.000Z</time>
      </trkpt>
      <trkpt lat="47.542053" lon="1.7936679">
        <ele>153</ele>
        <time>2022-03-17T08:30:23.000Z</time>
      </trkpt>
      <trkpt lat="47.542065" lon="1.7936589">
        <ele>152</ele>
        <time>2022-03-17T08:30:24.000Z</time>
      </trkpt>
      <trkpt lat="47.542072" lon="1.793648">
        <ele>152</ele>
        <time>2022-03-17T08:30:25.000Z</time>
      </trkpt>
      <trkpt lat="47.542084" lon="1.7936379">
        <ele>152</ele>
        <time>2022-03-17T08:30:26.000Z</time>
      </trkpt>
      <trkpt lat="47.54209" lon="1.793626">
        <ele>152</ele>
        <time>2022-03-17T08:30:27.000Z</time>
      </trkpt>
      <trkpt lat="47.5421" lon="1.7936159">
        <ele>152</ele>
        <time>2022-03-17T08:30:28.000Z</time>
      </trkpt>
      <trkpt lat="47.542107" lon="1.7936049">
        <ele>152</ele>
        <time>2022-03-17T08:30:29.000Z</time>
      </trkpt>
      <trkpt lat="47.542118" lon="1.7935971">
        <ele>153</ele>
        <time>2022-03-17T08:30:30.000Z</time>
      </trkpt>
      <trkpt lat="47.54213" lon="1.7935848">
        <ele>152</ele>
        <time>2022-03-17T08:30:31.000Z</time>
      </trkpt>
      <trkpt lat="47.54214" lon="1.7935735">
        <ele>152</ele>
        <time>2022-03-17T08:30:32.000Z</time>
      </trkpt>
      <trkpt lat="47.54215" lon="1.7935594">
        <ele>153</ele>
        <time>2022-03-17T08:30:33.000Z</time>
      </trkpt>
      <trkpt lat="47.54216" lon="1.7935504">
        <ele>153</ele>
        <time>2022-03-17T08:30:34.000Z</time>
      </trkpt>
      <trkpt lat="47.54217" lon="1.793538">
        <ele>153</ele>
        <time>2022-03-17T08:30:35.000Z</time>
      </trkpt>
      <trkpt lat="47.542183" lon="1.7935255">
        <ele>153</ele>
        <time>2022-03-17T08:30:36.000Z</time>
      </trkpt>
      <trkpt lat="47.542187" lon="1.7935091">
        <ele>153</ele>
        <time>2022-03-17T08:30:37.000Z</time>
      </trkpt>
      <trkpt lat="47.542194" lon="1.793494">
        <ele>153</ele>
        <time>2022-03-17T08:30:38.000Z</time>
      </trkpt>
      <trkpt lat="47.542202" lon="1.7934778">
        <ele>152</ele>
        <time>2022-03-17T08:30:39.000Z</time>
      </trkpt>
      <trkpt lat="47.542206" lon="1.7934633">
        <ele>153</ele>
        <time>2022-03-17T08:30:40.000Z</time>
      </trkpt>
      <trkpt lat="47.54221" lon="1.7934493">
        <ele>153</ele>
        <time>2022-03-17T08:30:41.000Z</time>
      </trkpt>
      <trkpt lat="47.54222" lon="1.79344">
        <ele>152</ele>
        <time>2022-03-17T08:30:42.000Z</time>
      </trkpt>
      <trkpt lat="47.542233" lon="1.7934247">
        <ele>152</ele>
        <time>2022-03-17T08:30:43.000Z</time>
      </trkpt>
      <trkpt lat="47.542244" lon="1.7934139">
        <ele>152</ele>
        <time>2022-03-17T08:30:44.000Z</time>
      </trkpt>
      <trkpt lat="47.54225" lon="1.7934015">
        <ele>151</ele>
        <time>2022-03-17T08:30:45.000Z</time>
      </trkpt>
      <trkpt lat="47.54226" lon="1.7933854">
        <ele>152</ele>
        <time>2022-03-17T08:30:46.000Z</time>
      </trkpt>
      <trkpt lat="47.542267" lon="1.7933699">
        <ele>152</ele>
        <time>2022-03-17T08:30:47.000Z</time>
      </trkpt>
      <trkpt lat="47.542274" lon="1.7933553">
        <ele>152</ele>
        <time>2022-03-17T08:30:48.000Z</time>
      </trkpt>
      <trkpt lat="47.54228" lon="1.7933389">
        <ele>152</ele>
        <time>2022-03-17T08:30:49.000Z</time>
      </trkpt>
      <trkpt lat="47.542286" lon="1.793326">
        <ele>153</ele>
        <time>2022-03-17T08:30:50.000Z</time>
      </trkpt>
      <trkpt lat="47.542294" lon="1.7933116">
        <ele>153</ele>
        <time>2022-03-17T08:30:51.000Z</time>
      </trkpt>
      <trkpt lat="47.5423" lon="1.793297">
        <ele>153</ele>
        <time>2022-03-17T08:30:52.000Z</time>
      </trkpt>
      <trkpt lat="47.54231" lon="1.7932912">
        <ele>153</ele>
        <time>2022-03-17T08:30:53.000Z</time>
      </trkpt>
      <trkpt lat="47.54232" lon="1.7932785">
        <ele>153</ele>
        <time>2022-03-17T08:30:54.000Z</time>
      </trkpt>
      <trkpt lat="47.54233" lon="1.7932703">
        <ele>153</ele>
        <time>2022-03-17T08:30:55.000Z</time>
      </trkpt>
      <trkpt lat="47.54234" lon="1.7932562">
        <ele>153</ele>
        <time>2022-03-17T08:30:56.000Z</time>
      </trkpt>
      <trkpt lat="47.54235" lon="1.7932429">
        <ele>153</ele>
        <time>2022-03-17T08:30:57.000Z</time>
      </trkpt>
      <trkpt lat="47.54236" lon="1.7932253">
        <ele>153</ele>
        <time>2022-03-17T08:30:58.000Z</time>
      </trkpt>
      <trkpt lat="47.542366" lon="1.7932128">
        <ele>153</ele>
        <time>2022-03-17T08:30:59.000Z</time>
      </trkpt>
      <trkpt lat="47.542377" lon="1.7931972">
        <ele>153</ele>
        <time>2022-03-17T08:31:00.000Z</time>
      </trkpt>
      <trkpt lat="47.542385" lon="1.7931819">
        <ele>153</ele>
        <time>2022-03-17T08:31:01.000Z</time>
      </trkpt>
      <trkpt lat="47.542393" lon="1.7931694">
        <ele>153</ele>
        <time>2022-03-17T08:31:02.000Z</time>
      </trkpt>
      <trkpt lat="47.5424" lon="1.7931541">
        <ele>153</ele>
        <time>2022-03-17T08:31:03.000Z</time>
      </trkpt>
      <trkpt lat="47.542408" lon="1.7931354">
        <ele>153</ele>
        <time>2022-03-17T08:31:04.000Z</time>
      </trkpt>
      <trkpt lat="47.54241" lon="1.793115">
        <ele>154</ele>
        <time>2022-03-17T08:31:05.000Z</time>
      </trkpt>
      <trkpt lat="47.54242" lon="1.7930987">
        <ele>153</ele>
        <time>2022-03-17T08:31:06.000Z</time>
      </trkpt>
      <trkpt lat="47.542427" lon="1.7930878">
        <ele>154</ele>
        <time>2022-03-17T08:31:07.000Z</time>
      </trkpt>
      <trkpt lat="47.54243" lon="1.7930766">
        <ele>154</ele>
        <time>2022-03-17T08:31:08.000Z</time>
      </trkpt>
      <trkpt lat="47.54244" lon="1.7930611">
        <ele>154</ele>
        <time>2022-03-17T08:31:09.000Z</time>
      </trkpt>
      <trkpt lat="47.54244" lon="1.7930428">
        <ele>154</ele>
        <time>2022-03-17T08:31:10.000Z</time>
      </trkpt>
      <trkpt lat="47.542442" lon="1.7930307">
        <ele>155</ele>
        <time>2022-03-17T08:31:11.000Z</time>
      </trkpt>
      <trkpt lat="47.54245" lon="1.7930182">
        <ele>155</ele>
        <time>2022-03-17T08:31:12.000Z</time>
      </trkpt>
      <trkpt lat="47.542458" lon="1.7930031">
        <ele>155</ele>
        <time>2022-03-17T08:31:13.000Z</time>
      </trkpt>
      <trkpt lat="47.542465" lon="1.7929889">
        <ele>155</ele>
        <time>2022-03-17T08:31:14.000Z</time>
      </trkpt>
      <trkpt lat="47.542473" lon="1.7929734">
        <ele>155</ele>
        <time>2022-03-17T08:31:15.000Z</time>
      </trkpt>
      <trkpt lat="47.542477" lon="1.7929518">
        <ele>155</ele>
        <time>2022-03-17T08:31:16.000Z</time>
      </trkpt>
      <trkpt lat="47.54248" lon="1.7929349">
        <ele>155</ele>
        <time>2022-03-17T08:31:17.000Z</time>
      </trkpt>
      <trkpt lat="47.54249" lon="1.7929171">
        <ele>156</ele>
        <time>2022-03-17T08:31:18.000Z</time>
      </trkpt>
      <trkpt lat="47.542496" lon="1.7929058">
        <ele>156</ele>
        <time>2022-03-17T08:31:19.000Z</time>
      </trkpt>
      <trkpt lat="47.542503" lon="1.7928945">
        <ele>156</ele>
        <time>2022-03-17T08:31:20.000Z</time>
      </trkpt>
      <trkpt lat="47.54251" lon="1.7928835">
        <ele>156</ele>
        <time>2022-03-17T08:31:21.000Z</time>
      </trkpt>
      <trkpt lat="47.54252" lon="1.7928686">
        <ele>156</ele>
        <time>2022-03-17T08:31:22.000Z</time>
      </trkpt>
      <trkpt lat="47.542526" lon="1.7928569">
        <ele>156</ele>
        <time>2022-03-17T08:31:23.000Z</time>
      </trkpt>
      <trkpt lat="47.542534" lon="1.7928497">
        <ele>157</ele>
        <time>2022-03-17T08:31:24.000Z</time>
      </trkpt>
      <trkpt lat="47.54254" lon="1.7928377">
        <ele>156</ele>
        <time>2022-03-17T08:31:25.000Z</time>
      </trkpt>
      <trkpt lat="47.54255" lon="1.7928247">
        <ele>156</ele>
        <time>2022-03-17T08:31:26.000Z</time>
      </trkpt>
      <trkpt lat="47.542553" lon="1.7928196">
        <ele>156</ele>
        <time>2022-03-17T08:31:27.000Z</time>
      </trkpt>
      <trkpt lat="47.54256" lon="1.7928072">
        <ele>156</ele>
        <time>2022-03-17T08:31:28.000Z</time>
      </trkpt>
      <trkpt lat="47.542564" lon="1.7927921">
        <ele>156</ele>
        <time>2022-03-17T08:31:29.000Z</time>
      </trkpt>
      <trkpt lat="47.542572" lon="1.7927762">
        <ele>156</ele>
        <time>2022-03-17T08:31:30.000Z</time>
      </trkpt>
      <trkpt lat="47.542576" lon="1.7927614">
        <ele>156</ele>
        <time>2022-03-17T08:31:31.000Z</time>
      </trkpt>
      <trkpt lat="47.542583" lon="1.7927471">
        <ele>156</ele>
        <time>2022-03-17T08:31:32.000Z</time>
      </trkpt>
      <trkpt lat="47.54259" lon="1.7927322">
        <ele>156</ele>
        <time>2022-03-17T08:31:33.000Z</time>
      </trkpt>
      <trkpt lat="47.5426" lon="1.792715">
        <ele>156</ele>
        <time>2022-03-17T08:31:34.000Z</time>
      </trkpt>
      <trkpt lat="47.542606" lon="1.7927039">
        <ele>156</ele>
        <time>2022-03-17T08:31:35.000Z</time>
      </trkpt>
      <trkpt lat="47.54261" lon="1.7926964">
        <ele>156</ele>
        <time>2022-03-17T08:31:36.000Z</time>
      </trkpt>
      <trkpt lat="47.542618" lon="1.7926817">
        <ele>156</ele>
        <time>2022-03-17T08:31:37.000Z</time>
      </trkpt>
      <trkpt lat="47.542625" lon="1.7926681">
        <ele>157</ele>
        <time>2022-03-17T08:31:38.000Z</time>
      </trkpt>
      <trkpt lat="47.54263" lon="1.7926512">
        <ele>156</ele>
        <time>2022-03-17T08:31:39.000Z</time>
      </trkpt>
      <trkpt lat="47.542633" lon="1.7926384">
        <ele>156</ele>
        <time>2022-03-17T08:31:40.000Z</time>
      </trkpt>
      <trkpt lat="47.54264" lon="1.7926217">
        <ele>156</ele>
        <time>2022-03-17T08:31:41.000Z</time>
      </trkpt>
      <trkpt lat="47.542645" lon="1.7926046">
        <ele>156</ele>
        <time>2022-03-17T08:31:42.000Z</time>
      </trkpt>
      <trkpt lat="47.542652" lon="1.7925913">
        <ele>155</ele>
        <time>2022-03-17T08:31:43.000Z</time>
      </trkpt>
      <trkpt lat="47.542664" lon="1.7925811">
        <ele>155</ele>
        <time>2022-03-17T08:31:44.000Z</time>
      </trkpt>
      <trkpt lat="47.54267" lon="1.7925664">
        <ele>155</ele>
        <time>2022-03-17T08:31:45.000Z</time>
      </trkpt>
      <trkpt lat="47.54268" lon="1.7925501">
        <ele>156</ele>
        <time>2022-03-17T08:31:46.000Z</time>
      </trkpt>
      <trkpt lat="47.54269" lon="1.7925341">
        <ele>155</ele>
        <time>2022-03-17T08:31:47.000Z</time>
      </trkpt>
      <trkpt lat="47.542698" lon="1.7925211">
        <ele>156</ele>
        <time>2022-03-17T08:31:48.000Z</time>
      </trkpt>
      <trkpt lat="47.542706" lon="1.7925067">
        <ele>155</ele>
        <time>2022-03-17T08:31:49.000Z</time>
      </trkpt>
      <trkpt lat="47.542713" lon="1.7924933">
        <ele>156</ele>
        <time>2022-03-17T08:31:50.000Z</time>
      </trkpt>
      <trkpt lat="47.54272" lon="1.7924765">
        <ele>155</ele>
        <time>2022-03-17T08:31:51.000Z</time>
      </trkpt>
      <trkpt lat="47.542725" lon="1.7924601">
        <ele>155</ele>
        <time>2022-03-17T08:31:52.000Z</time>
      </trkpt>
      <trkpt lat="47.542732" lon="1.7924435">
        <ele>155</ele>
        <time>2022-03-17T08:31:53.000Z</time>
      </trkpt>
      <trkpt lat="47.542736" lon="1.7924277">
        <ele>155</ele>
        <time>2022-03-17T08:31:54.000Z</time>
      </trkpt>
      <trkpt lat="47.542747" lon="1.7924191">
        <ele>155</ele>
        <time>2022-03-17T08:31:55.000Z</time>
      </trkpt>
      <trkpt lat="47.542755" lon="1.792406">
        <ele>155</ele>
        <time>2022-03-17T08:31:56.000Z</time>
      </trkpt>
      <trkpt lat="47.542763" lon="1.7923912">
        <ele>155</ele>
        <time>2022-03-17T08:31:57.000Z</time>
      </trkpt>
      <trkpt lat="47.54277" lon="1.7923768">
        <ele>155</ele>
        <time>2022-03-17T08:31:58.000Z</time>
      </trkpt>
      <trkpt lat="47.542778" lon="1.7923609">
        <ele>155</ele>
        <time>2022-03-17T08:31:59.000Z</time>
      </trkpt>
      <trkpt lat="47.542786" lon="1.7923424">
        <ele>155</ele>
        <time>2022-03-17T08:32:00.000Z</time>
      </trkpt>
      <trkpt lat="47.542793" lon="1.7923272">
        <ele>155</ele>
        <time>2022-03-17T08:32:01.000Z</time>
      </trkpt>
      <trkpt lat="47.5428" lon="1.7923079">
        <ele>155</ele>
        <time>2022-03-17T08:32:02.000Z</time>
      </trkpt>
      <trkpt lat="47.542805" lon="1.7922912">
        <ele>155</ele>
        <time>2022-03-17T08:32:03.000Z</time>
      </trkpt>
      <trkpt lat="47.542812" lon="1.7922792">
        <ele>154</ele>
        <time>2022-03-17T08:32:04.000Z</time>
      </trkpt>
      <trkpt lat="47.542816" lon="1.7922658">
        <ele>155</ele>
        <time>2022-03-17T08:32:05.000Z</time>
      </trkpt>
      <trkpt lat="47.54282" lon="1.7922524">
        <ele>155</ele>
        <time>2022-03-17T08:32:06.000Z</time>
      </trkpt>
      <trkpt lat="47.54283" lon="1.7922391">
        <ele>156</ele>
        <time>2022-03-17T08:32:07.000Z</time>
      </trkpt>
      <trkpt lat="47.54284" lon="1.7922224">
        <ele>155</ele>
        <time>2022-03-17T08:32:08.000Z</time>
      </trkpt>
      <trkpt lat="47.542847" lon="1.7922088">
        <ele>155</ele>
        <time>2022-03-17T08:32:09.000Z</time>
      </trkpt>
      <trkpt lat="47.54285" lon="1.7921997">
        <ele>155</ele>
        <time>2022-03-17T08:32:10.000Z</time>
      </trkpt>
      <trkpt lat="47.54286" lon="1.7921824">
        <ele>155</ele>
        <time>2022-03-17T08:32:11.000Z</time>
      </trkpt>
      <trkpt lat="47.542866" lon="1.7921658">
        <ele>155</ele>
        <time>2022-03-17T08:32:12.000Z</time>
      </trkpt>
      <trkpt lat="47.54287" lon="1.7921476">
        <ele>155</ele>
        <time>2022-03-17T08:32:13.000Z</time>
      </trkpt>
      <trkpt lat="47.542877" lon="1.7921308">
        <ele>155</ele>
        <time>2022-03-17T08:32:14.000Z</time>
      </trkpt>
      <trkpt lat="47.542885" lon="1.7921162">
        <ele>154</ele>
        <time>2022-03-17T08:32:15.000Z</time>
      </trkpt>
      <trkpt lat="47.54289" lon="1.7921019">
        <ele>154</ele>
        <time>2022-03-17T08:32:16.000Z</time>
      </trkpt>
      <trkpt lat="47.542896" lon="1.792088">
        <ele>154</ele>
        <time>2022-03-17T08:32:17.000Z</time>
      </trkpt>
      <trkpt lat="47.542904" lon="1.792078">
        <ele>154</ele>
        <time>2022-03-17T08:32:18.000Z</time>
      </trkpt>
      <trkpt lat="47.54291" lon="1.7920674">
        <ele>154</ele>
        <time>2022-03-17T08:32:19.000Z</time>
      </trkpt>
      <trkpt lat="47.54292" lon="1.7920588">
        <ele>154</ele>
        <time>2022-03-17T08:32:20.000Z</time>
      </trkpt>
      <trkpt lat="47.542923" lon="1.7920431">
        <ele>154</ele>
        <time>2022-03-17T08:32:21.000Z</time>
      </trkpt>
      <trkpt lat="47.54293" lon="1.7920266">
        <ele>154</ele>
        <time>2022-03-17T08:32:22.000Z</time>
      </trkpt>
      <trkpt lat="47.54294" lon="1.79201">
        <ele>154</ele>
        <time>2022-03-17T08:32:23.000Z</time>
      </trkpt>
      <trkpt lat="47.542946" lon="1.7919933">
        <ele>154</ele>
        <time>2022-03-17T08:32:24.000Z</time>
      </trkpt>
      <trkpt lat="47.542946" lon="1.7919776">
        <ele>154</ele>
        <time>2022-03-17T08:32:25.000Z</time>
      </trkpt>
      <trkpt lat="47.54295" lon="1.7919625">
        <ele>154</ele>
        <time>2022-03-17T08:32:26.000Z</time>
      </trkpt>
      <trkpt lat="47.542957" lon="1.7919455">
        <ele>153</ele>
        <time>2022-03-17T08:32:27.000Z</time>
      </trkpt>
      <trkpt lat="47.542965" lon="1.7919291">
        <ele>153</ele>
        <time>2022-03-17T08:32:28.000Z</time>
      </trkpt>
      <trkpt lat="47.542973" lon="1.7919109">
        <ele>153</ele>
        <time>2022-03-17T08:32:29.000Z</time>
      </trkpt>
      <trkpt lat="47.54298" lon="1.7918952">
        <ele>153</ele>
        <time>2022-03-17T08:32:30.000Z</time>
      </trkpt>
      <trkpt lat="47.542988" lon="1.7918783">
        <ele>153</ele>
        <time>2022-03-17T08:32:31.000Z</time>
      </trkpt>
      <trkpt lat="47.542995" lon="1.7918677">
        <ele>153</ele>
        <time>2022-03-17T08:32:32.000Z</time>
      </trkpt>
      <trkpt lat="47.54299" lon="1.7918516">
        <ele>153</ele>
        <time>2022-03-17T08:32:33.000Z</time>
      </trkpt>
      <trkpt lat="47.543" lon="1.7918333">
        <ele>154</ele>
        <time>2022-03-17T08:32:34.000Z</time>
      </trkpt>
      <trkpt lat="47.543007" lon="1.7918116">
        <ele>154</ele>
        <time>2022-03-17T08:32:35.000Z</time>
      </trkpt>
      <trkpt lat="47.54301" lon="1.7917935">
        <ele>154</ele>
        <time>2022-03-17T08:32:36.000Z</time>
      </trkpt>
      <trkpt lat="47.54302" lon="1.7917764">
        <ele>155</ele>
        <time>2022-03-17T08:32:37.000Z</time>
      </trkpt>
      <trkpt lat="47.543026" lon="1.7917558">
        <ele>155</ele>
        <time>2022-03-17T08:32:38.000Z</time>
      </trkpt>
      <trkpt lat="47.543034" lon="1.7917364">
        <ele>155</ele>
        <time>2022-03-17T08:32:39.000Z</time>
      </trkpt>
      <trkpt lat="47.543037" lon="1.791717">
        <ele>155</ele>
        <time>2022-03-17T08:32:40.000Z</time>
      </trkpt>
      <trkpt lat="47.54304" lon="1.7916983">
        <ele>155</ele>
        <time>2022-03-17T08:32:41.000Z</time>
      </trkpt>
      <trkpt lat="47.543045" lon="1.7916791">
        <ele>155</ele>
        <time>2022-03-17T08:32:42.000Z</time>
      </trkpt>
      <trkpt lat="47.543045" lon="1.7916651">
        <ele>155</ele>
        <time>2022-03-17T08:32:43.000Z</time>
      </trkpt>
      <trkpt lat="47.54305" lon="1.7916503">
        <ele>155</ele>
        <time>2022-03-17T08:32:44.000Z</time>
      </trkpt>
      <trkpt lat="47.543053" lon="1.7916348">
        <ele>155</ele>
        <time>2022-03-17T08:32:45.000Z</time>
      </trkpt>
      <trkpt lat="47.543053" lon="1.7916144">
        <ele>155</ele>
        <time>2022-03-17T08:32:46.000Z</time>
      </trkpt>
      <trkpt lat="47.543056" lon="1.7915965">
        <ele>154</ele>
        <time>2022-03-17T08:32:47.000Z</time>
      </trkpt>
      <trkpt lat="47.54306" lon="1.7915848">
        <ele>154</ele>
        <time>2022-03-17T08:32:48.000Z</time>
      </trkpt>
      <trkpt lat="47.543064" lon="1.7915664">
        <ele>154</ele>
        <time>2022-03-17T08:32:49.000Z</time>
      </trkpt>
      <trkpt lat="47.543064" lon="1.7915478">
        <ele>153</ele>
        <time>2022-03-17T08:32:50.000Z</time>
      </trkpt>
      <trkpt lat="47.543068" lon="1.7915308">
        <ele>154</ele>
        <time>2022-03-17T08:32:51.000Z</time>
      </trkpt>
      <trkpt lat="47.543076" lon="1.7915156">
        <ele>154</ele>
        <time>2022-03-17T08:32:52.000Z</time>
      </trkpt>
      <trkpt lat="47.54308" lon="1.7914962">
        <ele>153</ele>
        <time>2022-03-17T08:32:53.000Z</time>
      </trkpt>
      <trkpt lat="47.54308" lon="1.7914838">
        <ele>154</ele>
        <time>2022-03-17T08:32:54.000Z</time>
      </trkpt>
      <trkpt lat="47.543087" lon="1.7914704">
        <ele>154</ele>
        <time>2022-03-17T08:32:55.000Z</time>
      </trkpt>
      <trkpt lat="47.54309" lon="1.7914535">
        <ele>154</ele>
        <time>2022-03-17T08:32:56.000Z</time>
      </trkpt>
      <trkpt lat="47.543095" lon="1.7914368">
        <ele>154</ele>
        <time>2022-03-17T08:32:57.000Z</time>
      </trkpt>
      <trkpt lat="47.543102" lon="1.7914227">
        <ele>153</ele>
        <time>2022-03-17T08:32:58.000Z</time>
      </trkpt>
      <trkpt lat="47.543106" lon="1.791407">
        <ele>153</ele>
        <time>2022-03-17T08:32:59.000Z</time>
      </trkpt>
      <trkpt lat="47.54311" lon="1.7913879">
        <ele>153</ele>
        <time>2022-03-17T08:33:00.000Z</time>
      </trkpt>
      <trkpt lat="47.543114" lon="1.7913755">
        <ele>154</ele>
        <time>2022-03-17T08:33:01.000Z</time>
      </trkpt>
      <trkpt lat="47.543118" lon="1.7913591">
        <ele>154</ele>
        <time>2022-03-17T08:33:02.000Z</time>
      </trkpt>
      <trkpt lat="47.54312" lon="1.7913419">
        <ele>154</ele>
        <time>2022-03-17T08:33:03.000Z</time>
      </trkpt>
      <trkpt lat="47.54313" lon="1.7913288">
        <ele>154</ele>
        <time>2022-03-17T08:33:04.000Z</time>
      </trkpt>
      <trkpt lat="47.543133" lon="1.7913074">
        <ele>154</ele>
        <time>2022-03-17T08:33:05.000Z</time>
      </trkpt>
      <trkpt lat="47.543137" lon="1.791287">
        <ele>154</ele>
        <time>2022-03-17T08:33:06.000Z</time>
      </trkpt>
      <trkpt lat="47.54314" lon="1.7912668">
        <ele>154</ele>
        <time>2022-03-17T08:33:07.000Z</time>
      </trkpt>
      <trkpt lat="47.54315" lon="1.7912487">
        <ele>154</ele>
        <time>2022-03-17T08:33:08.000Z</time>
      </trkpt>
      <trkpt lat="47.543156" lon="1.7912279">
        <ele>154</ele>
        <time>2022-03-17T08:33:09.000Z</time>
      </trkpt>
      <trkpt lat="47.54316" lon="1.7912096">
        <ele>154</ele>
        <time>2022-03-17T08:33:10.000Z</time>
      </trkpt>
      <trkpt lat="47.54316" lon="1.7911936">
        <ele>155</ele>
        <time>2022-03-17T08:33:11.000Z</time>
      </trkpt>
      <trkpt lat="47.543163" lon="1.7911782">
        <ele>154</ele>
        <time>2022-03-17T08:33:12.000Z</time>
      </trkpt>
      <trkpt lat="47.543167" lon="1.791161">
        <ele>154</ele>
        <time>2022-03-17T08:33:13.000Z</time>
      </trkpt>
      <trkpt lat="47.543175" lon="1.7911485">
        <ele>155</ele>
        <time>2022-03-17T08:33:14.000Z</time>
      </trkpt>
      <trkpt lat="47.543182" lon="1.7911325">
        <ele>155</ele>
        <time>2022-03-17T08:33:15.000Z</time>
      </trkpt>
      <trkpt lat="47.54319" lon="1.791117">
        <ele>155</ele>
        <time>2022-03-17T08:33:16.000Z</time>
      </trkpt>
      <trkpt lat="47.543194" lon="1.7910987">
        <ele>154</ele>
        <time>2022-03-17T08:33:17.000Z</time>
      </trkpt>
      <trkpt lat="47.5432" lon="1.7910777">
        <ele>154</ele>
        <time>2022-03-17T08:33:18.000Z</time>
      </trkpt>
      <trkpt lat="47.5432" lon="1.7910594">
        <ele>154</ele>
        <time>2022-03-17T08:33:19.000Z</time>
      </trkpt>
      <trkpt lat="47.543205" lon="1.791042">
        <ele>155</ele>
        <time>2022-03-17T08:33:20.000Z</time>
      </trkpt>
      <trkpt lat="47.54321" lon="1.791022">
        <ele>155</ele>
        <time>2022-03-17T08:33:21.000Z</time>
      </trkpt>
      <trkpt lat="47.543213" lon="1.7910053">
        <ele>155</ele>
        <time>2022-03-17T08:33:22.000Z</time>
      </trkpt>
      <trkpt lat="47.543213" lon="1.7909901">
        <ele>155</ele>
        <time>2022-03-17T08:33:23.000Z</time>
      </trkpt>
      <trkpt lat="47.543217" lon="1.790975">
        <ele>154</ele>
        <time>2022-03-17T08:33:24.000Z</time>
      </trkpt>
      <trkpt lat="47.543224" lon="1.7909651">
        <ele>154</ele>
        <time>2022-03-17T08:33:25.000Z</time>
      </trkpt>
      <trkpt lat="47.54323" lon="1.7909496">
        <ele>154</ele>
        <time>2022-03-17T08:33:26.000Z</time>
      </trkpt>
      <trkpt lat="47.543232" lon="1.7909333">
        <ele>154</ele>
        <time>2022-03-17T08:33:27.000Z</time>
      </trkpt>
      <trkpt lat="47.543232" lon="1.7909139">
        <ele>154</ele>
        <time>2022-03-17T08:33:28.000Z</time>
      </trkpt>
      <trkpt lat="47.54324" lon="1.7908942">
        <ele>154</ele>
        <time>2022-03-17T08:33:29.000Z</time>
      </trkpt>
      <trkpt lat="47.543243" lon="1.7908748">
        <ele>153</ele>
        <time>2022-03-17T08:33:30.000Z</time>
      </trkpt>
      <trkpt lat="47.54325" lon="1.7908586">
        <ele>153</ele>
        <time>2022-03-17T08:33:31.000Z</time>
      </trkpt>
      <trkpt lat="47.543255" lon="1.7908405">
        <ele>153</ele>
        <time>2022-03-17T08:33:32.000Z</time>
      </trkpt>
      <trkpt lat="47.54326" lon="1.790823">
        <ele>153</ele>
        <time>2022-03-17T08:33:33.000Z</time>
      </trkpt>
      <trkpt lat="47.543266" lon="1.790806">
        <ele>153</ele>
        <time>2022-03-17T08:33:34.000Z</time>
      </trkpt>
      <trkpt lat="47.54327" lon="1.7907906">
        <ele>153</ele>
        <time>2022-03-17T08:33:35.000Z</time>
      </trkpt>
      <trkpt lat="47.543274" lon="1.7907711">
        <ele>153</ele>
        <time>2022-03-17T08:33:36.000Z</time>
      </trkpt>
      <trkpt lat="47.543278" lon="1.7907524">
        <ele>153</ele>
        <time>2022-03-17T08:33:37.000Z</time>
      </trkpt>
      <trkpt lat="47.543278" lon="1.7907362">
        <ele>153</ele>
        <time>2022-03-17T08:33:38.000Z</time>
      </trkpt>
      <trkpt lat="47.54328" lon="1.7907223">
        <ele>153</ele>
        <time>2022-03-17T08:33:39.000Z</time>
      </trkpt>
      <trkpt lat="47.543285" lon="1.7907033">
        <ele>152</ele>
        <time>2022-03-17T08:33:40.000Z</time>
      </trkpt>
      <trkpt lat="47.54329" lon="1.7906861">
        <ele>152</ele>
        <time>2022-03-17T08:33:41.000Z</time>
      </trkpt>
      <trkpt lat="47.543293" lon="1.7906655">
        <ele>152</ele>
        <time>2022-03-17T08:33:42.000Z</time>
      </trkpt>
      <trkpt lat="47.543293" lon="1.7906492">
        <ele>152</ele>
        <time>2022-03-17T08:33:43.000Z</time>
      </trkpt>
      <trkpt lat="47.5433" lon="1.7906349">
        <ele>152</ele>
        <time>2022-03-17T08:33:44.000Z</time>
      </trkpt>
      <trkpt lat="47.5433" lon="1.7906187">
        <ele>152</ele>
        <time>2022-03-17T08:33:45.000Z</time>
      </trkpt>
      <trkpt lat="47.543304" lon="1.7906034">
        <ele>152</ele>
        <time>2022-03-17T08:33:46.000Z</time>
      </trkpt>
      <trkpt lat="47.543304" lon="1.7905893">
        <ele>152</ele>
        <time>2022-03-17T08:33:47.000Z</time>
      </trkpt>
      <trkpt lat="47.54331" lon="1.790571">
        <ele>151</ele>
        <time>2022-03-17T08:33:48.000Z</time>
      </trkpt>
      <trkpt lat="47.543316" lon="1.7905529">
        <ele>151</ele>
        <time>2022-03-17T08:33:49.000Z</time>
      </trkpt>
      <trkpt lat="47.543324" lon="1.7905387">
        <ele>151</ele>
        <time>2022-03-17T08:33:50.000Z</time>
      </trkpt>
      <trkpt lat="47.54333" lon="1.7905221">
        <ele>151</ele>
        <time>2022-03-17T08:33:51.000Z</time>
      </trkpt>
      <trkpt lat="47.54334" lon="1.7905059">
        <ele>151</ele>
        <time>2022-03-17T08:33:52.000Z</time>
      </trkpt>
      <trkpt lat="47.543346" lon="1.7904898">
        <ele>152</ele>
        <time>2022-03-17T08:33:53.000Z</time>
      </trkpt>
      <trkpt lat="47.54335" lon="1.7904733">
        <ele>152</ele>
        <time>2022-03-17T08:33:54.000Z</time>
      </trkpt>
      <trkpt lat="47.543354" lon="1.7904558">
        <ele>152</ele>
        <time>2022-03-17T08:33:55.000Z</time>
      </trkpt>
      <trkpt lat="47.543358" lon="1.7904409">
        <ele>151</ele>
        <time>2022-03-17T08:33:56.000Z</time>
      </trkpt>
      <trkpt lat="47.54336" lon="1.7904259">
        <ele>151</ele>
        <time>2022-03-17T08:33:57.000Z</time>
      </trkpt>
      <trkpt lat="47.54337" lon="1.7904087">
        <ele>151</ele>
        <time>2022-03-17T08:33:58.000Z</time>
      </trkpt>
      <trkpt lat="47.54337" lon="1.7903936">
        <ele>151</ele>
        <time>2022-03-17T08:33:59.000Z</time>
      </trkpt>
      <trkpt lat="47.543373" lon="1.7903769">
        <ele>151</ele>
        <time>2022-03-17T08:34:00.000Z</time>
      </trkpt>
      <trkpt lat="47.543373" lon="1.7903596">
        <ele>151</ele>
        <time>2022-03-17T08:34:01.000Z</time>
      </trkpt>
      <trkpt lat="47.543377" lon="1.7903391">
        <ele>152</ele>
        <time>2022-03-17T08:34:02.000Z</time>
      </trkpt>
      <trkpt lat="47.54338" lon="1.7903217">
        <ele>152</ele>
        <time>2022-03-17T08:34:03.000Z</time>
      </trkpt>
      <trkpt lat="47.54339" lon="1.7903023">
        <ele>152</ele>
        <time>2022-03-17T08:34:04.000Z</time>
      </trkpt>
      <trkpt lat="47.543392" lon="1.7902855">
        <ele>152</ele>
        <time>2022-03-17T08:34:05.000Z</time>
      </trkpt>
      <trkpt lat="47.5434" lon="1.7902716">
        <ele>152</ele>
        <time>2022-03-17T08:34:06.000Z</time>
      </trkpt>
      <trkpt lat="47.54341" lon="1.7902572">
        <ele>153</ele>
        <time>2022-03-17T08:34:07.000Z</time>
      </trkpt>
      <trkpt lat="47.54342" lon="1.790249">
        <ele>152</ele>
        <time>2022-03-17T08:34:08.000Z</time>
      </trkpt>
      <trkpt lat="47.543427" lon="1.7902337">
        <ele>152</ele>
        <time>2022-03-17T08:34:09.000Z</time>
      </trkpt>
      <trkpt lat="47.543438" lon="1.7902234">
        <ele>152</ele>
        <time>2022-03-17T08:34:10.000Z</time>
      </trkpt>
      <trkpt lat="47.543446" lon="1.7902112">
        <ele>152</ele>
        <time>2022-03-17T08:34:11.000Z</time>
      </trkpt>
      <trkpt lat="47.543453" lon="1.7901974">
        <ele>153</ele>
        <time>2022-03-17T08:34:12.000Z</time>
      </trkpt>
      <trkpt lat="47.543465" lon="1.7901852">
        <ele>153</ele>
        <time>2022-03-17T08:34:13.000Z</time>
      </trkpt>
      <trkpt lat="47.543472" lon="1.7901745">
        <ele>153</ele>
        <time>2022-03-17T08:34:14.000Z</time>
      </trkpt>
      <trkpt lat="47.543484" lon="1.7901647">
        <ele>153</ele>
        <time>2022-03-17T08:34:15.000Z</time>
      </trkpt>
      <trkpt lat="47.543495" lon="1.7901528">
        <ele>154</ele>
        <time>2022-03-17T08:34:16.000Z</time>
      </trkpt>
      <trkpt lat="47.543503" lon="1.7901456">
        <ele>154</ele>
        <time>2022-03-17T08:34:17.000Z</time>
      </trkpt>
      <trkpt lat="47.54351" lon="1.7901403">
        <ele>153</ele>
        <time>2022-03-17T08:34:18.000Z</time>
      </trkpt>
      <trkpt lat="47.54352" lon="1.7901336">
        <ele>153</ele>
        <time>2022-03-17T08:34:19.000Z</time>
      </trkpt>
      <trkpt lat="47.543537" lon="1.7901242">
        <ele>153</ele>
        <time>2022-03-17T08:34:20.000Z</time>
      </trkpt>
      <trkpt lat="47.543545" lon="1.7901144">
        <ele>153</ele>
        <time>2022-03-17T08:34:21.000Z</time>
      </trkpt>
      <trkpt lat="47.54356" lon="1.7901063">
        <ele>153</ele>
        <time>2022-03-17T08:34:22.000Z</time>
      </trkpt>
      <trkpt lat="47.543575" lon="1.7900938">
        <ele>153</ele>
        <time>2022-03-17T08:34:23.000Z</time>
      </trkpt>
      <trkpt lat="47.54358" lon="1.7900927">
        <ele>153</ele>
        <time>2022-03-17T08:34:24.000Z</time>
      </trkpt>
      <trkpt lat="47.543583" lon="1.7900848">
        <ele>153</ele>
        <time>2022-03-17T08:34:25.000Z</time>
      </trkpt>
      <trkpt lat="47.543587" lon="1.7900753">
        <ele>153</ele>
        <time>2022-03-17T08:34:26.000Z</time>
      </trkpt>
      <trkpt lat="47.5436" lon="1.7900678">
        <ele>154</ele>
        <time>2022-03-17T08:34:27.000Z</time>
      </trkpt>
      <trkpt lat="47.543606" lon="1.7900572">
        <ele>153</ele>
        <time>2022-03-17T08:34:28.000Z</time>
      </trkpt>
      <trkpt lat="47.543617" lon="1.7900437">
        <ele>153</ele>
        <time>2022-03-17T08:34:29.000Z</time>
      </trkpt>
      <trkpt lat="47.543625" lon="1.790033">
        <ele>153</ele>
        <time>2022-03-17T08:34:30.000Z</time>
      </trkpt>
      <trkpt lat="47.543633" lon="1.7900198">
        <ele>154</ele>
        <time>2022-03-17T08:34:31.000Z</time>
      </trkpt>
      <trkpt lat="47.543644" lon="1.7900076">
        <ele>154</ele>
        <time>2022-03-17T08:34:32.000Z</time>
      </trkpt>
      <trkpt lat="47.543655" lon="1.7899975">
        <ele>154</ele>
        <time>2022-03-17T08:34:33.000Z</time>
      </trkpt>
      <trkpt lat="47.543663" lon="1.7899882">
        <ele>154</ele>
        <time>2022-03-17T08:34:34.000Z</time>
      </trkpt>
      <trkpt lat="47.543674" lon="1.7899816">
        <ele>154</ele>
        <time>2022-03-17T08:34:35.000Z</time>
      </trkpt>
      <trkpt lat="47.543682" lon="1.7899733">
        <ele>153</ele>
        <time>2022-03-17T08:34:36.000Z</time>
      </trkpt>
      <trkpt lat="47.54369" lon="1.7899611">
        <ele>154</ele>
        <time>2022-03-17T08:34:37.000Z</time>
      </trkpt>
      <trkpt lat="47.543694" lon="1.7899505">
        <ele>154</ele>
        <time>2022-03-17T08:34:38.000Z</time>
      </trkpt>
      <trkpt lat="47.543705" lon="1.7899382">
        <ele>155</ele>
        <time>2022-03-17T08:34:39.000Z</time>
      </trkpt>
      <trkpt lat="47.543713" lon="1.789926">
        <ele>155</ele>
        <time>2022-03-17T08:34:40.000Z</time>
      </trkpt>
      <trkpt lat="47.54372" lon="1.7899156">
        <ele>155</ele>
        <time>2022-03-17T08:34:41.000Z</time>
      </trkpt>
      <trkpt lat="47.54373" lon="1.7899073">
        <ele>155</ele>
        <time>2022-03-17T08:34:42.000Z</time>
      </trkpt>
      <trkpt lat="47.543736" lon="1.7899041">
        <ele>155</ele>
        <time>2022-03-17T08:34:43.000Z</time>
      </trkpt>
      <trkpt lat="47.543747" lon="1.7898972">
        <ele>155</ele>
        <time>2022-03-17T08:34:44.000Z</time>
      </trkpt>
      <trkpt lat="47.543755" lon="1.7898883">
        <ele>155</ele>
        <time>2022-03-17T08:34:45.000Z</time>
      </trkpt>
      <trkpt lat="47.543766" lon="1.7898791">
        <ele>155</ele>
        <time>2022-03-17T08:34:46.000Z</time>
      </trkpt>
      <trkpt lat="47.543774" lon="1.7898662">
        <ele>155</ele>
        <time>2022-03-17T08:34:47.000Z</time>
      </trkpt>
      <trkpt lat="47.543785" lon="1.7898602">
        <ele>155</ele>
        <time>2022-03-17T08:34:48.000Z</time>
      </trkpt>
      <trkpt lat="47.5438" lon="1.7898504">
        <ele>155</ele>
        <time>2022-03-17T08:34:49.000Z</time>
      </trkpt>
      <trkpt lat="47.543808" lon="1.7898419">
        <ele>156</ele>
        <time>2022-03-17T08:34:50.000Z</time>
      </trkpt>
      <trkpt lat="47.54382" lon="1.7898357">
        <ele>156</ele>
        <time>2022-03-17T08:34:51.000Z</time>
      </trkpt>
      <trkpt lat="47.54383" lon="1.7898229">
        <ele>156</ele>
        <time>2022-03-17T08:34:52.000Z</time>
      </trkpt>
      <trkpt lat="47.54384" lon="1.789814">
        <ele>156</ele>
        <time>2022-03-17T08:34:53.000Z</time>
      </trkpt>
      <trkpt lat="47.54385" lon="1.7898079">
        <ele>156</ele>
        <time>2022-03-17T08:34:54.000Z</time>
      </trkpt>
      <trkpt lat="47.543858" lon="1.7897998">
        <ele>156</ele>
        <time>2022-03-17T08:34:55.000Z</time>
      </trkpt>
      <trkpt lat="47.54387" lon="1.7897875">
        <ele>156</ele>
        <time>2022-03-17T08:34:56.000Z</time>
      </trkpt>
      <trkpt lat="47.543877" lon="1.789771">
        <ele>156</ele>
        <time>2022-03-17T08:34:57.000Z</time>
      </trkpt>
      <trkpt lat="47.543888" lon="1.7897619">
        <ele>156</ele>
        <time>2022-03-17T08:34:58.000Z</time>
      </trkpt>
      <trkpt lat="47.5439" lon="1.7897518">
        <ele>156</ele>
        <time>2022-03-17T08:34:59.000Z</time>
      </trkpt>
      <trkpt lat="47.54391" lon="1.7897384">
        <ele>156</ele>
        <time>2022-03-17T08:35:00.000Z</time>
      </trkpt>
      <trkpt lat="47.543922" lon="1.7897301">
        <ele>156</ele>
        <time>2022-03-17T08:35:01.000Z</time>
      </trkpt>
      <trkpt lat="47.54393" lon="1.789716">
        <ele>156</ele>
        <time>2022-03-17T08:35:02.000Z</time>
      </trkpt>
      <trkpt lat="47.543938" lon="1.7897048">
        <ele>156</ele>
        <time>2022-03-17T08:35:03.000Z</time>
      </trkpt>
      <trkpt lat="47.54395" lon="1.7896966">
        <ele>156</ele>
        <time>2022-03-17T08:35:04.000Z</time>
      </trkpt>
      <trkpt lat="47.543964" lon="1.7896847">
        <ele>156</ele>
        <time>2022-03-17T08:35:05.000Z</time>
      </trkpt>
      <trkpt lat="47.543972" lon="1.7896733">
        <ele>157</ele>
        <time>2022-03-17T08:35:06.000Z</time>
      </trkpt>
      <trkpt lat="47.54398" lon="1.7896626">
        <ele>157</ele>
        <time>2022-03-17T08:35:07.000Z</time>
      </trkpt>
      <trkpt lat="47.54399" lon="1.7896526">
        <ele>158</ele>
        <time>2022-03-17T08:35:08.000Z</time>
      </trkpt>
      <trkpt lat="47.544006" lon="1.7896448">
        <ele>158</ele>
        <time>2022-03-17T08:35:09.000Z</time>
      </trkpt>
      <trkpt lat="47.544018" lon="1.7896343">
        <ele>158</ele>
        <time>2022-03-17T08:35:10.000Z</time>
      </trkpt>
      <trkpt lat="47.54403" lon="1.7896228">
        <ele>157</ele>
        <time>2022-03-17T08:35:11.000Z</time>
      </trkpt>
      <trkpt lat="47.54404" lon="1.7896135">
        <ele>157</ele>
        <time>2022-03-17T08:35:12.000Z</time>
      </trkpt>
      <trkpt lat="47.54405" lon="1.7895994">
        <ele>157</ele>
        <time>2022-03-17T08:35:13.000Z</time>
      </trkpt>
      <trkpt lat="47.544064" lon="1.7895883">
        <ele>156</ele>
        <time>2022-03-17T08:35:14.000Z</time>
      </trkpt>
      <trkpt lat="47.54407" lon="1.7895778">
        <ele>157</ele>
        <time>2022-03-17T08:35:15.000Z</time>
      </trkpt>
      <trkpt lat="47.544083" lon="1.7895658">
        <ele>157</ele>
        <time>2022-03-17T08:35:16.000Z</time>
      </trkpt>
      <trkpt lat="47.54409" lon="1.7895622">
        <ele>157</ele>
        <time>2022-03-17T08:35:17.000Z</time>
      </trkpt>
      <trkpt lat="47.544106" lon="1.789555">
        <ele>157</ele>
        <time>2022-03-17T08:35:18.000Z</time>
      </trkpt>
      <trkpt lat="47.544117" lon="1.7895471">
        <ele>158</ele>
        <time>2022-03-17T08:35:19.000Z</time>
      </trkpt>
      <trkpt lat="47.54413" lon="1.7895379">
        <ele>158</ele>
        <time>2022-03-17T08:35:20.000Z</time>
      </trkpt>
      <trkpt lat="47.54414" lon="1.7895272">
        <ele>158</ele>
        <time>2022-03-17T08:35:21.000Z</time>
      </trkpt>
      <trkpt lat="47.544147" lon="1.7895138">
        <ele>159</ele>
        <time>2022-03-17T08:35:22.000Z</time>
      </trkpt>
      <trkpt lat="47.544155" lon="1.7895077">
        <ele>158</ele>
        <time>2022-03-17T08:35:23.000Z</time>
      </trkpt>
      <trkpt lat="47.544167" lon="1.7894989">
        <ele>158</ele>
        <time>2022-03-17T08:35:24.000Z</time>
      </trkpt>
      <trkpt lat="47.544178" lon="1.7894901">
        <ele>158</ele>
        <time>2022-03-17T08:35:25.000Z</time>
      </trkpt>
      <trkpt lat="47.54419" lon="1.7894833">
        <ele>159</ele>
        <time>2022-03-17T08:35:26.000Z</time>
      </trkpt>
      <trkpt lat="47.5442" lon="1.7894751">
        <ele>159</ele>
        <time>2022-03-17T08:35:27.000Z</time>
      </trkpt>
      <trkpt lat="47.544212" lon="1.789466">
        <ele>159</ele>
        <time>2022-03-17T08:35:28.000Z</time>
      </trkpt>
      <trkpt lat="47.544228" lon="1.7894609">
        <ele>159</ele>
        <time>2022-03-17T08:35:29.000Z</time>
      </trkpt>
      <trkpt lat="47.544243" lon="1.789451">
        <ele>160</ele>
        <time>2022-03-17T08:35:30.000Z</time>
      </trkpt>
      <trkpt lat="47.54426" lon="1.789442">
        <ele>159</ele>
        <time>2022-03-17T08:35:31.000Z</time>
      </trkpt>
      <trkpt lat="47.544273" lon="1.7894326">
        <ele>159</ele>
        <time>2022-03-17T08:35:32.000Z</time>
      </trkpt>
      <trkpt lat="47.544285" lon="1.7894224">
        <ele>159</ele>
        <time>2022-03-17T08:35:33.000Z</time>
      </trkpt>
      <trkpt lat="47.544296" lon="1.7894102">
        <ele>159</ele>
        <time>2022-03-17T08:35:34.000Z</time>
      </trkpt>
      <trkpt lat="47.544308" lon="1.7893941">
        <ele>159</ele>
        <time>2022-03-17T08:35:35.000Z</time>
      </trkpt>
      <trkpt lat="47.54432" lon="1.7893875">
        <ele>158</ele>
        <time>2022-03-17T08:35:36.000Z</time>
      </trkpt>
      <trkpt lat="47.544334" lon="1.7893754">
        <ele>158</ele>
        <time>2022-03-17T08:35:37.000Z</time>
      </trkpt>
      <trkpt lat="47.544342" lon="1.7893615">
        <ele>158</ele>
        <time>2022-03-17T08:35:38.000Z</time>
      </trkpt>
      <trkpt lat="47.544353" lon="1.7893486">
        <ele>158</ele>
        <time>2022-03-17T08:35:39.000Z</time>
      </trkpt>
      <trkpt lat="47.544365" lon="1.78934">
        <ele>158</ele>
        <time>2022-03-17T08:35:40.000Z</time>
      </trkpt>
      <trkpt lat="47.544376" lon="1.7893379">
        <ele>158</ele>
        <time>2022-03-17T08:35:41.000Z</time>
      </trkpt>
      <trkpt lat="47.544388" lon="1.7893267">
        <ele>158</ele>
        <time>2022-03-17T08:35:42.000Z</time>
      </trkpt>
      <trkpt lat="47.5444" lon="1.7893167">
        <ele>157</ele>
        <time>2022-03-17T08:35:43.000Z</time>
      </trkpt>
      <trkpt lat="47.54441" lon="1.789307">
        <ele>158</ele>
        <time>2022-03-17T08:35:44.000Z</time>
      </trkpt>
      <trkpt lat="47.54442" lon="1.7892957">
        <ele>158</ele>
        <time>2022-03-17T08:35:45.000Z</time>
      </trkpt>
      <trkpt lat="47.54443" lon="1.7892842">
        <ele>158</ele>
        <time>2022-03-17T08:35:46.000Z</time>
      </trkpt>
      <trkpt lat="47.544437" lon="1.7892756">
        <ele>158</ele>
        <time>2022-03-17T08:35:47.000Z</time>
      </trkpt>
      <trkpt lat="47.54445" lon="1.7892604">
        <ele>158</ele>
        <time>2022-03-17T08:35:48.000Z</time>
      </trkpt>
      <trkpt lat="47.544456" lon="1.789246">
        <ele>158</ele>
        <time>2022-03-17T08:35:49.000Z</time>
      </trkpt>
      <trkpt lat="47.544468" lon="1.7892319">
        <ele>158</ele>
        <time>2022-03-17T08:35:50.000Z</time>
      </trkpt>
      <trkpt lat="47.544476" lon="1.789221">
        <ele>158</ele>
        <time>2022-03-17T08:35:51.000Z</time>
      </trkpt>
      <trkpt lat="47.544487" lon="1.7892185">
        <ele>158</ele>
        <time>2022-03-17T08:35:52.000Z</time>
      </trkpt>
      <trkpt lat="47.544495" lon="1.7892051">
        <ele>158</ele>
        <time>2022-03-17T08:35:53.000Z</time>
      </trkpt>
      <trkpt lat="47.544502" lon="1.789193">
        <ele>158</ele>
        <time>2022-03-17T08:35:54.000Z</time>
      </trkpt>
      <trkpt lat="47.544514" lon="1.7891812">
        <ele>158</ele>
        <time>2022-03-17T08:35:55.000Z</time>
      </trkpt>
      <trkpt lat="47.544525" lon="1.7891713">
        <ele>158</ele>
        <time>2022-03-17T08:35:56.000Z</time>
      </trkpt>
      <trkpt lat="47.544533" lon="1.7891617">
        <ele>159</ele>
        <time>2022-03-17T08:35:57.000Z</time>
      </trkpt>
      <trkpt lat="47.544544" lon="1.7891536">
        <ele>159</ele>
        <time>2022-03-17T08:35:58.000Z</time>
      </trkpt>
      <trkpt lat="47.54455" lon="1.7891425">
        <ele>159</ele>
        <time>2022-03-17T08:35:59.000Z</time>
      </trkpt>
      <trkpt lat="47.54456" lon="1.789133">
        <ele>159</ele>
        <time>2022-03-17T08:36:00.000Z</time>
      </trkpt>
      <trkpt lat="47.544567" lon="1.7891237">
        <ele>159</ele>
        <time>2022-03-17T08:36:01.000Z</time>
      </trkpt>
      <trkpt lat="47.54458" lon="1.7891126">
        <ele>159</ele>
        <time>2022-03-17T08:36:02.000Z</time>
      </trkpt>
      <trkpt lat="47.54459" lon="1.7891039">
        <ele>159</ele>
        <time>2022-03-17T08:36:03.000Z</time>
      </trkpt>
      <trkpt lat="47.544605" lon="1.7890956">
        <ele>159</ele>
        <time>2022-03-17T08:36:04.000Z</time>
      </trkpt>
      <trkpt lat="47.544613" lon="1.7890807">
        <ele>159</ele>
        <time>2022-03-17T08:36:05.000Z</time>
      </trkpt>
      <trkpt lat="47.544624" lon="1.7890635">
        <ele>159</ele>
        <time>2022-03-17T08:36:06.000Z</time>
      </trkpt>
      <trkpt lat="47.544636" lon="1.7890453">
        <ele>159</ele>
        <time>2022-03-17T08:36:07.000Z</time>
      </trkpt>
      <trkpt lat="47.544647" lon="1.7890325">
        <ele>159</ele>
        <time>2022-03-17T08:36:08.000Z</time>
      </trkpt>
      <trkpt lat="47.544662" lon="1.7890223">
        <ele>159</ele>
        <time>2022-03-17T08:36:09.000Z</time>
      </trkpt>
      <trkpt lat="47.54467" lon="1.789012">
        <ele>159</ele>
        <time>2022-03-17T08:36:10.000Z</time>
      </trkpt>
      <trkpt lat="47.544678" lon="1.7890003">
        <ele>159</ele>
        <time>2022-03-17T08:36:11.000Z</time>
      </trkpt>
      <trkpt lat="47.54469" lon="1.7889837">
        <ele>159</ele>
        <time>2022-03-17T08:36:12.000Z</time>
      </trkpt>
      <trkpt lat="47.5447" lon="1.7889768">
        <ele>158</ele>
        <time>2022-03-17T08:36:13.000Z</time>
      </trkpt>
      <trkpt lat="47.54471" lon="1.7889645">
        <ele>158</ele>
        <time>2022-03-17T08:36:14.000Z</time>
      </trkpt>
      <trkpt lat="47.544716" lon="1.7889493">
        <ele>158</ele>
        <time>2022-03-17T08:36:15.000Z</time>
      </trkpt>
      <trkpt lat="47.544727" lon="1.7889376">
        <ele>158</ele>
        <time>2022-03-17T08:36:16.000Z</time>
      </trkpt>
      <trkpt lat="47.544735" lon="1.7889223">
        <ele>158</ele>
        <time>2022-03-17T08:36:17.000Z</time>
      </trkpt>
      <trkpt lat="47.544743" lon="1.7889113">
        <ele>158</ele>
        <time>2022-03-17T08:36:18.000Z</time>
      </trkpt>
      <trkpt lat="47.544746" lon="1.7888978">
        <ele>158</ele>
        <time>2022-03-17T08:36:19.000Z</time>
      </trkpt>
      <trkpt lat="47.544754" lon="1.7888839">
        <ele>158</ele>
        <time>2022-03-17T08:36:20.000Z</time>
      </trkpt>
      <trkpt lat="47.54476" lon="1.7888737">
        <ele>158</ele>
        <time>2022-03-17T08:36:21.000Z</time>
      </trkpt>
      <trkpt lat="47.54477" lon="1.788863">
        <ele>157</ele>
        <time>2022-03-17T08:36:22.000Z</time>
      </trkpt>
      <trkpt lat="47.544777" lon="1.788851">
        <ele>157</ele>
        <time>2022-03-17T08:36:23.000Z</time>
      </trkpt>
      <trkpt lat="47.54478" lon="1.7888428">
        <ele>157</ele>
        <time>2022-03-17T08:36:24.000Z</time>
      </trkpt>
      <trkpt lat="47.54479" lon="1.7888343">
        <ele>156</ele>
        <time>2022-03-17T08:36:25.000Z</time>
      </trkpt>
      <trkpt lat="47.544792" lon="1.7888223">
        <ele>155</ele>
        <time>2022-03-17T08:36:26.000Z</time>
      </trkpt>
      <trkpt lat="47.5448" lon="1.7888117">
        <ele>155</ele>
        <time>2022-03-17T08:36:27.000Z</time>
      </trkpt>
      <trkpt lat="47.544804" lon="1.7888035">
        <ele>155</ele>
        <time>2022-03-17T08:36:28.000Z</time>
      </trkpt>
      <trkpt lat="47.54481" lon="1.788793">
        <ele>155</ele>
        <time>2022-03-17T08:36:29.000Z</time>
      </trkpt>
      <trkpt lat="47.544823" lon="1.7887837">
        <ele>155</ele>
        <time>2022-03-17T08:36:30.000Z</time>
      </trkpt>
      <trkpt lat="47.54483" lon="1.7887709">
        <ele>155</ele>
        <time>2022-03-17T08:36:31.000Z</time>
      </trkpt>
      <trkpt lat="47.54484" lon="1.7887543">
        <ele>155</ele>
        <time>2022-03-17T08:36:32.000Z</time>
      </trkpt>
      <trkpt lat="47.54485" lon="1.7887396">
        <ele>155</ele>
        <time>2022-03-17T08:36:33.000Z</time>
      </trkpt>
      <trkpt lat="47.544857" lon="1.7887279">
        <ele>155</ele>
        <time>2022-03-17T08:36:34.000Z</time>
      </trkpt>
      <trkpt lat="47.54486" lon="1.7887131">
        <ele>155</ele>
        <time>2022-03-17T08:36:35.000Z</time>
      </trkpt>
      <trkpt lat="47.544872" lon="1.7887014">
        <ele>155</ele>
        <time>2022-03-17T08:36:36.000Z</time>
      </trkpt>
      <trkpt lat="47.544884" lon="1.7886937">
        <ele>155</ele>
        <time>2022-03-17T08:36:37.000Z</time>
      </trkpt>
      <trkpt lat="47.544895" lon="1.7886877">
        <ele>155</ele>
        <time>2022-03-17T08:36:38.000Z</time>
      </trkpt>
      <trkpt lat="47.544903" lon="1.7886786">
        <ele>155</ele>
        <time>2022-03-17T08:36:39.000Z</time>
      </trkpt>
      <trkpt lat="47.54491" lon="1.7886678">
        <ele>155</ele>
        <time>2022-03-17T08:36:40.000Z</time>
      </trkpt>
      <trkpt lat="47.544918" lon="1.7886552">
        <ele>155</ele>
        <time>2022-03-17T08:36:41.000Z</time>
      </trkpt>
      <trkpt lat="47.54493" lon="1.7886426">
        <ele>156</ele>
        <time>2022-03-17T08:36:42.000Z</time>
      </trkpt>
      <trkpt lat="47.544937" lon="1.7886324">
        <ele>155</ele>
        <time>2022-03-17T08:36:43.000Z</time>
      </trkpt>
      <trkpt lat="47.54495" lon="1.7886217">
        <ele>155</ele>
        <time>2022-03-17T08:36:44.000Z</time>
      </trkpt>
      <trkpt lat="47.544956" lon="1.7886118">
        <ele>156</ele>
        <time>2022-03-17T08:36:45.000Z</time>
      </trkpt>
      <trkpt lat="47.544964" lon="1.7886041">
        <ele>156</ele>
        <time>2022-03-17T08:36:46.000Z</time>
      </trkpt>
      <trkpt lat="47.544975" lon="1.7885957">
        <ele>156</ele>
        <time>2022-03-17T08:36:47.000Z</time>
      </trkpt>
      <trkpt lat="47.544983" lon="1.7885877">
        <ele>156</ele>
        <time>2022-03-17T08:36:48.000Z</time>
      </trkpt>
      <trkpt lat="47.54499" lon="1.7885801">
        <ele>156</ele>
        <time>2022-03-17T08:36:49.000Z</time>
      </trkpt>
      <trkpt lat="47.545002" lon="1.7885734">
        <ele>156</ele>
        <time>2022-03-17T08:36:50.000Z</time>
      </trkpt>
      <trkpt lat="47.54501" lon="1.7885661">
        <ele>156</ele>
        <time>2022-03-17T08:36:51.000Z</time>
      </trkpt>
      <trkpt lat="47.54502" lon="1.7885554">
        <ele>156</ele>
        <time>2022-03-17T08:36:52.000Z</time>
      </trkpt>
      <trkpt lat="47.54503" lon="1.7885449">
        <ele>156</ele>
        <time>2022-03-17T08:36:53.000Z</time>
      </trkpt>
      <trkpt lat="47.545036" lon="1.7885367">
        <ele>156</ele>
        <time>2022-03-17T08:36:54.000Z</time>
      </trkpt>
      <trkpt lat="47.545048" lon="1.7885267">
        <ele>157</ele>
        <time>2022-03-17T08:36:55.000Z</time>
      </trkpt>
      <trkpt lat="47.545055" lon="1.788514">
        <ele>157</ele>
        <time>2022-03-17T08:36:56.000Z</time>
      </trkpt>
      <trkpt lat="47.545067" lon="1.7885014">
        <ele>157</ele>
        <time>2022-03-17T08:36:57.000Z</time>
      </trkpt>
      <trkpt lat="47.545082" lon="1.7884892">
        <ele>157</ele>
        <time>2022-03-17T08:36:58.000Z</time>
      </trkpt>
      <trkpt lat="47.545097" lon="1.7884768">
        <ele>157</ele>
        <time>2022-03-17T08:36:59.000Z</time>
      </trkpt>
      <trkpt lat="47.54511" lon="1.7884665">
        <ele>158</ele>
        <time>2022-03-17T08:37:00.000Z</time>
      </trkpt>
      <trkpt lat="47.545124" lon="1.7884558">
        <ele>158</ele>
        <time>2022-03-17T08:37:01.000Z</time>
      </trkpt>
      <trkpt lat="47.545135" lon="1.7884418">
        <ele>158</ele>
        <time>2022-03-17T08:37:02.000Z</time>
      </trkpt>
      <trkpt lat="47.545143" lon="1.7884305">
        <ele>158</ele>
        <time>2022-03-17T08:37:03.000Z</time>
      </trkpt>
      <trkpt lat="47.54515" lon="1.7884175">
        <ele>158</ele>
        <time>2022-03-17T08:37:04.000Z</time>
      </trkpt>
      <trkpt lat="47.54516" lon="1.7884041">
        <ele>158</ele>
        <time>2022-03-17T08:37:05.000Z</time>
      </trkpt>
      <trkpt lat="47.54517" lon="1.7883896">
        <ele>158</ele>
        <time>2022-03-17T08:37:06.000Z</time>
      </trkpt>
      <trkpt lat="47.545177" lon="1.7883741">
        <ele>158</ele>
        <time>2022-03-17T08:37:07.000Z</time>
      </trkpt>
      <trkpt lat="47.54519" lon="1.7883618">
        <ele>157</ele>
        <time>2022-03-17T08:37:08.000Z</time>
      </trkpt>
      <trkpt lat="47.545197" lon="1.7883503">
        <ele>157</ele>
        <time>2022-03-17T08:37:09.000Z</time>
      </trkpt>
      <trkpt lat="47.545204" lon="1.7883394">
        <ele>157</ele>
        <time>2022-03-17T08:37:10.000Z</time>
      </trkpt>
      <trkpt lat="47.545216" lon="1.7883307">
        <ele>156</ele>
        <time>2022-03-17T08:37:11.000Z</time>
      </trkpt>
      <trkpt lat="47.545227" lon="1.7883214">
        <ele>157</ele>
        <time>2022-03-17T08:37:12.000Z</time>
      </trkpt>
      <trkpt lat="47.545235" lon="1.7883111">
        <ele>157</ele>
        <time>2022-03-17T08:37:13.000Z</time>
      </trkpt>
      <trkpt lat="47.545246" lon="1.7883022">
        <ele>157</ele>
        <time>2022-03-17T08:37:14.000Z</time>
      </trkpt>
      <trkpt lat="47.545258" lon="1.7882876">
        <ele>157</ele>
        <time>2022-03-17T08:37:15.000Z</time>
      </trkpt>
      <trkpt lat="47.54527" lon="1.7882748">
        <ele>158</ele>
        <time>2022-03-17T08:37:16.000Z</time>
      </trkpt>
      <trkpt lat="47.545277" lon="1.7882596">
        <ele>157</ele>
        <time>2022-03-17T08:37:17.000Z</time>
      </trkpt>
      <trkpt lat="47.545288" lon="1.7882425">
        <ele>157</ele>
        <time>2022-03-17T08:37:18.000Z</time>
      </trkpt>
      <trkpt lat="47.545296" lon="1.7882297">
        <ele>157</ele>
        <time>2022-03-17T08:37:19.000Z</time>
      </trkpt>
      <trkpt lat="47.545307" lon="1.7882196">
        <ele>157</ele>
        <time>2022-03-17T08:37:20.000Z</time>
      </trkpt>
      <trkpt lat="47.54532" lon="1.7882112">
        <ele>157</ele>
        <time>2022-03-17T08:37:21.000Z</time>
      </trkpt>
      <trkpt lat="47.54533" lon="1.7881995">
        <ele>157</ele>
        <time>2022-03-17T08:37:22.000Z</time>
      </trkpt>
      <trkpt lat="47.54534" lon="1.7881894">
        <ele>157</ele>
        <time>2022-03-17T08:37:23.000Z</time>
      </trkpt>
      <trkpt lat="47.54535" lon="1.788178">
        <ele>157</ele>
        <time>2022-03-17T08:37:24.000Z</time>
      </trkpt>
      <trkpt lat="47.545357" lon="1.7881659">
        <ele>157</ele>
        <time>2022-03-17T08:37:25.000Z</time>
      </trkpt>
      <trkpt lat="47.545364" lon="1.7881527">
        <ele>157</ele>
        <time>2022-03-17T08:37:26.000Z</time>
      </trkpt>
      <trkpt lat="47.545372" lon="1.7881416">
        <ele>158</ele>
        <time>2022-03-17T08:37:27.000Z</time>
      </trkpt>
      <trkpt lat="47.545383" lon="1.7881312">
        <ele>158</ele>
        <time>2022-03-17T08:37:28.000Z</time>
      </trkpt>
      <trkpt lat="47.54539" lon="1.7881228">
        <ele>158</ele>
        <time>2022-03-17T08:37:29.000Z</time>
      </trkpt>
      <trkpt lat="47.5454" lon="1.7881105">
        <ele>158</ele>
        <time>2022-03-17T08:37:30.000Z</time>
      </trkpt>
      <trkpt lat="47.545406" lon="1.7881018">
        <ele>158</ele>
        <time>2022-03-17T08:37:31.000Z</time>
      </trkpt>
      <trkpt lat="47.545418" lon="1.788095">
        <ele>158</ele>
        <time>2022-03-17T08:37:32.000Z</time>
      </trkpt>
      <trkpt lat="47.545425" lon="1.7880864">
        <ele>158</ele>
        <time>2022-03-17T08:37:33.000Z</time>
      </trkpt>
      <trkpt lat="47.545437" lon="1.7880815">
        <ele>158</ele>
        <time>2022-03-17T08:37:34.000Z</time>
      </trkpt>
      <trkpt lat="47.545456" lon="1.7880707">
        <ele>158</ele>
        <time>2022-03-17T08:37:35.000Z</time>
      </trkpt>
      <trkpt lat="47.545467" lon="1.7880563">
        <ele>158</ele>
        <time>2022-03-17T08:37:36.000Z</time>
      </trkpt>
      <trkpt lat="47.54548" lon="1.788044">
        <ele>159</ele>
        <time>2022-03-17T08:37:37.000Z</time>
      </trkpt>
      <trkpt lat="47.545486" lon="1.7880301">
        <ele>158</ele>
        <time>2022-03-17T08:37:38.000Z</time>
      </trkpt>
      <trkpt lat="47.5455" lon="1.78802">
        <ele>158</ele>
        <time>2022-03-17T08:37:39.000Z</time>
      </trkpt>
      <trkpt lat="47.545513" lon="1.7880086">
        <ele>159</ele>
        <time>2022-03-17T08:37:40.000Z</time>
      </trkpt>
      <trkpt lat="47.545525" lon="1.7879975">
        <ele>158</ele>
        <time>2022-03-17T08:37:41.000Z</time>
      </trkpt>
      <trkpt lat="47.545536" lon="1.7879878">
        <ele>158</ele>
        <time>2022-03-17T08:37:42.000Z</time>
      </trkpt>
      <trkpt lat="47.545547" lon="1.7879789">
        <ele>158</ele>
        <time>2022-03-17T08:37:43.000Z</time>
      </trkpt>
      <trkpt lat="47.545555" lon="1.78797">
        <ele>158</ele>
        <time>2022-03-17T08:37:44.000Z</time>
      </trkpt>
      <trkpt lat="47.54557" lon="1.7879614">
        <ele>158</ele>
        <time>2022-03-17T08:37:45.000Z</time>
      </trkpt>
      <trkpt lat="47.545578" lon="1.7879524">
        <ele>158</ele>
        <time>2022-03-17T08:37:46.000Z</time>
      </trkpt>
      <trkpt lat="47.545593" lon="1.7879446">
        <ele>158</ele>
        <time>2022-03-17T08:37:47.000Z</time>
      </trkpt>
      <trkpt lat="47.545597" lon="1.7879354">
        <ele>158</ele>
        <time>2022-03-17T08:37:48.000Z</time>
      </trkpt>
      <trkpt lat="47.54561" lon="1.7879225">
        <ele>158</ele>
        <time>2022-03-17T08:37:49.000Z</time>
      </trkpt>
      <trkpt lat="47.54562" lon="1.787911">
        <ele>158</ele>
        <time>2022-03-17T08:37:50.000Z</time>
      </trkpt>
      <trkpt lat="47.545624" lon="1.7878999">
        <ele>158</ele>
        <time>2022-03-17T08:37:51.000Z</time>
      </trkpt>
      <trkpt lat="47.545635" lon="1.7878866">
        <ele>158</ele>
        <time>2022-03-17T08:37:52.000Z</time>
      </trkpt>
      <trkpt lat="47.545643" lon="1.7878757">
        <ele>158</ele>
        <time>2022-03-17T08:37:53.000Z</time>
      </trkpt>
      <trkpt lat="47.54565" lon="1.7878675">
        <ele>157</ele>
        <time>2022-03-17T08:37:54.000Z</time>
      </trkpt>
      <trkpt lat="47.54566" lon="1.7878578">
        <ele>157</ele>
        <time>2022-03-17T08:37:55.000Z</time>
      </trkpt>
      <trkpt lat="47.54567" lon="1.7878486">
        <ele>157</ele>
        <time>2022-03-17T08:37:56.000Z</time>
      </trkpt>
      <trkpt lat="47.54568" lon="1.7878361">
        <ele>157</ele>
        <time>2022-03-17T08:37:57.000Z</time>
      </trkpt>
      <trkpt lat="47.54569" lon="1.7878224">
        <ele>156</ele>
        <time>2022-03-17T08:37:58.000Z</time>
      </trkpt>
      <trkpt lat="47.5457" lon="1.7878119">
        <ele>157</ele>
        <time>2022-03-17T08:37:59.000Z</time>
      </trkpt>
      <trkpt lat="47.545708" lon="1.7877996">
        <ele>157</ele>
        <time>2022-03-17T08:38:00.000Z</time>
      </trkpt>
      <trkpt lat="47.54572" lon="1.7877879">
        <ele>157</ele>
        <time>2022-03-17T08:38:01.000Z</time>
      </trkpt>
      <trkpt lat="47.545727" lon="1.7877755">
        <ele>157</ele>
        <time>2022-03-17T08:38:02.000Z</time>
      </trkpt>
      <trkpt lat="47.545734" lon="1.7877623">
        <ele>157</ele>
        <time>2022-03-17T08:38:03.000Z</time>
      </trkpt>
      <trkpt lat="47.545742" lon="1.7877469">
        <ele>158</ele>
        <time>2022-03-17T08:38:04.000Z</time>
      </trkpt>
      <trkpt lat="47.54575" lon="1.7877342">
        <ele>157</ele>
        <time>2022-03-17T08:38:05.000Z</time>
      </trkpt>
      <trkpt lat="47.545757" lon="1.7877232">
        <ele>157</ele>
        <time>2022-03-17T08:38:06.000Z</time>
      </trkpt>
      <trkpt lat="47.54577" lon="1.7877113">
        <ele>157</ele>
        <time>2022-03-17T08:38:07.000Z</time>
      </trkpt>
      <trkpt lat="47.545776" lon="1.7877071">
        <ele>157</ele>
        <time>2022-03-17T08:38:08.000Z</time>
      </trkpt>
      <trkpt lat="47.545788" lon="1.7876942">
        <ele>157</ele>
        <time>2022-03-17T08:38:09.000Z</time>
      </trkpt>
      <trkpt lat="47.545795" lon="1.7876873">
        <ele>157</ele>
        <time>2022-03-17T08:38:10.000Z</time>
      </trkpt>
      <trkpt lat="47.545803" lon="1.7876761">
        <ele>157</ele>
        <time>2022-03-17T08:38:11.000Z</time>
      </trkpt>
      <trkpt lat="47.54581" lon="1.7876655">
        <ele>157</ele>
        <time>2022-03-17T08:38:12.000Z</time>
      </trkpt>
      <trkpt lat="47.54582" lon="1.7876543">
        <ele>158</ele>
        <time>2022-03-17T08:38:13.000Z</time>
      </trkpt>
      <trkpt lat="47.54583" lon="1.7876396">
        <ele>157</ele>
        <time>2022-03-17T08:38:14.000Z</time>
      </trkpt>
      <trkpt lat="47.545837" lon="1.7876238">
        <ele>157</ele>
        <time>2022-03-17T08:38:15.000Z</time>
      </trkpt>
      <trkpt lat="47.545837" lon="1.7876219">
        <ele>156</ele>
        <time>2022-03-17T08:38:16.000Z</time>
      </trkpt>
      <trkpt lat="47.54584" lon="1.7876157">
        <ele>156</ele>
        <time>2022-03-17T08:38:17.000Z</time>
      </trkpt>
      <trkpt lat="47.54585" lon="1.7876124">
        <ele>156</ele>
        <time>2022-03-17T08:38:18.000Z</time>
      </trkpt>
      <trkpt lat="47.54586" lon="1.7875973">
        <ele>157</ele>
        <time>2022-03-17T08:38:19.000Z</time>
      </trkpt>
      <trkpt lat="47.545864" lon="1.7875859">
        <ele>157</ele>
        <time>2022-03-17T08:38:20.000Z</time>
      </trkpt>
      <trkpt lat="47.545876" lon="1.7875757">
        <ele>157</ele>
        <time>2022-03-17T08:38:21.000Z</time>
      </trkpt>
      <trkpt lat="47.545883" lon="1.7875634">
        <ele>157</ele>
        <time>2022-03-17T08:38:22.000Z</time>
      </trkpt>
      <trkpt lat="47.54589" lon="1.7875489">
        <ele>156</ele>
        <time>2022-03-17T08:38:23.000Z</time>
      </trkpt>
      <trkpt lat="47.545902" lon="1.7875457">
        <ele>156</ele>
        <time>2022-03-17T08:38:24.000Z</time>
      </trkpt>
      <trkpt lat="47.54591" lon="1.7875396">
        <ele>155</ele>
        <time>2022-03-17T08:38:25.000Z</time>
      </trkpt>
      <trkpt lat="47.54592" lon="1.7875296">
        <ele>155</ele>
        <time>2022-03-17T08:38:26.000Z</time>
      </trkpt>
      <trkpt lat="47.545933" lon="1.7875255">
        <ele>155</ele>
        <time>2022-03-17T08:38:27.000Z</time>
      </trkpt>
      <trkpt lat="47.545944" lon="1.787517">
        <ele>155</ele>
        <time>2022-03-17T08:38:28.000Z</time>
      </trkpt>
      <trkpt lat="47.545956" lon="1.7875019">
        <ele>155</ele>
        <time>2022-03-17T08:38:29.000Z</time>
      </trkpt>
      <trkpt lat="47.545963" lon="1.7874877">
        <ele>155</ele>
        <time>2022-03-17T08:38:30.000Z</time>
      </trkpt>
      <trkpt lat="47.545975" lon="1.7874765">
        <ele>155</ele>
        <time>2022-03-17T08:38:31.000Z</time>
      </trkpt>
      <trkpt lat="47.545986" lon="1.7874653">
        <ele>155</ele>
        <time>2022-03-17T08:38:32.000Z</time>
      </trkpt>
      <trkpt lat="47.546" lon="1.7874554">
        <ele>155</ele>
        <time>2022-03-17T08:38:33.000Z</time>
      </trkpt>
      <trkpt lat="47.54602" lon="1.7874432">
        <ele>155</ele>
        <time>2022-03-17T08:38:34.000Z</time>
      </trkpt>
      <trkpt lat="47.546036" lon="1.7874318">
        <ele>156</ele>
        <time>2022-03-17T08:38:35.000Z</time>
      </trkpt>
      <trkpt lat="47.54605" lon="1.7874224">
        <ele>156</ele>
        <time>2022-03-17T08:38:36.000Z</time>
      </trkpt>
      <trkpt lat="47.546066" lon="1.7874147">
        <ele>155</ele>
        <time>2022-03-17T08:38:37.000Z</time>
      </trkpt>
      <trkpt lat="47.54608" lon="1.7874041">
        <ele>155</ele>
        <time>2022-03-17T08:38:38.000Z</time>
      </trkpt>
      <trkpt lat="47.546093" lon="1.7873949">
        <ele>155</ele>
        <time>2022-03-17T08:38:39.000Z</time>
      </trkpt>
      <trkpt lat="47.546104" lon="1.7873863">
        <ele>155</ele>
        <time>2022-03-17T08:38:40.000Z</time>
      </trkpt>
      <trkpt lat="47.546116" lon="1.7873774">
        <ele>155</ele>
        <time>2022-03-17T08:38:41.000Z</time>
      </trkpt>
      <trkpt lat="47.54613" lon="1.787366">
        <ele>155</ele>
        <time>2022-03-17T08:38:42.000Z</time>
      </trkpt>
      <trkpt lat="47.546146" lon="1.7873548">
        <ele>156</ele>
        <time>2022-03-17T08:38:43.000Z</time>
      </trkpt>
      <trkpt lat="47.546158" lon="1.787343">
        <ele>156</ele>
        <time>2022-03-17T08:38:44.000Z</time>
      </trkpt>
      <trkpt lat="47.54617" lon="1.7873322">
        <ele>156</ele>
        <time>2022-03-17T08:38:45.000Z</time>
      </trkpt>
      <trkpt lat="47.54618" lon="1.7873251">
        <ele>155</ele>
        <time>2022-03-17T08:38:46.000Z</time>
      </trkpt>
      <trkpt lat="47.546196" lon="1.7873122">
        <ele>156</ele>
        <time>2022-03-17T08:38:47.000Z</time>
      </trkpt>
      <trkpt lat="47.546204" lon="1.7873029">
        <ele>156</ele>
        <time>2022-03-17T08:38:48.000Z</time>
      </trkpt>
      <trkpt lat="47.54621" lon="1.7872918">
        <ele>155</ele>
        <time>2022-03-17T08:38:49.000Z</time>
      </trkpt>
      <trkpt lat="47.546223" lon="1.7872828">
        <ele>156</ele>
        <time>2022-03-17T08:38:50.000Z</time>
      </trkpt>
      <trkpt lat="47.546238" lon="1.7872726">
        <ele>156</ele>
        <time>2022-03-17T08:38:51.000Z</time>
      </trkpt>
      <trkpt lat="47.546253" lon="1.7872616">
        <ele>156</ele>
        <time>2022-03-17T08:38:52.000Z</time>
      </trkpt>
      <trkpt lat="47.54626" lon="1.7872548">
        <ele>156</ele>
        <time>2022-03-17T08:38:53.000Z</time>
      </trkpt>
      <trkpt lat="47.546276" lon="1.7872458">
        <ele>156</ele>
        <time>2022-03-17T08:38:54.000Z</time>
      </trkpt>
      <trkpt lat="47.546284" lon="1.7872393">
        <ele>157</ele>
        <time>2022-03-17T08:38:55.000Z</time>
      </trkpt>
      <trkpt lat="47.546295" lon="1.7872288">
        <ele>157</ele>
        <time>2022-03-17T08:38:56.000Z</time>
      </trkpt>
      <trkpt lat="47.546303" lon="1.7872218">
        <ele>157</ele>
        <time>2022-03-17T08:38:57.000Z</time>
      </trkpt>
      <trkpt lat="47.546314" lon="1.7872139">
        <ele>157</ele>
        <time>2022-03-17T08:38:58.000Z</time>
      </trkpt>
      <trkpt lat="47.546326" lon="1.7872028">
        <ele>157</ele>
        <time>2022-03-17T08:38:59.000Z</time>
      </trkpt>
      <trkpt lat="47.546333" lon="1.7871907">
        <ele>157</ele>
        <time>2022-03-17T08:39:00.000Z</time>
      </trkpt>
      <trkpt lat="47.54635" lon="1.7871777">
        <ele>157</ele>
        <time>2022-03-17T08:39:01.000Z</time>
      </trkpt>
      <trkpt lat="47.546356" lon="1.7871633">
        <ele>157</ele>
        <time>2022-03-17T08:39:02.000Z</time>
      </trkpt>
      <trkpt lat="47.546364" lon="1.7871542">
        <ele>156</ele>
        <time>2022-03-17T08:39:03.000Z</time>
      </trkpt>
      <trkpt lat="47.54637" lon="1.7871449">
        <ele>156</ele>
        <time>2022-03-17T08:39:04.000Z</time>
      </trkpt>
      <trkpt lat="47.546383" lon="1.787137">
        <ele>155</ele>
        <time>2022-03-17T08:39:05.000Z</time>
      </trkpt>
      <trkpt lat="47.546394" lon="1.7871238">
        <ele>155</ele>
        <time>2022-03-17T08:39:06.000Z</time>
      </trkpt>
      <trkpt lat="47.546402" lon="1.787111">
        <ele>155</ele>
        <time>2022-03-17T08:39:07.000Z</time>
      </trkpt>
      <trkpt lat="47.546413" lon="1.7871016">
        <ele>156</ele>
        <time>2022-03-17T08:39:08.000Z</time>
      </trkpt>
      <trkpt lat="47.546425" lon="1.787091">
        <ele>156</ele>
        <time>2022-03-17T08:39:09.000Z</time>
      </trkpt>
      <trkpt lat="47.546432" lon="1.787082">
        <ele>156</ele>
        <time>2022-03-17T08:39:10.000Z</time>
      </trkpt>
      <trkpt lat="47.546444" lon="1.7870715">
        <ele>155</ele>
        <time>2022-03-17T08:39:11.000Z</time>
      </trkpt>
      <trkpt lat="47.54645" lon="1.7870626">
        <ele>156</ele>
        <time>2022-03-17T08:39:12.000Z</time>
      </trkpt>
      <trkpt lat="47.54646" lon="1.7870561">
        <ele>156</ele>
        <time>2022-03-17T08:39:13.000Z</time>
      </trkpt>
      <trkpt lat="47.54647" lon="1.7870506">
        <ele>156</ele>
        <time>2022-03-17T08:39:14.000Z</time>
      </trkpt>
      <trkpt lat="47.546482" lon="1.7870414">
        <ele>156</ele>
        <time>2022-03-17T08:39:15.000Z</time>
      </trkpt>
      <trkpt lat="47.546494" lon="1.7870326">
        <ele>156</ele>
        <time>2022-03-17T08:39:16.000Z</time>
      </trkpt>
      <trkpt lat="47.546505" lon="1.7870222">
        <ele>156</ele>
        <time>2022-03-17T08:39:17.000Z</time>
      </trkpt>
      <trkpt lat="47.546516" lon="1.7870089">
        <ele>156</ele>
        <time>2022-03-17T08:39:18.000Z</time>
      </trkpt>
      <trkpt lat="47.546528" lon="1.7869934">
        <ele>156</ele>
        <time>2022-03-17T08:39:19.000Z</time>
      </trkpt>
      <trkpt lat="47.546535" lon="1.7869818">
        <ele>156</ele>
        <time>2022-03-17T08:39:20.000Z</time>
      </trkpt>
      <trkpt lat="47.546547" lon="1.7869725">
        <ele>156</ele>
        <time>2022-03-17T08:39:21.000Z</time>
      </trkpt>
      <trkpt lat="47.54656" lon="1.7869662">
        <ele>156</ele>
        <time>2022-03-17T08:39:22.000Z</time>
      </trkpt>
      <trkpt lat="47.54657" lon="1.7869573">
        <ele>156</ele>
        <time>2022-03-17T08:39:23.000Z</time>
      </trkpt>
      <trkpt lat="47.54658" lon="1.7869476">
        <ele>156</ele>
        <time>2022-03-17T08:39:24.000Z</time>
      </trkpt>
      <trkpt lat="47.546593" lon="1.7869363">
        <ele>156</ele>
        <time>2022-03-17T08:39:25.000Z</time>
      </trkpt>
      <trkpt lat="47.5466" lon="1.7869273">
        <ele>156</ele>
        <time>2022-03-17T08:39:26.000Z</time>
      </trkpt>
      <trkpt lat="47.54661" lon="1.7869169">
        <ele>156</ele>
        <time>2022-03-17T08:39:27.000Z</time>
      </trkpt>
      <trkpt lat="47.546623" lon="1.7869084">
        <ele>156</ele>
        <time>2022-03-17T08:39:28.000Z</time>
      </trkpt>
      <trkpt lat="47.54663" lon="1.7869023">
        <ele>155</ele>
        <time>2022-03-17T08:39:29.000Z</time>
      </trkpt>
      <trkpt lat="47.546642" lon="1.7868928">
        <ele>156</ele>
        <time>2022-03-17T08:39:30.000Z</time>
      </trkpt>
      <trkpt lat="47.54665" lon="1.7868787">
        <ele>156</ele>
        <time>2022-03-17T08:39:31.000Z</time>
      </trkpt>
      <trkpt lat="47.546658" lon="1.7868658">
        <ele>155</ele>
        <time>2022-03-17T08:39:32.000Z</time>
      </trkpt>
      <trkpt lat="47.54667" lon="1.786859">
        <ele>155</ele>
        <time>2022-03-17T08:39:33.000Z</time>
      </trkpt>
      <trkpt lat="47.54668" lon="1.7868514">
        <ele>155</ele>
        <time>2022-03-17T08:39:34.000Z</time>
      </trkpt>
      <trkpt lat="47.546688" lon="1.7868432">
        <ele>154</ele>
        <time>2022-03-17T08:39:35.000Z</time>
      </trkpt>
      <trkpt lat="47.546696" lon="1.7868314">
        <ele>154</ele>
        <time>2022-03-17T08:39:36.000Z</time>
      </trkpt>
      <trkpt lat="47.546703" lon="1.7868196">
        <ele>154</ele>
        <time>2022-03-17T08:39:37.000Z</time>
      </trkpt>
      <trkpt lat="47.54671" lon="1.78681">
        <ele>154</ele>
        <time>2022-03-17T08:39:38.000Z</time>
      </trkpt>
      <trkpt lat="47.54672" lon="1.7868036">
        <ele>154</ele>
        <time>2022-03-17T08:39:39.000Z</time>
      </trkpt>
      <trkpt lat="47.54673" lon="1.786795">
        <ele>154</ele>
        <time>2022-03-17T08:39:40.000Z</time>
      </trkpt>
      <trkpt lat="47.54674" lon="1.7867875">
        <ele>154</ele>
        <time>2022-03-17T08:39:41.000Z</time>
      </trkpt>
      <trkpt lat="47.546753" lon="1.7867777">
        <ele>154</ele>
        <time>2022-03-17T08:39:42.000Z</time>
      </trkpt>
      <trkpt lat="47.546764" lon="1.7867682">
        <ele>154</ele>
        <time>2022-03-17T08:39:43.000Z</time>
      </trkpt>
      <trkpt lat="47.54678" lon="1.7867564">
        <ele>154</ele>
        <time>2022-03-17T08:39:44.000Z</time>
      </trkpt>
      <trkpt lat="47.54679" lon="1.786745">
        <ele>154</ele>
        <time>2022-03-17T08:39:45.000Z</time>
      </trkpt>
      <trkpt lat="47.546806" lon="1.7867357">
        <ele>155</ele>
        <time>2022-03-17T08:39:46.000Z</time>
      </trkpt>
      <trkpt lat="47.546814" lon="1.786725">
        <ele>155</ele>
        <time>2022-03-17T08:39:47.000Z</time>
      </trkpt>
      <trkpt lat="47.54682" lon="1.7867153">
        <ele>155</ele>
        <time>2022-03-17T08:39:48.000Z</time>
      </trkpt>
      <trkpt lat="47.54683" lon="1.7867032">
        <ele>155</ele>
        <time>2022-03-17T08:39:49.000Z</time>
      </trkpt>
      <trkpt lat="47.546837" lon="1.786691">
        <ele>155</ele>
        <time>2022-03-17T08:39:50.000Z</time>
      </trkpt>
      <trkpt lat="47.546844" lon="1.7866809">
        <ele>156</ele>
        <time>2022-03-17T08:39:51.000Z</time>
      </trkpt>
      <trkpt lat="47.54686" lon="1.7866704">
        <ele>156</ele>
        <time>2022-03-17T08:39:52.000Z</time>
      </trkpt>
      <trkpt lat="47.54687" lon="1.7866628">
        <ele>157</ele>
        <time>2022-03-17T08:39:53.000Z</time>
      </trkpt>
      <trkpt lat="47.546883" lon="1.7866523">
        <ele>157</ele>
        <time>2022-03-17T08:39:54.000Z</time>
      </trkpt>
      <trkpt lat="47.546894" lon="1.7866443">
        <ele>157</ele>
        <time>2022-03-17T08:39:55.000Z</time>
      </trkpt>
      <trkpt lat="47.5469" lon="1.7866317">
        <ele>157</ele>
        <time>2022-03-17T08:39:56.000Z</time>
      </trkpt>
      <trkpt lat="47.546913" lon="1.7866213">
        <ele>157</ele>
        <time>2022-03-17T08:39:57.000Z</time>
      </trkpt>
      <trkpt lat="47.54692" lon="1.7866102">
        <ele>157</ele>
        <time>2022-03-17T08:39:58.000Z</time>
      </trkpt>
      <trkpt lat="47.54693" lon="1.7866024">
        <ele>156</ele>
        <time>2022-03-17T08:39:59.000Z</time>
      </trkpt>
      <trkpt lat="47.54694" lon="1.7865953">
        <ele>156</ele>
        <time>2022-03-17T08:40:00.000Z</time>
      </trkpt>
      <trkpt lat="47.54695" lon="1.786584">
        <ele>156</ele>
        <time>2022-03-17T08:40:01.000Z</time>
      </trkpt>
      <trkpt lat="47.546967" lon="1.7865735">
        <ele>155</ele>
        <time>2022-03-17T08:40:02.000Z</time>
      </trkpt>
      <trkpt lat="47.546978" lon="1.7865633">
        <ele>154</ele>
        <time>2022-03-17T08:40:03.000Z</time>
      </trkpt>
      <trkpt lat="47.54699" lon="1.7865515">
        <ele>155</ele>
        <time>2022-03-17T08:40:04.000Z</time>
      </trkpt>
      <trkpt lat="47.546997" lon="1.786544">
        <ele>155</ele>
        <time>2022-03-17T08:40:05.000Z</time>
      </trkpt>
      <trkpt lat="47.54701" lon="1.7865345">
        <ele>155</ele>
        <time>2022-03-17T08:40:06.000Z</time>
      </trkpt>
      <trkpt lat="47.547016" lon="1.7865238">
        <ele>155</ele>
        <time>2022-03-17T08:40:07.000Z</time>
      </trkpt>
      <trkpt lat="47.547028" lon="1.786512">
        <ele>155</ele>
        <time>2022-03-17T08:40:08.000Z</time>
      </trkpt>
      <trkpt lat="47.547035" lon="1.7865043">
        <ele>155</ele>
        <time>2022-03-17T08:40:09.000Z</time>
      </trkpt>
      <trkpt lat="47.547043" lon="1.7864953">
        <ele>156</ele>
        <time>2022-03-17T08:40:10.000Z</time>
      </trkpt>
      <trkpt lat="47.54705" lon="1.786488">
        <ele>156</ele>
        <time>2022-03-17T08:40:11.000Z</time>
      </trkpt>
      <trkpt lat="47.547062" lon="1.7864767">
        <ele>156</ele>
        <time>2022-03-17T08:40:12.000Z</time>
      </trkpt>
      <trkpt lat="47.547073" lon="1.7864666">
        <ele>157</ele>
        <time>2022-03-17T08:40:13.000Z</time>
      </trkpt>
      <trkpt lat="47.54708" lon="1.7864583">
        <ele>157</ele>
        <time>2022-03-17T08:40:14.000Z</time>
      </trkpt>
      <trkpt lat="47.54709" lon="1.7864476">
        <ele>157</ele>
        <time>2022-03-17T08:40:15.000Z</time>
      </trkpt>
      <trkpt lat="47.5471" lon="1.78644">
        <ele>157</ele>
        <time>2022-03-17T08:40:16.000Z</time>
      </trkpt>
      <trkpt lat="47.547108" lon="1.7864295">
        <ele>157</ele>
        <time>2022-03-17T08:40:17.000Z</time>
      </trkpt>
      <trkpt lat="47.547115" lon="1.7864166">
        <ele>156</ele>
        <time>2022-03-17T08:40:18.000Z</time>
      </trkpt>
      <trkpt lat="47.547127" lon="1.7864075">
        <ele>156</ele>
        <time>2022-03-17T08:40:19.000Z</time>
      </trkpt>
      <trkpt lat="47.547134" lon="1.786398">
        <ele>156</ele>
        <time>2022-03-17T08:40:20.000Z</time>
      </trkpt>
      <trkpt lat="47.547142" lon="1.7863897">
        <ele>156</ele>
        <time>2022-03-17T08:40:21.000Z</time>
      </trkpt>
      <trkpt lat="47.547153" lon="1.7863753">
        <ele>155</ele>
        <time>2022-03-17T08:40:22.000Z</time>
      </trkpt>
      <trkpt lat="47.547165" lon="1.7863605">
        <ele>155</ele>
        <time>2022-03-17T08:40:23.000Z</time>
      </trkpt>
      <trkpt lat="47.547173" lon="1.7863506">
        <ele>156</ele>
        <time>2022-03-17T08:40:24.000Z</time>
      </trkpt>
      <trkpt lat="47.547184" lon="1.78634">
        <ele>156</ele>
        <time>2022-03-17T08:40:25.000Z</time>
      </trkpt>
      <trkpt lat="47.54719" lon="1.7863315">
        <ele>155</ele>
        <time>2022-03-17T08:40:26.000Z</time>
      </trkpt>
      <trkpt lat="47.547207" lon="1.786327">
        <ele>154</ele>
        <time>2022-03-17T08:40:27.000Z</time>
      </trkpt>
      <trkpt lat="47.547215" lon="1.7863152">
        <ele>154</ele>
        <time>2022-03-17T08:40:28.000Z</time>
      </trkpt>
      <trkpt lat="47.547226" lon="1.786307">
        <ele>153</ele>
        <time>2022-03-17T08:40:29.000Z</time>
      </trkpt>
      <trkpt lat="47.54724" lon="1.786296">
        <ele>153</ele>
        <time>2022-03-17T08:40:30.000Z</time>
      </trkpt>
      <trkpt lat="47.547253" lon="1.7862921">
        <ele>153</ele>
        <time>2022-03-17T08:40:31.000Z</time>
      </trkpt>
      <trkpt lat="47.547264" lon="1.7862818">
        <ele>153</ele>
        <time>2022-03-17T08:40:32.000Z</time>
      </trkpt>
      <trkpt lat="47.547268" lon="1.7862672">
        <ele>153</ele>
        <time>2022-03-17T08:40:33.000Z</time>
      </trkpt>
      <trkpt lat="47.54728" lon="1.7862551">
        <ele>153</ele>
        <time>2022-03-17T08:40:34.000Z</time>
      </trkpt>
      <trkpt lat="47.547287" lon="1.7862432">
        <ele>153</ele>
        <time>2022-03-17T08:40:35.000Z</time>
      </trkpt>
      <trkpt lat="47.5473" lon="1.7862345">
        <ele>154</ele>
        <time>2022-03-17T08:40:36.000Z</time>
      </trkpt>
      <trkpt lat="47.54731" lon="1.7862281">
        <ele>153</ele>
        <time>2022-03-17T08:40:37.000Z</time>
      </trkpt>
      <trkpt lat="47.54732" lon="1.7862179">
        <ele>153</ele>
        <time>2022-03-17T08:40:38.000Z</time>
      </trkpt>
      <trkpt lat="47.54733" lon="1.7862105">
        <ele>153</ele>
        <time>2022-03-17T08:40:39.000Z</time>
      </trkpt>
      <trkpt lat="47.54734" lon="1.7862009">
        <ele>154</ele>
        <time>2022-03-17T08:40:40.000Z</time>
      </trkpt>
      <trkpt lat="47.547356" lon="1.7861927">
        <ele>154</ele>
        <time>2022-03-17T08:40:41.000Z</time>
      </trkpt>
      <trkpt lat="47.547363" lon="1.7861904">
        <ele>154</ele>
        <time>2022-03-17T08:40:42.000Z</time>
      </trkpt>
      <trkpt lat="47.547367" lon="1.78618">
        <ele>153</ele>
        <time>2022-03-17T08:40:43.000Z</time>
      </trkpt>
      <trkpt lat="47.54738" lon="1.7861681">
        <ele>154</ele>
        <time>2022-03-17T08:40:44.000Z</time>
      </trkpt>
      <trkpt lat="47.54739" lon="1.7861576">
        <ele>154</ele>
        <time>2022-03-17T08:40:45.000Z</time>
      </trkpt>
      <trkpt lat="47.5474" lon="1.7861495">
        <ele>154</ele>
        <time>2022-03-17T08:40:46.000Z</time>
      </trkpt>
      <trkpt lat="47.54741" lon="1.7861373">
        <ele>154</ele>
        <time>2022-03-17T08:40:47.000Z</time>
      </trkpt>
      <trkpt lat="47.547417" lon="1.7861267">
        <ele>154</ele>
        <time>2022-03-17T08:40:48.000Z</time>
      </trkpt>
      <trkpt lat="47.547424" lon="1.7861156">
        <ele>154</ele>
        <time>2022-03-17T08:40:49.000Z</time>
      </trkpt>
      <trkpt lat="47.547436" lon="1.786105">
        <ele>153</ele>
        <time>2022-03-17T08:40:50.000Z</time>
      </trkpt>
      <trkpt lat="47.547443" lon="1.7860923">
        <ele>153</ele>
        <time>2022-03-17T08:40:51.000Z</time>
      </trkpt>
      <trkpt lat="47.54745" lon="1.7860804">
        <ele>153</ele>
        <time>2022-03-17T08:40:52.000Z</time>
      </trkpt>
      <trkpt lat="47.547462" lon="1.7860692">
        <ele>153</ele>
        <time>2022-03-17T08:40:53.000Z</time>
      </trkpt>
      <trkpt lat="47.547474" lon="1.7860578">
        <ele>153</ele>
        <time>2022-03-17T08:40:54.000Z</time>
      </trkpt>
      <trkpt lat="47.54748" lon="1.7860456">
        <ele>154</ele>
        <time>2022-03-17T08:40:55.000Z</time>
      </trkpt>
      <trkpt lat="47.547493" lon="1.7860343">
        <ele>154</ele>
        <time>2022-03-17T08:40:56.000Z</time>
      </trkpt>
      <trkpt lat="47.547504" lon="1.7860239">
        <ele>153</ele>
        <time>2022-03-17T08:40:57.000Z</time>
      </trkpt>
      <trkpt lat="47.547516" lon="1.7860142">
        <ele>153</ele>
        <time>2022-03-17T08:40:58.000Z</time>
      </trkpt>
      <trkpt lat="47.547523" lon="1.786002">
        <ele>153</ele>
        <time>2022-03-17T08:40:59.000Z</time>
      </trkpt>
      <trkpt lat="47.547535" lon="1.785989">
        <ele>153</ele>
        <time>2022-03-17T08:41:00.000Z</time>
      </trkpt>
      <trkpt lat="47.547543" lon="1.7859718">
        <ele>153</ele>
        <time>2022-03-17T08:41:01.000Z</time>
      </trkpt>
      <trkpt lat="47.547558" lon="1.7859595">
        <ele>152</ele>
        <time>2022-03-17T08:41:02.000Z</time>
      </trkpt>
      <trkpt lat="47.547565" lon="1.7859465">
        <ele>152</ele>
        <time>2022-03-17T08:41:03.000Z</time>
      </trkpt>
      <trkpt lat="47.547573" lon="1.785936">
        <ele>152</ele>
        <time>2022-03-17T08:41:04.000Z</time>
      </trkpt>
      <trkpt lat="47.547585" lon="1.7859247">
        <ele>152</ele>
        <time>2022-03-17T08:41:05.000Z</time>
      </trkpt>
      <trkpt lat="47.547596" lon="1.7859185">
        <ele>152</ele>
        <time>2022-03-17T08:41:06.000Z</time>
      </trkpt>
      <trkpt lat="47.547607" lon="1.7859102">
        <ele>152</ele>
        <time>2022-03-17T08:41:07.000Z</time>
      </trkpt>
      <trkpt lat="47.54762" lon="1.7858986">
        <ele>152</ele>
        <time>2022-03-17T08:41:08.000Z</time>
      </trkpt>
      <trkpt lat="47.54763" lon="1.7858881">
        <ele>152</ele>
        <time>2022-03-17T08:41:09.000Z</time>
      </trkpt>
      <trkpt lat="47.54764" lon="1.7858765">
        <ele>152</ele>
        <time>2022-03-17T08:41:10.000Z</time>
      </trkpt>
      <trkpt lat="47.547657" lon="1.7858647">
        <ele>153</ele>
        <time>2022-03-17T08:41:11.000Z</time>
      </trkpt>
      <trkpt lat="47.54767" lon="1.7858566">
        <ele>153</ele>
        <time>2022-03-17T08:41:12.000Z</time>
      </trkpt>
      <trkpt lat="47.54768" lon="1.7858474">
        <ele>152</ele>
        <time>2022-03-17T08:41:13.000Z</time>
      </trkpt>
      <trkpt lat="47.54769" lon="1.7858362">
        <ele>152</ele>
        <time>2022-03-17T08:41:14.000Z</time>
      </trkpt>
      <trkpt lat="47.547707" lon="1.7858263">
        <ele>152</ele>
        <time>2022-03-17T08:41:15.000Z</time>
      </trkpt>
      <trkpt lat="47.54772" lon="1.7858174">
        <ele>153</ele>
        <time>2022-03-17T08:41:16.000Z</time>
      </trkpt>
      <trkpt lat="47.547733" lon="1.7858095">
        <ele>153</ele>
        <time>2022-03-17T08:41:17.000Z</time>
      </trkpt>
      <trkpt lat="47.54775" lon="1.7857984">
        <ele>153</ele>
        <time>2022-03-17T08:41:18.000Z</time>
      </trkpt>
      <trkpt lat="47.54776" lon="1.7857949">
        <ele>154</ele>
        <time>2022-03-17T08:41:19.000Z</time>
      </trkpt>
      <trkpt lat="47.54777" lon="1.7857889">
        <ele>154</ele>
        <time>2022-03-17T08:41:20.000Z</time>
      </trkpt>
      <trkpt lat="47.547783" lon="1.7857795">
        <ele>154</ele>
        <time>2022-03-17T08:41:21.000Z</time>
      </trkpt>
      <trkpt lat="47.547794" lon="1.7857672">
        <ele>155</ele>
        <time>2022-03-17T08:41:22.000Z</time>
      </trkpt>
      <trkpt lat="47.547802" lon="1.7857543">
        <ele>155</ele>
        <time>2022-03-17T08:41:23.000Z</time>
      </trkpt>
      <trkpt lat="47.54781" lon="1.785741">
        <ele>155</ele>
        <time>2022-03-17T08:41:24.000Z</time>
      </trkpt>
      <trkpt lat="47.547817" lon="1.7857295">
        <ele>154</ele>
        <time>2022-03-17T08:41:25.000Z</time>
      </trkpt>
      <trkpt lat="47.54783" lon="1.7857192">
        <ele>154</ele>
        <time>2022-03-17T08:41:26.000Z</time>
      </trkpt>
      <trkpt lat="47.54784" lon="1.7857126">
        <ele>154</ele>
        <time>2022-03-17T08:41:27.000Z</time>
      </trkpt>
      <trkpt lat="47.54785" lon="1.7857009">
        <ele>154</ele>
        <time>2022-03-17T08:41:28.000Z</time>
      </trkpt>
      <trkpt lat="47.547863" lon="1.7856859">
        <ele>154</ele>
        <time>2022-03-17T08:41:29.000Z</time>
      </trkpt>
      <trkpt lat="47.547874" lon="1.7856748">
        <ele>154</ele>
        <time>2022-03-17T08:41:30.000Z</time>
      </trkpt>
      <trkpt lat="47.547886" lon="1.7856678">
        <ele>154</ele>
        <time>2022-03-17T08:41:31.000Z</time>
      </trkpt>
      <trkpt lat="47.547897" lon="1.7856551">
        <ele>154</ele>
        <time>2022-03-17T08:41:32.000Z</time>
      </trkpt>
      <trkpt lat="47.547913" lon="1.7856401">
        <ele>154</ele>
        <time>2022-03-17T08:41:33.000Z</time>
      </trkpt>
      <trkpt lat="47.547924" lon="1.7856318">
        <ele>154</ele>
        <time>2022-03-17T08:41:34.000Z</time>
      </trkpt>
      <trkpt lat="47.54793" lon="1.7856218">
        <ele>154</ele>
        <time>2022-03-17T08:41:35.000Z</time>
      </trkpt>
      <trkpt lat="47.54794" lon="1.7856145">
        <ele>154</ele>
        <time>2022-03-17T08:41:36.000Z</time>
      </trkpt>
      <trkpt lat="47.547947" lon="1.7856071">
        <ele>154</ele>
        <time>2022-03-17T08:41:37.000Z</time>
      </trkpt>
      <trkpt lat="47.54796" lon="1.7855968">
        <ele>154</ele>
        <time>2022-03-17T08:41:38.000Z</time>
      </trkpt>
      <trkpt lat="47.547966" lon="1.7855878">
        <ele>154</ele>
        <time>2022-03-17T08:41:39.000Z</time>
      </trkpt>
      <trkpt lat="47.547974" lon="1.7855835">
        <ele>154</ele>
        <time>2022-03-17T08:41:40.000Z</time>
      </trkpt>
      <trkpt lat="47.547985" lon="1.785572">
        <ele>154</ele>
        <time>2022-03-17T08:41:41.000Z</time>
      </trkpt>
      <trkpt lat="47.547997" lon="1.7855597">
        <ele>154</ele>
        <time>2022-03-17T08:41:42.000Z</time>
      </trkpt>
      <trkpt lat="47.548004" lon="1.7855488">
        <ele>155</ele>
        <time>2022-03-17T08:41:43.000Z</time>
      </trkpt>
      <trkpt lat="47.548016" lon="1.7855401">
        <ele>155</ele>
        <time>2022-03-17T08:41:44.000Z</time>
      </trkpt>
      <trkpt lat="47.548023" lon="1.7855283">
        <ele>154</ele>
        <time>2022-03-17T08:41:45.000Z</time>
      </trkpt>
      <trkpt lat="47.548035" lon="1.7855144">
        <ele>154</ele>
        <time>2022-03-17T08:41:46.000Z</time>
      </trkpt>
      <trkpt lat="47.548046" lon="1.7855061">
        <ele>155</ele>
        <time>2022-03-17T08:41:47.000Z</time>
      </trkpt>
      <trkpt lat="47.548054" lon="1.7854964">
        <ele>155</ele>
        <time>2022-03-17T08:41:48.000Z</time>
      </trkpt>
      <trkpt lat="47.54807" lon="1.7854854">
        <ele>155</ele>
        <time>2022-03-17T08:41:49.000Z</time>
      </trkpt>
      <trkpt lat="47.54808" lon="1.7854776">
        <ele>154</ele>
        <time>2022-03-17T08:41:50.000Z</time>
      </trkpt>
      <trkpt lat="47.54809" lon="1.785471">
        <ele>154</ele>
        <time>2022-03-17T08:41:51.000Z</time>
      </trkpt>
      <trkpt lat="47.548103" lon="1.7854614">
        <ele>154</ele>
        <time>2022-03-17T08:41:52.000Z</time>
      </trkpt>
      <trkpt lat="47.54811" lon="1.7854555">
        <ele>154</ele>
        <time>2022-03-17T08:41:53.000Z</time>
      </trkpt>
      <trkpt lat="47.548122" lon="1.7854491">
        <ele>154</ele>
        <time>2022-03-17T08:41:54.000Z</time>
      </trkpt>
      <trkpt lat="47.54813" lon="1.7854418">
        <ele>153</ele>
        <time>2022-03-17T08:41:55.000Z</time>
      </trkpt>
      <trkpt lat="47.548134" lon="1.7854311">
        <ele>153</ele>
        <time>2022-03-17T08:41:56.000Z</time>
      </trkpt>
      <trkpt lat="47.548145" lon="1.7854229">
        <ele>154</ele>
        <time>2022-03-17T08:41:57.000Z</time>
      </trkpt>
      <trkpt lat="47.54815" lon="1.7854136">
        <ele>154</ele>
        <time>2022-03-17T08:41:58.000Z</time>
      </trkpt>
      <trkpt lat="47.54816" lon="1.7854035">
        <ele>154</ele>
        <time>2022-03-17T08:41:59.000Z</time>
      </trkpt>
      <trkpt lat="47.548172" lon="1.7853909">
        <ele>154</ele>
        <time>2022-03-17T08:42:00.000Z</time>
      </trkpt>
      <trkpt lat="47.54818" lon="1.785384">
        <ele>154</ele>
        <time>2022-03-17T08:42:01.000Z</time>
      </trkpt>
      <trkpt lat="47.54819" lon="1.7853762">
        <ele>154</ele>
        <time>2022-03-17T08:42:02.000Z</time>
      </trkpt>
      <trkpt lat="47.548203" lon="1.7853686">
        <ele>155</ele>
        <time>2022-03-17T08:42:03.000Z</time>
      </trkpt>
      <trkpt lat="47.548218" lon="1.785361">
        <ele>155</ele>
        <time>2022-03-17T08:42:04.000Z</time>
      </trkpt>
      <trkpt lat="47.54823" lon="1.785352">
        <ele>155</ele>
        <time>2022-03-17T08:42:05.000Z</time>
      </trkpt>
      <trkpt lat="47.54824" lon="1.7853456">
        <ele>156</ele>
        <time>2022-03-17T08:42:06.000Z</time>
      </trkpt>
      <trkpt lat="47.548256" lon="1.7853363">
        <ele>156</ele>
        <time>2022-03-17T08:42:07.000Z</time>
      </trkpt>
      <trkpt lat="47.548267" lon="1.7853271">
        <ele>156</ele>
        <time>2022-03-17T08:42:08.000Z</time>
      </trkpt>
      <trkpt lat="47.54828" lon="1.7853172">
        <ele>155</ele>
        <time>2022-03-17T08:42:09.000Z</time>
      </trkpt>
      <trkpt lat="47.54829" lon="1.7853044">
        <ele>155</ele>
        <time>2022-03-17T08:42:10.000Z</time>
      </trkpt>
      <trkpt lat="47.5483" lon="1.7852939">
        <ele>155</ele>
        <time>2022-03-17T08:42:11.000Z</time>
      </trkpt>
      <trkpt lat="47.548313" lon="1.785287">
        <ele>155</ele>
        <time>2022-03-17T08:42:12.000Z</time>
      </trkpt>
      <trkpt lat="47.548325" lon="1.7852753">
        <ele>155</ele>
        <time>2022-03-17T08:42:13.000Z</time>
      </trkpt>
      <trkpt lat="47.548336" lon="1.7852666">
        <ele>155</ele>
        <time>2022-03-17T08:42:14.000Z</time>
      </trkpt>
      <trkpt lat="47.548347" lon="1.785257">
        <ele>155</ele>
        <time>2022-03-17T08:42:15.000Z</time>
      </trkpt>
      <trkpt lat="47.54836" lon="1.7852502">
        <ele>155</ele>
        <time>2022-03-17T08:42:16.000Z</time>
      </trkpt>
      <trkpt lat="47.54837" lon="1.7852417">
        <ele>155</ele>
        <time>2022-03-17T08:42:17.000Z</time>
      </trkpt>
      <trkpt lat="47.54838" lon="1.7852334">
        <ele>155</ele>
        <time>2022-03-17T08:42:18.000Z</time>
      </trkpt>
      <trkpt lat="47.54839" lon="1.7852231">
        <ele>155</ele>
        <time>2022-03-17T08:42:19.000Z</time>
      </trkpt>
      <trkpt lat="47.548397" lon="1.7852131">
        <ele>155</ele>
        <time>2022-03-17T08:42:20.000Z</time>
      </trkpt>
      <trkpt lat="47.548412" lon="1.7852014">
        <ele>155</ele>
        <time>2022-03-17T08:42:21.000Z</time>
      </trkpt>
      <trkpt lat="47.54842" lon="1.7851894">
        <ele>154</ele>
        <time>2022-03-17T08:42:22.000Z</time>
      </trkpt>
      <trkpt lat="47.54843" lon="1.7851794">
        <ele>154</ele>
        <time>2022-03-17T08:42:23.000Z</time>
      </trkpt>
      <trkpt lat="47.548443" lon="1.7851678">
        <ele>155</ele>
        <time>2022-03-17T08:42:24.000Z</time>
      </trkpt>
      <trkpt lat="47.548454" lon="1.7851597">
        <ele>155</ele>
        <time>2022-03-17T08:42:25.000Z</time>
      </trkpt>
      <trkpt lat="47.548462" lon="1.7851503">
        <ele>154</ele>
        <time>2022-03-17T08:42:26.000Z</time>
      </trkpt>
      <trkpt lat="47.54847" lon="1.7851412">
        <ele>154</ele>
        <time>2022-03-17T08:42:27.000Z</time>
      </trkpt>
      <trkpt lat="47.54848" lon="1.7851322">
        <ele>154</ele>
        <time>2022-03-17T08:42:28.000Z</time>
      </trkpt>
      <trkpt lat="47.548492" lon="1.785126">
        <ele>155</ele>
        <time>2022-03-17T08:42:29.000Z</time>
      </trkpt>
      <trkpt lat="47.548504" lon="1.7851168">
        <ele>155</ele>
        <time>2022-03-17T08:42:30.000Z</time>
      </trkpt>
      <trkpt lat="47.54852" lon="1.7851111">
        <ele>154</ele>
        <time>2022-03-17T08:42:31.000Z</time>
      </trkpt>
      <trkpt lat="47.548527" lon="1.7851">
        <ele>154</ele>
        <time>2022-03-17T08:42:32.000Z</time>
      </trkpt>
      <trkpt lat="47.54854" lon="1.7850878">
        <ele>154</ele>
        <time>2022-03-17T08:42:33.000Z</time>
      </trkpt>
      <trkpt lat="47.54855" lon="1.7850754">
        <ele>154</ele>
        <time>2022-03-17T08:42:34.000Z</time>
      </trkpt>
      <trkpt lat="47.548557" lon="1.7850633">
        <ele>154</ele>
        <time>2022-03-17T08:42:35.000Z</time>
      </trkpt>
      <trkpt lat="47.548573" lon="1.785054">
        <ele>154</ele>
        <time>2022-03-17T08:42:36.000Z</time>
      </trkpt>
      <trkpt lat="47.548576" lon="1.7850442">
        <ele>154</ele>
        <time>2022-03-17T08:42:37.000Z</time>
      </trkpt>
      <trkpt lat="47.548588" lon="1.7850357">
        <ele>154</ele>
        <time>2022-03-17T08:42:38.000Z</time>
      </trkpt>
      <trkpt lat="47.548595" lon="1.7850266">
        <ele>154</ele>
        <time>2022-03-17T08:42:39.000Z</time>
      </trkpt>
      <trkpt lat="47.548607" lon="1.7850184">
        <ele>153</ele>
        <time>2022-03-17T08:42:40.000Z</time>
      </trkpt>
      <trkpt lat="47.548615" lon="1.7850081">
        <ele>154</ele>
        <time>2022-03-17T08:42:41.000Z</time>
      </trkpt>
      <trkpt lat="47.548626" lon="1.7849984">
        <ele>154</ele>
        <time>2022-03-17T08:42:42.000Z</time>
      </trkpt>
      <trkpt lat="47.548637" lon="1.7849911">
        <ele>154</ele>
        <time>2022-03-17T08:42:43.000Z</time>
      </trkpt>
      <trkpt lat="47.54865" lon="1.7849809">
        <ele>154</ele>
        <time>2022-03-17T08:42:44.000Z</time>
      </trkpt>
      <trkpt lat="47.54866" lon="1.7849673">
        <ele>154</ele>
        <time>2022-03-17T08:42:45.000Z</time>
      </trkpt>
      <trkpt lat="47.548668" lon="1.7849543">
        <ele>154</ele>
        <time>2022-03-17T08:42:46.000Z</time>
      </trkpt>
      <trkpt lat="47.548676" lon="1.7849416">
        <ele>154</ele>
        <time>2022-03-17T08:42:47.000Z</time>
      </trkpt>
      <trkpt lat="47.548687" lon="1.7849321">
        <ele>155</ele>
        <time>2022-03-17T08:42:48.000Z</time>
      </trkpt>
      <trkpt lat="47.5487" lon="1.7849221">
        <ele>155</ele>
        <time>2022-03-17T08:42:49.000Z</time>
      </trkpt>
      <trkpt lat="47.54871" lon="1.7849141">
        <ele>155</ele>
        <time>2022-03-17T08:42:50.000Z</time>
      </trkpt>
      <trkpt lat="47.548714" lon="1.7849057">
        <ele>155</ele>
        <time>2022-03-17T08:42:51.000Z</time>
      </trkpt>
      <trkpt lat="47.54872" lon="1.7848946">
        <ele>154</ele>
        <time>2022-03-17T08:42:52.000Z</time>
      </trkpt>
      <trkpt lat="47.548733" lon="1.784887">
        <ele>154</ele>
        <time>2022-03-17T08:42:53.000Z</time>
      </trkpt>
      <trkpt lat="47.54874" lon="1.7848797">
        <ele>155</ele>
        <time>2022-03-17T08:42:54.000Z</time>
      </trkpt>
      <trkpt lat="47.548748" lon="1.7848722">
        <ele>155</ele>
        <time>2022-03-17T08:42:55.000Z</time>
      </trkpt>
      <trkpt lat="47.54876" lon="1.7848617">
        <ele>155</ele>
        <time>2022-03-17T08:42:56.000Z</time>
      </trkpt>
      <trkpt lat="47.548775" lon="1.7848518">
        <ele>155</ele>
        <time>2022-03-17T08:42:57.000Z</time>
      </trkpt>
      <trkpt lat="47.548782" lon="1.78484">
        <ele>155</ele>
        <time>2022-03-17T08:42:58.000Z</time>
      </trkpt>
      <trkpt lat="47.548794" lon="1.7848293">
        <ele>154</ele>
        <time>2022-03-17T08:42:59.000Z</time>
      </trkpt>
      <trkpt lat="47.5488" lon="1.7848182">
        <ele>154</ele>
        <time>2022-03-17T08:43:00.000Z</time>
      </trkpt>
      <trkpt lat="47.548813" lon="1.7848043">
        <ele>154</ele>
        <time>2022-03-17T08:43:01.000Z</time>
      </trkpt>
      <trkpt lat="47.54882" lon="1.7847947">
        <ele>154</ele>
        <time>2022-03-17T08:43:02.000Z</time>
      </trkpt>
      <trkpt lat="47.54883" lon="1.7847888">
        <ele>154</ele>
        <time>2022-03-17T08:43:03.000Z</time>
      </trkpt>
      <trkpt lat="47.54884" lon="1.7847778">
        <ele>154</ele>
        <time>2022-03-17T08:43:04.000Z</time>
      </trkpt>
      <trkpt lat="47.54885" lon="1.7847683">
        <ele>154</ele>
        <time>2022-03-17T08:43:05.000Z</time>
      </trkpt>
      <trkpt lat="47.548862" lon="1.7847553">
        <ele>155</ele>
        <time>2022-03-17T08:43:06.000Z</time>
      </trkpt>
      <trkpt lat="47.548874" lon="1.7847438">
        <ele>155</ele>
        <time>2022-03-17T08:43:07.000Z</time>
      </trkpt>
      <trkpt lat="47.548878" lon="1.7847321">
        <ele>155</ele>
        <time>2022-03-17T08:43:08.000Z</time>
      </trkpt>
      <trkpt lat="47.54889" lon="1.7847209">
        <ele>154</ele>
        <time>2022-03-17T08:43:09.000Z</time>
      </trkpt>
      <trkpt lat="47.5489" lon="1.7847104">
        <ele>154</ele>
        <time>2022-03-17T08:43:10.000Z</time>
      </trkpt>
      <trkpt lat="47.54891" lon="1.784704">
        <ele>154</ele>
        <time>2022-03-17T08:43:11.000Z</time>
      </trkpt>
      <trkpt lat="47.548923" lon="1.7846901">
        <ele>154</ele>
        <time>2022-03-17T08:43:12.000Z</time>
      </trkpt>
      <trkpt lat="47.548935" lon="1.7846808">
        <ele>154</ele>
        <time>2022-03-17T08:43:13.000Z</time>
      </trkpt>
      <trkpt lat="47.548946" lon="1.7846739">
        <ele>154</ele>
        <time>2022-03-17T08:43:14.000Z</time>
      </trkpt>
      <trkpt lat="47.548958" lon="1.7846673">
        <ele>154</ele>
        <time>2022-03-17T08:43:15.000Z</time>
      </trkpt>
      <trkpt lat="47.548965" lon="1.7846597">
        <ele>154</ele>
        <time>2022-03-17T08:43:16.000Z</time>
      </trkpt>
      <trkpt lat="47.548977" lon="1.7846501">
        <ele>153</ele>
        <time>2022-03-17T08:43:17.000Z</time>
      </trkpt>
      <trkpt lat="47.54899" lon="1.7846426">
        <ele>153</ele>
        <time>2022-03-17T08:43:18.000Z</time>
      </trkpt>
      <trkpt lat="47.549" lon="1.7846367">
        <ele>153</ele>
        <time>2022-03-17T08:43:19.000Z</time>
      </trkpt>
      <trkpt lat="47.54901" lon="1.7846249">
        <ele>153</ele>
        <time>2022-03-17T08:43:20.000Z</time>
      </trkpt>
      <trkpt lat="47.54902" lon="1.7846136">
        <ele>153</ele>
        <time>2022-03-17T08:43:21.000Z</time>
      </trkpt>
      <trkpt lat="47.54903" lon="1.784601">
        <ele>152</ele>
        <time>2022-03-17T08:43:22.000Z</time>
      </trkpt>
      <trkpt lat="47.549038" lon="1.784593">
        <ele>152</ele>
        <time>2022-03-17T08:43:23.000Z</time>
      </trkpt>
      <trkpt lat="47.54905" lon="1.7845806">
        <ele>152</ele>
        <time>2022-03-17T08:43:24.000Z</time>
      </trkpt>
      <trkpt lat="47.54906" lon="1.7845663">
        <ele>152</ele>
        <time>2022-03-17T08:43:25.000Z</time>
      </trkpt>
      <trkpt lat="47.54907" lon="1.7845546">
        <ele>153</ele>
        <time>2022-03-17T08:43:26.000Z</time>
      </trkpt>
      <trkpt lat="47.549076" lon="1.784543">
        <ele>153</ele>
        <time>2022-03-17T08:43:27.000Z</time>
      </trkpt>
      <trkpt lat="47.549088" lon="1.7845309">
        <ele>153</ele>
        <time>2022-03-17T08:43:28.000Z</time>
      </trkpt>
      <trkpt lat="47.5491" lon="1.7845227">
        <ele>153</ele>
        <time>2022-03-17T08:43:29.000Z</time>
      </trkpt>
      <trkpt lat="47.54911" lon="1.7845137">
        <ele>153</ele>
        <time>2022-03-17T08:43:30.000Z</time>
      </trkpt>
      <trkpt lat="47.54912" lon="1.784504">
        <ele>153</ele>
        <time>2022-03-17T08:43:31.000Z</time>
      </trkpt>
      <trkpt lat="47.54913" lon="1.784495">
        <ele>153</ele>
        <time>2022-03-17T08:43:32.000Z</time>
      </trkpt>
      <trkpt lat="47.54914" lon="1.7844865">
        <ele>152</ele>
        <time>2022-03-17T08:43:33.000Z</time>
      </trkpt>
      <trkpt lat="47.549152" lon="1.7844783">
        <ele>153</ele>
        <time>2022-03-17T08:43:34.000Z</time>
      </trkpt>
      <trkpt lat="47.54916" lon="1.784471">
        <ele>153</ele>
        <time>2022-03-17T08:43:35.000Z</time>
      </trkpt>
      <trkpt lat="47.54917" lon="1.784462">
        <ele>153</ele>
        <time>2022-03-17T08:43:36.000Z</time>
      </trkpt>
      <trkpt lat="47.549183" lon="1.7844566">
        <ele>153</ele>
        <time>2022-03-17T08:43:37.000Z</time>
      </trkpt>
      <trkpt lat="47.549194" lon="1.7844468">
        <ele>153</ele>
        <time>2022-03-17T08:43:38.000Z</time>
      </trkpt>
      <trkpt lat="47.549206" lon="1.7844367">
        <ele>154</ele>
        <time>2022-03-17T08:43:39.000Z</time>
      </trkpt>
      <trkpt lat="47.549217" lon="1.784426">
        <ele>154</ele>
        <time>2022-03-17T08:43:40.000Z</time>
      </trkpt>
      <trkpt lat="47.549225" lon="1.7844158">
        <ele>154</ele>
        <time>2022-03-17T08:43:41.000Z</time>
      </trkpt>
      <trkpt lat="47.549236" lon="1.7844057">
        <ele>154</ele>
        <time>2022-03-17T08:43:42.000Z</time>
      </trkpt>
      <trkpt lat="47.549248" lon="1.7843916">
        <ele>153</ele>
        <time>2022-03-17T08:43:43.000Z</time>
      </trkpt>
      <trkpt lat="47.549255" lon="1.7843795">
        <ele>153</ele>
        <time>2022-03-17T08:43:44.000Z</time>
      </trkpt>
      <trkpt lat="47.549267" lon="1.7843702">
        <ele>153</ele>
        <time>2022-03-17T08:43:45.000Z</time>
      </trkpt>
      <trkpt lat="47.549282" lon="1.784364">
        <ele>153</ele>
        <time>2022-03-17T08:43:46.000Z</time>
      </trkpt>
      <trkpt lat="47.549294" lon="1.7843581">
        <ele>153</ele>
        <time>2022-03-17T08:43:47.000Z</time>
      </trkpt>
      <trkpt lat="47.54931" lon="1.7843498">
        <ele>153</ele>
        <time>2022-03-17T08:43:48.000Z</time>
      </trkpt>
      <trkpt lat="47.54932" lon="1.784342">
        <ele>153</ele>
        <time>2022-03-17T08:43:49.000Z</time>
      </trkpt>
      <trkpt lat="47.549328" lon="1.7843355">
        <ele>154</ele>
        <time>2022-03-17T08:43:50.000Z</time>
      </trkpt>
      <trkpt lat="47.54934" lon="1.784327">
        <ele>154</ele>
        <time>2022-03-17T08:43:51.000Z</time>
      </trkpt>
      <trkpt lat="47.549355" lon="1.7843162">
        <ele>154</ele>
        <time>2022-03-17T08:43:52.000Z</time>
      </trkpt>
      <trkpt lat="47.549366" lon="1.7843059">
        <ele>154</ele>
        <time>2022-03-17T08:43:53.000Z</time>
      </trkpt>
      <trkpt lat="47.549377" lon="1.7842991">
        <ele>154</ele>
        <time>2022-03-17T08:43:54.000Z</time>
      </trkpt>
      <trkpt lat="47.549385" lon="1.78429">
        <ele>154</ele>
        <time>2022-03-17T08:43:55.000Z</time>
      </trkpt>
      <trkpt lat="47.549397" lon="1.7842829">
        <ele>154</ele>
        <time>2022-03-17T08:43:56.000Z</time>
      </trkpt>
      <trkpt lat="47.54941" lon="1.7842736">
        <ele>154</ele>
        <time>2022-03-17T08:43:57.000Z</time>
      </trkpt>
      <trkpt lat="47.549423" lon="1.7842637">
        <ele>154</ele>
        <time>2022-03-17T08:43:58.000Z</time>
      </trkpt>
      <trkpt lat="47.54943" lon="1.7842536">
        <ele>155</ele>
        <time>2022-03-17T08:43:59.000Z</time>
      </trkpt>
      <trkpt lat="47.549442" lon="1.7842441">
        <ele>155</ele>
        <time>2022-03-17T08:44:00.000Z</time>
      </trkpt>
      <trkpt lat="47.549454" lon="1.7842387">
        <ele>155</ele>
        <time>2022-03-17T08:44:01.000Z</time>
      </trkpt>
      <trkpt lat="47.54947" lon="1.7842307">
        <ele>155</ele>
        <time>2022-03-17T08:44:02.000Z</time>
      </trkpt>
      <trkpt lat="47.54948" lon="1.7842213">
        <ele>155</ele>
        <time>2022-03-17T08:44:03.000Z</time>
      </trkpt>
      <trkpt lat="47.549488" lon="1.7842135">
        <ele>155</ele>
        <time>2022-03-17T08:44:04.000Z</time>
      </trkpt>
      <trkpt lat="47.549496" lon="1.7842044">
        <ele>155</ele>
        <time>2022-03-17T08:44:05.000Z</time>
      </trkpt>
      <trkpt lat="47.549507" lon="1.7841996">
        <ele>155</ele>
        <time>2022-03-17T08:44:06.000Z</time>
      </trkpt>
      <trkpt lat="47.54952" lon="1.7841926">
        <ele>155</ele>
        <time>2022-03-17T08:44:07.000Z</time>
      </trkpt>
      <trkpt lat="47.54953" lon="1.7841865">
        <ele>154</ele>
        <time>2022-03-17T08:44:08.000Z</time>
      </trkpt>
      <trkpt lat="47.549545" lon="1.7841754">
        <ele>154</ele>
        <time>2022-03-17T08:44:09.000Z</time>
      </trkpt>
      <trkpt lat="47.549553" lon="1.7841653">
        <ele>155</ele>
        <time>2022-03-17T08:44:10.000Z</time>
      </trkpt>
      <trkpt lat="47.54956" lon="1.7841588">
        <ele>155</ele>
        <time>2022-03-17T08:44:11.000Z</time>
      </trkpt>
      <trkpt lat="47.549572" lon="1.784154">
        <ele>155</ele>
        <time>2022-03-17T08:44:12.000Z</time>
      </trkpt>
      <trkpt lat="47.549583" lon="1.7841505">
        <ele>155</ele>
        <time>2022-03-17T08:44:13.000Z</time>
      </trkpt>
      <trkpt lat="47.54959" lon="1.7841446">
        <ele>154</ele>
        <time>2022-03-17T08:44:14.000Z</time>
      </trkpt>
      <trkpt lat="47.5496" lon="1.7841369">
        <ele>154</ele>
        <time>2022-03-17T08:44:15.000Z</time>
      </trkpt>
      <trkpt lat="47.54961" lon="1.7841257">
        <ele>154</ele>
        <time>2022-03-17T08:44:16.000Z</time>
      </trkpt>
      <trkpt lat="47.549618" lon="1.7841183">
        <ele>154</ele>
        <time>2022-03-17T08:44:17.000Z</time>
      </trkpt>
      <trkpt lat="47.54963" lon="1.7841129">
        <ele>154</ele>
        <time>2022-03-17T08:44:18.000Z</time>
      </trkpt>
      <trkpt lat="47.54964" lon="1.7841073">
        <ele>154</ele>
        <time>2022-03-17T08:44:19.000Z</time>
      </trkpt>
      <trkpt lat="47.549652" lon="1.7841002">
        <ele>155</ele>
        <time>2022-03-17T08:44:20.000Z</time>
      </trkpt>
      <trkpt lat="47.549664" lon="1.7840906">
        <ele>154</ele>
        <time>2022-03-17T08:44:21.000Z</time>
      </trkpt>
      <trkpt lat="47.549675" lon="1.7840811">
        <ele>154</ele>
        <time>2022-03-17T08:44:22.000Z</time>
      </trkpt>
      <trkpt lat="47.54968" lon="1.7840726">
        <ele>154</ele>
        <time>2022-03-17T08:44:23.000Z</time>
      </trkpt>
      <trkpt lat="47.54969" lon="1.7840667">
        <ele>154</ele>
        <time>2022-03-17T08:44:24.000Z</time>
      </trkpt>
      <trkpt lat="47.5497" lon="1.7840574">
        <ele>154</ele>
        <time>2022-03-17T08:44:25.000Z</time>
      </trkpt>
      <trkpt lat="47.549713" lon="1.7840492">
        <ele>154</ele>
        <time>2022-03-17T08:44:26.000Z</time>
      </trkpt>
      <trkpt lat="47.54972" lon="1.7840419">
        <ele>154</ele>
        <time>2022-03-17T08:44:27.000Z</time>
      </trkpt>
      <trkpt lat="47.549736" lon="1.7840339">
        <ele>153</ele>
        <time>2022-03-17T08:44:28.000Z</time>
      </trkpt>
      <trkpt lat="47.549747" lon="1.7840264">
        <ele>153</ele>
        <time>2022-03-17T08:44:29.000Z</time>
      </trkpt>
      <trkpt lat="47.54976" lon="1.7840183">
        <ele>153</ele>
        <time>2022-03-17T08:44:30.000Z</time>
      </trkpt>
      <trkpt lat="47.54977" lon="1.7840093">
        <ele>153</ele>
        <time>2022-03-17T08:44:31.000Z</time>
      </trkpt>
      <trkpt lat="47.54978" lon="1.7839961">
        <ele>153</ele>
        <time>2022-03-17T08:44:32.000Z</time>
      </trkpt>
      <trkpt lat="47.549797" lon="1.7839894">
        <ele>154</ele>
        <time>2022-03-17T08:44:33.000Z</time>
      </trkpt>
      <trkpt lat="47.54981" lon="1.7839792">
        <ele>154</ele>
        <time>2022-03-17T08:44:34.000Z</time>
      </trkpt>
      <trkpt lat="47.54982" lon="1.783967">
        <ele>154</ele>
        <time>2022-03-17T08:44:35.000Z</time>
      </trkpt>
      <trkpt lat="47.549835" lon="1.7839586">
        <ele>153</ele>
        <time>2022-03-17T08:44:36.000Z</time>
      </trkpt>
      <trkpt lat="47.549847" lon="1.7839521">
        <ele>154</ele>
        <time>2022-03-17T08:44:37.000Z</time>
      </trkpt>
      <trkpt lat="47.549862" lon="1.7839453">
        <ele>154</ele>
        <time>2022-03-17T08:44:38.000Z</time>
      </trkpt>
      <trkpt lat="47.549873" lon="1.783938">
        <ele>154</ele>
        <time>2022-03-17T08:44:39.000Z</time>
      </trkpt>
      <trkpt lat="47.549885" lon="1.7839283">
        <ele>154</ele>
        <time>2022-03-17T08:44:40.000Z</time>
      </trkpt>
      <trkpt lat="47.549896" lon="1.7839181">
        <ele>153</ele>
        <time>2022-03-17T08:44:41.000Z</time>
      </trkpt>
      <trkpt lat="47.549908" lon="1.7839055">
        <ele>153</ele>
        <time>2022-03-17T08:44:42.000Z</time>
      </trkpt>
      <trkpt lat="47.549915" lon="1.7838937">
        <ele>153</ele>
        <time>2022-03-17T08:44:43.000Z</time>
      </trkpt>
      <trkpt lat="47.549927" lon="1.7838813">
        <ele>153</ele>
        <time>2022-03-17T08:44:44.000Z</time>
      </trkpt>
      <trkpt lat="47.54994" lon="1.7838697">
        <ele>153</ele>
        <time>2022-03-17T08:44:45.000Z</time>
      </trkpt>
      <trkpt lat="47.54995" lon="1.783856">
        <ele>153</ele>
        <time>2022-03-17T08:44:46.000Z</time>
      </trkpt>
      <trkpt lat="47.54996" lon="1.7838452">
        <ele>153</ele>
        <time>2022-03-17T08:44:47.000Z</time>
      </trkpt>
      <trkpt lat="47.54997" lon="1.7838361">
        <ele>153</ele>
        <time>2022-03-17T08:44:48.000Z</time>
      </trkpt>
      <trkpt lat="47.54998" lon="1.7838281">
        <ele>153</ele>
        <time>2022-03-17T08:44:49.000Z</time>
      </trkpt>
      <trkpt lat="47.549995" lon="1.7838169">
        <ele>153</ele>
        <time>2022-03-17T08:44:50.000Z</time>
      </trkpt>
      <trkpt lat="47.550007" lon="1.783812">
        <ele>153</ele>
        <time>2022-03-17T08:44:51.000Z</time>
      </trkpt>
      <trkpt lat="47.55002" lon="1.7838048">
        <ele>153</ele>
        <time>2022-03-17T08:44:52.000Z</time>
      </trkpt>
      <trkpt lat="47.550026" lon="1.783796">
        <ele>153</ele>
        <time>2022-03-17T08:44:53.000Z</time>
      </trkpt>
      <trkpt lat="47.550034" lon="1.7837886">
        <ele>152</ele>
        <time>2022-03-17T08:44:54.000Z</time>
      </trkpt>
      <trkpt lat="47.55004" lon="1.7837793">
        <ele>152</ele>
        <time>2022-03-17T08:44:55.000Z</time>
      </trkpt>
      <trkpt lat="47.550053" lon="1.7837719">
        <ele>152</ele>
        <time>2022-03-17T08:44:56.000Z</time>
      </trkpt>
      <trkpt lat="47.550064" lon="1.7837646">
        <ele>152</ele>
        <time>2022-03-17T08:44:57.000Z</time>
      </trkpt>
      <trkpt lat="47.550076" lon="1.7837567">
        <ele>152</ele>
        <time>2022-03-17T08:44:58.000Z</time>
      </trkpt>
      <trkpt lat="47.550087" lon="1.7837517">
        <ele>153</ele>
        <time>2022-03-17T08:44:59.000Z</time>
      </trkpt>
      <trkpt lat="47.550095" lon="1.7837435">
        <ele>153</ele>
        <time>2022-03-17T08:45:00.000Z</time>
      </trkpt>
      <trkpt lat="47.550106" lon="1.7837317">
        <ele>153</ele>
        <time>2022-03-17T08:45:01.000Z</time>
      </trkpt>
      <trkpt lat="47.55012" lon="1.7837245">
        <ele>153</ele>
        <time>2022-03-17T08:45:02.000Z</time>
      </trkpt>
      <trkpt lat="47.550133" lon="1.7837174">
        <ele>154</ele>
        <time>2022-03-17T08:45:03.000Z</time>
      </trkpt>
      <trkpt lat="47.550148" lon="1.7837085">
        <ele>154</ele>
        <time>2022-03-17T08:45:04.000Z</time>
      </trkpt>
      <trkpt lat="47.55016" lon="1.7837037">
        <ele>154</ele>
        <time>2022-03-17T08:45:05.000Z</time>
      </trkpt>
      <trkpt lat="47.55017" lon="1.7836952">
        <ele>154</ele>
        <time>2022-03-17T08:45:06.000Z</time>
      </trkpt>
      <trkpt lat="47.550182" lon="1.7836862">
        <ele>153</ele>
        <time>2022-03-17T08:45:07.000Z</time>
      </trkpt>
      <trkpt lat="47.55019" lon="1.7836804">
        <ele>153</ele>
        <time>2022-03-17T08:45:08.000Z</time>
      </trkpt>
      <trkpt lat="47.5502" lon="1.7836695">
        <ele>153</ele>
        <time>2022-03-17T08:45:09.000Z</time>
      </trkpt>
      <trkpt lat="47.550213" lon="1.7836629">
        <ele>153</ele>
        <time>2022-03-17T08:45:10.000Z</time>
      </trkpt>
      <trkpt lat="47.550224" lon="1.783654">
        <ele>153</ele>
        <time>2022-03-17T08:45:11.000Z</time>
      </trkpt>
      <trkpt lat="47.55024" lon="1.7836492">
        <ele>154</ele>
        <time>2022-03-17T08:45:12.000Z</time>
      </trkpt>
      <trkpt lat="47.55025" lon="1.7836422">
        <ele>153</ele>
        <time>2022-03-17T08:45:13.000Z</time>
      </trkpt>
      <trkpt lat="47.55026" lon="1.7836353">
        <ele>153</ele>
        <time>2022-03-17T08:45:14.000Z</time>
      </trkpt>
      <trkpt lat="47.55027" lon="1.7836268">
        <ele>154</ele>
        <time>2022-03-17T08:45:15.000Z</time>
      </trkpt>
      <trkpt lat="47.55028" lon="1.7836171">
        <ele>154</ele>
        <time>2022-03-17T08:45:16.000Z</time>
      </trkpt>
      <trkpt lat="47.550293" lon="1.7836124">
        <ele>153</ele>
        <time>2022-03-17T08:45:17.000Z</time>
      </trkpt>
      <trkpt lat="47.55031" lon="1.7836051">
        <ele>153</ele>
        <time>2022-03-17T08:45:18.000Z</time>
      </trkpt>
      <trkpt lat="47.550316" lon="1.7835972">
        <ele>153</ele>
        <time>2022-03-17T08:45:19.000Z</time>
      </trkpt>
      <trkpt lat="47.550323" lon="1.783588">
        <ele>153</ele>
        <time>2022-03-17T08:45:20.000Z</time>
      </trkpt>
      <trkpt lat="47.55033" lon="1.7835788">
        <ele>153</ele>
        <time>2022-03-17T08:45:21.000Z</time>
      </trkpt>
      <trkpt lat="47.550346" lon="1.7835692">
        <ele>153</ele>
        <time>2022-03-17T08:45:22.000Z</time>
      </trkpt>
      <trkpt lat="47.550354" lon="1.7835584">
        <ele>153</ele>
        <time>2022-03-17T08:45:23.000Z</time>
      </trkpt>
      <trkpt lat="47.550365" lon="1.7835468">
        <ele>153</ele>
        <time>2022-03-17T08:45:24.000Z</time>
      </trkpt>
      <trkpt lat="47.550377" lon="1.7835407">
        <ele>153</ele>
        <time>2022-03-17T08:45:25.000Z</time>
      </trkpt>
      <trkpt lat="47.550385" lon="1.7835332">
        <ele>153</ele>
        <time>2022-03-17T08:45:26.000Z</time>
      </trkpt>
      <trkpt lat="47.550392" lon="1.7835277">
        <ele>152</ele>
        <time>2022-03-17T08:45:27.000Z</time>
      </trkpt>
      <trkpt lat="47.550404" lon="1.7835221">
        <ele>152</ele>
        <time>2022-03-17T08:45:28.000Z</time>
      </trkpt>
      <trkpt lat="47.55041" lon="1.7835168">
        <ele>152</ele>
        <time>2022-03-17T08:45:29.000Z</time>
      </trkpt>
      <trkpt lat="47.550423" lon="1.7835072">
        <ele>152</ele>
        <time>2022-03-17T08:45:30.000Z</time>
      </trkpt>
      <trkpt lat="47.550434" lon="1.7834971">
        <ele>152</ele>
        <time>2022-03-17T08:45:31.000Z</time>
      </trkpt>
      <trkpt lat="47.550446" lon="1.7834888">
        <ele>152</ele>
        <time>2022-03-17T08:45:32.000Z</time>
      </trkpt>
      <trkpt lat="47.550457" lon="1.7834841">
        <ele>152</ele>
        <time>2022-03-17T08:45:33.000Z</time>
      </trkpt>
      <trkpt lat="47.55047" lon="1.7834802">
        <ele>153</ele>
        <time>2022-03-17T08:45:34.000Z</time>
      </trkpt>
      <trkpt lat="47.55048" lon="1.7834707">
        <ele>152</ele>
        <time>2022-03-17T08:45:35.000Z</time>
      </trkpt>
      <trkpt lat="47.550488" lon="1.7834609">
        <ele>152</ele>
        <time>2022-03-17T08:45:36.000Z</time>
      </trkpt>
      <trkpt lat="47.550495" lon="1.783456">
        <ele>152</ele>
        <time>2022-03-17T08:45:37.000Z</time>
      </trkpt>
      <trkpt lat="47.550507" lon="1.7834463">
        <ele>151</ele>
        <time>2022-03-17T08:45:38.000Z</time>
      </trkpt>
      <trkpt lat="47.55052" lon="1.7834355">
        <ele>152</ele>
        <time>2022-03-17T08:45:39.000Z</time>
      </trkpt>
      <trkpt lat="47.55053" lon="1.7834293">
        <ele>152</ele>
        <time>2022-03-17T08:45:40.000Z</time>
      </trkpt>
      <trkpt lat="47.550545" lon="1.7834213">
        <ele>152</ele>
        <time>2022-03-17T08:45:41.000Z</time>
      </trkpt>
      <trkpt lat="47.550552" lon="1.783412">
        <ele>152</ele>
        <time>2022-03-17T08:45:42.000Z</time>
      </trkpt>
      <trkpt lat="47.550568" lon="1.7834042">
        <ele>152</ele>
        <time>2022-03-17T08:45:43.000Z</time>
      </trkpt>
      <trkpt lat="47.55058" lon="1.7833914">
        <ele>152</ele>
        <time>2022-03-17T08:45:44.000Z</time>
      </trkpt>
      <trkpt lat="47.550587" lon="1.783374">
        <ele>152</ele>
        <time>2022-03-17T08:45:45.000Z</time>
      </trkpt>
      <trkpt lat="47.550602" lon="1.7833632">
        <ele>152</ele>
        <time>2022-03-17T08:45:46.000Z</time>
      </trkpt>
      <trkpt lat="47.550613" lon="1.7833555">
        <ele>152</ele>
        <time>2022-03-17T08:45:47.000Z</time>
      </trkpt>
      <trkpt lat="47.55063" lon="1.7833419">
        <ele>152</ele>
        <time>2022-03-17T08:45:48.000Z</time>
      </trkpt>
      <trkpt lat="47.55064" lon="1.783329">
        <ele>152</ele>
        <time>2022-03-17T08:45:49.000Z</time>
      </trkpt>
      <trkpt lat="47.550655" lon="1.7833185">
        <ele>152</ele>
        <time>2022-03-17T08:45:50.000Z</time>
      </trkpt>
      <trkpt lat="47.55067" lon="1.7833103">
        <ele>152</ele>
        <time>2022-03-17T08:45:51.000Z</time>
      </trkpt>
      <trkpt lat="47.55068" lon="1.7832998">
        <ele>152</ele>
        <time>2022-03-17T08:45:52.000Z</time>
      </trkpt>
      <trkpt lat="47.55069" lon="1.7832897">
        <ele>152</ele>
        <time>2022-03-17T08:45:53.000Z</time>
      </trkpt>
      <trkpt lat="47.550697" lon="1.7832798">
        <ele>153</ele>
        <time>2022-03-17T08:45:54.000Z</time>
      </trkpt>
      <trkpt lat="47.55071" lon="1.7832674">
        <ele>153</ele>
        <time>2022-03-17T08:45:55.000Z</time>
      </trkpt>
      <trkpt lat="47.55072" lon="1.7832552">
        <ele>153</ele>
        <time>2022-03-17T08:45:56.000Z</time>
      </trkpt>
      <trkpt lat="47.55073" lon="1.7832445">
        <ele>153</ele>
        <time>2022-03-17T08:45:57.000Z</time>
      </trkpt>
      <trkpt lat="47.550743" lon="1.7832391">
        <ele>153</ele>
        <time>2022-03-17T08:45:58.000Z</time>
      </trkpt>
      <trkpt lat="47.55076" lon="1.7832347">
        <ele>153</ele>
        <time>2022-03-17T08:45:59.000Z</time>
      </trkpt>
      <trkpt lat="47.550777" lon="1.7832197">
        <ele>154</ele>
        <time>2022-03-17T08:46:01.000Z</time>
      </trkpt>
      <trkpt lat="47.55079" lon="1.7832094">
        <ele>154</ele>
        <time>2022-03-17T08:46:02.000Z</time>
      </trkpt>
      <trkpt lat="47.550797" lon="1.7832038">
        <ele>154</ele>
        <time>2022-03-17T08:46:03.000Z</time>
      </trkpt>
      <trkpt lat="47.550804" lon="1.7831964">
        <ele>154</ele>
        <time>2022-03-17T08:46:04.000Z</time>
      </trkpt>
      <trkpt lat="47.55081" lon="1.78319">
        <ele>154</ele>
        <time>2022-03-17T08:46:05.000Z</time>
      </trkpt>
      <trkpt lat="47.55082" lon="1.783181">
        <ele>154</ele>
        <time>2022-03-17T08:46:06.000Z</time>
      </trkpt>
      <trkpt lat="47.55083" lon="1.7831737">
        <ele>154</ele>
        <time>2022-03-17T08:46:07.000Z</time>
      </trkpt>
      <trkpt lat="47.55084" lon="1.7831676">
        <ele>154</ele>
        <time>2022-03-17T08:46:08.000Z</time>
      </trkpt>
      <trkpt lat="47.550846" lon="1.7831601">
        <ele>154</ele>
        <time>2022-03-17T08:46:09.000Z</time>
      </trkpt>
      <trkpt lat="47.55085" lon="1.783151">
        <ele>153</ele>
        <time>2022-03-17T08:46:10.000Z</time>
      </trkpt>
      <trkpt lat="47.550858" lon="1.7831395">
        <ele>153</ele>
        <time>2022-03-17T08:46:11.000Z</time>
      </trkpt>
      <trkpt lat="47.550865" lon="1.7831244">
        <ele>153</ele>
        <time>2022-03-17T08:46:12.000Z</time>
      </trkpt>
      <trkpt lat="47.550873" lon="1.7831151">
        <ele>153</ele>
        <time>2022-03-17T08:46:13.000Z</time>
      </trkpt>
      <trkpt lat="47.550877" lon="1.7831019">
        <ele>153</ele>
        <time>2022-03-17T08:46:14.000Z</time>
      </trkpt>
      <trkpt lat="47.550888" lon="1.7830898">
        <ele>154</ele>
        <time>2022-03-17T08:46:15.000Z</time>
      </trkpt>
      <trkpt lat="47.5509" lon="1.7830759">
        <ele>153</ele>
        <time>2022-03-17T08:46:16.000Z</time>
      </trkpt>
      <trkpt lat="47.55091" lon="1.783062">
        <ele>154</ele>
        <time>2022-03-17T08:46:17.000Z</time>
      </trkpt>
      <trkpt lat="47.550926" lon="1.783048">
        <ele>154</ele>
        <time>2022-03-17T08:46:18.000Z</time>
      </trkpt>
      <trkpt lat="47.550938" lon="1.7830386">
        <ele>154</ele>
        <time>2022-03-17T08:46:19.000Z</time>
      </trkpt>
      <trkpt lat="47.55095" lon="1.7830304">
        <ele>154</ele>
        <time>2022-03-17T08:46:20.000Z</time>
      </trkpt>
      <trkpt lat="47.550957" lon="1.7830175">
        <ele>154</ele>
        <time>2022-03-17T08:46:21.000Z</time>
      </trkpt>
      <trkpt lat="47.550964" lon="1.7830069">
        <ele>154</ele>
        <time>2022-03-17T08:46:22.000Z</time>
      </trkpt>
      <trkpt lat="47.550976" lon="1.7829946">
        <ele>154</ele>
        <time>2022-03-17T08:46:23.000Z</time>
      </trkpt>
      <trkpt lat="47.550983" lon="1.7829826">
        <ele>154</ele>
        <time>2022-03-17T08:46:24.000Z</time>
      </trkpt>
      <trkpt lat="47.550995" lon="1.7829763">
        <ele>155</ele>
        <time>2022-03-17T08:46:25.000Z</time>
      </trkpt>
      <trkpt lat="47.55101" lon="1.7829673">
        <ele>155</ele>
        <time>2022-03-17T08:46:26.000Z</time>
      </trkpt>
      <trkpt lat="47.55102" lon="1.782958">
        <ele>155</ele>
        <time>2022-03-17T08:46:27.000Z</time>
      </trkpt>
      <trkpt lat="47.55103" lon="1.7829442">
        <ele>155</ele>
        <time>2022-03-17T08:46:28.000Z</time>
      </trkpt>
      <trkpt lat="47.55104" lon="1.7829332">
        <ele>155</ele>
        <time>2022-03-17T08:46:29.000Z</time>
      </trkpt>
      <trkpt lat="47.551052" lon="1.7829236">
        <ele>155</ele>
        <time>2022-03-17T08:46:30.000Z</time>
      </trkpt>
      <trkpt lat="47.55106" lon="1.7829113">
        <ele>154</ele>
        <time>2022-03-17T08:46:31.000Z</time>
      </trkpt>
      <trkpt lat="47.551067" lon="1.7828971">
        <ele>154</ele>
        <time>2022-03-17T08:46:32.000Z</time>
      </trkpt>
      <trkpt lat="47.551075" lon="1.782884">
        <ele>154</ele>
        <time>2022-03-17T08:46:33.000Z</time>
      </trkpt>
      <trkpt lat="47.551086" lon="1.7828707">
        <ele>154</ele>
        <time>2022-03-17T08:46:34.000Z</time>
      </trkpt>
      <trkpt lat="47.551094" lon="1.7828584">
        <ele>154</ele>
        <time>2022-03-17T08:46:35.000Z</time>
      </trkpt>
      <trkpt lat="47.5511" lon="1.7828505">
        <ele>154</ele>
        <time>2022-03-17T08:46:36.000Z</time>
      </trkpt>
      <trkpt lat="47.551113" lon="1.7828419">
        <ele>154</ele>
        <time>2022-03-17T08:46:37.000Z</time>
      </trkpt>
      <trkpt lat="47.551125" lon="1.782832">
        <ele>154</ele>
        <time>2022-03-17T08:46:38.000Z</time>
      </trkpt>
      <trkpt lat="47.551132" lon="1.7828207">
        <ele>154</ele>
        <time>2022-03-17T08:46:39.000Z</time>
      </trkpt>
      <trkpt lat="47.55114" lon="1.7828078">
        <ele>154</ele>
        <time>2022-03-17T08:46:40.000Z</time>
      </trkpt>
      <trkpt lat="47.551147" lon="1.7827954">
        <ele>154</ele>
        <time>2022-03-17T08:46:41.000Z</time>
      </trkpt>
      <trkpt lat="47.551155" lon="1.7827853">
        <ele>154</ele>
        <time>2022-03-17T08:46:42.000Z</time>
      </trkpt>
      <trkpt lat="47.551167" lon="1.7827744">
        <ele>154</ele>
        <time>2022-03-17T08:46:43.000Z</time>
      </trkpt>
      <trkpt lat="47.551178" lon="1.782761">
        <ele>153</ele>
        <time>2022-03-17T08:46:44.000Z</time>
      </trkpt>
      <trkpt lat="47.551186" lon="1.7827513">
        <ele>153</ele>
        <time>2022-03-17T08:46:45.000Z</time>
      </trkpt>
      <trkpt lat="47.551193" lon="1.7827448">
        <ele>152</ele>
        <time>2022-03-17T08:46:46.000Z</time>
      </trkpt>
      <trkpt lat="47.55121" lon="1.7827377">
        <ele>152</ele>
        <time>2022-03-17T08:46:47.000Z</time>
      </trkpt>
      <trkpt lat="47.55122" lon="1.782729">
        <ele>152</ele>
        <time>2022-03-17T08:46:48.000Z</time>
      </trkpt>
      <trkpt lat="47.55123" lon="1.7827173">
        <ele>152</ele>
        <time>2022-03-17T08:46:49.000Z</time>
      </trkpt>
      <trkpt lat="47.551243" lon="1.7827027">
        <ele>152</ele>
        <time>2022-03-17T08:46:50.000Z</time>
      </trkpt>
      <trkpt lat="47.55125" lon="1.7826927">
        <ele>151</ele>
        <time>2022-03-17T08:46:51.000Z</time>
      </trkpt>
      <trkpt lat="47.551258" lon="1.7826806">
        <ele>151</ele>
        <time>2022-03-17T08:46:52.000Z</time>
      </trkpt>
      <trkpt lat="47.551273" lon="1.7826735">
        <ele>151</ele>
        <time>2022-03-17T08:46:53.000Z</time>
      </trkpt>
      <trkpt lat="47.55128" lon="1.7826635">
        <ele>151</ele>
        <time>2022-03-17T08:46:54.000Z</time>
      </trkpt>
      <trkpt lat="47.551292" lon="1.7826524">
        <ele>151</ele>
        <time>2022-03-17T08:46:55.000Z</time>
      </trkpt>
      <trkpt lat="47.5513" lon="1.7826416">
        <ele>151</ele>
        <time>2022-03-17T08:46:56.000Z</time>
      </trkpt>
      <trkpt lat="47.55131" lon="1.7826327">
        <ele>152</ele>
        <time>2022-03-17T08:46:57.000Z</time>
      </trkpt>
      <trkpt lat="47.551323" lon="1.7826256">
        <ele>151</ele>
        <time>2022-03-17T08:46:58.000Z</time>
      </trkpt>
      <trkpt lat="47.55133" lon="1.782614">
        <ele>152</ele>
        <time>2022-03-17T08:46:59.000Z</time>
      </trkpt>
      <trkpt lat="47.551342" lon="1.7826023">
        <ele>152</ele>
        <time>2022-03-17T08:47:00.000Z</time>
      </trkpt>
      <trkpt lat="47.551353" lon="1.7825919">
        <ele>152</ele>
        <time>2022-03-17T08:47:01.000Z</time>
      </trkpt>
      <trkpt lat="47.55136" lon="1.7825822">
        <ele>152</ele>
        <time>2022-03-17T08:47:02.000Z</time>
      </trkpt>
      <trkpt lat="47.55137" lon="1.7825724">
        <ele>152</ele>
        <time>2022-03-17T08:47:03.000Z</time>
      </trkpt>
      <trkpt lat="47.55138" lon="1.782561">
        <ele>152</ele>
        <time>2022-03-17T08:47:04.000Z</time>
      </trkpt>
      <trkpt lat="47.551384" lon="1.7825502">
        <ele>152</ele>
        <time>2022-03-17T08:47:05.000Z</time>
      </trkpt>
      <trkpt lat="47.551388" lon="1.7825428">
        <ele>153</ele>
        <time>2022-03-17T08:47:06.000Z</time>
      </trkpt>
      <trkpt lat="47.55139" lon="1.7825339">
        <ele>153</ele>
        <time>2022-03-17T08:47:07.000Z</time>
      </trkpt>
      <trkpt lat="47.5514" lon="1.7825228">
        <ele>153</ele>
        <time>2022-03-17T08:47:08.000Z</time>
      </trkpt>
      <trkpt lat="47.551407" lon="1.7825092">
        <ele>153</ele>
        <time>2022-03-17T08:47:09.000Z</time>
      </trkpt>
      <trkpt lat="47.55142" lon="1.7824991">
        <ele>153</ele>
        <time>2022-03-17T08:47:10.000Z</time>
      </trkpt>
      <trkpt lat="47.551426" lon="1.7824866">
        <ele>153</ele>
        <time>2022-03-17T08:47:11.000Z</time>
      </trkpt>
      <trkpt lat="47.551434" lon="1.7824744">
        <ele>154</ele>
        <time>2022-03-17T08:47:12.000Z</time>
      </trkpt>
      <trkpt lat="47.55144" lon="1.7824619">
        <ele>153</ele>
        <time>2022-03-17T08:47:13.000Z</time>
      </trkpt>
      <trkpt lat="47.551453" lon="1.7824495">
        <ele>153</ele>
        <time>2022-03-17T08:47:14.000Z</time>
      </trkpt>
      <trkpt lat="47.55146" lon="1.7824439">
        <ele>153</ele>
        <time>2022-03-17T08:47:15.000Z</time>
      </trkpt>
      <trkpt lat="47.55146" lon="1.7824396">
        <ele>153</ele>
        <time>2022-03-17T08:47:16.000Z</time>
      </trkpt>
      <trkpt lat="47.551453" lon="1.7824382">
        <ele>153</ele>
        <time>2022-03-17T08:47:17.000Z</time>
      </trkpt>
      <trkpt lat="47.551453" lon="1.7824382">
        <ele>153</ele>
        <time>2022-03-17T08:47:18.000Z</time>
      </trkpt>
      <trkpt lat="47.55145" lon="1.7824392">
        <ele>152</ele>
        <time>2022-03-17T08:47:19.000Z</time>
      </trkpt>
      <trkpt lat="47.551453" lon="1.7824411">
        <ele>152</ele>
        <time>2022-03-17T08:47:20.000Z</time>
      </trkpt>
      <trkpt lat="47.55146" lon="1.7824347">
        <ele>152</ele>
        <time>2022-03-17T08:47:21.000Z</time>
      </trkpt>
      <trkpt lat="47.55146" lon="1.7824224">
        <ele>152</ele>
        <time>2022-03-17T08:47:22.000Z</time>
      </trkpt>
      <trkpt lat="47.55146" lon="1.7824262">
        <ele>152</ele>
        <time>2022-03-17T08:47:23.000Z</time>
      </trkpt>
      <trkpt lat="47.55146" lon="1.7824267">
        <ele>152</ele>
        <time>2022-03-17T08:47:24.000Z</time>
      </trkpt>
      <trkpt lat="47.55146" lon="1.7824267">
        <ele>152</ele>
        <time>2022-03-17T08:47:24.000Z</time>
      </trkpt>
      <trkpt lat="47.55146" lon="1.7824267">
        <ele>152</ele>
        <time>2022-03-17T08:47:24.000Z</time>
      </trkpt>
      <trkpt lat="47.5515" lon="1.7823678">
        <ele>150</ele>
        <time>2022-03-17T08:51:31.000Z</time>
      </trkpt>
      <trkpt lat="47.551502" lon="1.7823673">
        <ele>150</ele>
        <time>2022-03-17T08:51:32.000Z</time>
      </trkpt>
      <trkpt lat="47.55151" lon="1.7823621">
        <ele>151</ele>
        <time>2022-03-17T08:51:33.000Z</time>
      </trkpt>
      <trkpt lat="47.551514" lon="1.7823563">
        <ele>151</ele>
        <time>2022-03-17T08:51:34.000Z</time>
      </trkpt>
      <trkpt lat="47.55152" lon="1.7823536">
        <ele>151</ele>
        <time>2022-03-17T08:51:35.000Z</time>
      </trkpt>
      <trkpt lat="47.551525" lon="1.782348">
        <ele>151</ele>
        <time>2022-03-17T08:51:36.000Z</time>
      </trkpt>
      <trkpt lat="47.551533" lon="1.7823439">
        <ele>151</ele>
        <time>2022-03-17T08:51:37.000Z</time>
      </trkpt>
      <trkpt lat="47.551533" lon="1.7823439">
        <ele>151</ele>
        <time>2022-03-17T08:51:38.000Z</time>
      </trkpt>
      <trkpt lat="47.551533" lon="1.7823439">
        <ele>151</ele>
        <time>2022-03-17T08:51:39.000Z</time>
      </trkpt>
      <trkpt lat="47.55154" lon="1.782323">
        <ele>150</ele>
        <time>2022-03-17T08:51:40.000Z</time>
      </trkpt>
      <trkpt lat="47.55154" lon="1.7823104">
        <ele>150</ele>
        <time>2022-03-17T08:51:41.000Z</time>
      </trkpt>
      <trkpt lat="47.551544" lon="1.782294">
        <ele>150</ele>
        <time>2022-03-17T08:51:42.000Z</time>
      </trkpt>
      <trkpt lat="47.551544" lon="1.782279">
        <ele>150</ele>
        <time>2022-03-17T08:51:43.000Z</time>
      </trkpt>
      <trkpt lat="47.55154" lon="1.7822676">
        <ele>151</ele>
        <time>2022-03-17T08:51:44.000Z</time>
      </trkpt>
      <trkpt lat="47.551537" lon="1.782257">
        <ele>151</ele>
        <time>2022-03-17T08:51:45.000Z</time>
      </trkpt>
      <trkpt lat="47.551537" lon="1.7822449">
        <ele>151</ele>
        <time>2022-03-17T08:51:46.000Z</time>
      </trkpt>
      <trkpt lat="47.55153" lon="1.7822347">
        <ele>151</ele>
        <time>2022-03-17T08:51:47.000Z</time>
      </trkpt>
      <trkpt lat="47.55153" lon="1.7822233">
        <ele>151</ele>
        <time>2022-03-17T08:51:48.000Z</time>
      </trkpt>
      <trkpt lat="47.551525" lon="1.7822148">
        <ele>151</ele>
        <time>2022-03-17T08:51:49.000Z</time>
      </trkpt>
      <trkpt lat="47.551517" lon="1.7822081">
        <ele>151</ele>
        <time>2022-03-17T08:51:50.000Z</time>
      </trkpt>
      <trkpt lat="47.551514" lon="1.7822014">
        <ele>152</ele>
        <time>2022-03-17T08:51:51.000Z</time>
      </trkpt>
      <trkpt lat="47.55151" lon="1.7821919">
        <ele>152</ele>
        <time>2022-03-17T08:51:52.000Z</time>
      </trkpt>
      <trkpt lat="47.551506" lon="1.782186">
        <ele>152</ele>
        <time>2022-03-17T08:51:53.000Z</time>
      </trkpt>
      <trkpt lat="47.5515" lon="1.7821782">
        <ele>152</ele>
        <time>2022-03-17T08:51:54.000Z</time>
      </trkpt>
      <trkpt lat="47.551495" lon="1.7821705">
        <ele>152</ele>
        <time>2022-03-17T08:51:55.000Z</time>
      </trkpt>
      <trkpt lat="47.551487" lon="1.7821643">
        <ele>152</ele>
        <time>2022-03-17T08:51:56.000Z</time>
      </trkpt>
      <trkpt lat="47.551483" lon="1.7821552">
        <ele>151</ele>
        <time>2022-03-17T08:51:57.000Z</time>
      </trkpt>
      <trkpt lat="47.55147" lon="1.7821447">
        <ele>152</ele>
        <time>2022-03-17T08:51:58.000Z</time>
      </trkpt>
      <trkpt lat="47.551468" lon="1.7821378">
        <ele>152</ele>
        <time>2022-03-17T08:51:59.000Z</time>
      </trkpt>
      <trkpt lat="47.551464" lon="1.7821264">
        <ele>152</ele>
        <time>2022-03-17T08:52:00.000Z</time>
      </trkpt>
      <trkpt lat="47.55146" lon="1.7821137">
        <ele>153</ele>
        <time>2022-03-17T08:52:01.000Z</time>
      </trkpt>
      <trkpt lat="47.551456" lon="1.7821025">
        <ele>153</ele>
        <time>2022-03-17T08:52:02.000Z</time>
      </trkpt>
      <trkpt lat="47.55145" lon="1.7820915">
        <ele>153</ele>
        <time>2022-03-17T08:52:03.000Z</time>
      </trkpt>
      <trkpt lat="47.55144" lon="1.7820822">
        <ele>153</ele>
        <time>2022-03-17T08:52:04.000Z</time>
      </trkpt>
      <trkpt lat="47.55144" lon="1.782074">
        <ele>152</ele>
        <time>2022-03-17T08:52:05.000Z</time>
      </trkpt>
      <trkpt lat="47.551434" lon="1.7820657">
        <ele>153</ele>
        <time>2022-03-17T08:52:06.000Z</time>
      </trkpt>
      <trkpt lat="47.55143" lon="1.7820567">
        <ele>153</ele>
        <time>2022-03-17T08:52:07.000Z</time>
      </trkpt>
      <trkpt lat="47.551426" lon="1.782048">
        <ele>153</ele>
        <time>2022-03-17T08:52:08.000Z</time>
      </trkpt>
      <trkpt lat="47.551422" lon="1.7820407">
        <ele>152</ele>
        <time>2022-03-17T08:52:09.000Z</time>
      </trkpt>
      <trkpt lat="47.551414" lon="1.7820301">
        <ele>153</ele>
        <time>2022-03-17T08:52:10.000Z</time>
      </trkpt>
      <trkpt lat="47.55141" lon="1.7820206">
        <ele>153</ele>
        <time>2022-03-17T08:52:11.000Z</time>
      </trkpt>
      <trkpt lat="47.551403" lon="1.7820113">
        <ele>153</ele>
        <time>2022-03-17T08:52:12.000Z</time>
      </trkpt>
      <trkpt lat="47.5514" lon="1.7820011">
        <ele>153</ele>
        <time>2022-03-17T08:52:13.000Z</time>
      </trkpt>
      <trkpt lat="47.551395" lon="1.7819909">
        <ele>153</ele>
        <time>2022-03-17T08:52:14.000Z</time>
      </trkpt>
      <trkpt lat="47.55139" lon="1.7819717">
        <ele>154</ele>
        <time>2022-03-17T08:52:15.000Z</time>
      </trkpt>
      <trkpt lat="47.551384" lon="1.7819575">
        <ele>154</ele>
        <time>2022-03-17T08:52:16.000Z</time>
      </trkpt>
      <trkpt lat="47.551376" lon="1.7819464">
        <ele>154</ele>
        <time>2022-03-17T08:52:17.000Z</time>
      </trkpt>
      <trkpt lat="47.551373" lon="1.7819351">
        <ele>154</ele>
        <time>2022-03-17T08:52:18.000Z</time>
      </trkpt>
      <trkpt lat="47.551365" lon="1.7819245">
        <ele>153</ele>
        <time>2022-03-17T08:52:19.000Z</time>
      </trkpt>
      <trkpt lat="47.55136" lon="1.7819103">
        <ele>154</ele>
        <time>2022-03-17T08:52:20.000Z</time>
      </trkpt>
      <trkpt lat="47.551357" lon="1.7819035">
        <ele>153</ele>
        <time>2022-03-17T08:52:21.000Z</time>
      </trkpt>
      <trkpt lat="47.55135" lon="1.7818938">
        <ele>152</ele>
        <time>2022-03-17T08:52:22.000Z</time>
      </trkpt>
      <trkpt lat="47.551342" lon="1.7818837">
        <ele>152</ele>
        <time>2022-03-17T08:52:23.000Z</time>
      </trkpt>
      <trkpt lat="47.55134" lon="1.7818723">
        <ele>153</ele>
        <time>2022-03-17T08:52:24.000Z</time>
      </trkpt>
      <trkpt lat="47.55133" lon="1.7818592">
        <ele>153</ele>
        <time>2022-03-17T08:52:25.000Z</time>
      </trkpt>
      <trkpt lat="47.551327" lon="1.7818485">
        <ele>153</ele>
        <time>2022-03-17T08:52:26.000Z</time>
      </trkpt>
      <trkpt lat="47.551323" lon="1.7818376">
        <ele>153</ele>
        <time>2022-03-17T08:52:27.000Z</time>
      </trkpt>
      <trkpt lat="47.551315" lon="1.7818277">
        <ele>153</ele>
        <time>2022-03-17T08:52:28.000Z</time>
      </trkpt>
      <trkpt lat="47.55131" lon="1.7818173">
        <ele>153</ele>
        <time>2022-03-17T08:52:29.000Z</time>
      </trkpt>
      <trkpt lat="47.551304" lon="1.7818067">
        <ele>153</ele>
        <time>2022-03-17T08:52:30.000Z</time>
      </trkpt>
      <trkpt lat="47.5513" lon="1.7817955">
        <ele>153</ele>
        <time>2022-03-17T08:52:31.000Z</time>
      </trkpt>
      <trkpt lat="47.551292" lon="1.781785">
        <ele>153</ele>
        <time>2022-03-17T08:52:32.000Z</time>
      </trkpt>
      <trkpt lat="47.55129" lon="1.7817715">
        <ele>154</ele>
        <time>2022-03-17T08:52:33.000Z</time>
      </trkpt>
      <trkpt lat="47.551285" lon="1.7817587">
        <ele>154</ele>
        <time>2022-03-17T08:52:34.000Z</time>
      </trkpt>
      <trkpt lat="47.551277" lon="1.781745">
        <ele>153</ele>
        <time>2022-03-17T08:52:35.000Z</time>
      </trkpt>
      <trkpt lat="47.551273" lon="1.78173">
        <ele>153</ele>
        <time>2022-03-17T08:52:36.000Z</time>
      </trkpt>
      <trkpt lat="47.551266" lon="1.7817162">
        <ele>154</ele>
        <time>2022-03-17T08:52:37.000Z</time>
      </trkpt>
      <trkpt lat="47.55126" lon="1.7817007">
        <ele>154</ele>
        <time>2022-03-17T08:52:38.000Z</time>
      </trkpt>
      <trkpt lat="47.551254" lon="1.7816899">
        <ele>154</ele>
        <time>2022-03-17T08:52:39.000Z</time>
      </trkpt>
      <trkpt lat="47.55125" lon="1.7816783">
        <ele>154</ele>
        <time>2022-03-17T08:52:40.000Z</time>
      </trkpt>
      <trkpt lat="47.551247" lon="1.7816668">
        <ele>154</ele>
        <time>2022-03-17T08:52:41.000Z</time>
      </trkpt>
      <trkpt lat="47.55124" lon="1.7816553">
        <ele>154</ele>
        <time>2022-03-17T08:52:42.000Z</time>
      </trkpt>
      <trkpt lat="47.551235" lon="1.7816417">
        <ele>153</ele>
        <time>2022-03-17T08:52:43.000Z</time>
      </trkpt>
      <trkpt lat="47.551228" lon="1.7816296">
        <ele>153</ele>
        <time>2022-03-17T08:52:44.000Z</time>
      </trkpt>
      <trkpt lat="47.551224" lon="1.7816206">
        <ele>153</ele>
        <time>2022-03-17T08:52:45.000Z</time>
      </trkpt>
      <trkpt lat="47.55122" lon="1.7816092">
        <ele>153</ele>
        <time>2022-03-17T08:52:46.000Z</time>
      </trkpt>
      <trkpt lat="47.551212" lon="1.7815979">
        <ele>154</ele>
        <time>2022-03-17T08:52:47.000Z</time>
      </trkpt>
      <trkpt lat="47.55121" lon="1.7815892">
        <ele>154</ele>
        <time>2022-03-17T08:52:48.000Z</time>
      </trkpt>
      <trkpt lat="47.5512" lon="1.7815773">
        <ele>154</ele>
        <time>2022-03-17T08:52:49.000Z</time>
      </trkpt>
      <trkpt lat="47.551193" lon="1.781564">
        <ele>154</ele>
        <time>2022-03-17T08:52:50.000Z</time>
      </trkpt>
      <trkpt lat="47.551186" lon="1.7815511">
        <ele>154</ele>
        <time>2022-03-17T08:52:51.000Z</time>
      </trkpt>
      <trkpt lat="47.551178" lon="1.7815434">
        <ele>154</ele>
        <time>2022-03-17T08:52:52.000Z</time>
      </trkpt>
      <trkpt lat="47.551174" lon="1.7815337">
        <ele>154</ele>
        <time>2022-03-17T08:52:53.000Z</time>
      </trkpt>
      <trkpt lat="47.551163" lon="1.7815214">
        <ele>154</ele>
        <time>2022-03-17T08:52:54.000Z</time>
      </trkpt>
      <trkpt lat="47.55116" lon="1.7815104">
        <ele>154</ele>
        <time>2022-03-17T08:52:55.000Z</time>
      </trkpt>
      <trkpt lat="47.55116" lon="1.7814965">
        <ele>154</ele>
        <time>2022-03-17T08:52:56.000Z</time>
      </trkpt>
      <trkpt lat="47.551147" lon="1.781481">
        <ele>154</ele>
        <time>2022-03-17T08:52:57.000Z</time>
      </trkpt>
      <trkpt lat="47.551144" lon="1.7814705">
        <ele>154</ele>
        <time>2022-03-17T08:52:58.000Z</time>
      </trkpt>
      <trkpt lat="47.55114" lon="1.7814568">
        <ele>154</ele>
        <time>2022-03-17T08:52:59.000Z</time>
      </trkpt>
      <trkpt lat="47.55114" lon="1.781446">
        <ele>153</ele>
        <time>2022-03-17T08:53:00.000Z</time>
      </trkpt>
      <trkpt lat="47.551132" lon="1.7814363">
        <ele>153</ele>
        <time>2022-03-17T08:53:01.000Z</time>
      </trkpt>
      <trkpt lat="47.55113" lon="1.7814249">
        <ele>153</ele>
        <time>2022-03-17T08:53:02.000Z</time>
      </trkpt>
      <trkpt lat="47.551117" lon="1.7814125">
        <ele>153</ele>
        <time>2022-03-17T08:53:03.000Z</time>
      </trkpt>
      <trkpt lat="47.551113" lon="1.7814002">
        <ele>153</ele>
        <time>2022-03-17T08:53:04.000Z</time>
      </trkpt>
      <trkpt lat="47.5511" lon="1.7813907">
        <ele>153</ele>
        <time>2022-03-17T08:53:05.000Z</time>
      </trkpt>
      <trkpt lat="47.551098" lon="1.7813802">
        <ele>153</ele>
        <time>2022-03-17T08:53:06.000Z</time>
      </trkpt>
      <trkpt lat="47.55109" lon="1.7813675">
        <ele>154</ele>
        <time>2022-03-17T08:53:07.000Z</time>
      </trkpt>
      <trkpt lat="47.551083" lon="1.7813545">
        <ele>153</ele>
        <time>2022-03-17T08:53:08.000Z</time>
      </trkpt>
      <trkpt lat="47.55108" lon="1.7813442">
        <ele>154</ele>
        <time>2022-03-17T08:53:09.000Z</time>
      </trkpt>
      <trkpt lat="47.55107" lon="1.7813351">
        <ele>154</ele>
        <time>2022-03-17T08:53:10.000Z</time>
      </trkpt>
      <trkpt lat="47.551064" lon="1.7813236">
        <ele>154</ele>
        <time>2022-03-17T08:53:11.000Z</time>
      </trkpt>
      <trkpt lat="47.55106" lon="1.7813132">
        <ele>153</ele>
        <time>2022-03-17T08:53:12.000Z</time>
      </trkpt>
      <trkpt lat="47.551056" lon="1.7813023">
        <ele>153</ele>
        <time>2022-03-17T08:53:13.000Z</time>
      </trkpt>
      <trkpt lat="47.551044" lon="1.7812902">
        <ele>153</ele>
        <time>2022-03-17T08:53:14.000Z</time>
      </trkpt>
      <trkpt lat="47.55104" lon="1.7812785">
        <ele>153</ele>
        <time>2022-03-17T08:53:15.000Z</time>
      </trkpt>
      <trkpt lat="47.551033" lon="1.7812644">
        <ele>153</ele>
        <time>2022-03-17T08:53:16.000Z</time>
      </trkpt>
      <trkpt lat="47.55103" lon="1.7812525">
        <ele>153</ele>
        <time>2022-03-17T08:53:17.000Z</time>
      </trkpt>
      <trkpt lat="47.551025" lon="1.7812392">
        <ele>153</ele>
        <time>2022-03-17T08:53:18.000Z</time>
      </trkpt>
      <trkpt lat="47.55102" lon="1.7812282">
        <ele>152</ele>
        <time>2022-03-17T08:53:19.000Z</time>
      </trkpt>
      <trkpt lat="47.551014" lon="1.7812195">
        <ele>153</ele>
        <time>2022-03-17T08:53:20.000Z</time>
      </trkpt>
      <trkpt lat="47.55101" lon="1.7812078">
        <ele>153</ele>
        <time>2022-03-17T08:53:21.000Z</time>
      </trkpt>
      <trkpt lat="47.551003" lon="1.7811923">
        <ele>153</ele>
        <time>2022-03-17T08:53:22.000Z</time>
      </trkpt>
      <trkpt lat="47.550995" lon="1.7811815">
        <ele>153</ele>
        <time>2022-03-17T08:53:23.000Z</time>
      </trkpt>
      <trkpt lat="47.55099" lon="1.7811697">
        <ele>153</ele>
        <time>2022-03-17T08:53:24.000Z</time>
      </trkpt>
      <trkpt lat="47.550987" lon="1.7811583">
        <ele>153</ele>
        <time>2022-03-17T08:53:25.000Z</time>
      </trkpt>
      <trkpt lat="47.55098" lon="1.7811456">
        <ele>153</ele>
        <time>2022-03-17T08:53:26.000Z</time>
      </trkpt>
      <trkpt lat="47.550976" lon="1.7811303">
        <ele>153</ele>
        <time>2022-03-17T08:53:27.000Z</time>
      </trkpt>
      <trkpt lat="47.55097" lon="1.781117">
        <ele>153</ele>
        <time>2022-03-17T08:53:28.000Z</time>
      </trkpt>
      <trkpt lat="47.55096" lon="1.7811043">
        <ele>153</ele>
        <time>2022-03-17T08:53:29.000Z</time>
      </trkpt>
      <trkpt lat="47.550957" lon="1.7810954">
        <ele>153</ele>
        <time>2022-03-17T08:53:30.000Z</time>
      </trkpt>
      <trkpt lat="47.550953" lon="1.7810855">
        <ele>152</ele>
        <time>2022-03-17T08:53:31.000Z</time>
      </trkpt>
      <trkpt lat="47.550945" lon="1.7810725">
        <ele>153</ele>
        <time>2022-03-17T08:53:32.000Z</time>
      </trkpt>
      <trkpt lat="47.550938" lon="1.7810628">
        <ele>153</ele>
        <time>2022-03-17T08:53:33.000Z</time>
      </trkpt>
      <trkpt lat="47.550934" lon="1.7810508">
        <ele>153</ele>
        <time>2022-03-17T08:53:34.000Z</time>
      </trkpt>
      <trkpt lat="47.550926" lon="1.7810388">
        <ele>153</ele>
        <time>2022-03-17T08:53:35.000Z</time>
      </trkpt>
      <trkpt lat="47.550922" lon="1.7810253">
        <ele>152</ele>
        <time>2022-03-17T08:53:36.000Z</time>
      </trkpt>
      <trkpt lat="47.55092" lon="1.7810113">
        <ele>152</ele>
        <time>2022-03-17T08:53:37.000Z</time>
      </trkpt>
      <trkpt lat="47.550915" lon="1.780998">
        <ele>152</ele>
        <time>2022-03-17T08:53:38.000Z</time>
      </trkpt>
      <trkpt lat="47.550907" lon="1.7809879">
        <ele>152</ele>
        <time>2022-03-17T08:53:39.000Z</time>
      </trkpt>
      <trkpt lat="47.5509" lon="1.7809788">
        <ele>152</ele>
        <time>2022-03-17T08:53:40.000Z</time>
      </trkpt>
      <trkpt lat="47.550896" lon="1.7809702">
        <ele>152</ele>
        <time>2022-03-17T08:53:41.000Z</time>
      </trkpt>
      <trkpt lat="47.550888" lon="1.7809604">
        <ele>152</ele>
        <time>2022-03-17T08:53:42.000Z</time>
      </trkpt>
      <trkpt lat="47.550884" lon="1.7809523">
        <ele>152</ele>
        <time>2022-03-17T08:53:43.000Z</time>
      </trkpt>
      <trkpt lat="47.550877" lon="1.7809395">
        <ele>152</ele>
        <time>2022-03-17T08:53:44.000Z</time>
      </trkpt>
      <trkpt lat="47.550873" lon="1.7809274">
        <ele>152</ele>
        <time>2022-03-17T08:53:45.000Z</time>
      </trkpt>
      <trkpt lat="47.550865" lon="1.7809149">
        <ele>153</ele>
        <time>2022-03-17T08:53:46.000Z</time>
      </trkpt>
      <trkpt lat="47.55086" lon="1.7809035">
        <ele>152</ele>
        <time>2022-03-17T08:53:47.000Z</time>
      </trkpt>
      <trkpt lat="47.550854" lon="1.7808927">
        <ele>152</ele>
        <time>2022-03-17T08:53:48.000Z</time>
      </trkpt>
      <trkpt lat="47.550846" lon="1.7808813">
        <ele>153</ele>
        <time>2022-03-17T08:53:49.000Z</time>
      </trkpt>
      <trkpt lat="47.55084" lon="1.7808708">
        <ele>153</ele>
        <time>2022-03-17T08:53:50.000Z</time>
      </trkpt>
      <trkpt lat="47.550835" lon="1.7808579">
        <ele>153</ele>
        <time>2022-03-17T08:53:51.000Z</time>
      </trkpt>
      <trkpt lat="47.550827" lon="1.7808437">
        <ele>153</ele>
        <time>2022-03-17T08:53:52.000Z</time>
      </trkpt>
      <trkpt lat="47.55082" lon="1.7808312">
        <ele>153</ele>
        <time>2022-03-17T08:53:53.000Z</time>
      </trkpt>
      <trkpt lat="47.550816" lon="1.7808167">
        <ele>153</ele>
        <time>2022-03-17T08:53:54.000Z</time>
      </trkpt>
      <trkpt lat="47.550808" lon="1.7808068">
        <ele>153</ele>
        <time>2022-03-17T08:53:55.000Z</time>
      </trkpt>
      <trkpt lat="47.550804" lon="1.780793">
        <ele>153</ele>
        <time>2022-03-17T08:53:56.000Z</time>
      </trkpt>
      <trkpt lat="47.550797" lon="1.7807776">
        <ele>153</ele>
        <time>2022-03-17T08:53:57.000Z</time>
      </trkpt>
      <trkpt lat="47.55079" lon="1.7807652">
        <ele>153</ele>
        <time>2022-03-17T08:53:58.000Z</time>
      </trkpt>
      <trkpt lat="47.55078" lon="1.7807531">
        <ele>153</ele>
        <time>2022-03-17T08:53:59.000Z</time>
      </trkpt>
      <trkpt lat="47.550774" lon="1.780739">
        <ele>153</ele>
        <time>2022-03-17T08:54:00.000Z</time>
      </trkpt>
      <trkpt lat="47.550762" lon="1.7807211">
        <ele>153</ele>
        <time>2022-03-17T08:54:01.000Z</time>
      </trkpt>
      <trkpt lat="47.55076" lon="1.7807047">
        <ele>152</ele>
        <time>2022-03-17T08:54:02.000Z</time>
      </trkpt>
      <trkpt lat="47.55075" lon="1.780691">
        <ele>152</ele>
        <time>2022-03-17T08:54:03.000Z</time>
      </trkpt>
      <trkpt lat="47.550743" lon="1.7806793">
        <ele>152</ele>
        <time>2022-03-17T08:54:04.000Z</time>
      </trkpt>
      <trkpt lat="47.550735" lon="1.7806698">
        <ele>152</ele>
        <time>2022-03-17T08:54:05.000Z</time>
      </trkpt>
      <trkpt lat="47.550728" lon="1.7806586">
        <ele>152</ele>
        <time>2022-03-17T08:54:06.000Z</time>
      </trkpt>
      <trkpt lat="47.55072" lon="1.7806469">
        <ele>152</ele>
        <time>2022-03-17T08:54:07.000Z</time>
      </trkpt>
      <trkpt lat="47.55071" lon="1.7806349">
        <ele>152</ele>
        <time>2022-03-17T08:54:08.000Z</time>
      </trkpt>
      <trkpt lat="47.55071" lon="1.7806225">
        <ele>152</ele>
        <time>2022-03-17T08:54:09.000Z</time>
      </trkpt>
      <trkpt lat="47.5507" lon="1.7806104">
        <ele>152</ele>
        <time>2022-03-17T08:54:10.000Z</time>
      </trkpt>
      <trkpt lat="47.55069" lon="1.7806019">
        <ele>152</ele>
        <time>2022-03-17T08:54:11.000Z</time>
      </trkpt>
      <trkpt lat="47.550682" lon="1.7805924">
        <ele>152</ele>
        <time>2022-03-17T08:54:12.000Z</time>
      </trkpt>
      <trkpt lat="47.550674" lon="1.7805785">
        <ele>152</ele>
        <time>2022-03-17T08:54:13.000Z</time>
      </trkpt>
      <trkpt lat="47.55067" lon="1.780566">
        <ele>152</ele>
        <time>2022-03-17T08:54:14.000Z</time>
      </trkpt>
      <trkpt lat="47.550663" lon="1.7805526">
        <ele>151</ele>
        <time>2022-03-17T08:54:15.000Z</time>
      </trkpt>
      <trkpt lat="47.55065" lon="1.7805408">
        <ele>151</ele>
        <time>2022-03-17T08:54:16.000Z</time>
      </trkpt>
      <trkpt lat="47.550644" lon="1.7805287">
        <ele>151</ele>
        <time>2022-03-17T08:54:17.000Z</time>
      </trkpt>
      <trkpt lat="47.550636" lon="1.7805171">
        <ele>150</ele>
        <time>2022-03-17T08:54:18.000Z</time>
      </trkpt>
      <trkpt lat="47.55063" lon="1.7805059">
        <ele>150</ele>
        <time>2022-03-17T08:54:19.000Z</time>
      </trkpt>
      <trkpt lat="47.550625" lon="1.780492">
        <ele>150</ele>
        <time>2022-03-17T08:54:20.000Z</time>
      </trkpt>
      <trkpt lat="47.550617" lon="1.7804779">
        <ele>150</ele>
        <time>2022-03-17T08:54:21.000Z</time>
      </trkpt>
      <trkpt lat="47.55061" lon="1.7804654">
        <ele>150</ele>
        <time>2022-03-17T08:54:22.000Z</time>
      </trkpt>
      <trkpt lat="47.550606" lon="1.780449">
        <ele>150</ele>
        <time>2022-03-17T08:54:23.000Z</time>
      </trkpt>
      <trkpt lat="47.550602" lon="1.7804358">
        <ele>150</ele>
        <time>2022-03-17T08:54:24.000Z</time>
      </trkpt>
      <trkpt lat="47.5506" lon="1.7804251">
        <ele>150</ele>
        <time>2022-03-17T08:54:25.000Z</time>
      </trkpt>
      <trkpt lat="47.550594" lon="1.7804121">
        <ele>150</ele>
        <time>2022-03-17T08:54:26.000Z</time>
      </trkpt>
      <trkpt lat="47.550587" lon="1.7803972">
        <ele>150</ele>
        <time>2022-03-17T08:54:27.000Z</time>
      </trkpt>
      <trkpt lat="47.55058" lon="1.7803847">
        <ele>150</ele>
        <time>2022-03-17T08:54:28.000Z</time>
      </trkpt>
      <trkpt lat="47.550575" lon="1.7803727">
        <ele>150</ele>
        <time>2022-03-17T08:54:29.000Z</time>
      </trkpt>
      <trkpt lat="47.55057" lon="1.7803609">
        <ele>150</ele>
        <time>2022-03-17T08:54:30.000Z</time>
      </trkpt>
      <trkpt lat="47.55056" lon="1.7803494">
        <ele>150</ele>
        <time>2022-03-17T08:54:31.000Z</time>
      </trkpt>
      <trkpt lat="47.550552" lon="1.7803396">
        <ele>150</ele>
        <time>2022-03-17T08:54:32.000Z</time>
      </trkpt>
      <trkpt lat="47.55055" lon="1.7803262">
        <ele>150</ele>
        <time>2022-03-17T08:54:33.000Z</time>
      </trkpt>
      <trkpt lat="47.55054" lon="1.7803104">
        <ele>150</ele>
        <time>2022-03-17T08:54:34.000Z</time>
      </trkpt>
      <trkpt lat="47.550537" lon="1.7802935">
        <ele>149</ele>
        <time>2022-03-17T08:54:35.000Z</time>
      </trkpt>
      <trkpt lat="47.550526" lon="1.7802762">
        <ele>149</ele>
        <time>2022-03-17T08:54:36.000Z</time>
      </trkpt>
      <trkpt lat="47.550518" lon="1.7802616">
        <ele>150</ele>
        <time>2022-03-17T08:54:37.000Z</time>
      </trkpt>
      <trkpt lat="47.550514" lon="1.7802502">
        <ele>150</ele>
        <time>2022-03-17T08:54:38.000Z</time>
      </trkpt>
      <trkpt lat="47.55051" lon="1.7802386">
        <ele>150</ele>
        <time>2022-03-17T08:54:39.000Z</time>
      </trkpt>
      <trkpt lat="47.550503" lon="1.7802255">
        <ele>150</ele>
        <time>2022-03-17T08:54:40.000Z</time>
      </trkpt>
      <trkpt lat="47.550495" lon="1.7802129">
        <ele>150</ele>
        <time>2022-03-17T08:54:41.000Z</time>
      </trkpt>
      <trkpt lat="47.550488" lon="1.7801994">
        <ele>150</ele>
        <time>2022-03-17T08:54:42.000Z</time>
      </trkpt>
      <trkpt lat="47.550484" lon="1.7801837">
        <ele>150</ele>
        <time>2022-03-17T08:54:43.000Z</time>
      </trkpt>
      <trkpt lat="47.55048" lon="1.7801712">
        <ele>149</ele>
        <time>2022-03-17T08:54:44.000Z</time>
      </trkpt>
      <trkpt lat="47.550476" lon="1.7801578">
        <ele>150</ele>
        <time>2022-03-17T08:54:45.000Z</time>
      </trkpt>
      <trkpt lat="47.550472" lon="1.7801385">
        <ele>150</ele>
        <time>2022-03-17T08:54:46.000Z</time>
      </trkpt>
      <trkpt lat="47.550465" lon="1.7801269">
        <ele>150</ele>
        <time>2022-03-17T08:54:47.000Z</time>
      </trkpt>
      <trkpt lat="47.550457" lon="1.7801173">
        <ele>150</ele>
        <time>2022-03-17T08:54:48.000Z</time>
      </trkpt>
      <trkpt lat="47.55045" lon="1.7801045">
        <ele>150</ele>
        <time>2022-03-17T08:54:49.000Z</time>
      </trkpt>
      <trkpt lat="47.55044" lon="1.7800934">
        <ele>150</ele>
        <time>2022-03-17T08:54:50.000Z</time>
      </trkpt>
      <trkpt lat="47.55044" lon="1.780084">
        <ele>150</ele>
        <time>2022-03-17T08:54:51.000Z</time>
      </trkpt>
      <trkpt lat="47.550434" lon="1.7800691">
        <ele>150</ele>
        <time>2022-03-17T08:54:52.000Z</time>
      </trkpt>
      <trkpt lat="47.550426" lon="1.7800548">
        <ele>150</ele>
        <time>2022-03-17T08:54:53.000Z</time>
      </trkpt>
      <trkpt lat="47.55042" lon="1.7800391">
        <ele>151</ele>
        <time>2022-03-17T08:54:54.000Z</time>
      </trkpt>
      <trkpt lat="47.55041" lon="1.780023">
        <ele>151</ele>
        <time>2022-03-17T08:54:55.000Z</time>
      </trkpt>
      <trkpt lat="47.550404" lon="1.7800076">
        <ele>151</ele>
        <time>2022-03-17T08:54:56.000Z</time>
      </trkpt>
      <trkpt lat="47.550396" lon="1.7799933">
        <ele>151</ele>
        <time>2022-03-17T08:54:57.000Z</time>
      </trkpt>
      <trkpt lat="47.55039" lon="1.7799768">
        <ele>151</ele>
        <time>2022-03-17T08:54:58.000Z</time>
      </trkpt>
      <trkpt lat="47.550385" lon="1.7799621">
        <ele>151</ele>
        <time>2022-03-17T08:54:59.000Z</time>
      </trkpt>
      <trkpt lat="47.550377" lon="1.7799498">
        <ele>151</ele>
        <time>2022-03-17T08:55:00.000Z</time>
      </trkpt>
      <trkpt lat="47.550373" lon="1.7799371">
        <ele>151</ele>
        <time>2022-03-17T08:55:01.000Z</time>
      </trkpt>
      <trkpt lat="47.550365" lon="1.7799225">
        <ele>151</ele>
        <time>2022-03-17T08:55:02.000Z</time>
      </trkpt>
      <trkpt lat="47.550358" lon="1.7799101">
        <ele>151</ele>
        <time>2022-03-17T08:55:03.000Z</time>
      </trkpt>
      <trkpt lat="47.550354" lon="1.7798965">
        <ele>151</ele>
        <time>2022-03-17T08:55:04.000Z</time>
      </trkpt>
      <trkpt lat="47.550346" lon="1.7798816">
        <ele>151</ele>
        <time>2022-03-17T08:55:05.000Z</time>
      </trkpt>
      <trkpt lat="47.55034" lon="1.7798675">
        <ele>151</ele>
        <time>2022-03-17T08:55:06.000Z</time>
      </trkpt>
      <trkpt lat="47.55033" lon="1.7798545">
        <ele>151</ele>
        <time>2022-03-17T08:55:07.000Z</time>
      </trkpt>
      <trkpt lat="47.550327" lon="1.7798421">
        <ele>151</ele>
        <time>2022-03-17T08:55:08.000Z</time>
      </trkpt>
      <trkpt lat="47.55032" lon="1.779829">
        <ele>151</ele>
        <time>2022-03-17T08:55:09.000Z</time>
      </trkpt>
      <trkpt lat="47.550316" lon="1.7798166">
        <ele>151</ele>
        <time>2022-03-17T08:55:10.000Z</time>
      </trkpt>
      <trkpt lat="47.550304" lon="1.7798022">
        <ele>151</ele>
        <time>2022-03-17T08:55:11.000Z</time>
      </trkpt>
      <trkpt lat="47.550297" lon="1.7797875">
        <ele>151</ele>
        <time>2022-03-17T08:55:12.000Z</time>
      </trkpt>
      <trkpt lat="47.550293" lon="1.7797756">
        <ele>151</ele>
        <time>2022-03-17T08:55:13.000Z</time>
      </trkpt>
      <trkpt lat="47.55029" lon="1.7797642">
        <ele>151</ele>
        <time>2022-03-17T08:55:14.000Z</time>
      </trkpt>
      <trkpt lat="47.55028" lon="1.7797487">
        <ele>150</ele>
        <time>2022-03-17T08:55:15.000Z</time>
      </trkpt>
      <trkpt lat="47.550274" lon="1.7797364">
        <ele>150</ele>
        <time>2022-03-17T08:55:16.000Z</time>
      </trkpt>
      <trkpt lat="47.550266" lon="1.7797236">
        <ele>150</ele>
        <time>2022-03-17T08:55:17.000Z</time>
      </trkpt>
      <trkpt lat="47.550262" lon="1.7797112">
        <ele>150</ele>
        <time>2022-03-17T08:55:18.000Z</time>
      </trkpt>
      <trkpt lat="47.550255" lon="1.7796994">
        <ele>150</ele>
        <time>2022-03-17T08:55:19.000Z</time>
      </trkpt>
      <trkpt lat="47.55025" lon="1.7796854">
        <ele>151</ele>
        <time>2022-03-17T08:55:20.000Z</time>
      </trkpt>
      <trkpt lat="47.550247" lon="1.7796752">
        <ele>150</ele>
        <time>2022-03-17T08:55:21.000Z</time>
      </trkpt>
      <trkpt lat="47.55024" lon="1.7796613">
        <ele>150</ele>
        <time>2022-03-17T08:55:22.000Z</time>
      </trkpt>
      <trkpt lat="47.550232" lon="1.7796488">
        <ele>150</ele>
        <time>2022-03-17T08:55:23.000Z</time>
      </trkpt>
      <trkpt lat="47.550224" lon="1.779634">
        <ele>151</ele>
        <time>2022-03-17T08:55:24.000Z</time>
      </trkpt>
      <trkpt lat="47.550213" lon="1.7796195">
        <ele>151</ele>
        <time>2022-03-17T08:55:25.000Z</time>
      </trkpt>
      <trkpt lat="47.550205" lon="1.7796026">
        <ele>151</ele>
        <time>2022-03-17T08:55:26.000Z</time>
      </trkpt>
      <trkpt lat="47.5502" lon="1.779586">
        <ele>151</ele>
        <time>2022-03-17T08:55:27.000Z</time>
      </trkpt>
      <trkpt lat="47.550198" lon="1.7795734">
        <ele>151</ele>
        <time>2022-03-17T08:55:28.000Z</time>
      </trkpt>
      <trkpt lat="47.55019" lon="1.7795612">
        <ele>151</ele>
        <time>2022-03-17T08:55:29.000Z</time>
      </trkpt>
      <trkpt lat="47.550182" lon="1.7795475">
        <ele>151</ele>
        <time>2022-03-17T08:55:30.000Z</time>
      </trkpt>
      <trkpt lat="47.550175" lon="1.7795329">
        <ele>151</ele>
        <time>2022-03-17T08:55:31.000Z</time>
      </trkpt>
      <trkpt lat="47.550167" lon="1.7795191">
        <ele>151</ele>
        <time>2022-03-17T08:55:32.000Z</time>
      </trkpt>
      <trkpt lat="47.550163" lon="1.7795049">
        <ele>152</ele>
        <time>2022-03-17T08:55:33.000Z</time>
      </trkpt>
      <trkpt lat="47.550156" lon="1.7794888">
        <ele>152</ele>
        <time>2022-03-17T08:55:34.000Z</time>
      </trkpt>
      <trkpt lat="47.550148" lon="1.7794741">
        <ele>152</ele>
        <time>2022-03-17T08:55:35.000Z</time>
      </trkpt>
      <trkpt lat="47.55014" lon="1.7794572">
        <ele>152</ele>
        <time>2022-03-17T08:55:36.000Z</time>
      </trkpt>
      <trkpt lat="47.550137" lon="1.7794415">
        <ele>152</ele>
        <time>2022-03-17T08:55:37.000Z</time>
      </trkpt>
      <trkpt lat="47.55013" lon="1.7794261">
        <ele>152</ele>
        <time>2022-03-17T08:55:38.000Z</time>
      </trkpt>
      <trkpt lat="47.55013" lon="1.7794099">
        <ele>152</ele>
        <time>2022-03-17T08:55:39.000Z</time>
      </trkpt>
      <trkpt lat="47.55012" lon="1.7793957">
        <ele>152</ele>
        <time>2022-03-17T08:55:40.000Z</time>
      </trkpt>
      <trkpt lat="47.550114" lon="1.7793874">
        <ele>153</ele>
        <time>2022-03-17T08:55:41.000Z</time>
      </trkpt>
      <trkpt lat="47.55011" lon="1.7793789">
        <ele>152</ele>
        <time>2022-03-17T08:55:42.000Z</time>
      </trkpt>
      <trkpt lat="47.550106" lon="1.779371">
        <ele>152</ele>
        <time>2022-03-17T08:55:43.000Z</time>
      </trkpt>
      <trkpt lat="47.550102" lon="1.7793592">
        <ele>152</ele>
        <time>2022-03-17T08:55:44.000Z</time>
      </trkpt>
      <trkpt lat="47.5501" lon="1.7793422">
        <ele>152</ele>
        <time>2022-03-17T08:55:45.000Z</time>
      </trkpt>
      <trkpt lat="47.55009" lon="1.7793293">
        <ele>153</ele>
        <time>2022-03-17T08:55:46.000Z</time>
      </trkpt>
      <trkpt lat="47.550083" lon="1.7793243">
        <ele>153</ele>
        <time>2022-03-17T08:55:47.000Z</time>
      </trkpt>
      <trkpt lat="47.550076" lon="1.7793145">
        <ele>153</ele>
        <time>2022-03-17T08:55:48.000Z</time>
      </trkpt>
      <trkpt lat="47.55007" lon="1.7793053">
        <ele>153</ele>
        <time>2022-03-17T08:55:49.000Z</time>
      </trkpt>
      <trkpt lat="47.550064" lon="1.779292">
        <ele>154</ele>
        <time>2022-03-17T08:55:50.000Z</time>
      </trkpt>
      <trkpt lat="47.55006" lon="1.7792839">
        <ele>153</ele>
        <time>2022-03-17T08:55:51.000Z</time>
      </trkpt>
      <trkpt lat="47.550053" lon="1.7792681">
        <ele>153</ele>
        <time>2022-03-17T08:55:52.000Z</time>
      </trkpt>
      <trkpt lat="47.55004" lon="1.7792557">
        <ele>153</ele>
        <time>2022-03-17T08:55:53.000Z</time>
      </trkpt>
      <trkpt lat="47.550034" lon="1.779241">
        <ele>153</ele>
        <time>2022-03-17T08:55:54.000Z</time>
      </trkpt>
      <trkpt lat="47.55003" lon="1.7792271">
        <ele>153</ele>
        <time>2022-03-17T08:55:55.000Z</time>
      </trkpt>
      <trkpt lat="47.550022" lon="1.7792125">
        <ele>153</ele>
        <time>2022-03-17T08:55:56.000Z</time>
      </trkpt>
      <trkpt lat="47.550014" lon="1.7791938">
        <ele>153</ele>
        <time>2022-03-17T08:55:57.000Z</time>
      </trkpt>
      <trkpt lat="47.55001" lon="1.7791808">
        <ele>153</ele>
        <time>2022-03-17T08:55:58.000Z</time>
      </trkpt>
      <trkpt lat="47.550003" lon="1.7791667">
        <ele>153</ele>
        <time>2022-03-17T08:55:59.000Z</time>
      </trkpt>
      <trkpt lat="47.549995" lon="1.7791524">
        <ele>152</ele>
        <time>2022-03-17T08:56:00.000Z</time>
      </trkpt>
      <trkpt lat="47.54999" lon="1.7791387">
        <ele>153</ele>
        <time>2022-03-17T08:56:01.000Z</time>
      </trkpt>
      <trkpt lat="47.54998" lon="1.7791243">
        <ele>152</ele>
        <time>2022-03-17T08:56:02.000Z</time>
      </trkpt>
      <trkpt lat="47.549973" lon="1.7791138">
        <ele>153</ele>
        <time>2022-03-17T08:56:03.000Z</time>
      </trkpt>
      <trkpt lat="47.54997" lon="1.7791004">
        <ele>152</ele>
        <time>2022-03-17T08:56:04.000Z</time>
      </trkpt>
      <trkpt lat="47.549965" lon="1.7790881">
        <ele>152</ele>
        <time>2022-03-17T08:56:05.000Z</time>
      </trkpt>
      <trkpt lat="47.549957" lon="1.7790749">
        <ele>152</ele>
        <time>2022-03-17T08:56:06.000Z</time>
      </trkpt>
      <trkpt lat="47.549953" lon="1.7790607">
        <ele>152</ele>
        <time>2022-03-17T08:56:07.000Z</time>
      </trkpt>
      <trkpt lat="47.549946" lon="1.779047">
        <ele>153</ele>
        <time>2022-03-17T08:56:08.000Z</time>
      </trkpt>
      <trkpt lat="47.549942" lon="1.7790338">
        <ele>153</ele>
        <time>2022-03-17T08:56:09.000Z</time>
      </trkpt>
      <trkpt lat="47.549934" lon="1.7790191">
        <ele>153</ele>
        <time>2022-03-17T08:56:10.000Z</time>
      </trkpt>
      <trkpt lat="47.549927" lon="1.7790059">
        <ele>153</ele>
        <time>2022-03-17T08:56:11.000Z</time>
      </trkpt>
      <trkpt lat="47.54992" lon="1.7789911">
        <ele>153</ele>
        <time>2022-03-17T08:56:12.000Z</time>
      </trkpt>
      <trkpt lat="47.549915" lon="1.7789778">
        <ele>154</ele>
        <time>2022-03-17T08:56:13.000Z</time>
      </trkpt>
      <trkpt lat="47.549908" lon="1.7789665">
        <ele>154</ele>
        <time>2022-03-17T08:56:14.000Z</time>
      </trkpt>
      <trkpt lat="47.549904" lon="1.7789515">
        <ele>154</ele>
        <time>2022-03-17T08:56:15.000Z</time>
      </trkpt>
      <trkpt lat="47.549896" lon="1.7789365">
        <ele>154</ele>
        <time>2022-03-17T08:56:16.000Z</time>
      </trkpt>
      <trkpt lat="47.549892" lon="1.7789235">
        <ele>154</ele>
        <time>2022-03-17T08:56:17.000Z</time>
      </trkpt>
      <trkpt lat="47.549885" lon="1.7789117">
        <ele>153</ele>
        <time>2022-03-17T08:56:18.000Z</time>
      </trkpt>
      <trkpt lat="47.54988" lon="1.7789007">
        <ele>153</ele>
        <time>2022-03-17T08:56:19.000Z</time>
      </trkpt>
      <trkpt lat="47.549877" lon="1.7788893">
        <ele>154</ele>
        <time>2022-03-17T08:56:20.000Z</time>
      </trkpt>
      <trkpt lat="47.54987" lon="1.7788739">
        <ele>154</ele>
        <time>2022-03-17T08:56:21.000Z</time>
      </trkpt>
      <trkpt lat="47.549862" lon="1.7788621">
        <ele>154</ele>
        <time>2022-03-17T08:56:22.000Z</time>
      </trkpt>
      <trkpt lat="47.54986" lon="1.7788514">
        <ele>154</ele>
        <time>2022-03-17T08:56:23.000Z</time>
      </trkpt>
      <trkpt lat="47.54985" lon="1.7788395">
        <ele>154</ele>
        <time>2022-03-17T08:56:24.000Z</time>
      </trkpt>
      <trkpt lat="47.549843" lon="1.7788247">
        <ele>155</ele>
        <time>2022-03-17T08:56:25.000Z</time>
      </trkpt>
      <trkpt lat="47.54984" lon="1.7788134">
        <ele>155</ele>
        <time>2022-03-17T08:56:26.000Z</time>
      </trkpt>
      <trkpt lat="47.549828" lon="1.7788061">
        <ele>155</ele>
        <time>2022-03-17T08:56:27.000Z</time>
      </trkpt>
      <trkpt lat="47.549824" lon="1.7787962">
        <ele>155</ele>
        <time>2022-03-17T08:56:28.000Z</time>
      </trkpt>
      <trkpt lat="47.549816" lon="1.778783">
        <ele>154</ele>
        <time>2022-03-17T08:56:29.000Z</time>
      </trkpt>
      <trkpt lat="47.54981" lon="1.7787683">
        <ele>154</ele>
        <time>2022-03-17T08:56:30.000Z</time>
      </trkpt>
      <trkpt lat="47.549805" lon="1.7787553">
        <ele>155</ele>
        <time>2022-03-17T08:56:31.000Z</time>
      </trkpt>
      <trkpt lat="47.549797" lon="1.7787461">
        <ele>154</ele>
        <time>2022-03-17T08:56:32.000Z</time>
      </trkpt>
      <trkpt lat="47.549793" lon="1.7787342">
        <ele>154</ele>
        <time>2022-03-17T08:56:33.000Z</time>
      </trkpt>
      <trkpt lat="47.549786" lon="1.7787212">
        <ele>153</ele>
        <time>2022-03-17T08:56:34.000Z</time>
      </trkpt>
      <trkpt lat="47.549778" lon="1.7787093">
        <ele>154</ele>
        <time>2022-03-17T08:56:35.000Z</time>
      </trkpt>
      <trkpt lat="47.54977" lon="1.7786986">
        <ele>153</ele>
        <time>2022-03-17T08:56:36.000Z</time>
      </trkpt>
      <trkpt lat="47.549763" lon="1.7786841">
        <ele>154</ele>
        <time>2022-03-17T08:56:37.000Z</time>
      </trkpt>
      <trkpt lat="47.549755" lon="1.7786682">
        <ele>154</ele>
        <time>2022-03-17T08:56:38.000Z</time>
      </trkpt>
      <trkpt lat="47.549747" lon="1.7786514">
        <ele>154</ele>
        <time>2022-03-17T08:56:39.000Z</time>
      </trkpt>
      <trkpt lat="47.54974" lon="1.7786372">
        <ele>154</ele>
        <time>2022-03-17T08:56:40.000Z</time>
      </trkpt>
      <trkpt lat="47.549732" lon="1.7786226">
        <ele>154</ele>
        <time>2022-03-17T08:56:41.000Z</time>
      </trkpt>
      <trkpt lat="47.549725" lon="1.7786088">
        <ele>154</ele>
        <time>2022-03-17T08:56:42.000Z</time>
      </trkpt>
      <trkpt lat="47.54972" lon="1.7785971">
        <ele>154</ele>
        <time>2022-03-17T08:56:43.000Z</time>
      </trkpt>
      <trkpt lat="47.549713" lon="1.7785851">
        <ele>154</ele>
        <time>2022-03-17T08:56:44.000Z</time>
      </trkpt>
      <trkpt lat="47.54971" lon="1.778569">
        <ele>154</ele>
        <time>2022-03-17T08:56:45.000Z</time>
      </trkpt>
      <trkpt lat="47.549706" lon="1.7785563">
        <ele>154</ele>
        <time>2022-03-17T08:56:46.000Z</time>
      </trkpt>
      <trkpt lat="47.5497" lon="1.7785424">
        <ele>154</ele>
        <time>2022-03-17T08:56:47.000Z</time>
      </trkpt>
      <trkpt lat="47.549694" lon="1.7785287">
        <ele>154</ele>
        <time>2022-03-17T08:56:48.000Z</time>
      </trkpt>
      <trkpt lat="47.54969" lon="1.7785181">
        <ele>154</ele>
        <time>2022-03-17T08:56:49.000Z</time>
      </trkpt>
      <trkpt lat="47.549686" lon="1.7785028">
        <ele>154</ele>
        <time>2022-03-17T08:56:50.000Z</time>
      </trkpt>
      <trkpt lat="47.54968" lon="1.7784907">
        <ele>154</ele>
        <time>2022-03-17T08:56:51.000Z</time>
      </trkpt>
      <trkpt lat="47.54967" lon="1.7784817">
        <ele>154</ele>
        <time>2022-03-17T08:56:52.000Z</time>
      </trkpt>
      <trkpt lat="47.549664" lon="1.7784722">
        <ele>154</ele>
        <time>2022-03-17T08:56:53.000Z</time>
      </trkpt>
      <trkpt lat="47.549656" lon="1.7784625">
        <ele>154</ele>
        <time>2022-03-17T08:56:54.000Z</time>
      </trkpt>
      <trkpt lat="47.54965" lon="1.7784528">
        <ele>154</ele>
        <time>2022-03-17T08:56:55.000Z</time>
      </trkpt>
      <trkpt lat="47.549644" lon="1.7784412">
        <ele>153</ele>
        <time>2022-03-17T08:56:56.000Z</time>
      </trkpt>
      <trkpt lat="47.54964" lon="1.7784284">
        <ele>153</ele>
        <time>2022-03-17T08:56:57.000Z</time>
      </trkpt>
      <trkpt lat="47.549633" lon="1.778419">
        <ele>153</ele>
        <time>2022-03-17T08:56:58.000Z</time>
      </trkpt>
      <trkpt lat="47.549625" lon="1.7784055">
        <ele>152</ele>
        <time>2022-03-17T08:56:59.000Z</time>
      </trkpt>
      <trkpt lat="47.54962" lon="1.7783893">
        <ele>152</ele>
        <time>2022-03-17T08:57:00.000Z</time>
      </trkpt>
      <trkpt lat="47.54961" lon="1.7783699">
        <ele>153</ele>
        <time>2022-03-17T08:57:01.000Z</time>
      </trkpt>
      <trkpt lat="47.549606" lon="1.7783552">
        <ele>153</ele>
        <time>2022-03-17T08:57:02.000Z</time>
      </trkpt>
      <trkpt lat="47.5496" lon="1.7783381">
        <ele>153</ele>
        <time>2022-03-17T08:57:03.000Z</time>
      </trkpt>
      <trkpt lat="47.549587" lon="1.7783245">
        <ele>153</ele>
        <time>2022-03-17T08:57:04.000Z</time>
      </trkpt>
      <trkpt lat="47.549583" lon="1.7783139">
        <ele>153</ele>
        <time>2022-03-17T08:57:05.000Z</time>
      </trkpt>
      <trkpt lat="47.549576" lon="1.778304">
        <ele>154</ele>
        <time>2022-03-17T08:57:06.000Z</time>
      </trkpt>
      <trkpt lat="47.54957" lon="1.7782903">
        <ele>154</ele>
        <time>2022-03-17T08:57:07.000Z</time>
      </trkpt>
      <trkpt lat="47.549564" lon="1.7782782">
        <ele>154</ele>
        <time>2022-03-17T08:57:08.000Z</time>
      </trkpt>
      <trkpt lat="47.54956" lon="1.7782675">
        <ele>154</ele>
        <time>2022-03-17T08:57:09.000Z</time>
      </trkpt>
      <trkpt lat="47.549553" lon="1.7782542">
        <ele>154</ele>
        <time>2022-03-17T08:57:10.000Z</time>
      </trkpt>
      <trkpt lat="47.54954" lon="1.7782407">
        <ele>154</ele>
        <time>2022-03-17T08:57:11.000Z</time>
      </trkpt>
      <trkpt lat="47.549534" lon="1.7782255">
        <ele>154</ele>
        <time>2022-03-17T08:57:12.000Z</time>
      </trkpt>
      <trkpt lat="47.549522" lon="1.778209">
        <ele>155</ele>
        <time>2022-03-17T08:57:13.000Z</time>
      </trkpt>
      <trkpt lat="47.54952" lon="1.7781935">
        <ele>155</ele>
        <time>2022-03-17T08:57:14.000Z</time>
      </trkpt>
      <trkpt lat="47.54951" lon="1.7781774">
        <ele>154</ele>
        <time>2022-03-17T08:57:15.000Z</time>
      </trkpt>
      <trkpt lat="47.549503" lon="1.7781627">
        <ele>154</ele>
        <time>2022-03-17T08:57:16.000Z</time>
      </trkpt>
      <trkpt lat="47.549496" lon="1.778148">
        <ele>154</ele>
        <time>2022-03-17T08:57:17.000Z</time>
      </trkpt>
      <trkpt lat="47.54949" lon="1.7781347">
        <ele>154</ele>
        <time>2022-03-17T08:57:18.000Z</time>
      </trkpt>
      <trkpt lat="47.549484" lon="1.778123">
        <ele>153</ele>
        <time>2022-03-17T08:57:19.000Z</time>
      </trkpt>
      <trkpt lat="47.549477" lon="1.778112">
        <ele>153</ele>
        <time>2022-03-17T08:57:20.000Z</time>
      </trkpt>
      <trkpt lat="47.54947" lon="1.7780983">
        <ele>153</ele>
        <time>2022-03-17T08:57:21.000Z</time>
      </trkpt>
      <trkpt lat="47.54946" lon="1.778084">
        <ele>153</ele>
        <time>2022-03-17T08:57:22.000Z</time>
      </trkpt>
      <trkpt lat="47.549458" lon="1.7780712">
        <ele>153</ele>
        <time>2022-03-17T08:57:23.000Z</time>
      </trkpt>
      <trkpt lat="47.549454" lon="1.7780602">
        <ele>153</ele>
        <time>2022-03-17T08:57:24.000Z</time>
      </trkpt>
      <trkpt lat="47.549446" lon="1.7780453">
        <ele>154</ele>
        <time>2022-03-17T08:57:25.000Z</time>
      </trkpt>
      <trkpt lat="47.54944" lon="1.7780328">
        <ele>154</ele>
        <time>2022-03-17T08:57:26.000Z</time>
      </trkpt>
      <trkpt lat="47.549435" lon="1.7780225">
        <ele>153</ele>
        <time>2022-03-17T08:57:27.000Z</time>
      </trkpt>
      <trkpt lat="47.54943" lon="1.7780126">
        <ele>153</ele>
        <time>2022-03-17T08:57:28.000Z</time>
      </trkpt>
      <trkpt lat="47.549423" lon="1.7779998">
        <ele>153</ele>
        <time>2022-03-17T08:57:29.000Z</time>
      </trkpt>
      <trkpt lat="47.54942" lon="1.7779859">
        <ele>153</ele>
        <time>2022-03-17T08:57:30.000Z</time>
      </trkpt>
      <trkpt lat="47.54941" lon="1.777973">
        <ele>153</ele>
        <time>2022-03-17T08:57:31.000Z</time>
      </trkpt>
      <trkpt lat="47.549404" lon="1.7779609">
        <ele>152</ele>
        <time>2022-03-17T08:57:32.000Z</time>
      </trkpt>
      <trkpt lat="47.549397" lon="1.7779453">
        <ele>152</ele>
        <time>2022-03-17T08:57:33.000Z</time>
      </trkpt>
      <trkpt lat="47.549385" lon="1.7779335">
        <ele>152</ele>
        <time>2022-03-17T08:57:34.000Z</time>
      </trkpt>
      <trkpt lat="47.54938" lon="1.7779207">
        <ele>152</ele>
        <time>2022-03-17T08:57:35.000Z</time>
      </trkpt>
      <trkpt lat="47.549374" lon="1.7779061">
        <ele>152</ele>
        <time>2022-03-17T08:57:36.000Z</time>
      </trkpt>
      <trkpt lat="47.54937" lon="1.7778965">
        <ele>152</ele>
        <time>2022-03-17T08:57:37.000Z</time>
      </trkpt>
      <trkpt lat="47.549362" lon="1.7778863">
        <ele>152</ele>
        <time>2022-03-17T08:57:38.000Z</time>
      </trkpt>
      <trkpt lat="47.549355" lon="1.7778734">
        <ele>152</ele>
        <time>2022-03-17T08:57:39.000Z</time>
      </trkpt>
      <trkpt lat="47.54935" lon="1.777864">
        <ele>152</ele>
        <time>2022-03-17T08:57:40.000Z</time>
      </trkpt>
      <trkpt lat="47.549343" lon="1.7778544">
        <ele>152</ele>
        <time>2022-03-17T08:57:41.000Z</time>
      </trkpt>
      <trkpt lat="47.549335" lon="1.7778441">
        <ele>153</ele>
        <time>2022-03-17T08:57:42.000Z</time>
      </trkpt>
      <trkpt lat="47.549328" lon="1.7778332">
        <ele>153</ele>
        <time>2022-03-17T08:57:43.000Z</time>
      </trkpt>
      <trkpt lat="47.54932" lon="1.7778233">
        <ele>153</ele>
        <time>2022-03-17T08:57:44.000Z</time>
      </trkpt>
      <trkpt lat="47.549313" lon="1.777813">
        <ele>153</ele>
        <time>2022-03-17T08:57:45.000Z</time>
      </trkpt>
      <trkpt lat="47.549297" lon="1.777807">
        <ele>152</ele>
        <time>2022-03-17T08:57:46.000Z</time>
      </trkpt>
      <trkpt lat="47.549286" lon="1.7778065">
        <ele>153</ele>
        <time>2022-03-17T08:57:47.000Z</time>
      </trkpt>
      <trkpt lat="47.549274" lon="1.7778094">
        <ele>153</ele>
        <time>2022-03-17T08:57:48.000Z</time>
      </trkpt>
      <trkpt lat="47.549267" lon="1.7778188">
        <ele>153</ele>
        <time>2022-03-17T08:57:49.000Z</time>
      </trkpt>
      <trkpt lat="47.549255" lon="1.7778356">
        <ele>154</ele>
        <time>2022-03-17T08:57:50.000Z</time>
      </trkpt>
      <trkpt lat="47.549248" lon="1.7778482">
        <ele>154</ele>
        <time>2022-03-17T08:57:51.000Z</time>
      </trkpt>
      <trkpt lat="47.54924" lon="1.7778574">
        <ele>154</ele>
        <time>2022-03-17T08:57:52.000Z</time>
      </trkpt>
      <trkpt lat="47.549236" lon="1.7778682">
        <ele>154</ele>
        <time>2022-03-17T08:57:53.000Z</time>
      </trkpt>
      <trkpt lat="47.54923" lon="1.7778779">
        <ele>153</ele>
        <time>2022-03-17T08:57:54.000Z</time>
      </trkpt>
      <trkpt lat="47.549225" lon="1.7778881">
        <ele>153</ele>
        <time>2022-03-17T08:57:55.000Z</time>
      </trkpt>
      <trkpt lat="47.549213" lon="1.7779018">
        <ele>153</ele>
        <time>2022-03-17T08:57:56.000Z</time>
      </trkpt>
      <trkpt lat="47.549206" lon="1.7779139">
        <ele>152</ele>
        <time>2022-03-17T08:57:57.000Z</time>
      </trkpt>
      <trkpt lat="47.549202" lon="1.7779323">
        <ele>152</ele>
        <time>2022-03-17T08:57:58.000Z</time>
      </trkpt>
      <trkpt lat="47.549194" lon="1.7779474">
        <ele>152</ele>
        <time>2022-03-17T08:57:59.000Z</time>
      </trkpt>
      <trkpt lat="47.549187" lon="1.7779597">
        <ele>152</ele>
        <time>2022-03-17T08:58:00.000Z</time>
      </trkpt>
      <trkpt lat="47.549183" lon="1.7779725">
        <ele>152</ele>
        <time>2022-03-17T08:58:01.000Z</time>
      </trkpt>
      <trkpt lat="47.549175" lon="1.7779853">
        <ele>153</ele>
        <time>2022-03-17T08:58:02.000Z</time>
      </trkpt>
      <trkpt lat="47.54917" lon="1.7780037">
        <ele>153</ele>
        <time>2022-03-17T08:58:03.000Z</time>
      </trkpt>
      <trkpt lat="47.549168" lon="1.7780181">
        <ele>153</ele>
        <time>2022-03-17T08:58:04.000Z</time>
      </trkpt>
      <trkpt lat="47.549164" lon="1.7780288">
        <ele>153</ele>
        <time>2022-03-17T08:58:05.000Z</time>
      </trkpt>
      <trkpt lat="47.549156" lon="1.77804">
        <ele>153</ele>
        <time>2022-03-17T08:58:06.000Z</time>
      </trkpt>
      <trkpt lat="47.549152" lon="1.7780521">
        <ele>152</ele>
        <time>2022-03-17T08:58:07.000Z</time>
      </trkpt>
      <trkpt lat="47.54915" lon="1.7780612">
        <ele>152</ele>
        <time>2022-03-17T08:58:08.000Z</time>
      </trkpt>
      <trkpt lat="47.549145" lon="1.7780746">
        <ele>153</ele>
        <time>2022-03-17T08:58:09.000Z</time>
      </trkpt>
      <trkpt lat="47.549137" lon="1.778086">
        <ele>152</ele>
        <time>2022-03-17T08:58:10.000Z</time>
      </trkpt>
      <trkpt lat="47.549133" lon="1.7780927">
        <ele>153</ele>
        <time>2022-03-17T08:58:11.000Z</time>
      </trkpt>
      <trkpt lat="47.549126" lon="1.7781018">
        <ele>153</ele>
        <time>2022-03-17T08:58:12.000Z</time>
      </trkpt>
      <trkpt lat="47.54912" lon="1.7781128">
        <ele>153</ele>
        <time>2022-03-17T08:58:13.000Z</time>
      </trkpt>
      <trkpt lat="47.549114" lon="1.7781239">
        <ele>153</ele>
        <time>2022-03-17T08:58:14.000Z</time>
      </trkpt>
      <trkpt lat="47.54911" lon="1.7781377">
        <ele>153</ele>
        <time>2022-03-17T08:58:15.000Z</time>
      </trkpt>
      <trkpt lat="47.549107" lon="1.7781477">
        <ele>153</ele>
        <time>2022-03-17T08:58:16.000Z</time>
      </trkpt>
      <trkpt lat="47.549103" lon="1.7781558">
        <ele>153</ele>
        <time>2022-03-17T08:58:17.000Z</time>
      </trkpt>
      <trkpt lat="47.549095" lon="1.7781667">
        <ele>153</ele>
        <time>2022-03-17T08:58:18.000Z</time>
      </trkpt>
      <trkpt lat="47.54909" lon="1.7781796">
        <ele>153</ele>
        <time>2022-03-17T08:58:19.000Z</time>
      </trkpt>
      <trkpt lat="47.549084" lon="1.7781912">
        <ele>154</ele>
        <time>2022-03-17T08:58:20.000Z</time>
      </trkpt>
      <trkpt lat="47.549084" lon="1.7782143">
        <ele>153</ele>
        <time>2022-03-17T08:58:21.000Z</time>
      </trkpt>
      <trkpt lat="47.54908" lon="1.7782288">
        <ele>153</ele>
        <time>2022-03-17T08:58:22.000Z</time>
      </trkpt>
      <trkpt lat="47.549076" lon="1.7782401">
        <ele>153</ele>
        <time>2022-03-17T08:58:23.000Z</time>
      </trkpt>
      <trkpt lat="47.54907" lon="1.7782506">
        <ele>153</ele>
        <time>2022-03-17T08:58:24.000Z</time>
      </trkpt>
      <trkpt lat="47.549065" lon="1.7782661">
        <ele>153</ele>
        <time>2022-03-17T08:58:25.000Z</time>
      </trkpt>
      <trkpt lat="47.54906" lon="1.7782824">
        <ele>153</ele>
        <time>2022-03-17T08:58:26.000Z</time>
      </trkpt>
      <trkpt lat="47.54906" lon="1.7783002">
        <ele>153</ele>
        <time>2022-03-17T08:58:27.000Z</time>
      </trkpt>
      <trkpt lat="47.549057" lon="1.7783158">
        <ele>153</ele>
        <time>2022-03-17T08:58:28.000Z</time>
      </trkpt>
      <trkpt lat="47.549053" lon="1.7783282">
        <ele>153</ele>
        <time>2022-03-17T08:58:29.000Z</time>
      </trkpt>
      <trkpt lat="47.549046" lon="1.7783431">
        <ele>153</ele>
        <time>2022-03-17T08:58:30.000Z</time>
      </trkpt>
      <trkpt lat="47.54904" lon="1.7783561">
        <ele>154</ele>
        <time>2022-03-17T08:58:31.000Z</time>
      </trkpt>
      <trkpt lat="47.549038" lon="1.778375">
        <ele>154</ele>
        <time>2022-03-17T08:58:32.000Z</time>
      </trkpt>
      <trkpt lat="47.549034" lon="1.7783891">
        <ele>154</ele>
        <time>2022-03-17T08:58:33.000Z</time>
      </trkpt>
      <trkpt lat="47.54903" lon="1.7783982">
        <ele>154</ele>
        <time>2022-03-17T08:58:34.000Z</time>
      </trkpt>
      <trkpt lat="47.549026" lon="1.7784029">
        <ele>154</ele>
        <time>2022-03-17T08:58:35.000Z</time>
      </trkpt>
      <trkpt lat="47.549026" lon="1.7784022">
        <ele>154</ele>
        <time>2022-03-17T08:58:36.000Z</time>
      </trkpt>
      <trkpt lat="47.54902" lon="1.7784042">
        <ele>154</ele>
        <time>2022-03-17T08:58:37.000Z</time>
      </trkpt>
      <trkpt lat="47.549015" lon="1.7784123">
        <ele>154</ele>
        <time>2022-03-17T08:58:38.000Z</time>
      </trkpt>
      <trkpt lat="47.549007" lon="1.7784263">
        <ele>154</ele>
        <time>2022-03-17T08:58:39.000Z</time>
      </trkpt>
      <trkpt lat="47.549004" lon="1.7784396">
        <ele>155</ele>
        <time>2022-03-17T08:58:40.000Z</time>
      </trkpt>
      <trkpt lat="47.548996" lon="1.7784597">
        <ele>154</ele>
        <time>2022-03-17T08:58:41.000Z</time>
      </trkpt>
      <trkpt lat="47.548992" lon="1.7784789">
        <ele>155</ele>
        <time>2022-03-17T08:58:42.000Z</time>
      </trkpt>
      <trkpt lat="47.548992" lon="1.7784975">
        <ele>155</ele>
        <time>2022-03-17T08:58:43.000Z</time>
      </trkpt>
      <trkpt lat="47.54899" lon="1.778513">
        <ele>155</ele>
        <time>2022-03-17T08:58:44.000Z</time>
      </trkpt>
      <trkpt lat="47.548985" lon="1.7785283">
        <ele>155</ele>
        <time>2022-03-17T08:58:45.000Z</time>
      </trkpt>
      <trkpt lat="47.54898" lon="1.7785407">
        <ele>155</ele>
        <time>2022-03-17T08:58:46.000Z</time>
      </trkpt>
      <trkpt lat="47.548973" lon="1.7785507">
        <ele>155</ele>
        <time>2022-03-17T08:58:47.000Z</time>
      </trkpt>
      <trkpt lat="47.548965" lon="1.778559">
        <ele>155</ele>
        <time>2022-03-17T08:58:48.000Z</time>
      </trkpt>
      <trkpt lat="47.54896" lon="1.7785715">
        <ele>155</ele>
        <time>2022-03-17T08:58:49.000Z</time>
      </trkpt>
      <trkpt lat="47.548954" lon="1.7785828">
        <ele>156</ele>
        <time>2022-03-17T08:58:50.000Z</time>
      </trkpt>
      <trkpt lat="47.548946" lon="1.7785997">
        <ele>156</ele>
        <time>2022-03-17T08:58:51.000Z</time>
      </trkpt>
      <trkpt lat="47.54894" lon="1.7786117">
        <ele>156</ele>
        <time>2022-03-17T08:58:52.000Z</time>
      </trkpt>
      <trkpt lat="47.54894" lon="1.7786304">
        <ele>156</ele>
        <time>2022-03-17T08:58:53.000Z</time>
      </trkpt>
      <trkpt lat="47.54893" lon="1.778643">
        <ele>156</ele>
        <time>2022-03-17T08:58:54.000Z</time>
      </trkpt>
      <trkpt lat="47.548923" lon="1.7786582">
        <ele>156</ele>
        <time>2022-03-17T08:58:55.000Z</time>
      </trkpt>
      <trkpt lat="47.54892" lon="1.7786729">
        <ele>156</ele>
        <time>2022-03-17T08:58:56.000Z</time>
      </trkpt>
      <trkpt lat="47.548912" lon="1.778685">
        <ele>156</ele>
        <time>2022-03-17T08:58:57.000Z</time>
      </trkpt>
      <trkpt lat="47.54891" lon="1.7786996">
        <ele>156</ele>
        <time>2022-03-17T08:58:58.000Z</time>
      </trkpt>
      <trkpt lat="47.548904" lon="1.7787095">
        <ele>155</ele>
        <time>2022-03-17T08:58:59.000Z</time>
      </trkpt>
      <trkpt lat="47.54891" lon="1.778724">
        <ele>155</ele>
        <time>2022-03-17T08:59:00.000Z</time>
      </trkpt>
      <trkpt lat="47.548904" lon="1.7787385">
        <ele>154</ele>
        <time>2022-03-17T08:59:01.000Z</time>
      </trkpt>
      <trkpt lat="47.5489" lon="1.7787514">
        <ele>154</ele>
        <time>2022-03-17T08:59:02.000Z</time>
      </trkpt>
      <trkpt lat="47.548897" lon="1.778765">
        <ele>154</ele>
        <time>2022-03-17T08:59:03.000Z</time>
      </trkpt>
      <trkpt lat="47.54889" lon="1.7787774">
        <ele>154</ele>
        <time>2022-03-17T08:59:04.000Z</time>
      </trkpt>
      <trkpt lat="47.54888" lon="1.7787937">
        <ele>154</ele>
        <time>2022-03-17T08:59:05.000Z</time>
      </trkpt>
      <trkpt lat="47.548874" lon="1.7788098">
        <ele>153</ele>
        <time>2022-03-17T08:59:06.000Z</time>
      </trkpt>
      <trkpt lat="47.54887" lon="1.7788174">
        <ele>153</ele>
        <time>2022-03-17T08:59:07.000Z</time>
      </trkpt>
      <trkpt lat="47.548866" lon="1.7788457">
        <ele>152</ele>
        <time>2022-03-17T08:59:08.000Z</time>
      </trkpt>
      <trkpt lat="47.548862" lon="1.7788585">
        <ele>152</ele>
        <time>2022-03-17T08:59:09.000Z</time>
      </trkpt>
      <trkpt lat="47.548862" lon="1.7788757">
        <ele>152</ele>
        <time>2022-03-17T08:59:10.000Z</time>
      </trkpt>
      <trkpt lat="47.548862" lon="1.7788757">
        <ele>152</ele>
        <time>2022-03-17T08:59:10.000Z</time>
      </trkpt>
      <trkpt lat="47.548862" lon="1.7788862">
        <ele>152</ele>
        <time>2022-03-17T08:59:12.000Z</time>
      </trkpt>
      <trkpt lat="47.54886" lon="1.7788919">
        <ele>152</ele>
        <time>2022-03-17T08:59:13.000Z</time>
      </trkpt>
      <trkpt lat="47.54885" lon="1.7789009">
        <ele>153</ele>
        <time>2022-03-17T08:59:14.000Z</time>
      </trkpt>
      <trkpt lat="47.548847" lon="1.7789109">
        <ele>153</ele>
        <time>2022-03-17T08:59:15.000Z</time>
      </trkpt>
      <trkpt lat="47.548843" lon="1.778925">
        <ele>153</ele>
        <time>2022-03-17T08:59:16.000Z</time>
      </trkpt>
      <trkpt lat="47.548843" lon="1.7789391">
        <ele>152</ele>
        <time>2022-03-17T08:59:17.000Z</time>
      </trkpt>
      <trkpt lat="47.548836" lon="1.7789574">
        <ele>152</ele>
        <time>2022-03-17T08:59:18.000Z</time>
      </trkpt>
      <trkpt lat="47.548832" lon="1.7789711">
        <ele>151</ele>
        <time>2022-03-17T08:59:19.000Z</time>
      </trkpt>
      <trkpt lat="47.548824" lon="1.7789835">
        <ele>151</ele>
        <time>2022-03-17T08:59:20.000Z</time>
      </trkpt>
      <trkpt lat="47.54882" lon="1.7789949">
        <ele>151</ele>
        <time>2022-03-17T08:59:21.000Z</time>
      </trkpt>
      <trkpt lat="47.548813" lon="1.77901">
        <ele>151</ele>
        <time>2022-03-17T08:59:22.000Z</time>
      </trkpt>
      <trkpt lat="47.54881" lon="1.7790219">
        <ele>151</ele>
        <time>2022-03-17T08:59:23.000Z</time>
      </trkpt>
      <trkpt lat="47.548798" lon="1.7790313">
        <ele>151</ele>
        <time>2022-03-17T08:59:24.000Z</time>
      </trkpt>
      <trkpt lat="47.548794" lon="1.7790402">
        <ele>151</ele>
        <time>2022-03-17T08:59:25.000Z</time>
      </trkpt>
      <trkpt lat="47.548786" lon="1.7790493">
        <ele>151</ele>
        <time>2022-03-17T08:59:26.000Z</time>
      </trkpt>
      <trkpt lat="47.548786" lon="1.7790625">
        <ele>152</ele>
        <time>2022-03-17T08:59:27.000Z</time>
      </trkpt>
      <trkpt lat="47.548782" lon="1.7790778">
        <ele>152</ele>
        <time>2022-03-17T08:59:28.000Z</time>
      </trkpt>
      <trkpt lat="47.54878" lon="1.7790958">
        <ele>152</ele>
        <time>2022-03-17T08:59:29.000Z</time>
      </trkpt>
      <trkpt lat="47.548775" lon="1.7791092">
        <ele>151</ele>
        <time>2022-03-17T08:59:30.000Z</time>
      </trkpt>
      <trkpt lat="47.54877" lon="1.7791252">
        <ele>150</ele>
        <time>2022-03-17T08:59:31.000Z</time>
      </trkpt>
      <trkpt lat="47.548767" lon="1.7791408">
        <ele>150</ele>
        <time>2022-03-17T08:59:32.000Z</time>
      </trkpt>
      <trkpt lat="47.548763" lon="1.7791715">
        <ele>150</ele>
        <time>2022-03-17T08:59:33.000Z</time>
      </trkpt>
      <trkpt lat="47.548763" lon="1.7791715">
        <ele>150</ele>
        <time>2022-03-17T08:59:33.000Z</time>
      </trkpt>
      <trkpt lat="47.54876" lon="1.7791888">
        <ele>150</ele>
        <time>2022-03-17T08:59:35.000Z</time>
      </trkpt>
      <trkpt lat="47.54875" lon="1.7792041">
        <ele>150</ele>
        <time>2022-03-17T08:59:36.000Z</time>
      </trkpt>
      <trkpt lat="47.548744" lon="1.7792164">
        <ele>150</ele>
        <time>2022-03-17T08:59:37.000Z</time>
      </trkpt>
      <trkpt lat="47.548737" lon="1.7792352">
        <ele>150</ele>
        <time>2022-03-17T08:59:38.000Z</time>
      </trkpt>
      <trkpt lat="47.548725" lon="1.7792447">
        <ele>151</ele>
        <time>2022-03-17T08:59:39.000Z</time>
      </trkpt>
      <trkpt lat="47.548717" lon="1.7792587">
        <ele>151</ele>
        <time>2022-03-17T08:59:40.000Z</time>
      </trkpt>
      <trkpt lat="47.548706" lon="1.779268">
        <ele>151</ele>
        <time>2022-03-17T08:59:41.000Z</time>
      </trkpt>
      <trkpt lat="47.5487" lon="1.7792833">
        <ele>152</ele>
        <time>2022-03-17T08:59:42.000Z</time>
      </trkpt>
      <trkpt lat="47.548687" lon="1.7792947">
        <ele>153</ele>
        <time>2022-03-17T08:59:43.000Z</time>
      </trkpt>
      <trkpt lat="47.54868" lon="1.7792975">
        <ele>154</ele>
        <time>2022-03-17T08:59:44.000Z</time>
      </trkpt>
      <trkpt lat="47.54867" lon="1.7792982">
        <ele>154</ele>
        <time>2022-03-17T08:59:45.000Z</time>
      </trkpt>
      <trkpt lat="47.548656" lon="1.779303">
        <ele>154</ele>
        <time>2022-03-17T08:59:46.000Z</time>
      </trkpt>
      <trkpt lat="47.54865" lon="1.7793055">
        <ele>155</ele>
        <time>2022-03-17T08:59:47.000Z</time>
      </trkpt>
      <trkpt lat="47.548645" lon="1.7793069">
        <ele>155</ele>
        <time>2022-03-17T08:59:48.000Z</time>
      </trkpt>
      <trkpt lat="47.548645" lon="1.7793069">
        <ele>155</ele>
        <time>2022-03-17T08:59:48.000Z</time>
      </trkpt>
      <trkpt lat="47.548637" lon="1.7793063">
        <ele>155</ele>
        <time>2022-03-17T08:59:50.000Z</time>
      </trkpt>
      <trkpt lat="47.548615" lon="1.779308">
        <ele>155</ele>
        <time>2022-03-17T08:59:51.000Z</time>
      </trkpt>
      <trkpt lat="47.548615" lon="1.779308">
        <ele>155</ele>
        <time>2022-03-17T08:59:51.000Z</time>
      </trkpt>
      <trkpt lat="47.548603" lon="1.7793103">
        <ele>155</ele>
        <time>2022-03-17T08:59:53.000Z</time>
      </trkpt>
      <trkpt lat="47.54859" lon="1.7793137">
        <ele>156</ele>
        <time>2022-03-17T08:59:54.000Z</time>
      </trkpt>
      <trkpt lat="47.548584" lon="1.779317">
        <ele>156</ele>
        <time>2022-03-17T08:59:55.000Z</time>
      </trkpt>
      <trkpt lat="47.548557" lon="1.7793311">
        <ele>156</ele>
        <time>2022-03-17T08:59:56.000Z</time>
      </trkpt>
      <trkpt lat="47.548557" lon="1.7793311">
        <ele>156</ele>
        <time>2022-03-17T08:59:56.000Z</time>
      </trkpt>
      <trkpt lat="47.54855" lon="1.7793406">
        <ele>156</ele>
        <time>2022-03-17T08:59:58.000Z</time>
      </trkpt>
      <trkpt lat="47.54852" lon="1.7793429">
        <ele>156</ele>
        <time>2022-03-17T08:59:59.000Z</time>
      </trkpt>
      <trkpt lat="47.548504" lon="1.7793438">
        <ele>156</ele>
        <time>2022-03-17T09:00:00.000Z</time>
      </trkpt>
      <trkpt lat="47.548496" lon="1.7793474">
        <ele>157</ele>
        <time>2022-03-17T09:00:01.000Z</time>
      </trkpt>
      <trkpt lat="47.548496" lon="1.7793474">
        <ele>157</ele>
        <time>2022-03-17T09:00:01.000Z</time>
      </trkpt>
      <trkpt lat="47.548485" lon="1.77935">
        <ele>157</ele>
        <time>2022-03-17T09:00:03.000Z</time>
      </trkpt>
      <trkpt lat="47.548473" lon="1.7793548">
        <ele>157</ele>
        <time>2022-03-17T09:00:04.000Z</time>
      </trkpt>
      <trkpt lat="47.548447" lon="1.7793716">
        <ele>158</ele>
        <time>2022-03-17T09:00:05.000Z</time>
      </trkpt>
      <trkpt lat="47.548435" lon="1.7793759">
        <ele>158</ele>
        <time>2022-03-17T09:00:06.000Z</time>
      </trkpt>
      <trkpt lat="47.54842" lon="1.7793804">
        <ele>158</ele>
        <time>2022-03-17T09:00:07.000Z</time>
      </trkpt>
      <trkpt lat="47.54842" lon="1.7793804">
        <ele>158</ele>
        <time>2022-03-17T09:00:07.000Z</time>
      </trkpt>
      <trkpt lat="47.5484" lon="1.7793931">
        <ele>158</ele>
        <time>2022-03-17T09:00:09.000Z</time>
      </trkpt>
      <trkpt lat="47.54839" lon="1.7793996">
        <ele>158</ele>
        <time>2022-03-17T09:00:10.000Z</time>
      </trkpt>
      <trkpt lat="47.548378" lon="1.7794054">
        <ele>159</ele>
        <time>2022-03-17T09:00:11.000Z</time>
      </trkpt>
      <trkpt lat="47.548367" lon="1.7794086">
        <ele>159</ele>
        <time>2022-03-17T09:00:12.000Z</time>
      </trkpt>
      <trkpt lat="47.54836" lon="1.7794098">
        <ele>158</ele>
        <time>2022-03-17T09:00:13.000Z</time>
      </trkpt>
      <trkpt lat="47.548347" lon="1.7794129">
        <ele>158</ele>
        <time>2022-03-17T09:00:14.000Z</time>
      </trkpt>
      <trkpt lat="47.548347" lon="1.7794123">
        <ele>158</ele>
        <time>2022-03-17T09:00:15.000Z</time>
      </trkpt>
      <trkpt lat="47.54834" lon="1.7794188">
        <ele>158</ele>
        <time>2022-03-17T09:00:16.000Z</time>
      </trkpt>
      <trkpt lat="47.54833" lon="1.779422">
        <ele>158</ele>
        <time>2022-03-17T09:00:17.000Z</time>
      </trkpt>
      <trkpt lat="47.548317" lon="1.779424">
        <ele>158</ele>
        <time>2022-03-17T09:00:18.000Z</time>
      </trkpt>
      <trkpt lat="47.5483" lon="1.7794302">
        <ele>158</ele>
        <time>2022-03-17T09:00:19.000Z</time>
      </trkpt>
      <trkpt lat="47.548294" lon="1.7794343">
        <ele>158</ele>
        <time>2022-03-17T09:00:20.000Z</time>
      </trkpt>
      <trkpt lat="47.54829" lon="1.7794362">
        <ele>158</ele>
        <time>2022-03-17T09:00:21.000Z</time>
      </trkpt>
      <trkpt lat="47.548286" lon="1.7794366">
        <ele>158</ele>
        <time>2022-03-17T09:00:22.000Z</time>
      </trkpt>
      <trkpt lat="47.548286" lon="1.7794373">
        <ele>158</ele>
        <time>2022-03-17T09:00:23.000Z</time>
      </trkpt>
      <trkpt lat="47.548286" lon="1.7794371">
        <ele>157</ele>
        <time>2022-03-17T09:00:24.000Z</time>
      </trkpt>
      <trkpt lat="47.54828" lon="1.7794429">
        <ele>157</ele>
        <time>2022-03-17T09:00:25.000Z</time>
      </trkpt>
      <trkpt lat="47.548264" lon="1.7794505">
        <ele>157</ele>
        <time>2022-03-17T09:00:26.000Z</time>
      </trkpt>
      <trkpt lat="47.548252" lon="1.7794584">
        <ele>157</ele>
        <time>2022-03-17T09:00:27.000Z</time>
      </trkpt>
      <trkpt lat="47.548244" lon="1.7794629">
        <ele>157</ele>
        <time>2022-03-17T09:00:28.000Z</time>
      </trkpt>
      <trkpt lat="47.548233" lon="1.7794665">
        <ele>157</ele>
        <time>2022-03-17T09:00:29.000Z</time>
      </trkpt>
      <trkpt lat="47.548225" lon="1.77947">
        <ele>157</ele>
        <time>2022-03-17T09:00:30.000Z</time>
      </trkpt>
      <trkpt lat="47.548218" lon="1.7794739">
        <ele>157</ele>
        <time>2022-03-17T09:00:31.000Z</time>
      </trkpt>
      <trkpt lat="47.54821" lon="1.7794781">
        <ele>157</ele>
        <time>2022-03-17T09:00:32.000Z</time>
      </trkpt>
      <trkpt lat="47.548203" lon="1.7794831">
        <ele>157</ele>
        <time>2022-03-17T09:00:33.000Z</time>
      </trkpt>
      <trkpt lat="47.54819" lon="1.7794843">
        <ele>157</ele>
        <time>2022-03-17T09:00:34.000Z</time>
      </trkpt>
      <trkpt lat="47.54818" lon="1.7794849">
        <ele>157</ele>
        <time>2022-03-17T09:00:35.000Z</time>
      </trkpt>
      <trkpt lat="47.54817" lon="1.7794868">
        <ele>157</ele>
        <time>2022-03-17T09:00:36.000Z</time>
      </trkpt>
      <trkpt lat="47.548157" lon="1.7794923">
        <ele>157</ele>
        <time>2022-03-17T09:00:37.000Z</time>
      </trkpt>
      <trkpt lat="47.548145" lon="1.7794969">
        <ele>156</ele>
        <time>2022-03-17T09:00:38.000Z</time>
      </trkpt>
      <trkpt lat="47.54814" lon="1.7795012">
        <ele>156</ele>
        <time>2022-03-17T09:00:39.000Z</time>
      </trkpt>
      <trkpt lat="47.54813" lon="1.7795062">
        <ele>156</ele>
        <time>2022-03-17T09:00:40.000Z</time>
      </trkpt>
      <trkpt lat="47.548122" lon="1.7795144">
        <ele>156</ele>
        <time>2022-03-17T09:00:41.000Z</time>
      </trkpt>
      <trkpt lat="47.54811" lon="1.7795234">
        <ele>156</ele>
        <time>2022-03-17T09:00:42.000Z</time>
      </trkpt>
      <trkpt lat="47.5481" lon="1.7795267">
        <ele>156</ele>
        <time>2022-03-17T09:00:43.000Z</time>
      </trkpt>
      <trkpt lat="47.54809" lon="1.7795285">
        <ele>155</ele>
        <time>2022-03-17T09:00:44.000Z</time>
      </trkpt>
      <trkpt lat="47.54808" lon="1.7795329">
        <ele>155</ele>
        <time>2022-03-17T09:00:45.000Z</time>
      </trkpt>
      <trkpt lat="47.548073" lon="1.7795364">
        <ele>155</ele>
        <time>2022-03-17T09:00:46.000Z</time>
      </trkpt>
      <trkpt lat="47.548058" lon="1.7795421">
        <ele>155</ele>
        <time>2022-03-17T09:00:47.000Z</time>
      </trkpt>
      <trkpt lat="47.548046" lon="1.7795467">
        <ele>155</ele>
        <time>2022-03-17T09:00:48.000Z</time>
      </trkpt>
      <trkpt lat="47.548035" lon="1.7795535">
        <ele>156</ele>
        <time>2022-03-17T09:00:49.000Z</time>
      </trkpt>
      <trkpt lat="47.54802" lon="1.7795604">
        <ele>157</ele>
        <time>2022-03-17T09:00:50.000Z</time>
      </trkpt>
      <trkpt lat="47.548008" lon="1.7795645">
        <ele>157</ele>
        <time>2022-03-17T09:00:51.000Z</time>
      </trkpt>
      <trkpt lat="47.547997" lon="1.7795701">
        <ele>157</ele>
        <time>2022-03-17T09:00:52.000Z</time>
      </trkpt>
      <trkpt lat="47.54798" lon="1.7795742">
        <ele>157</ele>
        <time>2022-03-17T09:00:53.000Z</time>
      </trkpt>
      <trkpt lat="47.54797" lon="1.7795761">
        <ele>158</ele>
        <time>2022-03-17T09:00:54.000Z</time>
      </trkpt>
      <trkpt lat="47.54796" lon="1.7795795">
        <ele>158</ele>
        <time>2022-03-17T09:00:55.000Z</time>
      </trkpt>
      <trkpt lat="47.547947" lon="1.779588">
        <ele>157</ele>
        <time>2022-03-17T09:00:56.000Z</time>
      </trkpt>
      <trkpt lat="47.54794" lon="1.779591">
        <ele>158</ele>
        <time>2022-03-17T09:00:57.000Z</time>
      </trkpt>
      <trkpt lat="47.547928" lon="1.7795919">
        <ele>158</ele>
        <time>2022-03-17T09:00:58.000Z</time>
      </trkpt>
      <trkpt lat="47.547916" lon="1.7795917">
        <ele>158</ele>
        <time>2022-03-17T09:00:59.000Z</time>
      </trkpt>
      <trkpt lat="47.547905" lon="1.779589">
        <ele>158</ele>
        <time>2022-03-17T09:01:00.000Z</time>
      </trkpt>
      <trkpt lat="47.54789" lon="1.7795789">
        <ele>158</ele>
        <time>2022-03-17T09:01:01.000Z</time>
      </trkpt>
      <trkpt lat="47.54788" lon="1.7795699">
        <ele>158</ele>
        <time>2022-03-17T09:01:02.000Z</time>
      </trkpt>
      <trkpt lat="47.547867" lon="1.779564">
        <ele>158</ele>
        <time>2022-03-17T09:01:03.000Z</time>
      </trkpt>
      <trkpt lat="47.547855" lon="1.7795538">
        <ele>157</ele>
        <time>2022-03-17T09:01:04.000Z</time>
      </trkpt>
      <trkpt lat="47.547848" lon="1.7795439">
        <ele>157</ele>
        <time>2022-03-17T09:01:05.000Z</time>
      </trkpt>
      <trkpt lat="47.54784" lon="1.7795342">
        <ele>157</ele>
        <time>2022-03-17T09:01:06.000Z</time>
      </trkpt>
      <trkpt lat="47.547836" lon="1.779525">
        <ele>157</ele>
        <time>2022-03-17T09:01:07.000Z</time>
      </trkpt>
      <trkpt lat="47.54783" lon="1.779516">
        <ele>156</ele>
        <time>2022-03-17T09:01:08.000Z</time>
      </trkpt>
      <trkpt lat="47.547825" lon="1.779507">
        <ele>155</ele>
        <time>2022-03-17T09:01:09.000Z</time>
      </trkpt>
      <trkpt lat="47.547817" lon="1.7794983">
        <ele>155</ele>
        <time>2022-03-17T09:01:10.000Z</time>
      </trkpt>
      <trkpt lat="47.547813" lon="1.7794929">
        <ele>156</ele>
        <time>2022-03-17T09:01:11.000Z</time>
      </trkpt>
      <trkpt lat="47.547806" lon="1.7794812">
        <ele>155</ele>
        <time>2022-03-17T09:01:12.000Z</time>
      </trkpt>
      <trkpt lat="47.5478" lon="1.7794679">
        <ele>155</ele>
        <time>2022-03-17T09:01:13.000Z</time>
      </trkpt>
      <trkpt lat="47.54779" lon="1.7794508">
        <ele>155</ele>
        <time>2022-03-17T09:01:14.000Z</time>
      </trkpt>
      <trkpt lat="47.547783" lon="1.7794399">
        <ele>155</ele>
        <time>2022-03-17T09:01:15.000Z</time>
      </trkpt>
      <trkpt lat="47.547775" lon="1.7794292">
        <ele>155</ele>
        <time>2022-03-17T09:01:16.000Z</time>
      </trkpt>
      <trkpt lat="47.54777" lon="1.7794132">
        <ele>154</ele>
        <time>2022-03-17T09:01:17.000Z</time>
      </trkpt>
      <trkpt lat="47.54776" lon="1.7793953">
        <ele>154</ele>
        <time>2022-03-17T09:01:18.000Z</time>
      </trkpt>
      <trkpt lat="47.547752" lon="1.7793789">
        <ele>154</ele>
        <time>2022-03-17T09:01:19.000Z</time>
      </trkpt>
      <trkpt lat="47.54775" lon="1.7793639">
        <ele>154</ele>
        <time>2022-03-17T09:01:20.000Z</time>
      </trkpt>
      <trkpt lat="47.54774" lon="1.779351">
        <ele>154</ele>
        <time>2022-03-17T09:01:21.000Z</time>
      </trkpt>
      <trkpt lat="47.547733" lon="1.7793386">
        <ele>154</ele>
        <time>2022-03-17T09:01:22.000Z</time>
      </trkpt>
      <trkpt lat="47.547726" lon="1.7793242">
        <ele>154</ele>
        <time>2022-03-17T09:01:23.000Z</time>
      </trkpt>
      <trkpt lat="47.54772" lon="1.7793072">
        <ele>154</ele>
        <time>2022-03-17T09:01:24.000Z</time>
      </trkpt>
      <trkpt lat="47.54771" lon="1.7792895">
        <ele>154</ele>
        <time>2022-03-17T09:01:25.000Z</time>
      </trkpt>
      <trkpt lat="47.547703" lon="1.779275">
        <ele>154</ele>
        <time>2022-03-17T09:01:26.000Z</time>
      </trkpt>
      <trkpt lat="47.547695" lon="1.7792608">
        <ele>154</ele>
        <time>2022-03-17T09:01:27.000Z</time>
      </trkpt>
      <trkpt lat="47.547688" lon="1.779249">
        <ele>154</ele>
        <time>2022-03-17T09:01:28.000Z</time>
      </trkpt>
      <trkpt lat="47.54768" lon="1.779236">
        <ele>154</ele>
        <time>2022-03-17T09:01:29.000Z</time>
      </trkpt>
      <trkpt lat="47.547676" lon="1.7792202">
        <ele>154</ele>
        <time>2022-03-17T09:01:30.000Z</time>
      </trkpt>
      <trkpt lat="47.547672" lon="1.779203">
        <ele>154</ele>
        <time>2022-03-17T09:01:31.000Z</time>
      </trkpt>
      <trkpt lat="47.547665" lon="1.779186">
        <ele>154</ele>
        <time>2022-03-17T09:01:32.000Z</time>
      </trkpt>
      <trkpt lat="47.547657" lon="1.7791718">
        <ele>154</ele>
        <time>2022-03-17T09:01:33.000Z</time>
      </trkpt>
      <trkpt lat="47.54765" lon="1.7791615">
        <ele>154</ele>
        <time>2022-03-17T09:01:34.000Z</time>
      </trkpt>
      <trkpt lat="47.54764" lon="1.7791483">
        <ele>153</ele>
        <time>2022-03-17T09:01:35.000Z</time>
      </trkpt>
      <trkpt lat="47.547634" lon="1.7791344">
        <ele>153</ele>
        <time>2022-03-17T09:01:36.000Z</time>
      </trkpt>
      <trkpt lat="47.547626" lon="1.7791195">
        <ele>152</ele>
        <time>2022-03-17T09:01:37.000Z</time>
      </trkpt>
      <trkpt lat="47.54762" lon="1.7791001">
        <ele>152</ele>
        <time>2022-03-17T09:01:38.000Z</time>
      </trkpt>
      <trkpt lat="47.54761" lon="1.7790843">
        <ele>152</ele>
        <time>2022-03-17T09:01:39.000Z</time>
      </trkpt>
      <trkpt lat="47.547607" lon="1.7790706">
        <ele>153</ele>
        <time>2022-03-17T09:01:40.000Z</time>
      </trkpt>
      <trkpt lat="47.5476" lon="1.7790586">
        <ele>153</ele>
        <time>2022-03-17T09:01:41.000Z</time>
      </trkpt>
      <trkpt lat="47.547592" lon="1.7790463">
        <ele>152</ele>
        <time>2022-03-17T09:01:42.000Z</time>
      </trkpt>
      <trkpt lat="47.547585" lon="1.7790309">
        <ele>152</ele>
        <time>2022-03-17T09:01:43.000Z</time>
      </trkpt>
      <trkpt lat="47.547577" lon="1.7790172">
        <ele>152</ele>
        <time>2022-03-17T09:01:44.000Z</time>
      </trkpt>
      <trkpt lat="47.54757" lon="1.7790022">
        <ele>152</ele>
        <time>2022-03-17T09:01:45.000Z</time>
      </trkpt>
      <trkpt lat="47.54756" lon="1.7789873">
        <ele>152</ele>
        <time>2022-03-17T09:01:46.000Z</time>
      </trkpt>
      <trkpt lat="47.547558" lon="1.7789719">
        <ele>152</ele>
        <time>2022-03-17T09:01:47.000Z</time>
      </trkpt>
      <trkpt lat="47.547554" lon="1.7789595">
        <ele>152</ele>
        <time>2022-03-17T09:01:48.000Z</time>
      </trkpt>
      <trkpt lat="47.54755" lon="1.7789425">
        <ele>153</ele>
        <time>2022-03-17T09:01:49.000Z</time>
      </trkpt>
      <trkpt lat="47.547543" lon="1.7789278">
        <ele>152</ele>
        <time>2022-03-17T09:01:50.000Z</time>
      </trkpt>
      <trkpt lat="47.547535" lon="1.7789129">
        <ele>152</ele>
        <time>2022-03-17T09:01:51.000Z</time>
      </trkpt>
      <trkpt lat="47.547523" lon="1.7788996">
        <ele>152</ele>
        <time>2022-03-17T09:01:52.000Z</time>
      </trkpt>
      <trkpt lat="47.547516" lon="1.7788852">
        <ele>152</ele>
        <time>2022-03-17T09:01:53.000Z</time>
      </trkpt>
      <trkpt lat="47.547504" lon="1.7788694">
        <ele>153</ele>
        <time>2022-03-17T09:01:54.000Z</time>
      </trkpt>
      <trkpt lat="47.547497" lon="1.7788504">
        <ele>152</ele>
        <time>2022-03-17T09:01:55.000Z</time>
      </trkpt>
      <trkpt lat="47.547485" lon="1.778838">
        <ele>152</ele>
        <time>2022-03-17T09:01:56.000Z</time>
      </trkpt>
      <trkpt lat="47.547478" lon="1.7788215">
        <ele>152</ele>
        <time>2022-03-17T09:01:57.000Z</time>
      </trkpt>
      <trkpt lat="47.547466" lon="1.778807">
        <ele>153</ele>
        <time>2022-03-17T09:01:58.000Z</time>
      </trkpt>
      <trkpt lat="47.547462" lon="1.778794">
        <ele>153</ele>
        <time>2022-03-17T09:01:59.000Z</time>
      </trkpt>
      <trkpt lat="47.547455" lon="1.7787796">
        <ele>152</ele>
        <time>2022-03-17T09:02:00.000Z</time>
      </trkpt>
      <trkpt lat="47.547447" lon="1.7787677">
        <ele>152</ele>
        <time>2022-03-17T09:02:01.000Z</time>
      </trkpt>
      <trkpt lat="47.54744" lon="1.7787561">
        <ele>153</ele>
        <time>2022-03-17T09:02:02.000Z</time>
      </trkpt>
      <trkpt lat="47.547432" lon="1.7787466">
        <ele>153</ele>
        <time>2022-03-17T09:02:03.000Z</time>
      </trkpt>
      <trkpt lat="47.54742" lon="1.7787361">
        <ele>152</ele>
        <time>2022-03-17T09:02:04.000Z</time>
      </trkpt>
      <trkpt lat="47.54741" lon="1.7787254">
        <ele>152</ele>
        <time>2022-03-17T09:02:05.000Z</time>
      </trkpt>
      <trkpt lat="47.5474" lon="1.7787169">
        <ele>152</ele>
        <time>2022-03-17T09:02:06.000Z</time>
      </trkpt>
      <trkpt lat="47.547394" lon="1.778706">
        <ele>152</ele>
        <time>2022-03-17T09:02:07.000Z</time>
      </trkpt>
      <trkpt lat="47.547386" lon="1.7786933">
        <ele>152</ele>
        <time>2022-03-17T09:02:08.000Z</time>
      </trkpt>
      <trkpt lat="47.547375" lon="1.77868">
        <ele>152</ele>
        <time>2022-03-17T09:02:09.000Z</time>
      </trkpt>
      <trkpt lat="47.547363" lon="1.7786704">
        <ele>152</ele>
        <time>2022-03-17T09:02:10.000Z</time>
      </trkpt>
      <trkpt lat="47.547356" lon="1.77866">
        <ele>153</ele>
        <time>2022-03-17T09:02:11.000Z</time>
      </trkpt>
      <trkpt lat="47.547344" lon="1.7786491">
        <ele>153</ele>
        <time>2022-03-17T09:02:12.000Z</time>
      </trkpt>
      <trkpt lat="47.547333" lon="1.7786369">
        <ele>152</ele>
        <time>2022-03-17T09:02:13.000Z</time>
      </trkpt>
      <trkpt lat="47.54732" lon="1.778628">
        <ele>152</ele>
        <time>2022-03-17T09:02:14.000Z</time>
      </trkpt>
      <trkpt lat="47.54731" lon="1.7786216">
        <ele>152</ele>
        <time>2022-03-17T09:02:15.000Z</time>
      </trkpt>
      <trkpt lat="47.5473" lon="1.7786167">
        <ele>152</ele>
        <time>2022-03-17T09:02:16.000Z</time>
      </trkpt>
      <trkpt lat="47.547283" lon="1.7786077">
        <ele>152</ele>
        <time>2022-03-17T09:02:17.000Z</time>
      </trkpt>
      <trkpt lat="47.54727" lon="1.7786037">
        <ele>152</ele>
        <time>2022-03-17T09:02:18.000Z</time>
      </trkpt>
      <trkpt lat="47.54726" lon="1.7785957">
        <ele>152</ele>
        <time>2022-03-17T09:02:19.000Z</time>
      </trkpt>
      <trkpt lat="47.547253" lon="1.7785907">
        <ele>152</ele>
        <time>2022-03-17T09:02:20.000Z</time>
      </trkpt>
      <trkpt lat="47.547245" lon="1.7785838">
        <ele>151</ele>
        <time>2022-03-17T09:02:21.000Z</time>
      </trkpt>
      <trkpt lat="47.547234" lon="1.7785794">
        <ele>151</ele>
        <time>2022-03-17T09:02:22.000Z</time>
      </trkpt>
      <trkpt lat="47.547222" lon="1.7785711">
        <ele>151</ele>
        <time>2022-03-17T09:02:23.000Z</time>
      </trkpt>
      <trkpt lat="47.547207" lon="1.7785635">
        <ele>151</ele>
        <time>2022-03-17T09:02:24.000Z</time>
      </trkpt>
      <trkpt lat="47.547195" lon="1.7785577">
        <ele>151</ele>
        <time>2022-03-17T09:02:25.000Z</time>
      </trkpt>
      <trkpt lat="47.54718" lon="1.7785538">
        <ele>151</ele>
        <time>2022-03-17T09:02:26.000Z</time>
      </trkpt>
      <trkpt lat="47.547165" lon="1.7785476">
        <ele>151</ele>
        <time>2022-03-17T09:02:27.000Z</time>
      </trkpt>
      <trkpt lat="47.547153" lon="1.7785411">
        <ele>151</ele>
        <time>2022-03-17T09:02:28.000Z</time>
      </trkpt>
      <trkpt lat="47.547142" lon="1.7785337">
        <ele>152</ele>
        <time>2022-03-17T09:02:29.000Z</time>
      </trkpt>
      <trkpt lat="47.547134" lon="1.7785282">
        <ele>152</ele>
        <time>2022-03-17T09:02:30.000Z</time>
      </trkpt>
      <trkpt lat="47.54712" lon="1.7785262">
        <ele>152</ele>
        <time>2022-03-17T09:02:31.000Z</time>
      </trkpt>
      <trkpt lat="47.54711" lon="1.7785239">
        <ele>152</ele>
        <time>2022-03-17T09:02:32.000Z</time>
      </trkpt>
      <trkpt lat="47.5471" lon="1.7785269">
        <ele>152</ele>
        <time>2022-03-17T09:02:33.000Z</time>
      </trkpt>
      <trkpt lat="47.547092" lon="1.7785298">
        <ele>152</ele>
        <time>2022-03-17T09:02:34.000Z</time>
      </trkpt>
      <trkpt lat="47.54708" lon="1.7785267">
        <ele>152</ele>
        <time>2022-03-17T09:02:35.000Z</time>
      </trkpt>
      <trkpt lat="47.547073" lon="1.7785249">
        <ele>153</ele>
        <time>2022-03-17T09:02:36.000Z</time>
      </trkpt>
      <trkpt lat="47.54706" lon="1.7785237">
        <ele>153</ele>
        <time>2022-03-17T09:02:37.000Z</time>
      </trkpt>
      <trkpt lat="47.547047" lon="1.7785233">
        <ele>153</ele>
        <time>2022-03-17T09:02:38.000Z</time>
      </trkpt>
      <trkpt lat="47.54703" lon="1.7785192">
        <ele>153</ele>
        <time>2022-03-17T09:02:39.000Z</time>
      </trkpt>
      <trkpt lat="47.54702" lon="1.7785164">
        <ele>153</ele>
        <time>2022-03-17T09:02:40.000Z</time>
      </trkpt>
      <trkpt lat="47.547005" lon="1.778512">
        <ele>153</ele>
        <time>2022-03-17T09:02:41.000Z</time>
      </trkpt>
      <trkpt lat="47.54699" lon="1.778509">
        <ele>153</ele>
        <time>2022-03-17T09:02:42.000Z</time>
      </trkpt>
      <trkpt lat="47.546978" lon="1.778505">
        <ele>153</ele>
        <time>2022-03-17T09:02:43.000Z</time>
      </trkpt>
      <trkpt lat="47.546967" lon="1.7785033">
        <ele>153</ele>
        <time>2022-03-17T09:02:44.000Z</time>
      </trkpt>
      <trkpt lat="47.546955" lon="1.7784976">
        <ele>153</ele>
        <time>2022-03-17T09:02:45.000Z</time>
      </trkpt>
      <trkpt lat="47.54694" lon="1.7784919">
        <ele>153</ele>
        <time>2022-03-17T09:02:46.000Z</time>
      </trkpt>
      <trkpt lat="47.54693" lon="1.778488">
        <ele>153</ele>
        <time>2022-03-17T09:02:47.000Z</time>
      </trkpt>
      <trkpt lat="47.546917" lon="1.7784847">
        <ele>153</ele>
        <time>2022-03-17T09:02:48.000Z</time>
      </trkpt>
      <trkpt lat="47.546906" lon="1.7784812">
        <ele>154</ele>
        <time>2022-03-17T09:02:49.000Z</time>
      </trkpt>
      <trkpt lat="47.546894" lon="1.7784811">
        <ele>154</ele>
        <time>2022-03-17T09:02:50.000Z</time>
      </trkpt>
      <trkpt lat="47.546883" lon="1.77848">
        <ele>154</ele>
        <time>2022-03-17T09:02:51.000Z</time>
      </trkpt>
      <trkpt lat="47.54687" lon="1.7784775">
        <ele>154</ele>
        <time>2022-03-17T09:02:52.000Z</time>
      </trkpt>
      <trkpt lat="47.546856" lon="1.7784772">
        <ele>154</ele>
        <time>2022-03-17T09:02:53.000Z</time>
      </trkpt>
      <trkpt lat="47.54684" lon="1.7784745">
        <ele>154</ele>
        <time>2022-03-17T09:02:54.000Z</time>
      </trkpt>
      <trkpt lat="47.54683" lon="1.7784717">
        <ele>154</ele>
        <time>2022-03-17T09:02:55.000Z</time>
      </trkpt>
      <trkpt lat="47.546814" lon="1.7784693">
        <ele>155</ele>
        <time>2022-03-17T09:02:56.000Z</time>
      </trkpt>
      <trkpt lat="47.546806" lon="1.7784673">
        <ele>154</ele>
        <time>2022-03-17T09:02:57.000Z</time>
      </trkpt>
      <trkpt lat="47.54679" lon="1.7784655">
        <ele>154</ele>
        <time>2022-03-17T09:02:58.000Z</time>
      </trkpt>
      <trkpt lat="47.546776" lon="1.778465">
        <ele>154</ele>
        <time>2022-03-17T09:02:59.000Z</time>
      </trkpt>
      <trkpt lat="47.546764" lon="1.778461">
        <ele>154</ele>
        <time>2022-03-17T09:03:00.000Z</time>
      </trkpt>
      <trkpt lat="47.546753" lon="1.7784588">
        <ele>154</ele>
        <time>2022-03-17T09:03:01.000Z</time>
      </trkpt>
      <trkpt lat="47.546738" lon="1.7784559">
        <ele>154</ele>
        <time>2022-03-17T09:03:02.000Z</time>
      </trkpt>
      <trkpt lat="47.546726" lon="1.7784595">
        <ele>154</ele>
        <time>2022-03-17T09:03:03.000Z</time>
      </trkpt>
      <trkpt lat="47.546715" lon="1.7784592">
        <ele>154</ele>
        <time>2022-03-17T09:03:04.000Z</time>
      </trkpt>
      <trkpt lat="47.5467" lon="1.7784544">
        <ele>155</ele>
        <time>2022-03-17T09:03:05.000Z</time>
      </trkpt>
      <trkpt lat="47.546688" lon="1.7784528">
        <ele>154</ele>
        <time>2022-03-17T09:03:06.000Z</time>
      </trkpt>
      <trkpt lat="47.546677" lon="1.778454">
        <ele>154</ele>
        <time>2022-03-17T09:03:07.000Z</time>
      </trkpt>
      <trkpt lat="47.546665" lon="1.7784574">
        <ele>154</ele>
        <time>2022-03-17T09:03:08.000Z</time>
      </trkpt>
      <trkpt lat="47.546658" lon="1.7784578">
        <ele>154</ele>
        <time>2022-03-17T09:03:09.000Z</time>
      </trkpt>
      <trkpt lat="47.546646" lon="1.7784542">
        <ele>154</ele>
        <time>2022-03-17T09:03:10.000Z</time>
      </trkpt>
      <trkpt lat="47.546635" lon="1.7784512">
        <ele>155</ele>
        <time>2022-03-17T09:03:11.000Z</time>
      </trkpt>
      <trkpt lat="47.546623" lon="1.778447">
        <ele>155</ele>
        <time>2022-03-17T09:03:12.000Z</time>
      </trkpt>
      <trkpt lat="47.54661" lon="1.7784485">
        <ele>155</ele>
        <time>2022-03-17T09:03:13.000Z</time>
      </trkpt>
      <trkpt lat="47.5466" lon="1.7784524">
        <ele>154</ele>
        <time>2022-03-17T09:03:14.000Z</time>
      </trkpt>
      <trkpt lat="47.54659" lon="1.7784489">
        <ele>154</ele>
        <time>2022-03-17T09:03:15.000Z</time>
      </trkpt>
      <trkpt lat="47.546577" lon="1.7784418">
        <ele>154</ele>
        <time>2022-03-17T09:03:16.000Z</time>
      </trkpt>
      <trkpt lat="47.546566" lon="1.7784406">
        <ele>154</ele>
        <time>2022-03-17T09:03:17.000Z</time>
      </trkpt>
      <trkpt lat="47.546555" lon="1.7784405">
        <ele>154</ele>
        <time>2022-03-17T09:03:18.000Z</time>
      </trkpt>
      <trkpt lat="47.546543" lon="1.778438">
        <ele>154</ele>
        <time>2022-03-17T09:03:19.000Z</time>
      </trkpt>
      <trkpt lat="47.54653" lon="1.7784339">
        <ele>153</ele>
        <time>2022-03-17T09:03:20.000Z</time>
      </trkpt>
      <trkpt lat="47.546524" lon="1.7784362">
        <ele>153</ele>
        <time>2022-03-17T09:03:21.000Z</time>
      </trkpt>
      <trkpt lat="47.546513" lon="1.7784312">
        <ele>153</ele>
        <time>2022-03-17T09:03:22.000Z</time>
      </trkpt>
      <trkpt lat="47.546497" lon="1.7784274">
        <ele>153</ele>
        <time>2022-03-17T09:03:23.000Z</time>
      </trkpt>
      <trkpt lat="47.54647" lon="1.7784224">
        <ele>153</ele>
        <time>2022-03-17T09:03:25.000Z</time>
      </trkpt>
      <trkpt lat="47.546455" lon="1.7784185">
        <ele>154</ele>
        <time>2022-03-17T09:03:26.000Z</time>
      </trkpt>
      <trkpt lat="47.546448" lon="1.7784145">
        <ele>154</ele>
        <time>2022-03-17T09:03:27.000Z</time>
      </trkpt>
      <trkpt lat="47.546436" lon="1.7784111">
        <ele>154</ele>
        <time>2022-03-17T09:03:28.000Z</time>
      </trkpt>
      <trkpt lat="47.546425" lon="1.7784085">
        <ele>155</ele>
        <time>2022-03-17T09:03:29.000Z</time>
      </trkpt>
      <trkpt lat="47.546413" lon="1.7784041">
        <ele>155</ele>
        <time>2022-03-17T09:03:30.000Z</time>
      </trkpt>
      <trkpt lat="47.546402" lon="1.7784011">
        <ele>155</ele>
        <time>2022-03-17T09:03:31.000Z</time>
      </trkpt>
      <trkpt lat="47.546394" lon="1.7783982">
        <ele>155</ele>
        <time>2022-03-17T09:03:32.000Z</time>
      </trkpt>
      <trkpt lat="47.546383" lon="1.7783953">
        <ele>155</ele>
        <time>2022-03-17T09:03:33.000Z</time>
      </trkpt>
      <trkpt lat="47.54637" lon="1.778396">
        <ele>154</ele>
        <time>2022-03-17T09:03:34.000Z</time>
      </trkpt>
      <trkpt lat="47.54636" lon="1.7783911">
        <ele>154</ele>
        <time>2022-03-17T09:03:35.000Z</time>
      </trkpt>
      <trkpt lat="47.546345" lon="1.7783852">
        <ele>154</ele>
        <time>2022-03-17T09:03:36.000Z</time>
      </trkpt>
      <trkpt lat="47.546337" lon="1.7783808">
        <ele>154</ele>
        <time>2022-03-17T09:03:37.000Z</time>
      </trkpt>
      <trkpt lat="47.546326" lon="1.7783767">
        <ele>154</ele>
        <time>2022-03-17T09:03:38.000Z</time>
      </trkpt>
      <trkpt lat="47.546314" lon="1.7783746">
        <ele>154</ele>
        <time>2022-03-17T09:03:39.000Z</time>
      </trkpt>
      <trkpt lat="47.5463" lon="1.7783701">
        <ele>154</ele>
        <time>2022-03-17T09:03:40.000Z</time>
      </trkpt>
      <trkpt lat="47.546288" lon="1.7783643">
        <ele>154</ele>
        <time>2022-03-17T09:03:41.000Z</time>
      </trkpt>
      <trkpt lat="47.546276" lon="1.7783618">
        <ele>154</ele>
        <time>2022-03-17T09:03:42.000Z</time>
      </trkpt>
      <trkpt lat="47.546265" lon="1.7783604">
        <ele>154</ele>
        <time>2022-03-17T09:03:43.000Z</time>
      </trkpt>
      <trkpt lat="47.546253" lon="1.7783546">
        <ele>154</ele>
        <time>2022-03-17T09:03:44.000Z</time>
      </trkpt>
      <trkpt lat="47.54624" lon="1.7783463">
        <ele>154</ele>
        <time>2022-03-17T09:03:45.000Z</time>
      </trkpt>
      <trkpt lat="47.546227" lon="1.7783431">
        <ele>154</ele>
        <time>2022-03-17T09:03:46.000Z</time>
      </trkpt>
      <trkpt lat="47.546215" lon="1.778339">
        <ele>154</ele>
        <time>2022-03-17T09:03:47.000Z</time>
      </trkpt>
      <trkpt lat="47.546204" lon="1.7783363">
        <ele>154</ele>
        <time>2022-03-17T09:03:48.000Z</time>
      </trkpt>
      <trkpt lat="47.546192" lon="1.778334">
        <ele>154</ele>
        <time>2022-03-17T09:03:49.000Z</time>
      </trkpt>
      <trkpt lat="47.54618" lon="1.7783291">
        <ele>154</ele>
        <time>2022-03-17T09:03:50.000Z</time>
      </trkpt>
      <trkpt lat="47.54617" lon="1.778323">
        <ele>154</ele>
        <time>2022-03-17T09:03:51.000Z</time>
      </trkpt>
      <trkpt lat="47.54616" lon="1.7783197">
        <ele>154</ele>
        <time>2022-03-17T09:03:52.000Z</time>
      </trkpt>
      <trkpt lat="47.54615" lon="1.7783192">
        <ele>154</ele>
        <time>2022-03-17T09:03:53.000Z</time>
      </trkpt>
      <trkpt lat="47.54614" lon="1.778318">
        <ele>154</ele>
        <time>2022-03-17T09:03:54.000Z</time>
      </trkpt>
      <trkpt lat="47.546124" lon="1.7783192">
        <ele>154</ele>
        <time>2022-03-17T09:03:55.000Z</time>
      </trkpt>
      <trkpt lat="47.546116" lon="1.7783183">
        <ele>154</ele>
        <time>2022-03-17T09:03:56.000Z</time>
      </trkpt>
      <trkpt lat="47.546104" lon="1.7783166">
        <ele>154</ele>
        <time>2022-03-17T09:03:57.000Z</time>
      </trkpt>
      <trkpt lat="47.546093" lon="1.7783148">
        <ele>155</ele>
        <time>2022-03-17T09:03:58.000Z</time>
      </trkpt>
      <trkpt lat="47.54608" lon="1.7783095">
        <ele>155</ele>
        <time>2022-03-17T09:03:59.000Z</time>
      </trkpt>
      <trkpt lat="47.546074" lon="1.7783026">
        <ele>156</ele>
        <time>2022-03-17T09:04:00.000Z</time>
      </trkpt>
      <trkpt lat="47.546062" lon="1.7782973">
        <ele>156</ele>
        <time>2022-03-17T09:04:01.000Z</time>
      </trkpt>
      <trkpt lat="47.54605" lon="1.7782902">
        <ele>157</ele>
        <time>2022-03-17T09:04:02.000Z</time>
      </trkpt>
      <trkpt lat="47.54604" lon="1.778285">
        <ele>157</ele>
        <time>2022-03-17T09:04:03.000Z</time>
      </trkpt>
      <trkpt lat="47.54602" lon="1.77828">
        <ele>157</ele>
        <time>2022-03-17T09:04:04.000Z</time>
      </trkpt>
      <trkpt lat="47.54601" lon="1.7782754">
        <ele>157</ele>
        <time>2022-03-17T09:04:05.000Z</time>
      </trkpt>
      <trkpt lat="47.545998" lon="1.7782723">
        <ele>156</ele>
        <time>2022-03-17T09:04:06.000Z</time>
      </trkpt>
      <trkpt lat="47.54599" lon="1.7782701">
        <ele>156</ele>
        <time>2022-03-17T09:04:07.000Z</time>
      </trkpt>
      <trkpt lat="47.54598" lon="1.7782662">
        <ele>156</ele>
        <time>2022-03-17T09:04:08.000Z</time>
      </trkpt>
      <trkpt lat="47.54597" lon="1.7782626">
        <ele>155</ele>
        <time>2022-03-17T09:04:09.000Z</time>
      </trkpt>
      <trkpt lat="47.54596" lon="1.7782602">
        <ele>155</ele>
        <time>2022-03-17T09:04:10.000Z</time>
      </trkpt>
      <trkpt lat="47.54595" lon="1.7782527">
        <ele>155</ele>
        <time>2022-03-17T09:04:11.000Z</time>
      </trkpt>
      <trkpt lat="47.54594" lon="1.7782451">
        <ele>154</ele>
        <time>2022-03-17T09:04:12.000Z</time>
      </trkpt>
      <trkpt lat="47.54593" lon="1.7782376">
        <ele>154</ele>
        <time>2022-03-17T09:04:13.000Z</time>
      </trkpt>
      <trkpt lat="47.545914" lon="1.7782282">
        <ele>154</ele>
        <time>2022-03-17T09:04:14.000Z</time>
      </trkpt>
      <trkpt lat="47.545902" lon="1.7782205">
        <ele>153</ele>
        <time>2022-03-17T09:04:15.000Z</time>
      </trkpt>
      <trkpt lat="47.54589" lon="1.7782134">
        <ele>153</ele>
        <time>2022-03-17T09:04:16.000Z</time>
      </trkpt>
      <trkpt lat="47.54588" lon="1.7782052">
        <ele>153</ele>
        <time>2022-03-17T09:04:17.000Z</time>
      </trkpt>
      <trkpt lat="47.545868" lon="1.7782006">
        <ele>152</ele>
        <time>2022-03-17T09:04:18.000Z</time>
      </trkpt>
      <trkpt lat="47.545856" lon="1.7781961">
        <ele>152</ele>
        <time>2022-03-17T09:04:19.000Z</time>
      </trkpt>
      <trkpt lat="47.545845" lon="1.7781907">
        <ele>152</ele>
        <time>2022-03-17T09:04:20.000Z</time>
      </trkpt>
      <trkpt lat="47.545837" lon="1.7781848">
        <ele>152</ele>
        <time>2022-03-17T09:04:21.000Z</time>
      </trkpt>
      <trkpt lat="47.545826" lon="1.7781793">
        <ele>152</ele>
        <time>2022-03-17T09:04:22.000Z</time>
      </trkpt>
      <trkpt lat="47.545815" lon="1.7781799">
        <ele>152</ele>
        <time>2022-03-17T09:04:23.000Z</time>
      </trkpt>
      <trkpt lat="47.545807" lon="1.7781752">
        <ele>152</ele>
        <time>2022-03-17T09:04:24.000Z</time>
      </trkpt>
      <trkpt lat="47.5458" lon="1.7781695">
        <ele>152</ele>
        <time>2022-03-17T09:04:25.000Z</time>
      </trkpt>
      <trkpt lat="47.545788" lon="1.7781626">
        <ele>152</ele>
        <time>2022-03-17T09:04:26.000Z</time>
      </trkpt>
      <trkpt lat="47.54578" lon="1.7781602">
        <ele>152</ele>
        <time>2022-03-17T09:04:27.000Z</time>
      </trkpt>
      <trkpt lat="47.545773" lon="1.7781576">
        <ele>151</ele>
        <time>2022-03-17T09:04:28.000Z</time>
      </trkpt>
      <trkpt lat="47.545765" lon="1.7781559">
        <ele>151</ele>
        <time>2022-03-17T09:04:29.000Z</time>
      </trkpt>
      <trkpt lat="47.54575" lon="1.7781557">
        <ele>152</ele>
        <time>2022-03-17T09:04:30.000Z</time>
      </trkpt>
      <trkpt lat="47.54574" lon="1.7781552">
        <ele>152</ele>
        <time>2022-03-17T09:04:31.000Z</time>
      </trkpt>
      <trkpt lat="47.545727" lon="1.7781508">
        <ele>151</ele>
        <time>2022-03-17T09:04:32.000Z</time>
      </trkpt>
      <trkpt lat="47.54572" lon="1.778146">
        <ele>151</ele>
        <time>2022-03-17T09:04:33.000Z</time>
      </trkpt>
      <trkpt lat="47.545708" lon="1.7781404">
        <ele>151</ele>
        <time>2022-03-17T09:04:34.000Z</time>
      </trkpt>
      <trkpt lat="47.545692" lon="1.7781327">
        <ele>151</ele>
        <time>2022-03-17T09:04:35.000Z</time>
      </trkpt>
      <trkpt lat="47.545685" lon="1.7781252">
        <ele>151</ele>
        <time>2022-03-17T09:04:36.000Z</time>
      </trkpt>
      <trkpt lat="47.545673" lon="1.7781247">
        <ele>151</ele>
        <time>2022-03-17T09:04:37.000Z</time>
      </trkpt>
      <trkpt lat="47.545662" lon="1.7781184">
        <ele>151</ele>
        <time>2022-03-17T09:04:38.000Z</time>
      </trkpt>
      <trkpt lat="47.545647" lon="1.7781132">
        <ele>152</ele>
        <time>2022-03-17T09:04:39.000Z</time>
      </trkpt>
      <trkpt lat="47.545635" lon="1.7781103">
        <ele>152</ele>
        <time>2022-03-17T09:04:40.000Z</time>
      </trkpt>
      <trkpt lat="47.545624" lon="1.7781053">
        <ele>152</ele>
        <time>2022-03-17T09:04:41.000Z</time>
      </trkpt>
      <trkpt lat="47.545612" lon="1.7781008">
        <ele>152</ele>
        <time>2022-03-17T09:04:42.000Z</time>
      </trkpt>
      <trkpt lat="47.5456" lon="1.7780943">
        <ele>152</ele>
        <time>2022-03-17T09:04:43.000Z</time>
      </trkpt>
      <trkpt lat="47.54559" lon="1.7780905">
        <ele>151</ele>
        <time>2022-03-17T09:04:44.000Z</time>
      </trkpt>
      <trkpt lat="47.545578" lon="1.7780842">
        <ele>151</ele>
        <time>2022-03-17T09:04:45.000Z</time>
      </trkpt>
      <trkpt lat="47.545563" lon="1.7780764">
        <ele>151</ele>
        <time>2022-03-17T09:04:46.000Z</time>
      </trkpt>
      <trkpt lat="47.545547" lon="1.7780715">
        <ele>150</ele>
        <time>2022-03-17T09:04:47.000Z</time>
      </trkpt>
      <trkpt lat="47.545536" lon="1.7780644">
        <ele>150</ele>
        <time>2022-03-17T09:04:48.000Z</time>
      </trkpt>
      <trkpt lat="47.54552" lon="1.7780598">
        <ele>150</ele>
        <time>2022-03-17T09:04:49.000Z</time>
      </trkpt>
      <trkpt lat="47.545513" lon="1.7780542">
        <ele>150</ele>
        <time>2022-03-17T09:04:50.000Z</time>
      </trkpt>
      <trkpt lat="47.5455" lon="1.778049">
        <ele>150</ele>
        <time>2022-03-17T09:04:51.000Z</time>
      </trkpt>
      <trkpt lat="47.54549" lon="1.7780449">
        <ele>150</ele>
        <time>2022-03-17T09:04:52.000Z</time>
      </trkpt>
      <trkpt lat="47.545483" lon="1.7780385">
        <ele>150</ele>
        <time>2022-03-17T09:04:53.000Z</time>
      </trkpt>
      <trkpt lat="47.545467" lon="1.7780383">
        <ele>150</ele>
        <time>2022-03-17T09:04:54.000Z</time>
      </trkpt>
      <trkpt lat="47.545452" lon="1.7780346">
        <ele>150</ele>
        <time>2022-03-17T09:04:55.000Z</time>
      </trkpt>
      <trkpt lat="47.54544" lon="1.7780293">
        <ele>150</ele>
        <time>2022-03-17T09:04:56.000Z</time>
      </trkpt>
      <trkpt lat="47.54543" lon="1.7780257">
        <ele>150</ele>
        <time>2022-03-17T09:04:57.000Z</time>
      </trkpt>
      <trkpt lat="47.545418" lon="1.7780195">
        <ele>150</ele>
        <time>2022-03-17T09:04:58.000Z</time>
      </trkpt>
      <trkpt lat="47.545406" lon="1.7780119">
        <ele>150</ele>
        <time>2022-03-17T09:04:59.000Z</time>
      </trkpt>
      <trkpt lat="47.545395" lon="1.7780087">
        <ele>150</ele>
        <time>2022-03-17T09:05:00.000Z</time>
      </trkpt>
      <trkpt lat="47.54538" lon="1.7780055">
        <ele>150</ele>
        <time>2022-03-17T09:05:01.000Z</time>
      </trkpt>
      <trkpt lat="47.54537" lon="1.778001">
        <ele>150</ele>
        <time>2022-03-17T09:05:02.000Z</time>
      </trkpt>
      <trkpt lat="47.545357" lon="1.7779968">
        <ele>150</ele>
        <time>2022-03-17T09:05:03.000Z</time>
      </trkpt>
      <trkpt lat="47.545345" lon="1.7779927">
        <ele>150</ele>
        <time>2022-03-17T09:05:04.000Z</time>
      </trkpt>
      <trkpt lat="47.545334" lon="1.7779888">
        <ele>150</ele>
        <time>2022-03-17T09:05:05.000Z</time>
      </trkpt>
      <trkpt lat="47.545322" lon="1.7779851">
        <ele>150</ele>
        <time>2022-03-17T09:05:06.000Z</time>
      </trkpt>
      <trkpt lat="47.54531" lon="1.7779843">
        <ele>149</ele>
        <time>2022-03-17T09:05:07.000Z</time>
      </trkpt>
      <trkpt lat="47.545296" lon="1.7779775">
        <ele>149</ele>
        <time>2022-03-17T09:05:08.000Z</time>
      </trkpt>
      <trkpt lat="47.545284" lon="1.7779727">
        <ele>149</ele>
        <time>2022-03-17T09:05:09.000Z</time>
      </trkpt>
      <trkpt lat="47.545273" lon="1.7779669">
        <ele>149</ele>
        <time>2022-03-17T09:05:10.000Z</time>
      </trkpt>
      <trkpt lat="47.54526" lon="1.777962">
        <ele>149</ele>
        <time>2022-03-17T09:05:11.000Z</time>
      </trkpt>
      <trkpt lat="47.545254" lon="1.7779562">
        <ele>149</ele>
        <time>2022-03-17T09:05:12.000Z</time>
      </trkpt>
      <trkpt lat="47.54524" lon="1.7779529">
        <ele>150</ele>
        <time>2022-03-17T09:05:13.000Z</time>
      </trkpt>
      <trkpt lat="47.545227" lon="1.777949">
        <ele>150</ele>
        <time>2022-03-17T09:05:14.000Z</time>
      </trkpt>
      <trkpt lat="47.545216" lon="1.7779479">
        <ele>150</ele>
        <time>2022-03-17T09:05:15.000Z</time>
      </trkpt>
      <trkpt lat="47.545204" lon="1.7779473">
        <ele>150</ele>
        <time>2022-03-17T09:05:16.000Z</time>
      </trkpt>
      <trkpt lat="47.545197" lon="1.7779458">
        <ele>150</ele>
        <time>2022-03-17T09:05:17.000Z</time>
      </trkpt>
      <trkpt lat="47.545185" lon="1.7779442">
        <ele>150</ele>
        <time>2022-03-17T09:05:18.000Z</time>
      </trkpt>
      <trkpt lat="47.545174" lon="1.7779411">
        <ele>150</ele>
        <time>2022-03-17T09:05:19.000Z</time>
      </trkpt>
      <trkpt lat="47.54516" lon="1.7779388">
        <ele>150</ele>
        <time>2022-03-17T09:05:20.000Z</time>
      </trkpt>
      <trkpt lat="47.54515" lon="1.7779369">
        <ele>150</ele>
        <time>2022-03-17T09:05:21.000Z</time>
      </trkpt>
      <trkpt lat="47.545135" lon="1.7779366">
        <ele>150</ele>
        <time>2022-03-17T09:05:22.000Z</time>
      </trkpt>
      <trkpt lat="47.545124" lon="1.7779337">
        <ele>149</ele>
        <time>2022-03-17T09:05:23.000Z</time>
      </trkpt>
      <trkpt lat="47.54511" lon="1.7779332">
        <ele>150</ele>
        <time>2022-03-17T09:05:24.000Z</time>
      </trkpt>
      <trkpt lat="47.545097" lon="1.7779315">
        <ele>149</ele>
        <time>2022-03-17T09:05:25.000Z</time>
      </trkpt>
      <trkpt lat="47.545086" lon="1.7779256">
        <ele>150</ele>
        <time>2022-03-17T09:05:26.000Z</time>
      </trkpt>
      <trkpt lat="47.545074" lon="1.7779181">
        <ele>150</ele>
        <time>2022-03-17T09:05:27.000Z</time>
      </trkpt>
      <trkpt lat="47.545067" lon="1.7779145">
        <ele>150</ele>
        <time>2022-03-17T09:05:28.000Z</time>
      </trkpt>
      <trkpt lat="47.545055" lon="1.7779119">
        <ele>151</ele>
        <time>2022-03-17T09:05:29.000Z</time>
      </trkpt>
      <trkpt lat="47.545044" lon="1.7779076">
        <ele>150</ele>
        <time>2022-03-17T09:05:30.000Z</time>
      </trkpt>
      <trkpt lat="47.54503" lon="1.7779053">
        <ele>151</ele>
        <time>2022-03-17T09:05:31.000Z</time>
      </trkpt>
      <trkpt lat="47.54502" lon="1.7779013">
        <ele>150</ele>
        <time>2022-03-17T09:05:32.000Z</time>
      </trkpt>
      <trkpt lat="47.54501" lon="1.777897">
        <ele>150</ele>
        <time>2022-03-17T09:05:33.000Z</time>
      </trkpt>
      <trkpt lat="47.545" lon="1.7778931">
        <ele>150</ele>
        <time>2022-03-17T09:05:34.000Z</time>
      </trkpt>
      <trkpt lat="47.544987" lon="1.7778908">
        <ele>150</ele>
        <time>2022-03-17T09:05:35.000Z</time>
      </trkpt>
      <trkpt lat="47.544975" lon="1.7778908">
        <ele>151</ele>
        <time>2022-03-17T09:05:36.000Z</time>
      </trkpt>
      <trkpt lat="47.54496" lon="1.7778871">
        <ele>151</ele>
        <time>2022-03-17T09:05:37.000Z</time>
      </trkpt>
      <trkpt lat="47.544945" lon="1.7778829">
        <ele>151</ele>
        <time>2022-03-17T09:05:38.000Z</time>
      </trkpt>
      <trkpt lat="47.544933" lon="1.777875">
        <ele>151</ele>
        <time>2022-03-17T09:05:39.000Z</time>
      </trkpt>
      <trkpt lat="47.544918" lon="1.7778718">
        <ele>150</ele>
        <time>2022-03-17T09:05:40.000Z</time>
      </trkpt>
      <trkpt lat="47.54491" lon="1.777867">
        <ele>150</ele>
        <time>2022-03-17T09:05:41.000Z</time>
      </trkpt>
      <trkpt lat="47.544895" lon="1.7778621">
        <ele>150</ele>
        <time>2022-03-17T09:05:42.000Z</time>
      </trkpt>
      <trkpt lat="47.544884" lon="1.7778617">
        <ele>150</ele>
        <time>2022-03-17T09:05:43.000Z</time>
      </trkpt>
      <trkpt lat="47.54487" lon="1.777859">
        <ele>150</ele>
        <time>2022-03-17T09:05:44.000Z</time>
      </trkpt>
      <trkpt lat="47.544853" lon="1.777855">
        <ele>150</ele>
        <time>2022-03-17T09:05:45.000Z</time>
      </trkpt>
      <trkpt lat="47.544838" lon="1.7778547">
        <ele>150</ele>
        <time>2022-03-17T09:05:46.000Z</time>
      </trkpt>
      <trkpt lat="47.544823" lon="1.7778524">
        <ele>150</ele>
        <time>2022-03-17T09:05:47.000Z</time>
      </trkpt>
      <trkpt lat="47.544815" lon="1.777848">
        <ele>150</ele>
        <time>2022-03-17T09:05:48.000Z</time>
      </trkpt>
      <trkpt lat="47.544804" lon="1.7778449">
        <ele>149</ele>
        <time>2022-03-17T09:05:49.000Z</time>
      </trkpt>
      <trkpt lat="47.54479" lon="1.7778423">
        <ele>149</ele>
        <time>2022-03-17T09:05:50.000Z</time>
      </trkpt>
      <trkpt lat="47.544773" lon="1.7778386">
        <ele>149</ele>
        <time>2022-03-17T09:05:51.000Z</time>
      </trkpt>
      <trkpt lat="47.54476" lon="1.7778368">
        <ele>149</ele>
        <time>2022-03-17T09:05:52.000Z</time>
      </trkpt>
      <trkpt lat="47.54475" lon="1.7778317">
        <ele>148</ele>
        <time>2022-03-17T09:05:53.000Z</time>
      </trkpt>
      <trkpt lat="47.54474" lon="1.7778304">
        <ele>149</ele>
        <time>2022-03-17T09:05:54.000Z</time>
      </trkpt>
      <trkpt lat="47.544727" lon="1.7778307">
        <ele>149</ele>
        <time>2022-03-17T09:05:55.000Z</time>
      </trkpt>
      <trkpt lat="47.544712" lon="1.777828">
        <ele>149</ele>
        <time>2022-03-17T09:05:56.000Z</time>
      </trkpt>
      <trkpt lat="47.5447" lon="1.7778249">
        <ele>148</ele>
        <time>2022-03-17T09:05:57.000Z</time>
      </trkpt>
      <trkpt lat="47.54469" lon="1.777824">
        <ele>148</ele>
        <time>2022-03-17T09:05:58.000Z</time>
      </trkpt>
      <trkpt lat="47.544678" lon="1.7778254">
        <ele>148</ele>
        <time>2022-03-17T09:05:59.000Z</time>
      </trkpt>
      <trkpt lat="47.544666" lon="1.7778236">
        <ele>148</ele>
        <time>2022-03-17T09:06:00.000Z</time>
      </trkpt>
      <trkpt lat="47.544655" lon="1.7778249">
        <ele>148</ele>
        <time>2022-03-17T09:06:01.000Z</time>
      </trkpt>
      <trkpt lat="47.544643" lon="1.777823">
        <ele>148</ele>
        <time>2022-03-17T09:06:02.000Z</time>
      </trkpt>
      <trkpt lat="47.54463" lon="1.7778196">
        <ele>148</ele>
        <time>2022-03-17T09:06:03.000Z</time>
      </trkpt>
      <trkpt lat="47.54462" lon="1.777815">
        <ele>148</ele>
        <time>2022-03-17T09:06:04.000Z</time>
      </trkpt>
      <trkpt lat="47.54461" lon="1.7778133">
        <ele>147</ele>
        <time>2022-03-17T09:06:05.000Z</time>
      </trkpt>
      <trkpt lat="47.544598" lon="1.7778085">
        <ele>147</ele>
        <time>2022-03-17T09:06:06.000Z</time>
      </trkpt>
      <trkpt lat="47.544582" lon="1.7778083">
        <ele>147</ele>
        <time>2022-03-17T09:06:07.000Z</time>
      </trkpt>
      <trkpt lat="47.54457" lon="1.7778082">
        <ele>147</ele>
        <time>2022-03-17T09:06:08.000Z</time>
      </trkpt>
      <trkpt lat="47.54456" lon="1.7778101">
        <ele>147</ele>
        <time>2022-03-17T09:06:09.000Z</time>
      </trkpt>
      <trkpt lat="47.54455" lon="1.7778106">
        <ele>147</ele>
        <time>2022-03-17T09:06:10.000Z</time>
      </trkpt>
      <trkpt lat="47.544537" lon="1.7778075">
        <ele>146</ele>
        <time>2022-03-17T09:06:11.000Z</time>
      </trkpt>
      <trkpt lat="47.544525" lon="1.7778062">
        <ele>146</ele>
        <time>2022-03-17T09:06:12.000Z</time>
      </trkpt>
      <trkpt lat="47.544514" lon="1.7778037">
        <ele>147</ele>
        <time>2022-03-17T09:06:13.000Z</time>
      </trkpt>
      <trkpt lat="47.5445" lon="1.7778019">
        <ele>147</ele>
        <time>2022-03-17T09:06:14.000Z</time>
      </trkpt>
      <trkpt lat="47.544487" lon="1.7777998">
        <ele>147</ele>
        <time>2022-03-17T09:06:15.000Z</time>
      </trkpt>
      <trkpt lat="47.544476" lon="1.7777967">
        <ele>147</ele>
        <time>2022-03-17T09:06:16.000Z</time>
      </trkpt>
      <trkpt lat="47.54446" lon="1.777794">
        <ele>147</ele>
        <time>2022-03-17T09:06:17.000Z</time>
      </trkpt>
      <trkpt lat="47.54445" lon="1.7777917">
        <ele>147</ele>
        <time>2022-03-17T09:06:18.000Z</time>
      </trkpt>
      <trkpt lat="47.544434" lon="1.7777867">
        <ele>146</ele>
        <time>2022-03-17T09:06:19.000Z</time>
      </trkpt>
      <trkpt lat="47.544422" lon="1.7777852">
        <ele>146</ele>
        <time>2022-03-17T09:06:20.000Z</time>
      </trkpt>
      <trkpt lat="47.54441" lon="1.7777827">
        <ele>146</ele>
        <time>2022-03-17T09:06:21.000Z</time>
      </trkpt>
      <trkpt lat="47.544403" lon="1.7777812">
        <ele>146</ele>
        <time>2022-03-17T09:06:22.000Z</time>
      </trkpt>
      <trkpt lat="47.544395" lon="1.7777804">
        <ele>145</ele>
        <time>2022-03-17T09:06:23.000Z</time>
      </trkpt>
      <trkpt lat="47.544384" lon="1.7777778">
        <ele>145</ele>
        <time>2022-03-17T09:06:24.000Z</time>
      </trkpt>
      <trkpt lat="47.544373" lon="1.7777746">
        <ele>145</ele>
        <time>2022-03-17T09:06:25.000Z</time>
      </trkpt>
      <trkpt lat="47.54436" lon="1.7777755">
        <ele>144</ele>
        <time>2022-03-17T09:06:26.000Z</time>
      </trkpt>
      <trkpt lat="47.54435" lon="1.7777762">
        <ele>144</ele>
        <time>2022-03-17T09:06:27.000Z</time>
      </trkpt>
      <trkpt lat="47.54434" lon="1.7777714">
        <ele>144</ele>
        <time>2022-03-17T09:06:28.000Z</time>
      </trkpt>
      <trkpt lat="47.544327" lon="1.7777686">
        <ele>144</ele>
        <time>2022-03-17T09:06:29.000Z</time>
      </trkpt>
      <trkpt lat="47.544315" lon="1.7777627">
        <ele>144</ele>
        <time>2022-03-17T09:06:30.000Z</time>
      </trkpt>
      <trkpt lat="47.544304" lon="1.7777625">
        <ele>144</ele>
        <time>2022-03-17T09:06:31.000Z</time>
      </trkpt>
      <trkpt lat="47.544292" lon="1.7777579">
        <ele>144</ele>
        <time>2022-03-17T09:06:32.000Z</time>
      </trkpt>
      <trkpt lat="47.54428" lon="1.777754">
        <ele>144</ele>
        <time>2022-03-17T09:06:33.000Z</time>
      </trkpt>
      <trkpt lat="47.544266" lon="1.7777485">
        <ele>144</ele>
        <time>2022-03-17T09:06:34.000Z</time>
      </trkpt>
      <trkpt lat="47.544254" lon="1.7777451">
        <ele>144</ele>
        <time>2022-03-17T09:06:35.000Z</time>
      </trkpt>
      <trkpt lat="47.54424" lon="1.7777413">
        <ele>144</ele>
        <time>2022-03-17T09:06:36.000Z</time>
      </trkpt>
      <trkpt lat="47.544228" lon="1.77774">
        <ele>145</ele>
        <time>2022-03-17T09:06:37.000Z</time>
      </trkpt>
      <trkpt lat="47.54422" lon="1.7777369">
        <ele>145</ele>
        <time>2022-03-17T09:06:38.000Z</time>
      </trkpt>
      <trkpt lat="47.54421" lon="1.7777324">
        <ele>145</ele>
        <time>2022-03-17T09:06:39.000Z</time>
      </trkpt>
      <trkpt lat="47.544197" lon="1.7777275">
        <ele>145</ele>
        <time>2022-03-17T09:06:40.000Z</time>
      </trkpt>
      <trkpt lat="47.54418" lon="1.7777207">
        <ele>145</ele>
        <time>2022-03-17T09:06:41.000Z</time>
      </trkpt>
      <trkpt lat="47.54417" lon="1.7777163">
        <ele>145</ele>
        <time>2022-03-17T09:06:42.000Z</time>
      </trkpt>
      <trkpt lat="47.544155" lon="1.777714">
        <ele>145</ele>
        <time>2022-03-17T09:06:43.000Z</time>
      </trkpt>
      <trkpt lat="47.544144" lon="1.7777128">
        <ele>146</ele>
        <time>2022-03-17T09:06:44.000Z</time>
      </trkpt>
      <trkpt lat="47.54413" lon="1.7777094">
        <ele>146</ele>
        <time>2022-03-17T09:06:45.000Z</time>
      </trkpt>
      <trkpt lat="47.544117" lon="1.7777072">
        <ele>146</ele>
        <time>2022-03-17T09:06:46.000Z</time>
      </trkpt>
      <trkpt lat="47.544106" lon="1.7777064">
        <ele>146</ele>
        <time>2022-03-17T09:06:47.000Z</time>
      </trkpt>
      <trkpt lat="47.544094" lon="1.7777073">
        <ele>145</ele>
        <time>2022-03-17T09:06:48.000Z</time>
      </trkpt>
      <trkpt lat="47.544083" lon="1.7777091">
        <ele>145</ele>
        <time>2022-03-17T09:06:49.000Z</time>
      </trkpt>
      <trkpt lat="47.54407" lon="1.7777069">
        <ele>145</ele>
        <time>2022-03-17T09:06:50.000Z</time>
      </trkpt>
      <trkpt lat="47.54406" lon="1.7777045">
        <ele>144</ele>
        <time>2022-03-17T09:06:51.000Z</time>
      </trkpt>
      <trkpt lat="47.54405" lon="1.7777042">
        <ele>144</ele>
        <time>2022-03-17T09:06:52.000Z</time>
      </trkpt>
      <trkpt lat="47.544037" lon="1.7777046">
        <ele>144</ele>
        <time>2022-03-17T09:06:53.000Z</time>
      </trkpt>
      <trkpt lat="47.544025" lon="1.7777035">
        <ele>144</ele>
        <time>2022-03-17T09:06:54.000Z</time>
      </trkpt>
      <trkpt lat="47.54401" lon="1.7776989">
        <ele>144</ele>
        <time>2022-03-17T09:06:55.000Z</time>
      </trkpt>
      <trkpt lat="47.544" lon="1.777696">
        <ele>144</ele>
        <time>2022-03-17T09:06:56.000Z</time>
      </trkpt>
      <trkpt lat="47.543987" lon="1.7776955">
        <ele>144</ele>
        <time>2022-03-17T09:06:57.000Z</time>
      </trkpt>
      <trkpt lat="47.543976" lon="1.7776948">
        <ele>144</ele>
        <time>2022-03-17T09:06:58.000Z</time>
      </trkpt>
      <trkpt lat="47.54397" lon="1.7776929">
        <ele>144</ele>
        <time>2022-03-17T09:06:59.000Z</time>
      </trkpt>
      <trkpt lat="47.54396" lon="1.7776904">
        <ele>144</ele>
        <time>2022-03-17T09:07:00.000Z</time>
      </trkpt>
      <trkpt lat="47.543945" lon="1.7776859">
        <ele>143</ele>
        <time>2022-03-17T09:07:01.000Z</time>
      </trkpt>
      <trkpt lat="47.543934" lon="1.7776849">
        <ele>143</ele>
        <time>2022-03-17T09:07:02.000Z</time>
      </trkpt>
      <trkpt lat="47.543922" lon="1.7776809">
        <ele>143</ele>
        <time>2022-03-17T09:07:03.000Z</time>
      </trkpt>
      <trkpt lat="47.54391" lon="1.7776772">
        <ele>142</ele>
        <time>2022-03-17T09:07:04.000Z</time>
      </trkpt>
      <trkpt lat="47.5439" lon="1.7776731">
        <ele>143</ele>
        <time>2022-03-17T09:07:05.000Z</time>
      </trkpt>
      <trkpt lat="47.543884" lon="1.7776668">
        <ele>143</ele>
        <time>2022-03-17T09:07:06.000Z</time>
      </trkpt>
      <trkpt lat="47.54387" lon="1.777659">
        <ele>143</ele>
        <time>2022-03-17T09:07:07.000Z</time>
      </trkpt>
      <trkpt lat="47.543858" lon="1.7776532">
        <ele>143</ele>
        <time>2022-03-17T09:07:08.000Z</time>
      </trkpt>
      <trkpt lat="47.543846" lon="1.7776469">
        <ele>143</ele>
        <time>2022-03-17T09:07:09.000Z</time>
      </trkpt>
      <trkpt lat="47.543835" lon="1.7776455">
        <ele>143</ele>
        <time>2022-03-17T09:07:10.000Z</time>
      </trkpt>
      <trkpt lat="47.54382" lon="1.7776449">
        <ele>143</ele>
        <time>2022-03-17T09:07:11.000Z</time>
      </trkpt>
      <trkpt lat="47.543808" lon="1.7776465">
        <ele>143</ele>
        <time>2022-03-17T09:07:12.000Z</time>
      </trkpt>
      <trkpt lat="47.543793" lon="1.7776469">
        <ele>143</ele>
        <time>2022-03-17T09:07:13.000Z</time>
      </trkpt>
      <trkpt lat="47.543777" lon="1.7776414">
        <ele>143</ele>
        <time>2022-03-17T09:07:14.000Z</time>
      </trkpt>
      <trkpt lat="47.543762" lon="1.7776362">
        <ele>143</ele>
        <time>2022-03-17T09:07:15.000Z</time>
      </trkpt>
      <trkpt lat="47.54375" lon="1.7776325">
        <ele>143</ele>
        <time>2022-03-17T09:07:16.000Z</time>
      </trkpt>
      <trkpt lat="47.543736" lon="1.7776272">
        <ele>142</ele>
        <time>2022-03-17T09:07:17.000Z</time>
      </trkpt>
      <trkpt lat="47.543728" lon="1.7776237">
        <ele>142</ele>
        <time>2022-03-17T09:07:18.000Z</time>
      </trkpt>
      <trkpt lat="47.543716" lon="1.7776238">
        <ele>142</ele>
        <time>2022-03-17T09:07:19.000Z</time>
      </trkpt>
      <trkpt lat="47.5437" lon="1.7776178">
        <ele>142</ele>
        <time>2022-03-17T09:07:20.000Z</time>
      </trkpt>
      <trkpt lat="47.54369" lon="1.7776151">
        <ele>142</ele>
        <time>2022-03-17T09:07:21.000Z</time>
      </trkpt>
      <trkpt lat="47.54368" lon="1.7776127">
        <ele>142</ele>
        <time>2022-03-17T09:07:22.000Z</time>
      </trkpt>
      <trkpt lat="47.54367" lon="1.777612">
        <ele>143</ele>
        <time>2022-03-17T09:07:23.000Z</time>
      </trkpt>
      <trkpt lat="47.543663" lon="1.7776119">
        <ele>143</ele>
        <time>2022-03-17T09:07:24.000Z</time>
      </trkpt>
      <trkpt lat="47.543648" lon="1.7776088">
        <ele>143</ele>
        <time>2022-03-17T09:07:25.000Z</time>
      </trkpt>
      <trkpt lat="47.543636" lon="1.7776057">
        <ele>143</ele>
        <time>2022-03-17T09:07:26.000Z</time>
      </trkpt>
      <trkpt lat="47.543625" lon="1.7776037">
        <ele>143</ele>
        <time>2022-03-17T09:07:27.000Z</time>
      </trkpt>
      <trkpt lat="47.543613" lon="1.777601">
        <ele>143</ele>
        <time>2022-03-17T09:07:28.000Z</time>
      </trkpt>
      <trkpt lat="47.543602" lon="1.7775983">
        <ele>144</ele>
        <time>2022-03-17T09:07:29.000Z</time>
      </trkpt>
      <trkpt lat="47.54359" lon="1.7775953">
        <ele>144</ele>
        <time>2022-03-17T09:07:30.000Z</time>
      </trkpt>
      <trkpt lat="47.54358" lon="1.7775903">
        <ele>144</ele>
        <time>2022-03-17T09:07:31.000Z</time>
      </trkpt>
      <trkpt lat="47.543564" lon="1.7775899">
        <ele>144</ele>
        <time>2022-03-17T09:07:32.000Z</time>
      </trkpt>
      <trkpt lat="47.543556" lon="1.77759">
        <ele>144</ele>
        <time>2022-03-17T09:07:33.000Z</time>
      </trkpt>
      <trkpt lat="47.54354" lon="1.7775859">
        <ele>144</ele>
        <time>2022-03-17T09:07:34.000Z</time>
      </trkpt>
      <trkpt lat="47.543526" lon="1.7775813">
        <ele>144</ele>
        <time>2022-03-17T09:07:35.000Z</time>
      </trkpt>
      <trkpt lat="47.54351" lon="1.7775806">
        <ele>144</ele>
        <time>2022-03-17T09:07:36.000Z</time>
      </trkpt>
      <trkpt lat="47.5435" lon="1.7775794">
        <ele>144</ele>
        <time>2022-03-17T09:07:37.000Z</time>
      </trkpt>
      <trkpt lat="47.543488" lon="1.7775791">
        <ele>144</ele>
        <time>2022-03-17T09:07:38.000Z</time>
      </trkpt>
      <trkpt lat="47.543476" lon="1.7775754">
        <ele>144</ele>
        <time>2022-03-17T09:07:39.000Z</time>
      </trkpt>
      <trkpt lat="47.543465" lon="1.7775724">
        <ele>145</ele>
        <time>2022-03-17T09:07:40.000Z</time>
      </trkpt>
      <trkpt lat="47.543457" lon="1.7775729">
        <ele>145</ele>
        <time>2022-03-17T09:07:41.000Z</time>
      </trkpt>
      <trkpt lat="47.54345" lon="1.7775716">
        <ele>145</ele>
        <time>2022-03-17T09:07:42.000Z</time>
      </trkpt>
      <trkpt lat="47.54344" lon="1.7775681">
        <ele>145</ele>
        <time>2022-03-17T09:07:43.000Z</time>
      </trkpt>
      <trkpt lat="47.54343" lon="1.7775627">
        <ele>145</ele>
        <time>2022-03-17T09:07:44.000Z</time>
      </trkpt>
      <trkpt lat="47.543415" lon="1.7775576">
        <ele>145</ele>
        <time>2022-03-17T09:07:45.000Z</time>
      </trkpt>
      <trkpt lat="47.543407" lon="1.7775544">
        <ele>145</ele>
        <time>2022-03-17T09:07:46.000Z</time>
      </trkpt>
      <trkpt lat="47.543392" lon="1.7775514">
        <ele>145</ele>
        <time>2022-03-17T09:07:47.000Z</time>
      </trkpt>
      <trkpt lat="47.54338" lon="1.7775505">
        <ele>145</ele>
        <time>2022-03-17T09:07:48.000Z</time>
      </trkpt>
      <trkpt lat="47.543365" lon="1.7775482">
        <ele>145</ele>
        <time>2022-03-17T09:07:49.000Z</time>
      </trkpt>
      <trkpt lat="47.543358" lon="1.7775488">
        <ele>146</ele>
        <time>2022-03-17T09:07:50.000Z</time>
      </trkpt>
      <trkpt lat="47.543343" lon="1.7775466">
        <ele>146</ele>
        <time>2022-03-17T09:07:51.000Z</time>
      </trkpt>
      <trkpt lat="47.54333" lon="1.777548">
        <ele>146</ele>
        <time>2022-03-17T09:07:52.000Z</time>
      </trkpt>
      <trkpt lat="47.54332" lon="1.7775493">
        <ele>145</ele>
        <time>2022-03-17T09:07:53.000Z</time>
      </trkpt>
      <trkpt lat="47.543312" lon="1.7775472">
        <ele>145</ele>
        <time>2022-03-17T09:07:54.000Z</time>
      </trkpt>
      <trkpt lat="47.543304" lon="1.7775481">
        <ele>145</ele>
        <time>2022-03-17T09:07:55.000Z</time>
      </trkpt>
      <trkpt lat="47.543297" lon="1.7775531">
        <ele>145</ele>
        <time>2022-03-17T09:07:56.000Z</time>
      </trkpt>
      <trkpt lat="47.543285" lon="1.7775562">
        <ele>144</ele>
        <time>2022-03-17T09:07:57.000Z</time>
      </trkpt>
      <trkpt lat="47.543285" lon="1.7775562">
        <ele>145</ele>
        <time>2022-03-17T09:07:58.000Z</time>
      </trkpt>
      <trkpt lat="47.54328" lon="1.7775574">
        <ele>145</ele>
        <time>2022-03-17T09:07:59.000Z</time>
      </trkpt>
      <trkpt lat="47.54328" lon="1.7775594">
        <ele>145</ele>
        <time>2022-03-17T09:08:00.000Z</time>
      </trkpt>
      <trkpt lat="47.54328" lon="1.7775594">
        <ele>145</ele>
        <time>2022-03-17T09:08:01.000Z</time>
      </trkpt>
      <trkpt lat="47.54328" lon="1.7775594">
        <ele>145</ele>
        <time>2022-03-17T09:08:02.000Z</time>
      </trkpt>
      <trkpt lat="47.54328" lon="1.7775594">
        <ele>145</ele>
        <time>2022-03-17T09:08:03.000Z</time>
      </trkpt>
      <trkpt lat="47.54328" lon="1.7775594">
        <ele>145</ele>
        <time>2022-03-17T09:08:04.000Z</time>
      </trkpt>
      <trkpt lat="47.54328" lon="1.7775594">
        <ele>145</ele>
        <time>2022-03-17T09:08:05.000Z</time>
      </trkpt>
      <trkpt lat="47.54328" lon="1.7775594">
        <ele>145</ele>
        <time>2022-03-17T09:08:05.000Z</time>
      </trkpt>
      <trkpt lat="47.54328" lon="1.7775594">
        <ele>145</ele>
        <time>2022-03-17T09:08:05.000Z</time>
      </trkpt>
      <trkpt lat="47.54322" lon="1.7775303">
        <ele>145</ele>
        <time>2022-03-17T09:11:35.000Z</time>
      </trkpt>
      <trkpt lat="47.54321" lon="1.7775308">
        <ele>145</ele>
        <time>2022-03-17T09:11:36.000Z</time>
      </trkpt>
      <trkpt lat="47.5432" lon="1.7775362">
        <ele>145</ele>
        <time>2022-03-17T09:11:37.000Z</time>
      </trkpt>
      <trkpt lat="47.543194" lon="1.7775472">
        <ele>145</ele>
        <time>2022-03-17T09:11:38.000Z</time>
      </trkpt>
      <trkpt lat="47.543186" lon="1.7775565">
        <ele>145</ele>
        <time>2022-03-17T09:11:39.000Z</time>
      </trkpt>
      <trkpt lat="47.543175" lon="1.7775607">
        <ele>145</ele>
        <time>2022-03-17T09:11:40.000Z</time>
      </trkpt>
      <trkpt lat="47.543167" lon="1.777557">
        <ele>145</ele>
        <time>2022-03-17T09:11:41.000Z</time>
      </trkpt>
      <trkpt lat="47.543156" lon="1.7775459">
        <ele>146</ele>
        <time>2022-03-17T09:11:42.000Z</time>
      </trkpt>
      <trkpt lat="47.54314" lon="1.7775314">
        <ele>145</ele>
        <time>2022-03-17T09:11:43.000Z</time>
      </trkpt>
      <trkpt lat="47.54313" lon="1.7775133">
        <ele>145</ele>
        <time>2022-03-17T09:11:44.000Z</time>
      </trkpt>
      <trkpt lat="47.543114" lon="1.7774961">
        <ele>145</ele>
        <time>2022-03-17T09:11:45.000Z</time>
      </trkpt>
      <trkpt lat="47.5431" lon="1.7774813">
        <ele>145</ele>
        <time>2022-03-17T09:11:46.000Z</time>
      </trkpt>
      <trkpt lat="47.543087" lon="1.7774662">
        <ele>145</ele>
        <time>2022-03-17T09:11:47.000Z</time>
      </trkpt>
      <trkpt lat="47.54307" lon="1.7774528">
        <ele>145</ele>
        <time>2022-03-17T09:11:48.000Z</time>
      </trkpt>
      <trkpt lat="47.54306" lon="1.7774422">
        <ele>145</ele>
        <time>2022-03-17T09:11:49.000Z</time>
      </trkpt>
      <trkpt lat="47.543045" lon="1.7774334">
        <ele>145</ele>
        <time>2022-03-17T09:11:50.000Z</time>
      </trkpt>
      <trkpt lat="47.543034" lon="1.7774295">
        <ele>145</ele>
        <time>2022-03-17T09:11:51.000Z</time>
      </trkpt>
      <trkpt lat="47.543026" lon="1.7774389">
        <ele>144</ele>
        <time>2022-03-17T09:11:52.000Z</time>
      </trkpt>
      <trkpt lat="47.54302" lon="1.7774382">
        <ele>144</ele>
        <time>2022-03-17T09:11:53.000Z</time>
      </trkpt>
      <trkpt lat="47.54301" lon="1.7774339">
        <ele>144</ele>
        <time>2022-03-17T09:11:54.000Z</time>
      </trkpt>
      <trkpt lat="47.543003" lon="1.7774342">
        <ele>144</ele>
        <time>2022-03-17T09:11:55.000Z</time>
      </trkpt>
      <trkpt lat="47.543" lon="1.7774377">
        <ele>144</ele>
        <time>2022-03-17T09:11:56.000Z</time>
      </trkpt>
      <trkpt lat="47.54299" lon="1.7774398">
        <ele>143</ele>
        <time>2022-03-17T09:11:57.000Z</time>
      </trkpt>
      <trkpt lat="47.54299" lon="1.7774429">
        <ele>143</ele>
        <time>2022-03-17T09:11:58.000Z</time>
      </trkpt>
      <trkpt lat="47.54299" lon="1.7774413">
        <ele>144</ele>
        <time>2022-03-17T09:11:59.000Z</time>
      </trkpt>
      <trkpt lat="47.54299" lon="1.7774413">
        <ele>144</ele>
        <time>2022-03-17T09:12:00.000Z</time>
      </trkpt>
      <trkpt lat="47.54299" lon="1.7774413">
        <ele>144</ele>
        <time>2022-03-17T09:12:01.000Z</time>
      </trkpt>
      <trkpt lat="47.54299" lon="1.7774413">
        <ele>144</ele>
        <time>2022-03-17T09:12:01.000Z</time>
      </trkpt>
      <trkpt lat="47.54299" lon="1.7774413">
        <ele>144</ele>
        <time>2022-03-17T09:12:01.000Z</time>
      </trkpt>
      <trkpt lat="47.543053" lon="1.7774887">
        <ele>142</ele>
        <time>2022-03-17T09:12:48.000Z</time>
      </trkpt>
      <trkpt lat="47.543056" lon="1.7775004">
        <ele>142</ele>
        <time>2022-03-17T09:12:49.000Z</time>
      </trkpt>
      <trkpt lat="47.543068" lon="1.7775105">
        <ele>143</ele>
        <time>2022-03-17T09:12:50.000Z</time>
      </trkpt>
      <trkpt lat="47.54308" lon="1.7775201">
        <ele>142</ele>
        <time>2022-03-17T09:12:51.000Z</time>
      </trkpt>
      <trkpt lat="47.543087" lon="1.7775306">
        <ele>143</ele>
        <time>2022-03-17T09:12:52.000Z</time>
      </trkpt>
      <trkpt lat="47.5431" lon="1.7775357">
        <ele>143</ele>
        <time>2022-03-17T09:12:53.000Z</time>
      </trkpt>
      <trkpt lat="47.543102" lon="1.7775257">
        <ele>144</ele>
        <time>2022-03-17T09:12:54.000Z</time>
      </trkpt>
      <trkpt lat="47.5431" lon="1.777517">
        <ele>144</ele>
        <time>2022-03-17T09:12:55.000Z</time>
      </trkpt>
      <trkpt lat="47.5431" lon="1.7775171">
        <ele>144</ele>
        <time>2022-03-17T09:12:56.000Z</time>
      </trkpt>
      <trkpt lat="47.5431" lon="1.7775167">
        <ele>144</ele>
        <time>2022-03-17T09:12:57.000Z</time>
      </trkpt>
      <trkpt lat="47.5431" lon="1.7775167">
        <ele>144</ele>
        <time>2022-03-17T09:12:57.000Z</time>
      </trkpt>
      <trkpt lat="47.5431" lon="1.7775167">
        <ele>144</ele>
        <time>2022-03-17T09:12:57.000Z</time>
      </trkpt>
      <trkpt lat="47.54312" lon="1.7775549">
        <ele>145</ele>
        <time>2022-03-17T09:13:06.000Z</time>
      </trkpt>
      <trkpt lat="47.54313" lon="1.7775666">
        <ele>145</ele>
        <time>2022-03-17T09:13:07.000Z</time>
      </trkpt>
      <trkpt lat="47.543137" lon="1.7775834">
        <ele>144</ele>
        <time>2022-03-17T09:13:08.000Z</time>
      </trkpt>
      <trkpt lat="47.543137" lon="1.7775846">
        <ele>145</ele>
        <time>2022-03-17T09:13:09.000Z</time>
      </trkpt>
      <trkpt lat="47.543137" lon="1.7775844">
        <ele>145</ele>
        <time>2022-03-17T09:13:10.000Z</time>
      </trkpt>
      <trkpt lat="47.543137" lon="1.7775842">
        <ele>145</ele>
        <time>2022-03-17T09:13:11.000Z</time>
      </trkpt>
      <trkpt lat="47.543137" lon="1.7775846">
        <ele>145</ele>
        <time>2022-03-17T09:13:12.000Z</time>
      </trkpt>
      <trkpt lat="47.543137" lon="1.7775846">
        <ele>145</ele>
        <time>2022-03-17T09:13:12.000Z</time>
      </trkpt>
      <trkpt lat="47.543137" lon="1.7775846">
        <ele>145</ele>
        <time>2022-03-17T09:13:12.000Z</time>
      </trkpt>
      <trkpt lat="47.543118" lon="1.7775425">
        <ele>147</ele>
        <time>2022-03-17T09:22:36.000Z</time>
      </trkpt>
      <trkpt lat="47.543106" lon="1.7775309">
        <ele>146</ele>
        <time>2022-03-17T09:22:37.000Z</time>
      </trkpt>
      <trkpt lat="47.5431" lon="1.7775211">
        <ele>146</ele>
        <time>2022-03-17T09:22:38.000Z</time>
      </trkpt>
      <trkpt lat="47.54309" lon="1.7775155">
        <ele>146</ele>
        <time>2022-03-17T09:22:39.000Z</time>
      </trkpt>
      <trkpt lat="47.543083" lon="1.7775066">
        <ele>146</ele>
        <time>2022-03-17T09:22:40.000Z</time>
      </trkpt>
      <trkpt lat="47.54308" lon="1.7774954">
        <ele>146</ele>
        <time>2022-03-17T09:22:41.000Z</time>
      </trkpt>
      <trkpt lat="47.54307" lon="1.7774845">
        <ele>146</ele>
        <time>2022-03-17T09:22:42.000Z</time>
      </trkpt>
      <trkpt lat="47.543068" lon="1.7774704">
        <ele>146</ele>
        <time>2022-03-17T09:22:43.000Z</time>
      </trkpt>
      <trkpt lat="47.543068" lon="1.7774549">
        <ele>146</ele>
        <time>2022-03-17T09:22:44.000Z</time>
      </trkpt>
      <trkpt lat="47.54307" lon="1.7774407">
        <ele>146</ele>
        <time>2022-03-17T09:22:45.000Z</time>
      </trkpt>
      <trkpt lat="47.54307" lon="1.7774394">
        <ele>146</ele>
        <time>2022-03-17T09:22:46.000Z</time>
      </trkpt>
      <trkpt lat="47.543076" lon="1.7774355">
        <ele>146</ele>
        <time>2022-03-17T09:22:47.000Z</time>
      </trkpt>
      <trkpt lat="47.543076" lon="1.7774355">
        <ele>146</ele>
        <time>2022-03-17T09:22:48.000Z</time>
      </trkpt>
      <trkpt lat="47.543076" lon="1.7774355">
        <ele>146</ele>
        <time>2022-03-17T09:22:49.000Z</time>
      </trkpt>
      <trkpt lat="47.54308" lon="1.777436">
        <ele>148</ele>
        <time>2022-03-17T09:22:50.000Z</time>
      </trkpt>
      <trkpt lat="47.54308" lon="1.777436">
        <ele>148</ele>
        <time>2022-03-17T09:22:50.000Z</time>
      </trkpt>
      <trkpt lat="47.54308" lon="1.777436">
        <ele>148</ele>
        <time>2022-03-17T09:22:50.000Z</time>
      </trkpt>
      <trkpt lat="47.543" lon="1.7774218">
        <ele>146</ele>
        <time>2022-03-17T09:23:33.000Z</time>
      </trkpt>
      <trkpt lat="47.542995" lon="1.7774088">
        <ele>146</ele>
        <time>2022-03-17T09:23:34.000Z</time>
      </trkpt>
      <trkpt lat="47.542988" lon="1.7773981">
        <ele>146</ele>
        <time>2022-03-17T09:23:35.000Z</time>
      </trkpt>
      <trkpt lat="47.54298" lon="1.7773886">
        <ele>146</ele>
        <time>2022-03-17T09:23:36.000Z</time>
      </trkpt>
      <trkpt lat="47.542976" lon="1.7773798">
        <ele>146</ele>
        <time>2022-03-17T09:23:37.000Z</time>
      </trkpt>
      <trkpt lat="47.54297" lon="1.7773688">
        <ele>145</ele>
        <time>2022-03-17T09:23:38.000Z</time>
      </trkpt>
      <trkpt lat="47.54296" lon="1.7773587">
        <ele>145</ele>
        <time>2022-03-17T09:23:39.000Z</time>
      </trkpt>
      <trkpt lat="47.542953" lon="1.777345">
        <ele>145</ele>
        <time>2022-03-17T09:23:40.000Z</time>
      </trkpt>
      <trkpt lat="47.542946" lon="1.7773325">
        <ele>145</ele>
        <time>2022-03-17T09:23:41.000Z</time>
      </trkpt>
      <trkpt lat="47.54294" lon="1.777323">
        <ele>145</ele>
        <time>2022-03-17T09:23:42.000Z</time>
      </trkpt>
      <trkpt lat="47.54293" lon="1.7773122">
        <ele>144</ele>
        <time>2022-03-17T09:23:43.000Z</time>
      </trkpt>
      <trkpt lat="47.542923" lon="1.7773027">
        <ele>145</ele>
        <time>2022-03-17T09:23:44.000Z</time>
      </trkpt>
      <trkpt lat="47.54292" lon="1.7772906">
        <ele>144</ele>
        <time>2022-03-17T09:23:45.000Z</time>
      </trkpt>
      <trkpt lat="47.54291" lon="1.7772783">
        <ele>144</ele>
        <time>2022-03-17T09:23:46.000Z</time>
      </trkpt>
      <trkpt lat="47.542908" lon="1.7772691">
        <ele>145</ele>
        <time>2022-03-17T09:23:47.000Z</time>
      </trkpt>
      <trkpt lat="47.5429" lon="1.7772584">
        <ele>144</ele>
        <time>2022-03-17T09:23:48.000Z</time>
      </trkpt>
      <trkpt lat="47.542896" lon="1.7772439">
        <ele>145</ele>
        <time>2022-03-17T09:23:49.000Z</time>
      </trkpt>
      <trkpt lat="47.54289" lon="1.7772313">
        <ele>145</ele>
        <time>2022-03-17T09:23:50.000Z</time>
      </trkpt>
      <trkpt lat="47.542885" lon="1.7772177">
        <ele>145</ele>
        <time>2022-03-17T09:23:51.000Z</time>
      </trkpt>
      <trkpt lat="47.542877" lon="1.7772013">
        <ele>145</ele>
        <time>2022-03-17T09:23:52.000Z</time>
      </trkpt>
      <trkpt lat="47.542873" lon="1.7771866">
        <ele>145</ele>
        <time>2022-03-17T09:23:53.000Z</time>
      </trkpt>
      <trkpt lat="47.542866" lon="1.7771705">
        <ele>145</ele>
        <time>2022-03-17T09:23:54.000Z</time>
      </trkpt>
      <trkpt lat="47.54286" lon="1.777158">
        <ele>145</ele>
        <time>2022-03-17T09:23:55.000Z</time>
      </trkpt>
      <trkpt lat="47.54285" lon="1.7771412">
        <ele>145</ele>
        <time>2022-03-17T09:23:56.000Z</time>
      </trkpt>
      <trkpt lat="47.54284" lon="1.7771263">
        <ele>145</ele>
        <time>2022-03-17T09:23:57.000Z</time>
      </trkpt>
      <trkpt lat="47.54283" lon="1.7771103">
        <ele>145</ele>
        <time>2022-03-17T09:23:58.000Z</time>
      </trkpt>
      <trkpt lat="47.542824" lon="1.7770987">
        <ele>146</ele>
        <time>2022-03-17T09:23:59.000Z</time>
      </trkpt>
      <trkpt lat="47.542812" lon="1.7770834">
        <ele>146</ele>
        <time>2022-03-17T09:24:00.000Z</time>
      </trkpt>
      <trkpt lat="47.542805" lon="1.7770721">
        <ele>146</ele>
        <time>2022-03-17T09:24:01.000Z</time>
      </trkpt>
      <trkpt lat="47.542793" lon="1.7770573">
        <ele>146</ele>
        <time>2022-03-17T09:24:02.000Z</time>
      </trkpt>
      <trkpt lat="47.542786" lon="1.7770451">
        <ele>146</ele>
        <time>2022-03-17T09:24:03.000Z</time>
      </trkpt>
      <trkpt lat="47.542778" lon="1.7770311">
        <ele>146</ele>
        <time>2022-03-17T09:24:04.000Z</time>
      </trkpt>
      <trkpt lat="47.542767" lon="1.7770146">
        <ele>146</ele>
        <time>2022-03-17T09:24:05.000Z</time>
      </trkpt>
      <trkpt lat="47.54276" lon="1.7770025">
        <ele>146</ele>
        <time>2022-03-17T09:24:06.000Z</time>
      </trkpt>
      <trkpt lat="47.542747" lon="1.7769896">
        <ele>147</ele>
        <time>2022-03-17T09:24:07.000Z</time>
      </trkpt>
      <trkpt lat="47.54274" lon="1.7769737">
        <ele>147</ele>
        <time>2022-03-17T09:24:08.000Z</time>
      </trkpt>
      <trkpt lat="47.542732" lon="1.7769595">
        <ele>147</ele>
        <time>2022-03-17T09:24:09.000Z</time>
      </trkpt>
      <trkpt lat="47.542725" lon="1.7769446">
        <ele>147</ele>
        <time>2022-03-17T09:24:10.000Z</time>
      </trkpt>
      <trkpt lat="47.542713" lon="1.7769341">
        <ele>147</ele>
        <time>2022-03-17T09:24:11.000Z</time>
      </trkpt>
      <trkpt lat="47.542706" lon="1.7769214">
        <ele>147</ele>
        <time>2022-03-17T09:24:12.000Z</time>
      </trkpt>
      <trkpt lat="47.542698" lon="1.7769068">
        <ele>147</ele>
        <time>2022-03-17T09:24:13.000Z</time>
      </trkpt>
      <trkpt lat="47.54269" lon="1.7768902">
        <ele>147</ele>
        <time>2022-03-17T09:24:14.000Z</time>
      </trkpt>
      <trkpt lat="47.54268" lon="1.7768729">
        <ele>147</ele>
        <time>2022-03-17T09:24:15.000Z</time>
      </trkpt>
      <trkpt lat="47.54267" lon="1.7768582">
        <ele>148</ele>
        <time>2022-03-17T09:24:16.000Z</time>
      </trkpt>
      <trkpt lat="47.542664" lon="1.7768439">
        <ele>148</ele>
        <time>2022-03-17T09:24:17.000Z</time>
      </trkpt>
      <trkpt lat="47.542652" lon="1.7768301">
        <ele>148</ele>
        <time>2022-03-17T09:24:18.000Z</time>
      </trkpt>
      <trkpt lat="47.542645" lon="1.7768159">
        <ele>148</ele>
        <time>2022-03-17T09:24:19.000Z</time>
      </trkpt>
      <trkpt lat="47.542633" lon="1.7768022">
        <ele>148</ele>
        <time>2022-03-17T09:24:20.000Z</time>
      </trkpt>
      <trkpt lat="47.542625" lon="1.7767897">
        <ele>148</ele>
        <time>2022-03-17T09:24:21.000Z</time>
      </trkpt>
      <trkpt lat="47.542614" lon="1.7767748">
        <ele>148</ele>
        <time>2022-03-17T09:24:22.000Z</time>
      </trkpt>
      <trkpt lat="47.542606" lon="1.7767595">
        <ele>148</ele>
        <time>2022-03-17T09:24:23.000Z</time>
      </trkpt>
      <trkpt lat="47.542595" lon="1.7767485">
        <ele>148</ele>
        <time>2022-03-17T09:24:24.000Z</time>
      </trkpt>
      <trkpt lat="47.54259" lon="1.7767366">
        <ele>148</ele>
        <time>2022-03-17T09:24:25.000Z</time>
      </trkpt>
      <trkpt lat="47.54258" lon="1.7767283">
        <ele>148</ele>
        <time>2022-03-17T09:24:26.000Z</time>
      </trkpt>
      <trkpt lat="47.542572" lon="1.7767129">
        <ele>148</ele>
        <time>2022-03-17T09:24:27.000Z</time>
      </trkpt>
      <trkpt lat="47.54256" lon="1.7766956">
        <ele>148</ele>
        <time>2022-03-17T09:24:28.000Z</time>
      </trkpt>
      <trkpt lat="47.54255" lon="1.7766794">
        <ele>148</ele>
        <time>2022-03-17T09:24:29.000Z</time>
      </trkpt>
      <trkpt lat="47.542538" lon="1.776669">
        <ele>148</ele>
        <time>2022-03-17T09:24:30.000Z</time>
      </trkpt>
      <trkpt lat="47.54253" lon="1.7766542">
        <ele>147</ele>
        <time>2022-03-17T09:24:31.000Z</time>
      </trkpt>
      <trkpt lat="47.542526" lon="1.7766452">
        <ele>147</ele>
        <time>2022-03-17T09:24:32.000Z</time>
      </trkpt>
      <trkpt lat="47.54252" lon="1.776633">
        <ele>147</ele>
        <time>2022-03-17T09:24:33.000Z</time>
      </trkpt>
      <trkpt lat="47.54251" lon="1.7766155">
        <ele>148</ele>
        <time>2022-03-17T09:24:34.000Z</time>
      </trkpt>
      <trkpt lat="47.542503" lon="1.7766042">
        <ele>148</ele>
        <time>2022-03-17T09:24:35.000Z</time>
      </trkpt>
      <trkpt lat="47.542496" lon="1.7765919">
        <ele>147</ele>
        <time>2022-03-17T09:24:36.000Z</time>
      </trkpt>
      <trkpt lat="47.54249" lon="1.7765744">
        <ele>147</ele>
        <time>2022-03-17T09:24:37.000Z</time>
      </trkpt>
      <trkpt lat="47.54248" lon="1.7765582">
        <ele>147</ele>
        <time>2022-03-17T09:24:38.000Z</time>
      </trkpt>
      <trkpt lat="47.542473" lon="1.7765415">
        <ele>147</ele>
        <time>2022-03-17T09:24:39.000Z</time>
      </trkpt>
      <trkpt lat="47.54246" lon="1.7765275">
        <ele>148</ele>
        <time>2022-03-17T09:24:40.000Z</time>
      </trkpt>
      <trkpt lat="47.54245" lon="1.7765142">
        <ele>147</ele>
        <time>2022-03-17T09:24:41.000Z</time>
      </trkpt>
      <trkpt lat="47.542442" lon="1.7764983">
        <ele>147</ele>
        <time>2022-03-17T09:24:42.000Z</time>
      </trkpt>
      <trkpt lat="47.54243" lon="1.7764859">
        <ele>148</ele>
        <time>2022-03-17T09:24:43.000Z</time>
      </trkpt>
      <trkpt lat="47.542423" lon="1.7764729">
        <ele>147</ele>
        <time>2022-03-17T09:24:44.000Z</time>
      </trkpt>
      <trkpt lat="47.54241" lon="1.7764616">
        <ele>148</ele>
        <time>2022-03-17T09:24:45.000Z</time>
      </trkpt>
      <trkpt lat="47.542404" lon="1.7764485">
        <ele>148</ele>
        <time>2022-03-17T09:24:46.000Z</time>
      </trkpt>
      <trkpt lat="47.54239" lon="1.7764354">
        <ele>148</ele>
        <time>2022-03-17T09:24:47.000Z</time>
      </trkpt>
      <trkpt lat="47.542385" lon="1.7764208">
        <ele>148</ele>
        <time>2022-03-17T09:24:48.000Z</time>
      </trkpt>
      <trkpt lat="47.542374" lon="1.7764077">
        <ele>148</ele>
        <time>2022-03-17T09:24:49.000Z</time>
      </trkpt>
      <trkpt lat="47.542366" lon="1.7763988">
        <ele>149</ele>
        <time>2022-03-17T09:24:50.000Z</time>
      </trkpt>
      <trkpt lat="47.542355" lon="1.7763828">
        <ele>149</ele>
        <time>2022-03-17T09:24:51.000Z</time>
      </trkpt>
      <trkpt lat="47.542343" lon="1.7763698">
        <ele>148</ele>
        <time>2022-03-17T09:24:52.000Z</time>
      </trkpt>
      <trkpt lat="47.542336" lon="1.776354">
        <ele>148</ele>
        <time>2022-03-17T09:24:53.000Z</time>
      </trkpt>
      <trkpt lat="47.542328" lon="1.7763405">
        <ele>148</ele>
        <time>2022-03-17T09:24:54.000Z</time>
      </trkpt>
      <trkpt lat="47.542313" lon="1.77633">
        <ele>148</ele>
        <time>2022-03-17T09:24:55.000Z</time>
      </trkpt>
      <trkpt lat="47.5423" lon="1.7763171">
        <ele>147</ele>
        <time>2022-03-17T09:24:56.000Z</time>
      </trkpt>
      <trkpt lat="47.542294" lon="1.7763051">
        <ele>147</ele>
        <time>2022-03-17T09:24:57.000Z</time>
      </trkpt>
      <trkpt lat="47.542282" lon="1.7762914">
        <ele>148</ele>
        <time>2022-03-17T09:24:58.000Z</time>
      </trkpt>
      <trkpt lat="47.542274" lon="1.7762768">
        <ele>148</ele>
        <time>2022-03-17T09:24:59.000Z</time>
      </trkpt>
      <trkpt lat="47.542263" lon="1.7762648">
        <ele>148</ele>
        <time>2022-03-17T09:25:00.000Z</time>
      </trkpt>
      <trkpt lat="47.54226" lon="1.7762505">
        <ele>148</ele>
        <time>2022-03-17T09:25:01.000Z</time>
      </trkpt>
      <trkpt lat="47.54225" lon="1.776234">
        <ele>148</ele>
        <time>2022-03-17T09:25:02.000Z</time>
      </trkpt>
      <trkpt lat="47.542236" lon="1.7762219">
        <ele>148</ele>
        <time>2022-03-17T09:25:03.000Z</time>
      </trkpt>
      <trkpt lat="47.54223" lon="1.7762065">
        <ele>148</ele>
        <time>2022-03-17T09:25:04.000Z</time>
      </trkpt>
      <trkpt lat="47.54222" lon="1.7761897">
        <ele>148</ele>
        <time>2022-03-17T09:25:05.000Z</time>
      </trkpt>
      <trkpt lat="47.542213" lon="1.7761766">
        <ele>148</ele>
        <time>2022-03-17T09:25:06.000Z</time>
      </trkpt>
      <trkpt lat="47.542206" lon="1.7761632">
        <ele>148</ele>
        <time>2022-03-17T09:25:07.000Z</time>
      </trkpt>
      <trkpt lat="47.542194" lon="1.7761546">
        <ele>148</ele>
        <time>2022-03-17T09:25:08.000Z</time>
      </trkpt>
      <trkpt lat="47.542187" lon="1.7761455">
        <ele>149</ele>
        <time>2022-03-17T09:25:09.000Z</time>
      </trkpt>
      <trkpt lat="47.542175" lon="1.7761378">
        <ele>149</ele>
        <time>2022-03-17T09:25:10.000Z</time>
      </trkpt>
      <trkpt lat="47.542168" lon="1.7761257">
        <ele>149</ele>
        <time>2022-03-17T09:25:11.000Z</time>
      </trkpt>
      <trkpt lat="47.542164" lon="1.7761093">
        <ele>149</ele>
        <time>2022-03-17T09:25:12.000Z</time>
      </trkpt>
      <trkpt lat="47.542156" lon="1.7760913">
        <ele>149</ele>
        <time>2022-03-17T09:25:13.000Z</time>
      </trkpt>
      <trkpt lat="47.542152" lon="1.7760756">
        <ele>149</ele>
        <time>2022-03-17T09:25:14.000Z</time>
      </trkpt>
      <trkpt lat="47.54214" lon="1.7760597">
        <ele>148</ele>
        <time>2022-03-17T09:25:15.000Z</time>
      </trkpt>
      <trkpt lat="47.542126" lon="1.7760448">
        <ele>148</ele>
        <time>2022-03-17T09:25:16.000Z</time>
      </trkpt>
      <trkpt lat="47.542103" lon="1.7760217">
        <ele>148</ele>
        <time>2022-03-17T09:25:18.000Z</time>
      </trkpt>
      <trkpt lat="47.5421" lon="1.776011">
        <ele>148</ele>
        <time>2022-03-17T09:25:19.000Z</time>
      </trkpt>
      <trkpt lat="47.542088" lon="1.7759955">
        <ele>149</ele>
        <time>2022-03-17T09:25:20.000Z</time>
      </trkpt>
      <trkpt lat="47.542076" lon="1.7759829">
        <ele>149</ele>
        <time>2022-03-17T09:25:21.000Z</time>
      </trkpt>
      <trkpt lat="47.54207" lon="1.7759689">
        <ele>149</ele>
        <time>2022-03-17T09:25:22.000Z</time>
      </trkpt>
      <trkpt lat="47.542057" lon="1.7759567">
        <ele>149</ele>
        <time>2022-03-17T09:25:23.000Z</time>
      </trkpt>
      <trkpt lat="47.542046" lon="1.7759427">
        <ele>149</ele>
        <time>2022-03-17T09:25:24.000Z</time>
      </trkpt>
      <trkpt lat="47.542034" lon="1.7759314">
        <ele>149</ele>
        <time>2022-03-17T09:25:25.000Z</time>
      </trkpt>
      <trkpt lat="47.542023" lon="1.7759172">
        <ele>149</ele>
        <time>2022-03-17T09:25:26.000Z</time>
      </trkpt>
      <trkpt lat="47.54201" lon="1.775904">
        <ele>149</ele>
        <time>2022-03-17T09:25:27.000Z</time>
      </trkpt>
      <trkpt lat="47.542004" lon="1.7758892">
        <ele>149</ele>
        <time>2022-03-17T09:25:28.000Z</time>
      </trkpt>
      <trkpt lat="47.541996" lon="1.7758756">
        <ele>149</ele>
        <time>2022-03-17T09:25:29.000Z</time>
      </trkpt>
      <trkpt lat="47.541992" lon="1.7758636">
        <ele>150</ele>
        <time>2022-03-17T09:25:30.000Z</time>
      </trkpt>
      <trkpt lat="47.541985" lon="1.7758493">
        <ele>149</ele>
        <time>2022-03-17T09:25:31.000Z</time>
      </trkpt>
      <trkpt lat="47.541977" lon="1.7758402">
        <ele>149</ele>
        <time>2022-03-17T09:25:32.000Z</time>
      </trkpt>
      <trkpt lat="47.541965" lon="1.7758296">
        <ele>149</ele>
        <time>2022-03-17T09:25:33.000Z</time>
      </trkpt>
      <trkpt lat="47.541958" lon="1.7758131">
        <ele>149</ele>
        <time>2022-03-17T09:25:34.000Z</time>
      </trkpt>
      <trkpt lat="47.54195" lon="1.7758013">
        <ele>149</ele>
        <time>2022-03-17T09:25:35.000Z</time>
      </trkpt>
      <trkpt lat="47.541943" lon="1.7757863">
        <ele>149</ele>
        <time>2022-03-17T09:25:36.000Z</time>
      </trkpt>
      <trkpt lat="47.541924" lon="1.7757536">
        <ele>149</ele>
        <time>2022-03-17T09:25:37.000Z</time>
      </trkpt>
      <trkpt lat="47.541924" lon="1.7757536">
        <ele>149</ele>
        <time>2022-03-17T09:25:37.000Z</time>
      </trkpt>
      <trkpt lat="47.541916" lon="1.7757381">
        <ele>149</ele>
        <time>2022-03-17T09:25:39.000Z</time>
      </trkpt>
      <trkpt lat="47.54191" lon="1.7757196">
        <ele>149</ele>
        <time>2022-03-17T09:25:40.000Z</time>
      </trkpt>
      <trkpt lat="47.5419" lon="1.7757041">
        <ele>149</ele>
        <time>2022-03-17T09:25:41.000Z</time>
      </trkpt>
      <trkpt lat="47.54189" lon="1.7756909">
        <ele>148</ele>
        <time>2022-03-17T09:25:42.000Z</time>
      </trkpt>
      <trkpt lat="47.54188" lon="1.7756785">
        <ele>149</ele>
        <time>2022-03-17T09:25:43.000Z</time>
      </trkpt>
      <trkpt lat="47.541874" lon="1.7756654">
        <ele>149</ele>
        <time>2022-03-17T09:25:44.000Z</time>
      </trkpt>
      <trkpt lat="47.541862" lon="1.7756509">
        <ele>149</ele>
        <time>2022-03-17T09:25:45.000Z</time>
      </trkpt>
      <trkpt lat="47.54185" lon="1.77564">
        <ele>149</ele>
        <time>2022-03-17T09:25:46.000Z</time>
      </trkpt>
      <trkpt lat="47.541843" lon="1.775625">
        <ele>149</ele>
        <time>2022-03-17T09:25:47.000Z</time>
      </trkpt>
      <trkpt lat="47.541832" lon="1.7756149">
        <ele>149</ele>
        <time>2022-03-17T09:25:48.000Z</time>
      </trkpt>
      <trkpt lat="47.541824" lon="1.7756002">
        <ele>149</ele>
        <time>2022-03-17T09:25:49.000Z</time>
      </trkpt>
      <trkpt lat="47.54182" lon="1.7755861">
        <ele>149</ele>
        <time>2022-03-17T09:25:50.000Z</time>
      </trkpt>
      <trkpt lat="47.541813" lon="1.7755741">
        <ele>149</ele>
        <time>2022-03-17T09:25:51.000Z</time>
      </trkpt>
      <trkpt lat="47.541805" lon="1.7755635">
        <ele>149</ele>
        <time>2022-03-17T09:25:52.000Z</time>
      </trkpt>
      <trkpt lat="47.5418" lon="1.7755487">
        <ele>149</ele>
        <time>2022-03-17T09:25:53.000Z</time>
      </trkpt>
      <trkpt lat="47.54179" lon="1.7755345">
        <ele>149</ele>
        <time>2022-03-17T09:25:54.000Z</time>
      </trkpt>
      <trkpt lat="47.541786" lon="1.7755214">
        <ele>149</ele>
        <time>2022-03-17T09:25:55.000Z</time>
      </trkpt>
      <trkpt lat="47.541775" lon="1.775515">
        <ele>148</ele>
        <time>2022-03-17T09:25:56.000Z</time>
      </trkpt>
      <trkpt lat="47.541775" lon="1.775515">
        <ele>148</ele>
        <time>2022-03-17T09:25:56.000Z</time>
      </trkpt>
      <trkpt lat="47.541775" lon="1.7755146">
        <ele>148</ele>
        <time>2022-03-17T09:25:58.000Z</time>
      </trkpt>
      <trkpt lat="47.541763" lon="1.7755082">
        <ele>148</ele>
        <time>2022-03-17T09:25:59.000Z</time>
      </trkpt>
      <trkpt lat="47.541756" lon="1.7754958">
        <ele>148</ele>
        <time>2022-03-17T09:26:00.000Z</time>
      </trkpt>
      <trkpt lat="47.541744" lon="1.775483">
        <ele>148</ele>
        <time>2022-03-17T09:26:01.000Z</time>
      </trkpt>
      <trkpt lat="47.541733" lon="1.7754731">
        <ele>148</ele>
        <time>2022-03-17T09:26:02.000Z</time>
      </trkpt>
      <trkpt lat="47.541725" lon="1.7754577">
        <ele>148</ele>
        <time>2022-03-17T09:26:03.000Z</time>
      </trkpt>
      <trkpt lat="47.541718" lon="1.775441">
        <ele>148</ele>
        <time>2022-03-17T09:26:04.000Z</time>
      </trkpt>
      <trkpt lat="47.54171" lon="1.7754257">
        <ele>148</ele>
        <time>2022-03-17T09:26:05.000Z</time>
      </trkpt>
      <trkpt lat="47.541702" lon="1.7754093">
        <ele>149</ele>
        <time>2022-03-17T09:26:06.000Z</time>
      </trkpt>
      <trkpt lat="47.5417" lon="1.7753906">
        <ele>149</ele>
        <time>2022-03-17T09:26:07.000Z</time>
      </trkpt>
      <trkpt lat="47.541687" lon="1.7753738">
        <ele>149</ele>
        <time>2022-03-17T09:26:08.000Z</time>
      </trkpt>
      <trkpt lat="47.54168" lon="1.7753636">
        <ele>149</ele>
        <time>2022-03-17T09:26:09.000Z</time>
      </trkpt>
      <trkpt lat="47.541656" lon="1.7753396">
        <ele>149</ele>
        <time>2022-03-17T09:26:10.000Z</time>
      </trkpt>
      <trkpt lat="47.541645" lon="1.7753317">
        <ele>149</ele>
        <time>2022-03-17T09:26:11.000Z</time>
      </trkpt>
      <trkpt lat="47.54163" lon="1.7753217">
        <ele>149</ele>
        <time>2022-03-17T09:26:12.000Z</time>
      </trkpt>
      <trkpt lat="47.541622" lon="1.775309">
        <ele>149</ele>
        <time>2022-03-17T09:26:13.000Z</time>
      </trkpt>
      <trkpt lat="47.541622" lon="1.775309">
        <ele>149</ele>
        <time>2022-03-17T09:26:13.000Z</time>
      </trkpt>
      <trkpt lat="47.54161" lon="1.7752736">
        <ele>148</ele>
        <time>2022-03-17T09:26:15.000Z</time>
      </trkpt>
      <trkpt lat="47.541603" lon="1.7752615">
        <ele>148</ele>
        <time>2022-03-17T09:26:16.000Z</time>
      </trkpt>
      <trkpt lat="47.54159" lon="1.7752453">
        <ele>148</ele>
        <time>2022-03-17T09:26:17.000Z</time>
      </trkpt>
      <trkpt lat="47.54158" lon="1.7752261">
        <ele>148</ele>
        <time>2022-03-17T09:26:18.000Z</time>
      </trkpt>
      <trkpt lat="47.54157" lon="1.7752105">
        <ele>149</ele>
        <time>2022-03-17T09:26:19.000Z</time>
      </trkpt>
      <trkpt lat="47.54157" lon="1.7752105">
        <ele>149</ele>
        <time>2022-03-17T09:26:19.000Z</time>
      </trkpt>
      <trkpt lat="47.541557" lon="1.7751994">
        <ele>148</ele>
        <time>2022-03-17T09:26:21.000Z</time>
      </trkpt>
      <trkpt lat="47.541546" lon="1.7751857">
        <ele>148</ele>
        <time>2022-03-17T09:26:22.000Z</time>
      </trkpt>
      <trkpt lat="47.541534" lon="1.7751757">
        <ele>148</ele>
        <time>2022-03-17T09:26:23.000Z</time>
      </trkpt>
      <trkpt lat="47.541527" lon="1.7751629">
        <ele>147</ele>
        <time>2022-03-17T09:26:24.000Z</time>
      </trkpt>
      <trkpt lat="47.541515" lon="1.7751479">
        <ele>147</ele>
        <time>2022-03-17T09:26:25.000Z</time>
      </trkpt>
      <trkpt lat="47.5415" lon="1.7751186">
        <ele>147</ele>
        <time>2022-03-17T09:26:26.000Z</time>
      </trkpt>
      <trkpt lat="47.5415" lon="1.7751186">
        <ele>147</ele>
        <time>2022-03-17T09:26:26.000Z</time>
      </trkpt>
      <trkpt lat="47.54149" lon="1.775104">
        <ele>147</ele>
        <time>2022-03-17T09:26:28.000Z</time>
      </trkpt>
      <trkpt lat="47.54148" lon="1.7750869">
        <ele>147</ele>
        <time>2022-03-17T09:26:29.000Z</time>
      </trkpt>
      <trkpt lat="47.54147" lon="1.7750671">
        <ele>147</ele>
        <time>2022-03-17T09:26:30.000Z</time>
      </trkpt>
      <trkpt lat="47.541462" lon="1.775052">
        <ele>147</ele>
        <time>2022-03-17T09:26:31.000Z</time>
      </trkpt>
      <trkpt lat="47.54145" lon="1.7750356">
        <ele>147</ele>
        <time>2022-03-17T09:26:32.000Z</time>
      </trkpt>
      <trkpt lat="47.54144" lon="1.7750218">
        <ele>147</ele>
        <time>2022-03-17T09:26:33.000Z</time>
      </trkpt>
      <trkpt lat="47.541424" lon="1.7749879">
        <ele>147</ele>
        <time>2022-03-17T09:26:34.000Z</time>
      </trkpt>
      <trkpt lat="47.541424" lon="1.7749879">
        <ele>147</ele>
        <time>2022-03-17T09:26:34.000Z</time>
      </trkpt>
      <trkpt lat="47.541412" lon="1.7749686">
        <ele>147</ele>
        <time>2022-03-17T09:26:36.000Z</time>
      </trkpt>
      <trkpt lat="47.541405" lon="1.77495">
        <ele>147</ele>
        <time>2022-03-17T09:26:37.000Z</time>
      </trkpt>
      <trkpt lat="47.541393" lon="1.7749316">
        <ele>147</ele>
        <time>2022-03-17T09:26:38.000Z</time>
      </trkpt>
      <trkpt lat="47.54139" lon="1.7749125">
        <ele>147</ele>
        <time>2022-03-17T09:26:39.000Z</time>
      </trkpt>
      <trkpt lat="47.541378" lon="1.774896">
        <ele>147</ele>
        <time>2022-03-17T09:26:40.000Z</time>
      </trkpt>
      <trkpt lat="47.541363" lon="1.7748623">
        <ele>147</ele>
        <time>2022-03-17T09:26:41.000Z</time>
      </trkpt>
      <trkpt lat="47.541363" lon="1.7748623">
        <ele>147</ele>
        <time>2022-03-17T09:26:41.000Z</time>
      </trkpt>
      <trkpt lat="47.541355" lon="1.7748456">
        <ele>147</ele>
        <time>2022-03-17T09:26:43.000Z</time>
      </trkpt>
      <trkpt lat="47.54135" lon="1.7748274">
        <ele>147</ele>
        <time>2022-03-17T09:26:44.000Z</time>
      </trkpt>
      <trkpt lat="47.541344" lon="1.7748123">
        <ele>147</ele>
        <time>2022-03-17T09:26:45.000Z</time>
      </trkpt>
      <trkpt lat="47.54133" lon="1.7747782">
        <ele>148</ele>
        <time>2022-03-17T09:26:46.000Z</time>
      </trkpt>
      <trkpt lat="47.54133" lon="1.7747782">
        <ele>148</ele>
        <time>2022-03-17T09:26:46.000Z</time>
      </trkpt>
      <trkpt lat="47.541325" lon="1.7747645">
        <ele>148</ele>
        <time>2022-03-17T09:26:48.000Z</time>
      </trkpt>
      <trkpt lat="47.54131" lon="1.7747278">
        <ele>148</ele>
        <time>2022-03-17T09:26:49.000Z</time>
      </trkpt>
      <trkpt lat="47.54131" lon="1.7747278">
        <ele>148</ele>
        <time>2022-03-17T09:26:49.000Z</time>
      </trkpt>
      <trkpt lat="47.541306" lon="1.7747115">
        <ele>148</ele>
        <time>2022-03-17T09:26:51.000Z</time>
      </trkpt>
      <trkpt lat="47.5413" lon="1.7746941">
        <ele>148</ele>
        <time>2022-03-17T09:26:52.000Z</time>
      </trkpt>
      <trkpt lat="47.541298" lon="1.7746742">
        <ele>148</ele>
        <time>2022-03-17T09:26:53.000Z</time>
      </trkpt>
      <trkpt lat="47.54129" lon="1.7746528">
        <ele>148</ele>
        <time>2022-03-17T09:26:54.000Z</time>
      </trkpt>
      <trkpt lat="47.541283" lon="1.7746325">
        <ele>148</ele>
        <time>2022-03-17T09:26:55.000Z</time>
      </trkpt>
      <trkpt lat="47.54128" lon="1.7746141">
        <ele>148</ele>
        <time>2022-03-17T09:26:56.000Z</time>
      </trkpt>
      <trkpt lat="47.54127" lon="1.7745944">
        <ele>148</ele>
        <time>2022-03-17T09:26:57.000Z</time>
      </trkpt>
      <trkpt lat="47.541264" lon="1.7745762">
        <ele>148</ele>
        <time>2022-03-17T09:26:58.000Z</time>
      </trkpt>
      <trkpt lat="47.54125" lon="1.7745426">
        <ele>148</ele>
        <time>2022-03-17T09:26:59.000Z</time>
      </trkpt>
      <trkpt lat="47.54125" lon="1.7745426">
        <ele>148</ele>
        <time>2022-03-17T09:26:59.000Z</time>
      </trkpt>
      <trkpt lat="47.541245" lon="1.7745254">
        <ele>149</ele>
        <time>2022-03-17T09:27:01.000Z</time>
      </trkpt>
      <trkpt lat="47.541237" lon="1.7745082">
        <ele>149</ele>
        <time>2022-03-17T09:27:02.000Z</time>
      </trkpt>
      <trkpt lat="47.541225" lon="1.7744699">
        <ele>149</ele>
        <time>2022-03-17T09:27:03.000Z</time>
      </trkpt>
      <trkpt lat="47.54122" lon="1.7744529">
        <ele>149</ele>
        <time>2022-03-17T09:27:04.000Z</time>
      </trkpt>
      <trkpt lat="47.541214" lon="1.7744367">
        <ele>149</ele>
        <time>2022-03-17T09:27:05.000Z</time>
      </trkpt>
      <trkpt lat="47.54121" lon="1.7744155">
        <ele>150</ele>
        <time>2022-03-17T09:27:06.000Z</time>
      </trkpt>
      <trkpt lat="47.54121" lon="1.7744155">
        <ele>150</ele>
        <time>2022-03-17T09:27:06.000Z</time>
      </trkpt>
      <trkpt lat="47.541203" lon="1.7743979">
        <ele>149</ele>
        <time>2022-03-17T09:27:08.000Z</time>
      </trkpt>
      <trkpt lat="47.5412" lon="1.7743807">
        <ele>149</ele>
        <time>2022-03-17T09:27:09.000Z</time>
      </trkpt>
      <trkpt lat="47.54119" lon="1.7743638">
        <ele>149</ele>
        <time>2022-03-17T09:27:10.000Z</time>
      </trkpt>
      <trkpt lat="47.54118" lon="1.7743269">
        <ele>149</ele>
        <time>2022-03-17T09:27:11.000Z</time>
      </trkpt>
      <trkpt lat="47.541176" lon="1.7743074">
        <ele>149</ele>
        <time>2022-03-17T09:27:12.000Z</time>
      </trkpt>
      <trkpt lat="47.541176" lon="1.7743074">
        <ele>149</ele>
        <time>2022-03-17T09:27:12.000Z</time>
      </trkpt>
      <trkpt lat="47.541172" lon="1.7742884">
        <ele>149</ele>
        <time>2022-03-17T09:27:14.000Z</time>
      </trkpt>
      <trkpt lat="47.541157" lon="1.7742497">
        <ele>150</ele>
        <time>2022-03-17T09:27:15.000Z</time>
      </trkpt>
      <trkpt lat="47.541157" lon="1.7742497">
        <ele>150</ele>
        <time>2022-03-17T09:27:15.000Z</time>
      </trkpt>
      <trkpt lat="47.54115" lon="1.7742133">
        <ele>150</ele>
        <time>2022-03-17T09:27:17.000Z</time>
      </trkpt>
      <trkpt lat="47.54115" lon="1.7742133">
        <ele>150</ele>
        <time>2022-03-17T09:27:17.000Z</time>
      </trkpt>
      <trkpt lat="47.541145" lon="1.7741961">
        <ele>150</ele>
        <time>2022-03-17T09:27:19.000Z</time>
      </trkpt>
      <trkpt lat="47.54113" lon="1.7741638">
        <ele>150</ele>
        <time>2022-03-17T09:27:20.000Z</time>
      </trkpt>
      <trkpt lat="47.54113" lon="1.7741638">
        <ele>150</ele>
        <time>2022-03-17T09:27:20.000Z</time>
      </trkpt>
      <trkpt lat="47.54112" lon="1.7741318">
        <ele>150</ele>
        <time>2022-03-17T09:27:22.000Z</time>
      </trkpt>
      <trkpt lat="47.54111" lon="1.774118">
        <ele>150</ele>
        <time>2022-03-17T09:27:23.000Z</time>
      </trkpt>
      <trkpt lat="47.541103" lon="1.7741021">
        <ele>150</ele>
        <time>2022-03-17T09:27:24.000Z</time>
      </trkpt>
      <trkpt lat="47.5411" lon="1.7740871">
        <ele>150</ele>
        <time>2022-03-17T09:27:25.000Z</time>
      </trkpt>
      <trkpt lat="47.541096" lon="1.7740715">
        <ele>149</ele>
        <time>2022-03-17T09:27:26.000Z</time>
      </trkpt>
      <trkpt lat="47.541092" lon="1.7740468">
        <ele>149</ele>
        <time>2022-03-17T09:27:27.000Z</time>
      </trkpt>
      <trkpt lat="47.541084" lon="1.7740294">
        <ele>149</ele>
        <time>2022-03-17T09:27:28.000Z</time>
      </trkpt>
      <trkpt lat="47.54108" lon="1.7740109">
        <ele>149</ele>
        <time>2022-03-17T09:27:29.000Z</time>
      </trkpt>
      <trkpt lat="47.54108" lon="1.7739935">
        <ele>149</ele>
        <time>2022-03-17T09:27:30.000Z</time>
      </trkpt>
      <trkpt lat="47.54108" lon="1.7739935">
        <ele>149</ele>
        <time>2022-03-17T09:27:30.000Z</time>
      </trkpt>
      <trkpt lat="47.541073" lon="1.7739578">
        <ele>149</ele>
        <time>2022-03-17T09:27:32.000Z</time>
      </trkpt>
      <trkpt lat="47.54107" lon="1.7739418">
        <ele>149</ele>
        <time>2022-03-17T09:27:33.000Z</time>
      </trkpt>
      <trkpt lat="47.54107" lon="1.7739418">
        <ele>149</ele>
        <time>2022-03-17T09:27:33.000Z</time>
      </trkpt>
      <trkpt lat="47.541058" lon="1.7739081">
        <ele>149</ele>
        <time>2022-03-17T09:27:35.000Z</time>
      </trkpt>
      <trkpt lat="47.541054" lon="1.7738909">
        <ele>149</ele>
        <time>2022-03-17T09:27:36.000Z</time>
      </trkpt>
      <trkpt lat="47.541046" lon="1.7738788">
        <ele>150</ele>
        <time>2022-03-17T09:27:37.000Z</time>
      </trkpt>
      <trkpt lat="47.54104" lon="1.7738624">
        <ele>150</ele>
        <time>2022-03-17T09:27:38.000Z</time>
      </trkpt>
      <trkpt lat="47.54103" lon="1.7738447">
        <ele>150</ele>
        <time>2022-03-17T09:27:39.000Z</time>
      </trkpt>
      <trkpt lat="47.541027" lon="1.7738271">
        <ele>149</ele>
        <time>2022-03-17T09:27:40.000Z</time>
      </trkpt>
      <trkpt lat="47.54102" lon="1.7738074">
        <ele>149</ele>
        <time>2022-03-17T09:27:41.000Z</time>
      </trkpt>
      <trkpt lat="47.541016" lon="1.773789">
        <ele>149</ele>
        <time>2022-03-17T09:27:42.000Z</time>
      </trkpt>
      <trkpt lat="47.541008" lon="1.773774">
        <ele>149</ele>
        <time>2022-03-17T09:27:43.000Z</time>
      </trkpt>
      <trkpt lat="47.541004" lon="1.7737565">
        <ele>149</ele>
        <time>2022-03-17T09:27:44.000Z</time>
      </trkpt>
      <trkpt lat="47.540997" lon="1.773739">
        <ele>149</ele>
        <time>2022-03-17T09:27:45.000Z</time>
      </trkpt>
      <trkpt lat="47.540985" lon="1.7737211">
        <ele>149</ele>
        <time>2022-03-17T09:27:46.000Z</time>
      </trkpt>
      <trkpt lat="47.54098" lon="1.7737026">
        <ele>149</ele>
        <time>2022-03-17T09:27:47.000Z</time>
      </trkpt>
      <trkpt lat="47.540977" lon="1.7736838">
        <ele>149</ele>
        <time>2022-03-17T09:27:48.000Z</time>
      </trkpt>
      <trkpt lat="47.540977" lon="1.7736651">
        <ele>149</ele>
        <time>2022-03-17T09:27:49.000Z</time>
      </trkpt>
      <trkpt lat="47.54097" lon="1.7736489">
        <ele>149</ele>
        <time>2022-03-17T09:27:50.000Z</time>
      </trkpt>
      <trkpt lat="47.540962" lon="1.7736306">
        <ele>150</ele>
        <time>2022-03-17T09:27:51.000Z</time>
      </trkpt>
      <trkpt lat="47.54096" lon="1.7736107">
        <ele>150</ele>
        <time>2022-03-17T09:27:52.000Z</time>
      </trkpt>
      <trkpt lat="47.54095" lon="1.7735927">
        <ele>150</ele>
        <time>2022-03-17T09:27:53.000Z</time>
      </trkpt>
      <trkpt lat="47.540947" lon="1.7735782">
        <ele>149</ele>
        <time>2022-03-17T09:27:54.000Z</time>
      </trkpt>
      <trkpt lat="47.54094" lon="1.7735614">
        <ele>149</ele>
        <time>2022-03-17T09:27:55.000Z</time>
      </trkpt>
      <trkpt lat="47.54093" lon="1.773544">
        <ele>149</ele>
        <time>2022-03-17T09:27:56.000Z</time>
      </trkpt>
      <trkpt lat="47.540928" lon="1.7735305">
        <ele>149</ele>
        <time>2022-03-17T09:27:57.000Z</time>
      </trkpt>
      <trkpt lat="47.54092" lon="1.7735153">
        <ele>150</ele>
        <time>2022-03-17T09:27:58.000Z</time>
      </trkpt>
      <trkpt lat="47.540913" lon="1.7735027">
        <ele>150</ele>
        <time>2022-03-17T09:27:59.000Z</time>
      </trkpt>
      <trkpt lat="47.54091" lon="1.7734865">
        <ele>150</ele>
        <time>2022-03-17T09:28:00.000Z</time>
      </trkpt>
      <trkpt lat="47.5409" lon="1.7734745">
        <ele>150</ele>
        <time>2022-03-17T09:28:01.000Z</time>
      </trkpt>
      <trkpt lat="47.540894" lon="1.7734616">
        <ele>149</ele>
        <time>2022-03-17T09:28:02.000Z</time>
      </trkpt>
      <trkpt lat="47.540886" lon="1.7734507">
        <ele>149</ele>
        <time>2022-03-17T09:28:03.000Z</time>
      </trkpt>
      <trkpt lat="47.54088" lon="1.7734396">
        <ele>149</ele>
        <time>2022-03-17T09:28:04.000Z</time>
      </trkpt>
      <trkpt lat="47.54087" lon="1.7734278">
        <ele>150</ele>
        <time>2022-03-17T09:28:05.000Z</time>
      </trkpt>
      <trkpt lat="47.540863" lon="1.7734139">
        <ele>150</ele>
        <time>2022-03-17T09:28:06.000Z</time>
      </trkpt>
      <trkpt lat="47.54085" lon="1.7734026">
        <ele>150</ele>
        <time>2022-03-17T09:28:07.000Z</time>
      </trkpt>
      <trkpt lat="47.54084" lon="1.773392">
        <ele>150</ele>
        <time>2022-03-17T09:28:08.000Z</time>
      </trkpt>
      <trkpt lat="47.540833" lon="1.7733841">
        <ele>150</ele>
        <time>2022-03-17T09:28:09.000Z</time>
      </trkpt>
      <trkpt lat="47.54082" lon="1.7733737">
        <ele>149</ele>
        <time>2022-03-17T09:28:10.000Z</time>
      </trkpt>
      <trkpt lat="47.540813" lon="1.773361">
        <ele>149</ele>
        <time>2022-03-17T09:28:11.000Z</time>
      </trkpt>
      <trkpt lat="47.540802" lon="1.7733475">
        <ele>149</ele>
        <time>2022-03-17T09:28:12.000Z</time>
      </trkpt>
      <trkpt lat="47.540794" lon="1.773337">
        <ele>149</ele>
        <time>2022-03-17T09:28:13.000Z</time>
      </trkpt>
      <trkpt lat="47.540787" lon="1.7733208">
        <ele>149</ele>
        <time>2022-03-17T09:28:14.000Z</time>
      </trkpt>
      <trkpt lat="47.540775" lon="1.7733071">
        <ele>150</ele>
        <time>2022-03-17T09:28:15.000Z</time>
      </trkpt>
      <trkpt lat="47.540768" lon="1.7732943">
        <ele>150</ele>
        <time>2022-03-17T09:28:16.000Z</time>
      </trkpt>
      <trkpt lat="47.540752" lon="1.7732863">
        <ele>149</ele>
        <time>2022-03-17T09:28:17.000Z</time>
      </trkpt>
      <trkpt lat="47.540737" lon="1.773278">
        <ele>149</ele>
        <time>2022-03-17T09:28:18.000Z</time>
      </trkpt>
      <trkpt lat="47.54073" lon="1.7732692">
        <ele>149</ele>
        <time>2022-03-17T09:28:19.000Z</time>
      </trkpt>
      <trkpt lat="47.540718" lon="1.7732613">
        <ele>148</ele>
        <time>2022-03-17T09:28:20.000Z</time>
      </trkpt>
      <trkpt lat="47.54071" lon="1.7732536">
        <ele>149</ele>
        <time>2022-03-17T09:28:21.000Z</time>
      </trkpt>
      <trkpt lat="47.5407" lon="1.7732465">
        <ele>148</ele>
        <time>2022-03-17T09:28:22.000Z</time>
      </trkpt>
      <trkpt lat="47.54069" lon="1.7732323">
        <ele>148</ele>
        <time>2022-03-17T09:28:23.000Z</time>
      </trkpt>
      <trkpt lat="47.540684" lon="1.7732229">
        <ele>148</ele>
        <time>2022-03-17T09:28:24.000Z</time>
      </trkpt>
      <trkpt lat="47.540676" lon="1.7732091">
        <ele>148</ele>
        <time>2022-03-17T09:28:25.000Z</time>
      </trkpt>
      <trkpt lat="47.540676" lon="1.7731922">
        <ele>148</ele>
        <time>2022-03-17T09:28:26.000Z</time>
      </trkpt>
      <trkpt lat="47.540672" lon="1.7731767">
        <ele>147</ele>
        <time>2022-03-17T09:28:27.000Z</time>
      </trkpt>
      <trkpt lat="47.540672" lon="1.7731633">
        <ele>148</ele>
        <time>2022-03-17T09:28:28.000Z</time>
      </trkpt>
      <trkpt lat="47.540676" lon="1.773146">
        <ele>148</ele>
        <time>2022-03-17T09:28:29.000Z</time>
      </trkpt>
      <trkpt lat="47.54068" lon="1.7731286">
        <ele>148</ele>
        <time>2022-03-17T09:28:30.000Z</time>
      </trkpt>
      <trkpt lat="47.540684" lon="1.7731142">
        <ele>148</ele>
        <time>2022-03-17T09:28:31.000Z</time>
      </trkpt>
      <trkpt lat="47.540688" lon="1.7731038">
        <ele>148</ele>
        <time>2022-03-17T09:28:32.000Z</time>
      </trkpt>
      <trkpt lat="47.54069" lon="1.773083">
        <ele>148</ele>
        <time>2022-03-17T09:28:33.000Z</time>
      </trkpt>
      <trkpt lat="47.5407" lon="1.7730656">
        <ele>149</ele>
        <time>2022-03-17T09:28:34.000Z</time>
      </trkpt>
      <trkpt lat="47.540703" lon="1.7730494">
        <ele>148</ele>
        <time>2022-03-17T09:28:35.000Z</time>
      </trkpt>
      <trkpt lat="47.54071" lon="1.7730331">
        <ele>148</ele>
        <time>2022-03-17T09:28:36.000Z</time>
      </trkpt>
      <trkpt lat="47.540718" lon="1.7730185">
        <ele>148</ele>
        <time>2022-03-17T09:28:37.000Z</time>
      </trkpt>
      <trkpt lat="47.54072" lon="1.773003">
        <ele>149</ele>
        <time>2022-03-17T09:28:38.000Z</time>
      </trkpt>
      <trkpt lat="47.540726" lon="1.7729892">
        <ele>148</ele>
        <time>2022-03-17T09:28:39.000Z</time>
      </trkpt>
      <trkpt lat="47.54073" lon="1.7729776">
        <ele>148</ele>
        <time>2022-03-17T09:28:40.000Z</time>
      </trkpt>
      <trkpt lat="47.54073" lon="1.7729629">
        <ele>149</ele>
        <time>2022-03-17T09:28:41.000Z</time>
      </trkpt>
      <trkpt lat="47.540733" lon="1.772943">
        <ele>148</ele>
        <time>2022-03-17T09:28:42.000Z</time>
      </trkpt>
      <trkpt lat="47.540737" lon="1.7729305">
        <ele>148</ele>
        <time>2022-03-17T09:28:43.000Z</time>
      </trkpt>
      <trkpt lat="47.540745" lon="1.77292">
        <ele>148</ele>
        <time>2022-03-17T09:28:44.000Z</time>
      </trkpt>
      <trkpt lat="47.54075" lon="1.7729043">
        <ele>147</ele>
        <time>2022-03-17T09:28:45.000Z</time>
      </trkpt>
      <trkpt lat="47.540756" lon="1.7728854">
        <ele>148</ele>
        <time>2022-03-17T09:28:46.000Z</time>
      </trkpt>
      <trkpt lat="47.54076" lon="1.7728726">
        <ele>148</ele>
        <time>2022-03-17T09:28:47.000Z</time>
      </trkpt>
      <trkpt lat="47.540768" lon="1.7728597">
        <ele>148</ele>
        <time>2022-03-17T09:28:48.000Z</time>
      </trkpt>
      <trkpt lat="47.54077" lon="1.7728474">
        <ele>148</ele>
        <time>2022-03-17T09:28:49.000Z</time>
      </trkpt>
      <trkpt lat="47.540775" lon="1.7728344">
        <ele>148</ele>
        <time>2022-03-17T09:28:50.000Z</time>
      </trkpt>
      <trkpt lat="47.540783" lon="1.772824">
        <ele>148</ele>
        <time>2022-03-17T09:28:51.000Z</time>
      </trkpt>
      <trkpt lat="47.54078" lon="1.7728097">
        <ele>149</ele>
        <time>2022-03-17T09:28:52.000Z</time>
      </trkpt>
      <trkpt lat="47.540783" lon="1.7727954">
        <ele>149</ele>
        <time>2022-03-17T09:28:53.000Z</time>
      </trkpt>
      <trkpt lat="47.540783" lon="1.77278">
        <ele>149</ele>
        <time>2022-03-17T09:28:54.000Z</time>
      </trkpt>
      <trkpt lat="47.540787" lon="1.7727616">
        <ele>149</ele>
        <time>2022-03-17T09:28:55.000Z</time>
      </trkpt>
      <trkpt lat="47.54079" lon="1.7727435">
        <ele>149</ele>
        <time>2022-03-17T09:28:56.000Z</time>
      </trkpt>
      <trkpt lat="47.540794" lon="1.7727256">
        <ele>149</ele>
        <time>2022-03-17T09:28:57.000Z</time>
      </trkpt>
      <trkpt lat="47.540802" lon="1.7727073">
        <ele>149</ele>
        <time>2022-03-17T09:28:58.000Z</time>
      </trkpt>
      <trkpt lat="47.540806" lon="1.7726893">
        <ele>149</ele>
        <time>2022-03-17T09:28:59.000Z</time>
      </trkpt>
      <trkpt lat="47.54081" lon="1.7726735">
        <ele>149</ele>
        <time>2022-03-17T09:29:00.000Z</time>
      </trkpt>
      <trkpt lat="47.540813" lon="1.7726576">
        <ele>149</ele>
        <time>2022-03-17T09:29:01.000Z</time>
      </trkpt>
      <trkpt lat="47.540817" lon="1.7726482">
        <ele>148</ele>
        <time>2022-03-17T09:29:02.000Z</time>
      </trkpt>
      <trkpt lat="47.54082" lon="1.7726392">
        <ele>148</ele>
        <time>2022-03-17T09:29:03.000Z</time>
      </trkpt>
      <trkpt lat="47.54082" lon="1.7726345">
        <ele>148</ele>
        <time>2022-03-17T09:29:04.000Z</time>
      </trkpt>
      <trkpt lat="47.540825" lon="1.7726245">
        <ele>148</ele>
        <time>2022-03-17T09:29:05.000Z</time>
      </trkpt>
      <trkpt lat="47.54083" lon="1.7726113">
        <ele>148</ele>
        <time>2022-03-17T09:29:06.000Z</time>
      </trkpt>
      <trkpt lat="47.540836" lon="1.7725985">
        <ele>148</ele>
        <time>2022-03-17T09:29:07.000Z</time>
      </trkpt>
      <trkpt lat="47.54084" lon="1.7725868">
        <ele>148</ele>
        <time>2022-03-17T09:29:08.000Z</time>
      </trkpt>
      <trkpt lat="47.54084" lon="1.772569">
        <ele>148</ele>
        <time>2022-03-17T09:29:09.000Z</time>
      </trkpt>
      <trkpt lat="47.540844" lon="1.7725503">
        <ele>148</ele>
        <time>2022-03-17T09:29:10.000Z</time>
      </trkpt>
      <trkpt lat="47.540848" lon="1.7725339">
        <ele>148</ele>
        <time>2022-03-17T09:29:11.000Z</time>
      </trkpt>
      <trkpt lat="47.54085" lon="1.772518">
        <ele>147</ele>
        <time>2022-03-17T09:29:12.000Z</time>
      </trkpt>
      <trkpt lat="47.54086" lon="1.7725067">
        <ele>147</ele>
        <time>2022-03-17T09:29:13.000Z</time>
      </trkpt>
      <trkpt lat="47.540863" lon="1.7724909">
        <ele>147</ele>
        <time>2022-03-17T09:29:14.000Z</time>
      </trkpt>
      <trkpt lat="47.540867" lon="1.7724774">
        <ele>146</ele>
        <time>2022-03-17T09:29:15.000Z</time>
      </trkpt>
      <trkpt lat="47.54087" lon="1.7724614">
        <ele>146</ele>
        <time>2022-03-17T09:29:16.000Z</time>
      </trkpt>
      <trkpt lat="47.540874" lon="1.7724459">
        <ele>145</ele>
        <time>2022-03-17T09:29:17.000Z</time>
      </trkpt>
      <trkpt lat="47.540882" lon="1.7724301">
        <ele>145</ele>
        <time>2022-03-17T09:29:18.000Z</time>
      </trkpt>
      <trkpt lat="47.540886" lon="1.7724159">
        <ele>145</ele>
        <time>2022-03-17T09:29:19.000Z</time>
      </trkpt>
      <trkpt lat="47.540894" lon="1.7724038">
        <ele>145</ele>
        <time>2022-03-17T09:29:20.000Z</time>
      </trkpt>
      <trkpt lat="47.540897" lon="1.7723888">
        <ele>145</ele>
        <time>2022-03-17T09:29:21.000Z</time>
      </trkpt>
      <trkpt lat="47.540905" lon="1.7723714">
        <ele>145</ele>
        <time>2022-03-17T09:29:22.000Z</time>
      </trkpt>
      <trkpt lat="47.540905" lon="1.7723556">
        <ele>145</ele>
        <time>2022-03-17T09:29:23.000Z</time>
      </trkpt>
      <trkpt lat="47.54091" lon="1.7723417">
        <ele>145</ele>
        <time>2022-03-17T09:29:24.000Z</time>
      </trkpt>
      <trkpt lat="47.54091" lon="1.7723258">
        <ele>146</ele>
        <time>2022-03-17T09:29:25.000Z</time>
      </trkpt>
      <trkpt lat="47.540913" lon="1.772309">
        <ele>146</ele>
        <time>2022-03-17T09:29:26.000Z</time>
      </trkpt>
      <trkpt lat="47.540916" lon="1.7722934">
        <ele>146</ele>
        <time>2022-03-17T09:29:27.000Z</time>
      </trkpt>
      <trkpt lat="47.540916" lon="1.7722766">
        <ele>147</ele>
        <time>2022-03-17T09:29:28.000Z</time>
      </trkpt>
      <trkpt lat="47.54092" lon="1.7722627">
        <ele>147</ele>
        <time>2022-03-17T09:29:29.000Z</time>
      </trkpt>
      <trkpt lat="47.540924" lon="1.7722485">
        <ele>147</ele>
        <time>2022-03-17T09:29:30.000Z</time>
      </trkpt>
      <trkpt lat="47.540928" lon="1.7722329">
        <ele>147</ele>
        <time>2022-03-17T09:29:31.000Z</time>
      </trkpt>
      <trkpt lat="47.54093" lon="1.7722178">
        <ele>148</ele>
        <time>2022-03-17T09:29:32.000Z</time>
      </trkpt>
      <trkpt lat="47.540936" lon="1.7722012">
        <ele>148</ele>
        <time>2022-03-17T09:29:33.000Z</time>
      </trkpt>
      <trkpt lat="47.54094" lon="1.7721858">
        <ele>147</ele>
        <time>2022-03-17T09:29:34.000Z</time>
      </trkpt>
      <trkpt lat="47.54095" lon="1.7721659">
        <ele>147</ele>
        <time>2022-03-17T09:29:35.000Z</time>
      </trkpt>
      <trkpt lat="47.540955" lon="1.7721504">
        <ele>148</ele>
        <time>2022-03-17T09:29:36.000Z</time>
      </trkpt>
      <trkpt lat="47.540962" lon="1.7721348">
        <ele>148</ele>
        <time>2022-03-17T09:29:37.000Z</time>
      </trkpt>
      <trkpt lat="47.54097" lon="1.7721193">
        <ele>148</ele>
        <time>2022-03-17T09:29:38.000Z</time>
      </trkpt>
      <trkpt lat="47.540977" lon="1.7720987">
        <ele>148</ele>
        <time>2022-03-17T09:29:39.000Z</time>
      </trkpt>
      <trkpt lat="47.54098" lon="1.7720823">
        <ele>149</ele>
        <time>2022-03-17T09:29:40.000Z</time>
      </trkpt>
      <trkpt lat="47.54099" lon="1.7720642">
        <ele>148</ele>
        <time>2022-03-17T09:29:41.000Z</time>
      </trkpt>
      <trkpt lat="47.540997" lon="1.7720473">
        <ele>149</ele>
        <time>2022-03-17T09:29:42.000Z</time>
      </trkpt>
      <trkpt lat="47.541" lon="1.7720292">
        <ele>149</ele>
        <time>2022-03-17T09:29:43.000Z</time>
      </trkpt>
      <trkpt lat="47.541008" lon="1.7720085">
        <ele>149</ele>
        <time>2022-03-17T09:29:44.000Z</time>
      </trkpt>
      <trkpt lat="47.54101" lon="1.7719901">
        <ele>149</ele>
        <time>2022-03-17T09:29:45.000Z</time>
      </trkpt>
      <trkpt lat="47.541016" lon="1.7719734">
        <ele>149</ele>
        <time>2022-03-17T09:29:46.000Z</time>
      </trkpt>
      <trkpt lat="47.541023" lon="1.7719538">
        <ele>149</ele>
        <time>2022-03-17T09:29:47.000Z</time>
      </trkpt>
      <trkpt lat="47.541027" lon="1.7719357">
        <ele>149</ele>
        <time>2022-03-17T09:29:48.000Z</time>
      </trkpt>
      <trkpt lat="47.54103" lon="1.7719194">
        <ele>149</ele>
        <time>2022-03-17T09:29:49.000Z</time>
      </trkpt>
      <trkpt lat="47.541035" lon="1.771906">
        <ele>149</ele>
        <time>2022-03-17T09:29:50.000Z</time>
      </trkpt>
      <trkpt lat="47.541042" lon="1.771893">
        <ele>150</ele>
        <time>2022-03-17T09:29:51.000Z</time>
      </trkpt>
      <trkpt lat="47.541046" lon="1.771879">
        <ele>150</ele>
        <time>2022-03-17T09:29:52.000Z</time>
      </trkpt>
      <trkpt lat="47.541054" lon="1.7718638">
        <ele>150</ele>
        <time>2022-03-17T09:29:53.000Z</time>
      </trkpt>
      <trkpt lat="47.541058" lon="1.771847">
        <ele>150</ele>
        <time>2022-03-17T09:29:54.000Z</time>
      </trkpt>
      <trkpt lat="47.54106" lon="1.7718258">
        <ele>150</ele>
        <time>2022-03-17T09:29:55.000Z</time>
      </trkpt>
      <trkpt lat="47.541065" lon="1.771809">
        <ele>150</ele>
        <time>2022-03-17T09:29:56.000Z</time>
      </trkpt>
      <trkpt lat="47.54107" lon="1.7717946">
        <ele>150</ele>
        <time>2022-03-17T09:29:57.000Z</time>
      </trkpt>
      <trkpt lat="47.541073" lon="1.7717774">
        <ele>150</ele>
        <time>2022-03-17T09:29:58.000Z</time>
      </trkpt>
      <trkpt lat="47.541073" lon="1.7717578">
        <ele>150</ele>
        <time>2022-03-17T09:29:59.000Z</time>
      </trkpt>
      <trkpt lat="47.541077" lon="1.7717438">
        <ele>150</ele>
        <time>2022-03-17T09:30:00.000Z</time>
      </trkpt>
      <trkpt lat="47.54108" lon="1.771728">
        <ele>149</ele>
        <time>2022-03-17T09:30:01.000Z</time>
      </trkpt>
      <trkpt lat="47.54109" lon="1.7717149">
        <ele>149</ele>
        <time>2022-03-17T09:30:02.000Z</time>
      </trkpt>
      <trkpt lat="47.541092" lon="1.7716993">
        <ele>149</ele>
        <time>2022-03-17T09:30:03.000Z</time>
      </trkpt>
      <trkpt lat="47.5411" lon="1.7716854">
        <ele>149</ele>
        <time>2022-03-17T09:30:04.000Z</time>
      </trkpt>
      <trkpt lat="47.541103" lon="1.7716693">
        <ele>148</ele>
        <time>2022-03-17T09:30:05.000Z</time>
      </trkpt>
      <trkpt lat="47.54111" lon="1.7716495">
        <ele>148</ele>
        <time>2022-03-17T09:30:06.000Z</time>
      </trkpt>
      <trkpt lat="47.541115" lon="1.7716334">
        <ele>148</ele>
        <time>2022-03-17T09:30:07.000Z</time>
      </trkpt>
      <trkpt lat="47.54112" lon="1.7716237">
        <ele>148</ele>
        <time>2022-03-17T09:30:08.000Z</time>
      </trkpt>
      <trkpt lat="47.541126" lon="1.7716161">
        <ele>149</ele>
        <time>2022-03-17T09:30:09.000Z</time>
      </trkpt>
      <trkpt lat="47.54113" lon="1.7716042">
        <ele>149</ele>
        <time>2022-03-17T09:30:10.000Z</time>
      </trkpt>
      <trkpt lat="47.54114" lon="1.7715888">
        <ele>149</ele>
        <time>2022-03-17T09:30:11.000Z</time>
      </trkpt>
      <trkpt lat="47.54115" lon="1.7715733">
        <ele>149</ele>
        <time>2022-03-17T09:30:12.000Z</time>
      </trkpt>
      <trkpt lat="47.541157" lon="1.7715565">
        <ele>149</ele>
        <time>2022-03-17T09:30:13.000Z</time>
      </trkpt>
      <trkpt lat="47.541164" lon="1.7715439">
        <ele>150</ele>
        <time>2022-03-17T09:30:14.000Z</time>
      </trkpt>
      <trkpt lat="47.54117" lon="1.7715374">
        <ele>151</ele>
        <time>2022-03-17T09:30:15.000Z</time>
      </trkpt>
      <trkpt lat="47.541164" lon="1.7715318">
        <ele>151</ele>
        <time>2022-03-17T09:30:16.000Z</time>
      </trkpt>
      <trkpt lat="47.541164" lon="1.7715235">
        <ele>151</ele>
        <time>2022-03-17T09:30:17.000Z</time>
      </trkpt>
      <trkpt lat="47.541157" lon="1.7715076">
        <ele>150</ele>
        <time>2022-03-17T09:30:18.000Z</time>
      </trkpt>
      <trkpt lat="47.54116" lon="1.7714854">
        <ele>150</ele>
        <time>2022-03-17T09:30:19.000Z</time>
      </trkpt>
      <trkpt lat="47.541164" lon="1.7714632">
        <ele>150</ele>
        <time>2022-03-17T09:30:20.000Z</time>
      </trkpt>
      <trkpt lat="47.541164" lon="1.771445">
        <ele>150</ele>
        <time>2022-03-17T09:30:21.000Z</time>
      </trkpt>
      <trkpt lat="47.54117" lon="1.7714335">
        <ele>150</ele>
        <time>2022-03-17T09:30:22.000Z</time>
      </trkpt>
      <trkpt lat="47.541176" lon="1.771422">
        <ele>150</ele>
        <time>2022-03-17T09:30:23.000Z</time>
      </trkpt>
      <trkpt lat="47.541183" lon="1.7714095">
        <ele>149</ele>
        <time>2022-03-17T09:30:24.000Z</time>
      </trkpt>
      <trkpt lat="47.541187" lon="1.7713972">
        <ele>149</ele>
        <time>2022-03-17T09:30:25.000Z</time>
      </trkpt>
      <trkpt lat="47.54119" lon="1.7713833">
        <ele>149</ele>
        <time>2022-03-17T09:30:26.000Z</time>
      </trkpt>
      <trkpt lat="47.5412" lon="1.7713711">
        <ele>149</ele>
        <time>2022-03-17T09:30:27.000Z</time>
      </trkpt>
      <trkpt lat="47.541203" lon="1.7713604">
        <ele>149</ele>
        <time>2022-03-17T09:30:28.000Z</time>
      </trkpt>
      <trkpt lat="47.541206" lon="1.7713501">
        <ele>149</ele>
        <time>2022-03-17T09:30:29.000Z</time>
      </trkpt>
      <trkpt lat="47.54121" lon="1.7713386">
        <ele>149</ele>
        <time>2022-03-17T09:30:30.000Z</time>
      </trkpt>
      <trkpt lat="47.541214" lon="1.7713256">
        <ele>148</ele>
        <time>2022-03-17T09:30:31.000Z</time>
      </trkpt>
      <trkpt lat="47.541218" lon="1.7713138">
        <ele>148</ele>
        <time>2022-03-17T09:30:32.000Z</time>
      </trkpt>
      <trkpt lat="47.541218" lon="1.7712991">
        <ele>148</ele>
        <time>2022-03-17T09:30:33.000Z</time>
      </trkpt>
      <trkpt lat="47.541225" lon="1.7712861">
        <ele>148</ele>
        <time>2022-03-17T09:30:34.000Z</time>
      </trkpt>
      <trkpt lat="47.541225" lon="1.7712711">
        <ele>149</ele>
        <time>2022-03-17T09:30:35.000Z</time>
      </trkpt>
      <trkpt lat="47.54123" lon="1.7712544">
        <ele>149</ele>
        <time>2022-03-17T09:30:36.000Z</time>
      </trkpt>
      <trkpt lat="47.541237" lon="1.7712365">
        <ele>149</ele>
        <time>2022-03-17T09:30:37.000Z</time>
      </trkpt>
      <trkpt lat="47.54124" lon="1.7712215">
        <ele>149</ele>
        <time>2022-03-17T09:30:38.000Z</time>
      </trkpt>
      <trkpt lat="47.54125" lon="1.7712057">
        <ele>149</ele>
        <time>2022-03-17T09:30:39.000Z</time>
      </trkpt>
      <trkpt lat="47.541256" lon="1.7711884">
        <ele>149</ele>
        <time>2022-03-17T09:30:40.000Z</time>
      </trkpt>
      <trkpt lat="47.54126" lon="1.7711698">
        <ele>149</ele>
        <time>2022-03-17T09:30:41.000Z</time>
      </trkpt>
      <trkpt lat="47.541264" lon="1.7711531">
        <ele>149</ele>
        <time>2022-03-17T09:30:42.000Z</time>
      </trkpt>
      <trkpt lat="47.541264" lon="1.7711345">
        <ele>149</ele>
        <time>2022-03-17T09:30:43.000Z</time>
      </trkpt>
      <trkpt lat="47.54127" lon="1.7711155">
        <ele>149</ele>
        <time>2022-03-17T09:30:44.000Z</time>
      </trkpt>
      <trkpt lat="47.541275" lon="1.7711009">
        <ele>149</ele>
        <time>2022-03-17T09:30:45.000Z</time>
      </trkpt>
      <trkpt lat="47.541275" lon="1.771087">
        <ele>150</ele>
        <time>2022-03-17T09:30:46.000Z</time>
      </trkpt>
      <trkpt lat="47.541283" lon="1.7710723">
        <ele>150</ele>
        <time>2022-03-17T09:30:47.000Z</time>
      </trkpt>
      <trkpt lat="47.541286" lon="1.7710559">
        <ele>151</ele>
        <time>2022-03-17T09:30:48.000Z</time>
      </trkpt>
      <trkpt lat="47.541286" lon="1.7710392">
        <ele>151</ele>
        <time>2022-03-17T09:30:49.000Z</time>
      </trkpt>
      <trkpt lat="47.541294" lon="1.7710271">
        <ele>151</ele>
        <time>2022-03-17T09:30:50.000Z</time>
      </trkpt>
      <trkpt lat="47.5413" lon="1.7710134">
        <ele>151</ele>
        <time>2022-03-17T09:30:51.000Z</time>
      </trkpt>
      <trkpt lat="47.541306" lon="1.7709986">
        <ele>151</ele>
        <time>2022-03-17T09:30:52.000Z</time>
      </trkpt>
      <trkpt lat="47.541306" lon="1.7709851">
        <ele>151</ele>
        <time>2022-03-17T09:30:53.000Z</time>
      </trkpt>
      <trkpt lat="47.54131" lon="1.7709742">
        <ele>151</ele>
        <time>2022-03-17T09:30:54.000Z</time>
      </trkpt>
      <trkpt lat="47.541313" lon="1.7709558">
        <ele>151</ele>
        <time>2022-03-17T09:30:55.000Z</time>
      </trkpt>
      <trkpt lat="47.541317" lon="1.7709383">
        <ele>150</ele>
        <time>2022-03-17T09:30:56.000Z</time>
      </trkpt>
      <trkpt lat="47.54132" lon="1.770924">
        <ele>150</ele>
        <time>2022-03-17T09:30:57.000Z</time>
      </trkpt>
      <trkpt lat="47.541325" lon="1.7709072">
        <ele>151</ele>
        <time>2022-03-17T09:30:58.000Z</time>
      </trkpt>
      <trkpt lat="47.54133" lon="1.7708889">
        <ele>151</ele>
        <time>2022-03-17T09:30:59.000Z</time>
      </trkpt>
      <trkpt lat="47.541332" lon="1.7708745">
        <ele>151</ele>
        <time>2022-03-17T09:31:00.000Z</time>
      </trkpt>
      <trkpt lat="47.54134" lon="1.7708558">
        <ele>150</ele>
        <time>2022-03-17T09:31:01.000Z</time>
      </trkpt>
      <trkpt lat="47.541348" lon="1.7708415">
        <ele>150</ele>
        <time>2022-03-17T09:31:02.000Z</time>
      </trkpt>
      <trkpt lat="47.54135" lon="1.7708249">
        <ele>151</ele>
        <time>2022-03-17T09:31:03.000Z</time>
      </trkpt>
      <trkpt lat="47.54136" lon="1.7708099">
        <ele>151</ele>
        <time>2022-03-17T09:31:04.000Z</time>
      </trkpt>
      <trkpt lat="47.541363" lon="1.7707953">
        <ele>151</ele>
        <time>2022-03-17T09:31:05.000Z</time>
      </trkpt>
      <trkpt lat="47.541367" lon="1.7707754">
        <ele>151</ele>
        <time>2022-03-17T09:31:06.000Z</time>
      </trkpt>
      <trkpt lat="47.541374" lon="1.7707573">
        <ele>150</ele>
        <time>2022-03-17T09:31:07.000Z</time>
      </trkpt>
      <trkpt lat="47.54138" lon="1.770741">
        <ele>150</ele>
        <time>2022-03-17T09:31:08.000Z</time>
      </trkpt>
      <trkpt lat="47.541386" lon="1.7707295">
        <ele>150</ele>
        <time>2022-03-17T09:31:09.000Z</time>
      </trkpt>
      <trkpt lat="47.541393" lon="1.7707224">
        <ele>150</ele>
        <time>2022-03-17T09:31:10.000Z</time>
      </trkpt>
      <trkpt lat="47.541393" lon="1.7707107">
        <ele>150</ele>
        <time>2022-03-17T09:31:11.000Z</time>
      </trkpt>
      <trkpt lat="47.541397" lon="1.7707001">
        <ele>150</ele>
        <time>2022-03-17T09:31:12.000Z</time>
      </trkpt>
      <trkpt lat="47.541397" lon="1.7706887">
        <ele>150</ele>
        <time>2022-03-17T09:31:13.000Z</time>
      </trkpt>
      <trkpt lat="47.5414" lon="1.7706755">
        <ele>150</ele>
        <time>2022-03-17T09:31:14.000Z</time>
      </trkpt>
      <trkpt lat="47.541405" lon="1.7706639">
        <ele>151</ele>
        <time>2022-03-17T09:31:15.000Z</time>
      </trkpt>
      <trkpt lat="47.54141" lon="1.770648">
        <ele>151</ele>
        <time>2022-03-17T09:31:16.000Z</time>
      </trkpt>
      <trkpt lat="47.541412" lon="1.770632">
        <ele>151</ele>
        <time>2022-03-17T09:31:17.000Z</time>
      </trkpt>
      <trkpt lat="47.541416" lon="1.7706134">
        <ele>151</ele>
        <time>2022-03-17T09:31:18.000Z</time>
      </trkpt>
      <trkpt lat="47.54142" lon="1.7705948">
        <ele>151</ele>
        <time>2022-03-17T09:31:19.000Z</time>
      </trkpt>
      <trkpt lat="47.541424" lon="1.770583">
        <ele>151</ele>
        <time>2022-03-17T09:31:20.000Z</time>
      </trkpt>
      <trkpt lat="47.541428" lon="1.7705673">
        <ele>150</ele>
        <time>2022-03-17T09:31:21.000Z</time>
      </trkpt>
      <trkpt lat="47.54143" lon="1.7705559">
        <ele>149</ele>
        <time>2022-03-17T09:31:22.000Z</time>
      </trkpt>
      <trkpt lat="47.54144" lon="1.7705371">
        <ele>149</ele>
        <time>2022-03-17T09:31:23.000Z</time>
      </trkpt>
      <trkpt lat="47.54144" lon="1.7705232">
        <ele>149</ele>
        <time>2022-03-17T09:31:24.000Z</time>
      </trkpt>
      <trkpt lat="47.541447" lon="1.770505">
        <ele>150</ele>
        <time>2022-03-17T09:31:25.000Z</time>
      </trkpt>
      <trkpt lat="47.54145" lon="1.770489">
        <ele>151</ele>
        <time>2022-03-17T09:31:26.000Z</time>
      </trkpt>
      <trkpt lat="47.541454" lon="1.7704706">
        <ele>151</ele>
        <time>2022-03-17T09:31:27.000Z</time>
      </trkpt>
      <trkpt lat="47.54146" lon="1.7704526">
        <ele>151</ele>
        <time>2022-03-17T09:31:28.000Z</time>
      </trkpt>
      <trkpt lat="47.541462" lon="1.7704365">
        <ele>151</ele>
        <time>2022-03-17T09:31:29.000Z</time>
      </trkpt>
      <trkpt lat="47.54147" lon="1.7704246">
        <ele>151</ele>
        <time>2022-03-17T09:31:30.000Z</time>
      </trkpt>
      <trkpt lat="47.541473" lon="1.770408">
        <ele>151</ele>
        <time>2022-03-17T09:31:31.000Z</time>
      </trkpt>
      <trkpt lat="47.541477" lon="1.7703931">
        <ele>150</ele>
        <time>2022-03-17T09:31:32.000Z</time>
      </trkpt>
      <trkpt lat="47.541485" lon="1.7703773">
        <ele>150</ele>
        <time>2022-03-17T09:31:33.000Z</time>
      </trkpt>
      <trkpt lat="47.54149" lon="1.7703626">
        <ele>150</ele>
        <time>2022-03-17T09:31:34.000Z</time>
      </trkpt>
      <trkpt lat="47.541492" lon="1.770351">
        <ele>150</ele>
        <time>2022-03-17T09:31:35.000Z</time>
      </trkpt>
      <trkpt lat="47.5415" lon="1.7703453">
        <ele>150</ele>
        <time>2022-03-17T09:31:36.000Z</time>
      </trkpt>
      <trkpt lat="47.541504" lon="1.7703286">
        <ele>150</ele>
        <time>2022-03-17T09:31:37.000Z</time>
      </trkpt>
      <trkpt lat="47.54151" lon="1.7703121">
        <ele>150</ele>
        <time>2022-03-17T09:31:38.000Z</time>
      </trkpt>
      <trkpt lat="47.541515" lon="1.7702937">
        <ele>150</ele>
        <time>2022-03-17T09:31:39.000Z</time>
      </trkpt>
      <trkpt lat="47.54152" lon="1.7702748">
        <ele>150</ele>
        <time>2022-03-17T09:31:40.000Z</time>
      </trkpt>
      <trkpt lat="47.541523" lon="1.7702566">
        <ele>150</ele>
        <time>2022-03-17T09:31:41.000Z</time>
      </trkpt>
      <trkpt lat="47.541527" lon="1.7702384">
        <ele>150</ele>
        <time>2022-03-17T09:31:42.000Z</time>
      </trkpt>
      <trkpt lat="47.541527" lon="1.7702221">
        <ele>150</ele>
        <time>2022-03-17T09:31:43.000Z</time>
      </trkpt>
      <trkpt lat="47.541534" lon="1.770202">
        <ele>150</ele>
        <time>2022-03-17T09:31:44.000Z</time>
      </trkpt>
      <trkpt lat="47.54154" lon="1.7701823">
        <ele>150</ele>
        <time>2022-03-17T09:31:45.000Z</time>
      </trkpt>
      <trkpt lat="47.541542" lon="1.7701641">
        <ele>150</ele>
        <time>2022-03-17T09:31:46.000Z</time>
      </trkpt>
      <trkpt lat="47.541546" lon="1.7701536">
        <ele>149</ele>
        <time>2022-03-17T09:31:47.000Z</time>
      </trkpt>
      <trkpt lat="47.541557" lon="1.770137">
        <ele>150</ele>
        <time>2022-03-17T09:31:48.000Z</time>
      </trkpt>
      <trkpt lat="47.541557" lon="1.7701228">
        <ele>150</ele>
        <time>2022-03-17T09:31:49.000Z</time>
      </trkpt>
      <trkpt lat="47.54157" lon="1.7701067">
        <ele>150</ele>
        <time>2022-03-17T09:31:50.000Z</time>
      </trkpt>
      <trkpt lat="47.54157" lon="1.7700951">
        <ele>150</ele>
        <time>2022-03-17T09:31:51.000Z</time>
      </trkpt>
      <trkpt lat="47.541573" lon="1.7700845">
        <ele>150</ele>
        <time>2022-03-17T09:31:52.000Z</time>
      </trkpt>
      <trkpt lat="47.541576" lon="1.7700644">
        <ele>151</ele>
        <time>2022-03-17T09:31:53.000Z</time>
      </trkpt>
      <trkpt lat="47.54158" lon="1.7700493">
        <ele>151</ele>
        <time>2022-03-17T09:31:54.000Z</time>
      </trkpt>
      <trkpt lat="47.54158" lon="1.7700374">
        <ele>152</ele>
        <time>2022-03-17T09:31:55.000Z</time>
      </trkpt>
      <trkpt lat="47.541584" lon="1.7700206">
        <ele>151</ele>
        <time>2022-03-17T09:31:56.000Z</time>
      </trkpt>
      <trkpt lat="47.541588" lon="1.7700053">
        <ele>151</ele>
        <time>2022-03-17T09:31:57.000Z</time>
      </trkpt>
      <trkpt lat="47.54159" lon="1.7699873">
        <ele>150</ele>
        <time>2022-03-17T09:31:58.000Z</time>
      </trkpt>
      <trkpt lat="47.5416" lon="1.7699676">
        <ele>150</ele>
        <time>2022-03-17T09:31:59.000Z</time>
      </trkpt>
      <trkpt lat="47.541603" lon="1.7699543">
        <ele>150</ele>
        <time>2022-03-17T09:32:00.000Z</time>
      </trkpt>
      <trkpt lat="47.541607" lon="1.7699406">
        <ele>151</ele>
        <time>2022-03-17T09:32:01.000Z</time>
      </trkpt>
      <trkpt lat="47.541615" lon="1.7699286">
        <ele>151</ele>
        <time>2022-03-17T09:32:02.000Z</time>
      </trkpt>
      <trkpt lat="47.541615" lon="1.7699167">
        <ele>151</ele>
        <time>2022-03-17T09:32:03.000Z</time>
      </trkpt>
      <trkpt lat="47.541622" lon="1.7698978">
        <ele>151</ele>
        <time>2022-03-17T09:32:04.000Z</time>
      </trkpt>
      <trkpt lat="47.54163" lon="1.7698811">
        <ele>151</ele>
        <time>2022-03-17T09:32:05.000Z</time>
      </trkpt>
      <trkpt lat="47.541637" lon="1.7698662">
        <ele>150</ele>
        <time>2022-03-17T09:32:06.000Z</time>
      </trkpt>
      <trkpt lat="47.54164" lon="1.7698479">
        <ele>151</ele>
        <time>2022-03-17T09:32:07.000Z</time>
      </trkpt>
      <trkpt lat="47.54165" lon="1.7698334">
        <ele>151</ele>
        <time>2022-03-17T09:32:08.000Z</time>
      </trkpt>
      <trkpt lat="47.541653" lon="1.7698157">
        <ele>151</ele>
        <time>2022-03-17T09:32:09.000Z</time>
      </trkpt>
      <trkpt lat="47.541656" lon="1.769802">
        <ele>151</ele>
        <time>2022-03-17T09:32:10.000Z</time>
      </trkpt>
      <trkpt lat="47.541664" lon="1.7697846">
        <ele>151</ele>
        <time>2022-03-17T09:32:11.000Z</time>
      </trkpt>
      <trkpt lat="47.541668" lon="1.7697682">
        <ele>151</ele>
        <time>2022-03-17T09:32:12.000Z</time>
      </trkpt>
      <trkpt lat="47.541676" lon="1.7697511">
        <ele>151</ele>
        <time>2022-03-17T09:32:13.000Z</time>
      </trkpt>
      <trkpt lat="47.541683" lon="1.7697344">
        <ele>151</ele>
        <time>2022-03-17T09:32:14.000Z</time>
      </trkpt>
      <trkpt lat="47.541687" lon="1.7697196">
        <ele>152</ele>
        <time>2022-03-17T09:32:15.000Z</time>
      </trkpt>
      <trkpt lat="47.54169" lon="1.7697017">
        <ele>152</ele>
        <time>2022-03-17T09:32:16.000Z</time>
      </trkpt>
      <trkpt lat="47.541695" lon="1.7696855">
        <ele>152</ele>
        <time>2022-03-17T09:32:17.000Z</time>
      </trkpt>
      <trkpt lat="47.541695" lon="1.7696711">
        <ele>152</ele>
        <time>2022-03-17T09:32:18.000Z</time>
      </trkpt>
      <trkpt lat="47.541702" lon="1.7696587">
        <ele>151</ele>
        <time>2022-03-17T09:32:19.000Z</time>
      </trkpt>
      <trkpt lat="47.541706" lon="1.7696435">
        <ele>151</ele>
        <time>2022-03-17T09:32:20.000Z</time>
      </trkpt>
      <trkpt lat="47.54171" lon="1.7696254">
        <ele>151</ele>
        <time>2022-03-17T09:32:21.000Z</time>
      </trkpt>
      <trkpt lat="47.541714" lon="1.7696072">
        <ele>151</ele>
        <time>2022-03-17T09:32:22.000Z</time>
      </trkpt>
      <trkpt lat="47.541718" lon="1.7695923">
        <ele>151</ele>
        <time>2022-03-17T09:32:23.000Z</time>
      </trkpt>
      <trkpt lat="47.54172" lon="1.769576">
        <ele>151</ele>
        <time>2022-03-17T09:32:24.000Z</time>
      </trkpt>
      <trkpt lat="47.541725" lon="1.7695607">
        <ele>151</ele>
        <time>2022-03-17T09:32:25.000Z</time>
      </trkpt>
      <trkpt lat="47.541733" lon="1.7695457">
        <ele>152</ele>
        <time>2022-03-17T09:32:26.000Z</time>
      </trkpt>
      <trkpt lat="47.541737" lon="1.7695285">
        <ele>151</ele>
        <time>2022-03-17T09:32:27.000Z</time>
      </trkpt>
      <trkpt lat="47.541744" lon="1.7695129">
        <ele>151</ele>
        <time>2022-03-17T09:32:28.000Z</time>
      </trkpt>
      <trkpt lat="47.541748" lon="1.7695034">
        <ele>151</ele>
        <time>2022-03-17T09:32:29.000Z</time>
      </trkpt>
      <trkpt lat="47.54175" lon="1.7694881">
        <ele>152</ele>
        <time>2022-03-17T09:32:30.000Z</time>
      </trkpt>
      <trkpt lat="47.541756" lon="1.7694755">
        <ele>152</ele>
        <time>2022-03-17T09:32:31.000Z</time>
      </trkpt>
      <trkpt lat="47.54176" lon="1.7694657">
        <ele>152</ele>
        <time>2022-03-17T09:32:32.000Z</time>
      </trkpt>
      <trkpt lat="47.54176" lon="1.7694517">
        <ele>152</ele>
        <time>2022-03-17T09:32:33.000Z</time>
      </trkpt>
      <trkpt lat="47.541767" lon="1.7694422">
        <ele>152</ele>
        <time>2022-03-17T09:32:34.000Z</time>
      </trkpt>
      <trkpt lat="47.54177" lon="1.7694327">
        <ele>153</ele>
        <time>2022-03-17T09:32:35.000Z</time>
      </trkpt>
      <trkpt lat="47.541775" lon="1.7694212">
        <ele>152</ele>
        <time>2022-03-17T09:32:36.000Z</time>
      </trkpt>
      <trkpt lat="47.54178" lon="1.7694062">
        <ele>152</ele>
        <time>2022-03-17T09:32:37.000Z</time>
      </trkpt>
      <trkpt lat="47.541786" lon="1.7693899">
        <ele>152</ele>
        <time>2022-03-17T09:32:38.000Z</time>
      </trkpt>
      <trkpt lat="47.541794" lon="1.769368">
        <ele>152</ele>
        <time>2022-03-17T09:32:39.000Z</time>
      </trkpt>
      <trkpt lat="47.541798" lon="1.7693495">
        <ele>153</ele>
        <time>2022-03-17T09:32:40.000Z</time>
      </trkpt>
      <trkpt lat="47.5418" lon="1.7693322">
        <ele>153</ele>
        <time>2022-03-17T09:32:41.000Z</time>
      </trkpt>
      <trkpt lat="47.5418" lon="1.7693173">
        <ele>153</ele>
        <time>2022-03-17T09:32:42.000Z</time>
      </trkpt>
      <trkpt lat="47.54181" lon="1.7693018">
        <ele>153</ele>
        <time>2022-03-17T09:32:43.000Z</time>
      </trkpt>
      <trkpt lat="47.541813" lon="1.7692853">
        <ele>153</ele>
        <time>2022-03-17T09:32:44.000Z</time>
      </trkpt>
      <trkpt lat="47.541813" lon="1.7692691">
        <ele>153</ele>
        <time>2022-03-17T09:32:45.000Z</time>
      </trkpt>
      <trkpt lat="47.54182" lon="1.769258">
        <ele>152</ele>
        <time>2022-03-17T09:32:46.000Z</time>
      </trkpt>
      <trkpt lat="47.54183" lon="1.7692392">
        <ele>152</ele>
        <time>2022-03-17T09:32:47.000Z</time>
      </trkpt>
      <trkpt lat="47.541832" lon="1.7692199">
        <ele>152</ele>
        <time>2022-03-17T09:32:48.000Z</time>
      </trkpt>
      <trkpt lat="47.541836" lon="1.769201">
        <ele>152</ele>
        <time>2022-03-17T09:32:49.000Z</time>
      </trkpt>
      <trkpt lat="47.541843" lon="1.7691822">
        <ele>152</ele>
        <time>2022-03-17T09:32:50.000Z</time>
      </trkpt>
      <trkpt lat="47.541847" lon="1.7691615">
        <ele>152</ele>
        <time>2022-03-17T09:32:51.000Z</time>
      </trkpt>
      <trkpt lat="47.54185" lon="1.7691439">
        <ele>152</ele>
        <time>2022-03-17T09:32:52.000Z</time>
      </trkpt>
      <trkpt lat="47.54186" lon="1.7691236">
        <ele>152</ele>
        <time>2022-03-17T09:32:53.000Z</time>
      </trkpt>
      <trkpt lat="47.541862" lon="1.7691033">
        <ele>152</ele>
        <time>2022-03-17T09:32:54.000Z</time>
      </trkpt>
      <trkpt lat="47.541866" lon="1.7690827">
        <ele>152</ele>
        <time>2022-03-17T09:32:55.000Z</time>
      </trkpt>
      <trkpt lat="47.541874" lon="1.7690632">
        <ele>152</ele>
        <time>2022-03-17T09:32:56.000Z</time>
      </trkpt>
      <trkpt lat="47.541874" lon="1.7690443">
        <ele>152</ele>
        <time>2022-03-17T09:32:57.000Z</time>
      </trkpt>
      <trkpt lat="47.541878" lon="1.7690288">
        <ele>152</ele>
        <time>2022-03-17T09:32:58.000Z</time>
      </trkpt>
      <trkpt lat="47.541885" lon="1.7690104">
        <ele>153</ele>
        <time>2022-03-17T09:32:59.000Z</time>
      </trkpt>
      <trkpt lat="47.541893" lon="1.7689906">
        <ele>153</ele>
        <time>2022-03-17T09:33:00.000Z</time>
      </trkpt>
      <trkpt lat="47.541893" lon="1.7689764">
        <ele>153</ele>
        <time>2022-03-17T09:33:01.000Z</time>
      </trkpt>
      <trkpt lat="47.541897" lon="1.7689605">
        <ele>154</ele>
        <time>2022-03-17T09:33:02.000Z</time>
      </trkpt>
      <trkpt lat="47.5419" lon="1.7689477">
        <ele>154</ele>
        <time>2022-03-17T09:33:03.000Z</time>
      </trkpt>
      <trkpt lat="47.54191" lon="1.768932">
        <ele>154</ele>
        <time>2022-03-17T09:33:04.000Z</time>
      </trkpt>
      <trkpt lat="47.541916" lon="1.7689186">
        <ele>153</ele>
        <time>2022-03-17T09:33:05.000Z</time>
      </trkpt>
      <trkpt lat="47.541924" lon="1.7688999">
        <ele>153</ele>
        <time>2022-03-17T09:33:06.000Z</time>
      </trkpt>
      <trkpt lat="47.541927" lon="1.7688811">
        <ele>153</ele>
        <time>2022-03-17T09:33:07.000Z</time>
      </trkpt>
      <trkpt lat="47.541935" lon="1.768867">
        <ele>153</ele>
        <time>2022-03-17T09:33:08.000Z</time>
      </trkpt>
      <trkpt lat="47.541935" lon="1.7688538">
        <ele>153</ele>
        <time>2022-03-17T09:33:09.000Z</time>
      </trkpt>
      <trkpt lat="47.541943" lon="1.7688428">
        <ele>152</ele>
        <time>2022-03-17T09:33:10.000Z</time>
      </trkpt>
      <trkpt lat="47.541943" lon="1.7688264">
        <ele>152</ele>
        <time>2022-03-17T09:33:11.000Z</time>
      </trkpt>
      <trkpt lat="47.54195" lon="1.7688084">
        <ele>152</ele>
        <time>2022-03-17T09:33:12.000Z</time>
      </trkpt>
      <trkpt lat="47.541954" lon="1.7687927">
        <ele>152</ele>
        <time>2022-03-17T09:33:13.000Z</time>
      </trkpt>
      <trkpt lat="47.541958" lon="1.7687764">
        <ele>152</ele>
        <time>2022-03-17T09:33:14.000Z</time>
      </trkpt>
      <trkpt lat="47.541958" lon="1.7687628">
        <ele>151</ele>
        <time>2022-03-17T09:33:15.000Z</time>
      </trkpt>
      <trkpt lat="47.54196" lon="1.7687521">
        <ele>151</ele>
        <time>2022-03-17T09:33:16.000Z</time>
      </trkpt>
      <trkpt lat="47.54196" lon="1.7687356">
        <ele>151</ele>
        <time>2022-03-17T09:33:17.000Z</time>
      </trkpt>
      <trkpt lat="47.541965" lon="1.7687188">
        <ele>151</ele>
        <time>2022-03-17T09:33:18.000Z</time>
      </trkpt>
      <trkpt lat="47.541973" lon="1.7687085">
        <ele>151</ele>
        <time>2022-03-17T09:33:19.000Z</time>
      </trkpt>
      <trkpt lat="47.541977" lon="1.768692">
        <ele>151</ele>
        <time>2022-03-17T09:33:20.000Z</time>
      </trkpt>
      <trkpt lat="47.54198" lon="1.7686759">
        <ele>151</ele>
        <time>2022-03-17T09:33:21.000Z</time>
      </trkpt>
      <trkpt lat="47.541985" lon="1.7686571">
        <ele>151</ele>
        <time>2022-03-17T09:33:22.000Z</time>
      </trkpt>
      <trkpt lat="47.54199" lon="1.7686421">
        <ele>151</ele>
        <time>2022-03-17T09:33:23.000Z</time>
      </trkpt>
      <trkpt lat="47.541992" lon="1.7686294">
        <ele>151</ele>
        <time>2022-03-17T09:33:24.000Z</time>
      </trkpt>
      <trkpt lat="47.542" lon="1.7686157">
        <ele>152</ele>
        <time>2022-03-17T09:33:25.000Z</time>
      </trkpt>
      <trkpt lat="47.542007" lon="1.7686021">
        <ele>153</ele>
        <time>2022-03-17T09:33:26.000Z</time>
      </trkpt>
      <trkpt lat="47.54201" lon="1.7685826">
        <ele>153</ele>
        <time>2022-03-17T09:33:27.000Z</time>
      </trkpt>
      <trkpt lat="47.542015" lon="1.7685666">
        <ele>152</ele>
        <time>2022-03-17T09:33:28.000Z</time>
      </trkpt>
      <trkpt lat="47.542023" lon="1.7685542">
        <ele>153</ele>
        <time>2022-03-17T09:33:29.000Z</time>
      </trkpt>
      <trkpt lat="47.542027" lon="1.7685411">
        <ele>153</ele>
        <time>2022-03-17T09:33:30.000Z</time>
      </trkpt>
      <trkpt lat="47.542027" lon="1.7685267">
        <ele>152</ele>
        <time>2022-03-17T09:33:31.000Z</time>
      </trkpt>
      <trkpt lat="47.542034" lon="1.7685074">
        <ele>153</ele>
        <time>2022-03-17T09:33:32.000Z</time>
      </trkpt>
      <trkpt lat="47.542034" lon="1.7684908">
        <ele>153</ele>
        <time>2022-03-17T09:33:33.000Z</time>
      </trkpt>
      <trkpt lat="47.54204" lon="1.7684734">
        <ele>153</ele>
        <time>2022-03-17T09:33:34.000Z</time>
      </trkpt>
      <trkpt lat="47.54205" lon="1.7684548">
        <ele>153</ele>
        <time>2022-03-17T09:33:35.000Z</time>
      </trkpt>
      <trkpt lat="47.542053" lon="1.7684379">
        <ele>153</ele>
        <time>2022-03-17T09:33:36.000Z</time>
      </trkpt>
      <trkpt lat="47.54206" lon="1.7684216">
        <ele>153</ele>
        <time>2022-03-17T09:33:37.000Z</time>
      </trkpt>
      <trkpt lat="47.542065" lon="1.7684085">
        <ele>153</ele>
        <time>2022-03-17T09:33:38.000Z</time>
      </trkpt>
      <trkpt lat="47.54207" lon="1.7683926">
        <ele>153</ele>
        <time>2022-03-17T09:33:39.000Z</time>
      </trkpt>
      <trkpt lat="47.542072" lon="1.768376">
        <ele>153</ele>
        <time>2022-03-17T09:33:40.000Z</time>
      </trkpt>
      <trkpt lat="47.542076" lon="1.7683592">
        <ele>153</ele>
        <time>2022-03-17T09:33:41.000Z</time>
      </trkpt>
      <trkpt lat="47.542076" lon="1.7683449">
        <ele>152</ele>
        <time>2022-03-17T09:33:42.000Z</time>
      </trkpt>
      <trkpt lat="47.54208" lon="1.7683326">
        <ele>152</ele>
        <time>2022-03-17T09:33:43.000Z</time>
      </trkpt>
      <trkpt lat="47.54208" lon="1.7683154">
        <ele>152</ele>
        <time>2022-03-17T09:33:44.000Z</time>
      </trkpt>
      <trkpt lat="47.542088" lon="1.7682955">
        <ele>152</ele>
        <time>2022-03-17T09:33:45.000Z</time>
      </trkpt>
      <trkpt lat="47.542088" lon="1.7682805">
        <ele>151</ele>
        <time>2022-03-17T09:33:46.000Z</time>
      </trkpt>
      <trkpt lat="47.542088" lon="1.768266">
        <ele>151</ele>
        <time>2022-03-17T09:33:47.000Z</time>
      </trkpt>
      <trkpt lat="47.54209" lon="1.7682554">
        <ele>151</ele>
        <time>2022-03-17T09:33:48.000Z</time>
      </trkpt>
      <trkpt lat="47.542095" lon="1.7682464">
        <ele>151</ele>
        <time>2022-03-17T09:33:49.000Z</time>
      </trkpt>
      <trkpt lat="47.5421" lon="1.7682339">
        <ele>151</ele>
        <time>2022-03-17T09:33:50.000Z</time>
      </trkpt>
      <trkpt lat="47.542103" lon="1.768227">
        <ele>151</ele>
        <time>2022-03-17T09:33:51.000Z</time>
      </trkpt>
      <trkpt lat="47.542107" lon="1.7682135">
        <ele>151</ele>
        <time>2022-03-17T09:33:52.000Z</time>
      </trkpt>
      <trkpt lat="47.54211" lon="1.7681981">
        <ele>150</ele>
        <time>2022-03-17T09:33:53.000Z</time>
      </trkpt>
      <trkpt lat="47.54211" lon="1.7681819">
        <ele>149</ele>
        <time>2022-03-17T09:33:54.000Z</time>
      </trkpt>
      <trkpt lat="47.54211" lon="1.7681668">
        <ele>149</ele>
        <time>2022-03-17T09:33:55.000Z</time>
      </trkpt>
      <trkpt lat="47.542114" lon="1.768153">
        <ele>149</ele>
        <time>2022-03-17T09:33:56.000Z</time>
      </trkpt>
      <trkpt lat="47.542118" lon="1.7681429">
        <ele>149</ele>
        <time>2022-03-17T09:33:57.000Z</time>
      </trkpt>
      <trkpt lat="47.542118" lon="1.7681273">
        <ele>149</ele>
        <time>2022-03-17T09:33:58.000Z</time>
      </trkpt>
      <trkpt lat="47.542118" lon="1.7681117">
        <ele>149</ele>
        <time>2022-03-17T09:33:59.000Z</time>
      </trkpt>
      <trkpt lat="47.542118" lon="1.7680969">
        <ele>148</ele>
        <time>2022-03-17T09:34:00.000Z</time>
      </trkpt>
      <trkpt lat="47.542118" lon="1.7680827">
        <ele>149</ele>
        <time>2022-03-17T09:34:01.000Z</time>
      </trkpt>
      <trkpt lat="47.54212" lon="1.7680674">
        <ele>149</ele>
        <time>2022-03-17T09:34:02.000Z</time>
      </trkpt>
      <trkpt lat="47.542126" lon="1.7680504">
        <ele>148</ele>
        <time>2022-03-17T09:34:03.000Z</time>
      </trkpt>
      <trkpt lat="47.54213" lon="1.7680296">
        <ele>149</ele>
        <time>2022-03-17T09:34:04.000Z</time>
      </trkpt>
      <trkpt lat="47.542133" lon="1.7680141">
        <ele>149</ele>
        <time>2022-03-17T09:34:05.000Z</time>
      </trkpt>
      <trkpt lat="47.542137" lon="1.7679975">
        <ele>149</ele>
        <time>2022-03-17T09:34:06.000Z</time>
      </trkpt>
      <trkpt lat="47.54214" lon="1.7679834">
        <ele>149</ele>
        <time>2022-03-17T09:34:07.000Z</time>
      </trkpt>
      <trkpt lat="47.54214" lon="1.7679703">
        <ele>149</ele>
        <time>2022-03-17T09:34:08.000Z</time>
      </trkpt>
      <trkpt lat="47.54215" lon="1.7679598">
        <ele>149</ele>
        <time>2022-03-17T09:34:09.000Z</time>
      </trkpt>
      <trkpt lat="47.542152" lon="1.7679486">
        <ele>149</ele>
        <time>2022-03-17T09:34:10.000Z</time>
      </trkpt>
      <trkpt lat="47.542156" lon="1.7679285">
        <ele>149</ele>
        <time>2022-03-17T09:34:11.000Z</time>
      </trkpt>
      <trkpt lat="47.54216" lon="1.7679112">
        <ele>149</ele>
        <time>2022-03-17T09:34:12.000Z</time>
      </trkpt>
      <trkpt lat="47.542164" lon="1.7678938">
        <ele>149</ele>
        <time>2022-03-17T09:34:13.000Z</time>
      </trkpt>
      <trkpt lat="47.542164" lon="1.7678796">
        <ele>148</ele>
        <time>2022-03-17T09:34:14.000Z</time>
      </trkpt>
      <trkpt lat="47.542168" lon="1.7678616">
        <ele>148</ele>
        <time>2022-03-17T09:34:15.000Z</time>
      </trkpt>
      <trkpt lat="47.542168" lon="1.7678403">
        <ele>148</ele>
        <time>2022-03-17T09:34:16.000Z</time>
      </trkpt>
      <trkpt lat="47.54218" lon="1.7678199">
        <ele>147</ele>
        <time>2022-03-17T09:34:17.000Z</time>
      </trkpt>
      <trkpt lat="47.54218" lon="1.7678028">
        <ele>147</ele>
        <time>2022-03-17T09:34:18.000Z</time>
      </trkpt>
      <trkpt lat="47.542183" lon="1.7677809">
        <ele>147</ele>
        <time>2022-03-17T09:34:19.000Z</time>
      </trkpt>
      <trkpt lat="47.542187" lon="1.7677653">
        <ele>147</ele>
        <time>2022-03-17T09:34:20.000Z</time>
      </trkpt>
      <trkpt lat="47.54219" lon="1.7677494">
        <ele>147</ele>
        <time>2022-03-17T09:34:21.000Z</time>
      </trkpt>
      <trkpt lat="47.542194" lon="1.7677333">
        <ele>147</ele>
        <time>2022-03-17T09:34:22.000Z</time>
      </trkpt>
      <trkpt lat="47.542194" lon="1.7677124">
        <ele>147</ele>
        <time>2022-03-17T09:34:23.000Z</time>
      </trkpt>
      <trkpt lat="47.5422" lon="1.7676922">
        <ele>147</ele>
        <time>2022-03-17T09:34:24.000Z</time>
      </trkpt>
      <trkpt lat="47.542194" lon="1.7676728">
        <ele>146</ele>
        <time>2022-03-17T09:34:25.000Z</time>
      </trkpt>
      <trkpt lat="47.5422" lon="1.7676563">
        <ele>146</ele>
        <time>2022-03-17T09:34:26.000Z</time>
      </trkpt>
      <trkpt lat="47.5422" lon="1.7676408">
        <ele>146</ele>
        <time>2022-03-17T09:34:27.000Z</time>
      </trkpt>
      <trkpt lat="47.542202" lon="1.7676214">
        <ele>147</ele>
        <time>2022-03-17T09:34:28.000Z</time>
      </trkpt>
      <trkpt lat="47.54221" lon="1.767607">
        <ele>147</ele>
        <time>2022-03-17T09:34:29.000Z</time>
      </trkpt>
      <trkpt lat="47.542213" lon="1.767592">
        <ele>147</ele>
        <time>2022-03-17T09:34:30.000Z</time>
      </trkpt>
      <trkpt lat="47.542217" lon="1.7675769">
        <ele>147</ele>
        <time>2022-03-17T09:34:31.000Z</time>
      </trkpt>
      <trkpt lat="47.54222" lon="1.7675596">
        <ele>147</ele>
        <time>2022-03-17T09:34:32.000Z</time>
      </trkpt>
      <trkpt lat="47.542225" lon="1.767538">
        <ele>147</ele>
        <time>2022-03-17T09:34:33.000Z</time>
      </trkpt>
      <trkpt lat="47.542225" lon="1.7675174">
        <ele>146</ele>
        <time>2022-03-17T09:34:34.000Z</time>
      </trkpt>
      <trkpt lat="47.542225" lon="1.7675033">
        <ele>146</ele>
        <time>2022-03-17T09:34:35.000Z</time>
      </trkpt>
      <trkpt lat="47.54223" lon="1.7674878">
        <ele>146</ele>
        <time>2022-03-17T09:34:36.000Z</time>
      </trkpt>
      <trkpt lat="47.542233" lon="1.7674748">
        <ele>147</ele>
        <time>2022-03-17T09:34:37.000Z</time>
      </trkpt>
      <trkpt lat="47.542236" lon="1.7674646">
        <ele>146</ele>
        <time>2022-03-17T09:34:38.000Z</time>
      </trkpt>
      <trkpt lat="47.54224" lon="1.7674501">
        <ele>146</ele>
        <time>2022-03-17T09:34:39.000Z</time>
      </trkpt>
      <trkpt lat="47.54224" lon="1.7674326">
        <ele>146</ele>
        <time>2022-03-17T09:34:40.000Z</time>
      </trkpt>
      <trkpt lat="47.542248" lon="1.7674237">
        <ele>146</ele>
        <time>2022-03-17T09:34:41.000Z</time>
      </trkpt>
      <trkpt lat="47.54225" lon="1.7674067">
        <ele>145</ele>
        <time>2022-03-17T09:34:42.000Z</time>
      </trkpt>
      <trkpt lat="47.542255" lon="1.767393">
        <ele>145</ele>
        <time>2022-03-17T09:34:43.000Z</time>
      </trkpt>
      <trkpt lat="47.54226" lon="1.7673762">
        <ele>145</ele>
        <time>2022-03-17T09:34:44.000Z</time>
      </trkpt>
      <trkpt lat="47.542263" lon="1.7673621">
        <ele>146</ele>
        <time>2022-03-17T09:34:45.000Z</time>
      </trkpt>
      <trkpt lat="47.542263" lon="1.767348">
        <ele>146</ele>
        <time>2022-03-17T09:34:46.000Z</time>
      </trkpt>
      <trkpt lat="47.542267" lon="1.7673359">
        <ele>146</ele>
        <time>2022-03-17T09:34:47.000Z</time>
      </trkpt>
      <trkpt lat="47.54227" lon="1.767323">
        <ele>146</ele>
        <time>2022-03-17T09:34:48.000Z</time>
      </trkpt>
      <trkpt lat="47.542274" lon="1.767307">
        <ele>146</ele>
        <time>2022-03-17T09:34:49.000Z</time>
      </trkpt>
      <trkpt lat="47.542282" lon="1.767291">
        <ele>146</ele>
        <time>2022-03-17T09:34:50.000Z</time>
      </trkpt>
      <trkpt lat="47.542282" lon="1.7672763">
        <ele>147</ele>
        <time>2022-03-17T09:34:51.000Z</time>
      </trkpt>
      <trkpt lat="47.542286" lon="1.7672544">
        <ele>147</ele>
        <time>2022-03-17T09:34:52.000Z</time>
      </trkpt>
      <trkpt lat="47.542286" lon="1.7672389">
        <ele>147</ele>
        <time>2022-03-17T09:34:53.000Z</time>
      </trkpt>
      <trkpt lat="47.54229" lon="1.7672246">
        <ele>147</ele>
        <time>2022-03-17T09:34:54.000Z</time>
      </trkpt>
      <trkpt lat="47.542294" lon="1.767207">
        <ele>146</ele>
        <time>2022-03-17T09:34:55.000Z</time>
      </trkpt>
      <trkpt lat="47.542297" lon="1.7671916">
        <ele>146</ele>
        <time>2022-03-17T09:34:56.000Z</time>
      </trkpt>
      <trkpt lat="47.5423" lon="1.767178">
        <ele>146</ele>
        <time>2022-03-17T09:34:57.000Z</time>
      </trkpt>
      <trkpt lat="47.54231" lon="1.7671654">
        <ele>145</ele>
        <time>2022-03-17T09:34:58.000Z</time>
      </trkpt>
      <trkpt lat="47.542313" lon="1.7671516">
        <ele>145</ele>
        <time>2022-03-17T09:34:59.000Z</time>
      </trkpt>
      <trkpt lat="47.54232" lon="1.767132">
        <ele>145</ele>
        <time>2022-03-17T09:35:00.000Z</time>
      </trkpt>
      <trkpt lat="47.542328" lon="1.7671107">
        <ele>145</ele>
        <time>2022-03-17T09:35:01.000Z</time>
      </trkpt>
      <trkpt lat="47.542336" lon="1.7670925">
        <ele>145</ele>
        <time>2022-03-17T09:35:02.000Z</time>
      </trkpt>
      <trkpt lat="47.54234" lon="1.7670728">
        <ele>145</ele>
        <time>2022-03-17T09:35:03.000Z</time>
      </trkpt>
      <trkpt lat="47.542343" lon="1.7670557">
        <ele>145</ele>
        <time>2022-03-17T09:35:04.000Z</time>
      </trkpt>
      <trkpt lat="47.542347" lon="1.7670383">
        <ele>145</ele>
        <time>2022-03-17T09:35:05.000Z</time>
      </trkpt>
      <trkpt lat="47.54235" lon="1.7670238">
        <ele>144</ele>
        <time>2022-03-17T09:35:06.000Z</time>
      </trkpt>
      <trkpt lat="47.542355" lon="1.7670152">
        <ele>145</ele>
        <time>2022-03-17T09:35:07.000Z</time>
      </trkpt>
      <trkpt lat="47.542362" lon="1.7669973">
        <ele>145</ele>
        <time>2022-03-17T09:35:08.000Z</time>
      </trkpt>
      <trkpt lat="47.54237" lon="1.7669823">
        <ele>145</ele>
        <time>2022-03-17T09:35:09.000Z</time>
      </trkpt>
      <trkpt lat="47.542377" lon="1.7669641">
        <ele>145</ele>
        <time>2022-03-17T09:35:10.000Z</time>
      </trkpt>
      <trkpt lat="47.54238" lon="1.7669488">
        <ele>145</ele>
        <time>2022-03-17T09:35:11.000Z</time>
      </trkpt>
      <trkpt lat="47.54239" lon="1.7669364">
        <ele>145</ele>
        <time>2022-03-17T09:35:12.000Z</time>
      </trkpt>
      <trkpt lat="47.542397" lon="1.7669247">
        <ele>145</ele>
        <time>2022-03-17T09:35:13.000Z</time>
      </trkpt>
      <trkpt lat="47.5424" lon="1.7669104">
        <ele>145</ele>
        <time>2022-03-17T09:35:14.000Z</time>
      </trkpt>
      <trkpt lat="47.542408" lon="1.7668997">
        <ele>145</ele>
        <time>2022-03-17T09:35:15.000Z</time>
      </trkpt>
      <trkpt lat="47.54242" lon="1.7668904">
        <ele>145</ele>
        <time>2022-03-17T09:35:16.000Z</time>
      </trkpt>
      <trkpt lat="47.542427" lon="1.7668766">
        <ele>145</ele>
        <time>2022-03-17T09:35:17.000Z</time>
      </trkpt>
      <trkpt lat="47.542435" lon="1.7668649">
        <ele>145</ele>
        <time>2022-03-17T09:35:18.000Z</time>
      </trkpt>
      <trkpt lat="47.542446" lon="1.7668508">
        <ele>145</ele>
        <time>2022-03-17T09:35:19.000Z</time>
      </trkpt>
      <trkpt lat="47.542454" lon="1.7668383">
        <ele>145</ele>
        <time>2022-03-17T09:35:20.000Z</time>
      </trkpt>
      <trkpt lat="47.54246" lon="1.7668248">
        <ele>145</ele>
        <time>2022-03-17T09:35:21.000Z</time>
      </trkpt>
      <trkpt lat="47.54247" lon="1.7668175">
        <ele>145</ele>
        <time>2022-03-17T09:35:22.000Z</time>
      </trkpt>
      <trkpt lat="47.542477" lon="1.7668031">
        <ele>145</ele>
        <time>2022-03-17T09:35:23.000Z</time>
      </trkpt>
      <trkpt lat="47.542484" lon="1.7667918">
        <ele>145</ele>
        <time>2022-03-17T09:35:24.000Z</time>
      </trkpt>
      <trkpt lat="47.542492" lon="1.7667823">
        <ele>145</ele>
        <time>2022-03-17T09:35:25.000Z</time>
      </trkpt>
      <trkpt lat="47.5425" lon="1.7667748">
        <ele>145</ele>
        <time>2022-03-17T09:35:26.000Z</time>
      </trkpt>
      <trkpt lat="47.54251" lon="1.7667656">
        <ele>145</ele>
        <time>2022-03-17T09:35:27.000Z</time>
      </trkpt>
      <trkpt lat="47.54252" lon="1.7667542">
        <ele>145</ele>
        <time>2022-03-17T09:35:28.000Z</time>
      </trkpt>
      <trkpt lat="47.54253" lon="1.7667452">
        <ele>145</ele>
        <time>2022-03-17T09:35:29.000Z</time>
      </trkpt>
      <trkpt lat="47.542538" lon="1.7667346">
        <ele>145</ele>
        <time>2022-03-17T09:35:30.000Z</time>
      </trkpt>
      <trkpt lat="47.54255" lon="1.7667273">
        <ele>145</ele>
        <time>2022-03-17T09:35:31.000Z</time>
      </trkpt>
      <trkpt lat="47.542557" lon="1.7667191">
        <ele>144</ele>
        <time>2022-03-17T09:35:32.000Z</time>
      </trkpt>
      <trkpt lat="47.54257" lon="1.7667115">
        <ele>144</ele>
        <time>2022-03-17T09:35:33.000Z</time>
      </trkpt>
      <trkpt lat="47.54258" lon="1.7667043">
        <ele>145</ele>
        <time>2022-03-17T09:35:34.000Z</time>
      </trkpt>
      <trkpt lat="47.54259" lon="1.7666934">
        <ele>145</ele>
        <time>2022-03-17T09:35:35.000Z</time>
      </trkpt>
      <trkpt lat="47.542603" lon="1.7666833">
        <ele>144</ele>
        <time>2022-03-17T09:35:36.000Z</time>
      </trkpt>
      <trkpt lat="47.542614" lon="1.7666758">
        <ele>145</ele>
        <time>2022-03-17T09:35:37.000Z</time>
      </trkpt>
      <trkpt lat="47.54262" lon="1.7666668">
        <ele>144</ele>
        <time>2022-03-17T09:35:38.000Z</time>
      </trkpt>
      <trkpt lat="47.542637" lon="1.7666577">
        <ele>144</ele>
        <time>2022-03-17T09:35:39.000Z</time>
      </trkpt>
      <trkpt lat="47.542645" lon="1.7666507">
        <ele>144</ele>
        <time>2022-03-17T09:35:40.000Z</time>
      </trkpt>
      <trkpt lat="47.542656" lon="1.766644">
        <ele>145</ele>
        <time>2022-03-17T09:35:41.000Z</time>
      </trkpt>
      <trkpt lat="47.542667" lon="1.7666332">
        <ele>145</ele>
        <time>2022-03-17T09:35:42.000Z</time>
      </trkpt>
      <trkpt lat="47.54268" lon="1.7666266">
        <ele>145</ele>
        <time>2022-03-17T09:35:43.000Z</time>
      </trkpt>
      <trkpt lat="47.542686" lon="1.7666149">
        <ele>145</ele>
        <time>2022-03-17T09:35:44.000Z</time>
      </trkpt>
      <trkpt lat="47.5427" lon="1.7666073">
        <ele>146</ele>
        <time>2022-03-17T09:35:45.000Z</time>
      </trkpt>
      <trkpt lat="47.54271" lon="1.7665968">
        <ele>146</ele>
        <time>2022-03-17T09:35:46.000Z</time>
      </trkpt>
      <trkpt lat="47.54272" lon="1.7665861">
        <ele>146</ele>
        <time>2022-03-17T09:35:47.000Z</time>
      </trkpt>
      <trkpt lat="47.54273" lon="1.7665778">
        <ele>146</ele>
        <time>2022-03-17T09:35:48.000Z</time>
      </trkpt>
      <trkpt lat="47.54274" lon="1.7665714">
        <ele>146</ele>
        <time>2022-03-17T09:35:49.000Z</time>
      </trkpt>
      <trkpt lat="47.54275" lon="1.7665658">
        <ele>145</ele>
        <time>2022-03-17T09:35:50.000Z</time>
      </trkpt>
      <trkpt lat="47.542763" lon="1.7665588">
        <ele>145</ele>
        <time>2022-03-17T09:35:51.000Z</time>
      </trkpt>
      <trkpt lat="47.542774" lon="1.7665521">
        <ele>145</ele>
        <time>2022-03-17T09:35:52.000Z</time>
      </trkpt>
      <trkpt lat="47.54278" lon="1.7665405">
        <ele>146</ele>
        <time>2022-03-17T09:35:53.000Z</time>
      </trkpt>
      <trkpt lat="47.54279" lon="1.7665279">
        <ele>145</ele>
        <time>2022-03-17T09:35:54.000Z</time>
      </trkpt>
      <trkpt lat="47.542797" lon="1.7665153">
        <ele>146</ele>
        <time>2022-03-17T09:35:55.000Z</time>
      </trkpt>
      <trkpt lat="47.54281" lon="1.7665069">
        <ele>146</ele>
        <time>2022-03-17T09:35:56.000Z</time>
      </trkpt>
      <trkpt lat="47.54282" lon="1.7664995">
        <ele>146</ele>
        <time>2022-03-17T09:35:57.000Z</time>
      </trkpt>
      <trkpt lat="47.54283" lon="1.7664912">
        <ele>146</ele>
        <time>2022-03-17T09:35:58.000Z</time>
      </trkpt>
      <trkpt lat="47.542843" lon="1.7664841">
        <ele>146</ele>
        <time>2022-03-17T09:35:59.000Z</time>
      </trkpt>
      <trkpt lat="47.542854" lon="1.7664797">
        <ele>146</ele>
        <time>2022-03-17T09:36:00.000Z</time>
      </trkpt>
      <trkpt lat="47.542866" lon="1.7664741">
        <ele>146</ele>
        <time>2022-03-17T09:36:01.000Z</time>
      </trkpt>
      <trkpt lat="47.542873" lon="1.7664658">
        <ele>145</ele>
        <time>2022-03-17T09:36:02.000Z</time>
      </trkpt>
      <trkpt lat="47.54288" lon="1.7664571">
        <ele>145</ele>
        <time>2022-03-17T09:36:03.000Z</time>
      </trkpt>
      <trkpt lat="47.54289" lon="1.7664491">
        <ele>145</ele>
        <time>2022-03-17T09:36:04.000Z</time>
      </trkpt>
      <trkpt lat="47.542896" lon="1.7664398">
        <ele>145</ele>
        <time>2022-03-17T09:36:05.000Z</time>
      </trkpt>
      <trkpt lat="47.542904" lon="1.7664322">
        <ele>145</ele>
        <time>2022-03-17T09:36:06.000Z</time>
      </trkpt>
      <trkpt lat="47.542915" lon="1.7664261">
        <ele>145</ele>
        <time>2022-03-17T09:36:07.000Z</time>
      </trkpt>
      <trkpt lat="47.542923" lon="1.7664222">
        <ele>145</ele>
        <time>2022-03-17T09:36:08.000Z</time>
      </trkpt>
      <trkpt lat="47.542934" lon="1.7664157">
        <ele>145</ele>
        <time>2022-03-17T09:36:09.000Z</time>
      </trkpt>
      <trkpt lat="47.542946" lon="1.7664019">
        <ele>145</ele>
        <time>2022-03-17T09:36:10.000Z</time>
      </trkpt>
      <trkpt lat="47.542957" lon="1.7663906">
        <ele>144</ele>
        <time>2022-03-17T09:36:11.000Z</time>
      </trkpt>
      <trkpt lat="47.542965" lon="1.7663816">
        <ele>144</ele>
        <time>2022-03-17T09:36:12.000Z</time>
      </trkpt>
      <trkpt lat="47.542976" lon="1.7663732">
        <ele>144</ele>
        <time>2022-03-17T09:36:13.000Z</time>
      </trkpt>
      <trkpt lat="47.542984" lon="1.766366">
        <ele>144</ele>
        <time>2022-03-17T09:36:14.000Z</time>
      </trkpt>
      <trkpt lat="47.54299" lon="1.7663531">
        <ele>144</ele>
        <time>2022-03-17T09:36:15.000Z</time>
      </trkpt>
      <trkpt lat="47.542995" lon="1.7663413">
        <ele>144</ele>
        <time>2022-03-17T09:36:16.000Z</time>
      </trkpt>
      <trkpt lat="47.543" lon="1.7663254">
        <ele>145</ele>
        <time>2022-03-17T09:36:17.000Z</time>
      </trkpt>
      <trkpt lat="47.543003" lon="1.7663157">
        <ele>144</ele>
        <time>2022-03-17T09:36:18.000Z</time>
      </trkpt>
      <trkpt lat="47.54301" lon="1.7663096">
        <ele>144</ele>
        <time>2022-03-17T09:36:19.000Z</time>
      </trkpt>
      <trkpt lat="47.54302" lon="1.7662984">
        <ele>145</ele>
        <time>2022-03-17T09:36:20.000Z</time>
      </trkpt>
      <trkpt lat="47.543034" lon="1.7662852">
        <ele>145</ele>
        <time>2022-03-17T09:36:21.000Z</time>
      </trkpt>
      <trkpt lat="47.54304" lon="1.7662764">
        <ele>145</ele>
        <time>2022-03-17T09:36:22.000Z</time>
      </trkpt>
      <trkpt lat="47.543037" lon="1.7662591">
        <ele>145</ele>
        <time>2022-03-17T09:36:23.000Z</time>
      </trkpt>
      <trkpt lat="47.543034" lon="1.7662476">
        <ele>144</ele>
        <time>2022-03-17T09:36:24.000Z</time>
      </trkpt>
      <trkpt lat="47.543034" lon="1.7662455">
        <ele>144</ele>
        <time>2022-03-17T09:36:25.000Z</time>
      </trkpt>
      <trkpt lat="47.543037" lon="1.7662531">
        <ele>144</ele>
        <time>2022-03-17T09:36:26.000Z</time>
      </trkpt>
      <trkpt lat="47.543037" lon="1.7662576">
        <ele>143</ele>
        <time>2022-03-17T09:36:27.000Z</time>
      </trkpt>
      <trkpt lat="47.543037" lon="1.7662576">
        <ele>143</ele>
        <time>2022-03-17T09:36:28.000Z</time>
      </trkpt>
      <trkpt lat="47.543037" lon="1.7662576">
        <ele>143</ele>
        <time>2022-03-17T09:36:29.000Z</time>
      </trkpt>
      <trkpt lat="47.543037" lon="1.7662576">
        <ele>143</ele>
        <time>2022-03-17T09:36:29.000Z</time>
      </trkpt>
      <trkpt lat="47.543037" lon="1.7662576">
        <ele>143</ele>
        <time>2022-03-17T09:36:29.000Z</time>
      </trkpt>
      <trkpt lat="47.5431" lon="1.7662365">
        <ele>141</ele>
        <time>2022-03-17T09:36:56.000Z</time>
      </trkpt>
      <trkpt lat="47.543114" lon="1.766226">
        <ele>141</ele>
        <time>2022-03-17T09:36:57.000Z</time>
      </trkpt>
      <trkpt lat="47.54313" lon="1.7662096">
        <ele>141</ele>
        <time>2022-03-17T09:36:58.000Z</time>
      </trkpt>
      <trkpt lat="47.54314" lon="1.7661918">
        <ele>141</ele>
        <time>2022-03-17T09:36:59.000Z</time>
      </trkpt>
      <trkpt lat="47.54315" lon="1.7661783">
        <ele>141</ele>
        <time>2022-03-17T09:37:00.000Z</time>
      </trkpt>
      <trkpt lat="47.54316" lon="1.7661623">
        <ele>141</ele>
        <time>2022-03-17T09:37:01.000Z</time>
      </trkpt>
      <trkpt lat="47.54317" lon="1.7661482">
        <ele>141</ele>
        <time>2022-03-17T09:37:02.000Z</time>
      </trkpt>
      <trkpt lat="47.543182" lon="1.7661366">
        <ele>141</ele>
        <time>2022-03-17T09:37:03.000Z</time>
      </trkpt>
      <trkpt lat="47.543198" lon="1.7661272">
        <ele>141</ele>
        <time>2022-03-17T09:37:04.000Z</time>
      </trkpt>
      <trkpt lat="47.543213" lon="1.7661167">
        <ele>141</ele>
        <time>2022-03-17T09:37:05.000Z</time>
      </trkpt>
      <trkpt lat="47.54323" lon="1.766108">
        <ele>141</ele>
        <time>2022-03-17T09:37:06.000Z</time>
      </trkpt>
      <trkpt lat="47.54324" lon="1.7660985">
        <ele>141</ele>
        <time>2022-03-17T09:37:07.000Z</time>
      </trkpt>
      <trkpt lat="47.543255" lon="1.7660879">
        <ele>141</ele>
        <time>2022-03-17T09:37:08.000Z</time>
      </trkpt>
      <trkpt lat="47.54327" lon="1.7660748">
        <ele>141</ele>
        <time>2022-03-17T09:37:09.000Z</time>
      </trkpt>
      <trkpt lat="47.54328" lon="1.7660614">
        <ele>141</ele>
        <time>2022-03-17T09:37:10.000Z</time>
      </trkpt>
      <trkpt lat="47.543293" lon="1.7660546">
        <ele>141</ele>
        <time>2022-03-17T09:37:11.000Z</time>
      </trkpt>
      <trkpt lat="47.54331" lon="1.7660443">
        <ele>141</ele>
        <time>2022-03-17T09:37:12.000Z</time>
      </trkpt>
      <trkpt lat="47.54332" lon="1.7660357">
        <ele>140</ele>
        <time>2022-03-17T09:37:13.000Z</time>
      </trkpt>
      <trkpt lat="47.543335" lon="1.7660236">
        <ele>140</ele>
        <time>2022-03-17T09:37:14.000Z</time>
      </trkpt>
      <trkpt lat="47.543346" lon="1.7660176">
        <ele>140</ele>
        <time>2022-03-17T09:37:15.000Z</time>
      </trkpt>
      <trkpt lat="47.54336" lon="1.7660073">
        <ele>139</ele>
        <time>2022-03-17T09:37:16.000Z</time>
      </trkpt>
      <trkpt lat="47.543373" lon="1.7659973">
        <ele>139</ele>
        <time>2022-03-17T09:37:17.000Z</time>
      </trkpt>
      <trkpt lat="47.54339" lon="1.7659857">
        <ele>139</ele>
        <time>2022-03-17T09:37:18.000Z</time>
      </trkpt>
      <trkpt lat="47.5434" lon="1.7659764">
        <ele>139</ele>
        <time>2022-03-17T09:37:19.000Z</time>
      </trkpt>
      <trkpt lat="47.54341" lon="1.7659668">
        <ele>139</ele>
        <time>2022-03-17T09:37:20.000Z</time>
      </trkpt>
      <trkpt lat="47.543423" lon="1.765957">
        <ele>139</ele>
        <time>2022-03-17T09:37:21.000Z</time>
      </trkpt>
      <trkpt lat="47.543438" lon="1.7659434">
        <ele>139</ele>
        <time>2022-03-17T09:37:22.000Z</time>
      </trkpt>
      <trkpt lat="47.54345" lon="1.7659279">
        <ele>140</ele>
        <time>2022-03-17T09:37:23.000Z</time>
      </trkpt>
      <trkpt lat="47.543465" lon="1.7659174">
        <ele>140</ele>
        <time>2022-03-17T09:37:24.000Z</time>
      </trkpt>
      <trkpt lat="47.54348" lon="1.7659056">
        <ele>140</ele>
        <time>2022-03-17T09:37:25.000Z</time>
      </trkpt>
      <trkpt lat="47.543495" lon="1.7658945">
        <ele>139</ele>
        <time>2022-03-17T09:37:26.000Z</time>
      </trkpt>
      <trkpt lat="47.54351" lon="1.7658824">
        <ele>139</ele>
        <time>2022-03-17T09:37:27.000Z</time>
      </trkpt>
      <trkpt lat="47.543526" lon="1.7658728">
        <ele>140</ele>
        <time>2022-03-17T09:37:28.000Z</time>
      </trkpt>
      <trkpt lat="47.54354" lon="1.7658638">
        <ele>140</ele>
        <time>2022-03-17T09:37:29.000Z</time>
      </trkpt>
      <trkpt lat="47.543556" lon="1.7658528">
        <ele>140</ele>
        <time>2022-03-17T09:37:30.000Z</time>
      </trkpt>
      <trkpt lat="47.543575" lon="1.76584">
        <ele>140</ele>
        <time>2022-03-17T09:37:31.000Z</time>
      </trkpt>
      <trkpt lat="47.54359" lon="1.7658305">
        <ele>140</ele>
        <time>2022-03-17T09:37:32.000Z</time>
      </trkpt>
      <trkpt lat="47.543606" lon="1.7658217">
        <ele>140</ele>
        <time>2022-03-17T09:37:33.000Z</time>
      </trkpt>
      <trkpt lat="47.54362" lon="1.765814">
        <ele>140</ele>
        <time>2022-03-17T09:37:34.000Z</time>
      </trkpt>
      <trkpt lat="47.543636" lon="1.7658044">
        <ele>140</ele>
        <time>2022-03-17T09:37:35.000Z</time>
      </trkpt>
      <trkpt lat="47.543648" lon="1.7657957">
        <ele>140</ele>
        <time>2022-03-17T09:37:36.000Z</time>
      </trkpt>
      <trkpt lat="47.543663" lon="1.7657862">
        <ele>140</ele>
        <time>2022-03-17T09:37:37.000Z</time>
      </trkpt>
      <trkpt lat="47.54368" lon="1.7657733">
        <ele>140</ele>
        <time>2022-03-17T09:37:38.000Z</time>
      </trkpt>
      <trkpt lat="47.543694" lon="1.765764">
        <ele>139</ele>
        <time>2022-03-17T09:37:39.000Z</time>
      </trkpt>
      <trkpt lat="47.543705" lon="1.7657508">
        <ele>140</ele>
        <time>2022-03-17T09:37:40.000Z</time>
      </trkpt>
      <trkpt lat="47.54372" lon="1.7657386">
        <ele>140</ele>
        <time>2022-03-17T09:37:41.000Z</time>
      </trkpt>
      <trkpt lat="47.543736" lon="1.7657245">
        <ele>140</ele>
        <time>2022-03-17T09:37:42.000Z</time>
      </trkpt>
      <trkpt lat="47.54375" lon="1.7657108">
        <ele>140</ele>
        <time>2022-03-17T09:37:43.000Z</time>
      </trkpt>
      <trkpt lat="47.543766" lon="1.7657006">
        <ele>139</ele>
        <time>2022-03-17T09:37:44.000Z</time>
      </trkpt>
      <trkpt lat="47.54378" lon="1.7656877">
        <ele>140</ele>
        <time>2022-03-17T09:37:45.000Z</time>
      </trkpt>
      <trkpt lat="47.543793" lon="1.7656772">
        <ele>139</ele>
        <time>2022-03-17T09:37:46.000Z</time>
      </trkpt>
      <trkpt lat="47.543804" lon="1.7656658">
        <ele>139</ele>
        <time>2022-03-17T09:37:47.000Z</time>
      </trkpt>
      <trkpt lat="47.54382" lon="1.7656555">
        <ele>139</ele>
        <time>2022-03-17T09:37:48.000Z</time>
      </trkpt>
      <trkpt lat="47.543835" lon="1.7656404">
        <ele>139</ele>
        <time>2022-03-17T09:37:49.000Z</time>
      </trkpt>
      <trkpt lat="47.54385" lon="1.7656314">
        <ele>139</ele>
        <time>2022-03-17T09:37:50.000Z</time>
      </trkpt>
      <trkpt lat="47.543865" lon="1.765621">
        <ele>140</ele>
        <time>2022-03-17T09:37:51.000Z</time>
      </trkpt>
      <trkpt lat="47.54388" lon="1.765606">
        <ele>140</ele>
        <time>2022-03-17T09:37:52.000Z</time>
      </trkpt>
      <trkpt lat="47.54389" lon="1.765595">
        <ele>140</ele>
        <time>2022-03-17T09:37:53.000Z</time>
      </trkpt>
      <trkpt lat="47.543907" lon="1.7655842">
        <ele>140</ele>
        <time>2022-03-17T09:37:54.000Z</time>
      </trkpt>
      <trkpt lat="47.54392" lon="1.7655747">
        <ele>140</ele>
        <time>2022-03-17T09:37:55.000Z</time>
      </trkpt>
      <trkpt lat="47.543934" lon="1.7655599">
        <ele>140</ele>
        <time>2022-03-17T09:37:56.000Z</time>
      </trkpt>
      <trkpt lat="47.54395" lon="1.7655466">
        <ele>140</ele>
        <time>2022-03-17T09:37:57.000Z</time>
      </trkpt>
      <trkpt lat="47.54396" lon="1.7655346">
        <ele>140</ele>
        <time>2022-03-17T09:37:58.000Z</time>
      </trkpt>
      <trkpt lat="47.543972" lon="1.765523">
        <ele>140</ele>
        <time>2022-03-17T09:37:59.000Z</time>
      </trkpt>
      <trkpt lat="47.543983" lon="1.7655109">
        <ele>140</ele>
        <time>2022-03-17T09:38:00.000Z</time>
      </trkpt>
      <trkpt lat="47.544" lon="1.7654978">
        <ele>141</ele>
        <time>2022-03-17T09:38:01.000Z</time>
      </trkpt>
      <trkpt lat="47.544018" lon="1.7654854">
        <ele>141</ele>
        <time>2022-03-17T09:38:02.000Z</time>
      </trkpt>
      <trkpt lat="47.54403" lon="1.765474">
        <ele>141</ele>
        <time>2022-03-17T09:38:03.000Z</time>
      </trkpt>
      <trkpt lat="47.54404" lon="1.7654631">
        <ele>141</ele>
        <time>2022-03-17T09:38:04.000Z</time>
      </trkpt>
      <trkpt lat="47.544044" lon="1.7654539">
        <ele>141</ele>
        <time>2022-03-17T09:38:05.000Z</time>
      </trkpt>
      <trkpt lat="47.544052" lon="1.7654445">
        <ele>140</ele>
        <time>2022-03-17T09:38:06.000Z</time>
      </trkpt>
      <trkpt lat="47.54406" lon="1.7654322">
        <ele>141</ele>
        <time>2022-03-17T09:38:07.000Z</time>
      </trkpt>
      <trkpt lat="47.544067" lon="1.7654222">
        <ele>140</ele>
        <time>2022-03-17T09:38:08.000Z</time>
      </trkpt>
      <trkpt lat="47.544075" lon="1.7654138">
        <ele>140</ele>
        <time>2022-03-17T09:38:09.000Z</time>
      </trkpt>
      <trkpt lat="47.544083" lon="1.7654071">
        <ele>140</ele>
        <time>2022-03-17T09:38:10.000Z</time>
      </trkpt>
      <trkpt lat="47.544094" lon="1.765403">
        <ele>140</ele>
        <time>2022-03-17T09:38:11.000Z</time>
      </trkpt>
      <trkpt lat="47.5441" lon="1.7653931">
        <ele>140</ele>
        <time>2022-03-17T09:38:12.000Z</time>
      </trkpt>
      <trkpt lat="47.544113" lon="1.7653846">
        <ele>140</ele>
        <time>2022-03-17T09:38:13.000Z</time>
      </trkpt>
      <trkpt lat="47.54412" lon="1.7653748">
        <ele>140</ele>
        <time>2022-03-17T09:38:14.000Z</time>
      </trkpt>
      <trkpt lat="47.54413" lon="1.765366">
        <ele>140</ele>
        <time>2022-03-17T09:38:15.000Z</time>
      </trkpt>
      <trkpt lat="47.544132" lon="1.7653564">
        <ele>140</ele>
        <time>2022-03-17T09:38:16.000Z</time>
      </trkpt>
      <trkpt lat="47.54414" lon="1.7653462">
        <ele>140</ele>
        <time>2022-03-17T09:38:17.000Z</time>
      </trkpt>
      <trkpt lat="47.54415" lon="1.7653382">
        <ele>140</ele>
        <time>2022-03-17T09:38:18.000Z</time>
      </trkpt>
      <trkpt lat="47.544155" lon="1.7653302">
        <ele>140</ele>
        <time>2022-03-17T09:38:19.000Z</time>
      </trkpt>
      <trkpt lat="47.544167" lon="1.7653203">
        <ele>140</ele>
        <time>2022-03-17T09:38:20.000Z</time>
      </trkpt>
      <trkpt lat="47.544174" lon="1.7653131">
        <ele>140</ele>
        <time>2022-03-17T09:38:21.000Z</time>
      </trkpt>
      <trkpt lat="47.54418" lon="1.7653075">
        <ele>140</ele>
        <time>2022-03-17T09:38:22.000Z</time>
      </trkpt>
      <trkpt lat="47.54419" lon="1.7653028">
        <ele>140</ele>
        <time>2022-03-17T09:38:23.000Z</time>
      </trkpt>
      <trkpt lat="47.5442" lon="1.7652966">
        <ele>140</ele>
        <time>2022-03-17T09:38:24.000Z</time>
      </trkpt>
      <trkpt lat="47.54421" lon="1.76529">
        <ele>140</ele>
        <time>2022-03-17T09:38:25.000Z</time>
      </trkpt>
      <trkpt lat="47.544216" lon="1.7652842">
        <ele>140</ele>
        <time>2022-03-17T09:38:26.000Z</time>
      </trkpt>
      <trkpt lat="47.544224" lon="1.765276">
        <ele>140</ele>
        <time>2022-03-17T09:38:27.000Z</time>
      </trkpt>
      <trkpt lat="47.544235" lon="1.7652639">
        <ele>140</ele>
        <time>2022-03-17T09:38:28.000Z</time>
      </trkpt>
      <trkpt lat="47.544247" lon="1.765256">
        <ele>140</ele>
        <time>2022-03-17T09:38:29.000Z</time>
      </trkpt>
      <trkpt lat="47.544254" lon="1.765248">
        <ele>140</ele>
        <time>2022-03-17T09:38:30.000Z</time>
      </trkpt>
      <trkpt lat="47.544262" lon="1.765245">
        <ele>140</ele>
        <time>2022-03-17T09:38:31.000Z</time>
      </trkpt>
      <trkpt lat="47.54427" lon="1.7652373">
        <ele>140</ele>
        <time>2022-03-17T09:38:32.000Z</time>
      </trkpt>
      <trkpt lat="47.54428" lon="1.7652309">
        <ele>140</ele>
        <time>2022-03-17T09:38:33.000Z</time>
      </trkpt>
      <trkpt lat="47.54429" lon="1.765226">
        <ele>140</ele>
        <time>2022-03-17T09:38:34.000Z</time>
      </trkpt>
      <trkpt lat="47.544296" lon="1.7652178">
        <ele>140</ele>
        <time>2022-03-17T09:38:35.000Z</time>
      </trkpt>
      <trkpt lat="47.544304" lon="1.7652105">
        <ele>140</ele>
        <time>2022-03-17T09:38:36.000Z</time>
      </trkpt>
      <trkpt lat="47.54431" lon="1.7652023">
        <ele>140</ele>
        <time>2022-03-17T09:38:37.000Z</time>
      </trkpt>
      <trkpt lat="47.544315" lon="1.7651908">
        <ele>140</ele>
        <time>2022-03-17T09:38:38.000Z</time>
      </trkpt>
      <trkpt lat="47.544323" lon="1.7651795">
        <ele>140</ele>
        <time>2022-03-17T09:38:39.000Z</time>
      </trkpt>
      <trkpt lat="47.544327" lon="1.7651689">
        <ele>141</ele>
        <time>2022-03-17T09:38:40.000Z</time>
      </trkpt>
      <trkpt lat="47.54434" lon="1.7651615">
        <ele>141</ele>
        <time>2022-03-17T09:38:41.000Z</time>
      </trkpt>
      <trkpt lat="47.54435" lon="1.7651548">
        <ele>140</ele>
        <time>2022-03-17T09:38:42.000Z</time>
      </trkpt>
      <trkpt lat="47.54436" lon="1.765145">
        <ele>140</ele>
        <time>2022-03-17T09:38:43.000Z</time>
      </trkpt>
      <trkpt lat="47.544373" lon="1.7651345">
        <ele>140</ele>
        <time>2022-03-17T09:38:44.000Z</time>
      </trkpt>
      <trkpt lat="47.544384" lon="1.7651258">
        <ele>140</ele>
        <time>2022-03-17T09:38:45.000Z</time>
      </trkpt>
      <trkpt lat="47.544395" lon="1.7651181">
        <ele>139</ele>
        <time>2022-03-17T09:38:46.000Z</time>
      </trkpt>
      <trkpt lat="47.544407" lon="1.7651097">
        <ele>139</ele>
        <time>2022-03-17T09:38:47.000Z</time>
      </trkpt>
      <trkpt lat="47.544415" lon="1.7650989">
        <ele>139</ele>
        <time>2022-03-17T09:38:48.000Z</time>
      </trkpt>
      <trkpt lat="47.544426" lon="1.7650907">
        <ele>139</ele>
        <time>2022-03-17T09:38:49.000Z</time>
      </trkpt>
      <trkpt lat="47.544437" lon="1.7650834">
        <ele>139</ele>
        <time>2022-03-17T09:38:50.000Z</time>
      </trkpt>
      <trkpt lat="47.54445" lon="1.765075">
        <ele>139</ele>
        <time>2022-03-17T09:38:51.000Z</time>
      </trkpt>
      <trkpt lat="47.544464" lon="1.7650678">
        <ele>139</ele>
        <time>2022-03-17T09:38:52.000Z</time>
      </trkpt>
      <trkpt lat="47.544476" lon="1.7650568">
        <ele>139</ele>
        <time>2022-03-17T09:38:53.000Z</time>
      </trkpt>
      <trkpt lat="47.544487" lon="1.7650445">
        <ele>139</ele>
        <time>2022-03-17T09:38:54.000Z</time>
      </trkpt>
      <trkpt lat="47.5445" lon="1.7650371">
        <ele>138</ele>
        <time>2022-03-17T09:38:55.000Z</time>
      </trkpt>
      <trkpt lat="47.54451" lon="1.7650306">
        <ele>139</ele>
        <time>2022-03-17T09:38:56.000Z</time>
      </trkpt>
      <trkpt lat="47.54452" lon="1.7650188">
        <ele>139</ele>
        <time>2022-03-17T09:38:57.000Z</time>
      </trkpt>
      <trkpt lat="47.544533" lon="1.76501">
        <ele>139</ele>
        <time>2022-03-17T09:38:58.000Z</time>
      </trkpt>
      <trkpt lat="47.544544" lon="1.7649993">
        <ele>139</ele>
        <time>2022-03-17T09:38:59.000Z</time>
      </trkpt>
      <trkpt lat="47.54455" lon="1.7649916">
        <ele>138</ele>
        <time>2022-03-17T09:39:00.000Z</time>
      </trkpt>
      <trkpt lat="47.544563" lon="1.7649826">
        <ele>138</ele>
        <time>2022-03-17T09:39:01.000Z</time>
      </trkpt>
      <trkpt lat="47.54457" lon="1.7649728">
        <ele>138</ele>
        <time>2022-03-17T09:39:02.000Z</time>
      </trkpt>
      <trkpt lat="47.544582" lon="1.7649696">
        <ele>138</ele>
        <time>2022-03-17T09:39:03.000Z</time>
      </trkpt>
      <trkpt lat="47.544598" lon="1.7649584">
        <ele>138</ele>
        <time>2022-03-17T09:39:04.000Z</time>
      </trkpt>
      <trkpt lat="47.544605" lon="1.764947">
        <ele>138</ele>
        <time>2022-03-17T09:39:05.000Z</time>
      </trkpt>
      <trkpt lat="47.544617" lon="1.7649385">
        <ele>138</ele>
        <time>2022-03-17T09:39:06.000Z</time>
      </trkpt>
      <trkpt lat="47.544624" lon="1.7649305">
        <ele>139</ele>
        <time>2022-03-17T09:39:07.000Z</time>
      </trkpt>
      <trkpt lat="47.544636" lon="1.764919">
        <ele>139</ele>
        <time>2022-03-17T09:39:08.000Z</time>
      </trkpt>
      <trkpt lat="47.544647" lon="1.7649107">
        <ele>139</ele>
        <time>2022-03-17T09:39:09.000Z</time>
      </trkpt>
      <trkpt lat="47.544655" lon="1.7649015">
        <ele>138</ele>
        <time>2022-03-17T09:39:10.000Z</time>
      </trkpt>
      <trkpt lat="47.54467" lon="1.7648906">
        <ele>138</ele>
        <time>2022-03-17T09:39:11.000Z</time>
      </trkpt>
      <trkpt lat="47.54468" lon="1.7648826">
        <ele>138</ele>
        <time>2022-03-17T09:39:12.000Z</time>
      </trkpt>
      <trkpt lat="47.54469" lon="1.7648761">
        <ele>138</ele>
        <time>2022-03-17T09:39:13.000Z</time>
      </trkpt>
      <trkpt lat="47.5447" lon="1.7648681">
        <ele>137</ele>
        <time>2022-03-17T09:39:14.000Z</time>
      </trkpt>
      <trkpt lat="47.54471" lon="1.7648602">
        <ele>137</ele>
        <time>2022-03-17T09:39:15.000Z</time>
      </trkpt>
      <trkpt lat="47.54472" lon="1.7648528">
        <ele>137</ele>
        <time>2022-03-17T09:39:16.000Z</time>
      </trkpt>
      <trkpt lat="47.54473" lon="1.7648463">
        <ele>138</ele>
        <time>2022-03-17T09:39:17.000Z</time>
      </trkpt>
      <trkpt lat="47.544743" lon="1.7648396">
        <ele>138</ele>
        <time>2022-03-17T09:39:18.000Z</time>
      </trkpt>
      <trkpt lat="47.544754" lon="1.7648288">
        <ele>137</ele>
        <time>2022-03-17T09:39:19.000Z</time>
      </trkpt>
      <trkpt lat="47.544765" lon="1.7648152">
        <ele>137</ele>
        <time>2022-03-17T09:39:20.000Z</time>
      </trkpt>
      <trkpt lat="47.54478" lon="1.7648008">
        <ele>136</ele>
        <time>2022-03-17T09:39:21.000Z</time>
      </trkpt>
      <trkpt lat="47.544792" lon="1.7647947">
        <ele>136</ele>
        <time>2022-03-17T09:39:22.000Z</time>
      </trkpt>
      <trkpt lat="47.544804" lon="1.764787">
        <ele>135</ele>
        <time>2022-03-17T09:39:23.000Z</time>
      </trkpt>
      <trkpt lat="47.54481" lon="1.7647754">
        <ele>135</ele>
        <time>2022-03-17T09:39:24.000Z</time>
      </trkpt>
      <trkpt lat="47.544823" lon="1.7647622">
        <ele>134</ele>
        <time>2022-03-17T09:39:25.000Z</time>
      </trkpt>
      <trkpt lat="47.544838" lon="1.7647557">
        <ele>134</ele>
        <time>2022-03-17T09:39:26.000Z</time>
      </trkpt>
      <trkpt lat="47.54485" lon="1.764749">
        <ele>134</ele>
        <time>2022-03-17T09:39:27.000Z</time>
      </trkpt>
      <trkpt lat="47.544865" lon="1.7647393">
        <ele>135</ele>
        <time>2022-03-17T09:39:28.000Z</time>
      </trkpt>
      <trkpt lat="47.544876" lon="1.764731">
        <ele>135</ele>
        <time>2022-03-17T09:39:29.000Z</time>
      </trkpt>
      <trkpt lat="47.544888" lon="1.764721">
        <ele>135</ele>
        <time>2022-03-17T09:39:30.000Z</time>
      </trkpt>
      <trkpt lat="47.5449" lon="1.7647111">
        <ele>135</ele>
        <time>2022-03-17T09:39:31.000Z</time>
      </trkpt>
      <trkpt lat="47.54491" lon="1.764702">
        <ele>135</ele>
        <time>2022-03-17T09:39:32.000Z</time>
      </trkpt>
      <trkpt lat="47.54492" lon="1.7646945">
        <ele>135</ele>
        <time>2022-03-17T09:39:33.000Z</time>
      </trkpt>
      <trkpt lat="47.544937" lon="1.7646853">
        <ele>135</ele>
        <time>2022-03-17T09:39:34.000Z</time>
      </trkpt>
      <trkpt lat="47.54495" lon="1.7646804">
        <ele>134</ele>
        <time>2022-03-17T09:39:35.000Z</time>
      </trkpt>
      <trkpt lat="47.544964" lon="1.7646766">
        <ele>134</ele>
        <time>2022-03-17T09:39:36.000Z</time>
      </trkpt>
      <trkpt lat="47.54497" lon="1.7646695">
        <ele>135</ele>
        <time>2022-03-17T09:39:37.000Z</time>
      </trkpt>
      <trkpt lat="47.544987" lon="1.7646607">
        <ele>135</ele>
        <time>2022-03-17T09:39:38.000Z</time>
      </trkpt>
      <trkpt lat="47.545" lon="1.7646492">
        <ele>135</ele>
        <time>2022-03-17T09:39:39.000Z</time>
      </trkpt>
      <trkpt lat="47.54501" lon="1.7646388">
        <ele>135</ele>
        <time>2022-03-17T09:39:40.000Z</time>
      </trkpt>
      <trkpt lat="47.545017" lon="1.7646302">
        <ele>135</ele>
        <time>2022-03-17T09:39:41.000Z</time>
      </trkpt>
      <trkpt lat="47.54503" lon="1.7646207">
        <ele>135</ele>
        <time>2022-03-17T09:39:42.000Z</time>
      </trkpt>
      <trkpt lat="47.545044" lon="1.7646155">
        <ele>136</ele>
        <time>2022-03-17T09:39:43.000Z</time>
      </trkpt>
      <trkpt lat="47.545055" lon="1.7646081">
        <ele>136</ele>
        <time>2022-03-17T09:39:44.000Z</time>
      </trkpt>
      <trkpt lat="47.54507" lon="1.7645955">
        <ele>136</ele>
        <time>2022-03-17T09:39:45.000Z</time>
      </trkpt>
      <trkpt lat="47.545082" lon="1.764587">
        <ele>136</ele>
        <time>2022-03-17T09:39:46.000Z</time>
      </trkpt>
      <trkpt lat="47.545094" lon="1.7645788">
        <ele>136</ele>
        <time>2022-03-17T09:39:47.000Z</time>
      </trkpt>
      <trkpt lat="47.54511" lon="1.7645727">
        <ele>136</ele>
        <time>2022-03-17T09:39:48.000Z</time>
      </trkpt>
      <trkpt lat="47.545124" lon="1.7645615">
        <ele>137</ele>
        <time>2022-03-17T09:39:49.000Z</time>
      </trkpt>
      <trkpt lat="47.545135" lon="1.7645513">
        <ele>136</ele>
        <time>2022-03-17T09:39:50.000Z</time>
      </trkpt>
      <trkpt lat="47.54515" lon="1.7645439">
        <ele>137</ele>
        <time>2022-03-17T09:39:51.000Z</time>
      </trkpt>
      <trkpt lat="47.545162" lon="1.7645363">
        <ele>136</ele>
        <time>2022-03-17T09:39:52.000Z</time>
      </trkpt>
      <trkpt lat="47.545174" lon="1.7645231">
        <ele>137</ele>
        <time>2022-03-17T09:39:53.000Z</time>
      </trkpt>
      <trkpt lat="47.545185" lon="1.7645128">
        <ele>137</ele>
        <time>2022-03-17T09:39:54.000Z</time>
      </trkpt>
      <trkpt lat="47.545197" lon="1.7645043">
        <ele>137</ele>
        <time>2022-03-17T09:39:55.000Z</time>
      </trkpt>
      <trkpt lat="47.545204" lon="1.7644931">
        <ele>136</ele>
        <time>2022-03-17T09:39:56.000Z</time>
      </trkpt>
      <trkpt lat="47.545216" lon="1.7644857">
        <ele>136</ele>
        <time>2022-03-17T09:39:57.000Z</time>
      </trkpt>
      <trkpt lat="47.545227" lon="1.7644792">
        <ele>136</ele>
        <time>2022-03-17T09:39:58.000Z</time>
      </trkpt>
      <trkpt lat="47.54524" lon="1.7644715">
        <ele>137</ele>
        <time>2022-03-17T09:39:59.000Z</time>
      </trkpt>
      <trkpt lat="47.54525" lon="1.7644596">
        <ele>136</ele>
        <time>2022-03-17T09:40:00.000Z</time>
      </trkpt>
      <trkpt lat="47.54526" lon="1.7644507">
        <ele>137</ele>
        <time>2022-03-17T09:40:01.000Z</time>
      </trkpt>
      <trkpt lat="47.545273" lon="1.7644438">
        <ele>137</ele>
        <time>2022-03-17T09:40:02.000Z</time>
      </trkpt>
      <trkpt lat="47.54528" lon="1.764434">
        <ele>136</ele>
        <time>2022-03-17T09:40:03.000Z</time>
      </trkpt>
      <trkpt lat="47.545296" lon="1.7644219">
        <ele>137</ele>
        <time>2022-03-17T09:40:04.000Z</time>
      </trkpt>
      <trkpt lat="47.545307" lon="1.7644136">
        <ele>137</ele>
        <time>2022-03-17T09:40:05.000Z</time>
      </trkpt>
      <trkpt lat="47.54532" lon="1.7644072">
        <ele>138</ele>
        <time>2022-03-17T09:40:06.000Z</time>
      </trkpt>
      <trkpt lat="47.545326" lon="1.7643985">
        <ele>137</ele>
        <time>2022-03-17T09:40:07.000Z</time>
      </trkpt>
      <trkpt lat="47.545338" lon="1.7643865">
        <ele>138</ele>
        <time>2022-03-17T09:40:08.000Z</time>
      </trkpt>
      <trkpt lat="47.54535" lon="1.7643807">
        <ele>138</ele>
        <time>2022-03-17T09:40:09.000Z</time>
      </trkpt>
      <trkpt lat="47.54536" lon="1.7643756">
        <ele>139</ele>
        <time>2022-03-17T09:40:10.000Z</time>
      </trkpt>
      <trkpt lat="47.545372" lon="1.7643677">
        <ele>139</ele>
        <time>2022-03-17T09:40:11.000Z</time>
      </trkpt>
      <trkpt lat="47.545376" lon="1.7643586">
        <ele>138</ele>
        <time>2022-03-17T09:40:12.000Z</time>
      </trkpt>
      <trkpt lat="47.545383" lon="1.7643504">
        <ele>138</ele>
        <time>2022-03-17T09:40:13.000Z</time>
      </trkpt>
      <trkpt lat="47.545395" lon="1.7643448">
        <ele>139</ele>
        <time>2022-03-17T09:40:14.000Z</time>
      </trkpt>
      <trkpt lat="47.545406" lon="1.7643343">
        <ele>139</ele>
        <time>2022-03-17T09:40:15.000Z</time>
      </trkpt>
      <trkpt lat="47.545418" lon="1.7643259">
        <ele>139</ele>
        <time>2022-03-17T09:40:16.000Z</time>
      </trkpt>
      <trkpt lat="47.545425" lon="1.7643188">
        <ele>139</ele>
        <time>2022-03-17T09:40:17.000Z</time>
      </trkpt>
      <trkpt lat="47.545433" lon="1.7643116">
        <ele>139</ele>
        <time>2022-03-17T09:40:18.000Z</time>
      </trkpt>
      <trkpt lat="47.54544" lon="1.7643069">
        <ele>139</ele>
        <time>2022-03-17T09:40:19.000Z</time>
      </trkpt>
      <trkpt lat="47.54545" lon="1.7642993">
        <ele>139</ele>
        <time>2022-03-17T09:40:20.000Z</time>
      </trkpt>
      <trkpt lat="47.54546" lon="1.7642909">
        <ele>139</ele>
        <time>2022-03-17T09:40:21.000Z</time>
      </trkpt>
      <trkpt lat="47.54547" lon="1.7642798">
        <ele>139</ele>
        <time>2022-03-17T09:40:22.000Z</time>
      </trkpt>
      <trkpt lat="47.545486" lon="1.7642677">
        <ele>140</ele>
        <time>2022-03-17T09:40:23.000Z</time>
      </trkpt>
      <trkpt lat="47.545498" lon="1.7642574">
        <ele>140</ele>
        <time>2022-03-17T09:40:24.000Z</time>
      </trkpt>
      <trkpt lat="47.54551" lon="1.7642477">
        <ele>139</ele>
        <time>2022-03-17T09:40:25.000Z</time>
      </trkpt>
      <trkpt lat="47.545525" lon="1.7642323">
        <ele>139</ele>
        <time>2022-03-17T09:40:26.000Z</time>
      </trkpt>
      <trkpt lat="47.54554" lon="1.7642162">
        <ele>138</ele>
        <time>2022-03-17T09:40:27.000Z</time>
      </trkpt>
      <trkpt lat="47.545547" lon="1.7642076">
        <ele>138</ele>
        <time>2022-03-17T09:40:28.000Z</time>
      </trkpt>
      <trkpt lat="47.545555" lon="1.7642021">
        <ele>138</ele>
        <time>2022-03-17T09:40:29.000Z</time>
      </trkpt>
      <trkpt lat="47.54556" lon="1.7641938">
        <ele>138</ele>
        <time>2022-03-17T09:40:30.000Z</time>
      </trkpt>
      <trkpt lat="47.54556" lon="1.7641938">
        <ele>138</ele>
        <time>2022-03-17T09:40:31.000Z</time>
      </trkpt>
      <trkpt lat="47.54556" lon="1.7641938">
        <ele>138</ele>
        <time>2022-03-17T09:40:32.000Z</time>
      </trkpt>
      <trkpt lat="47.545578" lon="1.76416">
        <ele>136</ele>
        <time>2022-03-17T09:40:33.000Z</time>
      </trkpt>
      <trkpt lat="47.545586" lon="1.7641484">
        <ele>136</ele>
        <time>2022-03-17T09:40:34.000Z</time>
      </trkpt>
      <trkpt lat="47.545593" lon="1.7641429">
        <ele>135</ele>
        <time>2022-03-17T09:40:35.000Z</time>
      </trkpt>
      <trkpt lat="47.545605" lon="1.7641311">
        <ele>135</ele>
        <time>2022-03-17T09:40:36.000Z</time>
      </trkpt>
      <trkpt lat="47.545612" lon="1.7641195">
        <ele>135</ele>
        <time>2022-03-17T09:40:37.000Z</time>
      </trkpt>
      <trkpt lat="47.545624" lon="1.7641133">
        <ele>134</ele>
        <time>2022-03-17T09:40:38.000Z</time>
      </trkpt>
      <trkpt lat="47.54563" lon="1.7641065">
        <ele>134</ele>
        <time>2022-03-17T09:40:39.000Z</time>
      </trkpt>
      <trkpt lat="47.545643" lon="1.7641008">
        <ele>133</ele>
        <time>2022-03-17T09:40:40.000Z</time>
      </trkpt>
      <trkpt lat="47.545654" lon="1.7640904">
        <ele>133</ele>
        <time>2022-03-17T09:40:41.000Z</time>
      </trkpt>
      <trkpt lat="47.545666" lon="1.7640835">
        <ele>133</ele>
        <time>2022-03-17T09:40:42.000Z</time>
      </trkpt>
      <trkpt lat="47.545677" lon="1.764078">
        <ele>133</ele>
        <time>2022-03-17T09:40:43.000Z</time>
      </trkpt>
      <trkpt lat="47.54569" lon="1.7640718">
        <ele>133</ele>
        <time>2022-03-17T09:40:44.000Z</time>
      </trkpt>
      <trkpt lat="47.545692" lon="1.7640646">
        <ele>133</ele>
        <time>2022-03-17T09:40:45.000Z</time>
      </trkpt>
      <trkpt lat="47.5457" lon="1.764057">
        <ele>133</ele>
        <time>2022-03-17T09:40:46.000Z</time>
      </trkpt>
      <trkpt lat="47.54571" lon="1.7640494">
        <ele>134</ele>
        <time>2022-03-17T09:40:47.000Z</time>
      </trkpt>
      <trkpt lat="47.545723" lon="1.764039">
        <ele>133</ele>
        <time>2022-03-17T09:40:48.000Z</time>
      </trkpt>
      <trkpt lat="47.545734" lon="1.7640265">
        <ele>133</ele>
        <time>2022-03-17T09:40:49.000Z</time>
      </trkpt>
      <trkpt lat="47.545746" lon="1.7640176">
        <ele>133</ele>
        <time>2022-03-17T09:40:50.000Z</time>
      </trkpt>
      <trkpt lat="47.54576" lon="1.7640057">
        <ele>132</ele>
        <time>2022-03-17T09:40:51.000Z</time>
      </trkpt>
      <trkpt lat="47.54577" lon="1.7639958">
        <ele>133</ele>
        <time>2022-03-17T09:40:52.000Z</time>
      </trkpt>
      <trkpt lat="47.54578" lon="1.7639852">
        <ele>133</ele>
        <time>2022-03-17T09:40:53.000Z</time>
      </trkpt>
      <trkpt lat="47.54579" lon="1.7639775">
        <ele>133</ele>
        <time>2022-03-17T09:40:54.000Z</time>
      </trkpt>
      <trkpt lat="47.545803" lon="1.763971">
        <ele>133</ele>
        <time>2022-03-17T09:40:55.000Z</time>
      </trkpt>
      <trkpt lat="47.545815" lon="1.7639633">
        <ele>133</ele>
        <time>2022-03-17T09:40:56.000Z</time>
      </trkpt>
      <trkpt lat="47.545826" lon="1.7639531">
        <ele>133</ele>
        <time>2022-03-17T09:40:57.000Z</time>
      </trkpt>
      <trkpt lat="47.545834" lon="1.7639396">
        <ele>133</ele>
        <time>2022-03-17T09:40:58.000Z</time>
      </trkpt>
      <trkpt lat="47.545845" lon="1.763929">
        <ele>133</ele>
        <time>2022-03-17T09:40:59.000Z</time>
      </trkpt>
      <trkpt lat="47.54586" lon="1.7639155">
        <ele>134</ele>
        <time>2022-03-17T09:41:00.000Z</time>
      </trkpt>
      <trkpt lat="47.54587" lon="1.7639033">
        <ele>134</ele>
        <time>2022-03-17T09:41:01.000Z</time>
      </trkpt>
      <trkpt lat="47.545883" lon="1.763892">
        <ele>133</ele>
        <time>2022-03-17T09:41:02.000Z</time>
      </trkpt>
      <trkpt lat="47.545895" lon="1.763882">
        <ele>133</ele>
        <time>2022-03-17T09:41:03.000Z</time>
      </trkpt>
      <trkpt lat="47.545906" lon="1.7638732">
        <ele>134</ele>
        <time>2022-03-17T09:41:04.000Z</time>
      </trkpt>
      <trkpt lat="47.545918" lon="1.7638668">
        <ele>134</ele>
        <time>2022-03-17T09:41:05.000Z</time>
      </trkpt>
      <trkpt lat="47.54593" lon="1.7638576">
        <ele>134</ele>
        <time>2022-03-17T09:41:06.000Z</time>
      </trkpt>
      <trkpt lat="47.54594" lon="1.7638496">
        <ele>134</ele>
        <time>2022-03-17T09:41:07.000Z</time>
      </trkpt>
      <trkpt lat="47.54595" lon="1.7638437">
        <ele>134</ele>
        <time>2022-03-17T09:41:08.000Z</time>
      </trkpt>
      <trkpt lat="47.545963" lon="1.7638377">
        <ele>134</ele>
        <time>2022-03-17T09:41:09.000Z</time>
      </trkpt>
      <trkpt lat="47.545975" lon="1.7638324">
        <ele>135</ele>
        <time>2022-03-17T09:41:10.000Z</time>
      </trkpt>
      <trkpt lat="47.545986" lon="1.7638273">
        <ele>135</ele>
        <time>2022-03-17T09:41:11.000Z</time>
      </trkpt>
      <trkpt lat="47.546" lon="1.763821">
        <ele>136</ele>
        <time>2022-03-17T09:41:12.000Z</time>
      </trkpt>
      <trkpt lat="47.546013" lon="1.7638135">
        <ele>137</ele>
        <time>2022-03-17T09:41:13.000Z</time>
      </trkpt>
      <trkpt lat="47.546024" lon="1.7638054">
        <ele>137</ele>
        <time>2022-03-17T09:41:14.000Z</time>
      </trkpt>
      <trkpt lat="47.546032" lon="1.7637963">
        <ele>136</ele>
        <time>2022-03-17T09:41:15.000Z</time>
      </trkpt>
      <trkpt lat="47.54604" lon="1.7637908">
        <ele>136</ele>
        <time>2022-03-17T09:41:16.000Z</time>
      </trkpt>
      <trkpt lat="47.54605" lon="1.7637815">
        <ele>135</ele>
        <time>2022-03-17T09:41:17.000Z</time>
      </trkpt>
      <trkpt lat="47.54606" lon="1.7637755">
        <ele>136</ele>
        <time>2022-03-17T09:41:18.000Z</time>
      </trkpt>
      <trkpt lat="47.546066" lon="1.7637671">
        <ele>135</ele>
        <time>2022-03-17T09:41:19.000Z</time>
      </trkpt>
      <trkpt lat="47.546074" lon="1.7637594">
        <ele>135</ele>
        <time>2022-03-17T09:41:20.000Z</time>
      </trkpt>
      <trkpt lat="47.54608" lon="1.7637511">
        <ele>135</ele>
        <time>2022-03-17T09:41:21.000Z</time>
      </trkpt>
      <trkpt lat="47.54609" lon="1.7637429">
        <ele>135</ele>
        <time>2022-03-17T09:41:22.000Z</time>
      </trkpt>
      <trkpt lat="47.546097" lon="1.7637359">
        <ele>135</ele>
        <time>2022-03-17T09:41:23.000Z</time>
      </trkpt>
      <trkpt lat="47.54611" lon="1.7637247">
        <ele>135</ele>
        <time>2022-03-17T09:41:24.000Z</time>
      </trkpt>
      <trkpt lat="47.54612" lon="1.7637168">
        <ele>134</ele>
        <time>2022-03-17T09:41:25.000Z</time>
      </trkpt>
      <trkpt lat="47.546124" lon="1.7637061">
        <ele>134</ele>
        <time>2022-03-17T09:41:26.000Z</time>
      </trkpt>
      <trkpt lat="47.546135" lon="1.7636915">
        <ele>133</ele>
        <time>2022-03-17T09:41:27.000Z</time>
      </trkpt>
      <trkpt lat="47.546143" lon="1.7636803">
        <ele>133</ele>
        <time>2022-03-17T09:41:28.000Z</time>
      </trkpt>
      <trkpt lat="47.546154" lon="1.7636721">
        <ele>133</ele>
        <time>2022-03-17T09:41:29.000Z</time>
      </trkpt>
      <trkpt lat="47.54616" lon="1.7636654">
        <ele>133</ele>
        <time>2022-03-17T09:41:30.000Z</time>
      </trkpt>
      <trkpt lat="47.546173" lon="1.7636596">
        <ele>133</ele>
        <time>2022-03-17T09:41:31.000Z</time>
      </trkpt>
      <trkpt lat="47.54618" lon="1.7636516">
        <ele>132</ele>
        <time>2022-03-17T09:41:32.000Z</time>
      </trkpt>
      <trkpt lat="47.54619" lon="1.7636404">
        <ele>133</ele>
        <time>2022-03-17T09:41:33.000Z</time>
      </trkpt>
      <trkpt lat="47.546192" lon="1.7636309">
        <ele>132</ele>
        <time>2022-03-17T09:41:34.000Z</time>
      </trkpt>
      <trkpt lat="47.5462" lon="1.763621">
        <ele>132</ele>
        <time>2022-03-17T09:41:35.000Z</time>
      </trkpt>
      <trkpt lat="47.5462" lon="1.763621">
        <ele>132</ele>
        <time>2022-03-17T09:41:36.000Z</time>
      </trkpt>
      <trkpt lat="47.5462" lon="1.763621">
        <ele>132</ele>
        <time>2022-03-17T09:41:37.000Z</time>
      </trkpt>
      <trkpt lat="47.54622" lon="1.763593">
        <ele>132</ele>
        <time>2022-03-17T09:41:38.000Z</time>
      </trkpt>
      <trkpt lat="47.546227" lon="1.7635818">
        <ele>132</ele>
        <time>2022-03-17T09:41:39.000Z</time>
      </trkpt>
      <trkpt lat="47.546234" lon="1.7635722">
        <ele>132</ele>
        <time>2022-03-17T09:41:40.000Z</time>
      </trkpt>
      <trkpt lat="47.546246" lon="1.7635665">
        <ele>132</ele>
        <time>2022-03-17T09:41:41.000Z</time>
      </trkpt>
      <trkpt lat="47.546253" lon="1.7635595">
        <ele>132</ele>
        <time>2022-03-17T09:41:42.000Z</time>
      </trkpt>
      <trkpt lat="47.546265" lon="1.7635506">
        <ele>132</ele>
        <time>2022-03-17T09:41:43.000Z</time>
      </trkpt>
      <trkpt lat="47.546276" lon="1.763543">
        <ele>132</ele>
        <time>2022-03-17T09:41:44.000Z</time>
      </trkpt>
      <trkpt lat="47.546288" lon="1.7635307">
        <ele>131</ele>
        <time>2022-03-17T09:41:45.000Z</time>
      </trkpt>
      <trkpt lat="47.5463" lon="1.7635213">
        <ele>131</ele>
        <time>2022-03-17T09:41:46.000Z</time>
      </trkpt>
      <trkpt lat="47.546307" lon="1.7635082">
        <ele>131</ele>
        <time>2022-03-17T09:41:47.000Z</time>
      </trkpt>
      <trkpt lat="47.546318" lon="1.7634935">
        <ele>130</ele>
        <time>2022-03-17T09:41:48.000Z</time>
      </trkpt>
      <trkpt lat="47.546326" lon="1.7634801">
        <ele>130</ele>
        <time>2022-03-17T09:41:49.000Z</time>
      </trkpt>
      <trkpt lat="47.546337" lon="1.7634699">
        <ele>130</ele>
        <time>2022-03-17T09:41:50.000Z</time>
      </trkpt>
      <trkpt lat="47.54635" lon="1.7634537">
        <ele>129</ele>
        <time>2022-03-17T09:41:51.000Z</time>
      </trkpt>
      <trkpt lat="47.546364" lon="1.7634405">
        <ele>130</ele>
        <time>2022-03-17T09:41:52.000Z</time>
      </trkpt>
      <trkpt lat="47.54638" lon="1.7634298">
        <ele>131</ele>
        <time>2022-03-17T09:41:53.000Z</time>
      </trkpt>
      <trkpt lat="47.546387" lon="1.7634214">
        <ele>131</ele>
        <time>2022-03-17T09:41:54.000Z</time>
      </trkpt>
      <trkpt lat="47.5464" lon="1.7634106">
        <ele>131</ele>
        <time>2022-03-17T09:41:55.000Z</time>
      </trkpt>
      <trkpt lat="47.54641" lon="1.763396">
        <ele>132</ele>
        <time>2022-03-17T09:41:56.000Z</time>
      </trkpt>
      <trkpt lat="47.546425" lon="1.7633854">
        <ele>132</ele>
        <time>2022-03-17T09:41:57.000Z</time>
      </trkpt>
      <trkpt lat="47.546432" lon="1.763376">
        <ele>132</ele>
        <time>2022-03-17T09:41:58.000Z</time>
      </trkpt>
      <trkpt lat="47.54644" lon="1.763366">
        <ele>132</ele>
        <time>2022-03-17T09:41:59.000Z</time>
      </trkpt>
      <trkpt lat="47.54645" lon="1.7633574">
        <ele>133</ele>
        <time>2022-03-17T09:42:00.000Z</time>
      </trkpt>
      <trkpt lat="47.546467" lon="1.7633458">
        <ele>133</ele>
        <time>2022-03-17T09:42:01.000Z</time>
      </trkpt>
      <trkpt lat="47.546474" lon="1.7633334">
        <ele>134</ele>
        <time>2022-03-17T09:42:02.000Z</time>
      </trkpt>
      <trkpt lat="47.546486" lon="1.7633219">
        <ele>134</ele>
        <time>2022-03-17T09:42:03.000Z</time>
      </trkpt>
      <trkpt lat="47.546497" lon="1.7633109">
        <ele>134</ele>
        <time>2022-03-17T09:42:04.000Z</time>
      </trkpt>
      <trkpt lat="47.546505" lon="1.7632979">
        <ele>134</ele>
        <time>2022-03-17T09:42:05.000Z</time>
      </trkpt>
      <trkpt lat="47.546516" lon="1.7632862">
        <ele>134</ele>
        <time>2022-03-17T09:42:06.000Z</time>
      </trkpt>
      <trkpt lat="47.546528" lon="1.7632728">
        <ele>134</ele>
        <time>2022-03-17T09:42:07.000Z</time>
      </trkpt>
      <trkpt lat="47.546535" lon="1.7632607">
        <ele>135</ele>
        <time>2022-03-17T09:42:08.000Z</time>
      </trkpt>
      <trkpt lat="47.546543" lon="1.7632488">
        <ele>135</ele>
        <time>2022-03-17T09:42:09.000Z</time>
      </trkpt>
      <trkpt lat="47.546555" lon="1.7632345">
        <ele>135</ele>
        <time>2022-03-17T09:42:10.000Z</time>
      </trkpt>
      <trkpt lat="47.546566" lon="1.7632248">
        <ele>135</ele>
        <time>2022-03-17T09:42:11.000Z</time>
      </trkpt>
      <trkpt lat="47.546577" lon="1.7632143">
        <ele>135</ele>
        <time>2022-03-17T09:42:12.000Z</time>
      </trkpt>
      <trkpt lat="47.54659" lon="1.7632028">
        <ele>136</ele>
        <time>2022-03-17T09:42:13.000Z</time>
      </trkpt>
      <trkpt lat="47.546604" lon="1.7631918">
        <ele>136</ele>
        <time>2022-03-17T09:42:14.000Z</time>
      </trkpt>
      <trkpt lat="47.546604" lon="1.7631892">
        <ele>136</ele>
        <time>2022-03-17T09:42:15.000Z</time>
      </trkpt>
      <trkpt lat="47.54661" lon="1.7631836">
        <ele>137</ele>
        <time>2022-03-17T09:42:16.000Z</time>
      </trkpt>
      <trkpt lat="47.54662" lon="1.7631731">
        <ele>137</ele>
        <time>2022-03-17T09:42:17.000Z</time>
      </trkpt>
      <trkpt lat="47.54663" lon="1.7631724">
        <ele>138</ele>
        <time>2022-03-17T09:42:18.000Z</time>
      </trkpt>
      <trkpt lat="47.54664" lon="1.7631693">
        <ele>138</ele>
        <time>2022-03-17T09:42:19.000Z</time>
      </trkpt>
      <trkpt lat="47.54664" lon="1.7631688">
        <ele>139</ele>
        <time>2022-03-17T09:42:20.000Z</time>
      </trkpt>
      <trkpt lat="47.546642" lon="1.7631682">
        <ele>139</ele>
        <time>2022-03-17T09:42:21.000Z</time>
      </trkpt>
      <trkpt lat="47.546642" lon="1.7631656">
        <ele>140</ele>
        <time>2022-03-17T09:42:22.000Z</time>
      </trkpt>
      <trkpt lat="47.54665" lon="1.7631588">
        <ele>140</ele>
        <time>2022-03-17T09:42:23.000Z</time>
      </trkpt>
      <trkpt lat="47.54665" lon="1.7631588">
        <ele>140</ele>
        <time>2022-03-17T09:42:23.000Z</time>
      </trkpt>
      <trkpt lat="47.54665" lon="1.7631588">
        <ele>140</ele>
        <time>2022-03-17T09:42:23.000Z</time>
      </trkpt>
      <trkpt lat="47.546772" lon="1.763077">
        <ele>140</ele>
        <time>2022-03-17T09:42:50.000Z</time>
      </trkpt>
      <trkpt lat="47.54678" lon="1.7630715">
        <ele>140</ele>
        <time>2022-03-17T09:42:51.000Z</time>
      </trkpt>
      <trkpt lat="47.54679" lon="1.7630635">
        <ele>141</ele>
        <time>2022-03-17T09:42:52.000Z</time>
      </trkpt>
      <trkpt lat="47.546795" lon="1.7630587">
        <ele>141</ele>
        <time>2022-03-17T09:42:53.000Z</time>
      </trkpt>
      <trkpt lat="47.5468" lon="1.7630543">
        <ele>141</ele>
        <time>2022-03-17T09:42:54.000Z</time>
      </trkpt>
      <trkpt lat="47.546806" lon="1.7630535">
        <ele>140</ele>
        <time>2022-03-17T09:42:55.000Z</time>
      </trkpt>
      <trkpt lat="47.546814" lon="1.763052">
        <ele>140</ele>
        <time>2022-03-17T09:42:56.000Z</time>
      </trkpt>
      <trkpt lat="47.546825" lon="1.7630523">
        <ele>140</ele>
        <time>2022-03-17T09:42:57.000Z</time>
      </trkpt>
      <trkpt lat="47.546833" lon="1.763052">
        <ele>141</ele>
        <time>2022-03-17T09:42:58.000Z</time>
      </trkpt>
      <trkpt lat="47.54684" lon="1.7630496">
        <ele>141</ele>
        <time>2022-03-17T09:42:59.000Z</time>
      </trkpt>
      <trkpt lat="47.546852" lon="1.7630491">
        <ele>141</ele>
        <time>2022-03-17T09:43:00.000Z</time>
      </trkpt>
      <trkpt lat="47.546864" lon="1.7630494">
        <ele>141</ele>
        <time>2022-03-17T09:43:01.000Z</time>
      </trkpt>
      <trkpt lat="47.546875" lon="1.7630455">
        <ele>141</ele>
        <time>2022-03-17T09:43:02.000Z</time>
      </trkpt>
      <trkpt lat="47.546883" lon="1.7630421">
        <ele>142</ele>
        <time>2022-03-17T09:43:03.000Z</time>
      </trkpt>
      <trkpt lat="47.54689" lon="1.7630429">
        <ele>142</ele>
        <time>2022-03-17T09:43:04.000Z</time>
      </trkpt>
      <trkpt lat="47.5469" lon="1.7630447">
        <ele>143</ele>
        <time>2022-03-17T09:43:05.000Z</time>
      </trkpt>
      <trkpt lat="47.546913" lon="1.7630479">
        <ele>143</ele>
        <time>2022-03-17T09:43:06.000Z</time>
      </trkpt>
      <trkpt lat="47.546925" lon="1.7630452">
        <ele>143</ele>
        <time>2022-03-17T09:43:07.000Z</time>
      </trkpt>
      <trkpt lat="47.546932" lon="1.7630472">
        <ele>143</ele>
        <time>2022-03-17T09:43:08.000Z</time>
      </trkpt>
      <trkpt lat="47.546944" lon="1.7630483">
        <ele>142</ele>
        <time>2022-03-17T09:43:09.000Z</time>
      </trkpt>
      <trkpt lat="47.54696" lon="1.763046">
        <ele>142</ele>
        <time>2022-03-17T09:43:10.000Z</time>
      </trkpt>
      <trkpt lat="47.546967" lon="1.763042">
        <ele>142</ele>
        <time>2022-03-17T09:43:11.000Z</time>
      </trkpt>
      <trkpt lat="47.546978" lon="1.7630382">
        <ele>142</ele>
        <time>2022-03-17T09:43:12.000Z</time>
      </trkpt>
      <trkpt lat="47.546993" lon="1.7630332">
        <ele>142</ele>
        <time>2022-03-17T09:43:13.000Z</time>
      </trkpt>
      <trkpt lat="47.547" lon="1.7630358">
        <ele>142</ele>
        <time>2022-03-17T09:43:14.000Z</time>
      </trkpt>
      <trkpt lat="47.547012" lon="1.7630376">
        <ele>142</ele>
        <time>2022-03-17T09:43:15.000Z</time>
      </trkpt>
      <trkpt lat="47.547028" lon="1.7630398">
        <ele>142</ele>
        <time>2022-03-17T09:43:16.000Z</time>
      </trkpt>
      <trkpt lat="47.54704" lon="1.7630404">
        <ele>141</ele>
        <time>2022-03-17T09:43:17.000Z</time>
      </trkpt>
      <trkpt lat="47.54705" lon="1.7630465">
        <ele>141</ele>
        <time>2022-03-17T09:43:18.000Z</time>
      </trkpt>
      <trkpt lat="47.547062" lon="1.7630501">
        <ele>141</ele>
        <time>2022-03-17T09:43:19.000Z</time>
      </trkpt>
      <trkpt lat="47.547073" lon="1.7630482">
        <ele>142</ele>
        <time>2022-03-17T09:43:20.000Z</time>
      </trkpt>
      <trkpt lat="47.54708" lon="1.7630465">
        <ele>142</ele>
        <time>2022-03-17T09:43:21.000Z</time>
      </trkpt>
      <trkpt lat="47.547092" lon="1.7630445">
        <ele>143</ele>
        <time>2022-03-17T09:43:22.000Z</time>
      </trkpt>
      <trkpt lat="47.5471" lon="1.7630447">
        <ele>143</ele>
        <time>2022-03-17T09:43:23.000Z</time>
      </trkpt>
      <trkpt lat="47.54711" lon="1.763043">
        <ele>143</ele>
        <time>2022-03-17T09:43:24.000Z</time>
      </trkpt>
      <trkpt lat="47.54712" lon="1.763043">
        <ele>143</ele>
        <time>2022-03-17T09:43:25.000Z</time>
      </trkpt>
      <trkpt lat="47.54713" lon="1.7630373">
        <ele>143</ele>
        <time>2022-03-17T09:43:26.000Z</time>
      </trkpt>
      <trkpt lat="47.547142" lon="1.7630345">
        <ele>143</ele>
        <time>2022-03-17T09:43:27.000Z</time>
      </trkpt>
      <trkpt lat="47.547153" lon="1.7630342">
        <ele>143</ele>
        <time>2022-03-17T09:43:28.000Z</time>
      </trkpt>
      <trkpt lat="47.547165" lon="1.7630342">
        <ele>143</ele>
        <time>2022-03-17T09:43:29.000Z</time>
      </trkpt>
      <trkpt lat="47.54718" lon="1.763029">
        <ele>143</ele>
        <time>2022-03-17T09:43:30.000Z</time>
      </trkpt>
      <trkpt lat="47.54719" lon="1.7630293">
        <ele>142</ele>
        <time>2022-03-17T09:43:31.000Z</time>
      </trkpt>
      <trkpt lat="47.547203" lon="1.7630252">
        <ele>142</ele>
        <time>2022-03-17T09:43:32.000Z</time>
      </trkpt>
      <trkpt lat="47.547215" lon="1.7630218">
        <ele>142</ele>
        <time>2022-03-17T09:43:33.000Z</time>
      </trkpt>
      <trkpt lat="47.547226" lon="1.7630247">
        <ele>142</ele>
        <time>2022-03-17T09:43:34.000Z</time>
      </trkpt>
      <trkpt lat="47.547237" lon="1.7630255">
        <ele>141</ele>
        <time>2022-03-17T09:43:35.000Z</time>
      </trkpt>
      <trkpt lat="47.54725" lon="1.7630231">
        <ele>141</ele>
        <time>2022-03-17T09:43:36.000Z</time>
      </trkpt>
      <trkpt lat="47.54726" lon="1.7630199">
        <ele>141</ele>
        <time>2022-03-17T09:43:37.000Z</time>
      </trkpt>
      <trkpt lat="47.54727" lon="1.7630223">
        <ele>141</ele>
        <time>2022-03-17T09:43:38.000Z</time>
      </trkpt>
      <trkpt lat="47.547287" lon="1.7630254">
        <ele>141</ele>
        <time>2022-03-17T09:43:39.000Z</time>
      </trkpt>
      <trkpt lat="47.5473" lon="1.7630289">
        <ele>141</ele>
        <time>2022-03-17T09:43:40.000Z</time>
      </trkpt>
      <trkpt lat="47.547306" lon="1.7630284">
        <ele>140</ele>
        <time>2022-03-17T09:43:41.000Z</time>
      </trkpt>
      <trkpt lat="47.547318" lon="1.7630271">
        <ele>140</ele>
        <time>2022-03-17T09:43:42.000Z</time>
      </trkpt>
      <trkpt lat="47.54733" lon="1.7630262">
        <ele>140</ele>
        <time>2022-03-17T09:43:43.000Z</time>
      </trkpt>
      <trkpt lat="47.547337" lon="1.7630268">
        <ele>141</ele>
        <time>2022-03-17T09:43:44.000Z</time>
      </trkpt>
      <trkpt lat="47.547344" lon="1.7630243">
        <ele>142</ele>
        <time>2022-03-17T09:43:45.000Z</time>
      </trkpt>
      <trkpt lat="47.547356" lon="1.7630274">
        <ele>142</ele>
        <time>2022-03-17T09:43:46.000Z</time>
      </trkpt>
      <trkpt lat="47.547367" lon="1.7630296">
        <ele>142</ele>
        <time>2022-03-17T09:43:47.000Z</time>
      </trkpt>
      <trkpt lat="47.54738" lon="1.7630285">
        <ele>142</ele>
        <time>2022-03-17T09:43:48.000Z</time>
      </trkpt>
      <trkpt lat="47.547386" lon="1.7630299">
        <ele>142</ele>
        <time>2022-03-17T09:43:49.000Z</time>
      </trkpt>
      <trkpt lat="47.547398" lon="1.7630298">
        <ele>141</ele>
        <time>2022-03-17T09:43:50.000Z</time>
      </trkpt>
      <trkpt lat="47.54741" lon="1.763029">
        <ele>141</ele>
        <time>2022-03-17T09:43:51.000Z</time>
      </trkpt>
      <trkpt lat="47.54742" lon="1.7630299">
        <ele>140</ele>
        <time>2022-03-17T09:43:52.000Z</time>
      </trkpt>
      <trkpt lat="47.547432" lon="1.7630334">
        <ele>141</ele>
        <time>2022-03-17T09:43:53.000Z</time>
      </trkpt>
      <trkpt lat="47.547443" lon="1.7630353">
        <ele>141</ele>
        <time>2022-03-17T09:43:54.000Z</time>
      </trkpt>
      <trkpt lat="47.54745" lon="1.763035">
        <ele>141</ele>
        <time>2022-03-17T09:43:55.000Z</time>
      </trkpt>
      <trkpt lat="47.547462" lon="1.7630329">
        <ele>141</ele>
        <time>2022-03-17T09:43:56.000Z</time>
      </trkpt>
      <trkpt lat="47.547474" lon="1.7630312">
        <ele>141</ele>
        <time>2022-03-17T09:43:57.000Z</time>
      </trkpt>
      <trkpt lat="47.547485" lon="1.7630298">
        <ele>141</ele>
        <time>2022-03-17T09:43:58.000Z</time>
      </trkpt>
      <trkpt lat="47.547493" lon="1.7630352">
        <ele>141</ele>
        <time>2022-03-17T09:43:59.000Z</time>
      </trkpt>
      <trkpt lat="47.547504" lon="1.7630405">
        <ele>141</ele>
        <time>2022-03-17T09:44:00.000Z</time>
      </trkpt>
      <trkpt lat="47.547516" lon="1.7630415">
        <ele>141</ele>
        <time>2022-03-17T09:44:01.000Z</time>
      </trkpt>
      <trkpt lat="47.547527" lon="1.7630463">
        <ele>141</ele>
        <time>2022-03-17T09:44:02.000Z</time>
      </trkpt>
      <trkpt lat="47.547543" lon="1.7630534">
        <ele>141</ele>
        <time>2022-03-17T09:44:03.000Z</time>
      </trkpt>
      <trkpt lat="47.54755" lon="1.7630543">
        <ele>141</ele>
        <time>2022-03-17T09:44:04.000Z</time>
      </trkpt>
      <trkpt lat="47.54756" lon="1.7630572">
        <ele>141</ele>
        <time>2022-03-17T09:44:05.000Z</time>
      </trkpt>
      <trkpt lat="47.547573" lon="1.7630526">
        <ele>142</ele>
        <time>2022-03-17T09:44:06.000Z</time>
      </trkpt>
      <trkpt lat="47.547585" lon="1.7630537">
        <ele>142</ele>
        <time>2022-03-17T09:44:07.000Z</time>
      </trkpt>
      <trkpt lat="47.547596" lon="1.7630571">
        <ele>142</ele>
        <time>2022-03-17T09:44:08.000Z</time>
      </trkpt>
      <trkpt lat="47.547604" lon="1.7630584">
        <ele>143</ele>
        <time>2022-03-17T09:44:09.000Z</time>
      </trkpt>
      <trkpt lat="47.547615" lon="1.763063">
        <ele>143</ele>
        <time>2022-03-17T09:44:10.000Z</time>
      </trkpt>
      <trkpt lat="47.547623" lon="1.7630625">
        <ele>144</ele>
        <time>2022-03-17T09:44:11.000Z</time>
      </trkpt>
      <trkpt lat="47.547634" lon="1.7630621">
        <ele>144</ele>
        <time>2022-03-17T09:44:12.000Z</time>
      </trkpt>
      <trkpt lat="47.547646" lon="1.7630651">
        <ele>143</ele>
        <time>2022-03-17T09:44:13.000Z</time>
      </trkpt>
      <trkpt lat="47.547657" lon="1.7630687">
        <ele>143</ele>
        <time>2022-03-17T09:44:14.000Z</time>
      </trkpt>
      <trkpt lat="47.547672" lon="1.7630689">
        <ele>143</ele>
        <time>2022-03-17T09:44:15.000Z</time>
      </trkpt>
      <trkpt lat="47.54768" lon="1.763071">
        <ele>144</ele>
        <time>2022-03-17T09:44:16.000Z</time>
      </trkpt>
      <trkpt lat="47.54769" lon="1.7630697">
        <ele>143</ele>
        <time>2022-03-17T09:44:17.000Z</time>
      </trkpt>
      <trkpt lat="47.547703" lon="1.763065">
        <ele>143</ele>
        <time>2022-03-17T09:44:18.000Z</time>
      </trkpt>
      <trkpt lat="47.547714" lon="1.7630659">
        <ele>143</ele>
        <time>2022-03-17T09:44:19.000Z</time>
      </trkpt>
      <trkpt lat="47.547726" lon="1.7630734">
        <ele>143</ele>
        <time>2022-03-17T09:44:20.000Z</time>
      </trkpt>
      <trkpt lat="47.547733" lon="1.7630751">
        <ele>143</ele>
        <time>2022-03-17T09:44:21.000Z</time>
      </trkpt>
      <trkpt lat="47.547745" lon="1.7630781">
        <ele>144</ele>
        <time>2022-03-17T09:44:22.000Z</time>
      </trkpt>
      <trkpt lat="47.547756" lon="1.7630755">
        <ele>144</ele>
        <time>2022-03-17T09:44:23.000Z</time>
      </trkpt>
      <trkpt lat="47.547768" lon="1.7630751">
        <ele>144</ele>
        <time>2022-03-17T09:44:24.000Z</time>
      </trkpt>
      <trkpt lat="47.54778" lon="1.7630712">
        <ele>144</ele>
        <time>2022-03-17T09:44:25.000Z</time>
      </trkpt>
      <trkpt lat="47.54779" lon="1.7630734">
        <ele>144</ele>
        <time>2022-03-17T09:44:26.000Z</time>
      </trkpt>
      <trkpt lat="47.547806" lon="1.7630738">
        <ele>144</ele>
        <time>2022-03-17T09:44:27.000Z</time>
      </trkpt>
      <trkpt lat="47.547817" lon="1.763086">
        <ele>144</ele>
        <time>2022-03-17T09:44:28.000Z</time>
      </trkpt>
      <trkpt lat="47.54783" lon="1.7630883">
        <ele>143</ele>
        <time>2022-03-17T09:44:29.000Z</time>
      </trkpt>
      <trkpt lat="47.54784" lon="1.7630882">
        <ele>143</ele>
        <time>2022-03-17T09:44:30.000Z</time>
      </trkpt>
      <trkpt lat="47.54785" lon="1.7630901">
        <ele>144</ele>
        <time>2022-03-17T09:44:31.000Z</time>
      </trkpt>
      <trkpt lat="47.547863" lon="1.7630867">
        <ele>144</ele>
        <time>2022-03-17T09:44:32.000Z</time>
      </trkpt>
      <trkpt lat="47.547874" lon="1.7630867">
        <ele>144</ele>
        <time>2022-03-17T09:44:33.000Z</time>
      </trkpt>
      <trkpt lat="47.547886" lon="1.7630897">
        <ele>144</ele>
        <time>2022-03-17T09:44:34.000Z</time>
      </trkpt>
      <trkpt lat="47.547897" lon="1.7630938">
        <ele>143</ele>
        <time>2022-03-17T09:44:35.000Z</time>
      </trkpt>
      <trkpt lat="47.547905" lon="1.7630974">
        <ele>143</ele>
        <time>2022-03-17T09:44:36.000Z</time>
      </trkpt>
      <trkpt lat="47.547916" lon="1.7631">
        <ele>143</ele>
        <time>2022-03-17T09:44:37.000Z</time>
      </trkpt>
      <trkpt lat="47.547928" lon="1.7631054">
        <ele>143</ele>
        <time>2022-03-17T09:44:38.000Z</time>
      </trkpt>
      <trkpt lat="47.54794" lon="1.7631085">
        <ele>143</ele>
        <time>2022-03-17T09:44:39.000Z</time>
      </trkpt>
      <trkpt lat="47.547947" lon="1.7631046">
        <ele>143</ele>
        <time>2022-03-17T09:44:40.000Z</time>
      </trkpt>
      <trkpt lat="47.54796" lon="1.7631087">
        <ele>143</ele>
        <time>2022-03-17T09:44:41.000Z</time>
      </trkpt>
      <trkpt lat="47.54797" lon="1.7631086">
        <ele>143</ele>
        <time>2022-03-17T09:44:42.000Z</time>
      </trkpt>
      <trkpt lat="47.54798" lon="1.7631123">
        <ele>143</ele>
        <time>2022-03-17T09:44:43.000Z</time>
      </trkpt>
      <trkpt lat="47.547993" lon="1.7631149">
        <ele>143</ele>
        <time>2022-03-17T09:44:44.000Z</time>
      </trkpt>
      <trkpt lat="47.548" lon="1.763113">
        <ele>143</ele>
        <time>2022-03-17T09:44:45.000Z</time>
      </trkpt>
      <trkpt lat="47.54801" lon="1.7631184">
        <ele>143</ele>
        <time>2022-03-17T09:44:46.000Z</time>
      </trkpt>
      <trkpt lat="47.548023" lon="1.763125">
        <ele>143</ele>
        <time>2022-03-17T09:44:47.000Z</time>
      </trkpt>
      <trkpt lat="47.548035" lon="1.7631283">
        <ele>144</ele>
        <time>2022-03-17T09:44:48.000Z</time>
      </trkpt>
      <trkpt lat="47.548042" lon="1.7631286">
        <ele>144</ele>
        <time>2022-03-17T09:44:49.000Z</time>
      </trkpt>
      <trkpt lat="47.548058" lon="1.7631339">
        <ele>144</ele>
        <time>2022-03-17T09:44:50.000Z</time>
      </trkpt>
      <trkpt lat="47.54807" lon="1.763137">
        <ele>144</ele>
        <time>2022-03-17T09:44:51.000Z</time>
      </trkpt>
      <trkpt lat="47.54808" lon="1.7631409">
        <ele>144</ele>
        <time>2022-03-17T09:44:52.000Z</time>
      </trkpt>
      <trkpt lat="47.54809" lon="1.7631389">
        <ele>144</ele>
        <time>2022-03-17T09:44:53.000Z</time>
      </trkpt>
      <trkpt lat="47.5481" lon="1.7631421">
        <ele>144</ele>
        <time>2022-03-17T09:44:54.000Z</time>
      </trkpt>
      <trkpt lat="47.54811" lon="1.7631538">
        <ele>145</ele>
        <time>2022-03-17T09:44:55.000Z</time>
      </trkpt>
      <trkpt lat="47.548126" lon="1.7631545">
        <ele>145</ele>
        <time>2022-03-17T09:44:56.000Z</time>
      </trkpt>
      <trkpt lat="47.548138" lon="1.7631539">
        <ele>145</ele>
        <time>2022-03-17T09:44:57.000Z</time>
      </trkpt>
      <trkpt lat="47.54815" lon="1.7631558">
        <ele>145</ele>
        <time>2022-03-17T09:44:58.000Z</time>
      </trkpt>
      <trkpt lat="47.548157" lon="1.7631586">
        <ele>145</ele>
        <time>2022-03-17T09:44:59.000Z</time>
      </trkpt>
      <trkpt lat="47.548164" lon="1.7631618">
        <ele>145</ele>
        <time>2022-03-17T09:45:00.000Z</time>
      </trkpt>
      <trkpt lat="47.548172" lon="1.7631658">
        <ele>144</ele>
        <time>2022-03-17T09:45:01.000Z</time>
      </trkpt>
      <trkpt lat="47.548183" lon="1.7631762">
        <ele>144</ele>
        <time>2022-03-17T09:45:02.000Z</time>
      </trkpt>
      <trkpt lat="47.548195" lon="1.7631822">
        <ele>143</ele>
        <time>2022-03-17T09:45:03.000Z</time>
      </trkpt>
      <trkpt lat="47.548206" lon="1.7631878">
        <ele>143</ele>
        <time>2022-03-17T09:45:04.000Z</time>
      </trkpt>
      <trkpt lat="47.54822" lon="1.7631924">
        <ele>143</ele>
        <time>2022-03-17T09:45:05.000Z</time>
      </trkpt>
      <trkpt lat="47.54823" lon="1.7631994">
        <ele>143</ele>
        <time>2022-03-17T09:45:06.000Z</time>
      </trkpt>
      <trkpt lat="47.548237" lon="1.7632039">
        <ele>144</ele>
        <time>2022-03-17T09:45:07.000Z</time>
      </trkpt>
      <trkpt lat="47.548244" lon="1.763206">
        <ele>144</ele>
        <time>2022-03-17T09:45:08.000Z</time>
      </trkpt>
      <trkpt lat="47.548256" lon="1.7632104">
        <ele>144</ele>
        <time>2022-03-17T09:45:09.000Z</time>
      </trkpt>
      <trkpt lat="47.548264" lon="1.7632113">
        <ele>143</ele>
        <time>2022-03-17T09:45:10.000Z</time>
      </trkpt>
      <trkpt lat="47.54828" lon="1.7632145">
        <ele>143</ele>
        <time>2022-03-17T09:45:11.000Z</time>
      </trkpt>
      <trkpt lat="47.54829" lon="1.7632174">
        <ele>143</ele>
        <time>2022-03-17T09:45:12.000Z</time>
      </trkpt>
      <trkpt lat="47.5483" lon="1.7632214">
        <ele>143</ele>
        <time>2022-03-17T09:45:13.000Z</time>
      </trkpt>
      <trkpt lat="47.548313" lon="1.7632239">
        <ele>144</ele>
        <time>2022-03-17T09:45:14.000Z</time>
      </trkpt>
      <trkpt lat="47.548325" lon="1.7632234">
        <ele>144</ele>
        <time>2022-03-17T09:45:15.000Z</time>
      </trkpt>
      <trkpt lat="47.548344" lon="1.7632239">
        <ele>144</ele>
        <time>2022-03-17T09:45:16.000Z</time>
      </trkpt>
      <trkpt lat="47.548355" lon="1.7632272">
        <ele>145</ele>
        <time>2022-03-17T09:45:17.000Z</time>
      </trkpt>
      <trkpt lat="47.548367" lon="1.7632304">
        <ele>145</ele>
        <time>2022-03-17T09:45:18.000Z</time>
      </trkpt>
      <trkpt lat="47.548378" lon="1.7632319">
        <ele>145</ele>
        <time>2022-03-17T09:45:19.000Z</time>
      </trkpt>
      <trkpt lat="47.54839" lon="1.7632314">
        <ele>145</ele>
        <time>2022-03-17T09:45:20.000Z</time>
      </trkpt>
      <trkpt lat="47.548397" lon="1.7632352">
        <ele>145</ele>
        <time>2022-03-17T09:45:21.000Z</time>
      </trkpt>
      <trkpt lat="47.54841" lon="1.7632396">
        <ele>145</ele>
        <time>2022-03-17T09:45:22.000Z</time>
      </trkpt>
      <trkpt lat="47.54842" lon="1.7632499">
        <ele>145</ele>
        <time>2022-03-17T09:45:23.000Z</time>
      </trkpt>
      <trkpt lat="47.548428" lon="1.763258">
        <ele>145</ele>
        <time>2022-03-17T09:45:24.000Z</time>
      </trkpt>
      <trkpt lat="47.54844" lon="1.7632618">
        <ele>146</ele>
        <time>2022-03-17T09:45:25.000Z</time>
      </trkpt>
      <trkpt lat="47.54845" lon="1.7632648">
        <ele>146</ele>
        <time>2022-03-17T09:45:26.000Z</time>
      </trkpt>
      <trkpt lat="47.548462" lon="1.7632703">
        <ele>146</ele>
        <time>2022-03-17T09:45:27.000Z</time>
      </trkpt>
      <trkpt lat="47.54847" lon="1.7632756">
        <ele>146</ele>
        <time>2022-03-17T09:45:28.000Z</time>
      </trkpt>
      <trkpt lat="47.54848" lon="1.7632816">
        <ele>146</ele>
        <time>2022-03-17T09:45:29.000Z</time>
      </trkpt>
      <trkpt lat="47.54849" lon="1.7632867">
        <ele>147</ele>
        <time>2022-03-17T09:45:30.000Z</time>
      </trkpt>
      <trkpt lat="47.5485" lon="1.7632923">
        <ele>147</ele>
        <time>2022-03-17T09:45:31.000Z</time>
      </trkpt>
      <trkpt lat="47.54851" lon="1.7632903">
        <ele>147</ele>
        <time>2022-03-17T09:45:32.000Z</time>
      </trkpt>
      <trkpt lat="47.548523" lon="1.7632924">
        <ele>146</ele>
        <time>2022-03-17T09:45:33.000Z</time>
      </trkpt>
      <trkpt lat="47.548534" lon="1.7632982">
        <ele>146</ele>
        <time>2022-03-17T09:45:34.000Z</time>
      </trkpt>
      <trkpt lat="47.548546" lon="1.7633016">
        <ele>146</ele>
        <time>2022-03-17T09:45:35.000Z</time>
      </trkpt>
      <trkpt lat="47.54856" lon="1.7633065">
        <ele>146</ele>
        <time>2022-03-17T09:45:36.000Z</time>
      </trkpt>
      <trkpt lat="47.548573" lon="1.7633095">
        <ele>146</ele>
        <time>2022-03-17T09:45:37.000Z</time>
      </trkpt>
      <trkpt lat="47.548584" lon="1.763314">
        <ele>146</ele>
        <time>2022-03-17T09:45:38.000Z</time>
      </trkpt>
      <trkpt lat="47.548595" lon="1.7633191">
        <ele>146</ele>
        <time>2022-03-17T09:45:39.000Z</time>
      </trkpt>
      <trkpt lat="47.54861" lon="1.7633189">
        <ele>146</ele>
        <time>2022-03-17T09:45:40.000Z</time>
      </trkpt>
      <trkpt lat="47.548622" lon="1.7633232">
        <ele>146</ele>
        <time>2022-03-17T09:45:41.000Z</time>
      </trkpt>
      <trkpt lat="47.548634" lon="1.7633286">
        <ele>146</ele>
        <time>2022-03-17T09:45:42.000Z</time>
      </trkpt>
      <trkpt lat="47.54864" lon="1.7633348">
        <ele>146</ele>
        <time>2022-03-17T09:45:43.000Z</time>
      </trkpt>
      <trkpt lat="47.548653" lon="1.7633351">
        <ele>146</ele>
        <time>2022-03-17T09:45:44.000Z</time>
      </trkpt>
      <trkpt lat="47.548664" lon="1.763335">
        <ele>146</ele>
        <time>2022-03-17T09:45:45.000Z</time>
      </trkpt>
      <trkpt lat="47.548676" lon="1.763337">
        <ele>145</ele>
        <time>2022-03-17T09:45:46.000Z</time>
      </trkpt>
      <trkpt lat="47.548687" lon="1.763334">
        <ele>145</ele>
        <time>2022-03-17T09:45:47.000Z</time>
      </trkpt>
      <trkpt lat="47.5487" lon="1.7633373">
        <ele>145</ele>
        <time>2022-03-17T09:45:48.000Z</time>
      </trkpt>
      <trkpt lat="47.54871" lon="1.7633454">
        <ele>144</ele>
        <time>2022-03-17T09:45:49.000Z</time>
      </trkpt>
      <trkpt lat="47.548717" lon="1.7633488">
        <ele>144</ele>
        <time>2022-03-17T09:45:50.000Z</time>
      </trkpt>
      <trkpt lat="47.54873" lon="1.7633535">
        <ele>144</ele>
        <time>2022-03-17T09:45:51.000Z</time>
      </trkpt>
      <trkpt lat="47.54874" lon="1.7633575">
        <ele>144</ele>
        <time>2022-03-17T09:45:52.000Z</time>
      </trkpt>
      <trkpt lat="47.54875" lon="1.7633585">
        <ele>144</ele>
        <time>2022-03-17T09:45:53.000Z</time>
      </trkpt>
      <trkpt lat="47.548763" lon="1.7633564">
        <ele>144</ele>
        <time>2022-03-17T09:45:54.000Z</time>
      </trkpt>
      <trkpt lat="47.548775" lon="1.7633611">
        <ele>143</ele>
        <time>2022-03-17T09:45:55.000Z</time>
      </trkpt>
      <trkpt lat="47.54879" lon="1.7633629">
        <ele>143</ele>
        <time>2022-03-17T09:45:56.000Z</time>
      </trkpt>
      <trkpt lat="47.548798" lon="1.7633654">
        <ele>143</ele>
        <time>2022-03-17T09:45:57.000Z</time>
      </trkpt>
      <trkpt lat="47.548813" lon="1.7633702">
        <ele>143</ele>
        <time>2022-03-17T09:45:58.000Z</time>
      </trkpt>
      <trkpt lat="47.54882" lon="1.7633715">
        <ele>143</ele>
        <time>2022-03-17T09:45:59.000Z</time>
      </trkpt>
      <trkpt lat="47.548836" lon="1.7633735">
        <ele>143</ele>
        <time>2022-03-17T09:46:00.000Z</time>
      </trkpt>
      <trkpt lat="47.548847" lon="1.7633777">
        <ele>143</ele>
        <time>2022-03-17T09:46:01.000Z</time>
      </trkpt>
      <trkpt lat="47.54886" lon="1.7633836">
        <ele>143</ele>
        <time>2022-03-17T09:46:02.000Z</time>
      </trkpt>
      <trkpt lat="47.54887" lon="1.763382">
        <ele>143</ele>
        <time>2022-03-17T09:46:03.000Z</time>
      </trkpt>
      <trkpt lat="47.54888" lon="1.7633821">
        <ele>143</ele>
        <time>2022-03-17T09:46:04.000Z</time>
      </trkpt>
      <trkpt lat="47.548893" lon="1.7633832">
        <ele>143</ele>
        <time>2022-03-17T09:46:05.000Z</time>
      </trkpt>
      <trkpt lat="47.548904" lon="1.7633817">
        <ele>143</ele>
        <time>2022-03-17T09:46:06.000Z</time>
      </trkpt>
      <trkpt lat="47.548916" lon="1.7633805">
        <ele>143</ele>
        <time>2022-03-17T09:46:07.000Z</time>
      </trkpt>
      <trkpt lat="47.54893" lon="1.7633784">
        <ele>144</ele>
        <time>2022-03-17T09:46:08.000Z</time>
      </trkpt>
      <trkpt lat="47.548943" lon="1.7633824">
        <ele>143</ele>
        <time>2022-03-17T09:46:09.000Z</time>
      </trkpt>
      <trkpt lat="47.548954" lon="1.7633865">
        <ele>144</ele>
        <time>2022-03-17T09:46:10.000Z</time>
      </trkpt>
      <trkpt lat="47.54896" lon="1.7633888">
        <ele>144</ele>
        <time>2022-03-17T09:46:11.000Z</time>
      </trkpt>
      <trkpt lat="47.548973" lon="1.7633951">
        <ele>144</ele>
        <time>2022-03-17T09:46:12.000Z</time>
      </trkpt>
      <trkpt lat="47.548985" lon="1.763399">
        <ele>145</ele>
        <time>2022-03-17T09:46:13.000Z</time>
      </trkpt>
      <trkpt lat="47.548996" lon="1.7633964">
        <ele>145</ele>
        <time>2022-03-17T09:46:14.000Z</time>
      </trkpt>
      <trkpt lat="47.549007" lon="1.7633984">
        <ele>145</ele>
        <time>2022-03-17T09:46:15.000Z</time>
      </trkpt>
      <trkpt lat="47.54902" lon="1.7634019">
        <ele>145</ele>
        <time>2022-03-17T09:46:16.000Z</time>
      </trkpt>
      <trkpt lat="47.54903" lon="1.763404">
        <ele>145</ele>
        <time>2022-03-17T09:46:17.000Z</time>
      </trkpt>
      <trkpt lat="47.549046" lon="1.7634116">
        <ele>145</ele>
        <time>2022-03-17T09:46:18.000Z</time>
      </trkpt>
      <trkpt lat="47.549057" lon="1.7634119">
        <ele>145</ele>
        <time>2022-03-17T09:46:19.000Z</time>
      </trkpt>
      <trkpt lat="47.54907" lon="1.7634165">
        <ele>145</ele>
        <time>2022-03-17T09:46:20.000Z</time>
      </trkpt>
      <trkpt lat="47.54908" lon="1.7634174">
        <ele>145</ele>
        <time>2022-03-17T09:46:21.000Z</time>
      </trkpt>
      <trkpt lat="47.549088" lon="1.7634196">
        <ele>144</ele>
        <time>2022-03-17T09:46:22.000Z</time>
      </trkpt>
      <trkpt lat="47.5491" lon="1.7634176">
        <ele>144</ele>
        <time>2022-03-17T09:46:23.000Z</time>
      </trkpt>
      <trkpt lat="47.54911" lon="1.763419">
        <ele>145</ele>
        <time>2022-03-17T09:46:24.000Z</time>
      </trkpt>
      <trkpt lat="47.549126" lon="1.7634205">
        <ele>144</ele>
        <time>2022-03-17T09:46:25.000Z</time>
      </trkpt>
      <trkpt lat="47.549137" lon="1.7634225">
        <ele>144</ele>
        <time>2022-03-17T09:46:26.000Z</time>
      </trkpt>
      <trkpt lat="47.54915" lon="1.7634231">
        <ele>145</ele>
        <time>2022-03-17T09:46:27.000Z</time>
      </trkpt>
      <trkpt lat="47.549164" lon="1.7634261">
        <ele>145</ele>
        <time>2022-03-17T09:46:28.000Z</time>
      </trkpt>
      <trkpt lat="47.549175" lon="1.7634267">
        <ele>145</ele>
        <time>2022-03-17T09:46:29.000Z</time>
      </trkpt>
      <trkpt lat="47.549183" lon="1.7634264">
        <ele>145</ele>
        <time>2022-03-17T09:46:30.000Z</time>
      </trkpt>
      <trkpt lat="47.54919" lon="1.7634286">
        <ele>145</ele>
        <time>2022-03-17T09:46:31.000Z</time>
      </trkpt>
      <trkpt lat="47.549206" lon="1.763433">
        <ele>145</ele>
        <time>2022-03-17T09:46:32.000Z</time>
      </trkpt>
      <trkpt lat="47.549213" lon="1.7634343">
        <ele>145</ele>
        <time>2022-03-17T09:46:33.000Z</time>
      </trkpt>
      <trkpt lat="47.549225" lon="1.7634323">
        <ele>145</ele>
        <time>2022-03-17T09:46:35.000Z</time>
      </trkpt>
      <trkpt lat="47.549236" lon="1.7634345">
        <ele>146</ele>
        <time>2022-03-17T09:46:36.000Z</time>
      </trkpt>
      <trkpt lat="47.54925" lon="1.7634354">
        <ele>146</ele>
        <time>2022-03-17T09:46:37.000Z</time>
      </trkpt>
      <trkpt lat="47.54926" lon="1.7634366">
        <ele>146</ele>
        <time>2022-03-17T09:46:38.000Z</time>
      </trkpt>
      <trkpt lat="47.549274" lon="1.7634444">
        <ele>146</ele>
        <time>2022-03-17T09:46:39.000Z</time>
      </trkpt>
      <trkpt lat="47.549286" lon="1.763445">
        <ele>146</ele>
        <time>2022-03-17T09:46:40.000Z</time>
      </trkpt>
      <trkpt lat="47.549297" lon="1.7634463">
        <ele>146</ele>
        <time>2022-03-17T09:46:41.000Z</time>
      </trkpt>
      <trkpt lat="47.549313" lon="1.7634478">
        <ele>146</ele>
        <time>2022-03-17T09:46:42.000Z</time>
      </trkpt>
      <trkpt lat="47.549324" lon="1.7634526">
        <ele>146</ele>
        <time>2022-03-17T09:46:43.000Z</time>
      </trkpt>
      <trkpt lat="47.549335" lon="1.7634555">
        <ele>146</ele>
        <time>2022-03-17T09:46:44.000Z</time>
      </trkpt>
      <trkpt lat="47.549347" lon="1.7634592">
        <ele>146</ele>
        <time>2022-03-17T09:46:45.000Z</time>
      </trkpt>
      <trkpt lat="47.549362" lon="1.7634599">
        <ele>146</ele>
        <time>2022-03-17T09:46:46.000Z</time>
      </trkpt>
      <trkpt lat="47.549374" lon="1.763465">
        <ele>147</ele>
        <time>2022-03-17T09:46:47.000Z</time>
      </trkpt>
      <trkpt lat="47.549385" lon="1.7634625">
        <ele>147</ele>
        <time>2022-03-17T09:46:48.000Z</time>
      </trkpt>
      <trkpt lat="47.549393" lon="1.763465">
        <ele>147</ele>
        <time>2022-03-17T09:46:49.000Z</time>
      </trkpt>
      <trkpt lat="47.5494" lon="1.7634672">
        <ele>147</ele>
        <time>2022-03-17T09:46:50.000Z</time>
      </trkpt>
      <trkpt lat="47.54941" lon="1.7634654">
        <ele>147</ele>
        <time>2022-03-17T09:46:51.000Z</time>
      </trkpt>
      <trkpt lat="47.54942" lon="1.7634677">
        <ele>147</ele>
        <time>2022-03-17T09:46:52.000Z</time>
      </trkpt>
      <trkpt lat="47.549435" lon="1.7634709">
        <ele>146</ele>
        <time>2022-03-17T09:46:53.000Z</time>
      </trkpt>
      <trkpt lat="47.549446" lon="1.7634737">
        <ele>146</ele>
        <time>2022-03-17T09:46:54.000Z</time>
      </trkpt>
      <trkpt lat="47.549454" lon="1.7634727">
        <ele>146</ele>
        <time>2022-03-17T09:46:55.000Z</time>
      </trkpt>
      <trkpt lat="47.549465" lon="1.7634755">
        <ele>146</ele>
        <time>2022-03-17T09:46:56.000Z</time>
      </trkpt>
      <trkpt lat="47.549477" lon="1.7634776">
        <ele>145</ele>
        <time>2022-03-17T09:46:57.000Z</time>
      </trkpt>
      <trkpt lat="47.549488" lon="1.7634805">
        <ele>145</ele>
        <time>2022-03-17T09:46:58.000Z</time>
      </trkpt>
      <trkpt lat="47.5495" lon="1.763486">
        <ele>145</ele>
        <time>2022-03-17T09:46:59.000Z</time>
      </trkpt>
      <trkpt lat="47.54951" lon="1.7634894">
        <ele>145</ele>
        <time>2022-03-17T09:47:00.000Z</time>
      </trkpt>
      <trkpt lat="47.549522" lon="1.7634966">
        <ele>145</ele>
        <time>2022-03-17T09:47:01.000Z</time>
      </trkpt>
      <trkpt lat="47.549534" lon="1.7634987">
        <ele>145</ele>
        <time>2022-03-17T09:47:02.000Z</time>
      </trkpt>
      <trkpt lat="47.549545" lon="1.763497">
        <ele>145</ele>
        <time>2022-03-17T09:47:03.000Z</time>
      </trkpt>
      <trkpt lat="47.54956" lon="1.7634993">
        <ele>144</ele>
        <time>2022-03-17T09:47:04.000Z</time>
      </trkpt>
      <trkpt lat="47.549572" lon="1.7635041">
        <ele>144</ele>
        <time>2022-03-17T09:47:05.000Z</time>
      </trkpt>
      <trkpt lat="47.549583" lon="1.763507">
        <ele>144</ele>
        <time>2022-03-17T09:47:06.000Z</time>
      </trkpt>
      <trkpt lat="47.549595" lon="1.7635095">
        <ele>143</ele>
        <time>2022-03-17T09:47:07.000Z</time>
      </trkpt>
      <trkpt lat="47.54961" lon="1.7635082">
        <ele>144</ele>
        <time>2022-03-17T09:47:08.000Z</time>
      </trkpt>
      <trkpt lat="47.549625" lon="1.7635094">
        <ele>143</ele>
        <time>2022-03-17T09:47:09.000Z</time>
      </trkpt>
      <trkpt lat="47.549637" lon="1.763512">
        <ele>143</ele>
        <time>2022-03-17T09:47:10.000Z</time>
      </trkpt>
      <trkpt lat="47.54965" lon="1.7635161">
        <ele>143</ele>
        <time>2022-03-17T09:47:11.000Z</time>
      </trkpt>
      <trkpt lat="47.549656" lon="1.7635189">
        <ele>143</ele>
        <time>2022-03-17T09:47:12.000Z</time>
      </trkpt>
      <trkpt lat="47.54967" lon="1.7635238">
        <ele>143</ele>
        <time>2022-03-17T09:47:13.000Z</time>
      </trkpt>
      <trkpt lat="47.549683" lon="1.7635269">
        <ele>143</ele>
        <time>2022-03-17T09:47:14.000Z</time>
      </trkpt>
      <trkpt lat="47.549694" lon="1.7635243">
        <ele>142</ele>
        <time>2022-03-17T09:47:15.000Z</time>
      </trkpt>
      <trkpt lat="47.549706" lon="1.7635232">
        <ele>142</ele>
        <time>2022-03-17T09:47:16.000Z</time>
      </trkpt>
      <trkpt lat="47.549717" lon="1.7635254">
        <ele>142</ele>
        <time>2022-03-17T09:47:17.000Z</time>
      </trkpt>
      <trkpt lat="47.54973" lon="1.763522">
        <ele>141</ele>
        <time>2022-03-17T09:47:18.000Z</time>
      </trkpt>
      <trkpt lat="47.549744" lon="1.7635263">
        <ele>141</ele>
        <time>2022-03-17T09:47:19.000Z</time>
      </trkpt>
      <trkpt lat="47.549755" lon="1.7635242">
        <ele>141</ele>
        <time>2022-03-17T09:47:20.000Z</time>
      </trkpt>
      <trkpt lat="47.54977" lon="1.7635239">
        <ele>141</ele>
        <time>2022-03-17T09:47:21.000Z</time>
      </trkpt>
      <trkpt lat="47.54978" lon="1.7635278">
        <ele>141</ele>
        <time>2022-03-17T09:47:22.000Z</time>
      </trkpt>
      <trkpt lat="47.549793" lon="1.7635292">
        <ele>141</ele>
        <time>2022-03-17T09:47:23.000Z</time>
      </trkpt>
      <trkpt lat="47.54981" lon="1.7635297">
        <ele>141</ele>
        <time>2022-03-17T09:47:24.000Z</time>
      </trkpt>
      <trkpt lat="47.549824" lon="1.7635261">
        <ele>141</ele>
        <time>2022-03-17T09:47:25.000Z</time>
      </trkpt>
      <trkpt lat="47.549835" lon="1.7635272">
        <ele>141</ele>
        <time>2022-03-17T09:47:26.000Z</time>
      </trkpt>
      <trkpt lat="47.549843" lon="1.7635274">
        <ele>141</ele>
        <time>2022-03-17T09:47:27.000Z</time>
      </trkpt>
      <trkpt lat="47.549854" lon="1.7635286">
        <ele>142</ele>
        <time>2022-03-17T09:47:28.000Z</time>
      </trkpt>
      <trkpt lat="47.549866" lon="1.7635256">
        <ele>142</ele>
        <time>2022-03-17T09:47:29.000Z</time>
      </trkpt>
      <trkpt lat="47.549877" lon="1.7635247">
        <ele>142</ele>
        <time>2022-03-17T09:47:30.000Z</time>
      </trkpt>
      <trkpt lat="47.54989" lon="1.7635204">
        <ele>142</ele>
        <time>2022-03-17T09:47:31.000Z</time>
      </trkpt>
      <trkpt lat="47.549896" lon="1.7635227">
        <ele>142</ele>
        <time>2022-03-17T09:47:32.000Z</time>
      </trkpt>
      <trkpt lat="47.549908" lon="1.7635238">
        <ele>143</ele>
        <time>2022-03-17T09:47:33.000Z</time>
      </trkpt>
      <trkpt lat="47.549915" lon="1.7635262">
        <ele>142</ele>
        <time>2022-03-17T09:47:34.000Z</time>
      </trkpt>
      <trkpt lat="47.549927" lon="1.7635287">
        <ele>142</ele>
        <time>2022-03-17T09:47:35.000Z</time>
      </trkpt>
      <trkpt lat="47.54994" lon="1.7635292">
        <ele>142</ele>
        <time>2022-03-17T09:47:36.000Z</time>
      </trkpt>
      <trkpt lat="47.549946" lon="1.7635304">
        <ele>141</ele>
        <time>2022-03-17T09:47:37.000Z</time>
      </trkpt>
      <trkpt lat="47.549957" lon="1.7635332">
        <ele>141</ele>
        <time>2022-03-17T09:47:38.000Z</time>
      </trkpt>
      <trkpt lat="47.549965" lon="1.7635367">
        <ele>142</ele>
        <time>2022-03-17T09:47:39.000Z</time>
      </trkpt>
      <trkpt lat="47.549976" lon="1.7635429">
        <ele>142</ele>
        <time>2022-03-17T09:47:40.000Z</time>
      </trkpt>
      <trkpt lat="47.549988" lon="1.7635523">
        <ele>143</ele>
        <time>2022-03-17T09:47:41.000Z</time>
      </trkpt>
      <trkpt lat="47.55" lon="1.7635508">
        <ele>143</ele>
        <time>2022-03-17T09:47:42.000Z</time>
      </trkpt>
      <trkpt lat="47.55001" lon="1.7635516">
        <ele>143</ele>
        <time>2022-03-17T09:47:43.000Z</time>
      </trkpt>
      <trkpt lat="47.550022" lon="1.763552">
        <ele>143</ele>
        <time>2022-03-17T09:47:44.000Z</time>
      </trkpt>
      <trkpt lat="47.550034" lon="1.7635502">
        <ele>143</ele>
        <time>2022-03-17T09:47:45.000Z</time>
      </trkpt>
      <trkpt lat="47.550045" lon="1.7635498">
        <ele>143</ele>
        <time>2022-03-17T09:47:46.000Z</time>
      </trkpt>
      <trkpt lat="47.55006" lon="1.7635534">
        <ele>143</ele>
        <time>2022-03-17T09:47:47.000Z</time>
      </trkpt>
      <trkpt lat="47.55007" lon="1.7635556">
        <ele>142</ele>
        <time>2022-03-17T09:47:48.000Z</time>
      </trkpt>
      <trkpt lat="47.550083" lon="1.7635572">
        <ele>142</ele>
        <time>2022-03-17T09:47:49.000Z</time>
      </trkpt>
      <trkpt lat="47.550095" lon="1.7635608">
        <ele>142</ele>
        <time>2022-03-17T09:47:50.000Z</time>
      </trkpt>
      <trkpt lat="47.550106" lon="1.7635639">
        <ele>142</ele>
        <time>2022-03-17T09:47:51.000Z</time>
      </trkpt>
      <trkpt lat="47.55012" lon="1.7635624">
        <ele>141</ele>
        <time>2022-03-17T09:47:52.000Z</time>
      </trkpt>
      <trkpt lat="47.55013" lon="1.7635655">
        <ele>141</ele>
        <time>2022-03-17T09:47:53.000Z</time>
      </trkpt>
      <trkpt lat="47.55014" lon="1.7635673">
        <ele>141</ele>
        <time>2022-03-17T09:47:54.000Z</time>
      </trkpt>
      <trkpt lat="47.550148" lon="1.7635678">
        <ele>141</ele>
        <time>2022-03-17T09:47:55.000Z</time>
      </trkpt>
      <trkpt lat="47.55016" lon="1.7635678">
        <ele>140</ele>
        <time>2022-03-17T09:47:56.000Z</time>
      </trkpt>
      <trkpt lat="47.55017" lon="1.7635709">
        <ele>140</ele>
        <time>2022-03-17T09:47:57.000Z</time>
      </trkpt>
      <trkpt lat="47.550182" lon="1.76357">
        <ele>140</ele>
        <time>2022-03-17T09:47:58.000Z</time>
      </trkpt>
      <trkpt lat="47.55019" lon="1.7635783">
        <ele>140</ele>
        <time>2022-03-17T09:47:59.000Z</time>
      </trkpt>
      <trkpt lat="47.550205" lon="1.7635882">
        <ele>140</ele>
        <time>2022-03-17T09:48:00.000Z</time>
      </trkpt>
      <trkpt lat="47.550217" lon="1.7635988">
        <ele>139</ele>
        <time>2022-03-17T09:48:01.000Z</time>
      </trkpt>
      <trkpt lat="47.550232" lon="1.7636045">
        <ele>139</ele>
        <time>2022-03-17T09:48:02.000Z</time>
      </trkpt>
      <trkpt lat="47.55024" lon="1.7636075">
        <ele>139</ele>
        <time>2022-03-17T09:48:03.000Z</time>
      </trkpt>
      <trkpt lat="47.550255" lon="1.763613">
        <ele>139</ele>
        <time>2022-03-17T09:48:04.000Z</time>
      </trkpt>
      <trkpt lat="47.550262" lon="1.7636143">
        <ele>140</ele>
        <time>2022-03-17T09:48:05.000Z</time>
      </trkpt>
      <trkpt lat="47.550274" lon="1.7636185">
        <ele>140</ele>
        <time>2022-03-17T09:48:06.000Z</time>
      </trkpt>
      <trkpt lat="47.550278" lon="1.7636158">
        <ele>140</ele>
        <time>2022-03-17T09:48:07.000Z</time>
      </trkpt>
      <trkpt lat="47.550293" lon="1.7636129">
        <ele>139</ele>
        <time>2022-03-17T09:48:08.000Z</time>
      </trkpt>
      <trkpt lat="47.550304" lon="1.7636144">
        <ele>140</ele>
        <time>2022-03-17T09:48:09.000Z</time>
      </trkpt>
      <trkpt lat="47.550316" lon="1.7636178">
        <ele>140</ele>
        <time>2022-03-17T09:48:10.000Z</time>
      </trkpt>
      <trkpt lat="47.550323" lon="1.7636222">
        <ele>140</ele>
        <time>2022-03-17T09:48:11.000Z</time>
      </trkpt>
      <trkpt lat="47.55033" lon="1.7636195">
        <ele>140</ele>
        <time>2022-03-17T09:48:12.000Z</time>
      </trkpt>
      <trkpt lat="47.55034" lon="1.7636158">
        <ele>141</ele>
        <time>2022-03-17T09:48:13.000Z</time>
      </trkpt>
      <trkpt lat="47.55035" lon="1.76361">
        <ele>141</ele>
        <time>2022-03-17T09:48:14.000Z</time>
      </trkpt>
      <trkpt lat="47.55036" lon="1.7636062">
        <ele>140</ele>
        <time>2022-03-17T09:48:15.000Z</time>
      </trkpt>
      <trkpt lat="47.550373" lon="1.7636064">
        <ele>140</ele>
        <time>2022-03-17T09:48:16.000Z</time>
      </trkpt>
      <trkpt lat="47.550385" lon="1.7636026">
        <ele>140</ele>
        <time>2022-03-17T09:48:17.000Z</time>
      </trkpt>
      <trkpt lat="47.550396" lon="1.7636032">
        <ele>139</ele>
        <time>2022-03-17T09:48:18.000Z</time>
      </trkpt>
      <trkpt lat="47.550407" lon="1.7636017">
        <ele>139</ele>
        <time>2022-03-17T09:48:19.000Z</time>
      </trkpt>
      <trkpt lat="47.55042" lon="1.7635987">
        <ele>139</ele>
        <time>2022-03-17T09:48:20.000Z</time>
      </trkpt>
      <trkpt lat="47.55043" lon="1.7635978">
        <ele>139</ele>
        <time>2022-03-17T09:48:21.000Z</time>
      </trkpt>
      <trkpt lat="47.55044" lon="1.7635974">
        <ele>138</ele>
        <time>2022-03-17T09:48:22.000Z</time>
      </trkpt>
      <trkpt lat="47.55045" lon="1.7635946">
        <ele>139</ele>
        <time>2022-03-17T09:48:23.000Z</time>
      </trkpt>
      <trkpt lat="47.55046" lon="1.7635922">
        <ele>139</ele>
        <time>2022-03-17T09:48:24.000Z</time>
      </trkpt>
      <trkpt lat="47.550472" lon="1.7635924">
        <ele>138</ele>
        <time>2022-03-17T09:48:25.000Z</time>
      </trkpt>
      <trkpt lat="47.550484" lon="1.7635969">
        <ele>138</ele>
        <time>2022-03-17T09:48:26.000Z</time>
      </trkpt>
      <trkpt lat="47.550495" lon="1.7635932">
        <ele>138</ele>
        <time>2022-03-17T09:48:27.000Z</time>
      </trkpt>
      <trkpt lat="47.55051" lon="1.7635952">
        <ele>137</ele>
        <time>2022-03-17T09:48:28.000Z</time>
      </trkpt>
      <trkpt lat="47.550518" lon="1.7635918">
        <ele>137</ele>
        <time>2022-03-17T09:48:29.000Z</time>
      </trkpt>
      <trkpt lat="47.550533" lon="1.7635872">
        <ele>137</ele>
        <time>2022-03-17T09:48:30.000Z</time>
      </trkpt>
      <trkpt lat="47.55055" lon="1.7635814">
        <ele>137</ele>
        <time>2022-03-17T09:48:31.000Z</time>
      </trkpt>
      <trkpt lat="47.550564" lon="1.7635783">
        <ele>137</ele>
        <time>2022-03-17T09:48:32.000Z</time>
      </trkpt>
      <trkpt lat="47.55058" lon="1.7635775">
        <ele>137</ele>
        <time>2022-03-17T09:48:33.000Z</time>
      </trkpt>
      <trkpt lat="47.550594" lon="1.7635769">
        <ele>137</ele>
        <time>2022-03-17T09:48:34.000Z</time>
      </trkpt>
      <trkpt lat="47.55061" lon="1.763578">
        <ele>137</ele>
        <time>2022-03-17T09:48:35.000Z</time>
      </trkpt>
      <trkpt lat="47.550617" lon="1.7635746">
        <ele>137</ele>
        <time>2022-03-17T09:48:36.000Z</time>
      </trkpt>
      <trkpt lat="47.55063" lon="1.7635744">
        <ele>137</ele>
        <time>2022-03-17T09:48:37.000Z</time>
      </trkpt>
      <trkpt lat="47.55064" lon="1.7635709">
        <ele>138</ele>
        <time>2022-03-17T09:48:38.000Z</time>
      </trkpt>
      <trkpt lat="47.550648" lon="1.7635719">
        <ele>138</ele>
        <time>2022-03-17T09:48:39.000Z</time>
      </trkpt>
      <trkpt lat="47.55066" lon="1.7635728">
        <ele>138</ele>
        <time>2022-03-17T09:48:40.000Z</time>
      </trkpt>
      <trkpt lat="47.550667" lon="1.763574">
        <ele>138</ele>
        <time>2022-03-17T09:48:41.000Z</time>
      </trkpt>
      <trkpt lat="47.550674" lon="1.7635754">
        <ele>138</ele>
        <time>2022-03-17T09:48:42.000Z</time>
      </trkpt>
      <trkpt lat="47.55069" lon="1.7635753">
        <ele>138</ele>
        <time>2022-03-17T09:48:43.000Z</time>
      </trkpt>
      <trkpt lat="47.550697" lon="1.7635736">
        <ele>138</ele>
        <time>2022-03-17T09:48:44.000Z</time>
      </trkpt>
      <trkpt lat="47.55071" lon="1.7635738">
        <ele>139</ele>
        <time>2022-03-17T09:48:45.000Z</time>
      </trkpt>
      <trkpt lat="47.550716" lon="1.7635667">
        <ele>139</ele>
        <time>2022-03-17T09:48:46.000Z</time>
      </trkpt>
      <trkpt lat="47.550724" lon="1.7635611">
        <ele>139</ele>
        <time>2022-03-17T09:48:47.000Z</time>
      </trkpt>
      <trkpt lat="47.550735" lon="1.7635531">
        <ele>139</ele>
        <time>2022-03-17T09:48:48.000Z</time>
      </trkpt>
      <trkpt lat="47.55075" lon="1.7635465">
        <ele>138</ele>
        <time>2022-03-17T09:48:49.000Z</time>
      </trkpt>
      <trkpt lat="47.550766" lon="1.7635441">
        <ele>138</ele>
        <time>2022-03-17T09:48:50.000Z</time>
      </trkpt>
      <trkpt lat="47.550777" lon="1.7635407">
        <ele>138</ele>
        <time>2022-03-17T09:48:51.000Z</time>
      </trkpt>
      <trkpt lat="47.550785" lon="1.7635415">
        <ele>138</ele>
        <time>2022-03-17T09:48:52.000Z</time>
      </trkpt>
      <trkpt lat="47.550793" lon="1.7635443">
        <ele>138</ele>
        <time>2022-03-17T09:48:53.000Z</time>
      </trkpt>
      <trkpt lat="47.5508" lon="1.7635452">
        <ele>138</ele>
        <time>2022-03-17T09:48:54.000Z</time>
      </trkpt>
      <trkpt lat="47.550816" lon="1.7635411">
        <ele>139</ele>
        <time>2022-03-17T09:48:55.000Z</time>
      </trkpt>
      <trkpt lat="47.550827" lon="1.7635393">
        <ele>139</ele>
        <time>2022-03-17T09:48:56.000Z</time>
      </trkpt>
      <trkpt lat="47.550835" lon="1.763535">
        <ele>138</ele>
        <time>2022-03-17T09:48:57.000Z</time>
      </trkpt>
      <trkpt lat="47.550842" lon="1.763534">
        <ele>138</ele>
        <time>2022-03-17T09:48:58.000Z</time>
      </trkpt>
      <trkpt lat="47.550854" lon="1.7635295">
        <ele>138</ele>
        <time>2022-03-17T09:48:59.000Z</time>
      </trkpt>
      <trkpt lat="47.55086" lon="1.7635292">
        <ele>137</ele>
        <time>2022-03-17T09:49:00.000Z</time>
      </trkpt>
      <trkpt lat="47.55087" lon="1.7635235">
        <ele>137</ele>
        <time>2022-03-17T09:49:01.000Z</time>
      </trkpt>
      <trkpt lat="47.55087" lon="1.7635235">
        <ele>137</ele>
        <time>2022-03-17T09:49:02.000Z</time>
      </trkpt>
      <trkpt lat="47.550888" lon="1.7635165">
        <ele>137</ele>
        <time>2022-03-17T09:49:03.000Z</time>
      </trkpt>
      <trkpt lat="47.550896" lon="1.7635095">
        <ele>137</ele>
        <time>2022-03-17T09:49:04.000Z</time>
      </trkpt>
      <trkpt lat="47.550903" lon="1.7635022">
        <ele>137</ele>
        <time>2022-03-17T09:49:05.000Z</time>
      </trkpt>
      <trkpt lat="47.55091" lon="1.7634985">
        <ele>137</ele>
        <time>2022-03-17T09:49:06.000Z</time>
      </trkpt>
      <trkpt lat="47.550922" lon="1.7634952">
        <ele>136</ele>
        <time>2022-03-17T09:49:07.000Z</time>
      </trkpt>
      <trkpt lat="47.550934" lon="1.7634898">
        <ele>135</ele>
        <time>2022-03-17T09:49:08.000Z</time>
      </trkpt>
      <trkpt lat="47.55094" lon="1.7634867">
        <ele>135</ele>
        <time>2022-03-17T09:49:09.000Z</time>
      </trkpt>
      <trkpt lat="47.550953" lon="1.7634782">
        <ele>134</ele>
        <time>2022-03-17T09:49:10.000Z</time>
      </trkpt>
      <trkpt lat="47.55096" lon="1.7634726">
        <ele>135</ele>
        <time>2022-03-17T09:49:11.000Z</time>
      </trkpt>
      <trkpt lat="47.550972" lon="1.7634712">
        <ele>135</ele>
        <time>2022-03-17T09:49:12.000Z</time>
      </trkpt>
      <trkpt lat="47.550983" lon="1.7634648">
        <ele>135</ele>
        <time>2022-03-17T09:49:13.000Z</time>
      </trkpt>
      <trkpt lat="47.55099" lon="1.7634591">
        <ele>135</ele>
        <time>2022-03-17T09:49:14.000Z</time>
      </trkpt>
      <trkpt lat="47.551" lon="1.7634549">
        <ele>135</ele>
        <time>2022-03-17T09:49:15.000Z</time>
      </trkpt>
      <trkpt lat="47.551006" lon="1.7634482">
        <ele>135</ele>
        <time>2022-03-17T09:49:16.000Z</time>
      </trkpt>
      <trkpt lat="47.551018" lon="1.7634447">
        <ele>135</ele>
        <time>2022-03-17T09:49:17.000Z</time>
      </trkpt>
      <trkpt lat="47.55103" lon="1.7634405">
        <ele>135</ele>
        <time>2022-03-17T09:49:18.000Z</time>
      </trkpt>
      <trkpt lat="47.551037" lon="1.763438">
        <ele>134</ele>
        <time>2022-03-17T09:49:19.000Z</time>
      </trkpt>
      <trkpt lat="47.55105" lon="1.7634379">
        <ele>134</ele>
        <time>2022-03-17T09:49:20.000Z</time>
      </trkpt>
      <trkpt lat="47.551064" lon="1.7634478">
        <ele>134</ele>
        <time>2022-03-17T09:49:21.000Z</time>
      </trkpt>
      <trkpt lat="47.55107" lon="1.7634504">
        <ele>133</ele>
        <time>2022-03-17T09:49:22.000Z</time>
      </trkpt>
      <trkpt lat="47.55108" lon="1.7634519">
        <ele>133</ele>
        <time>2022-03-17T09:49:23.000Z</time>
      </trkpt>
      <trkpt lat="47.55109" lon="1.7634528">
        <ele>133</ele>
        <time>2022-03-17T09:49:24.000Z</time>
      </trkpt>
      <trkpt lat="47.551105" lon="1.7634555">
        <ele>132</ele>
        <time>2022-03-17T09:49:25.000Z</time>
      </trkpt>
      <trkpt lat="47.551117" lon="1.7634568">
        <ele>132</ele>
        <time>2022-03-17T09:49:26.000Z</time>
      </trkpt>
      <trkpt lat="47.551132" lon="1.7634659">
        <ele>131</ele>
        <time>2022-03-17T09:49:27.000Z</time>
      </trkpt>
      <trkpt lat="47.551132" lon="1.7634659">
        <ele>131</ele>
        <time>2022-03-17T09:49:28.000Z</time>
      </trkpt>
      <trkpt lat="47.55115" lon="1.7634735">
        <ele>131</ele>
        <time>2022-03-17T09:49:29.000Z</time>
      </trkpt>
      <trkpt lat="47.551163" lon="1.7634721">
        <ele>131</ele>
        <time>2022-03-17T09:49:30.000Z</time>
      </trkpt>
      <trkpt lat="47.551174" lon="1.7634727">
        <ele>131</ele>
        <time>2022-03-17T09:49:31.000Z</time>
      </trkpt>
      <trkpt lat="47.551186" lon="1.7634778">
        <ele>131</ele>
        <time>2022-03-17T09:49:32.000Z</time>
      </trkpt>
      <trkpt lat="47.5512" lon="1.7634822">
        <ele>131</ele>
        <time>2022-03-17T09:49:33.000Z</time>
      </trkpt>
      <trkpt lat="47.551212" lon="1.7634888">
        <ele>131</ele>
        <time>2022-03-17T09:49:34.000Z</time>
      </trkpt>
      <trkpt lat="47.551224" lon="1.763492">
        <ele>132</ele>
        <time>2022-03-17T09:49:35.000Z</time>
      </trkpt>
      <trkpt lat="47.55124" lon="1.7634989">
        <ele>132</ele>
        <time>2022-03-17T09:49:36.000Z</time>
      </trkpt>
      <trkpt lat="47.55125" lon="1.7635028">
        <ele>132</ele>
        <time>2022-03-17T09:49:37.000Z</time>
      </trkpt>
      <trkpt lat="47.551266" lon="1.7635051">
        <ele>132</ele>
        <time>2022-03-17T09:49:38.000Z</time>
      </trkpt>
      <trkpt lat="47.551277" lon="1.7635046">
        <ele>133</ele>
        <time>2022-03-17T09:49:39.000Z</time>
      </trkpt>
      <trkpt lat="47.551292" lon="1.7635049">
        <ele>133</ele>
        <time>2022-03-17T09:49:40.000Z</time>
      </trkpt>
      <trkpt lat="47.551308" lon="1.7635071">
        <ele>133</ele>
        <time>2022-03-17T09:49:41.000Z</time>
      </trkpt>
      <trkpt lat="47.551315" lon="1.7635028">
        <ele>133</ele>
        <time>2022-03-17T09:49:42.000Z</time>
      </trkpt>
      <trkpt lat="47.551327" lon="1.7634994">
        <ele>133</ele>
        <time>2022-03-17T09:49:43.000Z</time>
      </trkpt>
      <trkpt lat="47.551342" lon="1.7634983">
        <ele>133</ele>
        <time>2022-03-17T09:49:44.000Z</time>
      </trkpt>
      <trkpt lat="47.551353" lon="1.7634987">
        <ele>133</ele>
        <time>2022-03-17T09:49:45.000Z</time>
      </trkpt>
      <trkpt lat="47.551365" lon="1.7634996">
        <ele>133</ele>
        <time>2022-03-17T09:49:46.000Z</time>
      </trkpt>
      <trkpt lat="47.551376" lon="1.7635012">
        <ele>133</ele>
        <time>2022-03-17T09:49:47.000Z</time>
      </trkpt>
      <trkpt lat="47.551388" lon="1.7635016">
        <ele>133</ele>
        <time>2022-03-17T09:49:48.000Z</time>
      </trkpt>
      <trkpt lat="47.5514" lon="1.7634977">
        <ele>133</ele>
        <time>2022-03-17T09:49:49.000Z</time>
      </trkpt>
      <trkpt lat="47.55141" lon="1.7634907">
        <ele>133</ele>
        <time>2022-03-17T09:49:50.000Z</time>
      </trkpt>
      <trkpt lat="47.551422" lon="1.7634795">
        <ele>133</ele>
        <time>2022-03-17T09:49:51.000Z</time>
      </trkpt>
      <trkpt lat="47.551434" lon="1.76347">
        <ele>133</ele>
        <time>2022-03-17T09:49:52.000Z</time>
      </trkpt>
      <trkpt lat="47.551445" lon="1.7634679">
        <ele>132</ele>
        <time>2022-03-17T09:49:53.000Z</time>
      </trkpt>
      <trkpt lat="47.55145" lon="1.7634674">
        <ele>133</ele>
        <time>2022-03-17T09:49:54.000Z</time>
      </trkpt>
      <trkpt lat="47.55145" lon="1.7634674">
        <ele>133</ele>
        <time>2022-03-17T09:49:55.000Z</time>
      </trkpt>
      <trkpt lat="47.55145" lon="1.7634674">
        <ele>133</ele>
        <time>2022-03-17T09:49:56.000Z</time>
      </trkpt>
      <trkpt lat="47.55148" lon="1.7634563">
        <ele>133</ele>
        <time>2022-03-17T09:49:57.000Z</time>
      </trkpt>
      <trkpt lat="47.55149" lon="1.7634566">
        <ele>133</ele>
        <time>2022-03-17T09:49:58.000Z</time>
      </trkpt>
      <trkpt lat="47.551506" lon="1.763458">
        <ele>133</ele>
        <time>2022-03-17T09:49:59.000Z</time>
      </trkpt>
      <trkpt lat="47.551514" lon="1.763459">
        <ele>133</ele>
        <time>2022-03-17T09:50:00.000Z</time>
      </trkpt>
      <trkpt lat="47.551525" lon="1.7634523">
        <ele>133</ele>
        <time>2022-03-17T09:50:01.000Z</time>
      </trkpt>
      <trkpt lat="47.551537" lon="1.7634472">
        <ele>133</ele>
        <time>2022-03-17T09:50:02.000Z</time>
      </trkpt>
      <trkpt lat="47.551544" lon="1.7634453">
        <ele>134</ele>
        <time>2022-03-17T09:50:03.000Z</time>
      </trkpt>
      <trkpt lat="47.55155" lon="1.7634461">
        <ele>134</ele>
        <time>2022-03-17T09:50:04.000Z</time>
      </trkpt>
      <trkpt lat="47.551563" lon="1.7634469">
        <ele>134</ele>
        <time>2022-03-17T09:50:05.000Z</time>
      </trkpt>
      <trkpt lat="47.551563" lon="1.7634469">
        <ele>134</ele>
        <time>2022-03-17T09:50:06.000Z</time>
      </trkpt>
      <trkpt lat="47.551563" lon="1.7634469">
        <ele>134</ele>
        <time>2022-03-17T09:50:07.000Z</time>
      </trkpt>
      <trkpt lat="47.55159" lon="1.7634454">
        <ele>133</ele>
        <time>2022-03-17T09:50:08.000Z</time>
      </trkpt>
      <trkpt lat="47.5516" lon="1.7634473">
        <ele>133</ele>
        <time>2022-03-17T09:50:09.000Z</time>
      </trkpt>
      <trkpt lat="47.55161" lon="1.7634504">
        <ele>133</ele>
        <time>2022-03-17T09:50:10.000Z</time>
      </trkpt>
      <trkpt lat="47.55162" lon="1.7634484">
        <ele>133</ele>
        <time>2022-03-17T09:50:11.000Z</time>
      </trkpt>
      <trkpt lat="47.55162" lon="1.7634484">
        <ele>133</ele>
        <time>2022-03-17T09:50:12.000Z</time>
      </trkpt>
      <trkpt lat="47.551636" lon="1.7634546">
        <ele>133</ele>
        <time>2022-03-17T09:50:13.000Z</time>
      </trkpt>
      <trkpt lat="47.551647" lon="1.7634465">
        <ele>133</ele>
        <time>2022-03-17T09:50:14.000Z</time>
      </trkpt>
      <trkpt lat="47.551662" lon="1.7634486">
        <ele>134</ele>
        <time>2022-03-17T09:50:15.000Z</time>
      </trkpt>
      <trkpt lat="47.551674" lon="1.7634491">
        <ele>133</ele>
        <time>2022-03-17T09:50:16.000Z</time>
      </trkpt>
      <trkpt lat="47.55169" lon="1.7634503">
        <ele>133</ele>
        <time>2022-03-17T09:50:17.000Z</time>
      </trkpt>
      <trkpt lat="47.551704" lon="1.763449">
        <ele>132</ele>
        <time>2022-03-17T09:50:18.000Z</time>
      </trkpt>
      <trkpt lat="47.551716" lon="1.7634485">
        <ele>132</ele>
        <time>2022-03-17T09:50:19.000Z</time>
      </trkpt>
      <trkpt lat="47.551727" lon="1.7634498">
        <ele>133</ele>
        <time>2022-03-17T09:50:20.000Z</time>
      </trkpt>
      <trkpt lat="47.55174" lon="1.7634498">
        <ele>133</ele>
        <time>2022-03-17T09:50:21.000Z</time>
      </trkpt>
      <trkpt lat="47.55175" lon="1.7634453">
        <ele>133</ele>
        <time>2022-03-17T09:50:22.000Z</time>
      </trkpt>
      <trkpt lat="47.551765" lon="1.7634426">
        <ele>133</ele>
        <time>2022-03-17T09:50:23.000Z</time>
      </trkpt>
      <trkpt lat="47.551773" lon="1.7634399">
        <ele>133</ele>
        <time>2022-03-17T09:50:24.000Z</time>
      </trkpt>
      <trkpt lat="47.551785" lon="1.7634379">
        <ele>133</ele>
        <time>2022-03-17T09:50:25.000Z</time>
      </trkpt>
      <trkpt lat="47.551796" lon="1.7634321">
        <ele>133</ele>
        <time>2022-03-17T09:50:26.000Z</time>
      </trkpt>
      <trkpt lat="47.55181" lon="1.7634276">
        <ele>133</ele>
        <time>2022-03-17T09:50:27.000Z</time>
      </trkpt>
      <trkpt lat="47.551815" lon="1.7634265">
        <ele>133</ele>
        <time>2022-03-17T09:50:28.000Z</time>
      </trkpt>
      <trkpt lat="47.551826" lon="1.7634238">
        <ele>132</ele>
        <time>2022-03-17T09:50:29.000Z</time>
      </trkpt>
      <trkpt lat="47.551834" lon="1.7634171">
        <ele>132</ele>
        <time>2022-03-17T09:50:30.000Z</time>
      </trkpt>
      <trkpt lat="47.55184" lon="1.7634177">
        <ele>132</ele>
        <time>2022-03-17T09:50:31.000Z</time>
      </trkpt>
      <trkpt lat="47.551853" lon="1.7634103">
        <ele>132</ele>
        <time>2022-03-17T09:50:32.000Z</time>
      </trkpt>
      <trkpt lat="47.551865" lon="1.7634022">
        <ele>132</ele>
        <time>2022-03-17T09:50:33.000Z</time>
      </trkpt>
      <trkpt lat="47.551876" lon="1.7633969">
        <ele>132</ele>
        <time>2022-03-17T09:50:34.000Z</time>
      </trkpt>
      <trkpt lat="47.551888" lon="1.7633893">
        <ele>132</ele>
        <time>2022-03-17T09:50:35.000Z</time>
      </trkpt>
      <trkpt lat="47.5519" lon="1.7633853">
        <ele>132</ele>
        <time>2022-03-17T09:50:36.000Z</time>
      </trkpt>
      <trkpt lat="47.55191" lon="1.7633817">
        <ele>131</ele>
        <time>2022-03-17T09:50:37.000Z</time>
      </trkpt>
      <trkpt lat="47.551918" lon="1.7633755">
        <ele>131</ele>
        <time>2022-03-17T09:50:38.000Z</time>
      </trkpt>
      <trkpt lat="47.551926" lon="1.7633685">
        <ele>131</ele>
        <time>2022-03-17T09:50:39.000Z</time>
      </trkpt>
      <trkpt lat="47.551933" lon="1.7633651">
        <ele>131</ele>
        <time>2022-03-17T09:50:40.000Z</time>
      </trkpt>
      <trkpt lat="47.551945" lon="1.7633631">
        <ele>131</ele>
        <time>2022-03-17T09:50:41.000Z</time>
      </trkpt>
      <trkpt lat="47.55196" lon="1.7633588">
        <ele>130</ele>
        <time>2022-03-17T09:50:42.000Z</time>
      </trkpt>
      <trkpt lat="47.55197" lon="1.763358">
        <ele>130</ele>
        <time>2022-03-17T09:50:43.000Z</time>
      </trkpt>
      <trkpt lat="47.55198" lon="1.7633603">
        <ele>130</ele>
        <time>2022-03-17T09:50:44.000Z</time>
      </trkpt>
      <trkpt lat="47.551987" lon="1.7633592">
        <ele>129</ele>
        <time>2022-03-17T09:50:45.000Z</time>
      </trkpt>
      <trkpt lat="47.551994" lon="1.7633543">
        <ele>129</ele>
        <time>2022-03-17T09:50:46.000Z</time>
      </trkpt>
      <trkpt lat="47.552006" lon="1.7633485">
        <ele>129</ele>
        <time>2022-03-17T09:50:47.000Z</time>
      </trkpt>
      <trkpt lat="47.552017" lon="1.7633485">
        <ele>129</ele>
        <time>2022-03-17T09:50:48.000Z</time>
      </trkpt>
      <trkpt lat="47.552017" lon="1.7633485">
        <ele>129</ele>
        <time>2022-03-17T09:50:49.000Z</time>
      </trkpt>
      <trkpt lat="47.552017" lon="1.7633485">
        <ele>129</ele>
        <time>2022-03-17T09:50:50.000Z</time>
      </trkpt>
      <trkpt lat="47.55204" lon="1.7633457">
        <ele>129</ele>
        <time>2022-03-17T09:50:51.000Z</time>
      </trkpt>
      <trkpt lat="47.55205" lon="1.7633448">
        <ele>129</ele>
        <time>2022-03-17T09:50:52.000Z</time>
      </trkpt>
      <trkpt lat="47.552063" lon="1.7633423">
        <ele>129</ele>
        <time>2022-03-17T09:50:53.000Z</time>
      </trkpt>
      <trkpt lat="47.552074" lon="1.7633388">
        <ele>130</ele>
        <time>2022-03-17T09:50:54.000Z</time>
      </trkpt>
      <trkpt lat="47.552082" lon="1.7633369">
        <ele>130</ele>
        <time>2022-03-17T09:50:55.000Z</time>
      </trkpt>
      <trkpt lat="47.552086" lon="1.7633394">
        <ele>130</ele>
        <time>2022-03-17T09:50:56.000Z</time>
      </trkpt>
      <trkpt lat="47.552097" lon="1.7633415">
        <ele>130</ele>
        <time>2022-03-17T09:50:57.000Z</time>
      </trkpt>
      <trkpt lat="47.55211" lon="1.7633383">
        <ele>130</ele>
        <time>2022-03-17T09:50:58.000Z</time>
      </trkpt>
      <trkpt lat="47.552124" lon="1.7633361">
        <ele>129</ele>
        <time>2022-03-17T09:50:59.000Z</time>
      </trkpt>
      <trkpt lat="47.552135" lon="1.7633318">
        <ele>129</ele>
        <time>2022-03-17T09:51:00.000Z</time>
      </trkpt>
      <trkpt lat="47.552143" lon="1.7633272">
        <ele>129</ele>
        <time>2022-03-17T09:51:01.000Z</time>
      </trkpt>
      <trkpt lat="47.552162" lon="1.7633243">
        <ele>129</ele>
        <time>2022-03-17T09:51:02.000Z</time>
      </trkpt>
      <trkpt lat="47.552174" lon="1.7633184">
        <ele>129</ele>
        <time>2022-03-17T09:51:03.000Z</time>
      </trkpt>
      <trkpt lat="47.552185" lon="1.7633104">
        <ele>129</ele>
        <time>2022-03-17T09:51:04.000Z</time>
      </trkpt>
      <trkpt lat="47.552197" lon="1.7633064">
        <ele>129</ele>
        <time>2022-03-17T09:51:05.000Z</time>
      </trkpt>
      <trkpt lat="47.552204" lon="1.7633002">
        <ele>129</ele>
        <time>2022-03-17T09:51:06.000Z</time>
      </trkpt>
      <trkpt lat="47.552216" lon="1.7632945">
        <ele>129</ele>
        <time>2022-03-17T09:51:07.000Z</time>
      </trkpt>
      <trkpt lat="47.552227" lon="1.7632935">
        <ele>129</ele>
        <time>2022-03-17T09:51:08.000Z</time>
      </trkpt>
      <trkpt lat="47.552235" lon="1.7632935">
        <ele>129</ele>
        <time>2022-03-17T09:51:09.000Z</time>
      </trkpt>
      <trkpt lat="47.552246" lon="1.7632948">
        <ele>129</ele>
        <time>2022-03-17T09:51:10.000Z</time>
      </trkpt>
      <trkpt lat="47.552258" lon="1.7632914">
        <ele>129</ele>
        <time>2022-03-17T09:51:11.000Z</time>
      </trkpt>
      <trkpt lat="47.55227" lon="1.7632841">
        <ele>129</ele>
        <time>2022-03-17T09:51:12.000Z</time>
      </trkpt>
      <trkpt lat="47.55228" lon="1.7632765">
        <ele>129</ele>
        <time>2022-03-17T09:51:13.000Z</time>
      </trkpt>
      <trkpt lat="47.55229" lon="1.7632728">
        <ele>129</ele>
        <time>2022-03-17T09:51:14.000Z</time>
      </trkpt>
      <trkpt lat="47.552303" lon="1.763268">
        <ele>128</ele>
        <time>2022-03-17T09:51:15.000Z</time>
      </trkpt>
      <trkpt lat="47.552315" lon="1.7632687">
        <ele>128</ele>
        <time>2022-03-17T09:51:16.000Z</time>
      </trkpt>
      <trkpt lat="47.552326" lon="1.7632658">
        <ele>128</ele>
        <time>2022-03-17T09:51:17.000Z</time>
      </trkpt>
      <trkpt lat="47.552338" lon="1.7632592">
        <ele>128</ele>
        <time>2022-03-17T09:51:18.000Z</time>
      </trkpt>
      <trkpt lat="47.552345" lon="1.7632513">
        <ele>128</ele>
        <time>2022-03-17T09:51:19.000Z</time>
      </trkpt>
      <trkpt lat="47.552357" lon="1.7632449">
        <ele>128</ele>
        <time>2022-03-17T09:51:20.000Z</time>
      </trkpt>
      <trkpt lat="47.55236" lon="1.7632381">
        <ele>128</ele>
        <time>2022-03-17T09:51:21.000Z</time>
      </trkpt>
      <trkpt lat="47.55237" lon="1.7632354">
        <ele>128</ele>
        <time>2022-03-17T09:51:22.000Z</time>
      </trkpt>
      <trkpt lat="47.55238" lon="1.763235">
        <ele>128</ele>
        <time>2022-03-17T09:51:23.000Z</time>
      </trkpt>
      <trkpt lat="47.552387" lon="1.7632346">
        <ele>129</ele>
        <time>2022-03-17T09:51:24.000Z</time>
      </trkpt>
      <trkpt lat="47.55239" lon="1.7632338">
        <ele>129</ele>
        <time>2022-03-17T09:51:25.000Z</time>
      </trkpt>
      <trkpt lat="47.5524" lon="1.7632358">
        <ele>129</ele>
        <time>2022-03-17T09:51:26.000Z</time>
      </trkpt>
      <trkpt lat="47.55241" lon="1.7632389">
        <ele>129</ele>
        <time>2022-03-17T09:51:27.000Z</time>
      </trkpt>
      <trkpt lat="47.55241" lon="1.7632389">
        <ele>129</ele>
        <time>2022-03-17T09:51:28.000Z</time>
      </trkpt>
      <trkpt lat="47.55243" lon="1.7632319">
        <ele>128</ele>
        <time>2022-03-17T09:51:29.000Z</time>
      </trkpt>
      <trkpt lat="47.552444" lon="1.7632211">
        <ele>128</ele>
        <time>2022-03-17T09:51:30.000Z</time>
      </trkpt>
      <trkpt lat="47.552456" lon="1.7632097">
        <ele>129</ele>
        <time>2022-03-17T09:51:31.000Z</time>
      </trkpt>
      <trkpt lat="47.552467" lon="1.7632003">
        <ele>129</ele>
        <time>2022-03-17T09:51:32.000Z</time>
      </trkpt>
      <trkpt lat="47.552475" lon="1.7631906">
        <ele>129</ele>
        <time>2022-03-17T09:51:33.000Z</time>
      </trkpt>
      <trkpt lat="47.552483" lon="1.7631837">
        <ele>129</ele>
        <time>2022-03-17T09:51:34.000Z</time>
      </trkpt>
      <trkpt lat="47.552483" lon="1.7631837">
        <ele>129</ele>
        <time>2022-03-17T09:51:35.000Z</time>
      </trkpt>
      <trkpt lat="47.552505" lon="1.7631751">
        <ele>129</ele>
        <time>2022-03-17T09:51:36.000Z</time>
      </trkpt>
      <trkpt lat="47.552517" lon="1.7631682">
        <ele>129</ele>
        <time>2022-03-17T09:51:37.000Z</time>
      </trkpt>
      <trkpt lat="47.552532" lon="1.7631592">
        <ele>128</ele>
        <time>2022-03-17T09:51:38.000Z</time>
      </trkpt>
      <trkpt lat="47.552547" lon="1.763153">
        <ele>128</ele>
        <time>2022-03-17T09:51:39.000Z</time>
      </trkpt>
      <trkpt lat="47.55256" lon="1.7631469">
        <ele>127</ele>
        <time>2022-03-17T09:51:40.000Z</time>
      </trkpt>
      <trkpt lat="47.55257" lon="1.7631435">
        <ele>127</ele>
        <time>2022-03-17T09:51:41.000Z</time>
      </trkpt>
      <trkpt lat="47.55258" lon="1.763143">
        <ele>127</ele>
        <time>2022-03-17T09:51:42.000Z</time>
      </trkpt>
      <trkpt lat="47.55258" lon="1.763143">
        <ele>127</ele>
        <time>2022-03-17T09:51:43.000Z</time>
      </trkpt>
      <trkpt lat="47.55258" lon="1.763143">
        <ele>127</ele>
        <time>2022-03-17T09:51:44.000Z</time>
      </trkpt>
      <trkpt lat="47.55261" lon="1.7631325">
        <ele>126</ele>
        <time>2022-03-17T09:51:45.000Z</time>
      </trkpt>
      <trkpt lat="47.55262" lon="1.7631228">
        <ele>125</ele>
        <time>2022-03-17T09:51:46.000Z</time>
      </trkpt>
      <trkpt lat="47.55263" lon="1.7631192">
        <ele>125</ele>
        <time>2022-03-17T09:51:47.000Z</time>
      </trkpt>
      <trkpt lat="47.552647" lon="1.7631155">
        <ele>124</ele>
        <time>2022-03-17T09:51:48.000Z</time>
      </trkpt>
      <trkpt lat="47.552658" lon="1.7631043">
        <ele>123</ele>
        <time>2022-03-17T09:51:49.000Z</time>
      </trkpt>
      <trkpt lat="47.552673" lon="1.7630953">
        <ele>123</ele>
        <time>2022-03-17T09:51:50.000Z</time>
      </trkpt>
      <trkpt lat="47.55269" lon="1.7630895">
        <ele>122</ele>
        <time>2022-03-17T09:51:51.000Z</time>
      </trkpt>
      <trkpt lat="47.5527" lon="1.7630877">
        <ele>122</ele>
        <time>2022-03-17T09:51:52.000Z</time>
      </trkpt>
      <trkpt lat="47.552715" lon="1.7630945">
        <ele>121</ele>
        <time>2022-03-17T09:51:53.000Z</time>
      </trkpt>
      <trkpt lat="47.55273" lon="1.7631017">
        <ele>121</ele>
        <time>2022-03-17T09:51:54.000Z</time>
      </trkpt>
      <trkpt lat="47.55274" lon="1.763105">
        <ele>121</ele>
        <time>2022-03-17T09:51:55.000Z</time>
      </trkpt>
      <trkpt lat="47.552753" lon="1.7631027">
        <ele>121</ele>
        <time>2022-03-17T09:51:56.000Z</time>
      </trkpt>
      <trkpt lat="47.55276" lon="1.7630988">
        <ele>121</ele>
        <time>2022-03-17T09:51:57.000Z</time>
      </trkpt>
      <trkpt lat="47.552773" lon="1.7630943">
        <ele>121</ele>
        <time>2022-03-17T09:51:58.000Z</time>
      </trkpt>
      <trkpt lat="47.55278" lon="1.7630868">
        <ele>121</ele>
        <time>2022-03-17T09:51:59.000Z</time>
      </trkpt>
      <trkpt lat="47.552795" lon="1.7630879">
        <ele>121</ele>
        <time>2022-03-17T09:52:00.000Z</time>
      </trkpt>
      <trkpt lat="47.552807" lon="1.763088">
        <ele>120</ele>
        <time>2022-03-17T09:52:01.000Z</time>
      </trkpt>
      <trkpt lat="47.55282" lon="1.7630918">
        <ele>120</ele>
        <time>2022-03-17T09:52:02.000Z</time>
      </trkpt>
      <trkpt lat="47.55283" lon="1.7630919">
        <ele>120</ele>
        <time>2022-03-17T09:52:03.000Z</time>
      </trkpt>
      <trkpt lat="47.552837" lon="1.7630951">
        <ele>120</ele>
        <time>2022-03-17T09:52:04.000Z</time>
      </trkpt>
      <trkpt lat="47.55285" lon="1.7630929">
        <ele>120</ele>
        <time>2022-03-17T09:52:05.000Z</time>
      </trkpt>
      <trkpt lat="47.55286" lon="1.7630907">
        <ele>120</ele>
        <time>2022-03-17T09:52:06.000Z</time>
      </trkpt>
      <trkpt lat="47.55287" lon="1.7630941">
        <ele>120</ele>
        <time>2022-03-17T09:52:07.000Z</time>
      </trkpt>
      <trkpt lat="47.552883" lon="1.7630951">
        <ele>120</ele>
        <time>2022-03-17T09:52:08.000Z</time>
      </trkpt>
      <trkpt lat="47.552895" lon="1.7630935">
        <ele>120</ele>
        <time>2022-03-17T09:52:09.000Z</time>
      </trkpt>
      <trkpt lat="47.552906" lon="1.7630924">
        <ele>120</ele>
        <time>2022-03-17T09:52:10.000Z</time>
      </trkpt>
      <trkpt lat="47.552917" lon="1.7630914">
        <ele>120</ele>
        <time>2022-03-17T09:52:11.000Z</time>
      </trkpt>
      <trkpt lat="47.552925" lon="1.7630905">
        <ele>119</ele>
        <time>2022-03-17T09:52:12.000Z</time>
      </trkpt>
      <trkpt lat="47.55293" lon="1.7630886">
        <ele>119</ele>
        <time>2022-03-17T09:52:13.000Z</time>
      </trkpt>
      <trkpt lat="47.55293" lon="1.7630886">
        <ele>119</ele>
        <time>2022-03-17T09:52:14.000Z</time>
      </trkpt>
      <trkpt lat="47.552948" lon="1.7630804">
        <ele>119</ele>
        <time>2022-03-17T09:52:15.000Z</time>
      </trkpt>
      <trkpt lat="47.55296" lon="1.7630758">
        <ele>118</ele>
        <time>2022-03-17T09:52:16.000Z</time>
      </trkpt>
      <trkpt lat="47.55297" lon="1.7630708">
        <ele>118</ele>
        <time>2022-03-17T09:52:17.000Z</time>
      </trkpt>
      <trkpt lat="47.552982" lon="1.7630653">
        <ele>118</ele>
        <time>2022-03-17T09:52:18.000Z</time>
      </trkpt>
      <trkpt lat="47.55299" lon="1.7630621">
        <ele>118</ele>
        <time>2022-03-17T09:52:19.000Z</time>
      </trkpt>
      <trkpt lat="47.553005" lon="1.7630637">
        <ele>118</ele>
        <time>2022-03-17T09:52:20.000Z</time>
      </trkpt>
      <trkpt lat="47.553017" lon="1.763063">
        <ele>119</ele>
        <time>2022-03-17T09:52:21.000Z</time>
      </trkpt>
      <trkpt lat="47.55303" lon="1.7630544">
        <ele>119</ele>
        <time>2022-03-17T09:52:22.000Z</time>
      </trkpt>
      <trkpt lat="47.55304" lon="1.7630467">
        <ele>119</ele>
        <time>2022-03-17T09:52:23.000Z</time>
      </trkpt>
      <trkpt lat="47.553055" lon="1.7630433">
        <ele>119</ele>
        <time>2022-03-17T09:52:24.000Z</time>
      </trkpt>
      <trkpt lat="47.553074" lon="1.7630411">
        <ele>120</ele>
        <time>2022-03-17T09:52:25.000Z</time>
      </trkpt>
      <trkpt lat="47.55309" lon="1.7630363">
        <ele>120</ele>
        <time>2022-03-17T09:52:26.000Z</time>
      </trkpt>
      <trkpt lat="47.553104" lon="1.7630328">
        <ele>121</ele>
        <time>2022-03-17T09:52:27.000Z</time>
      </trkpt>
      <trkpt lat="47.55312" lon="1.7630303">
        <ele>121</ele>
        <time>2022-03-17T09:52:28.000Z</time>
      </trkpt>
      <trkpt lat="47.55313" lon="1.7630267">
        <ele>121</ele>
        <time>2022-03-17T09:52:29.000Z</time>
      </trkpt>
      <trkpt lat="47.553143" lon="1.76302">
        <ele>122</ele>
        <time>2022-03-17T09:52:30.000Z</time>
      </trkpt>
      <trkpt lat="47.553154" lon="1.7630137">
        <ele>122</ele>
        <time>2022-03-17T09:52:31.000Z</time>
      </trkpt>
      <trkpt lat="47.553165" lon="1.7630119">
        <ele>122</ele>
        <time>2022-03-17T09:52:32.000Z</time>
      </trkpt>
      <trkpt lat="47.553173" lon="1.7630124">
        <ele>122</ele>
        <time>2022-03-17T09:52:33.000Z</time>
      </trkpt>
      <trkpt lat="47.553185" lon="1.763013">
        <ele>122</ele>
        <time>2022-03-17T09:52:34.000Z</time>
      </trkpt>
      <trkpt lat="47.553192" lon="1.7630088">
        <ele>123</ele>
        <time>2022-03-17T09:52:35.000Z</time>
      </trkpt>
      <trkpt lat="47.55321" lon="1.7630063">
        <ele>123</ele>
        <time>2022-03-17T09:52:36.000Z</time>
      </trkpt>
      <trkpt lat="47.553223" lon="1.763002">
        <ele>123</ele>
        <time>2022-03-17T09:52:37.000Z</time>
      </trkpt>
      <trkpt lat="47.553234" lon="1.7629946">
        <ele>123</ele>
        <time>2022-03-17T09:52:38.000Z</time>
      </trkpt>
      <trkpt lat="47.55324" lon="1.7629889">
        <ele>123</ele>
        <time>2022-03-17T09:52:39.000Z</time>
      </trkpt>
      <trkpt lat="47.55326" lon="1.7629892">
        <ele>123</ele>
        <time>2022-03-17T09:52:40.000Z</time>
      </trkpt>
      <trkpt lat="47.553276" lon="1.7629848">
        <ele>123</ele>
        <time>2022-03-17T09:52:41.000Z</time>
      </trkpt>
      <trkpt lat="47.55329" lon="1.7629807">
        <ele>123</ele>
        <time>2022-03-17T09:52:42.000Z</time>
      </trkpt>
      <trkpt lat="47.553303" lon="1.7629749">
        <ele>123</ele>
        <time>2022-03-17T09:52:43.000Z</time>
      </trkpt>
      <trkpt lat="47.55331" lon="1.7629701">
        <ele>123</ele>
        <time>2022-03-17T09:52:44.000Z</time>
      </trkpt>
      <trkpt lat="47.55332" lon="1.7629656">
        <ele>123</ele>
        <time>2022-03-17T09:52:45.000Z</time>
      </trkpt>
      <trkpt lat="47.553333" lon="1.762962">
        <ele>124</ele>
        <time>2022-03-17T09:52:46.000Z</time>
      </trkpt>
      <trkpt lat="47.55335" lon="1.7629548">
        <ele>124</ele>
        <time>2022-03-17T09:52:47.000Z</time>
      </trkpt>
      <trkpt lat="47.553364" lon="1.7629507">
        <ele>124</ele>
        <time>2022-03-17T09:52:48.000Z</time>
      </trkpt>
      <trkpt lat="47.553375" lon="1.7629483">
        <ele>124</ele>
        <time>2022-03-17T09:52:49.000Z</time>
      </trkpt>
      <trkpt lat="47.553387" lon="1.7629439">
        <ele>125</ele>
        <time>2022-03-17T09:52:50.000Z</time>
      </trkpt>
      <trkpt lat="47.553394" lon="1.7629435">
        <ele>125</ele>
        <time>2022-03-17T09:52:51.000Z</time>
      </trkpt>
      <trkpt lat="47.55341" lon="1.7629464">
        <ele>126</ele>
        <time>2022-03-17T09:52:52.000Z</time>
      </trkpt>
      <trkpt lat="47.55342" lon="1.7629458">
        <ele>126</ele>
        <time>2022-03-17T09:52:53.000Z</time>
      </trkpt>
      <trkpt lat="47.553432" lon="1.7629427">
        <ele>126</ele>
        <time>2022-03-17T09:52:54.000Z</time>
      </trkpt>
      <trkpt lat="47.553448" lon="1.7629373">
        <ele>127</ele>
        <time>2022-03-17T09:52:55.000Z</time>
      </trkpt>
      <trkpt lat="47.553463" lon="1.7629371">
        <ele>126</ele>
        <time>2022-03-17T09:52:56.000Z</time>
      </trkpt>
      <trkpt lat="47.553474" lon="1.7629387">
        <ele>126</ele>
        <time>2022-03-17T09:52:57.000Z</time>
      </trkpt>
      <trkpt lat="47.55349" lon="1.7629377">
        <ele>126</ele>
        <time>2022-03-17T09:52:58.000Z</time>
      </trkpt>
      <trkpt lat="47.553497" lon="1.7629347">
        <ele>127</ele>
        <time>2022-03-17T09:52:59.000Z</time>
      </trkpt>
      <trkpt lat="47.553505" lon="1.7629315">
        <ele>127</ele>
        <time>2022-03-17T09:53:00.000Z</time>
      </trkpt>
      <trkpt lat="47.553513" lon="1.7629302">
        <ele>127</ele>
        <time>2022-03-17T09:53:01.000Z</time>
      </trkpt>
      <trkpt lat="47.553524" lon="1.762923">
        <ele>126</ele>
        <time>2022-03-17T09:53:02.000Z</time>
      </trkpt>
      <trkpt lat="47.553535" lon="1.7629232">
        <ele>126</ele>
        <time>2022-03-17T09:53:03.000Z</time>
      </trkpt>
      <trkpt lat="47.553547" lon="1.7629284">
        <ele>126</ele>
        <time>2022-03-17T09:53:04.000Z</time>
      </trkpt>
      <trkpt lat="47.55356" lon="1.7629253">
        <ele>126</ele>
        <time>2022-03-17T09:53:05.000Z</time>
      </trkpt>
      <trkpt lat="47.55357" lon="1.762922">
        <ele>126</ele>
        <time>2022-03-17T09:53:06.000Z</time>
      </trkpt>
      <trkpt lat="47.55358" lon="1.7629173">
        <ele>126</ele>
        <time>2022-03-17T09:53:07.000Z</time>
      </trkpt>
      <trkpt lat="47.553593" lon="1.7629147">
        <ele>126</ele>
        <time>2022-03-17T09:53:08.000Z</time>
      </trkpt>
      <trkpt lat="47.553604" lon="1.7629136">
        <ele>127</ele>
        <time>2022-03-17T09:53:09.000Z</time>
      </trkpt>
      <trkpt lat="47.55361" lon="1.7629112">
        <ele>126</ele>
        <time>2022-03-17T09:53:10.000Z</time>
      </trkpt>
      <trkpt lat="47.55362" lon="1.762908">
        <ele>126</ele>
        <time>2022-03-17T09:53:11.000Z</time>
      </trkpt>
      <trkpt lat="47.55363" lon="1.76291">
        <ele>126</ele>
        <time>2022-03-17T09:53:12.000Z</time>
      </trkpt>
      <trkpt lat="47.55364" lon="1.7629088">
        <ele>127</ele>
        <time>2022-03-17T09:53:13.000Z</time>
      </trkpt>
      <trkpt lat="47.553646" lon="1.7629069">
        <ele>127</ele>
        <time>2022-03-17T09:53:14.000Z</time>
      </trkpt>
      <trkpt lat="47.553658" lon="1.7629061">
        <ele>126</ele>
        <time>2022-03-17T09:53:15.000Z</time>
      </trkpt>
      <trkpt lat="47.553673" lon="1.7629006">
        <ele>126</ele>
        <time>2022-03-17T09:53:16.000Z</time>
      </trkpt>
      <trkpt lat="47.553688" lon="1.7628973">
        <ele>126</ele>
        <time>2022-03-17T09:53:17.000Z</time>
      </trkpt>
      <trkpt lat="47.5537" lon="1.7628919">
        <ele>126</ele>
        <time>2022-03-17T09:53:18.000Z</time>
      </trkpt>
      <trkpt lat="47.55371" lon="1.7628896">
        <ele>125</ele>
        <time>2022-03-17T09:53:19.000Z</time>
      </trkpt>
      <trkpt lat="47.553738" lon="1.7628874">
        <ele>126</ele>
        <time>2022-03-17T09:53:20.000Z</time>
      </trkpt>
      <trkpt lat="47.553738" lon="1.7628874">
        <ele>126</ele>
        <time>2022-03-17T09:53:20.000Z</time>
      </trkpt>
      <trkpt lat="47.55375" lon="1.762891">
        <ele>126</ele>
        <time>2022-03-17T09:53:22.000Z</time>
      </trkpt>
      <trkpt lat="47.553764" lon="1.7628857">
        <ele>127</ele>
        <time>2022-03-17T09:53:23.000Z</time>
      </trkpt>
      <trkpt lat="47.553776" lon="1.7628809">
        <ele>127</ele>
        <time>2022-03-17T09:53:24.000Z</time>
      </trkpt>
      <trkpt lat="47.553787" lon="1.7628772">
        <ele>128</ele>
        <time>2022-03-17T09:53:25.000Z</time>
      </trkpt>
      <trkpt lat="47.5538" lon="1.7628729">
        <ele>128</ele>
        <time>2022-03-17T09:53:26.000Z</time>
      </trkpt>
      <trkpt lat="47.55381" lon="1.7628704">
        <ele>128</ele>
        <time>2022-03-17T09:53:27.000Z</time>
      </trkpt>
      <trkpt lat="47.55382" lon="1.7628664">
        <ele>128</ele>
        <time>2022-03-17T09:53:28.000Z</time>
      </trkpt>
      <trkpt lat="47.55383" lon="1.7628627">
        <ele>128</ele>
        <time>2022-03-17T09:53:29.000Z</time>
      </trkpt>
      <trkpt lat="47.553837" lon="1.7628614">
        <ele>128</ele>
        <time>2022-03-17T09:53:30.000Z</time>
      </trkpt>
      <trkpt lat="47.553844" lon="1.7628568">
        <ele>128</ele>
        <time>2022-03-17T09:53:31.000Z</time>
      </trkpt>
      <trkpt lat="47.553844" lon="1.7628568">
        <ele>128</ele>
        <time>2022-03-17T09:53:32.000Z</time>
      </trkpt>
      <trkpt lat="47.553864" lon="1.7628502">
        <ele>128</ele>
        <time>2022-03-17T09:53:33.000Z</time>
      </trkpt>
      <trkpt lat="47.55388" lon="1.7628466">
        <ele>128</ele>
        <time>2022-03-17T09:53:34.000Z</time>
      </trkpt>
      <trkpt lat="47.553894" lon="1.762844">
        <ele>127</ele>
        <time>2022-03-17T09:53:35.000Z</time>
      </trkpt>
      <trkpt lat="47.553905" lon="1.7628425">
        <ele>127</ele>
        <time>2022-03-17T09:53:36.000Z</time>
      </trkpt>
      <trkpt lat="47.553917" lon="1.7628406">
        <ele>127</ele>
        <time>2022-03-17T09:53:37.000Z</time>
      </trkpt>
      <trkpt lat="47.553932" lon="1.762842">
        <ele>127</ele>
        <time>2022-03-17T09:53:38.000Z</time>
      </trkpt>
      <trkpt lat="47.553944" lon="1.7628387">
        <ele>127</ele>
        <time>2022-03-17T09:53:39.000Z</time>
      </trkpt>
      <trkpt lat="47.55396" lon="1.7628343">
        <ele>127</ele>
        <time>2022-03-17T09:53:40.000Z</time>
      </trkpt>
      <trkpt lat="47.55397" lon="1.7628288">
        <ele>127</ele>
        <time>2022-03-17T09:53:41.000Z</time>
      </trkpt>
      <trkpt lat="47.553986" lon="1.7628261">
        <ele>127</ele>
        <time>2022-03-17T09:53:42.000Z</time>
      </trkpt>
      <trkpt lat="47.553997" lon="1.7628261">
        <ele>128</ele>
        <time>2022-03-17T09:53:43.000Z</time>
      </trkpt>
      <trkpt lat="47.55401" lon="1.7628297">
        <ele>128</ele>
        <time>2022-03-17T09:53:44.000Z</time>
      </trkpt>
      <trkpt lat="47.554016" lon="1.762827">
        <ele>128</ele>
        <time>2022-03-17T09:53:45.000Z</time>
      </trkpt>
      <trkpt lat="47.554028" lon="1.7628224">
        <ele>128</ele>
        <time>2022-03-17T09:53:46.000Z</time>
      </trkpt>
      <trkpt lat="47.554043" lon="1.7628214">
        <ele>128</ele>
        <time>2022-03-17T09:53:47.000Z</time>
      </trkpt>
      <trkpt lat="47.554058" lon="1.7628183">
        <ele>128</ele>
        <time>2022-03-17T09:53:48.000Z</time>
      </trkpt>
      <trkpt lat="47.554073" lon="1.7628127">
        <ele>129</ele>
        <time>2022-03-17T09:53:49.000Z</time>
      </trkpt>
      <trkpt lat="47.55409" lon="1.7628043">
        <ele>129</ele>
        <time>2022-03-17T09:53:50.000Z</time>
      </trkpt>
      <trkpt lat="47.554104" lon="1.7628003">
        <ele>130</ele>
        <time>2022-03-17T09:53:51.000Z</time>
      </trkpt>
      <trkpt lat="47.554134" lon="1.7627909">
        <ele>131</ele>
        <time>2022-03-17T09:53:52.000Z</time>
      </trkpt>
      <trkpt lat="47.554134" lon="1.7627909">
        <ele>131</ele>
        <time>2022-03-17T09:53:52.000Z</time>
      </trkpt>
      <trkpt lat="47.554146" lon="1.7627878">
        <ele>131</ele>
        <time>2022-03-17T09:53:54.000Z</time>
      </trkpt>
      <trkpt lat="47.55416" lon="1.7627816">
        <ele>130</ele>
        <time>2022-03-17T09:53:55.000Z</time>
      </trkpt>
      <trkpt lat="47.554176" lon="1.7627755">
        <ele>130</ele>
        <time>2022-03-17T09:53:56.000Z</time>
      </trkpt>
      <trkpt lat="47.554188" lon="1.7627715">
        <ele>130</ele>
        <time>2022-03-17T09:53:57.000Z</time>
      </trkpt>
      <trkpt lat="47.554203" lon="1.7627685">
        <ele>130</ele>
        <time>2022-03-17T09:53:58.000Z</time>
      </trkpt>
      <trkpt lat="47.554237" lon="1.7627707">
        <ele>130</ele>
        <time>2022-03-17T09:53:59.000Z</time>
      </trkpt>
      <trkpt lat="47.55425" lon="1.7627707">
        <ele>130</ele>
        <time>2022-03-17T09:54:00.000Z</time>
      </trkpt>
      <trkpt lat="47.55426" lon="1.7627671">
        <ele>130</ele>
        <time>2022-03-17T09:54:01.000Z</time>
      </trkpt>
      <trkpt lat="47.554276" lon="1.7627672">
        <ele>130</ele>
        <time>2022-03-17T09:54:02.000Z</time>
      </trkpt>
      <trkpt lat="47.55429" lon="1.7627665">
        <ele>131</ele>
        <time>2022-03-17T09:54:03.000Z</time>
      </trkpt>
      <trkpt lat="47.55429" lon="1.7627665">
        <ele>131</ele>
        <time>2022-03-17T09:54:03.000Z</time>
      </trkpt>
      <trkpt lat="47.55432" lon="1.7627573">
        <ele>132</ele>
        <time>2022-03-17T09:54:05.000Z</time>
      </trkpt>
      <trkpt lat="47.55432" lon="1.7627573">
        <ele>132</ele>
        <time>2022-03-17T09:54:05.000Z</time>
      </trkpt>
      <trkpt lat="47.554356" lon="1.7627501">
        <ele>133</ele>
        <time>2022-03-17T09:54:07.000Z</time>
      </trkpt>
      <trkpt lat="47.55437" lon="1.7627501">
        <ele>133</ele>
        <time>2022-03-17T09:54:08.000Z</time>
      </trkpt>
      <trkpt lat="47.55439" lon="1.7627491">
        <ele>133</ele>
        <time>2022-03-17T09:54:09.000Z</time>
      </trkpt>
      <trkpt lat="47.55439" lon="1.7627491">
        <ele>133</ele>
        <time>2022-03-17T09:54:09.000Z</time>
      </trkpt>
      <trkpt lat="47.55442" lon="1.7627352">
        <ele>134</ele>
        <time>2022-03-17T09:54:11.000Z</time>
      </trkpt>
      <trkpt lat="47.554432" lon="1.7627308">
        <ele>134</ele>
        <time>2022-03-17T09:54:12.000Z</time>
      </trkpt>
      <trkpt lat="47.554443" lon="1.762726">
        <ele>134</ele>
        <time>2022-03-17T09:54:13.000Z</time>
      </trkpt>
      <trkpt lat="47.554455" lon="1.762723">
        <ele>134</ele>
        <time>2022-03-17T09:54:14.000Z</time>
      </trkpt>
      <trkpt lat="47.554474" lon="1.7627251">
        <ele>134</ele>
        <time>2022-03-17T09:54:15.000Z</time>
      </trkpt>
      <trkpt lat="47.55449" lon="1.7627256">
        <ele>135</ele>
        <time>2022-03-17T09:54:16.000Z</time>
      </trkpt>
      <trkpt lat="47.55451" lon="1.7627228">
        <ele>135</ele>
        <time>2022-03-17T09:54:17.000Z</time>
      </trkpt>
      <trkpt lat="47.554527" lon="1.7627171">
        <ele>136</ele>
        <time>2022-03-17T09:54:18.000Z</time>
      </trkpt>
      <trkpt lat="47.554543" lon="1.7627115">
        <ele>136</ele>
        <time>2022-03-17T09:54:19.000Z</time>
      </trkpt>
      <trkpt lat="47.554558" lon="1.7627084">
        <ele>136</ele>
        <time>2022-03-17T09:54:20.000Z</time>
      </trkpt>
      <trkpt lat="47.554565" lon="1.7627056">
        <ele>136</ele>
        <time>2022-03-17T09:54:21.000Z</time>
      </trkpt>
      <trkpt lat="47.554577" lon="1.7627016">
        <ele>136</ele>
        <time>2022-03-17T09:54:22.000Z</time>
      </trkpt>
      <trkpt lat="47.55459" lon="1.7627002">
        <ele>136</ele>
        <time>2022-03-17T09:54:23.000Z</time>
      </trkpt>
      <trkpt lat="47.5546" lon="1.7626979">
        <ele>137</ele>
        <time>2022-03-17T09:54:24.000Z</time>
      </trkpt>
      <trkpt lat="47.55461" lon="1.7626934">
        <ele>137</ele>
        <time>2022-03-17T09:54:25.000Z</time>
      </trkpt>
      <trkpt lat="47.55463" lon="1.762688">
        <ele>137</ele>
        <time>2022-03-17T09:54:26.000Z</time>
      </trkpt>
      <trkpt lat="47.55464" lon="1.762681">
        <ele>137</ele>
        <time>2022-03-17T09:54:27.000Z</time>
      </trkpt>
      <trkpt lat="47.554657" lon="1.7626778">
        <ele>137</ele>
        <time>2022-03-17T09:54:28.000Z</time>
      </trkpt>
      <trkpt lat="47.554672" lon="1.7626752">
        <ele>138</ele>
        <time>2022-03-17T09:54:29.000Z</time>
      </trkpt>
      <trkpt lat="47.554688" lon="1.7626735">
        <ele>138</ele>
        <time>2022-03-17T09:54:30.000Z</time>
      </trkpt>
      <trkpt lat="47.554703" lon="1.7626728">
        <ele>139</ele>
        <time>2022-03-17T09:54:31.000Z</time>
      </trkpt>
      <trkpt lat="47.55472" lon="1.7626723">
        <ele>139</ele>
        <time>2022-03-17T09:54:32.000Z</time>
      </trkpt>
      <trkpt lat="47.554737" lon="1.7626702">
        <ele>140</ele>
        <time>2022-03-17T09:54:33.000Z</time>
      </trkpt>
      <trkpt lat="47.554752" lon="1.7626711">
        <ele>141</ele>
        <time>2022-03-17T09:54:34.000Z</time>
      </trkpt>
      <trkpt lat="47.55477" lon="1.76267">
        <ele>141</ele>
        <time>2022-03-17T09:54:35.000Z</time>
      </trkpt>
      <trkpt lat="47.554787" lon="1.7626686">
        <ele>141</ele>
        <time>2022-03-17T09:54:36.000Z</time>
      </trkpt>
      <trkpt lat="47.554802" lon="1.7626628">
        <ele>141</ele>
        <time>2022-03-17T09:54:37.000Z</time>
      </trkpt>
      <trkpt lat="47.554813" lon="1.7626607">
        <ele>141</ele>
        <time>2022-03-17T09:54:38.000Z</time>
      </trkpt>
      <trkpt lat="47.55483" lon="1.7626544">
        <ele>141</ele>
        <time>2022-03-17T09:54:39.000Z</time>
      </trkpt>
      <trkpt lat="47.55484" lon="1.7626518">
        <ele>142</ele>
        <time>2022-03-17T09:54:40.000Z</time>
      </trkpt>
      <trkpt lat="47.55485" lon="1.762648">
        <ele>142</ele>
        <time>2022-03-17T09:54:41.000Z</time>
      </trkpt>
      <trkpt lat="47.554863" lon="1.7626433">
        <ele>142</ele>
        <time>2022-03-17T09:54:42.000Z</time>
      </trkpt>
      <trkpt lat="47.55488" lon="1.7626381">
        <ele>142</ele>
        <time>2022-03-17T09:54:43.000Z</time>
      </trkpt>
      <trkpt lat="47.554893" lon="1.7626364">
        <ele>143</ele>
        <time>2022-03-17T09:54:44.000Z</time>
      </trkpt>
      <trkpt lat="47.55491" lon="1.7626358">
        <ele>143</ele>
        <time>2022-03-17T09:54:45.000Z</time>
      </trkpt>
      <trkpt lat="47.554916" lon="1.7626343">
        <ele>143</ele>
        <time>2022-03-17T09:54:46.000Z</time>
      </trkpt>
      <trkpt lat="47.55493" lon="1.7626342">
        <ele>143</ele>
        <time>2022-03-17T09:54:47.000Z</time>
      </trkpt>
      <trkpt lat="47.554947" lon="1.76263">
        <ele>143</ele>
        <time>2022-03-17T09:54:48.000Z</time>
      </trkpt>
      <trkpt lat="47.554962" lon="1.7626266">
        <ele>143</ele>
        <time>2022-03-17T09:54:49.000Z</time>
      </trkpt>
      <trkpt lat="47.554977" lon="1.7626231">
        <ele>143</ele>
        <time>2022-03-17T09:54:50.000Z</time>
      </trkpt>
      <trkpt lat="47.554993" lon="1.7626184">
        <ele>143</ele>
        <time>2022-03-17T09:54:51.000Z</time>
      </trkpt>
      <trkpt lat="47.555008" lon="1.7626158">
        <ele>143</ele>
        <time>2022-03-17T09:54:52.000Z</time>
      </trkpt>
      <trkpt lat="47.555023" lon="1.7626144">
        <ele>143</ele>
        <time>2022-03-17T09:54:53.000Z</time>
      </trkpt>
      <trkpt lat="47.555042" lon="1.7626125">
        <ele>143</ele>
        <time>2022-03-17T09:54:54.000Z</time>
      </trkpt>
      <trkpt lat="47.555054" lon="1.7626098">
        <ele>144</ele>
        <time>2022-03-17T09:54:55.000Z</time>
      </trkpt>
      <trkpt lat="47.55507" lon="1.7626113">
        <ele>144</ele>
        <time>2022-03-17T09:54:56.000Z</time>
      </trkpt>
      <trkpt lat="47.555084" lon="1.7626078">
        <ele>144</ele>
        <time>2022-03-17T09:54:57.000Z</time>
      </trkpt>
      <trkpt lat="47.5551" lon="1.7626058">
        <ele>144</ele>
        <time>2022-03-17T09:54:58.000Z</time>
      </trkpt>
      <trkpt lat="47.55511" lon="1.7626028">
        <ele>144</ele>
        <time>2022-03-17T09:54:59.000Z</time>
      </trkpt>
      <trkpt lat="47.555122" lon="1.7625992">
        <ele>145</ele>
        <time>2022-03-17T09:55:00.000Z</time>
      </trkpt>
      <trkpt lat="47.555138" lon="1.7625946">
        <ele>145</ele>
        <time>2022-03-17T09:55:01.000Z</time>
      </trkpt>
      <trkpt lat="47.555145" lon="1.7625927">
        <ele>145</ele>
        <time>2022-03-17T09:55:02.000Z</time>
      </trkpt>
      <trkpt lat="47.55516" lon="1.76259">
        <ele>145</ele>
        <time>2022-03-17T09:55:03.000Z</time>
      </trkpt>
      <trkpt lat="47.555172" lon="1.7625905">
        <ele>145</ele>
        <time>2022-03-17T09:55:04.000Z</time>
      </trkpt>
      <trkpt lat="47.555183" lon="1.7625906">
        <ele>146</ele>
        <time>2022-03-17T09:55:05.000Z</time>
      </trkpt>
      <trkpt lat="47.555195" lon="1.762593">
        <ele>145</ele>
        <time>2022-03-17T09:55:06.000Z</time>
      </trkpt>
      <trkpt lat="47.555202" lon="1.7625939">
        <ele>145</ele>
        <time>2022-03-17T09:55:07.000Z</time>
      </trkpt>
      <trkpt lat="47.555214" lon="1.7625905">
        <ele>145</ele>
        <time>2022-03-17T09:55:08.000Z</time>
      </trkpt>
      <trkpt lat="47.55522" lon="1.7625867">
        <ele>145</ele>
        <time>2022-03-17T09:55:09.000Z</time>
      </trkpt>
      <trkpt lat="47.555233" lon="1.7625809">
        <ele>145</ele>
        <time>2022-03-17T09:55:10.000Z</time>
      </trkpt>
      <trkpt lat="47.555244" lon="1.7625811">
        <ele>145</ele>
        <time>2022-03-17T09:55:11.000Z</time>
      </trkpt>
      <trkpt lat="47.555256" lon="1.7625881">
        <ele>145</ele>
        <time>2022-03-17T09:55:12.000Z</time>
      </trkpt>
      <trkpt lat="47.555267" lon="1.762585">
        <ele>145</ele>
        <time>2022-03-17T09:55:13.000Z</time>
      </trkpt>
      <trkpt lat="47.555283" lon="1.7625791">
        <ele>145</ele>
        <time>2022-03-17T09:55:14.000Z</time>
      </trkpt>
      <trkpt lat="47.555294" lon="1.7625743">
        <ele>145</ele>
        <time>2022-03-17T09:55:15.000Z</time>
      </trkpt>
      <trkpt lat="47.55531" lon="1.7625669">
        <ele>145</ele>
        <time>2022-03-17T09:55:16.000Z</time>
      </trkpt>
      <trkpt lat="47.55532" lon="1.7625643">
        <ele>145</ele>
        <time>2022-03-17T09:55:17.000Z</time>
      </trkpt>
      <trkpt lat="47.555332" lon="1.762558">
        <ele>145</ele>
        <time>2022-03-17T09:55:18.000Z</time>
      </trkpt>
      <trkpt lat="47.555344" lon="1.7625564">
        <ele>145</ele>
        <time>2022-03-17T09:55:19.000Z</time>
      </trkpt>
      <trkpt lat="47.55535" lon="1.7625535">
        <ele>146</ele>
        <time>2022-03-17T09:55:20.000Z</time>
      </trkpt>
      <trkpt lat="47.555363" lon="1.7625506">
        <ele>146</ele>
        <time>2022-03-17T09:55:21.000Z</time>
      </trkpt>
      <trkpt lat="47.555374" lon="1.7625483">
        <ele>147</ele>
        <time>2022-03-17T09:55:22.000Z</time>
      </trkpt>
      <trkpt lat="47.555386" lon="1.7625452">
        <ele>147</ele>
        <time>2022-03-17T09:55:23.000Z</time>
      </trkpt>
      <trkpt lat="47.555393" lon="1.7625415">
        <ele>147</ele>
        <time>2022-03-17T09:55:24.000Z</time>
      </trkpt>
      <trkpt lat="47.555405" lon="1.7625358">
        <ele>147</ele>
        <time>2022-03-17T09:55:25.000Z</time>
      </trkpt>
      <trkpt lat="47.555412" lon="1.7625337">
        <ele>147</ele>
        <time>2022-03-17T09:55:26.000Z</time>
      </trkpt>
      <trkpt lat="47.555424" lon="1.7625258">
        <ele>147</ele>
        <time>2022-03-17T09:55:27.000Z</time>
      </trkpt>
      <trkpt lat="47.555435" lon="1.7625192">
        <ele>146</ele>
        <time>2022-03-17T09:55:28.000Z</time>
      </trkpt>
      <trkpt lat="47.555447" lon="1.76251">
        <ele>146</ele>
        <time>2022-03-17T09:55:29.000Z</time>
      </trkpt>
      <trkpt lat="47.555454" lon="1.7625082">
        <ele>146</ele>
        <time>2022-03-17T09:55:30.000Z</time>
      </trkpt>
      <trkpt lat="47.555466" lon="1.7625093">
        <ele>146</ele>
        <time>2022-03-17T09:55:31.000Z</time>
      </trkpt>
      <trkpt lat="47.555473" lon="1.7625079">
        <ele>145</ele>
        <time>2022-03-17T09:55:32.000Z</time>
      </trkpt>
      <trkpt lat="47.55548" lon="1.7625029">
        <ele>145</ele>
        <time>2022-03-17T09:55:33.000Z</time>
      </trkpt>
      <trkpt lat="47.55549" lon="1.7625">
        <ele>146</ele>
        <time>2022-03-17T09:55:34.000Z</time>
      </trkpt>
      <trkpt lat="47.55549" lon="1.7625005">
        <ele>145</ele>
        <time>2022-03-17T09:55:35.000Z</time>
      </trkpt>
      <trkpt lat="47.555492" lon="1.7625023">
        <ele>145</ele>
        <time>2022-03-17T09:55:36.000Z</time>
      </trkpt>
      <trkpt lat="47.555492" lon="1.762511">
        <ele>145</ele>
        <time>2022-03-17T09:55:37.000Z</time>
      </trkpt>
      <trkpt lat="47.555496" lon="1.762511">
        <ele>146</ele>
        <time>2022-03-17T09:55:38.000Z</time>
      </trkpt>
      <trkpt lat="47.5555" lon="1.7625166">
        <ele>146</ele>
        <time>2022-03-17T09:55:39.000Z</time>
      </trkpt>
      <trkpt lat="47.5555" lon="1.7625166">
        <ele>146</ele>
        <time>2022-03-17T09:55:39.000Z</time>
      </trkpt>
      <trkpt lat="47.5555" lon="1.7625166">
        <ele>146</ele>
        <time>2022-03-17T09:55:39.000Z</time>
      </trkpt>
      <trkpt lat="47.555584" lon="1.7625033">
        <ele>147</ele>
        <time>2022-03-17T09:56:25.000Z</time>
      </trkpt>
      <trkpt lat="47.55559" lon="1.7625096">
        <ele>147</ele>
        <time>2022-03-17T09:56:26.000Z</time>
      </trkpt>
      <trkpt lat="47.555588" lon="1.7625155">
        <ele>146</ele>
        <time>2022-03-17T09:56:27.000Z</time>
      </trkpt>
      <trkpt lat="47.55559" lon="1.7625233">
        <ele>147</ele>
        <time>2022-03-17T09:56:28.000Z</time>
      </trkpt>
      <trkpt lat="47.555595" lon="1.7625381">
        <ele>147</ele>
        <time>2022-03-17T09:56:29.000Z</time>
      </trkpt>
      <trkpt lat="47.5556" lon="1.7625605">
        <ele>147</ele>
        <time>2022-03-17T09:56:30.000Z</time>
      </trkpt>
      <trkpt lat="47.5556" lon="1.7625746">
        <ele>147</ele>
        <time>2022-03-17T09:56:31.000Z</time>
      </trkpt>
      <trkpt lat="47.555595" lon="1.7625879">
        <ele>148</ele>
        <time>2022-03-17T09:56:32.000Z</time>
      </trkpt>
      <trkpt lat="47.555588" lon="1.7625966">
        <ele>148</ele>
        <time>2022-03-17T09:56:33.000Z</time>
      </trkpt>
      <trkpt lat="47.555584" lon="1.7626101">
        <ele>147</ele>
        <time>2022-03-17T09:56:34.000Z</time>
      </trkpt>
      <trkpt lat="47.55558" lon="1.7626262">
        <ele>148</ele>
        <time>2022-03-17T09:56:35.000Z</time>
      </trkpt>
      <trkpt lat="47.55558" lon="1.7626449">
        <ele>149</ele>
        <time>2022-03-17T09:56:36.000Z</time>
      </trkpt>
      <trkpt lat="47.555576" lon="1.7626604">
        <ele>149</ele>
        <time>2022-03-17T09:56:37.000Z</time>
      </trkpt>
      <trkpt lat="47.555573" lon="1.7626761">
        <ele>149</ele>
        <time>2022-03-17T09:56:38.000Z</time>
      </trkpt>
      <trkpt lat="47.555573" lon="1.7626911">
        <ele>150</ele>
        <time>2022-03-17T09:56:39.000Z</time>
      </trkpt>
      <trkpt lat="47.55557" lon="1.7627045">
        <ele>150</ele>
        <time>2022-03-17T09:56:40.000Z</time>
      </trkpt>
      <trkpt lat="47.55557" lon="1.7627153">
        <ele>150</ele>
        <time>2022-03-17T09:56:41.000Z</time>
      </trkpt>
      <trkpt lat="47.55557" lon="1.7627335">
        <ele>150</ele>
        <time>2022-03-17T09:56:42.000Z</time>
      </trkpt>
      <trkpt lat="47.555573" lon="1.7627488">
        <ele>151</ele>
        <time>2022-03-17T09:56:43.000Z</time>
      </trkpt>
      <trkpt lat="47.55557" lon="1.7627666">
        <ele>151</ele>
        <time>2022-03-17T09:56:44.000Z</time>
      </trkpt>
      <trkpt lat="47.55557" lon="1.7627848">
        <ele>151</ele>
        <time>2022-03-17T09:56:45.000Z</time>
      </trkpt>
      <trkpt lat="47.55557" lon="1.762806">
        <ele>151</ele>
        <time>2022-03-17T09:56:46.000Z</time>
      </trkpt>
      <trkpt lat="47.55557" lon="1.7628089">
        <ele>150</ele>
        <time>2022-03-17T09:56:47.000Z</time>
      </trkpt>
      <trkpt lat="47.55557" lon="1.7628089">
        <ele>150</ele>
        <time>2022-03-17T09:56:48.000Z</time>
      </trkpt>
      <trkpt lat="47.55557" lon="1.762821">
        <ele>150</ele>
        <time>2022-03-17T09:56:49.000Z</time>
      </trkpt>
      <trkpt lat="47.55557" lon="1.7628323">
        <ele>150</ele>
        <time>2022-03-17T09:56:50.000Z</time>
      </trkpt>
      <trkpt lat="47.55557" lon="1.762845">
        <ele>149</ele>
        <time>2022-03-17T09:56:51.000Z</time>
      </trkpt>
      <trkpt lat="47.555565" lon="1.7628636">
        <ele>149</ele>
        <time>2022-03-17T09:56:52.000Z</time>
      </trkpt>
      <trkpt lat="47.55556" lon="1.762879">
        <ele>149</ele>
        <time>2022-03-17T09:56:53.000Z</time>
      </trkpt>
      <trkpt lat="47.55556" lon="1.7628816">
        <ele>150</ele>
        <time>2022-03-17T09:56:54.000Z</time>
      </trkpt>
      <trkpt lat="47.55556" lon="1.7628818">
        <ele>150</ele>
        <time>2022-03-17T09:56:55.000Z</time>
      </trkpt>
      <trkpt lat="47.55556" lon="1.762882">
        <ele>150</ele>
        <time>2022-03-17T09:56:56.000Z</time>
      </trkpt>
      <trkpt lat="47.55556" lon="1.7628947">
        <ele>149</ele>
        <time>2022-03-17T09:56:57.000Z</time>
      </trkpt>
      <trkpt lat="47.555557" lon="1.7629083">
        <ele>149</ele>
        <time>2022-03-17T09:56:58.000Z</time>
      </trkpt>
      <trkpt lat="47.555553" lon="1.7629241">
        <ele>149</ele>
        <time>2022-03-17T09:56:59.000Z</time>
      </trkpt>
      <trkpt lat="47.55555" lon="1.7629412">
        <ele>148</ele>
        <time>2022-03-17T09:57:00.000Z</time>
      </trkpt>
      <trkpt lat="47.555546" lon="1.762963">
        <ele>148</ele>
        <time>2022-03-17T09:57:01.000Z</time>
      </trkpt>
      <trkpt lat="47.555546" lon="1.7629882">
        <ele>149</ele>
        <time>2022-03-17T09:57:02.000Z</time>
      </trkpt>
      <trkpt lat="47.555542" lon="1.7630092">
        <ele>148</ele>
        <time>2022-03-17T09:57:03.000Z</time>
      </trkpt>
      <trkpt lat="47.55554" lon="1.7630363">
        <ele>149</ele>
        <time>2022-03-17T09:57:04.000Z</time>
      </trkpt>
      <trkpt lat="47.555534" lon="1.763058">
        <ele>149</ele>
        <time>2022-03-17T09:57:05.000Z</time>
      </trkpt>
      <trkpt lat="47.555534" lon="1.7630781">
        <ele>149</ele>
        <time>2022-03-17T09:57:06.000Z</time>
      </trkpt>
      <trkpt lat="47.55553" lon="1.7630968">
        <ele>149</ele>
        <time>2022-03-17T09:57:07.000Z</time>
      </trkpt>
      <trkpt lat="47.555534" lon="1.7631172">
        <ele>148</ele>
        <time>2022-03-17T09:57:08.000Z</time>
      </trkpt>
      <trkpt lat="47.555534" lon="1.7631413">
        <ele>148</ele>
        <time>2022-03-17T09:57:09.000Z</time>
      </trkpt>
      <trkpt lat="47.55553" lon="1.7631612">
        <ele>148</ele>
        <time>2022-03-17T09:57:10.000Z</time>
      </trkpt>
      <trkpt lat="47.555527" lon="1.7631853">
        <ele>149</ele>
        <time>2022-03-17T09:57:11.000Z</time>
      </trkpt>
      <trkpt lat="47.555523" lon="1.7632016">
        <ele>149</ele>
        <time>2022-03-17T09:57:12.000Z</time>
      </trkpt>
      <trkpt lat="47.555523" lon="1.7632205">
        <ele>148</ele>
        <time>2022-03-17T09:57:13.000Z</time>
      </trkpt>
      <trkpt lat="47.55552" lon="1.7632381">
        <ele>148</ele>
        <time>2022-03-17T09:57:14.000Z</time>
      </trkpt>
      <trkpt lat="47.555515" lon="1.763256">
        <ele>148</ele>
        <time>2022-03-17T09:57:15.000Z</time>
      </trkpt>
      <trkpt lat="47.555515" lon="1.7632744">
        <ele>148</ele>
        <time>2022-03-17T09:57:16.000Z</time>
      </trkpt>
      <trkpt lat="47.555515" lon="1.76329">
        <ele>147</ele>
        <time>2022-03-17T09:57:17.000Z</time>
      </trkpt>
      <trkpt lat="47.555515" lon="1.76331">
        <ele>146</ele>
        <time>2022-03-17T09:57:18.000Z</time>
      </trkpt>
      <trkpt lat="47.555515" lon="1.7633258">
        <ele>146</ele>
        <time>2022-03-17T09:57:19.000Z</time>
      </trkpt>
      <trkpt lat="47.555515" lon="1.7633454">
        <ele>146</ele>
        <time>2022-03-17T09:57:20.000Z</time>
      </trkpt>
      <trkpt lat="47.55551" lon="1.7633616">
        <ele>146</ele>
        <time>2022-03-17T09:57:21.000Z</time>
      </trkpt>
      <trkpt lat="47.555508" lon="1.7633771">
        <ele>146</ele>
        <time>2022-03-17T09:57:22.000Z</time>
      </trkpt>
      <trkpt lat="47.555508" lon="1.7633969">
        <ele>146</ele>
        <time>2022-03-17T09:57:23.000Z</time>
      </trkpt>
      <trkpt lat="47.555508" lon="1.7634134">
        <ele>146</ele>
        <time>2022-03-17T09:57:24.000Z</time>
      </trkpt>
      <trkpt lat="47.55551" lon="1.763432">
        <ele>146</ele>
        <time>2022-03-17T09:57:25.000Z</time>
      </trkpt>
      <trkpt lat="47.555508" lon="1.7634488">
        <ele>145</ele>
        <time>2022-03-17T09:57:26.000Z</time>
      </trkpt>
      <trkpt lat="47.555508" lon="1.7634668">
        <ele>144</ele>
        <time>2022-03-17T09:57:27.000Z</time>
      </trkpt>
      <trkpt lat="47.555504" lon="1.7634825">
        <ele>144</ele>
        <time>2022-03-17T09:57:28.000Z</time>
      </trkpt>
      <trkpt lat="47.5555" lon="1.7635012">
        <ele>145</ele>
        <time>2022-03-17T09:57:29.000Z</time>
      </trkpt>
      <trkpt lat="47.555496" lon="1.7635156">
        <ele>145</ele>
        <time>2022-03-17T09:57:30.000Z</time>
      </trkpt>
      <trkpt lat="47.555492" lon="1.7635336">
        <ele>145</ele>
        <time>2022-03-17T09:57:31.000Z</time>
      </trkpt>
      <trkpt lat="47.55549" lon="1.7635527">
        <ele>146</ele>
        <time>2022-03-17T09:57:32.000Z</time>
      </trkpt>
      <trkpt lat="47.555485" lon="1.7635752">
        <ele>146</ele>
        <time>2022-03-17T09:57:33.000Z</time>
      </trkpt>
      <trkpt lat="47.55548" lon="1.7635993">
        <ele>146</ele>
        <time>2022-03-17T09:57:34.000Z</time>
      </trkpt>
      <trkpt lat="47.555477" lon="1.7636168">
        <ele>146</ele>
        <time>2022-03-17T09:57:35.000Z</time>
      </trkpt>
      <trkpt lat="47.555477" lon="1.7636325">
        <ele>146</ele>
        <time>2022-03-17T09:57:36.000Z</time>
      </trkpt>
      <trkpt lat="47.55547" lon="1.7636492">
        <ele>146</ele>
        <time>2022-03-17T09:57:37.000Z</time>
      </trkpt>
      <trkpt lat="47.55547" lon="1.7636642">
        <ele>145</ele>
        <time>2022-03-17T09:57:38.000Z</time>
      </trkpt>
      <trkpt lat="47.555466" lon="1.7636883">
        <ele>146</ele>
        <time>2022-03-17T09:57:39.000Z</time>
      </trkpt>
      <trkpt lat="47.55546" lon="1.763704">
        <ele>146</ele>
        <time>2022-03-17T09:57:40.000Z</time>
      </trkpt>
      <trkpt lat="47.55546" lon="1.7637209">
        <ele>146</ele>
        <time>2022-03-17T09:57:41.000Z</time>
      </trkpt>
      <trkpt lat="47.555458" lon="1.7637349">
        <ele>147</ele>
        <time>2022-03-17T09:57:42.000Z</time>
      </trkpt>
      <trkpt lat="47.555454" lon="1.7637494">
        <ele>147</ele>
        <time>2022-03-17T09:57:43.000Z</time>
      </trkpt>
      <trkpt lat="47.55545" lon="1.7637665">
        <ele>147</ele>
        <time>2022-03-17T09:57:44.000Z</time>
      </trkpt>
      <trkpt lat="47.55545" lon="1.7637849">
        <ele>146</ele>
        <time>2022-03-17T09:57:45.000Z</time>
      </trkpt>
      <trkpt lat="47.555447" lon="1.7638004">
        <ele>146</ele>
        <time>2022-03-17T09:57:46.000Z</time>
      </trkpt>
      <trkpt lat="47.55544" lon="1.7638156">
        <ele>145</ele>
        <time>2022-03-17T09:57:47.000Z</time>
      </trkpt>
      <trkpt lat="47.555435" lon="1.7638329">
        <ele>145</ele>
        <time>2022-03-17T09:57:48.000Z</time>
      </trkpt>
      <trkpt lat="47.55543" lon="1.7638512">
        <ele>145</ele>
        <time>2022-03-17T09:57:49.000Z</time>
      </trkpt>
      <trkpt lat="47.55543" lon="1.7638707">
        <ele>145</ele>
        <time>2022-03-17T09:57:50.000Z</time>
      </trkpt>
      <trkpt lat="47.55543" lon="1.7638925">
        <ele>145</ele>
        <time>2022-03-17T09:57:51.000Z</time>
      </trkpt>
      <trkpt lat="47.55543" lon="1.763912">
        <ele>145</ele>
        <time>2022-03-17T09:57:52.000Z</time>
      </trkpt>
      <trkpt lat="47.555428" lon="1.7639296">
        <ele>145</ele>
        <time>2022-03-17T09:57:53.000Z</time>
      </trkpt>
      <trkpt lat="47.555428" lon="1.7639464">
        <ele>145</ele>
        <time>2022-03-17T09:57:54.000Z</time>
      </trkpt>
      <trkpt lat="47.555424" lon="1.7639617">
        <ele>145</ele>
        <time>2022-03-17T09:57:55.000Z</time>
      </trkpt>
      <trkpt lat="47.55542" lon="1.7639775">
        <ele>145</ele>
        <time>2022-03-17T09:57:56.000Z</time>
      </trkpt>
      <trkpt lat="47.55542" lon="1.7639941">
        <ele>144</ele>
        <time>2022-03-17T09:57:57.000Z</time>
      </trkpt>
      <trkpt lat="47.555416" lon="1.7640119">
        <ele>145</ele>
        <time>2022-03-17T09:57:58.000Z</time>
      </trkpt>
      <trkpt lat="47.555412" lon="1.7640308">
        <ele>145</ele>
        <time>2022-03-17T09:57:59.000Z</time>
      </trkpt>
      <trkpt lat="47.55541" lon="1.7640481">
        <ele>145</ele>
        <time>2022-03-17T09:58:00.000Z</time>
      </trkpt>
      <trkpt lat="47.555405" lon="1.7640574">
        <ele>146</ele>
        <time>2022-03-17T09:58:01.000Z</time>
      </trkpt>
      <trkpt lat="47.555405" lon="1.7640692">
        <ele>146</ele>
        <time>2022-03-17T09:58:02.000Z</time>
      </trkpt>
      <trkpt lat="47.555405" lon="1.7640859">
        <ele>146</ele>
        <time>2022-03-17T09:58:03.000Z</time>
      </trkpt>
      <trkpt lat="47.5554" lon="1.7641011">
        <ele>146</ele>
        <time>2022-03-17T09:58:04.000Z</time>
      </trkpt>
      <trkpt lat="47.5554" lon="1.7641164">
        <ele>146</ele>
        <time>2022-03-17T09:58:05.000Z</time>
      </trkpt>
      <trkpt lat="47.555405" lon="1.7641315">
        <ele>146</ele>
        <time>2022-03-17T09:58:06.000Z</time>
      </trkpt>
      <trkpt lat="47.5554" lon="1.7641541">
        <ele>145</ele>
        <time>2022-03-17T09:58:07.000Z</time>
      </trkpt>
      <trkpt lat="47.555405" lon="1.7641729">
        <ele>145</ele>
        <time>2022-03-17T09:58:08.000Z</time>
      </trkpt>
      <trkpt lat="47.5554" lon="1.7641884">
        <ele>144</ele>
        <time>2022-03-17T09:58:09.000Z</time>
      </trkpt>
      <trkpt lat="47.555397" lon="1.7642068">
        <ele>144</ele>
        <time>2022-03-17T09:58:10.000Z</time>
      </trkpt>
      <trkpt lat="47.555393" lon="1.7642242">
        <ele>144</ele>
        <time>2022-03-17T09:58:11.000Z</time>
      </trkpt>
      <trkpt lat="47.555393" lon="1.764242">
        <ele>144</ele>
        <time>2022-03-17T09:58:12.000Z</time>
      </trkpt>
      <trkpt lat="47.555393" lon="1.764261">
        <ele>144</ele>
        <time>2022-03-17T09:58:13.000Z</time>
      </trkpt>
      <trkpt lat="47.55539" lon="1.7642771">
        <ele>143</ele>
        <time>2022-03-17T09:58:14.000Z</time>
      </trkpt>
      <trkpt lat="47.55539" lon="1.7642941">
        <ele>144</ele>
        <time>2022-03-17T09:58:15.000Z</time>
      </trkpt>
      <trkpt lat="47.555386" lon="1.7643104">
        <ele>144</ele>
        <time>2022-03-17T09:58:16.000Z</time>
      </trkpt>
      <trkpt lat="47.55538" lon="1.7643291">
        <ele>143</ele>
        <time>2022-03-17T09:58:17.000Z</time>
      </trkpt>
      <trkpt lat="47.555378" lon="1.7643447">
        <ele>144</ele>
        <time>2022-03-17T09:58:18.000Z</time>
      </trkpt>
      <trkpt lat="47.555374" lon="1.7643647">
        <ele>144</ele>
        <time>2022-03-17T09:58:19.000Z</time>
      </trkpt>
      <trkpt lat="47.55537" lon="1.7643796">
        <ele>143</ele>
        <time>2022-03-17T09:58:20.000Z</time>
      </trkpt>
      <trkpt lat="47.555367" lon="1.764397">
        <ele>143</ele>
        <time>2022-03-17T09:58:21.000Z</time>
      </trkpt>
      <trkpt lat="47.555363" lon="1.7644148">
        <ele>143</ele>
        <time>2022-03-17T09:58:22.000Z</time>
      </trkpt>
      <trkpt lat="47.555367" lon="1.7644268">
        <ele>143</ele>
        <time>2022-03-17T09:58:23.000Z</time>
      </trkpt>
      <trkpt lat="47.555367" lon="1.7644413">
        <ele>143</ele>
        <time>2022-03-17T09:58:24.000Z</time>
      </trkpt>
      <trkpt lat="47.555367" lon="1.7644585">
        <ele>144</ele>
        <time>2022-03-17T09:58:25.000Z</time>
      </trkpt>
      <trkpt lat="47.555367" lon="1.7644782">
        <ele>143</ele>
        <time>2022-03-17T09:58:26.000Z</time>
      </trkpt>
      <trkpt lat="47.55536" lon="1.764495">
        <ele>144</ele>
        <time>2022-03-17T09:58:27.000Z</time>
      </trkpt>
      <trkpt lat="47.55536" lon="1.7645109">
        <ele>144</ele>
        <time>2022-03-17T09:58:28.000Z</time>
      </trkpt>
      <trkpt lat="47.555355" lon="1.7645288">
        <ele>144</ele>
        <time>2022-03-17T09:58:29.000Z</time>
      </trkpt>
      <trkpt lat="47.55535" lon="1.7645462">
        <ele>143</ele>
        <time>2022-03-17T09:58:30.000Z</time>
      </trkpt>
      <trkpt lat="47.55535" lon="1.7645633">
        <ele>143</ele>
        <time>2022-03-17T09:58:31.000Z</time>
      </trkpt>
      <trkpt lat="47.55535" lon="1.7645789">
        <ele>143</ele>
        <time>2022-03-17T09:58:32.000Z</time>
      </trkpt>
      <trkpt lat="47.555347" lon="1.7645936">
        <ele>143</ele>
        <time>2022-03-17T09:58:33.000Z</time>
      </trkpt>
      <trkpt lat="47.555344" lon="1.7646091">
        <ele>143</ele>
        <time>2022-03-17T09:58:34.000Z</time>
      </trkpt>
      <trkpt lat="47.555344" lon="1.7646265">
        <ele>143</ele>
        <time>2022-03-17T09:58:35.000Z</time>
      </trkpt>
      <trkpt lat="47.55534" lon="1.7646399">
        <ele>143</ele>
        <time>2022-03-17T09:58:36.000Z</time>
      </trkpt>
      <trkpt lat="47.555336" lon="1.7646517">
        <ele>144</ele>
        <time>2022-03-17T09:58:37.000Z</time>
      </trkpt>
      <trkpt lat="47.555336" lon="1.7646673">
        <ele>144</ele>
        <time>2022-03-17T09:58:38.000Z</time>
      </trkpt>
      <trkpt lat="47.555336" lon="1.7646898">
        <ele>144</ele>
        <time>2022-03-17T09:58:39.000Z</time>
      </trkpt>
      <trkpt lat="47.555332" lon="1.7647048">
        <ele>143</ele>
        <time>2022-03-17T09:58:40.000Z</time>
      </trkpt>
      <trkpt lat="47.555332" lon="1.7647209">
        <ele>143</ele>
        <time>2022-03-17T09:58:41.000Z</time>
      </trkpt>
      <trkpt lat="47.555332" lon="1.7647337">
        <ele>142</ele>
        <time>2022-03-17T09:58:42.000Z</time>
      </trkpt>
      <trkpt lat="47.555332" lon="1.7647469">
        <ele>142</ele>
        <time>2022-03-17T09:58:43.000Z</time>
      </trkpt>
      <trkpt lat="47.555332" lon="1.7647662">
        <ele>143</ele>
        <time>2022-03-17T09:58:44.000Z</time>
      </trkpt>
      <trkpt lat="47.555332" lon="1.7647814">
        <ele>143</ele>
        <time>2022-03-17T09:58:45.000Z</time>
      </trkpt>
      <trkpt lat="47.555332" lon="1.7647964">
        <ele>142</ele>
        <time>2022-03-17T09:58:46.000Z</time>
      </trkpt>
      <trkpt lat="47.55533" lon="1.7648127">
        <ele>143</ele>
        <time>2022-03-17T09:58:47.000Z</time>
      </trkpt>
      <trkpt lat="47.55533" lon="1.7648337">
        <ele>142</ele>
        <time>2022-03-17T09:58:48.000Z</time>
      </trkpt>
      <trkpt lat="47.555332" lon="1.7648524">
        <ele>142</ele>
        <time>2022-03-17T09:58:49.000Z</time>
      </trkpt>
      <trkpt lat="47.555332" lon="1.7648666">
        <ele>142</ele>
        <time>2022-03-17T09:58:50.000Z</time>
      </trkpt>
      <trkpt lat="47.55533" lon="1.7648824">
        <ele>142</ele>
        <time>2022-03-17T09:58:51.000Z</time>
      </trkpt>
      <trkpt lat="47.55533" lon="1.7648922">
        <ele>142</ele>
        <time>2022-03-17T09:58:52.000Z</time>
      </trkpt>
      <trkpt lat="47.55533" lon="1.7649063">
        <ele>142</ele>
        <time>2022-03-17T09:58:53.000Z</time>
      </trkpt>
      <trkpt lat="47.555325" lon="1.7649267">
        <ele>143</ele>
        <time>2022-03-17T09:58:54.000Z</time>
      </trkpt>
      <trkpt lat="47.55532" lon="1.7649463">
        <ele>142</ele>
        <time>2022-03-17T09:58:55.000Z</time>
      </trkpt>
      <trkpt lat="47.555317" lon="1.7649634">
        <ele>143</ele>
        <time>2022-03-17T09:58:56.000Z</time>
      </trkpt>
      <trkpt lat="47.55532" lon="1.7649841">
        <ele>143</ele>
        <time>2022-03-17T09:58:57.000Z</time>
      </trkpt>
      <trkpt lat="47.555317" lon="1.7650071">
        <ele>142</ele>
        <time>2022-03-17T09:58:58.000Z</time>
      </trkpt>
      <trkpt lat="47.555317" lon="1.7650234">
        <ele>142</ele>
        <time>2022-03-17T09:58:59.000Z</time>
      </trkpt>
      <trkpt lat="47.555313" lon="1.7650408">
        <ele>143</ele>
        <time>2022-03-17T09:59:00.000Z</time>
      </trkpt>
      <trkpt lat="47.555313" lon="1.7650589">
        <ele>143</ele>
        <time>2022-03-17T09:59:01.000Z</time>
      </trkpt>
      <trkpt lat="47.55531" lon="1.7650733">
        <ele>142</ele>
        <time>2022-03-17T09:59:02.000Z</time>
      </trkpt>
      <trkpt lat="47.555313" lon="1.7650893">
        <ele>142</ele>
        <time>2022-03-17T09:59:03.000Z</time>
      </trkpt>
      <trkpt lat="47.555313" lon="1.765106">
        <ele>142</ele>
        <time>2022-03-17T09:59:04.000Z</time>
      </trkpt>
      <trkpt lat="47.555313" lon="1.7651227">
        <ele>142</ele>
        <time>2022-03-17T09:59:05.000Z</time>
      </trkpt>
      <trkpt lat="47.55531" lon="1.7651429">
        <ele>142</ele>
        <time>2022-03-17T09:59:06.000Z</time>
      </trkpt>
      <trkpt lat="47.555305" lon="1.7651579">
        <ele>142</ele>
        <time>2022-03-17T09:59:07.000Z</time>
      </trkpt>
      <trkpt lat="47.555305" lon="1.7651775">
        <ele>142</ele>
        <time>2022-03-17T09:59:08.000Z</time>
      </trkpt>
      <trkpt lat="47.555298" lon="1.7651991">
        <ele>142</ele>
        <time>2022-03-17T09:59:09.000Z</time>
      </trkpt>
      <trkpt lat="47.555286" lon="1.7652109">
        <ele>142</ele>
        <time>2022-03-17T09:59:10.000Z</time>
      </trkpt>
      <trkpt lat="47.555283" lon="1.7652255">
        <ele>143</ele>
        <time>2022-03-17T09:59:11.000Z</time>
      </trkpt>
      <trkpt lat="47.55528" lon="1.7652392">
        <ele>143</ele>
        <time>2022-03-17T09:59:12.000Z</time>
      </trkpt>
      <trkpt lat="47.555275" lon="1.76525">
        <ele>144</ele>
        <time>2022-03-17T09:59:13.000Z</time>
      </trkpt>
      <trkpt lat="47.55527" lon="1.7652676">
        <ele>144</ele>
        <time>2022-03-17T09:59:14.000Z</time>
      </trkpt>
      <trkpt lat="47.555267" lon="1.765285">
        <ele>144</ele>
        <time>2022-03-17T09:59:15.000Z</time>
      </trkpt>
      <trkpt lat="47.555264" lon="1.7652984">
        <ele>144</ele>
        <time>2022-03-17T09:59:16.000Z</time>
      </trkpt>
      <trkpt lat="47.55526" lon="1.765317">
        <ele>144</ele>
        <time>2022-03-17T09:59:17.000Z</time>
      </trkpt>
      <trkpt lat="47.55526" lon="1.7653341">
        <ele>145</ele>
        <time>2022-03-17T09:59:18.000Z</time>
      </trkpt>
      <trkpt lat="47.555256" lon="1.7653536">
        <ele>145</ele>
        <time>2022-03-17T09:59:19.000Z</time>
      </trkpt>
      <trkpt lat="47.555252" lon="1.7653722">
        <ele>145</ele>
        <time>2022-03-17T09:59:20.000Z</time>
      </trkpt>
      <trkpt lat="47.55525" lon="1.7653846">
        <ele>145</ele>
        <time>2022-03-17T09:59:21.000Z</time>
      </trkpt>
      <trkpt lat="47.55525" lon="1.7653795">
        <ele>144</ele>
        <time>2022-03-17T09:59:22.000Z</time>
      </trkpt>
      <trkpt lat="47.555244" lon="1.7653811">
        <ele>144</ele>
        <time>2022-03-17T09:59:23.000Z</time>
      </trkpt>
      <trkpt lat="47.555244" lon="1.7653911">
        <ele>144</ele>
        <time>2022-03-17T09:59:24.000Z</time>
      </trkpt>
      <trkpt lat="47.55524" lon="1.7654057">
        <ele>144</ele>
        <time>2022-03-17T09:59:25.000Z</time>
      </trkpt>
      <trkpt lat="47.55524" lon="1.7654262">
        <ele>143</ele>
        <time>2022-03-17T09:59:26.000Z</time>
      </trkpt>
      <trkpt lat="47.55524" lon="1.7654448">
        <ele>143</ele>
        <time>2022-03-17T09:59:27.000Z</time>
      </trkpt>
      <trkpt lat="47.55524" lon="1.7654626">
        <ele>143</ele>
        <time>2022-03-17T09:59:28.000Z</time>
      </trkpt>
      <trkpt lat="47.55524" lon="1.7654842">
        <ele>143</ele>
        <time>2022-03-17T09:59:29.000Z</time>
      </trkpt>
      <trkpt lat="47.555237" lon="1.7655026">
        <ele>143</ele>
        <time>2022-03-17T09:59:30.000Z</time>
      </trkpt>
      <trkpt lat="47.555233" lon="1.7655208">
        <ele>143</ele>
        <time>2022-03-17T09:59:31.000Z</time>
      </trkpt>
      <trkpt lat="47.555233" lon="1.7655382">
        <ele>143</ele>
        <time>2022-03-17T09:59:32.000Z</time>
      </trkpt>
      <trkpt lat="47.555233" lon="1.7655582">
        <ele>142</ele>
        <time>2022-03-17T09:59:33.000Z</time>
      </trkpt>
      <trkpt lat="47.555237" lon="1.7655797">
        <ele>142</ele>
        <time>2022-03-17T09:59:34.000Z</time>
      </trkpt>
      <trkpt lat="47.555233" lon="1.7655969">
        <ele>142</ele>
        <time>2022-03-17T09:59:35.000Z</time>
      </trkpt>
      <trkpt lat="47.555233" lon="1.7656145">
        <ele>142</ele>
        <time>2022-03-17T09:59:36.000Z</time>
      </trkpt>
      <trkpt lat="47.555233" lon="1.7656331">
        <ele>143</ele>
        <time>2022-03-17T09:59:37.000Z</time>
      </trkpt>
      <trkpt lat="47.555233" lon="1.7656469">
        <ele>142</ele>
        <time>2022-03-17T09:59:38.000Z</time>
      </trkpt>
      <trkpt lat="47.555237" lon="1.7656701">
        <ele>142</ele>
        <time>2022-03-17T09:59:39.000Z</time>
      </trkpt>
      <trkpt lat="47.55524" lon="1.765689">
        <ele>142</ele>
        <time>2022-03-17T09:59:40.000Z</time>
      </trkpt>
      <trkpt lat="47.555244" lon="1.7657099">
        <ele>142</ele>
        <time>2022-03-17T09:59:41.000Z</time>
      </trkpt>
      <trkpt lat="47.555244" lon="1.7657282">
        <ele>142</ele>
        <time>2022-03-17T09:59:42.000Z</time>
      </trkpt>
      <trkpt lat="47.55525" lon="1.7657454">
        <ele>142</ele>
        <time>2022-03-17T09:59:43.000Z</time>
      </trkpt>
      <trkpt lat="47.55525" lon="1.7657651">
        <ele>143</ele>
        <time>2022-03-17T09:59:44.000Z</time>
      </trkpt>
      <trkpt lat="47.55525" lon="1.7657802">
        <ele>143</ele>
        <time>2022-03-17T09:59:45.000Z</time>
      </trkpt>
      <trkpt lat="47.55525" lon="1.7657961">
        <ele>143</ele>
        <time>2022-03-17T09:59:46.000Z</time>
      </trkpt>
      <trkpt lat="47.55525" lon="1.7658149">
        <ele>143</ele>
        <time>2022-03-17T09:59:47.000Z</time>
      </trkpt>
      <trkpt lat="47.55525" lon="1.765831">
        <ele>143</ele>
        <time>2022-03-17T09:59:48.000Z</time>
      </trkpt>
      <trkpt lat="47.555252" lon="1.7658491">
        <ele>143</ele>
        <time>2022-03-17T09:59:49.000Z</time>
      </trkpt>
      <trkpt lat="47.555256" lon="1.765866">
        <ele>143</ele>
        <time>2022-03-17T09:59:50.000Z</time>
      </trkpt>
      <trkpt lat="47.555256" lon="1.7658794">
        <ele>143</ele>
        <time>2022-03-17T09:59:51.000Z</time>
      </trkpt>
      <trkpt lat="47.555252" lon="1.7658975">
        <ele>143</ele>
        <time>2022-03-17T09:59:52.000Z</time>
      </trkpt>
      <trkpt lat="47.555252" lon="1.7659112">
        <ele>143</ele>
        <time>2022-03-17T09:59:53.000Z</time>
      </trkpt>
      <trkpt lat="47.55525" lon="1.7659236">
        <ele>143</ele>
        <time>2022-03-17T09:59:54.000Z</time>
      </trkpt>
      <trkpt lat="47.55525" lon="1.765932">
        <ele>143</ele>
        <time>2022-03-17T09:59:55.000Z</time>
      </trkpt>
      <trkpt lat="47.55525" lon="1.7659419">
        <ele>143</ele>
        <time>2022-03-17T09:59:56.000Z</time>
      </trkpt>
      <trkpt lat="47.55525" lon="1.7659582">
        <ele>143</ele>
        <time>2022-03-17T09:59:57.000Z</time>
      </trkpt>
      <trkpt lat="47.55525" lon="1.7659734">
        <ele>143</ele>
        <time>2022-03-17T09:59:58.000Z</time>
      </trkpt>
      <trkpt lat="47.55525" lon="1.7659874">
        <ele>143</ele>
        <time>2022-03-17T09:59:59.000Z</time>
      </trkpt>
      <trkpt lat="47.55525" lon="1.7660004">
        <ele>143</ele>
        <time>2022-03-17T10:00:00.000Z</time>
      </trkpt>
      <trkpt lat="47.555244" lon="1.7660115">
        <ele>143</ele>
        <time>2022-03-17T10:00:01.000Z</time>
      </trkpt>
      <trkpt lat="47.555244" lon="1.766022">
        <ele>143</ele>
        <time>2022-03-17T10:00:02.000Z</time>
      </trkpt>
      <trkpt lat="47.55524" lon="1.7660377">
        <ele>144</ele>
        <time>2022-03-17T10:00:03.000Z</time>
      </trkpt>
      <trkpt lat="47.55524" lon="1.7660517">
        <ele>144</ele>
        <time>2022-03-17T10:00:04.000Z</time>
      </trkpt>
      <trkpt lat="47.555237" lon="1.7660723">
        <ele>144</ele>
        <time>2022-03-17T10:00:05.000Z</time>
      </trkpt>
      <trkpt lat="47.55524" lon="1.7660943">
        <ele>144</ele>
        <time>2022-03-17T10:00:06.000Z</time>
      </trkpt>
      <trkpt lat="47.55524" lon="1.7661083">
        <ele>144</ele>
        <time>2022-03-17T10:00:07.000Z</time>
      </trkpt>
      <trkpt lat="47.555237" lon="1.7661287">
        <ele>144</ele>
        <time>2022-03-17T10:00:08.000Z</time>
      </trkpt>
      <trkpt lat="47.55524" lon="1.7661413">
        <ele>144</ele>
        <time>2022-03-17T10:00:09.000Z</time>
      </trkpt>
      <trkpt lat="47.55524" lon="1.7661555">
        <ele>144</ele>
        <time>2022-03-17T10:00:10.000Z</time>
      </trkpt>
      <trkpt lat="47.55524" lon="1.766173">
        <ele>144</ele>
        <time>2022-03-17T10:00:11.000Z</time>
      </trkpt>
      <trkpt lat="47.55524" lon="1.7661949">
        <ele>144</ele>
        <time>2022-03-17T10:00:12.000Z</time>
      </trkpt>
      <trkpt lat="47.55524" lon="1.7662135">
        <ele>144</ele>
        <time>2022-03-17T10:00:13.000Z</time>
      </trkpt>
      <trkpt lat="47.555237" lon="1.766232">
        <ele>145</ele>
        <time>2022-03-17T10:00:14.000Z</time>
      </trkpt>
      <trkpt lat="47.55523" lon="1.7662627">
        <ele>146</ele>
        <time>2022-03-17T10:00:15.000Z</time>
      </trkpt>
      <trkpt lat="47.55522" lon="1.7662859">
        <ele>145</ele>
        <time>2022-03-17T10:00:16.000Z</time>
      </trkpt>
      <trkpt lat="47.555218" lon="1.766302">
        <ele>146</ele>
        <time>2022-03-17T10:00:17.000Z</time>
      </trkpt>
      <trkpt lat="47.555218" lon="1.7663223">
        <ele>146</ele>
        <time>2022-03-17T10:00:18.000Z</time>
      </trkpt>
      <trkpt lat="47.55522" lon="1.7663404">
        <ele>146</ele>
        <time>2022-03-17T10:00:19.000Z</time>
      </trkpt>
      <trkpt lat="47.555225" lon="1.7663616">
        <ele>146</ele>
        <time>2022-03-17T10:00:20.000Z</time>
      </trkpt>
      <trkpt lat="47.555225" lon="1.7663834">
        <ele>146</ele>
        <time>2022-03-17T10:00:21.000Z</time>
      </trkpt>
      <trkpt lat="47.555233" lon="1.7664117">
        <ele>146</ele>
        <time>2022-03-17T10:00:22.000Z</time>
      </trkpt>
      <trkpt lat="47.555237" lon="1.7664384">
        <ele>146</ele>
        <time>2022-03-17T10:00:23.000Z</time>
      </trkpt>
      <trkpt lat="47.555237" lon="1.7664623">
        <ele>146</ele>
        <time>2022-03-17T10:00:24.000Z</time>
      </trkpt>
      <trkpt lat="47.555237" lon="1.7664834">
        <ele>146</ele>
        <time>2022-03-17T10:00:25.000Z</time>
      </trkpt>
      <trkpt lat="47.555233" lon="1.766502">
        <ele>146</ele>
        <time>2022-03-17T10:00:26.000Z</time>
      </trkpt>
      <trkpt lat="47.555233" lon="1.7665188">
        <ele>147</ele>
        <time>2022-03-17T10:00:27.000Z</time>
      </trkpt>
      <trkpt lat="47.555233" lon="1.7665324">
        <ele>147</ele>
        <time>2022-03-17T10:00:28.000Z</time>
      </trkpt>
      <trkpt lat="47.555233" lon="1.7665474">
        <ele>148</ele>
        <time>2022-03-17T10:00:29.000Z</time>
      </trkpt>
      <trkpt lat="47.555237" lon="1.7665678">
        <ele>148</ele>
        <time>2022-03-17T10:00:30.000Z</time>
      </trkpt>
      <trkpt lat="47.555237" lon="1.7665874">
        <ele>148</ele>
        <time>2022-03-17T10:00:31.000Z</time>
      </trkpt>
      <trkpt lat="47.55524" lon="1.7666035">
        <ele>148</ele>
        <time>2022-03-17T10:00:32.000Z</time>
      </trkpt>
      <trkpt lat="47.55524" lon="1.7666142">
        <ele>148</ele>
        <time>2022-03-17T10:00:33.000Z</time>
      </trkpt>
      <trkpt lat="47.55524" lon="1.7666284">
        <ele>148</ele>
        <time>2022-03-17T10:00:34.000Z</time>
      </trkpt>
      <trkpt lat="47.555244" lon="1.766641">
        <ele>148</ele>
        <time>2022-03-17T10:00:35.000Z</time>
      </trkpt>
      <trkpt lat="47.555244" lon="1.7666532">
        <ele>148</ele>
        <time>2022-03-17T10:00:36.000Z</time>
      </trkpt>
      <trkpt lat="47.555244" lon="1.7666696">
        <ele>149</ele>
        <time>2022-03-17T10:00:37.000Z</time>
      </trkpt>
      <trkpt lat="47.555244" lon="1.7666852">
        <ele>149</ele>
        <time>2022-03-17T10:00:38.000Z</time>
      </trkpt>
      <trkpt lat="47.55524" lon="1.7667029">
        <ele>149</ele>
        <time>2022-03-17T10:00:39.000Z</time>
      </trkpt>
      <trkpt lat="47.55524" lon="1.7667236">
        <ele>148</ele>
        <time>2022-03-17T10:00:40.000Z</time>
      </trkpt>
      <trkpt lat="47.555237" lon="1.7667414">
        <ele>148</ele>
        <time>2022-03-17T10:00:41.000Z</time>
      </trkpt>
      <trkpt lat="47.555237" lon="1.7667608">
        <ele>148</ele>
        <time>2022-03-17T10:00:42.000Z</time>
      </trkpt>
      <trkpt lat="47.555237" lon="1.7667813">
        <ele>149</ele>
        <time>2022-03-17T10:00:43.000Z</time>
      </trkpt>
      <trkpt lat="47.555233" lon="1.7668072">
        <ele>149</ele>
        <time>2022-03-17T10:00:44.000Z</time>
      </trkpt>
      <trkpt lat="47.55523" lon="1.7668291">
        <ele>150</ele>
        <time>2022-03-17T10:00:45.000Z</time>
      </trkpt>
      <trkpt lat="47.55523" lon="1.7668498">
        <ele>150</ele>
        <time>2022-03-17T10:00:46.000Z</time>
      </trkpt>
      <trkpt lat="47.555225" lon="1.7668741">
        <ele>150</ele>
        <time>2022-03-17T10:00:47.000Z</time>
      </trkpt>
      <trkpt lat="47.55522" lon="1.766898">
        <ele>150</ele>
        <time>2022-03-17T10:00:48.000Z</time>
      </trkpt>
      <trkpt lat="47.55522" lon="1.7669185">
        <ele>151</ele>
        <time>2022-03-17T10:00:49.000Z</time>
      </trkpt>
      <trkpt lat="47.55522" lon="1.766942">
        <ele>151</ele>
        <time>2022-03-17T10:00:50.000Z</time>
      </trkpt>
      <trkpt lat="47.55522" lon="1.7669604">
        <ele>152</ele>
        <time>2022-03-17T10:00:51.000Z</time>
      </trkpt>
      <trkpt lat="47.55522" lon="1.7669736">
        <ele>151</ele>
        <time>2022-03-17T10:00:52.000Z</time>
      </trkpt>
      <trkpt lat="47.555218" lon="1.7669903">
        <ele>151</ele>
        <time>2022-03-17T10:00:53.000Z</time>
      </trkpt>
      <trkpt lat="47.55522" lon="1.767005">
        <ele>151</ele>
        <time>2022-03-17T10:00:54.000Z</time>
      </trkpt>
      <trkpt lat="47.555218" lon="1.7670228">
        <ele>151</ele>
        <time>2022-03-17T10:00:55.000Z</time>
      </trkpt>
      <trkpt lat="47.555218" lon="1.7670432">
        <ele>151</ele>
        <time>2022-03-17T10:00:56.000Z</time>
      </trkpt>
      <trkpt lat="47.555218" lon="1.7670642">
        <ele>151</ele>
        <time>2022-03-17T10:00:57.000Z</time>
      </trkpt>
      <trkpt lat="47.555218" lon="1.7670835">
        <ele>151</ele>
        <time>2022-03-17T10:00:58.000Z</time>
      </trkpt>
      <trkpt lat="47.55522" lon="1.7671021">
        <ele>151</ele>
        <time>2022-03-17T10:00:59.000Z</time>
      </trkpt>
      <trkpt lat="47.55522" lon="1.7671217">
        <ele>150</ele>
        <time>2022-03-17T10:01:00.000Z</time>
      </trkpt>
      <trkpt lat="47.55522" lon="1.7671454">
        <ele>150</ele>
        <time>2022-03-17T10:01:01.000Z</time>
      </trkpt>
      <trkpt lat="47.55522" lon="1.7671667">
        <ele>150</ele>
        <time>2022-03-17T10:01:02.000Z</time>
      </trkpt>
      <trkpt lat="47.55522" lon="1.7671906">
        <ele>150</ele>
        <time>2022-03-17T10:01:03.000Z</time>
      </trkpt>
      <trkpt lat="47.55522" lon="1.7672126">
        <ele>150</ele>
        <time>2022-03-17T10:01:04.000Z</time>
      </trkpt>
      <trkpt lat="47.55522" lon="1.7672341">
        <ele>150</ele>
        <time>2022-03-17T10:01:05.000Z</time>
      </trkpt>
      <trkpt lat="47.555225" lon="1.7672576">
        <ele>149</ele>
        <time>2022-03-17T10:01:06.000Z</time>
      </trkpt>
      <trkpt lat="47.555225" lon="1.7672786">
        <ele>149</ele>
        <time>2022-03-17T10:01:07.000Z</time>
      </trkpt>
      <trkpt lat="47.55523" lon="1.7672944">
        <ele>149</ele>
        <time>2022-03-17T10:01:08.000Z</time>
      </trkpt>
      <trkpt lat="47.55523" lon="1.7673136">
        <ele>149</ele>
        <time>2022-03-17T10:01:09.000Z</time>
      </trkpt>
      <trkpt lat="47.555233" lon="1.7673323">
        <ele>149</ele>
        <time>2022-03-17T10:01:10.000Z</time>
      </trkpt>
      <trkpt lat="47.555237" lon="1.7673512">
        <ele>150</ele>
        <time>2022-03-17T10:01:11.000Z</time>
      </trkpt>
      <trkpt lat="47.55524" lon="1.7673681">
        <ele>150</ele>
        <time>2022-03-17T10:01:12.000Z</time>
      </trkpt>
      <trkpt lat="47.555244" lon="1.7673906">
        <ele>149</ele>
        <time>2022-03-17T10:01:13.000Z</time>
      </trkpt>
      <trkpt lat="47.55525" lon="1.7674112">
        <ele>149</ele>
        <time>2022-03-17T10:01:14.000Z</time>
      </trkpt>
      <trkpt lat="47.555252" lon="1.7674307">
        <ele>149</ele>
        <time>2022-03-17T10:01:15.000Z</time>
      </trkpt>
      <trkpt lat="47.555256" lon="1.7674463">
        <ele>149</ele>
        <time>2022-03-17T10:01:16.000Z</time>
      </trkpt>
      <trkpt lat="47.55526" lon="1.7674645">
        <ele>150</ele>
        <time>2022-03-17T10:01:17.000Z</time>
      </trkpt>
      <trkpt lat="47.555264" lon="1.7674841">
        <ele>149</ele>
        <time>2022-03-17T10:01:18.000Z</time>
      </trkpt>
      <trkpt lat="47.555267" lon="1.7675009">
        <ele>149</ele>
        <time>2022-03-17T10:01:19.000Z</time>
      </trkpt>
      <trkpt lat="47.55527" lon="1.7675147">
        <ele>149</ele>
        <time>2022-03-17T10:01:20.000Z</time>
      </trkpt>
      <trkpt lat="47.555275" lon="1.7675314">
        <ele>148</ele>
        <time>2022-03-17T10:01:21.000Z</time>
      </trkpt>
      <trkpt lat="47.55528" lon="1.7675465">
        <ele>148</ele>
        <time>2022-03-17T10:01:22.000Z</time>
      </trkpt>
      <trkpt lat="47.555286" lon="1.7675563">
        <ele>147</ele>
        <time>2022-03-17T10:01:23.000Z</time>
      </trkpt>
      <trkpt lat="47.555294" lon="1.7675678">
        <ele>147</ele>
        <time>2022-03-17T10:01:24.000Z</time>
      </trkpt>
      <trkpt lat="47.5553" lon="1.7675847">
        <ele>147</ele>
        <time>2022-03-17T10:01:25.000Z</time>
      </trkpt>
      <trkpt lat="47.55531" lon="1.767597">
        <ele>147</ele>
        <time>2022-03-17T10:01:26.000Z</time>
      </trkpt>
      <trkpt lat="47.555317" lon="1.7676089">
        <ele>147</ele>
        <time>2022-03-17T10:01:27.000Z</time>
      </trkpt>
      <trkpt lat="47.55533" lon="1.7676225">
        <ele>147</ele>
        <time>2022-03-17T10:01:28.000Z</time>
      </trkpt>
      <trkpt lat="47.55534" lon="1.7676315">
        <ele>146</ele>
        <time>2022-03-17T10:01:29.000Z</time>
      </trkpt>
      <trkpt lat="47.55535" lon="1.7676405">
        <ele>146</ele>
        <time>2022-03-17T10:01:30.000Z</time>
      </trkpt>
      <trkpt lat="47.555363" lon="1.7676533">
        <ele>146</ele>
        <time>2022-03-17T10:01:31.000Z</time>
      </trkpt>
      <trkpt lat="47.55537" lon="1.7676648">
        <ele>147</ele>
        <time>2022-03-17T10:01:32.000Z</time>
      </trkpt>
      <trkpt lat="47.555378" lon="1.7676716">
        <ele>146</ele>
        <time>2022-03-17T10:01:33.000Z</time>
      </trkpt>
      <trkpt lat="47.55539" lon="1.7676833">
        <ele>146</ele>
        <time>2022-03-17T10:01:34.000Z</time>
      </trkpt>
      <trkpt lat="47.5554" lon="1.7676903">
        <ele>146</ele>
        <time>2022-03-17T10:01:35.000Z</time>
      </trkpt>
      <trkpt lat="47.55541" lon="1.7677013">
        <ele>146</ele>
        <time>2022-03-17T10:01:36.000Z</time>
      </trkpt>
      <trkpt lat="47.55542" lon="1.76771">
        <ele>146</ele>
        <time>2022-03-17T10:01:37.000Z</time>
      </trkpt>
      <trkpt lat="47.555428" lon="1.7677217">
        <ele>146</ele>
        <time>2022-03-17T10:01:38.000Z</time>
      </trkpt>
      <trkpt lat="47.555435" lon="1.7677336">
        <ele>146</ele>
        <time>2022-03-17T10:01:39.000Z</time>
      </trkpt>
      <trkpt lat="47.555447" lon="1.7677448">
        <ele>146</ele>
        <time>2022-03-17T10:01:40.000Z</time>
      </trkpt>
      <trkpt lat="47.555454" lon="1.7677572">
        <ele>146</ele>
        <time>2022-03-17T10:01:41.000Z</time>
      </trkpt>
      <trkpt lat="47.55546" lon="1.76777">
        <ele>146</ele>
        <time>2022-03-17T10:01:42.000Z</time>
      </trkpt>
      <trkpt lat="47.55547" lon="1.7677858">
        <ele>146</ele>
        <time>2022-03-17T10:01:43.000Z</time>
      </trkpt>
      <trkpt lat="47.55548" lon="1.7677964">
        <ele>146</ele>
        <time>2022-03-17T10:01:44.000Z</time>
      </trkpt>
      <trkpt lat="47.555492" lon="1.7678044">
        <ele>146</ele>
        <time>2022-03-17T10:01:45.000Z</time>
      </trkpt>
      <trkpt lat="47.5555" lon="1.7678108">
        <ele>145</ele>
        <time>2022-03-17T10:01:46.000Z</time>
      </trkpt>
      <trkpt lat="47.555508" lon="1.7678217">
        <ele>145</ele>
        <time>2022-03-17T10:01:47.000Z</time>
      </trkpt>
      <trkpt lat="47.555515" lon="1.7678306">
        <ele>145</ele>
        <time>2022-03-17T10:01:48.000Z</time>
      </trkpt>
      <trkpt lat="47.555527" lon="1.7678399">
        <ele>144</ele>
        <time>2022-03-17T10:01:49.000Z</time>
      </trkpt>
      <trkpt lat="47.555534" lon="1.7678521">
        <ele>144</ele>
        <time>2022-03-17T10:01:50.000Z</time>
      </trkpt>
      <trkpt lat="47.555546" lon="1.767866">
        <ele>144</ele>
        <time>2022-03-17T10:01:51.000Z</time>
      </trkpt>
      <trkpt lat="47.555557" lon="1.76788">
        <ele>144</ele>
        <time>2022-03-17T10:01:52.000Z</time>
      </trkpt>
      <trkpt lat="47.555565" lon="1.7678907">
        <ele>144</ele>
        <time>2022-03-17T10:01:53.000Z</time>
      </trkpt>
      <trkpt lat="47.555573" lon="1.7679026">
        <ele>145</ele>
        <time>2022-03-17T10:01:54.000Z</time>
      </trkpt>
      <trkpt lat="47.555584" lon="1.7679169">
        <ele>145</ele>
        <time>2022-03-17T10:01:55.000Z</time>
      </trkpt>
      <trkpt lat="47.55559" lon="1.7679304">
        <ele>145</ele>
        <time>2022-03-17T10:01:56.000Z</time>
      </trkpt>
      <trkpt lat="47.5556" lon="1.7679414">
        <ele>145</ele>
        <time>2022-03-17T10:01:57.000Z</time>
      </trkpt>
      <trkpt lat="47.55561" lon="1.7679548">
        <ele>144</ele>
        <time>2022-03-17T10:01:58.000Z</time>
      </trkpt>
      <trkpt lat="47.55562" lon="1.7679656">
        <ele>144</ele>
        <time>2022-03-17T10:01:59.000Z</time>
      </trkpt>
      <trkpt lat="47.55563" lon="1.7679777">
        <ele>145</ele>
        <time>2022-03-17T10:02:00.000Z</time>
      </trkpt>
      <trkpt lat="47.55564" lon="1.7679869">
        <ele>144</ele>
        <time>2022-03-17T10:02:01.000Z</time>
      </trkpt>
      <trkpt lat="47.55565" lon="1.7680002">
        <ele>144</ele>
        <time>2022-03-17T10:02:02.000Z</time>
      </trkpt>
      <trkpt lat="47.555656" lon="1.7680107">
        <ele>144</ele>
        <time>2022-03-17T10:02:03.000Z</time>
      </trkpt>
      <trkpt lat="47.555664" lon="1.7680252">
        <ele>144</ele>
        <time>2022-03-17T10:02:04.000Z</time>
      </trkpt>
      <trkpt lat="47.555676" lon="1.768037">
        <ele>145</ele>
        <time>2022-03-17T10:02:05.000Z</time>
      </trkpt>
      <trkpt lat="47.555687" lon="1.7680488">
        <ele>145</ele>
        <time>2022-03-17T10:02:06.000Z</time>
      </trkpt>
      <trkpt lat="47.5557" lon="1.7680559">
        <ele>145</ele>
        <time>2022-03-17T10:02:07.000Z</time>
      </trkpt>
      <trkpt lat="47.55571" lon="1.7680649">
        <ele>144</ele>
        <time>2022-03-17T10:02:08.000Z</time>
      </trkpt>
      <trkpt lat="47.555717" lon="1.7680763">
        <ele>144</ele>
        <time>2022-03-17T10:02:09.000Z</time>
      </trkpt>
      <trkpt lat="47.55573" lon="1.7680892">
        <ele>144</ele>
        <time>2022-03-17T10:02:10.000Z</time>
      </trkpt>
      <trkpt lat="47.55574" lon="1.7681056">
        <ele>144</ele>
        <time>2022-03-17T10:02:11.000Z</time>
      </trkpt>
      <trkpt lat="47.555748" lon="1.7681197">
        <ele>144</ele>
        <time>2022-03-17T10:02:12.000Z</time>
      </trkpt>
      <trkpt lat="47.55576" lon="1.7681336">
        <ele>143</ele>
        <time>2022-03-17T10:02:13.000Z</time>
      </trkpt>
      <trkpt lat="47.555767" lon="1.7681451">
        <ele>143</ele>
        <time>2022-03-17T10:02:14.000Z</time>
      </trkpt>
      <trkpt lat="47.555775" lon="1.7681566">
        <ele>143</ele>
        <time>2022-03-17T10:02:15.000Z</time>
      </trkpt>
      <trkpt lat="47.555786" lon="1.7681702">
        <ele>143</ele>
        <time>2022-03-17T10:02:16.000Z</time>
      </trkpt>
      <trkpt lat="47.555794" lon="1.7681836">
        <ele>143</ele>
        <time>2022-03-17T10:02:17.000Z</time>
      </trkpt>
      <trkpt lat="47.555798" lon="1.7681954">
        <ele>143</ele>
        <time>2022-03-17T10:02:18.000Z</time>
      </trkpt>
      <trkpt lat="47.555805" lon="1.7682062">
        <ele>144</ele>
        <time>2022-03-17T10:02:19.000Z</time>
      </trkpt>
      <trkpt lat="47.55581" lon="1.7682159">
        <ele>143</ele>
        <time>2022-03-17T10:02:20.000Z</time>
      </trkpt>
      <trkpt lat="47.555817" lon="1.7682284">
        <ele>143</ele>
        <time>2022-03-17T10:02:21.000Z</time>
      </trkpt>
      <trkpt lat="47.555824" lon="1.7682363">
        <ele>143</ele>
        <time>2022-03-17T10:02:22.000Z</time>
      </trkpt>
      <trkpt lat="47.555836" lon="1.7682481">
        <ele>143</ele>
        <time>2022-03-17T10:02:23.000Z</time>
      </trkpt>
      <trkpt lat="47.555847" lon="1.7682585">
        <ele>142</ele>
        <time>2022-03-17T10:02:24.000Z</time>
      </trkpt>
      <trkpt lat="47.55586" lon="1.7682716">
        <ele>142</ele>
        <time>2022-03-17T10:02:25.000Z</time>
      </trkpt>
      <trkpt lat="47.55587" lon="1.7682832">
        <ele>142</ele>
        <time>2022-03-17T10:02:26.000Z</time>
      </trkpt>
      <trkpt lat="47.555878" lon="1.7682941">
        <ele>142</ele>
        <time>2022-03-17T10:02:27.000Z</time>
      </trkpt>
      <trkpt lat="47.555885" lon="1.7683057">
        <ele>142</ele>
        <time>2022-03-17T10:02:28.000Z</time>
      </trkpt>
      <trkpt lat="47.555897" lon="1.7683167">
        <ele>142</ele>
        <time>2022-03-17T10:02:29.000Z</time>
      </trkpt>
      <trkpt lat="47.555904" lon="1.7683314">
        <ele>141</ele>
        <time>2022-03-17T10:02:30.000Z</time>
      </trkpt>
      <trkpt lat="47.555912" lon="1.768343">
        <ele>141</ele>
        <time>2022-03-17T10:02:31.000Z</time>
      </trkpt>
      <trkpt lat="47.555916" lon="1.7683557">
        <ele>142</ele>
        <time>2022-03-17T10:02:32.000Z</time>
      </trkpt>
      <trkpt lat="47.555923" lon="1.7683697">
        <ele>142</ele>
        <time>2022-03-17T10:02:33.000Z</time>
      </trkpt>
      <trkpt lat="47.55593" lon="1.7683783">
        <ele>142</ele>
        <time>2022-03-17T10:02:34.000Z</time>
      </trkpt>
      <trkpt lat="47.555943" lon="1.7683917">
        <ele>142</ele>
        <time>2022-03-17T10:02:35.000Z</time>
      </trkpt>
      <trkpt lat="47.555946" lon="1.7683975">
        <ele>142</ele>
        <time>2022-03-17T10:02:36.000Z</time>
      </trkpt>
      <trkpt lat="47.555954" lon="1.768408">
        <ele>142</ele>
        <time>2022-03-17T10:02:37.000Z</time>
      </trkpt>
      <trkpt lat="47.55596" lon="1.76842">
        <ele>142</ele>
        <time>2022-03-17T10:02:38.000Z</time>
      </trkpt>
      <trkpt lat="47.55597" lon="1.7684302">
        <ele>142</ele>
        <time>2022-03-17T10:02:39.000Z</time>
      </trkpt>
      <trkpt lat="47.555973" lon="1.7684431">
        <ele>142</ele>
        <time>2022-03-17T10:02:40.000Z</time>
      </trkpt>
      <trkpt lat="47.55598" lon="1.7684544">
        <ele>141</ele>
        <time>2022-03-17T10:02:41.000Z</time>
      </trkpt>
      <trkpt lat="47.55599" lon="1.7684693">
        <ele>141</ele>
        <time>2022-03-17T10:02:42.000Z</time>
      </trkpt>
      <trkpt lat="47.556" lon="1.7684855">
        <ele>141</ele>
        <time>2022-03-17T10:02:43.000Z</time>
      </trkpt>
      <trkpt lat="47.556007" lon="1.7685004">
        <ele>142</ele>
        <time>2022-03-17T10:02:44.000Z</time>
      </trkpt>
      <trkpt lat="47.556015" lon="1.7685157">
        <ele>142</ele>
        <time>2022-03-17T10:02:45.000Z</time>
      </trkpt>
      <trkpt lat="47.556023" lon="1.7685299">
        <ele>142</ele>
        <time>2022-03-17T10:02:46.000Z</time>
      </trkpt>
      <trkpt lat="47.55603" lon="1.7685424">
        <ele>142</ele>
        <time>2022-03-17T10:02:47.000Z</time>
      </trkpt>
      <trkpt lat="47.55604" lon="1.7685566">
        <ele>142</ele>
        <time>2022-03-17T10:02:48.000Z</time>
      </trkpt>
      <trkpt lat="47.556053" lon="1.7685688">
        <ele>142</ele>
        <time>2022-03-17T10:02:49.000Z</time>
      </trkpt>
      <trkpt lat="47.556065" lon="1.7685829">
        <ele>142</ele>
        <time>2022-03-17T10:02:50.000Z</time>
      </trkpt>
      <trkpt lat="47.556072" lon="1.7685986">
        <ele>143</ele>
        <time>2022-03-17T10:02:51.000Z</time>
      </trkpt>
      <trkpt lat="47.55608" lon="1.7686124">
        <ele>142</ele>
        <time>2022-03-17T10:02:52.000Z</time>
      </trkpt>
      <trkpt lat="47.556087" lon="1.7686272">
        <ele>143</ele>
        <time>2022-03-17T10:02:53.000Z</time>
      </trkpt>
      <trkpt lat="47.5561" lon="1.7686396">
        <ele>142</ele>
        <time>2022-03-17T10:02:54.000Z</time>
      </trkpt>
      <trkpt lat="47.556107" lon="1.768653">
        <ele>143</ele>
        <time>2022-03-17T10:02:55.000Z</time>
      </trkpt>
      <trkpt lat="47.556118" lon="1.7686679">
        <ele>143</ele>
        <time>2022-03-17T10:02:56.000Z</time>
      </trkpt>
      <trkpt lat="47.55613" lon="1.7686776">
        <ele>143</ele>
        <time>2022-03-17T10:02:57.000Z</time>
      </trkpt>
      <trkpt lat="47.556137" lon="1.7686892">
        <ele>142</ele>
        <time>2022-03-17T10:02:58.000Z</time>
      </trkpt>
      <trkpt lat="47.55615" lon="1.7687013">
        <ele>142</ele>
        <time>2022-03-17T10:02:59.000Z</time>
      </trkpt>
      <trkpt lat="47.556156" lon="1.768713">
        <ele>142</ele>
        <time>2022-03-17T10:03:00.000Z</time>
      </trkpt>
      <trkpt lat="47.556168" lon="1.7687207">
        <ele>141</ele>
        <time>2022-03-17T10:03:01.000Z</time>
      </trkpt>
      <trkpt lat="47.55618" lon="1.7687293">
        <ele>142</ele>
        <time>2022-03-17T10:03:02.000Z</time>
      </trkpt>
      <trkpt lat="47.556187" lon="1.7687411">
        <ele>142</ele>
        <time>2022-03-17T10:03:03.000Z</time>
      </trkpt>
      <trkpt lat="47.556194" lon="1.7687539">
        <ele>141</ele>
        <time>2022-03-17T10:03:04.000Z</time>
      </trkpt>
      <trkpt lat="47.556202" lon="1.7687706">
        <ele>141</ele>
        <time>2022-03-17T10:03:05.000Z</time>
      </trkpt>
      <trkpt lat="47.55621" lon="1.7687868">
        <ele>141</ele>
        <time>2022-03-17T10:03:06.000Z</time>
      </trkpt>
      <trkpt lat="47.556217" lon="1.7688035">
        <ele>141</ele>
        <time>2022-03-17T10:03:07.000Z</time>
      </trkpt>
      <trkpt lat="47.556225" lon="1.7688168">
        <ele>141</ele>
        <time>2022-03-17T10:03:08.000Z</time>
      </trkpt>
      <trkpt lat="47.556232" lon="1.7688315">
        <ele>141</ele>
        <time>2022-03-17T10:03:09.000Z</time>
      </trkpt>
      <trkpt lat="47.556244" lon="1.7688422">
        <ele>141</ele>
        <time>2022-03-17T10:03:10.000Z</time>
      </trkpt>
      <trkpt lat="47.55625" lon="1.7688541">
        <ele>141</ele>
        <time>2022-03-17T10:03:11.000Z</time>
      </trkpt>
      <trkpt lat="47.55626" lon="1.7688702">
        <ele>141</ele>
        <time>2022-03-17T10:03:12.000Z</time>
      </trkpt>
      <trkpt lat="47.556267" lon="1.7688802">
        <ele>141</ele>
        <time>2022-03-17T10:03:13.000Z</time>
      </trkpt>
      <trkpt lat="47.556274" lon="1.7688904">
        <ele>142</ele>
        <time>2022-03-17T10:03:14.000Z</time>
      </trkpt>
      <trkpt lat="47.556282" lon="1.7689054">
        <ele>142</ele>
        <time>2022-03-17T10:03:15.000Z</time>
      </trkpt>
      <trkpt lat="47.55629" lon="1.7689195">
        <ele>141</ele>
        <time>2022-03-17T10:03:16.000Z</time>
      </trkpt>
      <trkpt lat="47.556297" lon="1.7689351">
        <ele>142</ele>
        <time>2022-03-17T10:03:17.000Z</time>
      </trkpt>
      <trkpt lat="47.556305" lon="1.7689435">
        <ele>142</ele>
        <time>2022-03-17T10:03:18.000Z</time>
      </trkpt>
      <trkpt lat="47.556313" lon="1.7689558">
        <ele>142</ele>
        <time>2022-03-17T10:03:19.000Z</time>
      </trkpt>
      <trkpt lat="47.55632" lon="1.7689744">
        <ele>142</ele>
        <time>2022-03-17T10:03:20.000Z</time>
      </trkpt>
      <trkpt lat="47.556328" lon="1.7689903">
        <ele>142</ele>
        <time>2022-03-17T10:03:21.000Z</time>
      </trkpt>
      <trkpt lat="47.55634" lon="1.7690101">
        <ele>141</ele>
        <time>2022-03-17T10:03:22.000Z</time>
      </trkpt>
      <trkpt lat="47.556347" lon="1.7690232">
        <ele>141</ele>
        <time>2022-03-17T10:03:23.000Z</time>
      </trkpt>
      <trkpt lat="47.556355" lon="1.7690359">
        <ele>141</ele>
        <time>2022-03-17T10:03:24.000Z</time>
      </trkpt>
      <trkpt lat="47.556362" lon="1.7690482">
        <ele>141</ele>
        <time>2022-03-17T10:03:25.000Z</time>
      </trkpt>
      <trkpt lat="47.55637" lon="1.7690597">
        <ele>141</ele>
        <time>2022-03-17T10:03:26.000Z</time>
      </trkpt>
      <trkpt lat="47.556377" lon="1.7690717">
        <ele>141</ele>
        <time>2022-03-17T10:03:27.000Z</time>
      </trkpt>
      <trkpt lat="47.55638" lon="1.7690879">
        <ele>141</ele>
        <time>2022-03-17T10:03:28.000Z</time>
      </trkpt>
      <trkpt lat="47.556393" lon="1.7691003">
        <ele>141</ele>
        <time>2022-03-17T10:03:29.000Z</time>
      </trkpt>
      <trkpt lat="47.5564" lon="1.7691095">
        <ele>141</ele>
        <time>2022-03-17T10:03:30.000Z</time>
      </trkpt>
      <trkpt lat="47.556408" lon="1.7691253">
        <ele>142</ele>
        <time>2022-03-17T10:03:31.000Z</time>
      </trkpt>
      <trkpt lat="47.556416" lon="1.7691395">
        <ele>142</ele>
        <time>2022-03-17T10:03:32.000Z</time>
      </trkpt>
      <trkpt lat="47.556423" lon="1.7691534">
        <ele>142</ele>
        <time>2022-03-17T10:03:33.000Z</time>
      </trkpt>
      <trkpt lat="47.55643" lon="1.7691694">
        <ele>142</ele>
        <time>2022-03-17T10:03:34.000Z</time>
      </trkpt>
      <trkpt lat="47.55644" lon="1.7691832">
        <ele>142</ele>
        <time>2022-03-17T10:03:35.000Z</time>
      </trkpt>
      <trkpt lat="47.556446" lon="1.7691987">
        <ele>142</ele>
        <time>2022-03-17T10:03:36.000Z</time>
      </trkpt>
      <trkpt lat="47.556454" lon="1.7692105">
        <ele>143</ele>
        <time>2022-03-17T10:03:37.000Z</time>
      </trkpt>
      <trkpt lat="47.556465" lon="1.7692281">
        <ele>143</ele>
        <time>2022-03-17T10:03:38.000Z</time>
      </trkpt>
      <trkpt lat="47.556473" lon="1.769244">
        <ele>143</ele>
        <time>2022-03-17T10:03:39.000Z</time>
      </trkpt>
      <trkpt lat="47.55648" lon="1.7692587">
        <ele>143</ele>
        <time>2022-03-17T10:03:40.000Z</time>
      </trkpt>
      <trkpt lat="47.55649" lon="1.7692754">
        <ele>143</ele>
        <time>2022-03-17T10:03:41.000Z</time>
      </trkpt>
      <trkpt lat="47.5565" lon="1.7692916">
        <ele>144</ele>
        <time>2022-03-17T10:03:42.000Z</time>
      </trkpt>
      <trkpt lat="47.556507" lon="1.769309">
        <ele>144</ele>
        <time>2022-03-17T10:03:43.000Z</time>
      </trkpt>
      <trkpt lat="47.556522" lon="1.7693278">
        <ele>144</ele>
        <time>2022-03-17T10:03:44.000Z</time>
      </trkpt>
      <trkpt lat="47.556534" lon="1.7693418">
        <ele>145</ele>
        <time>2022-03-17T10:03:45.000Z</time>
      </trkpt>
      <trkpt lat="47.55654" lon="1.7693505">
        <ele>145</ele>
        <time>2022-03-17T10:03:46.000Z</time>
      </trkpt>
      <trkpt lat="47.556545" lon="1.7693619">
        <ele>145</ele>
        <time>2022-03-17T10:03:47.000Z</time>
      </trkpt>
      <trkpt lat="47.556557" lon="1.7693783">
        <ele>145</ele>
        <time>2022-03-17T10:03:48.000Z</time>
      </trkpt>
      <trkpt lat="47.55656" lon="1.7693892">
        <ele>145</ele>
        <time>2022-03-17T10:03:49.000Z</time>
      </trkpt>
      <trkpt lat="47.55657" lon="1.7694027">
        <ele>145</ele>
        <time>2022-03-17T10:03:50.000Z</time>
      </trkpt>
      <trkpt lat="47.556576" lon="1.7694173">
        <ele>146</ele>
        <time>2022-03-17T10:03:51.000Z</time>
      </trkpt>
      <trkpt lat="47.556583" lon="1.7694318">
        <ele>146</ele>
        <time>2022-03-17T10:03:52.000Z</time>
      </trkpt>
      <trkpt lat="47.55659" lon="1.7694448">
        <ele>146</ele>
        <time>2022-03-17T10:03:53.000Z</time>
      </trkpt>
      <trkpt lat="47.5566" lon="1.769462">
        <ele>146</ele>
        <time>2022-03-17T10:03:54.000Z</time>
      </trkpt>
      <trkpt lat="47.556602" lon="1.7694746">
        <ele>147</ele>
        <time>2022-03-17T10:03:55.000Z</time>
      </trkpt>
      <trkpt lat="47.55661" lon="1.7694886">
        <ele>147</ele>
        <time>2022-03-17T10:03:56.000Z</time>
      </trkpt>
      <trkpt lat="47.556614" lon="1.769505">
        <ele>147</ele>
        <time>2022-03-17T10:03:57.000Z</time>
      </trkpt>
      <trkpt lat="47.55662" lon="1.7695224">
        <ele>146</ele>
        <time>2022-03-17T10:03:58.000Z</time>
      </trkpt>
      <trkpt lat="47.556625" lon="1.7695396">
        <ele>146</ele>
        <time>2022-03-17T10:03:59.000Z</time>
      </trkpt>
      <trkpt lat="47.556633" lon="1.7695585">
        <ele>145</ele>
        <time>2022-03-17T10:04:00.000Z</time>
      </trkpt>
      <trkpt lat="47.556637" lon="1.7695754">
        <ele>145</ele>
        <time>2022-03-17T10:04:01.000Z</time>
      </trkpt>
      <trkpt lat="47.556644" lon="1.769591">
        <ele>145</ele>
        <time>2022-03-17T10:04:02.000Z</time>
      </trkpt>
      <trkpt lat="47.55665" lon="1.7696052">
        <ele>145</ele>
        <time>2022-03-17T10:04:03.000Z</time>
      </trkpt>
      <trkpt lat="47.55665" lon="1.7696226">
        <ele>145</ele>
        <time>2022-03-17T10:04:04.000Z</time>
      </trkpt>
      <trkpt lat="47.556652" lon="1.7696414">
        <ele>145</ele>
        <time>2022-03-17T10:04:05.000Z</time>
      </trkpt>
      <trkpt lat="47.556656" lon="1.769661">
        <ele>145</ele>
        <time>2022-03-17T10:04:06.000Z</time>
      </trkpt>
      <trkpt lat="47.556664" lon="1.7696751">
        <ele>144</ele>
        <time>2022-03-17T10:04:07.000Z</time>
      </trkpt>
      <trkpt lat="47.55667" lon="1.7696956">
        <ele>143</ele>
        <time>2022-03-17T10:04:08.000Z</time>
      </trkpt>
      <trkpt lat="47.55668" lon="1.7697116">
        <ele>143</ele>
        <time>2022-03-17T10:04:09.000Z</time>
      </trkpt>
      <trkpt lat="47.556686" lon="1.7697287">
        <ele>143</ele>
        <time>2022-03-17T10:04:10.000Z</time>
      </trkpt>
      <trkpt lat="47.556698" lon="1.7697433">
        <ele>143</ele>
        <time>2022-03-17T10:04:11.000Z</time>
      </trkpt>
      <trkpt lat="47.556705" lon="1.7697577">
        <ele>143</ele>
        <time>2022-03-17T10:04:12.000Z</time>
      </trkpt>
      <trkpt lat="47.556713" lon="1.7697765">
        <ele>143</ele>
        <time>2022-03-17T10:04:13.000Z</time>
      </trkpt>
      <trkpt lat="47.556717" lon="1.7697928">
        <ele>143</ele>
        <time>2022-03-17T10:04:14.000Z</time>
      </trkpt>
      <trkpt lat="47.55673" lon="1.7698104">
        <ele>143</ele>
        <time>2022-03-17T10:04:15.000Z</time>
      </trkpt>
      <trkpt lat="47.556732" lon="1.7698239">
        <ele>143</ele>
        <time>2022-03-17T10:04:16.000Z</time>
      </trkpt>
      <trkpt lat="47.556732" lon="1.7698419">
        <ele>143</ele>
        <time>2022-03-17T10:04:17.000Z</time>
      </trkpt>
      <trkpt lat="47.55674" lon="1.7698516">
        <ele>143</ele>
        <time>2022-03-17T10:04:18.000Z</time>
      </trkpt>
      <trkpt lat="47.556744" lon="1.7698665">
        <ele>143</ele>
        <time>2022-03-17T10:04:19.000Z</time>
      </trkpt>
      <trkpt lat="47.556747" lon="1.7698814">
        <ele>143</ele>
        <time>2022-03-17T10:04:20.000Z</time>
      </trkpt>
      <trkpt lat="47.556755" lon="1.7698971">
        <ele>143</ele>
        <time>2022-03-17T10:04:21.000Z</time>
      </trkpt>
      <trkpt lat="47.556755" lon="1.7699142">
        <ele>143</ele>
        <time>2022-03-17T10:04:22.000Z</time>
      </trkpt>
      <trkpt lat="47.55676" lon="1.7699281">
        <ele>143</ele>
        <time>2022-03-17T10:04:23.000Z</time>
      </trkpt>
      <trkpt lat="47.556763" lon="1.7699419">
        <ele>144</ele>
        <time>2022-03-17T10:04:24.000Z</time>
      </trkpt>
      <trkpt lat="47.55677" lon="1.769961">
        <ele>144</ele>
        <time>2022-03-17T10:04:25.000Z</time>
      </trkpt>
      <trkpt lat="47.556774" lon="1.7699754">
        <ele>144</ele>
        <time>2022-03-17T10:04:26.000Z</time>
      </trkpt>
      <trkpt lat="47.556786" lon="1.769988">
        <ele>144</ele>
        <time>2022-03-17T10:04:27.000Z</time>
      </trkpt>
      <trkpt lat="47.556793" lon="1.7700063">
        <ele>144</ele>
        <time>2022-03-17T10:04:28.000Z</time>
      </trkpt>
      <trkpt lat="47.5568" lon="1.7700236">
        <ele>144</ele>
        <time>2022-03-17T10:04:29.000Z</time>
      </trkpt>
      <trkpt lat="47.556805" lon="1.7700416">
        <ele>144</ele>
        <time>2022-03-17T10:04:30.000Z</time>
      </trkpt>
      <trkpt lat="47.556816" lon="1.7700602">
        <ele>144</ele>
        <time>2022-03-17T10:04:31.000Z</time>
      </trkpt>
      <trkpt lat="47.556824" lon="1.7700726">
        <ele>143</ele>
        <time>2022-03-17T10:04:32.000Z</time>
      </trkpt>
      <trkpt lat="47.556828" lon="1.7700881">
        <ele>143</ele>
        <time>2022-03-17T10:04:33.000Z</time>
      </trkpt>
      <trkpt lat="47.556835" lon="1.7701069">
        <ele>142</ele>
        <time>2022-03-17T10:04:34.000Z</time>
      </trkpt>
      <trkpt lat="47.556847" lon="1.7701151">
        <ele>143</ele>
        <time>2022-03-17T10:04:35.000Z</time>
      </trkpt>
      <trkpt lat="47.55685" lon="1.7701263">
        <ele>143</ele>
        <time>2022-03-17T10:04:36.000Z</time>
      </trkpt>
      <trkpt lat="47.556854" lon="1.7701406">
        <ele>142</ele>
        <time>2022-03-17T10:04:37.000Z</time>
      </trkpt>
      <trkpt lat="47.556858" lon="1.7701502">
        <ele>142</ele>
        <time>2022-03-17T10:04:38.000Z</time>
      </trkpt>
      <trkpt lat="47.55686" lon="1.7701594">
        <ele>142</ele>
        <time>2022-03-17T10:04:39.000Z</time>
      </trkpt>
      <trkpt lat="47.55686" lon="1.7701646">
        <ele>142</ele>
        <time>2022-03-17T10:04:40.000Z</time>
      </trkpt>
      <trkpt lat="47.556866" lon="1.7701714">
        <ele>141</ele>
        <time>2022-03-17T10:04:41.000Z</time>
      </trkpt>
      <trkpt lat="47.55687" lon="1.770185">
        <ele>141</ele>
        <time>2022-03-17T10:04:42.000Z</time>
      </trkpt>
      <trkpt lat="47.556873" lon="1.7701983">
        <ele>141</ele>
        <time>2022-03-17T10:04:43.000Z</time>
      </trkpt>
      <trkpt lat="47.55688" lon="1.7702062">
        <ele>141</ele>
        <time>2022-03-17T10:04:44.000Z</time>
      </trkpt>
      <trkpt lat="47.55689" lon="1.770213">
        <ele>141</ele>
        <time>2022-03-17T10:04:45.000Z</time>
      </trkpt>
      <trkpt lat="47.556896" lon="1.7702308">
        <ele>141</ele>
        <time>2022-03-17T10:04:46.000Z</time>
      </trkpt>
      <trkpt lat="47.5569" lon="1.7702453">
        <ele>141</ele>
        <time>2022-03-17T10:04:47.000Z</time>
      </trkpt>
      <trkpt lat="47.556908" lon="1.7702566">
        <ele>141</ele>
        <time>2022-03-17T10:04:48.000Z</time>
      </trkpt>
      <trkpt lat="47.55692" lon="1.7702713">
        <ele>141</ele>
        <time>2022-03-17T10:04:49.000Z</time>
      </trkpt>
      <trkpt lat="47.55693" lon="1.7702893">
        <ele>140</ele>
        <time>2022-03-17T10:04:50.000Z</time>
      </trkpt>
      <trkpt lat="47.556934" lon="1.770301">
        <ele>141</ele>
        <time>2022-03-17T10:04:51.000Z</time>
      </trkpt>
      <trkpt lat="47.556942" lon="1.7703154">
        <ele>141</ele>
        <time>2022-03-17T10:04:52.000Z</time>
      </trkpt>
      <trkpt lat="47.55695" lon="1.7703255">
        <ele>141</ele>
        <time>2022-03-17T10:04:53.000Z</time>
      </trkpt>
      <trkpt lat="47.556957" lon="1.77034">
        <ele>140</ele>
        <time>2022-03-17T10:04:54.000Z</time>
      </trkpt>
      <trkpt lat="47.55697" lon="1.7703538">
        <ele>140</ele>
        <time>2022-03-17T10:04:55.000Z</time>
      </trkpt>
      <trkpt lat="47.556976" lon="1.7703687">
        <ele>140</ele>
        <time>2022-03-17T10:04:56.000Z</time>
      </trkpt>
      <trkpt lat="47.556984" lon="1.7703834">
        <ele>140</ele>
        <time>2022-03-17T10:04:57.000Z</time>
      </trkpt>
      <trkpt lat="47.55699" lon="1.7703956">
        <ele>140</ele>
        <time>2022-03-17T10:04:58.000Z</time>
      </trkpt>
      <trkpt lat="47.557" lon="1.7704134">
        <ele>140</ele>
        <time>2022-03-17T10:04:59.000Z</time>
      </trkpt>
      <trkpt lat="47.557007" lon="1.7704318">
        <ele>140</ele>
        <time>2022-03-17T10:05:00.000Z</time>
      </trkpt>
      <trkpt lat="47.55702" lon="1.7704508">
        <ele>140</ele>
        <time>2022-03-17T10:05:01.000Z</time>
      </trkpt>
      <trkpt lat="47.557022" lon="1.770465">
        <ele>140</ele>
        <time>2022-03-17T10:05:02.000Z</time>
      </trkpt>
      <trkpt lat="47.557026" lon="1.7704798">
        <ele>140</ele>
        <time>2022-03-17T10:05:03.000Z</time>
      </trkpt>
      <trkpt lat="47.557034" lon="1.7704984">
        <ele>140</ele>
        <time>2022-03-17T10:05:04.000Z</time>
      </trkpt>
      <trkpt lat="47.557037" lon="1.770513">
        <ele>140</ele>
        <time>2022-03-17T10:05:05.000Z</time>
      </trkpt>
      <trkpt lat="47.557045" lon="1.7705224">
        <ele>139</ele>
        <time>2022-03-17T10:05:06.000Z</time>
      </trkpt>
      <trkpt lat="47.55705" lon="1.7705375">
        <ele>139</ele>
        <time>2022-03-17T10:05:07.000Z</time>
      </trkpt>
      <trkpt lat="47.55706" lon="1.7705519">
        <ele>140</ele>
        <time>2022-03-17T10:05:08.000Z</time>
      </trkpt>
      <trkpt lat="47.557068" lon="1.7705644">
        <ele>140</ele>
        <time>2022-03-17T10:05:09.000Z</time>
      </trkpt>
      <trkpt lat="47.55707" lon="1.7705792">
        <ele>140</ele>
        <time>2022-03-17T10:05:10.000Z</time>
      </trkpt>
      <trkpt lat="47.557076" lon="1.7705953">
        <ele>139</ele>
        <time>2022-03-17T10:05:11.000Z</time>
      </trkpt>
      <trkpt lat="47.557083" lon="1.7706076">
        <ele>139</ele>
        <time>2022-03-17T10:05:12.000Z</time>
      </trkpt>
      <trkpt lat="47.55709" lon="1.7706203">
        <ele>139</ele>
        <time>2022-03-17T10:05:13.000Z</time>
      </trkpt>
      <trkpt lat="47.5571" lon="1.7706332">
        <ele>138</ele>
        <time>2022-03-17T10:05:14.000Z</time>
      </trkpt>
      <trkpt lat="47.557106" lon="1.7706454">
        <ele>138</ele>
        <time>2022-03-17T10:05:15.000Z</time>
      </trkpt>
      <trkpt lat="47.55711" lon="1.7706556">
        <ele>138</ele>
        <time>2022-03-17T10:05:16.000Z</time>
      </trkpt>
      <trkpt lat="47.557114" lon="1.7706652">
        <ele>138</ele>
        <time>2022-03-17T10:05:17.000Z</time>
      </trkpt>
      <trkpt lat="47.557117" lon="1.770673">
        <ele>137</ele>
        <time>2022-03-17T10:05:18.000Z</time>
      </trkpt>
      <trkpt lat="47.55712" lon="1.7706864">
        <ele>137</ele>
        <time>2022-03-17T10:05:19.000Z</time>
      </trkpt>
      <trkpt lat="47.55713" lon="1.770698">
        <ele>137</ele>
        <time>2022-03-17T10:05:20.000Z</time>
      </trkpt>
      <trkpt lat="47.557137" lon="1.7707118">
        <ele>137</ele>
        <time>2022-03-17T10:05:21.000Z</time>
      </trkpt>
      <trkpt lat="47.55714" lon="1.7707254">
        <ele>136</ele>
        <time>2022-03-17T10:05:22.000Z</time>
      </trkpt>
      <trkpt lat="47.557148" lon="1.7707428">
        <ele>136</ele>
        <time>2022-03-17T10:05:23.000Z</time>
      </trkpt>
      <trkpt lat="47.557156" lon="1.7707547">
        <ele>136</ele>
        <time>2022-03-17T10:05:24.000Z</time>
      </trkpt>
      <trkpt lat="47.557163" lon="1.7707669">
        <ele>136</ele>
        <time>2022-03-17T10:05:25.000Z</time>
      </trkpt>
      <trkpt lat="47.55717" lon="1.7707787">
        <ele>136</ele>
        <time>2022-03-17T10:05:26.000Z</time>
      </trkpt>
      <trkpt lat="47.55717" lon="1.7707951">
        <ele>136</ele>
        <time>2022-03-17T10:05:27.000Z</time>
      </trkpt>
      <trkpt lat="47.55718" lon="1.7708126">
        <ele>136</ele>
        <time>2022-03-17T10:05:28.000Z</time>
      </trkpt>
      <trkpt lat="47.557186" lon="1.7708273">
        <ele>136</ele>
        <time>2022-03-17T10:05:29.000Z</time>
      </trkpt>
      <trkpt lat="47.55719" lon="1.7708398">
        <ele>136</ele>
        <time>2022-03-17T10:05:30.000Z</time>
      </trkpt>
      <trkpt lat="47.557198" lon="1.7708519">
        <ele>136</ele>
        <time>2022-03-17T10:05:31.000Z</time>
      </trkpt>
      <trkpt lat="47.557205" lon="1.7708671">
        <ele>137</ele>
        <time>2022-03-17T10:05:32.000Z</time>
      </trkpt>
      <trkpt lat="47.55721" lon="1.7708791">
        <ele>136</ele>
        <time>2022-03-17T10:05:33.000Z</time>
      </trkpt>
      <trkpt lat="47.557217" lon="1.7708925">
        <ele>136</ele>
        <time>2022-03-17T10:05:34.000Z</time>
      </trkpt>
      <trkpt lat="47.557224" lon="1.7709072">
        <ele>135</ele>
        <time>2022-03-17T10:05:35.000Z</time>
      </trkpt>
      <trkpt lat="47.557228" lon="1.7709266">
        <ele>135</ele>
        <time>2022-03-17T10:05:36.000Z</time>
      </trkpt>
      <trkpt lat="47.55724" lon="1.7709428">
        <ele>135</ele>
        <time>2022-03-17T10:05:37.000Z</time>
      </trkpt>
      <trkpt lat="47.557247" lon="1.7709571">
        <ele>135</ele>
        <time>2022-03-17T10:05:38.000Z</time>
      </trkpt>
      <trkpt lat="47.55725" lon="1.7709719">
        <ele>135</ele>
        <time>2022-03-17T10:05:39.000Z</time>
      </trkpt>
      <trkpt lat="47.55726" lon="1.7709821">
        <ele>135</ele>
        <time>2022-03-17T10:05:40.000Z</time>
      </trkpt>
      <trkpt lat="47.55727" lon="1.7709961">
        <ele>136</ele>
        <time>2022-03-17T10:05:41.000Z</time>
      </trkpt>
      <trkpt lat="47.557278" lon="1.7710121">
        <ele>136</ele>
        <time>2022-03-17T10:05:42.000Z</time>
      </trkpt>
      <trkpt lat="47.557285" lon="1.7710282">
        <ele>136</ele>
        <time>2022-03-17T10:05:43.000Z</time>
      </trkpt>
      <trkpt lat="47.55729" lon="1.7710431">
        <ele>136</ele>
        <time>2022-03-17T10:05:44.000Z</time>
      </trkpt>
      <trkpt lat="47.557297" lon="1.7710557">
        <ele>136</ele>
        <time>2022-03-17T10:05:45.000Z</time>
      </trkpt>
      <trkpt lat="47.557304" lon="1.7710712">
        <ele>136</ele>
        <time>2022-03-17T10:05:46.000Z</time>
      </trkpt>
      <trkpt lat="47.557312" lon="1.7710866">
        <ele>136</ele>
        <time>2022-03-17T10:05:47.000Z</time>
      </trkpt>
      <trkpt lat="47.557316" lon="1.7710953">
        <ele>136</ele>
        <time>2022-03-17T10:05:48.000Z</time>
      </trkpt>
      <trkpt lat="47.557323" lon="1.7711073">
        <ele>137</ele>
        <time>2022-03-17T10:05:49.000Z</time>
      </trkpt>
      <trkpt lat="47.55733" lon="1.7711215">
        <ele>137</ele>
        <time>2022-03-17T10:05:50.000Z</time>
      </trkpt>
      <trkpt lat="47.55734" lon="1.7711333">
        <ele>137</ele>
        <time>2022-03-17T10:05:51.000Z</time>
      </trkpt>
      <trkpt lat="47.557346" lon="1.7711456">
        <ele>137</ele>
        <time>2022-03-17T10:05:52.000Z</time>
      </trkpt>
      <trkpt lat="47.557354" lon="1.7711601">
        <ele>138</ele>
        <time>2022-03-17T10:05:53.000Z</time>
      </trkpt>
      <trkpt lat="47.55736" lon="1.7711715">
        <ele>138</ele>
        <time>2022-03-17T10:05:54.000Z</time>
      </trkpt>
      <trkpt lat="47.55737" lon="1.7711865">
        <ele>138</ele>
        <time>2022-03-17T10:05:55.000Z</time>
      </trkpt>
      <trkpt lat="47.557384" lon="1.7712008">
        <ele>139</ele>
        <time>2022-03-17T10:05:56.000Z</time>
      </trkpt>
      <trkpt lat="47.557392" lon="1.7712138">
        <ele>139</ele>
        <time>2022-03-17T10:05:57.000Z</time>
      </trkpt>
      <trkpt lat="47.5574" lon="1.7712299">
        <ele>139</ele>
        <time>2022-03-17T10:05:58.000Z</time>
      </trkpt>
      <trkpt lat="47.55741" lon="1.7712444">
        <ele>139</ele>
        <time>2022-03-17T10:05:59.000Z</time>
      </trkpt>
      <trkpt lat="47.557423" lon="1.771259">
        <ele>139</ele>
        <time>2022-03-17T10:06:00.000Z</time>
      </trkpt>
      <trkpt lat="47.55743" lon="1.7712717">
        <ele>139</ele>
        <time>2022-03-17T10:06:01.000Z</time>
      </trkpt>
      <trkpt lat="47.557438" lon="1.7712883">
        <ele>139</ele>
        <time>2022-03-17T10:06:02.000Z</time>
      </trkpt>
      <trkpt lat="47.557446" lon="1.7713046">
        <ele>139</ele>
        <time>2022-03-17T10:06:03.000Z</time>
      </trkpt>
      <trkpt lat="47.55745" lon="1.7713206">
        <ele>140</ele>
        <time>2022-03-17T10:06:04.000Z</time>
      </trkpt>
      <trkpt lat="47.557457" lon="1.7713392">
        <ele>140</ele>
        <time>2022-03-17T10:06:05.000Z</time>
      </trkpt>
      <trkpt lat="47.55746" lon="1.7713532">
        <ele>140</ele>
        <time>2022-03-17T10:06:06.000Z</time>
      </trkpt>
      <trkpt lat="47.55747" lon="1.771359">
        <ele>139</ele>
        <time>2022-03-17T10:06:07.000Z</time>
      </trkpt>
      <trkpt lat="47.557476" lon="1.7713699">
        <ele>139</ele>
        <time>2022-03-17T10:06:08.000Z</time>
      </trkpt>
      <trkpt lat="47.557484" lon="1.7713829">
        <ele>139</ele>
        <time>2022-03-17T10:06:09.000Z</time>
      </trkpt>
      <trkpt lat="47.55749" lon="1.7713957">
        <ele>140</ele>
        <time>2022-03-17T10:06:10.000Z</time>
      </trkpt>
      <trkpt lat="47.5575" lon="1.7714062">
        <ele>139</ele>
        <time>2022-03-17T10:06:11.000Z</time>
      </trkpt>
      <trkpt lat="47.557507" lon="1.7714199">
        <ele>139</ele>
        <time>2022-03-17T10:06:12.000Z</time>
      </trkpt>
      <trkpt lat="47.557514" lon="1.7714359">
        <ele>139</ele>
        <time>2022-03-17T10:06:13.000Z</time>
      </trkpt>
      <trkpt lat="47.55752" lon="1.7714547">
        <ele>140</ele>
        <time>2022-03-17T10:06:14.000Z</time>
      </trkpt>
      <trkpt lat="47.557526" lon="1.7714736">
        <ele>140</ele>
        <time>2022-03-17T10:06:15.000Z</time>
      </trkpt>
      <trkpt lat="47.557533" lon="1.7714888">
        <ele>140</ele>
        <time>2022-03-17T10:06:16.000Z</time>
      </trkpt>
      <trkpt lat="47.55754" lon="1.7715062">
        <ele>140</ele>
        <time>2022-03-17T10:06:17.000Z</time>
      </trkpt>
      <trkpt lat="47.557545" lon="1.7715288">
        <ele>140</ele>
        <time>2022-03-17T10:06:18.000Z</time>
      </trkpt>
      <trkpt lat="47.557552" lon="1.7715521">
        <ele>141</ele>
        <time>2022-03-17T10:06:19.000Z</time>
      </trkpt>
      <trkpt lat="47.557556" lon="1.7715678">
        <ele>141</ele>
        <time>2022-03-17T10:06:20.000Z</time>
      </trkpt>
      <trkpt lat="47.557564" lon="1.7715816">
        <ele>142</ele>
        <time>2022-03-17T10:06:21.000Z</time>
      </trkpt>
      <trkpt lat="47.55757" lon="1.7715951">
        <ele>142</ele>
        <time>2022-03-17T10:06:22.000Z</time>
      </trkpt>
      <trkpt lat="47.55758" lon="1.7716067">
        <ele>142</ele>
        <time>2022-03-17T10:06:23.000Z</time>
      </trkpt>
      <trkpt lat="47.557583" lon="1.7716173">
        <ele>142</ele>
        <time>2022-03-17T10:06:24.000Z</time>
      </trkpt>
      <trkpt lat="47.557587" lon="1.7716322">
        <ele>142</ele>
        <time>2022-03-17T10:06:25.000Z</time>
      </trkpt>
      <trkpt lat="47.557594" lon="1.7716448">
        <ele>142</ele>
        <time>2022-03-17T10:06:26.000Z</time>
      </trkpt>
      <trkpt lat="47.557606" lon="1.7716577">
        <ele>142</ele>
        <time>2022-03-17T10:06:27.000Z</time>
      </trkpt>
      <trkpt lat="47.55761" lon="1.7716736">
        <ele>142</ele>
        <time>2022-03-17T10:06:28.000Z</time>
      </trkpt>
      <trkpt lat="47.55762" lon="1.7716899">
        <ele>142</ele>
        <time>2022-03-17T10:06:29.000Z</time>
      </trkpt>
      <trkpt lat="47.557632" lon="1.7716997">
        <ele>142</ele>
        <time>2022-03-17T10:06:30.000Z</time>
      </trkpt>
      <trkpt lat="47.557636" lon="1.7717102">
        <ele>142</ele>
        <time>2022-03-17T10:06:31.000Z</time>
      </trkpt>
      <trkpt lat="47.557644" lon="1.7717242">
        <ele>142</ele>
        <time>2022-03-17T10:06:32.000Z</time>
      </trkpt>
      <trkpt lat="47.557648" lon="1.7717389">
        <ele>142</ele>
        <time>2022-03-17T10:06:33.000Z</time>
      </trkpt>
      <trkpt lat="47.55765" lon="1.7717494">
        <ele>141</ele>
        <time>2022-03-17T10:06:34.000Z</time>
      </trkpt>
      <trkpt lat="47.55765" lon="1.7717494">
        <ele>141</ele>
        <time>2022-03-17T10:06:35.000Z</time>
      </trkpt>
      <trkpt lat="47.55766" lon="1.7717655">
        <ele>141</ele>
        <time>2022-03-17T10:06:36.000Z</time>
      </trkpt>
      <trkpt lat="47.55767" lon="1.7717756">
        <ele>141</ele>
        <time>2022-03-17T10:06:37.000Z</time>
      </trkpt>
      <trkpt lat="47.557674" lon="1.7717878">
        <ele>141</ele>
        <time>2022-03-17T10:06:38.000Z</time>
      </trkpt>
      <trkpt lat="47.55768" lon="1.7718017">
        <ele>141</ele>
        <time>2022-03-17T10:06:39.000Z</time>
      </trkpt>
      <trkpt lat="47.557686" lon="1.7718127">
        <ele>141</ele>
        <time>2022-03-17T10:06:40.000Z</time>
      </trkpt>
      <trkpt lat="47.55769" lon="1.7718234">
        <ele>142</ele>
        <time>2022-03-17T10:06:41.000Z</time>
      </trkpt>
      <trkpt lat="47.557697" lon="1.7718341">
        <ele>142</ele>
        <time>2022-03-17T10:06:42.000Z</time>
      </trkpt>
      <trkpt lat="47.557705" lon="1.7718507">
        <ele>142</ele>
        <time>2022-03-17T10:06:43.000Z</time>
      </trkpt>
      <trkpt lat="47.55771" lon="1.7718667">
        <ele>142</ele>
        <time>2022-03-17T10:06:44.000Z</time>
      </trkpt>
      <trkpt lat="47.55772" lon="1.7718834">
        <ele>142</ele>
        <time>2022-03-17T10:06:45.000Z</time>
      </trkpt>
      <trkpt lat="47.557728" lon="1.771903">
        <ele>142</ele>
        <time>2022-03-17T10:06:46.000Z</time>
      </trkpt>
      <trkpt lat="47.55773" lon="1.7719208">
        <ele>142</ele>
        <time>2022-03-17T10:06:47.000Z</time>
      </trkpt>
      <trkpt lat="47.55774" lon="1.7719369">
        <ele>142</ele>
        <time>2022-03-17T10:06:48.000Z</time>
      </trkpt>
      <trkpt lat="47.557747" lon="1.7719494">
        <ele>142</ele>
        <time>2022-03-17T10:06:49.000Z</time>
      </trkpt>
      <trkpt lat="47.55776" lon="1.7719682">
        <ele>142</ele>
        <time>2022-03-17T10:06:50.000Z</time>
      </trkpt>
      <trkpt lat="47.557766" lon="1.7719849">
        <ele>142</ele>
        <time>2022-03-17T10:06:51.000Z</time>
      </trkpt>
      <trkpt lat="47.557774" lon="1.7719992">
        <ele>142</ele>
        <time>2022-03-17T10:06:52.000Z</time>
      </trkpt>
      <trkpt lat="47.55778" lon="1.7720112">
        <ele>142</ele>
        <time>2022-03-17T10:06:53.000Z</time>
      </trkpt>
      <trkpt lat="47.557785" lon="1.7720274">
        <ele>142</ele>
        <time>2022-03-17T10:06:54.000Z</time>
      </trkpt>
      <trkpt lat="47.55779" lon="1.7720441">
        <ele>142</ele>
        <time>2022-03-17T10:06:55.000Z</time>
      </trkpt>
      <trkpt lat="47.557796" lon="1.7720565">
        <ele>142</ele>
        <time>2022-03-17T10:06:56.000Z</time>
      </trkpt>
      <trkpt lat="47.557808" lon="1.7720685">
        <ele>142</ele>
        <time>2022-03-17T10:06:57.000Z</time>
      </trkpt>
      <trkpt lat="47.557816" lon="1.7720765">
        <ele>142</ele>
        <time>2022-03-17T10:06:58.000Z</time>
      </trkpt>
      <trkpt lat="47.557823" lon="1.7720888">
        <ele>142</ele>
        <time>2022-03-17T10:06:59.000Z</time>
      </trkpt>
      <trkpt lat="47.557835" lon="1.772101">
        <ele>142</ele>
        <time>2022-03-17T10:07:00.000Z</time>
      </trkpt>
      <trkpt lat="47.55784" lon="1.7721119">
        <ele>142</ele>
        <time>2022-03-17T10:07:01.000Z</time>
      </trkpt>
      <trkpt lat="47.557842" lon="1.7721201">
        <ele>142</ele>
        <time>2022-03-17T10:07:02.000Z</time>
      </trkpt>
      <trkpt lat="47.55785" lon="1.7721344">
        <ele>142</ele>
        <time>2022-03-17T10:07:03.000Z</time>
      </trkpt>
      <trkpt lat="47.557854" lon="1.7721463">
        <ele>142</ele>
        <time>2022-03-17T10:07:04.000Z</time>
      </trkpt>
      <trkpt lat="47.55786" lon="1.772158">
        <ele>142</ele>
        <time>2022-03-17T10:07:05.000Z</time>
      </trkpt>
      <trkpt lat="47.55787" lon="1.772171">
        <ele>143</ele>
        <time>2022-03-17T10:07:06.000Z</time>
      </trkpt>
      <trkpt lat="47.55788" lon="1.7721844">
        <ele>143</ele>
        <time>2022-03-17T10:07:07.000Z</time>
      </trkpt>
      <trkpt lat="47.557888" lon="1.7721994">
        <ele>143</ele>
        <time>2022-03-17T10:07:08.000Z</time>
      </trkpt>
      <trkpt lat="47.557896" lon="1.7722127">
        <ele>143</ele>
        <time>2022-03-17T10:07:09.000Z</time>
      </trkpt>
      <trkpt lat="47.5579" lon="1.7722224">
        <ele>143</ele>
        <time>2022-03-17T10:07:10.000Z</time>
      </trkpt>
      <trkpt lat="47.557903" lon="1.772241">
        <ele>143</ele>
        <time>2022-03-17T10:07:11.000Z</time>
      </trkpt>
      <trkpt lat="47.55791" lon="1.7722598">
        <ele>144</ele>
        <time>2022-03-17T10:07:12.000Z</time>
      </trkpt>
      <trkpt lat="47.55792" lon="1.7722768">
        <ele>143</ele>
        <time>2022-03-17T10:07:13.000Z</time>
      </trkpt>
      <trkpt lat="47.557926" lon="1.7722924">
        <ele>143</ele>
        <time>2022-03-17T10:07:14.000Z</time>
      </trkpt>
      <trkpt lat="47.557926" lon="1.7722924">
        <ele>143</ele>
        <time>2022-03-17T10:07:14.000Z</time>
      </trkpt>
      <trkpt lat="47.557934" lon="1.7723302">
        <ele>143</ele>
        <time>2022-03-17T10:07:16.000Z</time>
      </trkpt>
      <trkpt lat="47.55794" lon="1.7723522">
        <ele>143</ele>
        <time>2022-03-17T10:07:17.000Z</time>
      </trkpt>
      <trkpt lat="47.557945" lon="1.7723742">
        <ele>144</ele>
        <time>2022-03-17T10:07:18.000Z</time>
      </trkpt>
      <trkpt lat="47.557953" lon="1.7723955">
        <ele>144</ele>
        <time>2022-03-17T10:07:19.000Z</time>
      </trkpt>
      <trkpt lat="47.557957" lon="1.7724152">
        <ele>144</ele>
        <time>2022-03-17T10:07:20.000Z</time>
      </trkpt>
      <trkpt lat="47.557957" lon="1.7724341">
        <ele>144</ele>
        <time>2022-03-17T10:07:21.000Z</time>
      </trkpt>
      <trkpt lat="47.55796" lon="1.7724543">
        <ele>144</ele>
        <time>2022-03-17T10:07:22.000Z</time>
      </trkpt>
      <trkpt lat="47.557957" lon="1.7724758">
        <ele>144</ele>
        <time>2022-03-17T10:07:23.000Z</time>
      </trkpt>
      <trkpt lat="47.557957" lon="1.7724758">
        <ele>144</ele>
        <time>2022-03-17T10:07:23.000Z</time>
      </trkpt>
      <trkpt lat="47.55795" lon="1.7725146">
        <ele>144</ele>
        <time>2022-03-17T10:07:25.000Z</time>
      </trkpt>
      <trkpt lat="47.557945" lon="1.772534">
        <ele>144</ele>
        <time>2022-03-17T10:07:26.000Z</time>
      </trkpt>
      <trkpt lat="47.55795" lon="1.7725468">
        <ele>144</ele>
        <time>2022-03-17T10:07:27.000Z</time>
      </trkpt>
      <trkpt lat="47.55795" lon="1.7725654">
        <ele>144</ele>
        <time>2022-03-17T10:07:28.000Z</time>
      </trkpt>
      <trkpt lat="47.55795" lon="1.7725825">
        <ele>144</ele>
        <time>2022-03-17T10:07:29.000Z</time>
      </trkpt>
      <trkpt lat="47.55795" lon="1.772601">
        <ele>144</ele>
        <time>2022-03-17T10:07:30.000Z</time>
      </trkpt>
      <trkpt lat="47.55795" lon="1.772601">
        <ele>144</ele>
        <time>2022-03-17T10:07:30.000Z</time>
      </trkpt>
      <trkpt lat="47.557953" lon="1.7726332">
        <ele>144</ele>
        <time>2022-03-17T10:07:32.000Z</time>
      </trkpt>
      <trkpt lat="47.557953" lon="1.7726513">
        <ele>144</ele>
        <time>2022-03-17T10:07:33.000Z</time>
      </trkpt>
      <trkpt lat="47.557953" lon="1.7726513">
        <ele>144</ele>
        <time>2022-03-17T10:07:33.000Z</time>
      </trkpt>
      <trkpt lat="47.557953" lon="1.7726668">
        <ele>144</ele>
        <time>2022-03-17T10:07:34.000Z</time>
      </trkpt>
      <trkpt lat="47.557945" lon="1.7726908">
        <ele>145</ele>
        <time>2022-03-17T10:07:36.000Z</time>
      </trkpt>
      <trkpt lat="47.557945" lon="1.7726908">
        <ele>145</ele>
        <time>2022-03-17T10:07:36.000Z</time>
      </trkpt>
      <trkpt lat="47.55794" lon="1.7726984">
        <ele>145</ele>
        <time>2022-03-17T10:07:37.000Z</time>
      </trkpt>
      <trkpt lat="47.557934" lon="1.7727226">
        <ele>145</ele>
        <time>2022-03-17T10:07:39.000Z</time>
      </trkpt>
      <trkpt lat="47.557934" lon="1.7727226">
        <ele>145</ele>
        <time>2022-03-17T10:07:39.000Z</time>
      </trkpt>
      <trkpt lat="47.557926" lon="1.7727376">
        <ele>145</ele>
        <time>2022-03-17T10:07:40.000Z</time>
      </trkpt>
      <trkpt lat="47.557922" lon="1.7727545">
        <ele>145</ele>
        <time>2022-03-17T10:07:41.000Z</time>
      </trkpt>
      <trkpt lat="47.55792" lon="1.7727662">
        <ele>145</ele>
        <time>2022-03-17T10:07:42.000Z</time>
      </trkpt>
      <trkpt lat="47.557907" lon="1.7727975">
        <ele>145</ele>
        <time>2022-03-17T10:07:44.000Z</time>
      </trkpt>
      <trkpt lat="47.557907" lon="1.7727975">
        <ele>145</ele>
        <time>2022-03-17T10:07:44.000Z</time>
      </trkpt>
      <trkpt lat="47.5579" lon="1.7728113">
        <ele>145</ele>
        <time>2022-03-17T10:07:45.000Z</time>
      </trkpt>
      <trkpt lat="47.557896" lon="1.7728224">
        <ele>145</ele>
        <time>2022-03-17T10:07:46.000Z</time>
      </trkpt>
      <trkpt lat="47.55789" lon="1.7728362">
        <ele>145</ele>
        <time>2022-03-17T10:07:47.000Z</time>
      </trkpt>
      <trkpt lat="47.55789" lon="1.7728362">
        <ele>145</ele>
        <time>2022-03-17T10:07:48.000Z</time>
      </trkpt>
      <trkpt lat="47.55789" lon="1.7728362">
        <ele>145</ele>
        <time>2022-03-17T10:07:49.000Z</time>
      </trkpt>
      <trkpt lat="47.55788" lon="1.7728847">
        <ele>145</ele>
        <time>2022-03-17T10:07:50.000Z</time>
      </trkpt>
      <trkpt lat="47.557873" lon="1.772905">
        <ele>145</ele>
        <time>2022-03-17T10:07:51.000Z</time>
      </trkpt>
      <trkpt lat="47.557873" lon="1.7729253">
        <ele>146</ele>
        <time>2022-03-17T10:07:52.000Z</time>
      </trkpt>
      <trkpt lat="47.55787" lon="1.7729416">
        <ele>146</ele>
        <time>2022-03-17T10:07:53.000Z</time>
      </trkpt>
      <trkpt lat="47.557865" lon="1.7729583">
        <ele>146</ele>
        <time>2022-03-17T10:07:54.000Z</time>
      </trkpt>
      <trkpt lat="47.557858" lon="1.7729774">
        <ele>147</ele>
        <time>2022-03-17T10:07:55.000Z</time>
      </trkpt>
      <trkpt lat="47.557854" lon="1.7729964">
        <ele>147</ele>
        <time>2022-03-17T10:07:56.000Z</time>
      </trkpt>
      <trkpt lat="47.55785" lon="1.7730165">
        <ele>147</ele>
        <time>2022-03-17T10:07:57.000Z</time>
      </trkpt>
      <trkpt lat="47.557846" lon="1.7730349">
        <ele>147</ele>
        <time>2022-03-17T10:07:58.000Z</time>
      </trkpt>
      <trkpt lat="47.55784" lon="1.7730588">
        <ele>147</ele>
        <time>2022-03-17T10:07:59.000Z</time>
      </trkpt>
      <trkpt lat="47.557835" lon="1.773075">
        <ele>148</ele>
        <time>2022-03-17T10:08:00.000Z</time>
      </trkpt>
      <trkpt lat="47.55783" lon="1.7731029">
        <ele>148</ele>
        <time>2022-03-17T10:08:02.000Z</time>
      </trkpt>
      <trkpt lat="47.557823" lon="1.7731141">
        <ele>147</ele>
        <time>2022-03-17T10:08:03.000Z</time>
      </trkpt>
      <trkpt lat="47.557823" lon="1.7731141">
        <ele>147</ele>
        <time>2022-03-17T10:08:03.000Z</time>
      </trkpt>
      <trkpt lat="47.55782" lon="1.7731354">
        <ele>148</ele>
        <time>2022-03-17T10:08:04.000Z</time>
      </trkpt>
      <trkpt lat="47.557816" lon="1.7731521">
        <ele>148</ele>
        <time>2022-03-17T10:08:05.000Z</time>
      </trkpt>
      <trkpt lat="47.55781" lon="1.7731699">
        <ele>147</ele>
        <time>2022-03-17T10:08:06.000Z</time>
      </trkpt>
      <trkpt lat="47.55781" lon="1.7731885">
        <ele>147</ele>
        <time>2022-03-17T10:08:07.000Z</time>
      </trkpt>
      <trkpt lat="47.557808" lon="1.7732102">
        <ele>147</ele>
        <time>2022-03-17T10:08:08.000Z</time>
      </trkpt>
      <trkpt lat="47.557808" lon="1.7732102">
        <ele>147</ele>
        <time>2022-03-17T10:08:09.000Z</time>
      </trkpt>
      <trkpt lat="47.557804" lon="1.7732373">
        <ele>148</ele>
        <time>2022-03-17T10:08:10.000Z</time>
      </trkpt>
      <trkpt lat="47.557793" lon="1.7732584">
        <ele>148</ele>
        <time>2022-03-17T10:08:11.000Z</time>
      </trkpt>
      <trkpt lat="47.557793" lon="1.7732714">
        <ele>148</ele>
        <time>2022-03-17T10:08:12.000Z</time>
      </trkpt>
      <trkpt lat="47.55779" lon="1.773284">
        <ele>148</ele>
        <time>2022-03-17T10:08:13.000Z</time>
      </trkpt>
      <trkpt lat="47.55778" lon="1.773301">
        <ele>148</ele>
        <time>2022-03-17T10:08:14.000Z</time>
      </trkpt>
      <trkpt lat="47.55778" lon="1.7733016">
        <ele>148</ele>
        <time>2022-03-17T10:08:15.000Z</time>
      </trkpt>
      <trkpt lat="47.557777" lon="1.7733128">
        <ele>149</ele>
        <time>2022-03-17T10:08:16.000Z</time>
      </trkpt>
      <trkpt lat="47.557777" lon="1.7733372">
        <ele>149</ele>
        <time>2022-03-17T10:08:17.000Z</time>
      </trkpt>
      <trkpt lat="47.55777" lon="1.7733574">
        <ele>149</ele>
        <time>2022-03-17T10:08:18.000Z</time>
      </trkpt>
      <trkpt lat="47.55777" lon="1.7733766">
        <ele>149</ele>
        <time>2022-03-17T10:08:19.000Z</time>
      </trkpt>
      <trkpt lat="47.557766" lon="1.7733934">
        <ele>149</ele>
        <time>2022-03-17T10:08:20.000Z</time>
      </trkpt>
      <trkpt lat="47.557762" lon="1.7734134">
        <ele>149</ele>
        <time>2022-03-17T10:08:21.000Z</time>
      </trkpt>
      <trkpt lat="47.55776" lon="1.773429">
        <ele>149</ele>
        <time>2022-03-17T10:08:22.000Z</time>
      </trkpt>
      <trkpt lat="47.55775" lon="1.7734485">
        <ele>149</ele>
        <time>2022-03-17T10:08:23.000Z</time>
      </trkpt>
      <trkpt lat="47.557743" lon="1.7734703">
        <ele>150</ele>
        <time>2022-03-17T10:08:24.000Z</time>
      </trkpt>
      <trkpt lat="47.557735" lon="1.7734917">
        <ele>149</ele>
        <time>2022-03-17T10:08:25.000Z</time>
      </trkpt>
      <trkpt lat="47.55773" lon="1.7735033">
        <ele>149</ele>
        <time>2022-03-17T10:08:26.000Z</time>
      </trkpt>
      <trkpt lat="47.557724" lon="1.7735159">
        <ele>149</ele>
        <time>2022-03-17T10:08:27.000Z</time>
      </trkpt>
      <trkpt lat="47.55772" lon="1.7735202">
        <ele>149</ele>
        <time>2022-03-17T10:08:28.000Z</time>
      </trkpt>
      <trkpt lat="47.557716" lon="1.7735286">
        <ele>149</ele>
        <time>2022-03-17T10:08:29.000Z</time>
      </trkpt>
      <trkpt lat="47.557716" lon="1.7735378">
        <ele>149</ele>
        <time>2022-03-17T10:08:30.000Z</time>
      </trkpt>
      <trkpt lat="47.55772" lon="1.7735516">
        <ele>149</ele>
        <time>2022-03-17T10:08:31.000Z</time>
      </trkpt>
      <trkpt lat="47.557724" lon="1.7735661">
        <ele>149</ele>
        <time>2022-03-17T10:08:32.000Z</time>
      </trkpt>
      <trkpt lat="47.557728" lon="1.7735846">
        <ele>148</ele>
        <time>2022-03-17T10:08:33.000Z</time>
      </trkpt>
      <trkpt lat="47.557724" lon="1.7736008">
        <ele>148</ele>
        <time>2022-03-17T10:08:34.000Z</time>
      </trkpt>
      <trkpt lat="47.55772" lon="1.7736148">
        <ele>148</ele>
        <time>2022-03-17T10:08:35.000Z</time>
      </trkpt>
      <trkpt lat="47.557713" lon="1.7736291">
        <ele>149</ele>
        <time>2022-03-17T10:08:36.000Z</time>
      </trkpt>
      <trkpt lat="47.557716" lon="1.7736459">
        <ele>149</ele>
        <time>2022-03-17T10:08:37.000Z</time>
      </trkpt>
      <trkpt lat="47.557713" lon="1.7736604">
        <ele>149</ele>
        <time>2022-03-17T10:08:38.000Z</time>
      </trkpt>
      <trkpt lat="47.55771" lon="1.7736757">
        <ele>149</ele>
        <time>2022-03-17T10:08:39.000Z</time>
      </trkpt>
      <trkpt lat="47.557705" lon="1.773689">
        <ele>149</ele>
        <time>2022-03-17T10:08:40.000Z</time>
      </trkpt>
      <trkpt lat="47.5577" lon="1.7737025">
        <ele>149</ele>
        <time>2022-03-17T10:08:41.000Z</time>
      </trkpt>
      <trkpt lat="47.5577" lon="1.7737197">
        <ele>148</ele>
        <time>2022-03-17T10:08:42.000Z</time>
      </trkpt>
      <trkpt lat="47.55769" lon="1.7737355">
        <ele>148</ele>
        <time>2022-03-17T10:08:43.000Z</time>
      </trkpt>
      <trkpt lat="47.557686" lon="1.7737523">
        <ele>147</ele>
        <time>2022-03-17T10:08:44.000Z</time>
      </trkpt>
      <trkpt lat="47.55768" lon="1.7737709">
        <ele>148</ele>
        <time>2022-03-17T10:08:45.000Z</time>
      </trkpt>
      <trkpt lat="47.557674" lon="1.7737925">
        <ele>148</ele>
        <time>2022-03-17T10:08:46.000Z</time>
      </trkpt>
      <trkpt lat="47.55767" lon="1.7738181">
        <ele>149</ele>
        <time>2022-03-17T10:08:47.000Z</time>
      </trkpt>
      <trkpt lat="47.557663" lon="1.7738376">
        <ele>149</ele>
        <time>2022-03-17T10:08:48.000Z</time>
      </trkpt>
      <trkpt lat="47.557655" lon="1.773857">
        <ele>149</ele>
        <time>2022-03-17T10:08:49.000Z</time>
      </trkpt>
      <trkpt lat="47.557648" lon="1.773875">
        <ele>149</ele>
        <time>2022-03-17T10:08:50.000Z</time>
      </trkpt>
      <trkpt lat="47.557644" lon="1.7738876">
        <ele>149</ele>
        <time>2022-03-17T10:08:51.000Z</time>
      </trkpt>
      <trkpt lat="47.55764" lon="1.773903">
        <ele>148</ele>
        <time>2022-03-17T10:08:52.000Z</time>
      </trkpt>
      <trkpt lat="47.557636" lon="1.77392">
        <ele>148</ele>
        <time>2022-03-17T10:08:53.000Z</time>
      </trkpt>
      <trkpt lat="47.557632" lon="1.7739367">
        <ele>148</ele>
        <time>2022-03-17T10:08:54.000Z</time>
      </trkpt>
      <trkpt lat="47.557632" lon="1.7739514">
        <ele>149</ele>
        <time>2022-03-17T10:08:55.000Z</time>
      </trkpt>
      <trkpt lat="47.557632" lon="1.7739621">
        <ele>149</ele>
        <time>2022-03-17T10:08:56.000Z</time>
      </trkpt>
      <trkpt lat="47.557625" lon="1.7739755">
        <ele>149</ele>
        <time>2022-03-17T10:08:57.000Z</time>
      </trkpt>
      <trkpt lat="47.557617" lon="1.7739894">
        <ele>149</ele>
        <time>2022-03-17T10:08:58.000Z</time>
      </trkpt>
      <trkpt lat="47.557613" lon="1.7740041">
        <ele>149</ele>
        <time>2022-03-17T10:08:59.000Z</time>
      </trkpt>
      <trkpt lat="47.557606" lon="1.7740194">
        <ele>149</ele>
        <time>2022-03-17T10:09:00.000Z</time>
      </trkpt>
      <trkpt lat="47.5576" lon="1.7740344">
        <ele>148</ele>
        <time>2022-03-17T10:09:01.000Z</time>
      </trkpt>
      <trkpt lat="47.55759" lon="1.7740488">
        <ele>148</ele>
        <time>2022-03-17T10:09:02.000Z</time>
      </trkpt>
      <trkpt lat="47.55758" lon="1.7740622">
        <ele>148</ele>
        <time>2022-03-17T10:09:03.000Z</time>
      </trkpt>
      <trkpt lat="47.55758" lon="1.7740774">
        <ele>147</ele>
        <time>2022-03-17T10:09:04.000Z</time>
      </trkpt>
      <trkpt lat="47.55757" lon="1.7740928">
        <ele>146</ele>
        <time>2022-03-17T10:09:05.000Z</time>
      </trkpt>
      <trkpt lat="47.557568" lon="1.7741086">
        <ele>146</ele>
        <time>2022-03-17T10:09:06.000Z</time>
      </trkpt>
      <trkpt lat="47.557568" lon="1.7741086">
        <ele>146</ele>
        <time>2022-03-17T10:09:07.000Z</time>
      </trkpt>
      <trkpt lat="47.557568" lon="1.7741086">
        <ele>146</ele>
        <time>2022-03-17T10:09:08.000Z</time>
      </trkpt>
      <trkpt lat="47.557556" lon="1.7741524">
        <ele>146</ele>
        <time>2022-03-17T10:09:09.000Z</time>
      </trkpt>
      <trkpt lat="47.557552" lon="1.7741737">
        <ele>146</ele>
        <time>2022-03-17T10:09:10.000Z</time>
      </trkpt>
      <trkpt lat="47.55755" lon="1.77419">
        <ele>146</ele>
        <time>2022-03-17T10:09:11.000Z</time>
      </trkpt>
      <trkpt lat="47.55754" lon="1.774208">
        <ele>146</ele>
        <time>2022-03-17T10:09:12.000Z</time>
      </trkpt>
      <trkpt lat="47.557545" lon="1.7742268">
        <ele>146</ele>
        <time>2022-03-17T10:09:13.000Z</time>
      </trkpt>
      <trkpt lat="47.55754" lon="1.7742434">
        <ele>147</ele>
        <time>2022-03-17T10:09:14.000Z</time>
      </trkpt>
      <trkpt lat="47.557533" lon="1.7742634">
        <ele>147</ele>
        <time>2022-03-17T10:09:15.000Z</time>
      </trkpt>
      <trkpt lat="47.557526" lon="1.7742841">
        <ele>147</ele>
        <time>2022-03-17T10:09:16.000Z</time>
      </trkpt>
      <trkpt lat="47.55752" lon="1.7743026">
        <ele>147</ele>
        <time>2022-03-17T10:09:17.000Z</time>
      </trkpt>
      <trkpt lat="47.557518" lon="1.774323">
        <ele>146</ele>
        <time>2022-03-17T10:09:18.000Z</time>
      </trkpt>
      <trkpt lat="47.557514" lon="1.7743435">
        <ele>146</ele>
        <time>2022-03-17T10:09:19.000Z</time>
      </trkpt>
      <trkpt lat="47.557507" lon="1.7743602">
        <ele>147</ele>
        <time>2022-03-17T10:09:20.000Z</time>
      </trkpt>
      <trkpt lat="47.557503" lon="1.7743793">
        <ele>147</ele>
        <time>2022-03-17T10:09:21.000Z</time>
      </trkpt>
      <trkpt lat="47.557495" lon="1.7743977">
        <ele>147</ele>
        <time>2022-03-17T10:09:22.000Z</time>
      </trkpt>
      <trkpt lat="47.557487" lon="1.7744145">
        <ele>147</ele>
        <time>2022-03-17T10:09:23.000Z</time>
      </trkpt>
      <trkpt lat="47.55748" lon="1.7744361">
        <ele>148</ele>
        <time>2022-03-17T10:09:24.000Z</time>
      </trkpt>
      <trkpt lat="47.557476" lon="1.77445">
        <ele>148</ele>
        <time>2022-03-17T10:09:25.000Z</time>
      </trkpt>
      <trkpt lat="47.55747" lon="1.7744658">
        <ele>148</ele>
        <time>2022-03-17T10:09:26.000Z</time>
      </trkpt>
      <trkpt lat="47.557457" lon="1.7744801">
        <ele>148</ele>
        <time>2022-03-17T10:09:27.000Z</time>
      </trkpt>
      <trkpt lat="47.557457" lon="1.7744932">
        <ele>148</ele>
        <time>2022-03-17T10:09:28.000Z</time>
      </trkpt>
      <trkpt lat="47.557453" lon="1.7745061">
        <ele>149</ele>
        <time>2022-03-17T10:09:29.000Z</time>
      </trkpt>
      <trkpt lat="47.557446" lon="1.7745209">
        <ele>149</ele>
        <time>2022-03-17T10:09:30.000Z</time>
      </trkpt>
      <trkpt lat="47.55744" lon="1.7745372">
        <ele>149</ele>
        <time>2022-03-17T10:09:31.000Z</time>
      </trkpt>
      <trkpt lat="47.557438" lon="1.7745506">
        <ele>149</ele>
        <time>2022-03-17T10:09:32.000Z</time>
      </trkpt>
      <trkpt lat="47.557426" lon="1.7745653">
        <ele>149</ele>
        <time>2022-03-17T10:09:33.000Z</time>
      </trkpt>
      <trkpt lat="47.55742" lon="1.7745806">
        <ele>149</ele>
        <time>2022-03-17T10:09:34.000Z</time>
      </trkpt>
      <trkpt lat="47.557415" lon="1.774594">
        <ele>149</ele>
        <time>2022-03-17T10:09:35.000Z</time>
      </trkpt>
      <trkpt lat="47.557407" lon="1.7746099">
        <ele>149</ele>
        <time>2022-03-17T10:09:36.000Z</time>
      </trkpt>
      <trkpt lat="47.557404" lon="1.7746263">
        <ele>149</ele>
        <time>2022-03-17T10:09:37.000Z</time>
      </trkpt>
      <trkpt lat="47.557396" lon="1.7746422">
        <ele>149</ele>
        <time>2022-03-17T10:09:38.000Z</time>
      </trkpt>
      <trkpt lat="47.55739" lon="1.7746577">
        <ele>149</ele>
        <time>2022-03-17T10:09:39.000Z</time>
      </trkpt>
      <trkpt lat="47.557384" lon="1.7746713">
        <ele>149</ele>
        <time>2022-03-17T10:09:40.000Z</time>
      </trkpt>
      <trkpt lat="47.55738" lon="1.774682">
        <ele>150</ele>
        <time>2022-03-17T10:09:41.000Z</time>
      </trkpt>
      <trkpt lat="47.55737" lon="1.7746959">
        <ele>150</ele>
        <time>2022-03-17T10:09:42.000Z</time>
      </trkpt>
      <trkpt lat="47.557365" lon="1.7747027">
        <ele>151</ele>
        <time>2022-03-17T10:09:43.000Z</time>
      </trkpt>
      <trkpt lat="47.557358" lon="1.774714">
        <ele>151</ele>
        <time>2022-03-17T10:09:44.000Z</time>
      </trkpt>
      <trkpt lat="47.557346" lon="1.7747271">
        <ele>151</ele>
        <time>2022-03-17T10:09:45.000Z</time>
      </trkpt>
      <trkpt lat="47.557343" lon="1.7747358">
        <ele>151</ele>
        <time>2022-03-17T10:09:46.000Z</time>
      </trkpt>
      <trkpt lat="47.55734" lon="1.7747551">
        <ele>152</ele>
        <time>2022-03-17T10:09:47.000Z</time>
      </trkpt>
      <trkpt lat="47.557327" lon="1.7747766">
        <ele>152</ele>
        <time>2022-03-17T10:09:48.000Z</time>
      </trkpt>
      <trkpt lat="47.55732" lon="1.7747945">
        <ele>152</ele>
        <time>2022-03-17T10:09:49.000Z</time>
      </trkpt>
      <trkpt lat="47.557312" lon="1.7748122">
        <ele>152</ele>
        <time>2022-03-17T10:09:50.000Z</time>
      </trkpt>
      <trkpt lat="47.55731" lon="1.7748289">
        <ele>152</ele>
        <time>2022-03-17T10:09:51.000Z</time>
      </trkpt>
      <trkpt lat="47.557304" lon="1.7748455">
        <ele>152</ele>
        <time>2022-03-17T10:09:52.000Z</time>
      </trkpt>
      <trkpt lat="47.5573" lon="1.7748613">
        <ele>152</ele>
        <time>2022-03-17T10:09:54.000Z</time>
      </trkpt>
      <trkpt lat="47.557297" lon="1.7748771">
        <ele>151</ele>
        <time>2022-03-17T10:09:55.000Z</time>
      </trkpt>
      <trkpt lat="47.557293" lon="1.7748923">
        <ele>151</ele>
        <time>2022-03-17T10:09:56.000Z</time>
      </trkpt>
      <trkpt lat="47.557285" lon="1.7749096">
        <ele>151</ele>
        <time>2022-03-17T10:09:57.000Z</time>
      </trkpt>
      <trkpt lat="47.557285" lon="1.7749224">
        <ele>151</ele>
        <time>2022-03-17T10:09:58.000Z</time>
      </trkpt>
      <trkpt lat="47.55728" lon="1.7749392">
        <ele>151</ele>
        <time>2022-03-17T10:09:59.000Z</time>
      </trkpt>
      <trkpt lat="47.557274" lon="1.7749574">
        <ele>151</ele>
        <time>2022-03-17T10:10:00.000Z</time>
      </trkpt>
      <trkpt lat="47.557266" lon="1.7749753">
        <ele>151</ele>
        <time>2022-03-17T10:10:01.000Z</time>
      </trkpt>
      <trkpt lat="47.557262" lon="1.7749895">
        <ele>152</ele>
        <time>2022-03-17T10:10:02.000Z</time>
      </trkpt>
      <trkpt lat="47.557255" lon="1.7750095">
        <ele>152</ele>
        <time>2022-03-17T10:10:03.000Z</time>
      </trkpt>
      <trkpt lat="47.55725" lon="1.775029">
        <ele>152</ele>
        <time>2022-03-17T10:10:04.000Z</time>
      </trkpt>
      <trkpt lat="47.557247" lon="1.775052">
        <ele>152</ele>
        <time>2022-03-17T10:10:05.000Z</time>
      </trkpt>
      <trkpt lat="47.557243" lon="1.7750746">
        <ele>151</ele>
        <time>2022-03-17T10:10:06.000Z</time>
      </trkpt>
      <trkpt lat="47.557236" lon="1.7750928">
        <ele>151</ele>
        <time>2022-03-17T10:10:07.000Z</time>
      </trkpt>
      <trkpt lat="47.557228" lon="1.7751056">
        <ele>151</ele>
        <time>2022-03-17T10:10:08.000Z</time>
      </trkpt>
      <trkpt lat="47.55722" lon="1.7751188">
        <ele>152</ele>
        <time>2022-03-17T10:10:09.000Z</time>
      </trkpt>
      <trkpt lat="47.557217" lon="1.7751358">
        <ele>152</ele>
        <time>2022-03-17T10:10:10.000Z</time>
      </trkpt>
      <trkpt lat="47.557213" lon="1.7751552">
        <ele>152</ele>
        <time>2022-03-17T10:10:11.000Z</time>
      </trkpt>
      <trkpt lat="47.55721" lon="1.7751752">
        <ele>152</ele>
        <time>2022-03-17T10:10:12.000Z</time>
      </trkpt>
      <trkpt lat="47.55721" lon="1.7751985">
        <ele>152</ele>
        <time>2022-03-17T10:10:13.000Z</time>
      </trkpt>
      <trkpt lat="47.5572" lon="1.7752159">
        <ele>152</ele>
        <time>2022-03-17T10:10:14.000Z</time>
      </trkpt>
      <trkpt lat="47.557198" lon="1.7752347">
        <ele>152</ele>
        <time>2022-03-17T10:10:15.000Z</time>
      </trkpt>
      <trkpt lat="47.557194" lon="1.7752526">
        <ele>152</ele>
        <time>2022-03-17T10:10:16.000Z</time>
      </trkpt>
      <trkpt lat="47.557186" lon="1.7752725">
        <ele>152</ele>
        <time>2022-03-17T10:10:17.000Z</time>
      </trkpt>
      <trkpt lat="47.557182" lon="1.7752905">
        <ele>152</ele>
        <time>2022-03-17T10:10:18.000Z</time>
      </trkpt>
      <trkpt lat="47.55718" lon="1.7753022">
        <ele>152</ele>
        <time>2022-03-17T10:10:19.000Z</time>
      </trkpt>
      <trkpt lat="47.557175" lon="1.7753173">
        <ele>153</ele>
        <time>2022-03-17T10:10:20.000Z</time>
      </trkpt>
      <trkpt lat="47.557175" lon="1.7753322">
        <ele>152</ele>
        <time>2022-03-17T10:10:21.000Z</time>
      </trkpt>
      <trkpt lat="47.55717" lon="1.7753521">
        <ele>152</ele>
        <time>2022-03-17T10:10:22.000Z</time>
      </trkpt>
      <trkpt lat="47.557163" lon="1.7753673">
        <ele>152</ele>
        <time>2022-03-17T10:10:23.000Z</time>
      </trkpt>
      <trkpt lat="47.55716" lon="1.7753859">
        <ele>152</ele>
        <time>2022-03-17T10:10:24.000Z</time>
      </trkpt>
      <trkpt lat="47.557156" lon="1.7754042">
        <ele>152</ele>
        <time>2022-03-17T10:10:25.000Z</time>
      </trkpt>
      <trkpt lat="47.55715" lon="1.7754246">
        <ele>152</ele>
        <time>2022-03-17T10:10:26.000Z</time>
      </trkpt>
      <trkpt lat="47.55715" lon="1.7754436">
        <ele>153</ele>
        <time>2022-03-17T10:10:27.000Z</time>
      </trkpt>
      <trkpt lat="47.557144" lon="1.7754663">
        <ele>153</ele>
        <time>2022-03-17T10:10:28.000Z</time>
      </trkpt>
      <trkpt lat="47.55714" lon="1.7754818">
        <ele>154</ele>
        <time>2022-03-17T10:10:29.000Z</time>
      </trkpt>
      <trkpt lat="47.557137" lon="1.7754983">
        <ele>154</ele>
        <time>2022-03-17T10:10:30.000Z</time>
      </trkpt>
      <trkpt lat="47.55713" lon="1.7755122">
        <ele>154</ele>
        <time>2022-03-17T10:10:31.000Z</time>
      </trkpt>
      <trkpt lat="47.557125" lon="1.775531">
        <ele>154</ele>
        <time>2022-03-17T10:10:32.000Z</time>
      </trkpt>
      <trkpt lat="47.55712" lon="1.7755487">
        <ele>154</ele>
        <time>2022-03-17T10:10:33.000Z</time>
      </trkpt>
      <trkpt lat="47.55712" lon="1.7755662">
        <ele>154</ele>
        <time>2022-03-17T10:10:34.000Z</time>
      </trkpt>
      <trkpt lat="47.557117" lon="1.7755833">
        <ele>154</ele>
        <time>2022-03-17T10:10:35.000Z</time>
      </trkpt>
      <trkpt lat="47.55711" lon="1.7755973">
        <ele>154</ele>
        <time>2022-03-17T10:10:36.000Z</time>
      </trkpt>
      <trkpt lat="47.557106" lon="1.7756102">
        <ele>154</ele>
        <time>2022-03-17T10:10:37.000Z</time>
      </trkpt>
      <trkpt lat="47.557102" lon="1.7756248">
        <ele>154</ele>
        <time>2022-03-17T10:10:38.000Z</time>
      </trkpt>
      <trkpt lat="47.5571" lon="1.7756383">
        <ele>154</ele>
        <time>2022-03-17T10:10:39.000Z</time>
      </trkpt>
      <trkpt lat="47.55709" lon="1.7756574">
        <ele>154</ele>
        <time>2022-03-17T10:10:40.000Z</time>
      </trkpt>
      <trkpt lat="47.557087" lon="1.7756692">
        <ele>154</ele>
        <time>2022-03-17T10:10:41.000Z</time>
      </trkpt>
      <trkpt lat="47.557083" lon="1.775682">
        <ele>154</ele>
        <time>2022-03-17T10:10:42.000Z</time>
      </trkpt>
      <trkpt lat="47.557083" lon="1.775697">
        <ele>154</ele>
        <time>2022-03-17T10:10:43.000Z</time>
      </trkpt>
      <trkpt lat="47.55708" lon="1.7757133">
        <ele>154</ele>
        <time>2022-03-17T10:10:44.000Z</time>
      </trkpt>
      <trkpt lat="47.55708" lon="1.7757341">
        <ele>154</ele>
        <time>2022-03-17T10:10:45.000Z</time>
      </trkpt>
      <trkpt lat="47.55707" lon="1.7757485">
        <ele>154</ele>
        <time>2022-03-17T10:10:46.000Z</time>
      </trkpt>
      <trkpt lat="47.55706" lon="1.7757647">
        <ele>154</ele>
        <time>2022-03-17T10:10:47.000Z</time>
      </trkpt>
      <trkpt lat="47.557053" lon="1.7757796">
        <ele>154</ele>
        <time>2022-03-17T10:10:48.000Z</time>
      </trkpt>
      <trkpt lat="47.55705" lon="1.7757945">
        <ele>154</ele>
        <time>2022-03-17T10:10:49.000Z</time>
      </trkpt>
      <trkpt lat="47.557045" lon="1.7758149">
        <ele>155</ele>
        <time>2022-03-17T10:10:50.000Z</time>
      </trkpt>
      <trkpt lat="47.55704" lon="1.7758319">
        <ele>155</ele>
        <time>2022-03-17T10:10:51.000Z</time>
      </trkpt>
      <trkpt lat="47.557034" lon="1.7758484">
        <ele>155</ele>
        <time>2022-03-17T10:10:52.000Z</time>
      </trkpt>
      <trkpt lat="47.55703" lon="1.7758614">
        <ele>155</ele>
        <time>2022-03-17T10:10:53.000Z</time>
      </trkpt>
      <trkpt lat="47.557026" lon="1.7758723">
        <ele>155</ele>
        <time>2022-03-17T10:10:54.000Z</time>
      </trkpt>
      <trkpt lat="47.557022" lon="1.7758865">
        <ele>155</ele>
        <time>2022-03-17T10:10:55.000Z</time>
      </trkpt>
      <trkpt lat="47.55702" lon="1.7759012">
        <ele>155</ele>
        <time>2022-03-17T10:10:56.000Z</time>
      </trkpt>
      <trkpt lat="47.557014" lon="1.775918">
        <ele>154</ele>
        <time>2022-03-17T10:10:57.000Z</time>
      </trkpt>
      <trkpt lat="47.557007" lon="1.7759295">
        <ele>154</ele>
        <time>2022-03-17T10:10:58.000Z</time>
      </trkpt>
      <trkpt lat="47.557003" lon="1.7759435">
        <ele>154</ele>
        <time>2022-03-17T10:10:59.000Z</time>
      </trkpt>
      <trkpt lat="47.557" lon="1.7759584">
        <ele>154</ele>
        <time>2022-03-17T10:11:00.000Z</time>
      </trkpt>
      <trkpt lat="47.557" lon="1.7759724">
        <ele>154</ele>
        <time>2022-03-17T10:11:01.000Z</time>
      </trkpt>
      <trkpt lat="47.556995" lon="1.7759874">
        <ele>153</ele>
        <time>2022-03-17T10:11:02.000Z</time>
      </trkpt>
      <trkpt lat="47.55699" lon="1.7760017">
        <ele>153</ele>
        <time>2022-03-17T10:11:03.000Z</time>
      </trkpt>
      <trkpt lat="47.55699" lon="1.7760226">
        <ele>153</ele>
        <time>2022-03-17T10:11:04.000Z</time>
      </trkpt>
      <trkpt lat="47.556988" lon="1.7760398">
        <ele>153</ele>
        <time>2022-03-17T10:11:05.000Z</time>
      </trkpt>
      <trkpt lat="47.556984" lon="1.7760563">
        <ele>153</ele>
        <time>2022-03-17T10:11:06.000Z</time>
      </trkpt>
      <trkpt lat="47.55698" lon="1.7760767">
        <ele>152</ele>
        <time>2022-03-17T10:11:07.000Z</time>
      </trkpt>
      <trkpt lat="47.55698" lon="1.7760915">
        <ele>152</ele>
        <time>2022-03-17T10:11:08.000Z</time>
      </trkpt>
      <trkpt lat="47.556976" lon="1.7761106">
        <ele>152</ele>
        <time>2022-03-17T10:11:09.000Z</time>
      </trkpt>
      <trkpt lat="47.55697" lon="1.7761276">
        <ele>152</ele>
        <time>2022-03-17T10:11:10.000Z</time>
      </trkpt>
      <trkpt lat="47.556965" lon="1.7761432">
        <ele>152</ele>
        <time>2022-03-17T10:11:11.000Z</time>
      </trkpt>
      <trkpt lat="47.55696" lon="1.7761548">
        <ele>152</ele>
        <time>2022-03-17T10:11:12.000Z</time>
      </trkpt>
      <trkpt lat="47.556957" lon="1.7761725">
        <ele>152</ele>
        <time>2022-03-17T10:11:13.000Z</time>
      </trkpt>
      <trkpt lat="47.55695" lon="1.7761939">
        <ele>153</ele>
        <time>2022-03-17T10:11:14.000Z</time>
      </trkpt>
      <trkpt lat="47.556942" lon="1.7762109">
        <ele>153</ele>
        <time>2022-03-17T10:11:15.000Z</time>
      </trkpt>
      <trkpt lat="47.55694" lon="1.7762247">
        <ele>153</ele>
        <time>2022-03-17T10:11:16.000Z</time>
      </trkpt>
      <trkpt lat="47.55693" lon="1.7762408">
        <ele>153</ele>
        <time>2022-03-17T10:11:17.000Z</time>
      </trkpt>
      <trkpt lat="47.556927" lon="1.776256">
        <ele>153</ele>
        <time>2022-03-17T10:11:18.000Z</time>
      </trkpt>
      <trkpt lat="47.556923" lon="1.7762698">
        <ele>153</ele>
        <time>2022-03-17T10:11:19.000Z</time>
      </trkpt>
      <trkpt lat="47.55692" lon="1.7762865">
        <ele>154</ele>
        <time>2022-03-17T10:11:20.000Z</time>
      </trkpt>
      <trkpt lat="47.55691" lon="1.7763035">
        <ele>154</ele>
        <time>2022-03-17T10:11:21.000Z</time>
      </trkpt>
      <trkpt lat="47.556904" lon="1.7763216">
        <ele>154</ele>
        <time>2022-03-17T10:11:22.000Z</time>
      </trkpt>
      <trkpt lat="47.556896" lon="1.776335">
        <ele>154</ele>
        <time>2022-03-17T10:11:23.000Z</time>
      </trkpt>
      <trkpt lat="47.556892" lon="1.7763516">
        <ele>154</ele>
        <time>2022-03-17T10:11:24.000Z</time>
      </trkpt>
      <trkpt lat="47.556892" lon="1.7763679">
        <ele>154</ele>
        <time>2022-03-17T10:11:25.000Z</time>
      </trkpt>
      <trkpt lat="47.55689" lon="1.7763797">
        <ele>153</ele>
        <time>2022-03-17T10:11:26.000Z</time>
      </trkpt>
      <trkpt lat="47.55689" lon="1.7763925">
        <ele>153</ele>
        <time>2022-03-17T10:11:27.000Z</time>
      </trkpt>
      <trkpt lat="47.556885" lon="1.7764002">
        <ele>153</ele>
        <time>2022-03-17T10:11:28.000Z</time>
      </trkpt>
      <trkpt lat="47.55688" lon="1.7764158">
        <ele>153</ele>
        <time>2022-03-17T10:11:29.000Z</time>
      </trkpt>
      <trkpt lat="47.55688" lon="1.7764302">
        <ele>153</ele>
        <time>2022-03-17T10:11:30.000Z</time>
      </trkpt>
      <trkpt lat="47.556873" lon="1.7764437">
        <ele>154</ele>
        <time>2022-03-17T10:11:31.000Z</time>
      </trkpt>
      <trkpt lat="47.55687" lon="1.7764577">
        <ele>154</ele>
        <time>2022-03-17T10:11:32.000Z</time>
      </trkpt>
      <trkpt lat="47.55686" lon="1.7764745">
        <ele>154</ele>
        <time>2022-03-17T10:11:33.000Z</time>
      </trkpt>
      <trkpt lat="47.556858" lon="1.7764913">
        <ele>154</ele>
        <time>2022-03-17T10:11:34.000Z</time>
      </trkpt>
      <trkpt lat="47.55685" lon="1.776509">
        <ele>154</ele>
        <time>2022-03-17T10:11:35.000Z</time>
      </trkpt>
      <trkpt lat="47.556843" lon="1.7765304">
        <ele>155</ele>
        <time>2022-03-17T10:11:36.000Z</time>
      </trkpt>
      <trkpt lat="47.556835" lon="1.7765493">
        <ele>155</ele>
        <time>2022-03-17T10:11:37.000Z</time>
      </trkpt>
      <trkpt lat="47.556828" lon="1.7765753">
        <ele>155</ele>
        <time>2022-03-17T10:11:38.000Z</time>
      </trkpt>
      <trkpt lat="47.556824" lon="1.7765988">
        <ele>155</ele>
        <time>2022-03-17T10:11:39.000Z</time>
      </trkpt>
      <trkpt lat="47.55682" lon="1.7766194">
        <ele>155</ele>
        <time>2022-03-17T10:11:40.000Z</time>
      </trkpt>
      <trkpt lat="47.556812" lon="1.7766389">
        <ele>154</ele>
        <time>2022-03-17T10:11:41.000Z</time>
      </trkpt>
      <trkpt lat="47.55681" lon="1.7766541">
        <ele>154</ele>
        <time>2022-03-17T10:11:42.000Z</time>
      </trkpt>
      <trkpt lat="47.5568" lon="1.7766691">
        <ele>154</ele>
        <time>2022-03-17T10:11:43.000Z</time>
      </trkpt>
      <trkpt lat="47.556797" lon="1.7766825">
        <ele>154</ele>
        <time>2022-03-17T10:11:44.000Z</time>
      </trkpt>
      <trkpt lat="47.55679" lon="1.7766985">
        <ele>154</ele>
        <time>2022-03-17T10:11:45.000Z</time>
      </trkpt>
      <trkpt lat="47.55678" lon="1.7767143">
        <ele>154</ele>
        <time>2022-03-17T10:11:46.000Z</time>
      </trkpt>
      <trkpt lat="47.556778" lon="1.7767274">
        <ele>154</ele>
        <time>2022-03-17T10:11:47.000Z</time>
      </trkpt>
      <trkpt lat="47.55677" lon="1.7767366">
        <ele>154</ele>
        <time>2022-03-17T10:11:48.000Z</time>
      </trkpt>
      <trkpt lat="47.556767" lon="1.7767471">
        <ele>154</ele>
        <time>2022-03-17T10:11:49.000Z</time>
      </trkpt>
      <trkpt lat="47.55676" lon="1.7767637">
        <ele>154</ele>
        <time>2022-03-17T10:11:50.000Z</time>
      </trkpt>
      <trkpt lat="47.556755" lon="1.77678">
        <ele>154</ele>
        <time>2022-03-17T10:11:51.000Z</time>
      </trkpt>
      <trkpt lat="47.556747" lon="1.7767987">
        <ele>155</ele>
        <time>2022-03-17T10:11:52.000Z</time>
      </trkpt>
      <trkpt lat="47.556744" lon="1.7768166">
        <ele>154</ele>
        <time>2022-03-17T10:11:53.000Z</time>
      </trkpt>
      <trkpt lat="47.556744" lon="1.7768317">
        <ele>154</ele>
        <time>2022-03-17T10:11:54.000Z</time>
      </trkpt>
      <trkpt lat="47.556736" lon="1.776845">
        <ele>153</ele>
        <time>2022-03-17T10:11:55.000Z</time>
      </trkpt>
      <trkpt lat="47.556736" lon="1.776849">
        <ele>153</ele>
        <time>2022-03-17T10:11:56.000Z</time>
      </trkpt>
      <trkpt lat="47.556732" lon="1.7768599">
        <ele>154</ele>
        <time>2022-03-17T10:11:57.000Z</time>
      </trkpt>
      <trkpt lat="47.556736" lon="1.7768772">
        <ele>153</ele>
        <time>2022-03-17T10:11:58.000Z</time>
      </trkpt>
      <trkpt lat="47.55673" lon="1.7768962">
        <ele>153</ele>
        <time>2022-03-17T10:11:59.000Z</time>
      </trkpt>
      <trkpt lat="47.55673" lon="1.7769109">
        <ele>153</ele>
        <time>2022-03-17T10:12:00.000Z</time>
      </trkpt>
      <trkpt lat="47.556725" lon="1.7769272">
        <ele>152</ele>
        <time>2022-03-17T10:12:01.000Z</time>
      </trkpt>
      <trkpt lat="47.556725" lon="1.7769458">
        <ele>152</ele>
        <time>2022-03-17T10:12:02.000Z</time>
      </trkpt>
      <trkpt lat="47.55672" lon="1.7769576">
        <ele>152</ele>
        <time>2022-03-17T10:12:03.000Z</time>
      </trkpt>
      <trkpt lat="47.556713" lon="1.7769679">
        <ele>152</ele>
        <time>2022-03-17T10:12:04.000Z</time>
      </trkpt>
      <trkpt lat="47.55671" lon="1.7769841">
        <ele>152</ele>
        <time>2022-03-17T10:12:05.000Z</time>
      </trkpt>
      <trkpt lat="47.556705" lon="1.7770053">
        <ele>152</ele>
        <time>2022-03-17T10:12:06.000Z</time>
      </trkpt>
      <trkpt lat="47.556698" lon="1.7770238">
        <ele>152</ele>
        <time>2022-03-17T10:12:07.000Z</time>
      </trkpt>
      <trkpt lat="47.556694" lon="1.7770401">
        <ele>152</ele>
        <time>2022-03-17T10:12:08.000Z</time>
      </trkpt>
      <trkpt lat="47.556686" lon="1.7770619">
        <ele>152</ele>
        <time>2022-03-17T10:12:09.000Z</time>
      </trkpt>
      <trkpt lat="47.556686" lon="1.7770815">
        <ele>153</ele>
        <time>2022-03-17T10:12:10.000Z</time>
      </trkpt>
      <trkpt lat="47.55668" lon="1.7771014">
        <ele>153</ele>
        <time>2022-03-17T10:12:11.000Z</time>
      </trkpt>
      <trkpt lat="47.55667" lon="1.7771156">
        <ele>153</ele>
        <time>2022-03-17T10:12:12.000Z</time>
      </trkpt>
      <trkpt lat="47.556667" lon="1.7771302">
        <ele>153</ele>
        <time>2022-03-17T10:12:13.000Z</time>
      </trkpt>
      <trkpt lat="47.55666" lon="1.777147">
        <ele>154</ele>
        <time>2022-03-17T10:12:14.000Z</time>
      </trkpt>
      <trkpt lat="47.556652" lon="1.7771631">
        <ele>154</ele>
        <time>2022-03-17T10:12:15.000Z</time>
      </trkpt>
      <trkpt lat="47.55664" lon="1.7771791">
        <ele>154</ele>
        <time>2022-03-17T10:12:16.000Z</time>
      </trkpt>
      <trkpt lat="47.556637" lon="1.7771965">
        <ele>153</ele>
        <time>2022-03-17T10:12:17.000Z</time>
      </trkpt>
      <trkpt lat="47.556633" lon="1.7772044">
        <ele>153</ele>
        <time>2022-03-17T10:12:18.000Z</time>
      </trkpt>
      <trkpt lat="47.55663" lon="1.7772152">
        <ele>152</ele>
        <time>2022-03-17T10:12:19.000Z</time>
      </trkpt>
      <trkpt lat="47.55662" lon="1.777233">
        <ele>152</ele>
        <time>2022-03-17T10:12:20.000Z</time>
      </trkpt>
      <trkpt lat="47.556614" lon="1.7772535">
        <ele>152</ele>
        <time>2022-03-17T10:12:21.000Z</time>
      </trkpt>
      <trkpt lat="47.556606" lon="1.7772703">
        <ele>152</ele>
        <time>2022-03-17T10:12:22.000Z</time>
      </trkpt>
      <trkpt lat="47.556602" lon="1.7772851">
        <ele>152</ele>
        <time>2022-03-17T10:12:23.000Z</time>
      </trkpt>
      <trkpt lat="47.5566" lon="1.7772999">
        <ele>152</ele>
        <time>2022-03-17T10:12:24.000Z</time>
      </trkpt>
      <trkpt lat="47.556595" lon="1.777315">
        <ele>151</ele>
        <time>2022-03-17T10:12:25.000Z</time>
      </trkpt>
      <trkpt lat="47.55659" lon="1.7773341">
        <ele>152</ele>
        <time>2022-03-17T10:12:26.000Z</time>
      </trkpt>
      <trkpt lat="47.556587" lon="1.7773516">
        <ele>152</ele>
        <time>2022-03-17T10:12:27.000Z</time>
      </trkpt>
      <trkpt lat="47.556583" lon="1.7773662">
        <ele>151</ele>
        <time>2022-03-17T10:12:28.000Z</time>
      </trkpt>
      <trkpt lat="47.55658" lon="1.7773807">
        <ele>151</ele>
        <time>2022-03-17T10:12:29.000Z</time>
      </trkpt>
      <trkpt lat="47.556572" lon="1.7773985">
        <ele>151</ele>
        <time>2022-03-17T10:12:30.000Z</time>
      </trkpt>
      <trkpt lat="47.55657" lon="1.7774173">
        <ele>151</ele>
        <time>2022-03-17T10:12:31.000Z</time>
      </trkpt>
      <trkpt lat="47.55656" lon="1.7774382">
        <ele>151</ele>
        <time>2022-03-17T10:12:32.000Z</time>
      </trkpt>
      <trkpt lat="47.556553" lon="1.7774534">
        <ele>152</ele>
        <time>2022-03-17T10:12:33.000Z</time>
      </trkpt>
      <trkpt lat="47.55655" lon="1.7774724">
        <ele>152</ele>
        <time>2022-03-17T10:12:34.000Z</time>
      </trkpt>
      <trkpt lat="47.556545" lon="1.7774868">
        <ele>153</ele>
        <time>2022-03-17T10:12:35.000Z</time>
      </trkpt>
      <trkpt lat="47.55654" lon="1.7775072">
        <ele>153</ele>
        <time>2022-03-17T10:12:36.000Z</time>
      </trkpt>
      <trkpt lat="47.556534" lon="1.7775235">
        <ele>153</ele>
        <time>2022-03-17T10:12:37.000Z</time>
      </trkpt>
      <trkpt lat="47.55653" lon="1.7775393">
        <ele>152</ele>
        <time>2022-03-17T10:12:38.000Z</time>
      </trkpt>
      <trkpt lat="47.556526" lon="1.7775565">
        <ele>152</ele>
        <time>2022-03-17T10:12:39.000Z</time>
      </trkpt>
      <trkpt lat="47.556526" lon="1.7775741">
        <ele>152</ele>
        <time>2022-03-17T10:12:40.000Z</time>
      </trkpt>
      <trkpt lat="47.55652" lon="1.777589">
        <ele>152</ele>
        <time>2022-03-17T10:12:41.000Z</time>
      </trkpt>
      <trkpt lat="47.556515" lon="1.777609">
        <ele>153</ele>
        <time>2022-03-17T10:12:42.000Z</time>
      </trkpt>
      <trkpt lat="47.55651" lon="1.7776227">
        <ele>153</ele>
        <time>2022-03-17T10:12:43.000Z</time>
      </trkpt>
      <trkpt lat="47.556507" lon="1.7776368">
        <ele>153</ele>
        <time>2022-03-17T10:12:44.000Z</time>
      </trkpt>
      <trkpt lat="47.5565" lon="1.7776453">
        <ele>153</ele>
        <time>2022-03-17T10:12:45.000Z</time>
      </trkpt>
      <trkpt lat="47.55649" lon="1.7776599">
        <ele>153</ele>
        <time>2022-03-17T10:12:46.000Z</time>
      </trkpt>
      <trkpt lat="47.556488" lon="1.7776706">
        <ele>153</ele>
        <time>2022-03-17T10:12:47.000Z</time>
      </trkpt>
      <trkpt lat="47.55648" lon="1.7776817">
        <ele>153</ele>
        <time>2022-03-17T10:12:48.000Z</time>
      </trkpt>
      <trkpt lat="47.556477" lon="1.7776966">
        <ele>153</ele>
        <time>2022-03-17T10:12:49.000Z</time>
      </trkpt>
      <trkpt lat="47.556473" lon="1.7777169">
        <ele>153</ele>
        <time>2022-03-17T10:12:50.000Z</time>
      </trkpt>
      <trkpt lat="47.55647" lon="1.777733">
        <ele>153</ele>
        <time>2022-03-17T10:12:51.000Z</time>
      </trkpt>
      <trkpt lat="47.556465" lon="1.7777485">
        <ele>153</ele>
        <time>2022-03-17T10:12:52.000Z</time>
      </trkpt>
      <trkpt lat="47.55646" lon="1.7777652">
        <ele>154</ele>
        <time>2022-03-17T10:12:53.000Z</time>
      </trkpt>
      <trkpt lat="47.556458" lon="1.777783">
        <ele>154</ele>
        <time>2022-03-17T10:12:54.000Z</time>
      </trkpt>
      <trkpt lat="47.556454" lon="1.7778035">
        <ele>154</ele>
        <time>2022-03-17T10:12:55.000Z</time>
      </trkpt>
      <trkpt lat="47.55645" lon="1.7778243">
        <ele>153</ele>
        <time>2022-03-17T10:12:56.000Z</time>
      </trkpt>
      <trkpt lat="47.556446" lon="1.7778418">
        <ele>153</ele>
        <time>2022-03-17T10:12:57.000Z</time>
      </trkpt>
      <trkpt lat="47.55644" lon="1.7778563">
        <ele>153</ele>
        <time>2022-03-17T10:12:58.000Z</time>
      </trkpt>
      <trkpt lat="47.556435" lon="1.7778699">
        <ele>153</ele>
        <time>2022-03-17T10:12:59.000Z</time>
      </trkpt>
      <trkpt lat="47.55643" lon="1.7778838">
        <ele>153</ele>
        <time>2022-03-17T10:13:00.000Z</time>
      </trkpt>
      <trkpt lat="47.556427" lon="1.7778962">
        <ele>153</ele>
        <time>2022-03-17T10:13:01.000Z</time>
      </trkpt>
      <trkpt lat="47.55642" lon="1.7779117">
        <ele>153</ele>
        <time>2022-03-17T10:13:02.000Z</time>
      </trkpt>
      <trkpt lat="47.556416" lon="1.7779295">
        <ele>153</ele>
        <time>2022-03-17T10:13:03.000Z</time>
      </trkpt>
      <trkpt lat="47.55641" lon="1.7779468">
        <ele>153</ele>
        <time>2022-03-17T10:13:04.000Z</time>
      </trkpt>
      <trkpt lat="47.556404" lon="1.7779622">
        <ele>153</ele>
        <time>2022-03-17T10:13:05.000Z</time>
      </trkpt>
      <trkpt lat="47.556396" lon="1.7779756">
        <ele>153</ele>
        <time>2022-03-17T10:13:06.000Z</time>
      </trkpt>
      <trkpt lat="47.556393" lon="1.7779906">
        <ele>153</ele>
        <time>2022-03-17T10:13:07.000Z</time>
      </trkpt>
      <trkpt lat="47.556385" lon="1.7780092">
        <ele>153</ele>
        <time>2022-03-17T10:13:08.000Z</time>
      </trkpt>
      <trkpt lat="47.55638" lon="1.778028">
        <ele>153</ele>
        <time>2022-03-17T10:13:09.000Z</time>
      </trkpt>
      <trkpt lat="47.556377" lon="1.7780445">
        <ele>153</ele>
        <time>2022-03-17T10:13:10.000Z</time>
      </trkpt>
      <trkpt lat="47.556374" lon="1.7780627">
        <ele>153</ele>
        <time>2022-03-17T10:13:11.000Z</time>
      </trkpt>
      <trkpt lat="47.55637" lon="1.7780707">
        <ele>152</ele>
        <time>2022-03-17T10:13:12.000Z</time>
      </trkpt>
      <trkpt lat="47.556366" lon="1.7780862">
        <ele>153</ele>
        <time>2022-03-17T10:13:13.000Z</time>
      </trkpt>
      <trkpt lat="47.556362" lon="1.778102">
        <ele>153</ele>
        <time>2022-03-17T10:13:14.000Z</time>
      </trkpt>
      <trkpt lat="47.55636" lon="1.778116">
        <ele>153</ele>
        <time>2022-03-17T10:13:15.000Z</time>
      </trkpt>
      <trkpt lat="47.556355" lon="1.7781324">
        <ele>153</ele>
        <time>2022-03-17T10:13:16.000Z</time>
      </trkpt>
      <trkpt lat="47.55635" lon="1.7781472">
        <ele>153</ele>
        <time>2022-03-17T10:13:17.000Z</time>
      </trkpt>
      <trkpt lat="47.556347" lon="1.7781657">
        <ele>153</ele>
        <time>2022-03-17T10:13:18.000Z</time>
      </trkpt>
      <trkpt lat="47.55634" lon="1.7781825">
        <ele>153</ele>
        <time>2022-03-17T10:13:19.000Z</time>
      </trkpt>
      <trkpt lat="47.556335" lon="1.778201">
        <ele>153</ele>
        <time>2022-03-17T10:13:20.000Z</time>
      </trkpt>
      <trkpt lat="47.55633" lon="1.7782217">
        <ele>153</ele>
        <time>2022-03-17T10:13:21.000Z</time>
      </trkpt>
      <trkpt lat="47.556328" lon="1.7782454">
        <ele>153</ele>
        <time>2022-03-17T10:13:22.000Z</time>
      </trkpt>
      <trkpt lat="47.556324" lon="1.7782621">
        <ele>153</ele>
        <time>2022-03-17T10:13:23.000Z</time>
      </trkpt>
      <trkpt lat="47.55632" lon="1.7782762">
        <ele>153</ele>
        <time>2022-03-17T10:13:24.000Z</time>
      </trkpt>
      <trkpt lat="47.55632" lon="1.7782898">
        <ele>153</ele>
        <time>2022-03-17T10:13:25.000Z</time>
      </trkpt>
      <trkpt lat="47.556316" lon="1.778305">
        <ele>153</ele>
        <time>2022-03-17T10:13:26.000Z</time>
      </trkpt>
      <trkpt lat="47.556316" lon="1.7783203">
        <ele>153</ele>
        <time>2022-03-17T10:13:27.000Z</time>
      </trkpt>
      <trkpt lat="47.556313" lon="1.7783381">
        <ele>153</ele>
        <time>2022-03-17T10:13:28.000Z</time>
      </trkpt>
      <trkpt lat="47.55631" lon="1.7783514">
        <ele>152</ele>
        <time>2022-03-17T10:13:29.000Z</time>
      </trkpt>
      <trkpt lat="47.556305" lon="1.7783675">
        <ele>152</ele>
        <time>2022-03-17T10:13:30.000Z</time>
      </trkpt>
      <trkpt lat="47.556305" lon="1.7783878">
        <ele>151</ele>
        <time>2022-03-17T10:13:31.000Z</time>
      </trkpt>
      <trkpt lat="47.5563" lon="1.7784017">
        <ele>152</ele>
        <time>2022-03-17T10:13:32.000Z</time>
      </trkpt>
      <trkpt lat="47.556297" lon="1.7784121">
        <ele>152</ele>
        <time>2022-03-17T10:13:33.000Z</time>
      </trkpt>
      <trkpt lat="47.556297" lon="1.7784266">
        <ele>152</ele>
        <time>2022-03-17T10:13:34.000Z</time>
      </trkpt>
      <trkpt lat="47.556293" lon="1.7784362">
        <ele>152</ele>
        <time>2022-03-17T10:13:35.000Z</time>
      </trkpt>
      <trkpt lat="47.556293" lon="1.7784454">
        <ele>152</ele>
        <time>2022-03-17T10:13:36.000Z</time>
      </trkpt>
      <trkpt lat="47.55629" lon="1.7784597">
        <ele>152</ele>
        <time>2022-03-17T10:13:37.000Z</time>
      </trkpt>
      <trkpt lat="47.556282" lon="1.778471">
        <ele>152</ele>
        <time>2022-03-17T10:13:38.000Z</time>
      </trkpt>
      <trkpt lat="47.55628" lon="1.7784791">
        <ele>151</ele>
        <time>2022-03-17T10:13:39.000Z</time>
      </trkpt>
      <trkpt lat="47.55627" lon="1.7784883">
        <ele>151</ele>
        <time>2022-03-17T10:13:40.000Z</time>
      </trkpt>
      <trkpt lat="47.55626" lon="1.7784988">
        <ele>151</ele>
        <time>2022-03-17T10:13:41.000Z</time>
      </trkpt>
      <trkpt lat="47.55625" lon="1.7785066">
        <ele>151</ele>
        <time>2022-03-17T10:13:42.000Z</time>
      </trkpt>
      <trkpt lat="47.556248" lon="1.7785102">
        <ele>151</ele>
        <time>2022-03-17T10:13:43.000Z</time>
      </trkpt>
      <trkpt lat="47.556236" lon="1.7785163">
        <ele>150</ele>
        <time>2022-03-17T10:13:44.000Z</time>
      </trkpt>
      <trkpt lat="47.556232" lon="1.7785249">
        <ele>150</ele>
        <time>2022-03-17T10:13:45.000Z</time>
      </trkpt>
      <trkpt lat="47.556225" lon="1.7785339">
        <ele>150</ele>
        <time>2022-03-17T10:13:46.000Z</time>
      </trkpt>
      <trkpt lat="47.556213" lon="1.7785385">
        <ele>150</ele>
        <time>2022-03-17T10:13:47.000Z</time>
      </trkpt>
      <trkpt lat="47.556202" lon="1.7785445">
        <ele>150</ele>
        <time>2022-03-17T10:13:48.000Z</time>
      </trkpt>
      <trkpt lat="47.556194" lon="1.7785513">
        <ele>150</ele>
        <time>2022-03-17T10:13:49.000Z</time>
      </trkpt>
      <trkpt lat="47.556183" lon="1.7785594">
        <ele>149</ele>
        <time>2022-03-17T10:13:50.000Z</time>
      </trkpt>
      <trkpt lat="47.556175" lon="1.7785598">
        <ele>150</ele>
        <time>2022-03-17T10:13:51.000Z</time>
      </trkpt>
      <trkpt lat="47.556164" lon="1.7785624">
        <ele>149</ele>
        <time>2022-03-17T10:13:52.000Z</time>
      </trkpt>
      <trkpt lat="47.556156" lon="1.7785687">
        <ele>149</ele>
        <time>2022-03-17T10:13:53.000Z</time>
      </trkpt>
      <trkpt lat="47.556145" lon="1.7785735">
        <ele>149</ele>
        <time>2022-03-17T10:13:54.000Z</time>
      </trkpt>
      <trkpt lat="47.556133" lon="1.7785758">
        <ele>149</ele>
        <time>2022-03-17T10:13:55.000Z</time>
      </trkpt>
      <trkpt lat="47.55612" lon="1.7785803">
        <ele>149</ele>
        <time>2022-03-17T10:13:56.000Z</time>
      </trkpt>
      <trkpt lat="47.55611" lon="1.7785814">
        <ele>149</ele>
        <time>2022-03-17T10:13:57.000Z</time>
      </trkpt>
      <trkpt lat="47.556095" lon="1.7785863">
        <ele>149</ele>
        <time>2022-03-17T10:13:58.000Z</time>
      </trkpt>
      <trkpt lat="47.556084" lon="1.7785902">
        <ele>149</ele>
        <time>2022-03-17T10:13:59.000Z</time>
      </trkpt>
      <trkpt lat="47.556072" lon="1.7785925">
        <ele>149</ele>
        <time>2022-03-17T10:14:00.000Z</time>
      </trkpt>
      <trkpt lat="47.55606" lon="1.7785925">
        <ele>149</ele>
        <time>2022-03-17T10:14:01.000Z</time>
      </trkpt>
      <trkpt lat="47.556046" lon="1.7785896">
        <ele>149</ele>
        <time>2022-03-17T10:14:02.000Z</time>
      </trkpt>
      <trkpt lat="47.556034" lon="1.7785904">
        <ele>149</ele>
        <time>2022-03-17T10:14:03.000Z</time>
      </trkpt>
      <trkpt lat="47.55602" lon="1.7785935">
        <ele>149</ele>
        <time>2022-03-17T10:14:04.000Z</time>
      </trkpt>
      <trkpt lat="47.55601" lon="1.7785958">
        <ele>149</ele>
        <time>2022-03-17T10:14:05.000Z</time>
      </trkpt>
      <trkpt lat="47.556" lon="1.7785934">
        <ele>148</ele>
        <time>2022-03-17T10:14:06.000Z</time>
      </trkpt>
      <trkpt lat="47.55599" lon="1.7785933">
        <ele>148</ele>
        <time>2022-03-17T10:14:07.000Z</time>
      </trkpt>
      <trkpt lat="47.55598" lon="1.7785982">
        <ele>148</ele>
        <time>2022-03-17T10:14:08.000Z</time>
      </trkpt>
      <trkpt lat="47.55597" lon="1.778601">
        <ele>148</ele>
        <time>2022-03-17T10:14:09.000Z</time>
      </trkpt>
      <trkpt lat="47.555958" lon="1.7786059">
        <ele>147</ele>
        <time>2022-03-17T10:14:10.000Z</time>
      </trkpt>
      <trkpt lat="47.555946" lon="1.7786119">
        <ele>147</ele>
        <time>2022-03-17T10:14:11.000Z</time>
      </trkpt>
      <trkpt lat="47.555935" lon="1.7786168">
        <ele>147</ele>
        <time>2022-03-17T10:14:12.000Z</time>
      </trkpt>
      <trkpt lat="47.555923" lon="1.7786243">
        <ele>147</ele>
        <time>2022-03-17T10:14:13.000Z</time>
      </trkpt>
      <trkpt lat="47.555912" lon="1.7786313">
        <ele>147</ele>
        <time>2022-03-17T10:14:14.000Z</time>
      </trkpt>
      <trkpt lat="47.5559" lon="1.7786431">
        <ele>147</ele>
        <time>2022-03-17T10:14:15.000Z</time>
      </trkpt>
      <trkpt lat="47.55589" lon="1.7786528">
        <ele>148</ele>
        <time>2022-03-17T10:14:16.000Z</time>
      </trkpt>
      <trkpt lat="47.555878" lon="1.778661">
        <ele>147</ele>
        <time>2022-03-17T10:14:17.000Z</time>
      </trkpt>
      <trkpt lat="47.555862" lon="1.7786708">
        <ele>148</ele>
        <time>2022-03-17T10:14:18.000Z</time>
      </trkpt>
      <trkpt lat="47.555855" lon="1.7786765">
        <ele>149</ele>
        <time>2022-03-17T10:14:19.000Z</time>
      </trkpt>
      <trkpt lat="47.555843" lon="1.778685">
        <ele>148</ele>
        <time>2022-03-17T10:14:20.000Z</time>
      </trkpt>
      <trkpt lat="47.555832" lon="1.778693">
        <ele>149</ele>
        <time>2022-03-17T10:14:21.000Z</time>
      </trkpt>
      <trkpt lat="47.55582" lon="1.7787008">
        <ele>150</ele>
        <time>2022-03-17T10:14:22.000Z</time>
      </trkpt>
      <trkpt lat="47.55581" lon="1.7787087">
        <ele>150</ele>
        <time>2022-03-17T10:14:23.000Z</time>
      </trkpt>
      <trkpt lat="47.5558" lon="1.778719">
        <ele>149</ele>
        <time>2022-03-17T10:14:24.000Z</time>
      </trkpt>
      <trkpt lat="47.55579" lon="1.7787279">
        <ele>149</ele>
        <time>2022-03-17T10:14:25.000Z</time>
      </trkpt>
      <trkpt lat="47.555782" lon="1.7787392">
        <ele>149</ele>
        <time>2022-03-17T10:14:26.000Z</time>
      </trkpt>
      <trkpt lat="47.555775" lon="1.7787493">
        <ele>149</ele>
        <time>2022-03-17T10:14:27.000Z</time>
      </trkpt>
      <trkpt lat="47.555767" lon="1.7787607">
        <ele>149</ele>
        <time>2022-03-17T10:14:28.000Z</time>
      </trkpt>
      <trkpt lat="47.55576" lon="1.7787734">
        <ele>149</ele>
        <time>2022-03-17T10:14:29.000Z</time>
      </trkpt>
      <trkpt lat="47.555748" lon="1.7787795">
        <ele>149</ele>
        <time>2022-03-17T10:14:30.000Z</time>
      </trkpt>
      <trkpt lat="47.555733" lon="1.7787905">
        <ele>149</ele>
        <time>2022-03-17T10:14:31.000Z</time>
      </trkpt>
      <trkpt lat="47.555725" lon="1.7787976">
        <ele>149</ele>
        <time>2022-03-17T10:14:32.000Z</time>
      </trkpt>
      <trkpt lat="47.555714" lon="1.778806">
        <ele>149</ele>
        <time>2022-03-17T10:14:33.000Z</time>
      </trkpt>
      <trkpt lat="47.555706" lon="1.7788092">
        <ele>149</ele>
        <time>2022-03-17T10:14:34.000Z</time>
      </trkpt>
      <trkpt lat="47.5557" lon="1.7788167">
        <ele>149</ele>
        <time>2022-03-17T10:14:35.000Z</time>
      </trkpt>
      <trkpt lat="47.555687" lon="1.7788259">
        <ele>149</ele>
        <time>2022-03-17T10:14:36.000Z</time>
      </trkpt>
      <trkpt lat="47.555676" lon="1.7788339">
        <ele>149</ele>
        <time>2022-03-17T10:14:37.000Z</time>
      </trkpt>
      <trkpt lat="47.55566" lon="1.7788403">
        <ele>149</ele>
        <time>2022-03-17T10:14:38.000Z</time>
      </trkpt>
      <trkpt lat="47.55565" lon="1.7788484">
        <ele>148</ele>
        <time>2022-03-17T10:14:39.000Z</time>
      </trkpt>
      <trkpt lat="47.555637" lon="1.7788572">
        <ele>149</ele>
        <time>2022-03-17T10:14:40.000Z</time>
      </trkpt>
      <trkpt lat="47.555626" lon="1.7788683">
        <ele>148</ele>
        <time>2022-03-17T10:14:41.000Z</time>
      </trkpt>
      <trkpt lat="47.555614" lon="1.7788752">
        <ele>148</ele>
        <time>2022-03-17T10:14:42.000Z</time>
      </trkpt>
      <trkpt lat="47.555603" lon="1.7788852">
        <ele>148</ele>
        <time>2022-03-17T10:14:43.000Z</time>
      </trkpt>
      <trkpt lat="47.55559" lon="1.7788929">
        <ele>147</ele>
        <time>2022-03-17T10:14:44.000Z</time>
      </trkpt>
      <trkpt lat="47.55558" lon="1.7789">
        <ele>148</ele>
        <time>2022-03-17T10:14:45.000Z</time>
      </trkpt>
      <trkpt lat="47.555573" lon="1.7789127">
        <ele>147</ele>
        <time>2022-03-17T10:14:46.000Z</time>
      </trkpt>
      <trkpt lat="47.55556" lon="1.7789235">
        <ele>148</ele>
        <time>2022-03-17T10:14:47.000Z</time>
      </trkpt>
      <trkpt lat="47.555546" lon="1.7789351">
        <ele>148</ele>
        <time>2022-03-17T10:14:48.000Z</time>
      </trkpt>
      <trkpt lat="47.55554" lon="1.7789394">
        <ele>148</ele>
        <time>2022-03-17T10:14:49.000Z</time>
      </trkpt>
      <trkpt lat="47.55553" lon="1.7789443">
        <ele>148</ele>
        <time>2022-03-17T10:14:50.000Z</time>
      </trkpt>
      <trkpt lat="47.555527" lon="1.7789439">
        <ele>148</ele>
        <time>2022-03-17T10:14:51.000Z</time>
      </trkpt>
      <trkpt lat="47.555515" lon="1.7789522">
        <ele>147</ele>
        <time>2022-03-17T10:14:52.000Z</time>
      </trkpt>
      <trkpt lat="47.555508" lon="1.7789577">
        <ele>148</ele>
        <time>2022-03-17T10:14:53.000Z</time>
      </trkpt>
      <trkpt lat="47.555496" lon="1.7789657">
        <ele>148</ele>
        <time>2022-03-17T10:14:54.000Z</time>
      </trkpt>
      <trkpt lat="47.555485" lon="1.7789754">
        <ele>148</ele>
        <time>2022-03-17T10:14:55.000Z</time>
      </trkpt>
      <trkpt lat="47.555473" lon="1.778987">
        <ele>148</ele>
        <time>2022-03-17T10:14:56.000Z</time>
      </trkpt>
      <trkpt lat="47.555466" lon="1.7789984">
        <ele>148</ele>
        <time>2022-03-17T10:14:57.000Z</time>
      </trkpt>
      <trkpt lat="47.555454" lon="1.7790108">
        <ele>148</ele>
        <time>2022-03-17T10:14:58.000Z</time>
      </trkpt>
      <trkpt lat="47.555443" lon="1.779022">
        <ele>149</ele>
        <time>2022-03-17T10:14:59.000Z</time>
      </trkpt>
      <trkpt lat="47.55543" lon="1.7790332">
        <ele>149</ele>
        <time>2022-03-17T10:15:00.000Z</time>
      </trkpt>
      <trkpt lat="47.555416" lon="1.7790408">
        <ele>148</ele>
        <time>2022-03-17T10:15:01.000Z</time>
      </trkpt>
      <trkpt lat="47.555405" lon="1.779048">
        <ele>148</ele>
        <time>2022-03-17T10:15:02.000Z</time>
      </trkpt>
      <trkpt lat="47.555393" lon="1.7790565">
        <ele>148</ele>
        <time>2022-03-17T10:15:03.000Z</time>
      </trkpt>
      <trkpt lat="47.55538" lon="1.7790676">
        <ele>148</ele>
        <time>2022-03-17T10:15:04.000Z</time>
      </trkpt>
      <trkpt lat="47.555374" lon="1.7790751">
        <ele>148</ele>
        <time>2022-03-17T10:15:05.000Z</time>
      </trkpt>
      <trkpt lat="47.555363" lon="1.7790856">
        <ele>149</ele>
        <time>2022-03-17T10:15:06.000Z</time>
      </trkpt>
      <trkpt lat="47.555355" lon="1.7790953">
        <ele>149</ele>
        <time>2022-03-17T10:15:07.000Z</time>
      </trkpt>
      <trkpt lat="47.555344" lon="1.7791047">
        <ele>148</ele>
        <time>2022-03-17T10:15:08.000Z</time>
      </trkpt>
      <trkpt lat="47.555332" lon="1.7791134">
        <ele>149</ele>
        <time>2022-03-17T10:15:09.000Z</time>
      </trkpt>
      <trkpt lat="47.55532" lon="1.7791249">
        <ele>149</ele>
        <time>2022-03-17T10:15:10.000Z</time>
      </trkpt>
      <trkpt lat="47.55531" lon="1.7791337">
        <ele>149</ele>
        <time>2022-03-17T10:15:11.000Z</time>
      </trkpt>
      <trkpt lat="47.555298" lon="1.7791399">
        <ele>149</ele>
        <time>2022-03-17T10:15:12.000Z</time>
      </trkpt>
      <trkpt lat="47.55529" lon="1.7791477">
        <ele>149</ele>
        <time>2022-03-17T10:15:13.000Z</time>
      </trkpt>
      <trkpt lat="47.555283" lon="1.7791529">
        <ele>150</ele>
        <time>2022-03-17T10:15:14.000Z</time>
      </trkpt>
      <trkpt lat="47.55527" lon="1.7791568">
        <ele>149</ele>
        <time>2022-03-17T10:15:15.000Z</time>
      </trkpt>
      <trkpt lat="47.55526" lon="1.7791715">
        <ele>149</ele>
        <time>2022-03-17T10:15:16.000Z</time>
      </trkpt>
      <trkpt lat="47.55525" lon="1.7791839">
        <ele>149</ele>
        <time>2022-03-17T10:15:17.000Z</time>
      </trkpt>
      <trkpt lat="47.55524" lon="1.7791935">
        <ele>149</ele>
        <time>2022-03-17T10:15:18.000Z</time>
      </trkpt>
      <trkpt lat="47.55523" lon="1.7792032">
        <ele>149</ele>
        <time>2022-03-17T10:15:19.000Z</time>
      </trkpt>
      <trkpt lat="47.555218" lon="1.7792119">
        <ele>149</ele>
        <time>2022-03-17T10:15:20.000Z</time>
      </trkpt>
      <trkpt lat="47.555206" lon="1.7792232">
        <ele>149</ele>
        <time>2022-03-17T10:15:21.000Z</time>
      </trkpt>
      <trkpt lat="47.555195" lon="1.7792398">
        <ele>149</ele>
        <time>2022-03-17T10:15:22.000Z</time>
      </trkpt>
      <trkpt lat="47.555183" lon="1.7792531">
        <ele>149</ele>
        <time>2022-03-17T10:15:23.000Z</time>
      </trkpt>
      <trkpt lat="47.555176" lon="1.7792602">
        <ele>149</ele>
        <time>2022-03-17T10:15:24.000Z</time>
      </trkpt>
      <trkpt lat="47.55517" lon="1.7792685">
        <ele>149</ele>
        <time>2022-03-17T10:15:25.000Z</time>
      </trkpt>
      <trkpt lat="47.555157" lon="1.7792777">
        <ele>150</ele>
        <time>2022-03-17T10:15:26.000Z</time>
      </trkpt>
      <trkpt lat="47.555145" lon="1.7792871">
        <ele>150</ele>
        <time>2022-03-17T10:15:27.000Z</time>
      </trkpt>
      <trkpt lat="47.555138" lon="1.779293">
        <ele>150</ele>
        <time>2022-03-17T10:15:28.000Z</time>
      </trkpt>
      <trkpt lat="47.55513" lon="1.7793047">
        <ele>150</ele>
        <time>2022-03-17T10:15:29.000Z</time>
      </trkpt>
      <trkpt lat="47.555122" lon="1.7793127">
        <ele>150</ele>
        <time>2022-03-17T10:15:30.000Z</time>
      </trkpt>
      <trkpt lat="47.55511" lon="1.7793211">
        <ele>151</ele>
        <time>2022-03-17T10:15:31.000Z</time>
      </trkpt>
      <trkpt lat="47.555103" lon="1.7793313">
        <ele>151</ele>
        <time>2022-03-17T10:15:32.000Z</time>
      </trkpt>
      <trkpt lat="47.55509" lon="1.7793361">
        <ele>150</ele>
        <time>2022-03-17T10:15:33.000Z</time>
      </trkpt>
      <trkpt lat="47.55508" lon="1.7793418">
        <ele>150</ele>
        <time>2022-03-17T10:15:34.000Z</time>
      </trkpt>
      <trkpt lat="47.55507" lon="1.7793505">
        <ele>150</ele>
        <time>2022-03-17T10:15:35.000Z</time>
      </trkpt>
      <trkpt lat="47.555058" lon="1.77936">
        <ele>150</ele>
        <time>2022-03-17T10:15:36.000Z</time>
      </trkpt>
      <trkpt lat="47.555042" lon="1.7793708">
        <ele>150</ele>
        <time>2022-03-17T10:15:37.000Z</time>
      </trkpt>
      <trkpt lat="47.55503" lon="1.7793825">
        <ele>150</ele>
        <time>2022-03-17T10:15:38.000Z</time>
      </trkpt>
      <trkpt lat="47.55502" lon="1.7793941">
        <ele>150</ele>
        <time>2022-03-17T10:15:39.000Z</time>
      </trkpt>
      <trkpt lat="47.55501" lon="1.7794023">
        <ele>150</ele>
        <time>2022-03-17T10:15:40.000Z</time>
      </trkpt>
      <trkpt lat="47.555004" lon="1.7794093">
        <ele>150</ele>
        <time>2022-03-17T10:15:41.000Z</time>
      </trkpt>
      <trkpt lat="47.554996" lon="1.779416">
        <ele>149</ele>
        <time>2022-03-17T10:15:42.000Z</time>
      </trkpt>
      <trkpt lat="47.55499" lon="1.7794231">
        <ele>149</ele>
        <time>2022-03-17T10:15:43.000Z</time>
      </trkpt>
      <trkpt lat="47.554977" lon="1.7794296">
        <ele>148</ele>
        <time>2022-03-17T10:15:44.000Z</time>
      </trkpt>
      <trkpt lat="47.554966" lon="1.7794368">
        <ele>149</ele>
        <time>2022-03-17T10:15:45.000Z</time>
      </trkpt>
      <trkpt lat="47.55496" lon="1.7794414">
        <ele>149</ele>
        <time>2022-03-17T10:15:46.000Z</time>
      </trkpt>
      <trkpt lat="47.554947" lon="1.7794508">
        <ele>149</ele>
        <time>2022-03-17T10:15:47.000Z</time>
      </trkpt>
      <trkpt lat="47.554943" lon="1.7794577">
        <ele>149</ele>
        <time>2022-03-17T10:15:48.000Z</time>
      </trkpt>
      <trkpt lat="47.55494" lon="1.7794658">
        <ele>150</ele>
        <time>2022-03-17T10:15:49.000Z</time>
      </trkpt>
      <trkpt lat="47.55493" lon="1.779473">
        <ele>150</ele>
        <time>2022-03-17T10:15:50.000Z</time>
      </trkpt>
      <trkpt lat="47.554924" lon="1.7794795">
        <ele>150</ele>
        <time>2022-03-17T10:15:51.000Z</time>
      </trkpt>
      <trkpt lat="47.554916" lon="1.7794849">
        <ele>150</ele>
        <time>2022-03-17T10:15:52.000Z</time>
      </trkpt>
      <trkpt lat="47.554905" lon="1.7794908">
        <ele>150</ele>
        <time>2022-03-17T10:15:53.000Z</time>
      </trkpt>
      <trkpt lat="47.554893" lon="1.7794997">
        <ele>150</ele>
        <time>2022-03-17T10:15:54.000Z</time>
      </trkpt>
      <trkpt lat="47.55488" lon="1.7795036">
        <ele>151</ele>
        <time>2022-03-17T10:15:55.000Z</time>
      </trkpt>
      <trkpt lat="47.55487" lon="1.7795087">
        <ele>151</ele>
        <time>2022-03-17T10:15:56.000Z</time>
      </trkpt>
      <trkpt lat="47.55486" lon="1.7795137">
        <ele>152</ele>
        <time>2022-03-17T10:15:57.000Z</time>
      </trkpt>
      <trkpt lat="47.55485" lon="1.7795197">
        <ele>152</ele>
        <time>2022-03-17T10:15:58.000Z</time>
      </trkpt>
      <trkpt lat="47.55484" lon="1.7795298">
        <ele>152</ele>
        <time>2022-03-17T10:15:59.000Z</time>
      </trkpt>
      <trkpt lat="47.55483" lon="1.7795361">
        <ele>152</ele>
        <time>2022-03-17T10:16:00.000Z</time>
      </trkpt>
      <trkpt lat="47.554813" lon="1.7795395">
        <ele>152</ele>
        <time>2022-03-17T10:16:01.000Z</time>
      </trkpt>
      <trkpt lat="47.55481" lon="1.7795479">
        <ele>152</ele>
        <time>2022-03-17T10:16:02.000Z</time>
      </trkpt>
      <trkpt lat="47.554802" lon="1.7795552">
        <ele>151</ele>
        <time>2022-03-17T10:16:03.000Z</time>
      </trkpt>
      <trkpt lat="47.554794" lon="1.7795621">
        <ele>151</ele>
        <time>2022-03-17T10:16:04.000Z</time>
      </trkpt>
      <trkpt lat="47.55479" lon="1.7795671">
        <ele>151</ele>
        <time>2022-03-17T10:16:05.000Z</time>
      </trkpt>
      <trkpt lat="47.55478" lon="1.7795782">
        <ele>151</ele>
        <time>2022-03-17T10:16:06.000Z</time>
      </trkpt>
      <trkpt lat="47.554783" lon="1.7795787">
        <ele>151</ele>
        <time>2022-03-17T10:16:07.000Z</time>
      </trkpt>
      <trkpt lat="47.554783" lon="1.7795768">
        <ele>151</ele>
        <time>2022-03-17T10:16:08.000Z</time>
      </trkpt>
      <trkpt lat="47.55478" lon="1.7795806">
        <ele>152</ele>
        <time>2022-03-17T10:16:09.000Z</time>
      </trkpt>
      <trkpt lat="47.55477" lon="1.779585">
        <ele>152</ele>
        <time>2022-03-17T10:16:10.000Z</time>
      </trkpt>
      <trkpt lat="47.554764" lon="1.7795924">
        <ele>152</ele>
        <time>2022-03-17T10:16:11.000Z</time>
      </trkpt>
      <trkpt lat="47.554752" lon="1.7796032">
        <ele>152</ele>
        <time>2022-03-17T10:16:12.000Z</time>
      </trkpt>
      <trkpt lat="47.554745" lon="1.779612">
        <ele>153</ele>
        <time>2022-03-17T10:16:13.000Z</time>
      </trkpt>
      <trkpt lat="47.554737" lon="1.7796183">
        <ele>153</ele>
        <time>2022-03-17T10:16:14.000Z</time>
      </trkpt>
      <trkpt lat="47.554726" lon="1.7796274">
        <ele>152</ele>
        <time>2022-03-17T10:16:15.000Z</time>
      </trkpt>
      <trkpt lat="47.554718" lon="1.7796335">
        <ele>153</ele>
        <time>2022-03-17T10:16:16.000Z</time>
      </trkpt>
      <trkpt lat="47.55471" lon="1.779638">
        <ele>153</ele>
        <time>2022-03-17T10:16:17.000Z</time>
      </trkpt>
      <trkpt lat="47.554703" lon="1.779646">
        <ele>153</ele>
        <time>2022-03-17T10:16:18.000Z</time>
      </trkpt>
      <trkpt lat="47.554703" lon="1.7796502">
        <ele>152</ele>
        <time>2022-03-17T10:16:19.000Z</time>
      </trkpt>
      <trkpt lat="47.554707" lon="1.7796506">
        <ele>152</ele>
        <time>2022-03-17T10:16:20.000Z</time>
      </trkpt>
      <trkpt lat="47.554707" lon="1.7796506">
        <ele>152</ele>
        <time>2022-03-17T10:16:20.000Z</time>
      </trkpt>
      <trkpt lat="47.554707" lon="1.7796506">
        <ele>152</ele>
        <time>2022-03-17T10:16:20.000Z</time>
      </trkpt>
      <trkpt lat="47.554646" lon="1.7797192">
        <ele>154</ele>
        <time>2022-03-17T10:16:29.000Z</time>
      </trkpt>
      <trkpt lat="47.554646" lon="1.7797192">
        <ele>154</ele>
        <time>2022-03-17T10:16:29.000Z</time>
      </trkpt>
      <trkpt lat="47.554634" lon="1.7797259">
        <ele>154</ele>
        <time>2022-03-17T10:16:31.000Z</time>
      </trkpt>
      <trkpt lat="47.554626" lon="1.7797322">
        <ele>154</ele>
        <time>2022-03-17T10:16:32.000Z</time>
      </trkpt>
      <trkpt lat="47.554615" lon="1.7797425">
        <ele>154</ele>
        <time>2022-03-17T10:16:33.000Z</time>
      </trkpt>
      <trkpt lat="47.554607" lon="1.7797527">
        <ele>154</ele>
        <time>2022-03-17T10:16:34.000Z</time>
      </trkpt>
      <trkpt lat="47.5546" lon="1.7797692">
        <ele>154</ele>
        <time>2022-03-17T10:16:35.000Z</time>
      </trkpt>
      <trkpt lat="47.554585" lon="1.7797809">
        <ele>154</ele>
        <time>2022-03-17T10:16:36.000Z</time>
      </trkpt>
      <trkpt lat="47.554573" lon="1.7797921">
        <ele>154</ele>
        <time>2022-03-17T10:16:37.000Z</time>
      </trkpt>
      <trkpt lat="47.55456" lon="1.7798038">
        <ele>153</ele>
        <time>2022-03-17T10:16:38.000Z</time>
      </trkpt>
      <trkpt lat="47.554558" lon="1.7798175">
        <ele>153</ele>
        <time>2022-03-17T10:16:39.000Z</time>
      </trkpt>
      <trkpt lat="47.554558" lon="1.779836">
        <ele>154</ele>
        <time>2022-03-17T10:16:40.000Z</time>
      </trkpt>
      <trkpt lat="47.55456" lon="1.7798439">
        <ele>153</ele>
        <time>2022-03-17T10:16:41.000Z</time>
      </trkpt>
      <trkpt lat="47.55457" lon="1.7798519">
        <ele>153</ele>
        <time>2022-03-17T10:16:42.000Z</time>
      </trkpt>
      <trkpt lat="47.55457" lon="1.779851">
        <ele>154</ele>
        <time>2022-03-17T10:16:43.000Z</time>
      </trkpt>
      <trkpt lat="47.554573" lon="1.779851">
        <ele>155</ele>
        <time>2022-03-17T10:16:44.000Z</time>
      </trkpt>
      <trkpt lat="47.554573" lon="1.779851">
        <ele>155</ele>
        <time>2022-03-17T10:16:45.000Z</time>
      </trkpt>
      <trkpt lat="47.554573" lon="1.779851">
        <ele>155</ele>
        <time>2022-03-17T10:16:46.000Z</time>
      </trkpt>
      <trkpt lat="47.554573" lon="1.779851">
        <ele>155</ele>
        <time>2022-03-17T10:16:46.000Z</time>
      </trkpt>
      <trkpt lat="47.554573" lon="1.779851">
        <ele>155</ele>
        <time>2022-03-17T10:16:46.000Z</time>
      </trkpt>
      <trkpt lat="47.554516" lon="1.7799026">
        <ele>153</ele>
        <time>2022-03-17T10:17:24.000Z</time>
      </trkpt>
      <trkpt lat="47.55451" lon="1.7799132">
        <ele>153</ele>
        <time>2022-03-17T10:17:25.000Z</time>
      </trkpt>
      <trkpt lat="47.5545" lon="1.7799208">
        <ele>153</ele>
        <time>2022-03-17T10:17:26.000Z</time>
      </trkpt>
      <trkpt lat="47.55449" lon="1.7799277">
        <ele>153</ele>
        <time>2022-03-17T10:17:27.000Z</time>
      </trkpt>
      <trkpt lat="47.554466" lon="1.7799522">
        <ele>153</ele>
        <time>2022-03-17T10:17:28.000Z</time>
      </trkpt>
      <trkpt lat="47.554466" lon="1.7799522">
        <ele>153</ele>
        <time>2022-03-17T10:17:28.000Z</time>
      </trkpt>
      <trkpt lat="47.55445" lon="1.7799711">
        <ele>152</ele>
        <time>2022-03-17T10:17:30.000Z</time>
      </trkpt>
      <trkpt lat="47.554436" lon="1.7799773">
        <ele>152</ele>
        <time>2022-03-17T10:17:31.000Z</time>
      </trkpt>
      <trkpt lat="47.55442" lon="1.7799878">
        <ele>152</ele>
        <time>2022-03-17T10:17:32.000Z</time>
      </trkpt>
      <trkpt lat="47.55441" lon="1.7799882">
        <ele>152</ele>
        <time>2022-03-17T10:17:33.000Z</time>
      </trkpt>
      <trkpt lat="47.5544" lon="1.78">
        <ele>153</ele>
        <time>2022-03-17T10:17:34.000Z</time>
      </trkpt>
      <trkpt lat="47.55439" lon="1.7800097">
        <ele>153</ele>
        <time>2022-03-17T10:17:35.000Z</time>
      </trkpt>
      <trkpt lat="47.554375" lon="1.7800169">
        <ele>153</ele>
        <time>2022-03-17T10:17:36.000Z</time>
      </trkpt>
      <trkpt lat="47.55436" lon="1.7800206">
        <ele>153</ele>
        <time>2022-03-17T10:17:37.000Z</time>
      </trkpt>
      <trkpt lat="47.55434" lon="1.780032">
        <ele>152</ele>
        <time>2022-03-17T10:17:38.000Z</time>
      </trkpt>
      <trkpt lat="47.55433" lon="1.7800416">
        <ele>153</ele>
        <time>2022-03-17T10:17:39.000Z</time>
      </trkpt>
      <trkpt lat="47.55432" lon="1.7800485">
        <ele>153</ele>
        <time>2022-03-17T10:17:40.000Z</time>
      </trkpt>
      <trkpt lat="47.55431" lon="1.7800564">
        <ele>152</ele>
        <time>2022-03-17T10:17:41.000Z</time>
      </trkpt>
      <trkpt lat="47.554302" lon="1.7800618">
        <ele>152</ele>
        <time>2022-03-17T10:17:42.000Z</time>
      </trkpt>
      <trkpt lat="47.554295" lon="1.780069">
        <ele>152</ele>
        <time>2022-03-17T10:17:43.000Z</time>
      </trkpt>
      <trkpt lat="47.55429" lon="1.7800773">
        <ele>152</ele>
        <time>2022-03-17T10:17:44.000Z</time>
      </trkpt>
      <trkpt lat="47.554283" lon="1.7800871">
        <ele>152</ele>
        <time>2022-03-17T10:17:45.000Z</time>
      </trkpt>
      <trkpt lat="47.55427" lon="1.7800964">
        <ele>152</ele>
        <time>2022-03-17T10:17:46.000Z</time>
      </trkpt>
      <trkpt lat="47.55426" lon="1.7801025">
        <ele>152</ele>
        <time>2022-03-17T10:17:47.000Z</time>
      </trkpt>
      <trkpt lat="47.554253" lon="1.7801083">
        <ele>152</ele>
        <time>2022-03-17T10:17:48.000Z</time>
      </trkpt>
      <trkpt lat="47.55425" lon="1.7801148">
        <ele>152</ele>
        <time>2022-03-17T10:17:49.000Z</time>
      </trkpt>
      <trkpt lat="47.554237" lon="1.7801231">
        <ele>152</ele>
        <time>2022-03-17T10:17:50.000Z</time>
      </trkpt>
      <trkpt lat="47.554234" lon="1.7801353">
        <ele>152</ele>
        <time>2022-03-17T10:17:51.000Z</time>
      </trkpt>
      <trkpt lat="47.55423" lon="1.7801437">
        <ele>151</ele>
        <time>2022-03-17T10:17:52.000Z</time>
      </trkpt>
      <trkpt lat="47.55422" lon="1.7801523">
        <ele>151</ele>
        <time>2022-03-17T10:17:53.000Z</time>
      </trkpt>
      <trkpt lat="47.554207" lon="1.7801543">
        <ele>151</ele>
        <time>2022-03-17T10:17:54.000Z</time>
      </trkpt>
      <trkpt lat="47.554195" lon="1.7801548">
        <ele>151</ele>
        <time>2022-03-17T10:17:55.000Z</time>
      </trkpt>
      <trkpt lat="47.554188" lon="1.7801602">
        <ele>151</ele>
        <time>2022-03-17T10:17:56.000Z</time>
      </trkpt>
      <trkpt lat="47.554176" lon="1.7801656">
        <ele>151</ele>
        <time>2022-03-17T10:17:57.000Z</time>
      </trkpt>
      <trkpt lat="47.55417" lon="1.7801728">
        <ele>152</ele>
        <time>2022-03-17T10:17:58.000Z</time>
      </trkpt>
      <trkpt lat="47.554165" lon="1.7801826">
        <ele>151</ele>
        <time>2022-03-17T10:17:59.000Z</time>
      </trkpt>
      <trkpt lat="47.554157" lon="1.7801915">
        <ele>151</ele>
        <time>2022-03-17T10:18:00.000Z</time>
      </trkpt>
      <trkpt lat="47.55415" lon="1.7801989">
        <ele>151</ele>
        <time>2022-03-17T10:18:01.000Z</time>
      </trkpt>
      <trkpt lat="47.554142" lon="1.7802031">
        <ele>151</ele>
        <time>2022-03-17T10:18:02.000Z</time>
      </trkpt>
      <trkpt lat="47.554142" lon="1.7801993">
        <ele>151</ele>
        <time>2022-03-17T10:18:03.000Z</time>
      </trkpt>
      <trkpt lat="47.554142" lon="1.7801993">
        <ele>151</ele>
        <time>2022-03-17T10:18:04.000Z</time>
      </trkpt>
      <trkpt lat="47.554142" lon="1.780199">
        <ele>151</ele>
        <time>2022-03-17T10:18:05.000Z</time>
      </trkpt>
      <trkpt lat="47.554142" lon="1.7801987">
        <ele>151</ele>
        <time>2022-03-17T10:18:06.000Z</time>
      </trkpt>
      <trkpt lat="47.554142" lon="1.7801987">
        <ele>151</ele>
        <time>2022-03-17T10:18:06.000Z</time>
      </trkpt>
      <trkpt lat="47.554142" lon="1.7801987">
        <ele>151</ele>
        <time>2022-03-17T10:18:06.000Z</time>
      </trkpt>
      <trkpt lat="47.554096" lon="1.7802345">
        <ele>149</ele>
        <time>2022-03-17T10:18:29.000Z</time>
      </trkpt>
      <trkpt lat="47.554085" lon="1.7802349">
        <ele>149</ele>
        <time>2022-03-17T10:18:30.000Z</time>
      </trkpt>
      <trkpt lat="47.554077" lon="1.7802415">
        <ele>149</ele>
        <time>2022-03-17T10:18:31.000Z</time>
      </trkpt>
      <trkpt lat="47.554066" lon="1.7802459">
        <ele>149</ele>
        <time>2022-03-17T10:18:32.000Z</time>
      </trkpt>
      <trkpt lat="47.554054" lon="1.7802485">
        <ele>149</ele>
        <time>2022-03-17T10:18:33.000Z</time>
      </trkpt>
      <trkpt lat="47.554043" lon="1.7802562">
        <ele>150</ele>
        <time>2022-03-17T10:18:34.000Z</time>
      </trkpt>
      <trkpt lat="47.55404" lon="1.7802554">
        <ele>150</ele>
        <time>2022-03-17T10:18:35.000Z</time>
      </trkpt>
      <trkpt lat="47.55404" lon="1.7802554">
        <ele>150</ele>
        <time>2022-03-17T10:18:36.000Z</time>
      </trkpt>
      <trkpt lat="47.554035" lon="1.7802619">
        <ele>150</ele>
        <time>2022-03-17T10:18:37.000Z</time>
      </trkpt>
      <trkpt lat="47.55403" lon="1.780268">
        <ele>150</ele>
        <time>2022-03-17T10:18:38.000Z</time>
      </trkpt>
      <trkpt lat="47.55402" lon="1.7802761">
        <ele>150</ele>
        <time>2022-03-17T10:18:39.000Z</time>
      </trkpt>
      <trkpt lat="47.554012" lon="1.7802805">
        <ele>150</ele>
        <time>2022-03-17T10:18:40.000Z</time>
      </trkpt>
      <trkpt lat="47.55401" lon="1.7802893">
        <ele>149</ele>
        <time>2022-03-17T10:18:41.000Z</time>
      </trkpt>
      <trkpt lat="47.554" lon="1.7803017">
        <ele>149</ele>
        <time>2022-03-17T10:18:42.000Z</time>
      </trkpt>
      <trkpt lat="47.553993" lon="1.7803116">
        <ele>149</ele>
        <time>2022-03-17T10:18:43.000Z</time>
      </trkpt>
      <trkpt lat="47.55398" lon="1.7803242">
        <ele>149</ele>
        <time>2022-03-17T10:18:44.000Z</time>
      </trkpt>
      <trkpt lat="47.55397" lon="1.780334">
        <ele>150</ele>
        <time>2022-03-17T10:18:45.000Z</time>
      </trkpt>
      <trkpt lat="47.553967" lon="1.7803471">
        <ele>150</ele>
        <time>2022-03-17T10:18:46.000Z</time>
      </trkpt>
      <trkpt lat="47.553963" lon="1.7803594">
        <ele>150</ele>
        <time>2022-03-17T10:18:47.000Z</time>
      </trkpt>
      <trkpt lat="47.55395" lon="1.7803671">
        <ele>150</ele>
        <time>2022-03-17T10:18:48.000Z</time>
      </trkpt>
      <trkpt lat="47.553944" lon="1.7803822">
        <ele>150</ele>
        <time>2022-03-17T10:18:49.000Z</time>
      </trkpt>
      <trkpt lat="47.553936" lon="1.7803952">
        <ele>150</ele>
        <time>2022-03-17T10:18:50.000Z</time>
      </trkpt>
      <trkpt lat="47.55393" lon="1.7804017">
        <ele>151</ele>
        <time>2022-03-17T10:18:51.000Z</time>
      </trkpt>
      <trkpt lat="47.553913" lon="1.7804086">
        <ele>151</ele>
        <time>2022-03-17T10:18:52.000Z</time>
      </trkpt>
      <trkpt lat="47.5539" lon="1.7804141">
        <ele>150</ele>
        <time>2022-03-17T10:18:53.000Z</time>
      </trkpt>
      <trkpt lat="47.55389" lon="1.7804193">
        <ele>150</ele>
        <time>2022-03-17T10:18:54.000Z</time>
      </trkpt>
      <trkpt lat="47.55388" lon="1.7804205">
        <ele>149</ele>
        <time>2022-03-17T10:18:55.000Z</time>
      </trkpt>
      <trkpt lat="47.553867" lon="1.7804272">
        <ele>149</ele>
        <time>2022-03-17T10:18:56.000Z</time>
      </trkpt>
      <trkpt lat="47.553852" lon="1.7804323">
        <ele>149</ele>
        <time>2022-03-17T10:18:57.000Z</time>
      </trkpt>
      <trkpt lat="47.55384" lon="1.7804341">
        <ele>149</ele>
        <time>2022-03-17T10:18:58.000Z</time>
      </trkpt>
      <trkpt lat="47.55383" lon="1.7804394">
        <ele>149</ele>
        <time>2022-03-17T10:18:59.000Z</time>
      </trkpt>
      <trkpt lat="47.553818" lon="1.7804449">
        <ele>150</ele>
        <time>2022-03-17T10:19:00.000Z</time>
      </trkpt>
      <trkpt lat="47.553802" lon="1.78045">
        <ele>150</ele>
        <time>2022-03-17T10:19:01.000Z</time>
      </trkpt>
      <trkpt lat="47.55379" lon="1.7804608">
        <ele>150</ele>
        <time>2022-03-17T10:19:02.000Z</time>
      </trkpt>
      <trkpt lat="47.55378" lon="1.7804637">
        <ele>150</ele>
        <time>2022-03-17T10:19:03.000Z</time>
      </trkpt>
      <trkpt lat="47.55377" lon="1.7804692">
        <ele>150</ele>
        <time>2022-03-17T10:19:04.000Z</time>
      </trkpt>
      <trkpt lat="47.553757" lon="1.7804754">
        <ele>150</ele>
        <time>2022-03-17T10:19:05.000Z</time>
      </trkpt>
      <trkpt lat="47.553745" lon="1.7804838">
        <ele>151</ele>
        <time>2022-03-17T10:19:06.000Z</time>
      </trkpt>
      <trkpt lat="47.553734" lon="1.780491">
        <ele>151</ele>
        <time>2022-03-17T10:19:07.000Z</time>
      </trkpt>
      <trkpt lat="47.55372" lon="1.7804959">
        <ele>151</ele>
        <time>2022-03-17T10:19:08.000Z</time>
      </trkpt>
      <trkpt lat="47.553703" lon="1.7805008">
        <ele>151</ele>
        <time>2022-03-17T10:19:09.000Z</time>
      </trkpt>
      <trkpt lat="47.553688" lon="1.78051">
        <ele>152</ele>
        <time>2022-03-17T10:19:10.000Z</time>
      </trkpt>
      <trkpt lat="47.553677" lon="1.7805177">
        <ele>152</ele>
        <time>2022-03-17T10:19:11.000Z</time>
      </trkpt>
      <trkpt lat="47.553665" lon="1.7805231">
        <ele>152</ele>
        <time>2022-03-17T10:19:12.000Z</time>
      </trkpt>
      <trkpt lat="47.553654" lon="1.7805251">
        <ele>152</ele>
        <time>2022-03-17T10:19:13.000Z</time>
      </trkpt>
      <trkpt lat="47.553642" lon="1.7805346">
        <ele>152</ele>
        <time>2022-03-17T10:19:14.000Z</time>
      </trkpt>
      <trkpt lat="47.553635" lon="1.7805421">
        <ele>153</ele>
        <time>2022-03-17T10:19:15.000Z</time>
      </trkpt>
      <trkpt lat="47.553623" lon="1.7805508">
        <ele>153</ele>
        <time>2022-03-17T10:19:16.000Z</time>
      </trkpt>
      <trkpt lat="47.55361" lon="1.7805625">
        <ele>152</ele>
        <time>2022-03-17T10:19:17.000Z</time>
      </trkpt>
      <trkpt lat="47.5536" lon="1.780575">
        <ele>152</ele>
        <time>2022-03-17T10:19:18.000Z</time>
      </trkpt>
      <trkpt lat="47.553585" lon="1.7805804">
        <ele>153</ele>
        <time>2022-03-17T10:19:19.000Z</time>
      </trkpt>
      <trkpt lat="47.55357" lon="1.7805817">
        <ele>153</ele>
        <time>2022-03-17T10:19:20.000Z</time>
      </trkpt>
      <trkpt lat="47.553555" lon="1.7805996">
        <ele>154</ele>
        <time>2022-03-17T10:19:21.000Z</time>
      </trkpt>
      <trkpt lat="47.55353" lon="1.780631">
        <ele>153</ele>
        <time>2022-03-17T10:19:23.000Z</time>
      </trkpt>
      <trkpt lat="47.553513" lon="1.7806611">
        <ele>153</ele>
        <time>2022-03-17T10:19:25.000Z</time>
      </trkpt>
      <trkpt lat="47.5535" lon="1.7806673">
        <ele>153</ele>
        <time>2022-03-17T10:19:26.000Z</time>
      </trkpt>
      <trkpt lat="47.55349" lon="1.7806778">
        <ele>152</ele>
        <time>2022-03-17T10:19:27.000Z</time>
      </trkpt>
      <trkpt lat="47.55348" lon="1.7806894">
        <ele>151</ele>
        <time>2022-03-17T10:19:28.000Z</time>
      </trkpt>
      <trkpt lat="47.553467" lon="1.7806894">
        <ele>152</ele>
        <time>2022-03-17T10:19:29.000Z</time>
      </trkpt>
      <trkpt lat="47.55346" lon="1.7806997">
        <ele>152</ele>
        <time>2022-03-17T10:19:30.000Z</time>
      </trkpt>
      <trkpt lat="47.553448" lon="1.7807091">
        <ele>152</ele>
        <time>2022-03-17T10:19:31.000Z</time>
      </trkpt>
      <trkpt lat="47.55344" lon="1.7807189">
        <ele>152</ele>
        <time>2022-03-17T10:19:32.000Z</time>
      </trkpt>
      <trkpt lat="47.55343" lon="1.7807295">
        <ele>152</ele>
        <time>2022-03-17T10:19:33.000Z</time>
      </trkpt>
      <trkpt lat="47.553417" lon="1.7807364">
        <ele>152</ele>
        <time>2022-03-17T10:19:34.000Z</time>
      </trkpt>
      <trkpt lat="47.553402" lon="1.7807475">
        <ele>153</ele>
        <time>2022-03-17T10:19:35.000Z</time>
      </trkpt>
      <trkpt lat="47.55339" lon="1.7807564">
        <ele>153</ele>
        <time>2022-03-17T10:19:36.000Z</time>
      </trkpt>
      <trkpt lat="47.55338" lon="1.7807639">
        <ele>153</ele>
        <time>2022-03-17T10:19:37.000Z</time>
      </trkpt>
      <trkpt lat="47.553368" lon="1.7807664">
        <ele>153</ele>
        <time>2022-03-17T10:19:38.000Z</time>
      </trkpt>
      <trkpt lat="47.553356" lon="1.7807763">
        <ele>153</ele>
        <time>2022-03-17T10:19:39.000Z</time>
      </trkpt>
      <trkpt lat="47.553345" lon="1.7807851">
        <ele>153</ele>
        <time>2022-03-17T10:19:40.000Z</time>
      </trkpt>
      <trkpt lat="47.55333" lon="1.7807946">
        <ele>153</ele>
        <time>2022-03-17T10:19:41.000Z</time>
      </trkpt>
      <trkpt lat="47.553326" lon="1.7808">
        <ele>153</ele>
        <time>2022-03-17T10:19:42.000Z</time>
      </trkpt>
      <trkpt lat="47.55331" lon="1.7808079">
        <ele>153</ele>
        <time>2022-03-17T10:19:43.000Z</time>
      </trkpt>
      <trkpt lat="47.5533" lon="1.7808231">
        <ele>153</ele>
        <time>2022-03-17T10:19:44.000Z</time>
      </trkpt>
      <trkpt lat="47.553288" lon="1.780835">
        <ele>153</ele>
        <time>2022-03-17T10:19:45.000Z</time>
      </trkpt>
      <trkpt lat="47.553276" lon="1.7808487">
        <ele>152</ele>
        <time>2022-03-17T10:19:46.000Z</time>
      </trkpt>
      <trkpt lat="47.55326" lon="1.7808602">
        <ele>152</ele>
        <time>2022-03-17T10:19:47.000Z</time>
      </trkpt>
      <trkpt lat="47.55325" lon="1.7808714">
        <ele>152</ele>
        <time>2022-03-17T10:19:48.000Z</time>
      </trkpt>
      <trkpt lat="47.553238" lon="1.7808825">
        <ele>152</ele>
        <time>2022-03-17T10:19:49.000Z</time>
      </trkpt>
      <trkpt lat="47.553226" lon="1.7808942">
        <ele>152</ele>
        <time>2022-03-17T10:19:50.000Z</time>
      </trkpt>
      <trkpt lat="47.55321" lon="1.7809085">
        <ele>151</ele>
        <time>2022-03-17T10:19:51.000Z</time>
      </trkpt>
      <trkpt lat="47.553204" lon="1.7809198">
        <ele>151</ele>
        <time>2022-03-17T10:19:52.000Z</time>
      </trkpt>
      <trkpt lat="47.553192" lon="1.7809317">
        <ele>151</ele>
        <time>2022-03-17T10:19:53.000Z</time>
      </trkpt>
      <trkpt lat="47.55318" lon="1.7809429">
        <ele>151</ele>
        <time>2022-03-17T10:19:54.000Z</time>
      </trkpt>
      <trkpt lat="47.55317" lon="1.7809535">
        <ele>151</ele>
        <time>2022-03-17T10:19:55.000Z</time>
      </trkpt>
      <trkpt lat="47.553158" lon="1.7809627">
        <ele>151</ele>
        <time>2022-03-17T10:19:56.000Z</time>
      </trkpt>
      <trkpt lat="47.553146" lon="1.7809734">
        <ele>150</ele>
        <time>2022-03-17T10:19:57.000Z</time>
      </trkpt>
      <trkpt lat="47.55313" lon="1.7809814">
        <ele>151</ele>
        <time>2022-03-17T10:19:58.000Z</time>
      </trkpt>
      <trkpt lat="47.553116" lon="1.7809943">
        <ele>151</ele>
        <time>2022-03-17T10:19:59.000Z</time>
      </trkpt>
      <trkpt lat="47.553104" lon="1.7810069">
        <ele>151</ele>
        <time>2022-03-17T10:20:00.000Z</time>
      </trkpt>
      <trkpt lat="47.553097" lon="1.7810125">
        <ele>150</ele>
        <time>2022-03-17T10:20:01.000Z</time>
      </trkpt>
      <trkpt lat="47.55309" lon="1.7810202">
        <ele>150</ele>
        <time>2022-03-17T10:20:02.000Z</time>
      </trkpt>
      <trkpt lat="47.55308" lon="1.781032">
        <ele>150</ele>
        <time>2022-03-17T10:20:03.000Z</time>
      </trkpt>
      <trkpt lat="47.55307" lon="1.7810395">
        <ele>150</ele>
        <time>2022-03-17T10:20:04.000Z</time>
      </trkpt>
      <trkpt lat="47.55306" lon="1.7810448">
        <ele>150</ele>
        <time>2022-03-17T10:20:05.000Z</time>
      </trkpt>
      <trkpt lat="47.553047" lon="1.7810532">
        <ele>150</ele>
        <time>2022-03-17T10:20:06.000Z</time>
      </trkpt>
      <trkpt lat="47.553036" lon="1.7810618">
        <ele>150</ele>
        <time>2022-03-17T10:20:07.000Z</time>
      </trkpt>
      <trkpt lat="47.55302" lon="1.7810684">
        <ele>150</ele>
        <time>2022-03-17T10:20:08.000Z</time>
      </trkpt>
      <trkpt lat="47.55301" lon="1.7810767">
        <ele>150</ele>
        <time>2022-03-17T10:20:09.000Z</time>
      </trkpt>
      <trkpt lat="47.552998" lon="1.7810793">
        <ele>150</ele>
        <time>2022-03-17T10:20:10.000Z</time>
      </trkpt>
      <trkpt lat="47.552982" lon="1.7810854">
        <ele>150</ele>
        <time>2022-03-17T10:20:11.000Z</time>
      </trkpt>
      <trkpt lat="47.55297" lon="1.7810991">
        <ele>150</ele>
        <time>2022-03-17T10:20:12.000Z</time>
      </trkpt>
      <trkpt lat="47.55296" lon="1.7811086">
        <ele>150</ele>
        <time>2022-03-17T10:20:13.000Z</time>
      </trkpt>
      <trkpt lat="47.552948" lon="1.7811154">
        <ele>150</ele>
        <time>2022-03-17T10:20:14.000Z</time>
      </trkpt>
      <trkpt lat="47.552933" lon="1.7811255">
        <ele>150</ele>
        <time>2022-03-17T10:20:15.000Z</time>
      </trkpt>
      <trkpt lat="47.55292" lon="1.7811382">
        <ele>150</ele>
        <time>2022-03-17T10:20:16.000Z</time>
      </trkpt>
      <trkpt lat="47.55291" lon="1.7811503">
        <ele>150</ele>
        <time>2022-03-17T10:20:17.000Z</time>
      </trkpt>
      <trkpt lat="47.552895" lon="1.7811546">
        <ele>150</ele>
        <time>2022-03-17T10:20:18.000Z</time>
      </trkpt>
      <trkpt lat="47.55288" lon="1.7811625">
        <ele>150</ele>
        <time>2022-03-17T10:20:19.000Z</time>
      </trkpt>
      <trkpt lat="47.552864" lon="1.7811707">
        <ele>150</ele>
        <time>2022-03-17T10:20:20.000Z</time>
      </trkpt>
      <trkpt lat="47.552853" lon="1.7811803">
        <ele>150</ele>
        <time>2022-03-17T10:20:21.000Z</time>
      </trkpt>
      <trkpt lat="47.55284" lon="1.7811894">
        <ele>150</ele>
        <time>2022-03-17T10:20:22.000Z</time>
      </trkpt>
      <trkpt lat="47.55283" lon="1.7812033">
        <ele>150</ele>
        <time>2022-03-17T10:20:23.000Z</time>
      </trkpt>
      <trkpt lat="47.55282" lon="1.7812178">
        <ele>150</ele>
        <time>2022-03-17T10:20:24.000Z</time>
      </trkpt>
      <trkpt lat="47.552807" lon="1.7812283">
        <ele>150</ele>
        <time>2022-03-17T10:20:25.000Z</time>
      </trkpt>
      <trkpt lat="47.55279" lon="1.7812377">
        <ele>150</ele>
        <time>2022-03-17T10:20:26.000Z</time>
      </trkpt>
      <trkpt lat="47.552776" lon="1.781246">
        <ele>150</ele>
        <time>2022-03-17T10:20:27.000Z</time>
      </trkpt>
      <trkpt lat="47.552765" lon="1.7812558">
        <ele>149</ele>
        <time>2022-03-17T10:20:28.000Z</time>
      </trkpt>
      <trkpt lat="47.55275" lon="1.7812688">
        <ele>149</ele>
        <time>2022-03-17T10:20:29.000Z</time>
      </trkpt>
      <trkpt lat="47.552734" lon="1.781278">
        <ele>149</ele>
        <time>2022-03-17T10:20:30.000Z</time>
      </trkpt>
      <trkpt lat="47.552723" lon="1.7812871">
        <ele>149</ele>
        <time>2022-03-17T10:20:31.000Z</time>
      </trkpt>
      <trkpt lat="47.552708" lon="1.7812928">
        <ele>150</ele>
        <time>2022-03-17T10:20:32.000Z</time>
      </trkpt>
      <trkpt lat="47.552696" lon="1.7813028">
        <ele>150</ele>
        <time>2022-03-17T10:20:33.000Z</time>
      </trkpt>
      <trkpt lat="47.55268" lon="1.781311">
        <ele>149</ele>
        <time>2022-03-17T10:20:34.000Z</time>
      </trkpt>
      <trkpt lat="47.552666" lon="1.7813234">
        <ele>149</ele>
        <time>2022-03-17T10:20:35.000Z</time>
      </trkpt>
      <trkpt lat="47.552654" lon="1.7813338">
        <ele>150</ele>
        <time>2022-03-17T10:20:36.000Z</time>
      </trkpt>
      <trkpt lat="47.552643" lon="1.7813469">
        <ele>150</ele>
        <time>2022-03-17T10:20:37.000Z</time>
      </trkpt>
      <trkpt lat="47.55263" lon="1.7813619">
        <ele>149</ele>
        <time>2022-03-17T10:20:38.000Z</time>
      </trkpt>
      <trkpt lat="47.55262" lon="1.7813723">
        <ele>149</ele>
        <time>2022-03-17T10:20:39.000Z</time>
      </trkpt>
      <trkpt lat="47.55261" lon="1.7813826">
        <ele>149</ele>
        <time>2022-03-17T10:20:40.000Z</time>
      </trkpt>
      <trkpt lat="47.552593" lon="1.7813969">
        <ele>149</ele>
        <time>2022-03-17T10:20:41.000Z</time>
      </trkpt>
      <trkpt lat="47.552578" lon="1.7814064">
        <ele>149</ele>
        <time>2022-03-17T10:20:42.000Z</time>
      </trkpt>
      <trkpt lat="47.552567" lon="1.7814125">
        <ele>149</ele>
        <time>2022-03-17T10:20:43.000Z</time>
      </trkpt>
      <trkpt lat="47.552555" lon="1.7814231">
        <ele>148</ele>
        <time>2022-03-17T10:20:44.000Z</time>
      </trkpt>
      <trkpt lat="47.552544" lon="1.7814369">
        <ele>148</ele>
        <time>2022-03-17T10:20:45.000Z</time>
      </trkpt>
      <trkpt lat="47.55253" lon="1.7814468">
        <ele>148</ele>
        <time>2022-03-17T10:20:46.000Z</time>
      </trkpt>
      <trkpt lat="47.552517" lon="1.7814579">
        <ele>149</ele>
        <time>2022-03-17T10:20:47.000Z</time>
      </trkpt>
      <trkpt lat="47.5525" lon="1.7814726">
        <ele>148</ele>
        <time>2022-03-17T10:20:48.000Z</time>
      </trkpt>
      <trkpt lat="47.55249" lon="1.7814842">
        <ele>149</ele>
        <time>2022-03-17T10:20:49.000Z</time>
      </trkpt>
      <trkpt lat="47.552475" lon="1.7814943">
        <ele>148</ele>
        <time>2022-03-17T10:20:50.000Z</time>
      </trkpt>
      <trkpt lat="47.552464" lon="1.7815076">
        <ele>148</ele>
        <time>2022-03-17T10:20:51.000Z</time>
      </trkpt>
      <trkpt lat="47.552452" lon="1.7815219">
        <ele>148</ele>
        <time>2022-03-17T10:20:52.000Z</time>
      </trkpt>
      <trkpt lat="47.55244" lon="1.7815328">
        <ele>148</ele>
        <time>2022-03-17T10:20:53.000Z</time>
      </trkpt>
      <trkpt lat="47.552425" lon="1.7815439">
        <ele>148</ele>
        <time>2022-03-17T10:20:54.000Z</time>
      </trkpt>
      <trkpt lat="47.552414" lon="1.7815555">
        <ele>148</ele>
        <time>2022-03-17T10:20:55.000Z</time>
      </trkpt>
      <trkpt lat="47.5524" lon="1.7815691">
        <ele>148</ele>
        <time>2022-03-17T10:20:56.000Z</time>
      </trkpt>
      <trkpt lat="47.552387" lon="1.7815814">
        <ele>148</ele>
        <time>2022-03-17T10:20:57.000Z</time>
      </trkpt>
      <trkpt lat="47.552372" lon="1.7815922">
        <ele>148</ele>
        <time>2022-03-17T10:20:58.000Z</time>
      </trkpt>
      <trkpt lat="47.55236" lon="1.7816005">
        <ele>148</ele>
        <time>2022-03-17T10:20:59.000Z</time>
      </trkpt>
      <trkpt lat="47.55235" lon="1.7816149">
        <ele>148</ele>
        <time>2022-03-17T10:21:00.000Z</time>
      </trkpt>
      <trkpt lat="47.552334" lon="1.7816253">
        <ele>148</ele>
        <time>2022-03-17T10:21:01.000Z</time>
      </trkpt>
      <trkpt lat="47.552322" lon="1.7816368">
        <ele>148</ele>
        <time>2022-03-17T10:21:02.000Z</time>
      </trkpt>
      <trkpt lat="47.55231" lon="1.7816488">
        <ele>147</ele>
        <time>2022-03-17T10:21:03.000Z</time>
      </trkpt>
      <trkpt lat="47.552296" lon="1.7816617">
        <ele>147</ele>
        <time>2022-03-17T10:21:04.000Z</time>
      </trkpt>
      <trkpt lat="47.55228" lon="1.7816749">
        <ele>148</ele>
        <time>2022-03-17T10:21:05.000Z</time>
      </trkpt>
      <trkpt lat="47.55227" lon="1.7816846">
        <ele>147</ele>
        <time>2022-03-17T10:21:06.000Z</time>
      </trkpt>
      <trkpt lat="47.552258" lon="1.7816945">
        <ele>148</ele>
        <time>2022-03-17T10:21:07.000Z</time>
      </trkpt>
      <trkpt lat="47.552246" lon="1.7817023">
        <ele>147</ele>
        <time>2022-03-17T10:21:08.000Z</time>
      </trkpt>
      <trkpt lat="47.55223" lon="1.7817128">
        <ele>148</ele>
        <time>2022-03-17T10:21:09.000Z</time>
      </trkpt>
      <trkpt lat="47.55222" lon="1.7817216">
        <ele>147</ele>
        <time>2022-03-17T10:21:10.000Z</time>
      </trkpt>
      <trkpt lat="47.552208" lon="1.7817297">
        <ele>148</ele>
        <time>2022-03-17T10:21:11.000Z</time>
      </trkpt>
      <trkpt lat="47.5522" lon="1.7817398">
        <ele>148</ele>
        <time>2022-03-17T10:21:12.000Z</time>
      </trkpt>
      <trkpt lat="47.55219" lon="1.7817531">
        <ele>148</ele>
        <time>2022-03-17T10:21:13.000Z</time>
      </trkpt>
      <trkpt lat="47.552174" lon="1.7817647">
        <ele>148</ele>
        <time>2022-03-17T10:21:14.000Z</time>
      </trkpt>
      <trkpt lat="47.552162" lon="1.7817755">
        <ele>148</ele>
        <time>2022-03-17T10:21:15.000Z</time>
      </trkpt>
      <trkpt lat="47.552147" lon="1.7817891">
        <ele>148</ele>
        <time>2022-03-17T10:21:16.000Z</time>
      </trkpt>
      <trkpt lat="47.552135" lon="1.7818009">
        <ele>148</ele>
        <time>2022-03-17T10:21:17.000Z</time>
      </trkpt>
      <trkpt lat="47.55212" lon="1.7818135">
        <ele>148</ele>
        <time>2022-03-17T10:21:18.000Z</time>
      </trkpt>
      <trkpt lat="47.552105" lon="1.7818224">
        <ele>148</ele>
        <time>2022-03-17T10:21:19.000Z</time>
      </trkpt>
      <trkpt lat="47.552094" lon="1.7818325">
        <ele>148</ele>
        <time>2022-03-17T10:21:20.000Z</time>
      </trkpt>
      <trkpt lat="47.55208" lon="1.7818438">
        <ele>148</ele>
        <time>2022-03-17T10:21:21.000Z</time>
      </trkpt>
      <trkpt lat="47.552063" lon="1.781858">
        <ele>148</ele>
        <time>2022-03-17T10:21:22.000Z</time>
      </trkpt>
      <trkpt lat="47.552048" lon="1.7818683">
        <ele>148</ele>
        <time>2022-03-17T10:21:23.000Z</time>
      </trkpt>
      <trkpt lat="47.552036" lon="1.7818763">
        <ele>148</ele>
        <time>2022-03-17T10:21:24.000Z</time>
      </trkpt>
      <trkpt lat="47.55202" lon="1.7818879">
        <ele>147</ele>
        <time>2022-03-17T10:21:25.000Z</time>
      </trkpt>
      <trkpt lat="47.55201" lon="1.7818978">
        <ele>147</ele>
        <time>2022-03-17T10:21:26.000Z</time>
      </trkpt>
      <trkpt lat="47.551994" lon="1.78191">
        <ele>147</ele>
        <time>2022-03-17T10:21:27.000Z</time>
      </trkpt>
      <trkpt lat="47.551983" lon="1.7819176">
        <ele>147</ele>
        <time>2022-03-17T10:21:28.000Z</time>
      </trkpt>
      <trkpt lat="47.551968" lon="1.7819252">
        <ele>147</ele>
        <time>2022-03-17T10:21:29.000Z</time>
      </trkpt>
      <trkpt lat="47.551956" lon="1.7819344">
        <ele>146</ele>
        <time>2022-03-17T10:21:30.000Z</time>
      </trkpt>
      <trkpt lat="47.551945" lon="1.7819496">
        <ele>146</ele>
        <time>2022-03-17T10:21:31.000Z</time>
      </trkpt>
      <trkpt lat="47.551933" lon="1.7819607">
        <ele>145</ele>
        <time>2022-03-17T10:21:32.000Z</time>
      </trkpt>
      <trkpt lat="47.551918" lon="1.7819729">
        <ele>146</ele>
        <time>2022-03-17T10:21:33.000Z</time>
      </trkpt>
      <trkpt lat="47.551907" lon="1.7819793">
        <ele>146</ele>
        <time>2022-03-17T10:21:34.000Z</time>
      </trkpt>
      <trkpt lat="47.55189" lon="1.7819904">
        <ele>146</ele>
        <time>2022-03-17T10:21:35.000Z</time>
      </trkpt>
      <trkpt lat="47.55188" lon="1.7820047">
        <ele>146</ele>
        <time>2022-03-17T10:21:36.000Z</time>
      </trkpt>
      <trkpt lat="47.551872" lon="1.7820208">
        <ele>146</ele>
        <time>2022-03-17T10:21:37.000Z</time>
      </trkpt>
      <trkpt lat="47.55186" lon="1.7820292">
        <ele>147</ele>
        <time>2022-03-17T10:21:38.000Z</time>
      </trkpt>
      <trkpt lat="47.55185" lon="1.7820367">
        <ele>147</ele>
        <time>2022-03-17T10:21:39.000Z</time>
      </trkpt>
      <trkpt lat="47.551838" lon="1.7820469">
        <ele>147</ele>
        <time>2022-03-17T10:21:40.000Z</time>
      </trkpt>
      <trkpt lat="47.551826" lon="1.7820573">
        <ele>146</ele>
        <time>2022-03-17T10:21:41.000Z</time>
      </trkpt>
      <trkpt lat="47.551815" lon="1.7820671">
        <ele>147</ele>
        <time>2022-03-17T10:21:42.000Z</time>
      </trkpt>
      <trkpt lat="47.5518" lon="1.7820798">
        <ele>147</ele>
        <time>2022-03-17T10:21:43.000Z</time>
      </trkpt>
      <trkpt lat="47.55179" lon="1.7820957">
        <ele>147</ele>
        <time>2022-03-17T10:21:44.000Z</time>
      </trkpt>
      <trkpt lat="47.551777" lon="1.7821115">
        <ele>147</ele>
        <time>2022-03-17T10:21:45.000Z</time>
      </trkpt>
      <trkpt lat="47.551765" lon="1.7821233">
        <ele>147</ele>
        <time>2022-03-17T10:21:46.000Z</time>
      </trkpt>
      <trkpt lat="47.551754" lon="1.7821302">
        <ele>147</ele>
        <time>2022-03-17T10:21:47.000Z</time>
      </trkpt>
      <trkpt lat="47.55174" lon="1.7821399">
        <ele>148</ele>
        <time>2022-03-17T10:21:48.000Z</time>
      </trkpt>
      <trkpt lat="47.551723" lon="1.7821474">
        <ele>148</ele>
        <time>2022-03-17T10:21:49.000Z</time>
      </trkpt>
      <trkpt lat="47.551712" lon="1.7821568">
        <ele>148</ele>
        <time>2022-03-17T10:21:50.000Z</time>
      </trkpt>
      <trkpt lat="47.5517" lon="1.7821708">
        <ele>148</ele>
        <time>2022-03-17T10:21:51.000Z</time>
      </trkpt>
      <trkpt lat="47.55169" lon="1.7821854">
        <ele>148</ele>
        <time>2022-03-17T10:21:52.000Z</time>
      </trkpt>
      <trkpt lat="47.551674" lon="1.782199">
        <ele>148</ele>
        <time>2022-03-17T10:21:53.000Z</time>
      </trkpt>
      <trkpt lat="47.551662" lon="1.7822118">
        <ele>148</ele>
        <time>2022-03-17T10:21:54.000Z</time>
      </trkpt>
      <trkpt lat="47.551655" lon="1.7822205">
        <ele>148</ele>
        <time>2022-03-17T10:21:55.000Z</time>
      </trkpt>
      <trkpt lat="47.551643" lon="1.7822318">
        <ele>148</ele>
        <time>2022-03-17T10:21:56.000Z</time>
      </trkpt>
      <trkpt lat="47.55163" lon="1.7822422">
        <ele>148</ele>
        <time>2022-03-17T10:21:57.000Z</time>
      </trkpt>
      <trkpt lat="47.551617" lon="1.7822577">
        <ele>148</ele>
        <time>2022-03-17T10:21:58.000Z</time>
      </trkpt>
      <trkpt lat="47.551605" lon="1.7822721">
        <ele>147</ele>
        <time>2022-03-17T10:21:59.000Z</time>
      </trkpt>
      <trkpt lat="47.551594" lon="1.782284">
        <ele>148</ele>
        <time>2022-03-17T10:22:00.000Z</time>
      </trkpt>
      <trkpt lat="47.55158" lon="1.782297">
        <ele>148</ele>
        <time>2022-03-17T10:22:01.000Z</time>
      </trkpt>
      <trkpt lat="47.551567" lon="1.7823044">
        <ele>148</ele>
        <time>2022-03-17T10:22:02.000Z</time>
      </trkpt>
      <trkpt lat="47.551556" lon="1.7823181">
        <ele>148</ele>
        <time>2022-03-17T10:22:03.000Z</time>
      </trkpt>
      <trkpt lat="47.551544" lon="1.7823288">
        <ele>147</ele>
        <time>2022-03-17T10:22:04.000Z</time>
      </trkpt>
      <trkpt lat="47.551533" lon="1.7823377">
        <ele>147</ele>
        <time>2022-03-17T10:22:05.000Z</time>
      </trkpt>
      <trkpt lat="47.55152" lon="1.7823465">
        <ele>147</ele>
        <time>2022-03-17T10:22:06.000Z</time>
      </trkpt>
      <trkpt lat="47.551514" lon="1.7823552">
        <ele>147</ele>
        <time>2022-03-17T10:22:07.000Z</time>
      </trkpt>
      <trkpt lat="47.551502" lon="1.7823671">
        <ele>147</ele>
        <time>2022-03-17T10:22:08.000Z</time>
      </trkpt>
      <trkpt lat="47.55149" lon="1.7823815">
        <ele>147</ele>
        <time>2022-03-17T10:22:09.000Z</time>
      </trkpt>
      <trkpt lat="47.55148" lon="1.782391">
        <ele>147</ele>
        <time>2022-03-17T10:22:10.000Z</time>
      </trkpt>
      <trkpt lat="47.551468" lon="1.7824024">
        <ele>148</ele>
        <time>2022-03-17T10:22:11.000Z</time>
      </trkpt>
      <trkpt lat="47.551456" lon="1.7824116">
        <ele>148</ele>
        <time>2022-03-17T10:22:12.000Z</time>
      </trkpt>
      <trkpt lat="47.55144" lon="1.7824222">
        <ele>148</ele>
        <time>2022-03-17T10:22:13.000Z</time>
      </trkpt>
      <trkpt lat="47.55143" lon="1.7824303">
        <ele>148</ele>
        <time>2022-03-17T10:22:14.000Z</time>
      </trkpt>
      <trkpt lat="47.55142" lon="1.7824426">
        <ele>147</ele>
        <time>2022-03-17T10:22:15.000Z</time>
      </trkpt>
      <trkpt lat="47.551403" lon="1.7824552">
        <ele>148</ele>
        <time>2022-03-17T10:22:16.000Z</time>
      </trkpt>
      <trkpt lat="47.551395" lon="1.7824681">
        <ele>147</ele>
        <time>2022-03-17T10:22:17.000Z</time>
      </trkpt>
      <trkpt lat="47.551384" lon="1.7824805">
        <ele>146</ele>
        <time>2022-03-17T10:22:18.000Z</time>
      </trkpt>
      <trkpt lat="47.551373" lon="1.7824948">
        <ele>146</ele>
        <time>2022-03-17T10:22:19.000Z</time>
      </trkpt>
      <trkpt lat="47.55136" lon="1.7825071">
        <ele>146</ele>
        <time>2022-03-17T10:22:20.000Z</time>
      </trkpt>
      <trkpt lat="47.55135" lon="1.7825211">
        <ele>146</ele>
        <time>2022-03-17T10:22:21.000Z</time>
      </trkpt>
      <trkpt lat="47.551334" lon="1.7825366">
        <ele>146</ele>
        <time>2022-03-17T10:22:22.000Z</time>
      </trkpt>
      <trkpt lat="47.551323" lon="1.7825514">
        <ele>146</ele>
        <time>2022-03-17T10:22:23.000Z</time>
      </trkpt>
      <trkpt lat="47.551315" lon="1.7825676">
        <ele>146</ele>
        <time>2022-03-17T10:22:24.000Z</time>
      </trkpt>
      <trkpt lat="47.551304" lon="1.7825818">
        <ele>146</ele>
        <time>2022-03-17T10:22:25.000Z</time>
      </trkpt>
      <trkpt lat="47.551296" lon="1.7825961">
        <ele>146</ele>
        <time>2022-03-17T10:22:26.000Z</time>
      </trkpt>
      <trkpt lat="47.551285" lon="1.7826091">
        <ele>146</ele>
        <time>2022-03-17T10:22:27.000Z</time>
      </trkpt>
      <trkpt lat="47.55127" lon="1.782626">
        <ele>146</ele>
        <time>2022-03-17T10:22:28.000Z</time>
      </trkpt>
      <trkpt lat="47.551258" lon="1.7826409">
        <ele>146</ele>
        <time>2022-03-17T10:22:29.000Z</time>
      </trkpt>
      <trkpt lat="47.551243" lon="1.7826546">
        <ele>146</ele>
        <time>2022-03-17T10:22:30.000Z</time>
      </trkpt>
      <trkpt lat="47.55123" lon="1.7826667">
        <ele>146</ele>
        <time>2022-03-17T10:22:31.000Z</time>
      </trkpt>
      <trkpt lat="47.551224" lon="1.7826749">
        <ele>146</ele>
        <time>2022-03-17T10:22:32.000Z</time>
      </trkpt>
      <trkpt lat="47.55121" lon="1.7826909">
        <ele>146</ele>
        <time>2022-03-17T10:22:33.000Z</time>
      </trkpt>
      <trkpt lat="47.551197" lon="1.7827067">
        <ele>146</ele>
        <time>2022-03-17T10:22:34.000Z</time>
      </trkpt>
      <trkpt lat="47.55119" lon="1.7827233">
        <ele>146</ele>
        <time>2022-03-17T10:22:35.000Z</time>
      </trkpt>
      <trkpt lat="47.551178" lon="1.7827408">
        <ele>146</ele>
        <time>2022-03-17T10:22:36.000Z</time>
      </trkpt>
      <trkpt lat="47.551167" lon="1.7827535">
        <ele>146</ele>
        <time>2022-03-17T10:22:37.000Z</time>
      </trkpt>
      <trkpt lat="47.551155" lon="1.7827663">
        <ele>147</ele>
        <time>2022-03-17T10:22:38.000Z</time>
      </trkpt>
      <trkpt lat="47.55114" lon="1.7827829">
        <ele>147</ele>
        <time>2022-03-17T10:22:39.000Z</time>
      </trkpt>
      <trkpt lat="47.55113" lon="1.7827995">
        <ele>147</ele>
        <time>2022-03-17T10:22:40.000Z</time>
      </trkpt>
      <trkpt lat="47.551117" lon="1.7828166">
        <ele>147</ele>
        <time>2022-03-17T10:22:41.000Z</time>
      </trkpt>
      <trkpt lat="47.551105" lon="1.7828312">
        <ele>146</ele>
        <time>2022-03-17T10:22:42.000Z</time>
      </trkpt>
      <trkpt lat="47.55109" lon="1.7828431">
        <ele>146</ele>
        <time>2022-03-17T10:22:43.000Z</time>
      </trkpt>
      <trkpt lat="47.551083" lon="1.7828472">
        <ele>146</ele>
        <time>2022-03-17T10:22:44.000Z</time>
      </trkpt>
      <trkpt lat="47.55107" lon="1.7828547">
        <ele>146</ele>
        <time>2022-03-17T10:22:45.000Z</time>
      </trkpt>
      <trkpt lat="47.551056" lon="1.7828636">
        <ele>146</ele>
        <time>2022-03-17T10:22:46.000Z</time>
      </trkpt>
      <trkpt lat="47.55105" lon="1.7828739">
        <ele>146</ele>
        <time>2022-03-17T10:22:47.000Z</time>
      </trkpt>
      <trkpt lat="47.55104" lon="1.7828808">
        <ele>146</ele>
        <time>2022-03-17T10:22:48.000Z</time>
      </trkpt>
      <trkpt lat="47.551033" lon="1.7828891">
        <ele>146</ele>
        <time>2022-03-17T10:22:49.000Z</time>
      </trkpt>
      <trkpt lat="47.55102" lon="1.7829007">
        <ele>146</ele>
        <time>2022-03-17T10:22:50.000Z</time>
      </trkpt>
      <trkpt lat="47.551006" lon="1.782913">
        <ele>147</ele>
        <time>2022-03-17T10:22:51.000Z</time>
      </trkpt>
      <trkpt lat="47.550995" lon="1.7829244">
        <ele>147</ele>
        <time>2022-03-17T10:22:52.000Z</time>
      </trkpt>
      <trkpt lat="47.550983" lon="1.7829357">
        <ele>147</ele>
        <time>2022-03-17T10:22:53.000Z</time>
      </trkpt>
      <trkpt lat="47.550972" lon="1.7829531">
        <ele>147</ele>
        <time>2022-03-17T10:22:54.000Z</time>
      </trkpt>
      <trkpt lat="47.550957" lon="1.7829695">
        <ele>147</ele>
        <time>2022-03-17T10:22:55.000Z</time>
      </trkpt>
      <trkpt lat="47.550945" lon="1.7829773">
        <ele>147</ele>
        <time>2022-03-17T10:22:56.000Z</time>
      </trkpt>
      <trkpt lat="47.550934" lon="1.782991">
        <ele>147</ele>
        <time>2022-03-17T10:22:57.000Z</time>
      </trkpt>
      <trkpt lat="47.550922" lon="1.7830039">
        <ele>146</ele>
        <time>2022-03-17T10:22:58.000Z</time>
      </trkpt>
      <trkpt lat="47.55091" lon="1.7830172">
        <ele>146</ele>
        <time>2022-03-17T10:22:59.000Z</time>
      </trkpt>
      <trkpt lat="47.550896" lon="1.7830311">
        <ele>146</ele>
        <time>2022-03-17T10:23:00.000Z</time>
      </trkpt>
      <trkpt lat="47.550884" lon="1.7830431">
        <ele>146</ele>
        <time>2022-03-17T10:23:01.000Z</time>
      </trkpt>
      <trkpt lat="47.55087" lon="1.7830601">
        <ele>145</ele>
        <time>2022-03-17T10:23:02.000Z</time>
      </trkpt>
      <trkpt lat="47.550858" lon="1.7830708">
        <ele>145</ele>
        <time>2022-03-17T10:23:03.000Z</time>
      </trkpt>
      <trkpt lat="47.550846" lon="1.7830839">
        <ele>145</ele>
        <time>2022-03-17T10:23:04.000Z</time>
      </trkpt>
      <trkpt lat="47.55084" lon="1.7830914">
        <ele>145</ele>
        <time>2022-03-17T10:23:05.000Z</time>
      </trkpt>
      <trkpt lat="47.55083" lon="1.7831031">
        <ele>145</ele>
        <time>2022-03-17T10:23:06.000Z</time>
      </trkpt>
      <trkpt lat="47.550823" lon="1.7831159">
        <ele>145</ele>
        <time>2022-03-17T10:23:07.000Z</time>
      </trkpt>
      <trkpt lat="47.550816" lon="1.7831267">
        <ele>145</ele>
        <time>2022-03-17T10:23:08.000Z</time>
      </trkpt>
      <trkpt lat="47.550804" lon="1.7831348">
        <ele>146</ele>
        <time>2022-03-17T10:23:09.000Z</time>
      </trkpt>
      <trkpt lat="47.550797" lon="1.7831463">
        <ele>146</ele>
        <time>2022-03-17T10:23:10.000Z</time>
      </trkpt>
      <trkpt lat="47.550785" lon="1.7831595">
        <ele>147</ele>
        <time>2022-03-17T10:23:11.000Z</time>
      </trkpt>
      <trkpt lat="47.550777" lon="1.7831713">
        <ele>147</ele>
        <time>2022-03-17T10:23:12.000Z</time>
      </trkpt>
      <trkpt lat="47.550762" lon="1.7831833">
        <ele>146</ele>
        <time>2022-03-17T10:23:13.000Z</time>
      </trkpt>
      <trkpt lat="47.55075" lon="1.7831955">
        <ele>146</ele>
        <time>2022-03-17T10:23:14.000Z</time>
      </trkpt>
      <trkpt lat="47.55074" lon="1.7832025">
        <ele>147</ele>
        <time>2022-03-17T10:23:15.000Z</time>
      </trkpt>
      <trkpt lat="47.550728" lon="1.7832137">
        <ele>146</ele>
        <time>2022-03-17T10:23:16.000Z</time>
      </trkpt>
      <trkpt lat="47.550716" lon="1.7832278">
        <ele>146</ele>
        <time>2022-03-17T10:23:17.000Z</time>
      </trkpt>
      <trkpt lat="47.550705" lon="1.7832414">
        <ele>146</ele>
        <time>2022-03-17T10:23:18.000Z</time>
      </trkpt>
      <trkpt lat="47.550694" lon="1.7832543">
        <ele>147</ele>
        <time>2022-03-17T10:23:19.000Z</time>
      </trkpt>
      <trkpt lat="47.550682" lon="1.78326">
        <ele>147</ele>
        <time>2022-03-17T10:23:20.000Z</time>
      </trkpt>
      <trkpt lat="47.55067" lon="1.7832708">
        <ele>147</ele>
        <time>2022-03-17T10:23:21.000Z</time>
      </trkpt>
      <trkpt lat="47.55066" lon="1.7832801">
        <ele>147</ele>
        <time>2022-03-17T10:23:22.000Z</time>
      </trkpt>
      <trkpt lat="47.550648" lon="1.7832934">
        <ele>148</ele>
        <time>2022-03-17T10:23:23.000Z</time>
      </trkpt>
      <trkpt lat="47.550636" lon="1.783306">
        <ele>147</ele>
        <time>2022-03-17T10:23:24.000Z</time>
      </trkpt>
      <trkpt lat="47.55062" lon="1.7833183">
        <ele>147</ele>
        <time>2022-03-17T10:23:25.000Z</time>
      </trkpt>
      <trkpt lat="47.55061" lon="1.783323">
        <ele>147</ele>
        <time>2022-03-17T10:23:26.000Z</time>
      </trkpt>
      <trkpt lat="47.5506" lon="1.7833365">
        <ele>148</ele>
        <time>2022-03-17T10:23:27.000Z</time>
      </trkpt>
      <trkpt lat="47.550587" lon="1.7833496">
        <ele>147</ele>
        <time>2022-03-17T10:23:28.000Z</time>
      </trkpt>
      <trkpt lat="47.550575" lon="1.7833642">
        <ele>147</ele>
        <time>2022-03-17T10:23:29.000Z</time>
      </trkpt>
      <trkpt lat="47.55056" lon="1.7833766">
        <ele>147</ele>
        <time>2022-03-17T10:23:30.000Z</time>
      </trkpt>
      <trkpt lat="47.55055" lon="1.7833838">
        <ele>147</ele>
        <time>2022-03-17T10:23:31.000Z</time>
      </trkpt>
      <trkpt lat="47.550537" lon="1.7833908">
        <ele>147</ele>
        <time>2022-03-17T10:23:32.000Z</time>
      </trkpt>
      <trkpt lat="47.550526" lon="1.783398">
        <ele>147</ele>
        <time>2022-03-17T10:23:33.000Z</time>
      </trkpt>
      <trkpt lat="47.55051" lon="1.7834054">
        <ele>146</ele>
        <time>2022-03-17T10:23:34.000Z</time>
      </trkpt>
      <trkpt lat="47.550507" lon="1.7834105">
        <ele>146</ele>
        <time>2022-03-17T10:23:35.000Z</time>
      </trkpt>
      <trkpt lat="47.550495" lon="1.7834189">
        <ele>145</ele>
        <time>2022-03-17T10:23:36.000Z</time>
      </trkpt>
      <trkpt lat="47.550484" lon="1.7834281">
        <ele>145</ele>
        <time>2022-03-17T10:23:37.000Z</time>
      </trkpt>
      <trkpt lat="47.55047" lon="1.7834344">
        <ele>145</ele>
        <time>2022-03-17T10:23:38.000Z</time>
      </trkpt>
      <trkpt lat="47.55046" lon="1.7834451">
        <ele>145</ele>
        <time>2022-03-17T10:23:39.000Z</time>
      </trkpt>
      <trkpt lat="47.55045" lon="1.783456">
        <ele>146</ele>
        <time>2022-03-17T10:23:40.000Z</time>
      </trkpt>
      <trkpt lat="47.550434" lon="1.7834669">
        <ele>146</ele>
        <time>2022-03-17T10:23:41.000Z</time>
      </trkpt>
      <trkpt lat="47.550423" lon="1.7834786">
        <ele>146</ele>
        <time>2022-03-17T10:23:42.000Z</time>
      </trkpt>
      <trkpt lat="47.55041" lon="1.783488">
        <ele>146</ele>
        <time>2022-03-17T10:23:43.000Z</time>
      </trkpt>
      <trkpt lat="47.5504" lon="1.783495">
        <ele>147</ele>
        <time>2022-03-17T10:23:44.000Z</time>
      </trkpt>
      <trkpt lat="47.55039" lon="1.7834966">
        <ele>147</ele>
        <time>2022-03-17T10:23:45.000Z</time>
      </trkpt>
      <trkpt lat="47.550377" lon="1.7835039">
        <ele>146</ele>
        <time>2022-03-17T10:23:46.000Z</time>
      </trkpt>
      <trkpt lat="47.55036" lon="1.7835113">
        <ele>146</ele>
        <time>2022-03-17T10:23:47.000Z</time>
      </trkpt>
      <trkpt lat="47.55035" lon="1.7835221">
        <ele>146</ele>
        <time>2022-03-17T10:23:48.000Z</time>
      </trkpt>
      <trkpt lat="47.55034" lon="1.783529">
        <ele>145</ele>
        <time>2022-03-17T10:23:49.000Z</time>
      </trkpt>
      <trkpt lat="47.550327" lon="1.783537">
        <ele>145</ele>
        <time>2022-03-17T10:23:50.000Z</time>
      </trkpt>
      <trkpt lat="47.550316" lon="1.7835478">
        <ele>144</ele>
        <time>2022-03-17T10:23:51.000Z</time>
      </trkpt>
      <trkpt lat="47.55031" lon="1.7835532">
        <ele>144</ele>
        <time>2022-03-17T10:23:52.000Z</time>
      </trkpt>
      <trkpt lat="47.550293" lon="1.7835579">
        <ele>144</ele>
        <time>2022-03-17T10:23:53.000Z</time>
      </trkpt>
      <trkpt lat="47.55028" lon="1.7835689">
        <ele>144</ele>
        <time>2022-03-17T10:23:54.000Z</time>
      </trkpt>
      <trkpt lat="47.55027" lon="1.7835786">
        <ele>145</ele>
        <time>2022-03-17T10:23:55.000Z</time>
      </trkpt>
      <trkpt lat="47.550255" lon="1.7835867">
        <ele>145</ele>
        <time>2022-03-17T10:23:56.000Z</time>
      </trkpt>
      <trkpt lat="47.55024" lon="1.7835947">
        <ele>145</ele>
        <time>2022-03-17T10:23:57.000Z</time>
      </trkpt>
      <trkpt lat="47.550224" lon="1.7835966">
        <ele>145</ele>
        <time>2022-03-17T10:23:58.000Z</time>
      </trkpt>
      <trkpt lat="47.550213" lon="1.7835983">
        <ele>146</ele>
        <time>2022-03-17T10:23:59.000Z</time>
      </trkpt>
      <trkpt lat="47.5502" lon="1.7835981">
        <ele>146</ele>
        <time>2022-03-17T10:24:00.000Z</time>
      </trkpt>
      <trkpt lat="47.550198" lon="1.7835988">
        <ele>146</ele>
        <time>2022-03-17T10:24:01.000Z</time>
      </trkpt>
      <trkpt lat="47.550194" lon="1.7836075">
        <ele>146</ele>
        <time>2022-03-17T10:24:02.000Z</time>
      </trkpt>
      <trkpt lat="47.550182" lon="1.7836132">
        <ele>146</ele>
        <time>2022-03-17T10:24:03.000Z</time>
      </trkpt>
      <trkpt lat="47.550175" lon="1.7836219">
        <ele>146</ele>
        <time>2022-03-17T10:24:04.000Z</time>
      </trkpt>
      <trkpt lat="47.55017" lon="1.783633">
        <ele>146</ele>
        <time>2022-03-17T10:24:05.000Z</time>
      </trkpt>
      <trkpt lat="47.55016" lon="1.7836399">
        <ele>146</ele>
        <time>2022-03-17T10:24:06.000Z</time>
      </trkpt>
      <trkpt lat="47.550148" lon="1.7836505">
        <ele>146</ele>
        <time>2022-03-17T10:24:07.000Z</time>
      </trkpt>
      <trkpt lat="47.550137" lon="1.7836602">
        <ele>146</ele>
        <time>2022-03-17T10:24:08.000Z</time>
      </trkpt>
      <trkpt lat="47.55013" lon="1.7836705">
        <ele>146</ele>
        <time>2022-03-17T10:24:09.000Z</time>
      </trkpt>
      <trkpt lat="47.550117" lon="1.7836804">
        <ele>146</ele>
        <time>2022-03-17T10:24:10.000Z</time>
      </trkpt>
      <trkpt lat="47.55011" lon="1.7836889">
        <ele>146</ele>
        <time>2022-03-17T10:24:11.000Z</time>
      </trkpt>
      <trkpt lat="47.5501" lon="1.7836959">
        <ele>146</ele>
        <time>2022-03-17T10:24:12.000Z</time>
      </trkpt>
      <trkpt lat="47.550087" lon="1.7837021">
        <ele>146</ele>
        <time>2022-03-17T10:24:13.000Z</time>
      </trkpt>
      <trkpt lat="47.55008" lon="1.783712">
        <ele>145</ele>
        <time>2022-03-17T10:24:14.000Z</time>
      </trkpt>
      <trkpt lat="47.55007" lon="1.7837211">
        <ele>145</ele>
        <time>2022-03-17T10:24:15.000Z</time>
      </trkpt>
      <trkpt lat="47.55006" lon="1.7837236">
        <ele>145</ele>
        <time>2022-03-17T10:24:16.000Z</time>
      </trkpt>
      <trkpt lat="47.55005" lon="1.7837296">
        <ele>144</ele>
        <time>2022-03-17T10:24:17.000Z</time>
      </trkpt>
      <trkpt lat="47.55004" lon="1.7837393">
        <ele>143</ele>
        <time>2022-03-17T10:24:18.000Z</time>
      </trkpt>
      <trkpt lat="47.550026" lon="1.7837431">
        <ele>143</ele>
        <time>2022-03-17T10:24:19.000Z</time>
      </trkpt>
      <trkpt lat="47.55001" lon="1.7837504">
        <ele>143</ele>
        <time>2022-03-17T10:24:20.000Z</time>
      </trkpt>
      <trkpt lat="47.549995" lon="1.7837555">
        <ele>142</ele>
        <time>2022-03-17T10:24:21.000Z</time>
      </trkpt>
      <trkpt lat="47.549984" lon="1.7837628">
        <ele>142</ele>
        <time>2022-03-17T10:24:22.000Z</time>
      </trkpt>
      <trkpt lat="47.549976" lon="1.7837716">
        <ele>142</ele>
        <time>2022-03-17T10:24:23.000Z</time>
      </trkpt>
      <trkpt lat="47.549965" lon="1.7837799">
        <ele>142</ele>
        <time>2022-03-17T10:24:24.000Z</time>
      </trkpt>
      <trkpt lat="47.549953" lon="1.783788">
        <ele>142</ele>
        <time>2022-03-17T10:24:25.000Z</time>
      </trkpt>
      <trkpt lat="47.549946" lon="1.783797">
        <ele>142</ele>
        <time>2022-03-17T10:24:26.000Z</time>
      </trkpt>
      <trkpt lat="47.549934" lon="1.7838076">
        <ele>141</ele>
        <time>2022-03-17T10:24:27.000Z</time>
      </trkpt>
      <trkpt lat="47.54993" lon="1.7838176">
        <ele>141</ele>
        <time>2022-03-17T10:24:28.000Z</time>
      </trkpt>
      <trkpt lat="47.549923" lon="1.783829">
        <ele>141</ele>
        <time>2022-03-17T10:24:29.000Z</time>
      </trkpt>
      <trkpt lat="47.54991" lon="1.783838">
        <ele>141</ele>
        <time>2022-03-17T10:24:30.000Z</time>
      </trkpt>
      <trkpt lat="47.5499" lon="1.783845">
        <ele>141</ele>
        <time>2022-03-17T10:24:31.000Z</time>
      </trkpt>
      <trkpt lat="47.549892" lon="1.783854">
        <ele>141</ele>
        <time>2022-03-17T10:24:32.000Z</time>
      </trkpt>
      <trkpt lat="47.54988" lon="1.7838619">
        <ele>140</ele>
        <time>2022-03-17T10:24:33.000Z</time>
      </trkpt>
      <trkpt lat="47.54987" lon="1.7838696">
        <ele>140</ele>
        <time>2022-03-17T10:24:34.000Z</time>
      </trkpt>
      <trkpt lat="47.54986" lon="1.7838765">
        <ele>140</ele>
        <time>2022-03-17T10:24:35.000Z</time>
      </trkpt>
      <trkpt lat="47.549847" lon="1.7838858">
        <ele>140</ele>
        <time>2022-03-17T10:24:36.000Z</time>
      </trkpt>
      <trkpt lat="47.549835" lon="1.7838969">
        <ele>140</ele>
        <time>2022-03-17T10:24:37.000Z</time>
      </trkpt>
      <trkpt lat="47.549824" lon="1.783905">
        <ele>140</ele>
        <time>2022-03-17T10:24:38.000Z</time>
      </trkpt>
      <trkpt lat="47.549812" lon="1.783915">
        <ele>141</ele>
        <time>2022-03-17T10:24:39.000Z</time>
      </trkpt>
      <trkpt lat="47.549797" lon="1.7839255">
        <ele>141</ele>
        <time>2022-03-17T10:24:40.000Z</time>
      </trkpt>
      <trkpt lat="47.54978" lon="1.7839388">
        <ele>141</ele>
        <time>2022-03-17T10:24:41.000Z</time>
      </trkpt>
      <trkpt lat="47.54977" lon="1.7839522">
        <ele>141</ele>
        <time>2022-03-17T10:24:42.000Z</time>
      </trkpt>
      <trkpt lat="47.549755" lon="1.7839656">
        <ele>141</ele>
        <time>2022-03-17T10:24:43.000Z</time>
      </trkpt>
      <trkpt lat="47.54974" lon="1.7839788">
        <ele>141</ele>
        <time>2022-03-17T10:24:44.000Z</time>
      </trkpt>
      <trkpt lat="47.54973" lon="1.7839901">
        <ele>141</ele>
        <time>2022-03-17T10:24:45.000Z</time>
      </trkpt>
      <trkpt lat="47.54972" lon="1.7839996">
        <ele>140</ele>
        <time>2022-03-17T10:24:46.000Z</time>
      </trkpt>
      <trkpt lat="47.549706" lon="1.78401">
        <ele>140</ele>
        <time>2022-03-17T10:24:47.000Z</time>
      </trkpt>
      <trkpt lat="47.549694" lon="1.7840186">
        <ele>141</ele>
        <time>2022-03-17T10:24:48.000Z</time>
      </trkpt>
      <trkpt lat="47.549683" lon="1.7840291">
        <ele>141</ele>
        <time>2022-03-17T10:24:49.000Z</time>
      </trkpt>
      <trkpt lat="47.54967" lon="1.7840418">
        <ele>142</ele>
        <time>2022-03-17T10:24:50.000Z</time>
      </trkpt>
      <trkpt lat="47.54966" lon="1.7840549">
        <ele>142</ele>
        <time>2022-03-17T10:24:51.000Z</time>
      </trkpt>
      <trkpt lat="47.549644" lon="1.7840631">
        <ele>142</ele>
        <time>2022-03-17T10:24:52.000Z</time>
      </trkpt>
      <trkpt lat="47.549633" lon="1.7840734">
        <ele>142</ele>
        <time>2022-03-17T10:24:53.000Z</time>
      </trkpt>
      <trkpt lat="47.54962" lon="1.7840793">
        <ele>142</ele>
        <time>2022-03-17T10:24:54.000Z</time>
      </trkpt>
      <trkpt lat="47.549606" lon="1.7840848">
        <ele>142</ele>
        <time>2022-03-17T10:24:55.000Z</time>
      </trkpt>
      <trkpt lat="47.54959" lon="1.7840878">
        <ele>143</ele>
        <time>2022-03-17T10:24:56.000Z</time>
      </trkpt>
      <trkpt lat="47.54958" lon="1.7840973">
        <ele>143</ele>
        <time>2022-03-17T10:24:57.000Z</time>
      </trkpt>
      <trkpt lat="47.54957" lon="1.7841048">
        <ele>143</ele>
        <time>2022-03-17T10:24:58.000Z</time>
      </trkpt>
      <trkpt lat="47.549557" lon="1.7841141">
        <ele>144</ele>
        <time>2022-03-17T10:24:59.000Z</time>
      </trkpt>
      <trkpt lat="47.549545" lon="1.7841294">
        <ele>144</ele>
        <time>2022-03-17T10:25:00.000Z</time>
      </trkpt>
      <trkpt lat="47.549534" lon="1.7841406">
        <ele>144</ele>
        <time>2022-03-17T10:25:01.000Z</time>
      </trkpt>
      <trkpt lat="47.54952" lon="1.7841539">
        <ele>145</ele>
        <time>2022-03-17T10:25:02.000Z</time>
      </trkpt>
      <trkpt lat="47.549507" lon="1.7841638">
        <ele>145</ele>
        <time>2022-03-17T10:25:03.000Z</time>
      </trkpt>
      <trkpt lat="47.54949" lon="1.7841719">
        <ele>145</ele>
        <time>2022-03-17T10:25:04.000Z</time>
      </trkpt>
      <trkpt lat="47.54948" lon="1.7841824">
        <ele>144</ele>
        <time>2022-03-17T10:25:05.000Z</time>
      </trkpt>
      <trkpt lat="47.54947" lon="1.7841946">
        <ele>144</ele>
        <time>2022-03-17T10:25:06.000Z</time>
      </trkpt>
      <trkpt lat="47.549458" lon="1.7842045">
        <ele>144</ele>
        <time>2022-03-17T10:25:07.000Z</time>
      </trkpt>
      <trkpt lat="47.549446" lon="1.7842155">
        <ele>144</ele>
        <time>2022-03-17T10:25:08.000Z</time>
      </trkpt>
      <trkpt lat="47.549435" lon="1.7842206">
        <ele>144</ele>
        <time>2022-03-17T10:25:09.000Z</time>
      </trkpt>
      <trkpt lat="47.549423" lon="1.7842299">
        <ele>144</ele>
        <time>2022-03-17T10:25:10.000Z</time>
      </trkpt>
      <trkpt lat="47.549408" lon="1.7842369">
        <ele>144</ele>
        <time>2022-03-17T10:25:11.000Z</time>
      </trkpt>
      <trkpt lat="47.549397" lon="1.784247">
        <ele>143</ele>
        <time>2022-03-17T10:25:12.000Z</time>
      </trkpt>
      <trkpt lat="47.549385" lon="1.7842532">
        <ele>144</ele>
        <time>2022-03-17T10:25:13.000Z</time>
      </trkpt>
      <trkpt lat="47.549374" lon="1.7842617">
        <ele>144</ele>
        <time>2022-03-17T10:25:14.000Z</time>
      </trkpt>
      <trkpt lat="47.549362" lon="1.7842698">
        <ele>144</ele>
        <time>2022-03-17T10:25:15.000Z</time>
      </trkpt>
      <trkpt lat="47.54935" lon="1.7842797">
        <ele>145</ele>
        <time>2022-03-17T10:25:16.000Z</time>
      </trkpt>
      <trkpt lat="47.549335" lon="1.7842894">
        <ele>145</ele>
        <time>2022-03-17T10:25:17.000Z</time>
      </trkpt>
      <trkpt lat="47.549324" lon="1.7843014">
        <ele>146</ele>
        <time>2022-03-17T10:25:18.000Z</time>
      </trkpt>
      <trkpt lat="47.549313" lon="1.784312">
        <ele>146</ele>
        <time>2022-03-17T10:25:19.000Z</time>
      </trkpt>
      <trkpt lat="47.5493" lon="1.7843223">
        <ele>146</ele>
        <time>2022-03-17T10:25:20.000Z</time>
      </trkpt>
      <trkpt lat="47.54929" lon="1.784332">
        <ele>146</ele>
        <time>2022-03-17T10:25:21.000Z</time>
      </trkpt>
      <trkpt lat="47.549274" lon="1.78434">
        <ele>146</ele>
        <time>2022-03-17T10:25:22.000Z</time>
      </trkpt>
      <trkpt lat="47.549267" lon="1.7843444">
        <ele>146</ele>
        <time>2022-03-17T10:25:23.000Z</time>
      </trkpt>
      <trkpt lat="47.549255" lon="1.784355">
        <ele>146</ele>
        <time>2022-03-17T10:25:24.000Z</time>
      </trkpt>
      <trkpt lat="47.549244" lon="1.7843663">
        <ele>146</ele>
        <time>2022-03-17T10:25:25.000Z</time>
      </trkpt>
      <trkpt lat="47.549236" lon="1.7843765">
        <ele>146</ele>
        <time>2022-03-17T10:25:26.000Z</time>
      </trkpt>
      <trkpt lat="47.54922" lon="1.7843819">
        <ele>146</ele>
        <time>2022-03-17T10:25:27.000Z</time>
      </trkpt>
      <trkpt lat="47.54921" lon="1.7843891">
        <ele>146</ele>
        <time>2022-03-17T10:25:28.000Z</time>
      </trkpt>
      <trkpt lat="47.5492" lon="1.7843981">
        <ele>146</ele>
        <time>2022-03-17T10:25:29.000Z</time>
      </trkpt>
      <trkpt lat="47.549187" lon="1.7844076">
        <ele>146</ele>
        <time>2022-03-17T10:25:30.000Z</time>
      </trkpt>
      <trkpt lat="47.549175" lon="1.7844148">
        <ele>145</ele>
        <time>2022-03-17T10:25:31.000Z</time>
      </trkpt>
      <trkpt lat="47.54916" lon="1.7844282">
        <ele>146</ele>
        <time>2022-03-17T10:25:32.000Z</time>
      </trkpt>
      <trkpt lat="47.549152" lon="1.78444">
        <ele>145</ele>
        <time>2022-03-17T10:25:33.000Z</time>
      </trkpt>
      <trkpt lat="47.549137" lon="1.7844489">
        <ele>145</ele>
        <time>2022-03-17T10:25:34.000Z</time>
      </trkpt>
      <trkpt lat="47.549126" lon="1.7844589">
        <ele>146</ele>
        <time>2022-03-17T10:25:35.000Z</time>
      </trkpt>
      <trkpt lat="47.54911" lon="1.7844663">
        <ele>146</ele>
        <time>2022-03-17T10:25:36.000Z</time>
      </trkpt>
      <trkpt lat="47.5491" lon="1.784476">
        <ele>146</ele>
        <time>2022-03-17T10:25:37.000Z</time>
      </trkpt>
      <trkpt lat="47.54909" lon="1.7844883">
        <ele>145</ele>
        <time>2022-03-17T10:25:38.000Z</time>
      </trkpt>
      <trkpt lat="47.549084" lon="1.7845006">
        <ele>145</ele>
        <time>2022-03-17T10:25:39.000Z</time>
      </trkpt>
      <trkpt lat="47.54907" lon="1.7845124">
        <ele>145</ele>
        <time>2022-03-17T10:25:40.000Z</time>
      </trkpt>
      <trkpt lat="47.54906" lon="1.7845224">
        <ele>146</ele>
        <time>2022-03-17T10:25:41.000Z</time>
      </trkpt>
      <trkpt lat="47.549053" lon="1.7845355">
        <ele>146</ele>
        <time>2022-03-17T10:25:42.000Z</time>
      </trkpt>
      <trkpt lat="47.549046" lon="1.7845482">
        <ele>146</ele>
        <time>2022-03-17T10:25:43.000Z</time>
      </trkpt>
      <trkpt lat="47.549034" lon="1.7845592">
        <ele>146</ele>
        <time>2022-03-17T10:25:44.000Z</time>
      </trkpt>
      <trkpt lat="47.549023" lon="1.7845699">
        <ele>146</ele>
        <time>2022-03-17T10:25:45.000Z</time>
      </trkpt>
      <trkpt lat="47.549015" lon="1.7845819">
        <ele>146</ele>
        <time>2022-03-17T10:25:46.000Z</time>
      </trkpt>
      <trkpt lat="47.549004" lon="1.7845926">
        <ele>146</ele>
        <time>2022-03-17T10:25:47.000Z</time>
      </trkpt>
      <trkpt lat="47.54899" lon="1.7846018">
        <ele>147</ele>
        <time>2022-03-17T10:25:48.000Z</time>
      </trkpt>
      <trkpt lat="47.548977" lon="1.7846047">
        <ele>147</ele>
        <time>2022-03-17T10:25:49.000Z</time>
      </trkpt>
      <trkpt lat="47.54897" lon="1.7846138">
        <ele>147</ele>
        <time>2022-03-17T10:25:50.000Z</time>
      </trkpt>
      <trkpt lat="47.548958" lon="1.7846243">
        <ele>147</ele>
        <time>2022-03-17T10:25:51.000Z</time>
      </trkpt>
      <trkpt lat="47.54895" lon="1.7846361">
        <ele>146</ele>
        <time>2022-03-17T10:25:52.000Z</time>
      </trkpt>
      <trkpt lat="47.54894" lon="1.7846491">
        <ele>146</ele>
        <time>2022-03-17T10:25:53.000Z</time>
      </trkpt>
      <trkpt lat="47.54893" lon="1.784662">
        <ele>146</ele>
        <time>2022-03-17T10:25:54.000Z</time>
      </trkpt>
      <trkpt lat="47.548923" lon="1.7846746">
        <ele>146</ele>
        <time>2022-03-17T10:25:55.000Z</time>
      </trkpt>
      <trkpt lat="47.548916" lon="1.7846866">
        <ele>147</ele>
        <time>2022-03-17T10:25:56.000Z</time>
      </trkpt>
      <trkpt lat="47.548904" lon="1.7847009">
        <ele>147</ele>
        <time>2022-03-17T10:25:57.000Z</time>
      </trkpt>
      <trkpt lat="47.548897" lon="1.784715">
        <ele>147</ele>
        <time>2022-03-17T10:25:58.000Z</time>
      </trkpt>
      <trkpt lat="47.548885" lon="1.7847244">
        <ele>147</ele>
        <time>2022-03-17T10:25:59.000Z</time>
      </trkpt>
      <trkpt lat="47.548878" lon="1.7847388">
        <ele>147</ele>
        <time>2022-03-17T10:26:00.000Z</time>
      </trkpt>
      <trkpt lat="47.548866" lon="1.7847482">
        <ele>147</ele>
        <time>2022-03-17T10:26:01.000Z</time>
      </trkpt>
      <trkpt lat="47.548855" lon="1.7847558">
        <ele>147</ele>
        <time>2022-03-17T10:26:02.000Z</time>
      </trkpt>
      <trkpt lat="47.548847" lon="1.784765">
        <ele>147</ele>
        <time>2022-03-17T10:26:03.000Z</time>
      </trkpt>
      <trkpt lat="47.548832" lon="1.7847747">
        <ele>147</ele>
        <time>2022-03-17T10:26:04.000Z</time>
      </trkpt>
      <trkpt lat="47.54882" lon="1.7847865">
        <ele>147</ele>
        <time>2022-03-17T10:26:05.000Z</time>
      </trkpt>
      <trkpt lat="47.54881" lon="1.7847972">
        <ele>147</ele>
        <time>2022-03-17T10:26:06.000Z</time>
      </trkpt>
      <trkpt lat="47.5488" lon="1.7848089">
        <ele>147</ele>
        <time>2022-03-17T10:26:07.000Z</time>
      </trkpt>
      <trkpt lat="47.548794" lon="1.7848197">
        <ele>146</ele>
        <time>2022-03-17T10:26:08.000Z</time>
      </trkpt>
      <trkpt lat="47.548786" lon="1.7848289">
        <ele>146</ele>
        <time>2022-03-17T10:26:09.000Z</time>
      </trkpt>
      <trkpt lat="47.54878" lon="1.7848355">
        <ele>146</ele>
        <time>2022-03-17T10:26:10.000Z</time>
      </trkpt>
      <trkpt lat="47.54877" lon="1.7848432">
        <ele>145</ele>
        <time>2022-03-17T10:26:11.000Z</time>
      </trkpt>
      <trkpt lat="47.54876" lon="1.7848475">
        <ele>145</ele>
        <time>2022-03-17T10:26:12.000Z</time>
      </trkpt>
      <trkpt lat="47.548756" lon="1.7848547">
        <ele>145</ele>
        <time>2022-03-17T10:26:13.000Z</time>
      </trkpt>
      <trkpt lat="47.548748" lon="1.7848598">
        <ele>145</ele>
        <time>2022-03-17T10:26:14.000Z</time>
      </trkpt>
      <trkpt lat="47.54874" lon="1.784868">
        <ele>146</ele>
        <time>2022-03-17T10:26:15.000Z</time>
      </trkpt>
      <trkpt lat="47.548733" lon="1.7848729">
        <ele>146</ele>
        <time>2022-03-17T10:26:16.000Z</time>
      </trkpt>
      <trkpt lat="47.54873" lon="1.7848666">
        <ele>146</ele>
        <time>2022-03-17T10:26:17.000Z</time>
      </trkpt>
      <trkpt lat="47.548725" lon="1.784864">
        <ele>147</ele>
        <time>2022-03-17T10:26:18.000Z</time>
      </trkpt>
      <trkpt lat="47.548717" lon="1.7848637">
        <ele>147</ele>
        <time>2022-03-17T10:26:19.000Z</time>
      </trkpt>
      <trkpt lat="47.548717" lon="1.7848704">
        <ele>147</ele>
        <time>2022-03-17T10:26:20.000Z</time>
      </trkpt>
      <trkpt lat="47.548717" lon="1.7848798">
        <ele>147</ele>
        <time>2022-03-17T10:26:21.000Z</time>
      </trkpt>
      <trkpt lat="47.54871" lon="1.7848897">
        <ele>147</ele>
        <time>2022-03-17T10:26:22.000Z</time>
      </trkpt>
      <trkpt lat="47.548695" lon="1.7848928">
        <ele>147</ele>
        <time>2022-03-17T10:26:23.000Z</time>
      </trkpt>
      <trkpt lat="47.548687" lon="1.7849">
        <ele>148</ele>
        <time>2022-03-17T10:26:24.000Z</time>
      </trkpt>
      <trkpt lat="47.54868" lon="1.7849064">
        <ele>148</ele>
        <time>2022-03-17T10:26:25.000Z</time>
      </trkpt>
      <trkpt lat="47.54867" lon="1.7849156">
        <ele>148</ele>
        <time>2022-03-17T10:26:26.000Z</time>
      </trkpt>
      <trkpt lat="47.548668" lon="1.7849278">
        <ele>148</ele>
        <time>2022-03-17T10:26:27.000Z</time>
      </trkpt>
      <trkpt lat="47.54866" lon="1.7849382">
        <ele>147</ele>
        <time>2022-03-17T10:26:28.000Z</time>
      </trkpt>
      <trkpt lat="47.548653" lon="1.7849463">
        <ele>148</ele>
        <time>2022-03-17T10:26:29.000Z</time>
      </trkpt>
      <trkpt lat="47.54864" lon="1.7849537">
        <ele>147</ele>
        <time>2022-03-17T10:26:30.000Z</time>
      </trkpt>
      <trkpt lat="47.548634" lon="1.7849619">
        <ele>147</ele>
        <time>2022-03-17T10:26:31.000Z</time>
      </trkpt>
      <trkpt lat="47.548626" lon="1.7849673">
        <ele>147</ele>
        <time>2022-03-17T10:26:32.000Z</time>
      </trkpt>
      <trkpt lat="47.548615" lon="1.7849706">
        <ele>147</ele>
        <time>2022-03-17T10:26:33.000Z</time>
      </trkpt>
      <trkpt lat="47.548607" lon="1.784974">
        <ele>147</ele>
        <time>2022-03-17T10:26:34.000Z</time>
      </trkpt>
      <trkpt lat="47.5486" lon="1.7849728">
        <ele>147</ele>
        <time>2022-03-17T10:26:35.000Z</time>
      </trkpt>
      <trkpt lat="47.5486" lon="1.7849722">
        <ele>146</ele>
        <time>2022-03-17T10:26:36.000Z</time>
      </trkpt>
      <trkpt lat="47.548595" lon="1.7849758">
        <ele>146</ele>
        <time>2022-03-17T10:26:37.000Z</time>
      </trkpt>
      <trkpt lat="47.548588" lon="1.7849798">
        <ele>146</ele>
        <time>2022-03-17T10:26:38.000Z</time>
      </trkpt>
      <trkpt lat="47.548584" lon="1.7849901">
        <ele>146</ele>
        <time>2022-03-17T10:26:39.000Z</time>
      </trkpt>
      <trkpt lat="47.548573" lon="1.7849959">
        <ele>146</ele>
        <time>2022-03-17T10:26:40.000Z</time>
      </trkpt>
      <trkpt lat="47.548565" lon="1.7850052">
        <ele>146</ele>
        <time>2022-03-17T10:26:41.000Z</time>
      </trkpt>
      <trkpt lat="47.548557" lon="1.7850163">
        <ele>146</ele>
        <time>2022-03-17T10:26:42.000Z</time>
      </trkpt>
      <trkpt lat="47.548553" lon="1.7850287">
        <ele>146</ele>
        <time>2022-03-17T10:26:43.000Z</time>
      </trkpt>
      <trkpt lat="47.548546" lon="1.7850394">
        <ele>146</ele>
        <time>2022-03-17T10:26:44.000Z</time>
      </trkpt>
      <trkpt lat="47.54854" lon="1.7850401">
        <ele>146</ele>
        <time>2022-03-17T10:26:45.000Z</time>
      </trkpt>
      <trkpt lat="47.54853" lon="1.7850455">
        <ele>146</ele>
        <time>2022-03-17T10:26:46.000Z</time>
      </trkpt>
      <trkpt lat="47.54852" lon="1.7850537">
        <ele>146</ele>
        <time>2022-03-17T10:26:47.000Z</time>
      </trkpt>
      <trkpt lat="47.54851" lon="1.7850645">
        <ele>146</ele>
        <time>2022-03-17T10:26:48.000Z</time>
      </trkpt>
      <trkpt lat="47.5485" lon="1.7850729">
        <ele>146</ele>
        <time>2022-03-17T10:26:49.000Z</time>
      </trkpt>
      <trkpt lat="47.548492" lon="1.7850802">
        <ele>146</ele>
        <time>2022-03-17T10:26:50.000Z</time>
      </trkpt>
      <trkpt lat="47.54848" lon="1.7850908">
        <ele>147</ele>
        <time>2022-03-17T10:26:51.000Z</time>
      </trkpt>
      <trkpt lat="47.548473" lon="1.7851">
        <ele>148</ele>
        <time>2022-03-17T10:26:52.000Z</time>
      </trkpt>
      <trkpt lat="47.548462" lon="1.7851093">
        <ele>148</ele>
        <time>2022-03-17T10:26:53.000Z</time>
      </trkpt>
      <trkpt lat="47.54845" lon="1.7851148">
        <ele>148</ele>
        <time>2022-03-17T10:26:54.000Z</time>
      </trkpt>
      <trkpt lat="47.54844" lon="1.7851254">
        <ele>148</ele>
        <time>2022-03-17T10:26:55.000Z</time>
      </trkpt>
      <trkpt lat="47.548428" lon="1.7851359">
        <ele>148</ele>
        <time>2022-03-17T10:26:56.000Z</time>
      </trkpt>
      <trkpt lat="47.54842" lon="1.7851505">
        <ele>147</ele>
        <time>2022-03-17T10:26:57.000Z</time>
      </trkpt>
      <trkpt lat="47.54841" lon="1.7851641">
        <ele>147</ele>
        <time>2022-03-17T10:26:58.000Z</time>
      </trkpt>
      <trkpt lat="47.548397" lon="1.7851778">
        <ele>147</ele>
        <time>2022-03-17T10:26:59.000Z</time>
      </trkpt>
      <trkpt lat="47.54839" lon="1.7851887">
        <ele>148</ele>
        <time>2022-03-17T10:27:00.000Z</time>
      </trkpt>
      <trkpt lat="47.548378" lon="1.7851999">
        <ele>148</ele>
        <time>2022-03-17T10:27:01.000Z</time>
      </trkpt>
      <trkpt lat="47.548367" lon="1.7852062">
        <ele>148</ele>
        <time>2022-03-17T10:27:02.000Z</time>
      </trkpt>
      <trkpt lat="47.54836" lon="1.7852172">
        <ele>148</ele>
        <time>2022-03-17T10:27:03.000Z</time>
      </trkpt>
      <trkpt lat="47.54835" lon="1.7852278">
        <ele>148</ele>
        <time>2022-03-17T10:27:04.000Z</time>
      </trkpt>
      <trkpt lat="47.54834" lon="1.7852334">
        <ele>148</ele>
        <time>2022-03-17T10:27:05.000Z</time>
      </trkpt>
      <trkpt lat="47.548325" lon="1.785236">
        <ele>148</ele>
        <time>2022-03-17T10:27:06.000Z</time>
      </trkpt>
      <trkpt lat="47.548313" lon="1.785239">
        <ele>148</ele>
        <time>2022-03-17T10:27:07.000Z</time>
      </trkpt>
      <trkpt lat="47.548306" lon="1.7852496">
        <ele>148</ele>
        <time>2022-03-17T10:27:08.000Z</time>
      </trkpt>
      <trkpt lat="47.548294" lon="1.7852571">
        <ele>148</ele>
        <time>2022-03-17T10:27:09.000Z</time>
      </trkpt>
      <trkpt lat="47.548283" lon="1.7852666">
        <ele>148</ele>
        <time>2022-03-17T10:27:10.000Z</time>
      </trkpt>
      <trkpt lat="47.548275" lon="1.7852732">
        <ele>148</ele>
        <time>2022-03-17T10:27:11.000Z</time>
      </trkpt>
      <trkpt lat="47.548264" lon="1.7852832">
        <ele>148</ele>
        <time>2022-03-17T10:27:12.000Z</time>
      </trkpt>
      <trkpt lat="47.548256" lon="1.7852951">
        <ele>148</ele>
        <time>2022-03-17T10:27:13.000Z</time>
      </trkpt>
      <trkpt lat="47.54825" lon="1.7853112">
        <ele>148</ele>
        <time>2022-03-17T10:27:14.000Z</time>
      </trkpt>
      <trkpt lat="47.548237" lon="1.7853218">
        <ele>148</ele>
        <time>2022-03-17T10:27:15.000Z</time>
      </trkpt>
      <trkpt lat="47.54823" lon="1.7853299">
        <ele>148</ele>
        <time>2022-03-17T10:27:16.000Z</time>
      </trkpt>
      <trkpt lat="47.54822" lon="1.7853365">
        <ele>147</ele>
        <time>2022-03-17T10:27:17.000Z</time>
      </trkpt>
      <trkpt lat="47.54821" lon="1.785342">
        <ele>147</ele>
        <time>2022-03-17T10:27:18.000Z</time>
      </trkpt>
      <trkpt lat="47.5482" lon="1.7853553">
        <ele>147</ele>
        <time>2022-03-17T10:27:19.000Z</time>
      </trkpt>
      <trkpt lat="47.548187" lon="1.7853658">
        <ele>146</ele>
        <time>2022-03-17T10:27:20.000Z</time>
      </trkpt>
      <trkpt lat="47.54818" lon="1.7853725">
        <ele>147</ele>
        <time>2022-03-17T10:27:21.000Z</time>
      </trkpt>
      <trkpt lat="47.54817" lon="1.7853806">
        <ele>147</ele>
        <time>2022-03-17T10:27:22.000Z</time>
      </trkpt>
      <trkpt lat="47.54816" lon="1.7853945">
        <ele>147</ele>
        <time>2022-03-17T10:27:23.000Z</time>
      </trkpt>
      <trkpt lat="47.54815" lon="1.7854047">
        <ele>148</ele>
        <time>2022-03-17T10:27:24.000Z</time>
      </trkpt>
      <trkpt lat="47.548138" lon="1.785414">
        <ele>147</ele>
        <time>2022-03-17T10:27:25.000Z</time>
      </trkpt>
      <trkpt lat="47.548126" lon="1.785425">
        <ele>147</ele>
        <time>2022-03-17T10:27:26.000Z</time>
      </trkpt>
      <trkpt lat="47.54812" lon="1.7854366">
        <ele>148</ele>
        <time>2022-03-17T10:27:27.000Z</time>
      </trkpt>
      <trkpt lat="47.548107" lon="1.7854474">
        <ele>148</ele>
        <time>2022-03-17T10:27:28.000Z</time>
      </trkpt>
      <trkpt lat="47.5481" lon="1.7854582">
        <ele>148</ele>
        <time>2022-03-17T10:27:29.000Z</time>
      </trkpt>
      <trkpt lat="47.548088" lon="1.7854728">
        <ele>147</ele>
        <time>2022-03-17T10:27:30.000Z</time>
      </trkpt>
      <trkpt lat="47.548077" lon="1.7854822">
        <ele>148</ele>
        <time>2022-03-17T10:27:31.000Z</time>
      </trkpt>
      <trkpt lat="47.548065" lon="1.7854899">
        <ele>147</ele>
        <time>2022-03-17T10:27:32.000Z</time>
      </trkpt>
      <trkpt lat="47.548054" lon="1.7854992">
        <ele>147</ele>
        <time>2022-03-17T10:27:33.000Z</time>
      </trkpt>
      <trkpt lat="47.548042" lon="1.7855084">
        <ele>147</ele>
        <time>2022-03-17T10:27:34.000Z</time>
      </trkpt>
      <trkpt lat="47.54803" lon="1.7855161">
        <ele>147</ele>
        <time>2022-03-17T10:27:35.000Z</time>
      </trkpt>
      <trkpt lat="47.54802" lon="1.7855269">
        <ele>147</ele>
        <time>2022-03-17T10:27:36.000Z</time>
      </trkpt>
      <trkpt lat="47.548008" lon="1.7855326">
        <ele>147</ele>
        <time>2022-03-17T10:27:37.000Z</time>
      </trkpt>
      <trkpt lat="47.547997" lon="1.7855401">
        <ele>147</ele>
        <time>2022-03-17T10:27:38.000Z</time>
      </trkpt>
      <trkpt lat="47.54799" lon="1.7855465">
        <ele>147</ele>
        <time>2022-03-17T10:27:39.000Z</time>
      </trkpt>
      <trkpt lat="47.547977" lon="1.7855633">
        <ele>148</ele>
        <time>2022-03-17T10:27:40.000Z</time>
      </trkpt>
      <trkpt lat="47.547974" lon="1.785578">
        <ele>147</ele>
        <time>2022-03-17T10:27:41.000Z</time>
      </trkpt>
      <trkpt lat="47.547962" lon="1.7855908">
        <ele>148</ele>
        <time>2022-03-17T10:27:42.000Z</time>
      </trkpt>
      <trkpt lat="47.547955" lon="1.7856011">
        <ele>147</ele>
        <time>2022-03-17T10:27:43.000Z</time>
      </trkpt>
      <trkpt lat="47.54795" lon="1.785616">
        <ele>147</ele>
        <time>2022-03-17T10:27:44.000Z</time>
      </trkpt>
      <trkpt lat="47.547947" lon="1.785626">
        <ele>147</ele>
        <time>2022-03-17T10:27:45.000Z</time>
      </trkpt>
      <trkpt lat="47.54794" lon="1.7856333">
        <ele>146</ele>
        <time>2022-03-17T10:27:46.000Z</time>
      </trkpt>
      <trkpt lat="47.547935" lon="1.7856455">
        <ele>146</ele>
        <time>2022-03-17T10:27:47.000Z</time>
      </trkpt>
      <trkpt lat="47.547924" lon="1.7856534">
        <ele>145</ele>
        <time>2022-03-17T10:27:48.000Z</time>
      </trkpt>
      <trkpt lat="47.547916" lon="1.7856619">
        <ele>145</ele>
        <time>2022-03-17T10:27:49.000Z</time>
      </trkpt>
      <trkpt lat="47.54791" lon="1.7856765">
        <ele>145</ele>
        <time>2022-03-17T10:27:50.000Z</time>
      </trkpt>
      <trkpt lat="47.547897" lon="1.7856828">
        <ele>145</ele>
        <time>2022-03-17T10:27:51.000Z</time>
      </trkpt>
      <trkpt lat="47.547886" lon="1.7856905">
        <ele>145</ele>
        <time>2022-03-17T10:27:52.000Z</time>
      </trkpt>
      <trkpt lat="47.54788" lon="1.7857019">
        <ele>145</ele>
        <time>2022-03-17T10:27:53.000Z</time>
      </trkpt>
      <trkpt lat="47.54787" lon="1.7857102">
        <ele>145</ele>
        <time>2022-03-17T10:27:54.000Z</time>
      </trkpt>
      <trkpt lat="47.547863" lon="1.7857192">
        <ele>145</ele>
        <time>2022-03-17T10:27:55.000Z</time>
      </trkpt>
      <trkpt lat="47.54785" lon="1.785729">
        <ele>146</ele>
        <time>2022-03-17T10:27:56.000Z</time>
      </trkpt>
      <trkpt lat="47.547844" lon="1.7857392">
        <ele>146</ele>
        <time>2022-03-17T10:27:57.000Z</time>
      </trkpt>
      <trkpt lat="47.547832" lon="1.7857507">
        <ele>146</ele>
        <time>2022-03-17T10:27:58.000Z</time>
      </trkpt>
      <trkpt lat="47.54782" lon="1.7857625">
        <ele>147</ele>
        <time>2022-03-17T10:27:59.000Z</time>
      </trkpt>
      <trkpt lat="47.54781" lon="1.7857715">
        <ele>147</ele>
        <time>2022-03-17T10:28:00.000Z</time>
      </trkpt>
      <trkpt lat="47.547794" lon="1.7857779">
        <ele>146</ele>
        <time>2022-03-17T10:28:01.000Z</time>
      </trkpt>
      <trkpt lat="47.547783" lon="1.7857858">
        <ele>146</ele>
        <time>2022-03-17T10:28:02.000Z</time>
      </trkpt>
      <trkpt lat="47.547775" lon="1.7857974">
        <ele>146</ele>
        <time>2022-03-17T10:28:03.000Z</time>
      </trkpt>
      <trkpt lat="47.547764" lon="1.7858047">
        <ele>146</ele>
        <time>2022-03-17T10:28:04.000Z</time>
      </trkpt>
      <trkpt lat="47.547752" lon="1.7858089">
        <ele>146</ele>
        <time>2022-03-17T10:28:05.000Z</time>
      </trkpt>
      <trkpt lat="47.54774" lon="1.7858218">
        <ele>146</ele>
        <time>2022-03-17T10:28:06.000Z</time>
      </trkpt>
      <trkpt lat="47.547733" lon="1.7858338">
        <ele>146</ele>
        <time>2022-03-17T10:28:07.000Z</time>
      </trkpt>
      <trkpt lat="47.54772" lon="1.7858499">
        <ele>146</ele>
        <time>2022-03-17T10:28:08.000Z</time>
      </trkpt>
      <trkpt lat="47.547718" lon="1.7858628">
        <ele>145</ele>
        <time>2022-03-17T10:28:09.000Z</time>
      </trkpt>
      <trkpt lat="47.547707" lon="1.7858716">
        <ele>145</ele>
        <time>2022-03-17T10:28:10.000Z</time>
      </trkpt>
      <trkpt lat="47.547695" lon="1.7858784">
        <ele>145</ele>
        <time>2022-03-17T10:28:11.000Z</time>
      </trkpt>
      <trkpt lat="47.547684" lon="1.7858878">
        <ele>145</ele>
        <time>2022-03-17T10:28:12.000Z</time>
      </trkpt>
      <trkpt lat="47.547672" lon="1.7858925">
        <ele>145</ele>
        <time>2022-03-17T10:28:13.000Z</time>
      </trkpt>
      <trkpt lat="47.547665" lon="1.785897">
        <ele>146</ele>
        <time>2022-03-17T10:28:14.000Z</time>
      </trkpt>
      <trkpt lat="47.547657" lon="1.7859073">
        <ele>146</ele>
        <time>2022-03-17T10:28:15.000Z</time>
      </trkpt>
      <trkpt lat="47.54764" lon="1.7859143">
        <ele>147</ele>
        <time>2022-03-17T10:28:16.000Z</time>
      </trkpt>
      <trkpt lat="47.547634" lon="1.7859203">
        <ele>147</ele>
        <time>2022-03-17T10:28:17.000Z</time>
      </trkpt>
      <trkpt lat="47.547623" lon="1.7859293">
        <ele>147</ele>
        <time>2022-03-17T10:28:18.000Z</time>
      </trkpt>
      <trkpt lat="47.54761" lon="1.7859374">
        <ele>147</ele>
        <time>2022-03-17T10:28:19.000Z</time>
      </trkpt>
      <trkpt lat="47.547604" lon="1.7859483">
        <ele>147</ele>
        <time>2022-03-17T10:28:20.000Z</time>
      </trkpt>
      <trkpt lat="47.5476" lon="1.7859609">
        <ele>146</ele>
        <time>2022-03-17T10:28:21.000Z</time>
      </trkpt>
      <trkpt lat="47.54759" lon="1.7859775">
        <ele>146</ele>
        <time>2022-03-17T10:28:22.000Z</time>
      </trkpt>
      <trkpt lat="47.54758" lon="1.7859918">
        <ele>146</ele>
        <time>2022-03-17T10:28:23.000Z</time>
      </trkpt>
      <trkpt lat="47.54757" lon="1.7860006">
        <ele>146</ele>
        <time>2022-03-17T10:28:24.000Z</time>
      </trkpt>
      <trkpt lat="47.547558" lon="1.7860049">
        <ele>146</ele>
        <time>2022-03-17T10:28:25.000Z</time>
      </trkpt>
      <trkpt lat="47.54755" lon="1.786014">
        <ele>146</ele>
        <time>2022-03-17T10:28:26.000Z</time>
      </trkpt>
      <trkpt lat="47.54754" lon="1.7860177">
        <ele>145</ele>
        <time>2022-03-17T10:28:27.000Z</time>
      </trkpt>
      <trkpt lat="47.547527" lon="1.7860246">
        <ele>145</ele>
        <time>2022-03-17T10:28:28.000Z</time>
      </trkpt>
      <trkpt lat="47.54752" lon="1.786033">
        <ele>145</ele>
        <time>2022-03-17T10:28:29.000Z</time>
      </trkpt>
      <trkpt lat="47.547512" lon="1.7860413">
        <ele>144</ele>
        <time>2022-03-17T10:28:30.000Z</time>
      </trkpt>
      <trkpt lat="47.547504" lon="1.786049">
        <ele>144</ele>
        <time>2022-03-17T10:28:31.000Z</time>
      </trkpt>
      <trkpt lat="47.547493" lon="1.7860601">
        <ele>143</ele>
        <time>2022-03-17T10:28:32.000Z</time>
      </trkpt>
      <trkpt lat="47.54748" lon="1.7860688">
        <ele>143</ele>
        <time>2022-03-17T10:28:33.000Z</time>
      </trkpt>
      <trkpt lat="47.547478" lon="1.78608">
        <ele>142</ele>
        <time>2022-03-17T10:28:34.000Z</time>
      </trkpt>
      <trkpt lat="47.547466" lon="1.7860899">
        <ele>142</ele>
        <time>2022-03-17T10:28:35.000Z</time>
      </trkpt>
      <trkpt lat="47.547455" lon="1.7861007">
        <ele>142</ele>
        <time>2022-03-17T10:28:36.000Z</time>
      </trkpt>
      <trkpt lat="47.54745" lon="1.7861139">
        <ele>141</ele>
        <time>2022-03-17T10:28:37.000Z</time>
      </trkpt>
      <trkpt lat="47.547443" lon="1.7861193">
        <ele>142</ele>
        <time>2022-03-17T10:28:38.000Z</time>
      </trkpt>
      <trkpt lat="47.547436" lon="1.7861297">
        <ele>143</ele>
        <time>2022-03-17T10:28:39.000Z</time>
      </trkpt>
      <trkpt lat="47.547424" lon="1.7861413">
        <ele>143</ele>
        <time>2022-03-17T10:28:40.000Z</time>
      </trkpt>
      <trkpt lat="47.547417" lon="1.7861475">
        <ele>143</ele>
        <time>2022-03-17T10:28:41.000Z</time>
      </trkpt>
      <trkpt lat="47.547405" lon="1.7861595">
        <ele>142</ele>
        <time>2022-03-17T10:28:42.000Z</time>
      </trkpt>
      <trkpt lat="47.547398" lon="1.7861704">
        <ele>142</ele>
        <time>2022-03-17T10:28:43.000Z</time>
      </trkpt>
      <trkpt lat="47.547386" lon="1.7861828">
        <ele>143</ele>
        <time>2022-03-17T10:28:44.000Z</time>
      </trkpt>
      <trkpt lat="47.54738" lon="1.7861873">
        <ele>144</ele>
        <time>2022-03-17T10:28:45.000Z</time>
      </trkpt>
      <trkpt lat="47.54737" lon="1.7861923">
        <ele>144</ele>
        <time>2022-03-17T10:28:46.000Z</time>
      </trkpt>
      <trkpt lat="47.54736" lon="1.7861961">
        <ele>144</ele>
        <time>2022-03-17T10:28:47.000Z</time>
      </trkpt>
      <trkpt lat="47.547348" lon="1.7862061">
        <ele>144</ele>
        <time>2022-03-17T10:28:48.000Z</time>
      </trkpt>
      <trkpt lat="47.547337" lon="1.7862115">
        <ele>143</ele>
        <time>2022-03-17T10:28:49.000Z</time>
      </trkpt>
      <trkpt lat="47.547325" lon="1.786219">
        <ele>143</ele>
        <time>2022-03-17T10:28:50.000Z</time>
      </trkpt>
      <trkpt lat="47.547318" lon="1.7862273">
        <ele>144</ele>
        <time>2022-03-17T10:28:51.000Z</time>
      </trkpt>
      <trkpt lat="47.54731" lon="1.786235">
        <ele>144</ele>
        <time>2022-03-17T10:28:52.000Z</time>
      </trkpt>
      <trkpt lat="47.547302" lon="1.7862432">
        <ele>144</ele>
        <time>2022-03-17T10:28:53.000Z</time>
      </trkpt>
      <trkpt lat="47.5473" lon="1.7862533">
        <ele>144</ele>
        <time>2022-03-17T10:28:54.000Z</time>
      </trkpt>
      <trkpt lat="47.54729" lon="1.7862527">
        <ele>144</ele>
        <time>2022-03-17T10:28:55.000Z</time>
      </trkpt>
      <trkpt lat="47.54728" lon="1.7862626">
        <ele>143</ele>
        <time>2022-03-17T10:28:56.000Z</time>
      </trkpt>
      <trkpt lat="47.54727" lon="1.7862749">
        <ele>143</ele>
        <time>2022-03-17T10:28:57.000Z</time>
      </trkpt>
      <trkpt lat="47.547264" lon="1.7862853">
        <ele>143</ele>
        <time>2022-03-17T10:28:58.000Z</time>
      </trkpt>
      <trkpt lat="47.54726" lon="1.7862927">
        <ele>143</ele>
        <time>2022-03-17T10:28:59.000Z</time>
      </trkpt>
      <trkpt lat="47.547253" lon="1.7863057">
        <ele>143</ele>
        <time>2022-03-17T10:29:00.000Z</time>
      </trkpt>
      <trkpt lat="47.54724" lon="1.7863137">
        <ele>143</ele>
        <time>2022-03-17T10:29:01.000Z</time>
      </trkpt>
      <trkpt lat="47.547234" lon="1.7863238">
        <ele>142</ele>
        <time>2022-03-17T10:29:02.000Z</time>
      </trkpt>
      <trkpt lat="47.547222" lon="1.7863376">
        <ele>143</ele>
        <time>2022-03-17T10:29:03.000Z</time>
      </trkpt>
      <trkpt lat="47.547215" lon="1.7863507">
        <ele>143</ele>
        <time>2022-03-17T10:29:04.000Z</time>
      </trkpt>
      <trkpt lat="47.547203" lon="1.7863684">
        <ele>144</ele>
        <time>2022-03-17T10:29:05.000Z</time>
      </trkpt>
      <trkpt lat="47.547195" lon="1.7863785">
        <ele>143</ele>
        <time>2022-03-17T10:29:06.000Z</time>
      </trkpt>
      <trkpt lat="47.547184" lon="1.786387">
        <ele>143</ele>
        <time>2022-03-17T10:29:07.000Z</time>
      </trkpt>
      <trkpt lat="47.54717" lon="1.7863975">
        <ele>142</ele>
        <time>2022-03-17T10:29:08.000Z</time>
      </trkpt>
      <trkpt lat="47.547153" lon="1.7864064">
        <ele>142</ele>
        <time>2022-03-17T10:29:09.000Z</time>
      </trkpt>
      <trkpt lat="47.547142" lon="1.7864132">
        <ele>142</ele>
        <time>2022-03-17T10:29:10.000Z</time>
      </trkpt>
      <trkpt lat="47.54713" lon="1.7864184">
        <ele>142</ele>
        <time>2022-03-17T10:29:11.000Z</time>
      </trkpt>
      <trkpt lat="47.547123" lon="1.7864258">
        <ele>142</ele>
        <time>2022-03-17T10:29:12.000Z</time>
      </trkpt>
      <trkpt lat="47.54711" lon="1.7864321">
        <ele>143</ele>
        <time>2022-03-17T10:29:13.000Z</time>
      </trkpt>
      <trkpt lat="47.547104" lon="1.7864451">
        <ele>143</ele>
        <time>2022-03-17T10:29:14.000Z</time>
      </trkpt>
      <trkpt lat="47.547092" lon="1.7864507">
        <ele>143</ele>
        <time>2022-03-17T10:29:15.000Z</time>
      </trkpt>
      <trkpt lat="47.547085" lon="1.7864642">
        <ele>143</ele>
        <time>2022-03-17T10:29:16.000Z</time>
      </trkpt>
      <trkpt lat="47.547077" lon="1.78648">
        <ele>143</ele>
        <time>2022-03-17T10:29:17.000Z</time>
      </trkpt>
      <trkpt lat="47.54707" lon="1.7864848">
        <ele>144</ele>
        <time>2022-03-17T10:29:18.000Z</time>
      </trkpt>
      <trkpt lat="47.54706" lon="1.7864959">
        <ele>144</ele>
        <time>2022-03-17T10:29:19.000Z</time>
      </trkpt>
      <trkpt lat="47.54705" lon="1.7865045">
        <ele>144</ele>
        <time>2022-03-17T10:29:20.000Z</time>
      </trkpt>
      <trkpt lat="47.547047" lon="1.7865088">
        <ele>145</ele>
        <time>2022-03-17T10:29:21.000Z</time>
      </trkpt>
      <trkpt lat="47.547043" lon="1.7865044">
        <ele>145</ele>
        <time>2022-03-17T10:29:22.000Z</time>
      </trkpt>
      <trkpt lat="47.547035" lon="1.7864962">
        <ele>146</ele>
        <time>2022-03-17T10:29:23.000Z</time>
      </trkpt>
      <trkpt lat="47.54703" lon="1.7864963">
        <ele>145</ele>
        <time>2022-03-17T10:29:24.000Z</time>
      </trkpt>
      <trkpt lat="47.547028" lon="1.7865092">
        <ele>145</ele>
        <time>2022-03-17T10:29:25.000Z</time>
      </trkpt>
      <trkpt lat="47.547016" lon="1.7865236">
        <ele>145</ele>
        <time>2022-03-17T10:29:26.000Z</time>
      </trkpt>
      <trkpt lat="47.54701" lon="1.7865372">
        <ele>145</ele>
        <time>2022-03-17T10:29:27.000Z</time>
      </trkpt>
      <trkpt lat="47.546997" lon="1.7865473">
        <ele>145</ele>
        <time>2022-03-17T10:29:28.000Z</time>
      </trkpt>
      <trkpt lat="47.54699" lon="1.7865577">
        <ele>144</ele>
        <time>2022-03-17T10:29:29.000Z</time>
      </trkpt>
      <trkpt lat="47.546978" lon="1.7865685">
        <ele>144</ele>
        <time>2022-03-17T10:29:30.000Z</time>
      </trkpt>
      <trkpt lat="47.54697" lon="1.7865849">
        <ele>144</ele>
        <time>2022-03-17T10:29:31.000Z</time>
      </trkpt>
      <trkpt lat="47.546963" lon="1.7865962">
        <ele>143</ele>
        <time>2022-03-17T10:29:32.000Z</time>
      </trkpt>
      <trkpt lat="47.54695" lon="1.7866113">
        <ele>144</ele>
        <time>2022-03-17T10:29:33.000Z</time>
      </trkpt>
      <trkpt lat="47.546944" lon="1.7866261">
        <ele>144</ele>
        <time>2022-03-17T10:29:34.000Z</time>
      </trkpt>
      <trkpt lat="47.546932" lon="1.7866322">
        <ele>144</ele>
        <time>2022-03-17T10:29:35.000Z</time>
      </trkpt>
      <trkpt lat="47.54692" lon="1.7866391">
        <ele>145</ele>
        <time>2022-03-17T10:29:36.000Z</time>
      </trkpt>
      <trkpt lat="47.546913" lon="1.7866486">
        <ele>145</ele>
        <time>2022-03-17T10:29:37.000Z</time>
      </trkpt>
      <trkpt lat="47.5469" lon="1.7866604">
        <ele>145</ele>
        <time>2022-03-17T10:29:38.000Z</time>
      </trkpt>
      <trkpt lat="47.54689" lon="1.7866716">
        <ele>145</ele>
        <time>2022-03-17T10:29:39.000Z</time>
      </trkpt>
      <trkpt lat="47.54688" lon="1.7866731">
        <ele>145</ele>
        <time>2022-03-17T10:29:40.000Z</time>
      </trkpt>
      <trkpt lat="47.54687" lon="1.7866833">
        <ele>145</ele>
        <time>2022-03-17T10:29:41.000Z</time>
      </trkpt>
      <trkpt lat="47.54686" lon="1.7866905">
        <ele>145</ele>
        <time>2022-03-17T10:29:42.000Z</time>
      </trkpt>
      <trkpt lat="47.546852" lon="1.7866994">
        <ele>146</ele>
        <time>2022-03-17T10:29:43.000Z</time>
      </trkpt>
      <trkpt lat="47.54684" lon="1.7867051">
        <ele>145</ele>
        <time>2022-03-17T10:29:44.000Z</time>
      </trkpt>
      <trkpt lat="47.546833" lon="1.7867129">
        <ele>145</ele>
        <time>2022-03-17T10:29:45.000Z</time>
      </trkpt>
      <trkpt lat="47.54682" lon="1.7867229">
        <ele>145</ele>
        <time>2022-03-17T10:29:46.000Z</time>
      </trkpt>
      <trkpt lat="47.546814" lon="1.7867327">
        <ele>145</ele>
        <time>2022-03-17T10:29:47.000Z</time>
      </trkpt>
      <trkpt lat="47.546803" lon="1.7867458">
        <ele>145</ele>
        <time>2022-03-17T10:29:48.000Z</time>
      </trkpt>
      <trkpt lat="47.54679" lon="1.7867563">
        <ele>145</ele>
        <time>2022-03-17T10:29:49.000Z</time>
      </trkpt>
      <trkpt lat="47.546783" lon="1.7867681">
        <ele>145</ele>
        <time>2022-03-17T10:29:50.000Z</time>
      </trkpt>
      <trkpt lat="47.546772" lon="1.78678">
        <ele>145</ele>
        <time>2022-03-17T10:29:51.000Z</time>
      </trkpt>
      <trkpt lat="47.546757" lon="1.7867919">
        <ele>145</ele>
        <time>2022-03-17T10:29:52.000Z</time>
      </trkpt>
      <trkpt lat="47.54675" lon="1.7868015">
        <ele>145</ele>
        <time>2022-03-17T10:29:53.000Z</time>
      </trkpt>
      <trkpt lat="47.546738" lon="1.7868121">
        <ele>145</ele>
        <time>2022-03-17T10:29:54.000Z</time>
      </trkpt>
      <trkpt lat="47.54673" lon="1.7868192">
        <ele>145</ele>
        <time>2022-03-17T10:29:55.000Z</time>
      </trkpt>
      <trkpt lat="47.54672" lon="1.786831">
        <ele>145</ele>
        <time>2022-03-17T10:29:56.000Z</time>
      </trkpt>
      <trkpt lat="47.546707" lon="1.7868423">
        <ele>145</ele>
        <time>2022-03-17T10:29:57.000Z</time>
      </trkpt>
      <trkpt lat="47.546696" lon="1.7868547">
        <ele>145</ele>
        <time>2022-03-17T10:29:58.000Z</time>
      </trkpt>
      <trkpt lat="47.546684" lon="1.7868657">
        <ele>145</ele>
        <time>2022-03-17T10:29:59.000Z</time>
      </trkpt>
      <trkpt lat="47.546677" lon="1.7868745">
        <ele>145</ele>
        <time>2022-03-17T10:30:00.000Z</time>
      </trkpt>
      <trkpt lat="47.54667" lon="1.786886">
        <ele>145</ele>
        <time>2022-03-17T10:30:01.000Z</time>
      </trkpt>
      <trkpt lat="47.546658" lon="1.7868952">
        <ele>144</ele>
        <time>2022-03-17T10:30:02.000Z</time>
      </trkpt>
      <trkpt lat="47.546646" lon="1.7869014">
        <ele>144</ele>
        <time>2022-03-17T10:30:03.000Z</time>
      </trkpt>
      <trkpt lat="47.54664" lon="1.78691">
        <ele>144</ele>
        <time>2022-03-17T10:30:04.000Z</time>
      </trkpt>
      <trkpt lat="47.54663" lon="1.7869228">
        <ele>143</ele>
        <time>2022-03-17T10:30:05.000Z</time>
      </trkpt>
      <trkpt lat="47.54662" lon="1.7869327">
        <ele>143</ele>
        <time>2022-03-17T10:30:06.000Z</time>
      </trkpt>
      <trkpt lat="47.546608" lon="1.7869474">
        <ele>143</ele>
        <time>2022-03-17T10:30:07.000Z</time>
      </trkpt>
      <trkpt lat="47.5466" lon="1.7869599">
        <ele>143</ele>
        <time>2022-03-17T10:30:08.000Z</time>
      </trkpt>
      <trkpt lat="47.54659" lon="1.7869726">
        <ele>144</ele>
        <time>2022-03-17T10:30:09.000Z</time>
      </trkpt>
      <trkpt lat="47.546577" lon="1.7869816">
        <ele>143</ele>
        <time>2022-03-17T10:30:10.000Z</time>
      </trkpt>
      <trkpt lat="47.54657" lon="1.7869925">
        <ele>143</ele>
        <time>2022-03-17T10:30:11.000Z</time>
      </trkpt>
      <trkpt lat="47.54656" lon="1.787003">
        <ele>143</ele>
        <time>2022-03-17T10:30:12.000Z</time>
      </trkpt>
      <trkpt lat="47.546543" lon="1.7870128">
        <ele>143</ele>
        <time>2022-03-17T10:30:13.000Z</time>
      </trkpt>
      <trkpt lat="47.546535" lon="1.7870245">
        <ele>143</ele>
        <time>2022-03-17T10:30:14.000Z</time>
      </trkpt>
      <trkpt lat="47.546528" lon="1.7870395">
        <ele>143</ele>
        <time>2022-03-17T10:30:15.000Z</time>
      </trkpt>
      <trkpt lat="47.546516" lon="1.7870516">
        <ele>143</ele>
        <time>2022-03-17T10:30:16.000Z</time>
      </trkpt>
      <trkpt lat="47.546505" lon="1.7870595">
        <ele>143</ele>
        <time>2022-03-17T10:30:17.000Z</time>
      </trkpt>
      <trkpt lat="47.546497" lon="1.787068">
        <ele>143</ele>
        <time>2022-03-17T10:30:18.000Z</time>
      </trkpt>
      <trkpt lat="47.546486" lon="1.7870772">
        <ele>143</ele>
        <time>2022-03-17T10:30:19.000Z</time>
      </trkpt>
      <trkpt lat="47.54648" lon="1.7870871">
        <ele>143</ele>
        <time>2022-03-17T10:30:20.000Z</time>
      </trkpt>
      <trkpt lat="47.546467" lon="1.7870977">
        <ele>142</ele>
        <time>2022-03-17T10:30:21.000Z</time>
      </trkpt>
      <trkpt lat="47.54646" lon="1.7871044">
        <ele>142</ele>
        <time>2022-03-17T10:30:22.000Z</time>
      </trkpt>
      <trkpt lat="47.546448" lon="1.7871131">
        <ele>142</ele>
        <time>2022-03-17T10:30:23.000Z</time>
      </trkpt>
      <trkpt lat="47.546432" lon="1.7871219">
        <ele>142</ele>
        <time>2022-03-17T10:30:24.000Z</time>
      </trkpt>
      <trkpt lat="47.54642" lon="1.7871269">
        <ele>143</ele>
        <time>2022-03-17T10:30:25.000Z</time>
      </trkpt>
      <trkpt lat="47.54641" lon="1.787131">
        <ele>143</ele>
        <time>2022-03-17T10:30:26.000Z</time>
      </trkpt>
      <trkpt lat="47.546402" lon="1.7871423">
        <ele>143</ele>
        <time>2022-03-17T10:30:27.000Z</time>
      </trkpt>
      <trkpt lat="47.54639" lon="1.7871535">
        <ele>144</ele>
        <time>2022-03-17T10:30:28.000Z</time>
      </trkpt>
      <trkpt lat="47.54638" lon="1.7871629">
        <ele>145</ele>
        <time>2022-03-17T10:30:29.000Z</time>
      </trkpt>
      <trkpt lat="47.546368" lon="1.7871743">
        <ele>145</ele>
        <time>2022-03-17T10:30:30.000Z</time>
      </trkpt>
      <trkpt lat="47.54636" lon="1.7871848">
        <ele>145</ele>
        <time>2022-03-17T10:30:31.000Z</time>
      </trkpt>
      <trkpt lat="47.54635" lon="1.7871904">
        <ele>145</ele>
        <time>2022-03-17T10:30:32.000Z</time>
      </trkpt>
      <trkpt lat="47.546337" lon="1.7871985">
        <ele>146</ele>
        <time>2022-03-17T10:30:33.000Z</time>
      </trkpt>
      <trkpt lat="47.546326" lon="1.7872049">
        <ele>146</ele>
        <time>2022-03-17T10:30:34.000Z</time>
      </trkpt>
      <trkpt lat="47.54631" lon="1.7872149">
        <ele>146</ele>
        <time>2022-03-17T10:30:35.000Z</time>
      </trkpt>
      <trkpt lat="47.5463" lon="1.7872173">
        <ele>146</ele>
        <time>2022-03-17T10:30:36.000Z</time>
      </trkpt>
      <trkpt lat="47.546288" lon="1.7872235">
        <ele>147</ele>
        <time>2022-03-17T10:30:37.000Z</time>
      </trkpt>
      <trkpt lat="47.546276" lon="1.7872308">
        <ele>147</ele>
        <time>2022-03-17T10:30:38.000Z</time>
      </trkpt>
      <trkpt lat="47.546265" lon="1.7872368">
        <ele>148</ele>
        <time>2022-03-17T10:30:39.000Z</time>
      </trkpt>
      <trkpt lat="47.546253" lon="1.787247">
        <ele>148</ele>
        <time>2022-03-17T10:30:40.000Z</time>
      </trkpt>
      <trkpt lat="47.54624" lon="1.7872559">
        <ele>148</ele>
        <time>2022-03-17T10:30:41.000Z</time>
      </trkpt>
      <trkpt lat="47.546234" lon="1.7872674">
        <ele>148</ele>
        <time>2022-03-17T10:30:42.000Z</time>
      </trkpt>
      <trkpt lat="47.546223" lon="1.787276">
        <ele>148</ele>
        <time>2022-03-17T10:30:43.000Z</time>
      </trkpt>
      <trkpt lat="47.546215" lon="1.7872888">
        <ele>148</ele>
        <time>2022-03-17T10:30:44.000Z</time>
      </trkpt>
      <trkpt lat="47.546204" lon="1.7873031">
        <ele>147</ele>
        <time>2022-03-17T10:30:45.000Z</time>
      </trkpt>
      <trkpt lat="47.546196" lon="1.7873138">
        <ele>147</ele>
        <time>2022-03-17T10:30:46.000Z</time>
      </trkpt>
      <trkpt lat="47.546185" lon="1.7873268">
        <ele>148</ele>
        <time>2022-03-17T10:30:47.000Z</time>
      </trkpt>
      <trkpt lat="47.546177" lon="1.787339">
        <ele>148</ele>
        <time>2022-03-17T10:30:48.000Z</time>
      </trkpt>
      <trkpt lat="47.546165" lon="1.7873533">
        <ele>147</ele>
        <time>2022-03-17T10:30:49.000Z</time>
      </trkpt>
      <trkpt lat="47.546154" lon="1.7873675">
        <ele>148</ele>
        <time>2022-03-17T10:30:50.000Z</time>
      </trkpt>
      <trkpt lat="47.546143" lon="1.7873777">
        <ele>148</ele>
        <time>2022-03-17T10:30:51.000Z</time>
      </trkpt>
      <trkpt lat="47.546127" lon="1.7873893">
        <ele>147</ele>
        <time>2022-03-17T10:30:52.000Z</time>
      </trkpt>
      <trkpt lat="47.54612" lon="1.7873967">
        <ele>147</ele>
        <time>2022-03-17T10:30:53.000Z</time>
      </trkpt>
      <trkpt lat="47.54611" lon="1.7874115">
        <ele>147</ele>
        <time>2022-03-17T10:30:54.000Z</time>
      </trkpt>
      <trkpt lat="47.5461" lon="1.7874228">
        <ele>146</ele>
        <time>2022-03-17T10:30:55.000Z</time>
      </trkpt>
      <trkpt lat="47.546093" lon="1.787437">
        <ele>146</ele>
        <time>2022-03-17T10:30:56.000Z</time>
      </trkpt>
      <trkpt lat="47.54608" lon="1.7874479">
        <ele>146</ele>
        <time>2022-03-17T10:30:57.000Z</time>
      </trkpt>
      <trkpt lat="47.546074" lon="1.7874585">
        <ele>146</ele>
        <time>2022-03-17T10:30:58.000Z</time>
      </trkpt>
      <trkpt lat="47.546062" lon="1.7874699">
        <ele>145</ele>
        <time>2022-03-17T10:30:59.000Z</time>
      </trkpt>
      <trkpt lat="47.546047" lon="1.7874811">
        <ele>145</ele>
        <time>2022-03-17T10:31:00.000Z</time>
      </trkpt>
      <trkpt lat="47.546036" lon="1.7874917">
        <ele>145</ele>
        <time>2022-03-17T10:31:01.000Z</time>
      </trkpt>
      <trkpt lat="47.54603" lon="1.7874992">
        <ele>144</ele>
        <time>2022-03-17T10:31:02.000Z</time>
      </trkpt>
      <trkpt lat="47.54602" lon="1.7875074">
        <ele>144</ele>
        <time>2022-03-17T10:31:03.000Z</time>
      </trkpt>
      <trkpt lat="47.54601" lon="1.7875171">
        <ele>144</ele>
        <time>2022-03-17T10:31:04.000Z</time>
      </trkpt>
      <trkpt lat="47.545994" lon="1.7875204">
        <ele>145</ele>
        <time>2022-03-17T10:31:05.000Z</time>
      </trkpt>
      <trkpt lat="47.545986" lon="1.7875309">
        <ele>145</ele>
        <time>2022-03-17T10:31:06.000Z</time>
      </trkpt>
      <trkpt lat="47.54597" lon="1.7875403">
        <ele>145</ele>
        <time>2022-03-17T10:31:07.000Z</time>
      </trkpt>
      <trkpt lat="47.545963" lon="1.7875482">
        <ele>145</ele>
        <time>2022-03-17T10:31:08.000Z</time>
      </trkpt>
      <trkpt lat="47.54595" lon="1.787557">
        <ele>145</ele>
        <time>2022-03-17T10:31:09.000Z</time>
      </trkpt>
      <trkpt lat="47.54594" lon="1.7875652">
        <ele>145</ele>
        <time>2022-03-17T10:31:10.000Z</time>
      </trkpt>
      <trkpt lat="47.545933" lon="1.7875719">
        <ele>145</ele>
        <time>2022-03-17T10:31:11.000Z</time>
      </trkpt>
      <trkpt lat="47.54592" lon="1.7875795">
        <ele>146</ele>
        <time>2022-03-17T10:31:12.000Z</time>
      </trkpt>
      <trkpt lat="47.545914" lon="1.7875856">
        <ele>146</ele>
        <time>2022-03-17T10:31:13.000Z</time>
      </trkpt>
      <trkpt lat="47.545902" lon="1.7875967">
        <ele>146</ele>
        <time>2022-03-17T10:31:14.000Z</time>
      </trkpt>
      <trkpt lat="47.54589" lon="1.7876123">
        <ele>146</ele>
        <time>2022-03-17T10:31:15.000Z</time>
      </trkpt>
      <trkpt lat="47.54588" lon="1.7876219">
        <ele>146</ele>
        <time>2022-03-17T10:31:16.000Z</time>
      </trkpt>
      <trkpt lat="47.54587" lon="1.7876283">
        <ele>146</ele>
        <time>2022-03-17T10:31:17.000Z</time>
      </trkpt>
      <trkpt lat="47.54586" lon="1.7876338">
        <ele>146</ele>
        <time>2022-03-17T10:31:18.000Z</time>
      </trkpt>
      <trkpt lat="47.545853" lon="1.7876476">
        <ele>146</ele>
        <time>2022-03-17T10:31:19.000Z</time>
      </trkpt>
      <trkpt lat="47.545845" lon="1.7876592">
        <ele>146</ele>
        <time>2022-03-17T10:31:20.000Z</time>
      </trkpt>
      <trkpt lat="47.545837" lon="1.7876709">
        <ele>146</ele>
        <time>2022-03-17T10:31:21.000Z</time>
      </trkpt>
      <trkpt lat="47.54583" lon="1.7876849">
        <ele>145</ele>
        <time>2022-03-17T10:31:22.000Z</time>
      </trkpt>
      <trkpt lat="47.54582" lon="1.7876918">
        <ele>145</ele>
        <time>2022-03-17T10:31:23.000Z</time>
      </trkpt>
      <trkpt lat="47.545807" lon="1.7877026">
        <ele>144</ele>
        <time>2022-03-17T10:31:24.000Z</time>
      </trkpt>
      <trkpt lat="47.5458" lon="1.7877114">
        <ele>144</ele>
        <time>2022-03-17T10:31:25.000Z</time>
      </trkpt>
      <trkpt lat="47.545788" lon="1.7877185">
        <ele>144</ele>
        <time>2022-03-17T10:31:26.000Z</time>
      </trkpt>
      <trkpt lat="47.545773" lon="1.7877254">
        <ele>145</ele>
        <time>2022-03-17T10:31:27.000Z</time>
      </trkpt>
      <trkpt lat="47.545765" lon="1.7877393">
        <ele>145</ele>
        <time>2022-03-17T10:31:28.000Z</time>
      </trkpt>
      <trkpt lat="47.545757" lon="1.7877535">
        <ele>145</ele>
        <time>2022-03-17T10:31:29.000Z</time>
      </trkpt>
      <trkpt lat="47.545753" lon="1.7877625">
        <ele>145</ele>
        <time>2022-03-17T10:31:30.000Z</time>
      </trkpt>
      <trkpt lat="47.545742" lon="1.7877735">
        <ele>146</ele>
        <time>2022-03-17T10:31:31.000Z</time>
      </trkpt>
      <trkpt lat="47.54573" lon="1.7877874">
        <ele>146</ele>
        <time>2022-03-17T10:31:32.000Z</time>
      </trkpt>
      <trkpt lat="47.54572" lon="1.7877994">
        <ele>146</ele>
        <time>2022-03-17T10:31:33.000Z</time>
      </trkpt>
      <trkpt lat="47.545708" lon="1.7878137">
        <ele>146</ele>
        <time>2022-03-17T10:31:34.000Z</time>
      </trkpt>
      <trkpt lat="47.545696" lon="1.7878292">
        <ele>147</ele>
        <time>2022-03-17T10:31:35.000Z</time>
      </trkpt>
      <trkpt lat="47.54569" lon="1.7878447">
        <ele>147</ele>
        <time>2022-03-17T10:31:36.000Z</time>
      </trkpt>
      <trkpt lat="47.545677" lon="1.787855">
        <ele>147</ele>
        <time>2022-03-17T10:31:37.000Z</time>
      </trkpt>
      <trkpt lat="47.545666" lon="1.7878627">
        <ele>147</ele>
        <time>2022-03-17T10:31:38.000Z</time>
      </trkpt>
      <trkpt lat="47.545654" lon="1.7878742">
        <ele>147</ele>
        <time>2022-03-17T10:31:39.000Z</time>
      </trkpt>
      <trkpt lat="47.545647" lon="1.7878834">
        <ele>147</ele>
        <time>2022-03-17T10:31:40.000Z</time>
      </trkpt>
      <trkpt lat="47.54564" lon="1.7878923">
        <ele>147</ele>
        <time>2022-03-17T10:31:41.000Z</time>
      </trkpt>
      <trkpt lat="47.54563" lon="1.7879049">
        <ele>147</ele>
        <time>2022-03-17T10:31:42.000Z</time>
      </trkpt>
      <trkpt lat="47.545624" lon="1.7879212">
        <ele>147</ele>
        <time>2022-03-17T10:31:43.000Z</time>
      </trkpt>
      <trkpt lat="47.545616" lon="1.7879348">
        <ele>147</ele>
        <time>2022-03-17T10:31:44.000Z</time>
      </trkpt>
      <trkpt lat="47.54561" lon="1.7879481">
        <ele>147</ele>
        <time>2022-03-17T10:31:45.000Z</time>
      </trkpt>
      <trkpt lat="47.5456" lon="1.7879559">
        <ele>147</ele>
        <time>2022-03-17T10:31:46.000Z</time>
      </trkpt>
      <trkpt lat="47.545593" lon="1.7879692">
        <ele>147</ele>
        <time>2022-03-17T10:31:47.000Z</time>
      </trkpt>
      <trkpt lat="47.54558" lon="1.7879791">
        <ele>146</ele>
        <time>2022-03-17T10:31:48.000Z</time>
      </trkpt>
      <trkpt lat="47.545574" lon="1.7879885">
        <ele>146</ele>
        <time>2022-03-17T10:31:49.000Z</time>
      </trkpt>
      <trkpt lat="47.545567" lon="1.7879974">
        <ele>146</ele>
        <time>2022-03-17T10:31:50.000Z</time>
      </trkpt>
      <trkpt lat="47.545555" lon="1.7880055">
        <ele>146</ele>
        <time>2022-03-17T10:31:51.000Z</time>
      </trkpt>
      <trkpt lat="47.54554" lon="1.7880149">
        <ele>146</ele>
        <time>2022-03-17T10:31:52.000Z</time>
      </trkpt>
      <trkpt lat="47.54553" lon="1.7880237">
        <ele>146</ele>
        <time>2022-03-17T10:31:53.000Z</time>
      </trkpt>
      <trkpt lat="47.545517" lon="1.788034">
        <ele>146</ele>
        <time>2022-03-17T10:31:54.000Z</time>
      </trkpt>
      <trkpt lat="47.545506" lon="1.7880446">
        <ele>146</ele>
        <time>2022-03-17T10:31:55.000Z</time>
      </trkpt>
      <trkpt lat="47.545498" lon="1.7880523">
        <ele>146</ele>
        <time>2022-03-17T10:31:56.000Z</time>
      </trkpt>
      <trkpt lat="47.545486" lon="1.7880594">
        <ele>147</ele>
        <time>2022-03-17T10:31:57.000Z</time>
      </trkpt>
      <trkpt lat="47.54548" lon="1.788071">
        <ele>147</ele>
        <time>2022-03-17T10:31:58.000Z</time>
      </trkpt>
      <trkpt lat="47.54547" lon="1.7880824">
        <ele>147</ele>
        <time>2022-03-17T10:31:59.000Z</time>
      </trkpt>
      <trkpt lat="47.54546" lon="1.7880937">
        <ele>146</ele>
        <time>2022-03-17T10:32:00.000Z</time>
      </trkpt>
      <trkpt lat="47.545452" lon="1.788109">
        <ele>146</ele>
        <time>2022-03-17T10:32:01.000Z</time>
      </trkpt>
      <trkpt lat="47.545444" lon="1.7881228">
        <ele>146</ele>
        <time>2022-03-17T10:32:02.000Z</time>
      </trkpt>
      <trkpt lat="47.545433" lon="1.7881347">
        <ele>146</ele>
        <time>2022-03-17T10:32:03.000Z</time>
      </trkpt>
      <trkpt lat="47.545425" lon="1.7881488">
        <ele>146</ele>
        <time>2022-03-17T10:32:04.000Z</time>
      </trkpt>
      <trkpt lat="47.545418" lon="1.788164">
        <ele>146</ele>
        <time>2022-03-17T10:32:05.000Z</time>
      </trkpt>
      <trkpt lat="47.54541" lon="1.7881742">
        <ele>146</ele>
        <time>2022-03-17T10:32:06.000Z</time>
      </trkpt>
      <trkpt lat="47.545403" lon="1.7881814">
        <ele>146</ele>
        <time>2022-03-17T10:32:07.000Z</time>
      </trkpt>
      <trkpt lat="47.54539" lon="1.7881997">
        <ele>147</ele>
        <time>2022-03-17T10:32:08.000Z</time>
      </trkpt>
      <trkpt lat="47.545387" lon="1.7882113">
        <ele>147</ele>
        <time>2022-03-17T10:32:09.000Z</time>
      </trkpt>
      <trkpt lat="47.545376" lon="1.7882183">
        <ele>147</ele>
        <time>2022-03-17T10:32:10.000Z</time>
      </trkpt>
      <trkpt lat="47.54537" lon="1.7882274">
        <ele>147</ele>
        <time>2022-03-17T10:32:11.000Z</time>
      </trkpt>
      <trkpt lat="47.54536" lon="1.7882404">
        <ele>147</ele>
        <time>2022-03-17T10:32:12.000Z</time>
      </trkpt>
      <trkpt lat="47.54535" lon="1.7882531">
        <ele>147</ele>
        <time>2022-03-17T10:32:13.000Z</time>
      </trkpt>
      <trkpt lat="47.54534" lon="1.7882683">
        <ele>147</ele>
        <time>2022-03-17T10:32:14.000Z</time>
      </trkpt>
      <trkpt lat="47.545334" lon="1.7882814">
        <ele>147</ele>
        <time>2022-03-17T10:32:15.000Z</time>
      </trkpt>
      <trkpt lat="47.545326" lon="1.7882956">
        <ele>147</ele>
        <time>2022-03-17T10:32:16.000Z</time>
      </trkpt>
      <trkpt lat="47.545315" lon="1.7883071">
        <ele>147</ele>
        <time>2022-03-17T10:32:17.000Z</time>
      </trkpt>
      <trkpt lat="47.5453" lon="1.7883171">
        <ele>147</ele>
        <time>2022-03-17T10:32:18.000Z</time>
      </trkpt>
      <trkpt lat="47.545288" lon="1.78833">
        <ele>147</ele>
        <time>2022-03-17T10:32:19.000Z</time>
      </trkpt>
      <trkpt lat="47.545277" lon="1.7883415">
        <ele>148</ele>
        <time>2022-03-17T10:32:20.000Z</time>
      </trkpt>
      <trkpt lat="47.54527" lon="1.7883579">
        <ele>147</ele>
        <time>2022-03-17T10:32:21.000Z</time>
      </trkpt>
      <trkpt lat="47.545258" lon="1.7883695">
        <ele>148</ele>
        <time>2022-03-17T10:32:22.000Z</time>
      </trkpt>
      <trkpt lat="47.54525" lon="1.7883854">
        <ele>148</ele>
        <time>2022-03-17T10:32:23.000Z</time>
      </trkpt>
      <trkpt lat="47.54524" lon="1.7883936">
        <ele>148</ele>
        <time>2022-03-17T10:32:24.000Z</time>
      </trkpt>
      <trkpt lat="47.545227" lon="1.7884051">
        <ele>148</ele>
        <time>2022-03-17T10:32:25.000Z</time>
      </trkpt>
      <trkpt lat="47.545216" lon="1.7884127">
        <ele>148</ele>
        <time>2022-03-17T10:32:26.000Z</time>
      </trkpt>
      <trkpt lat="47.545204" lon="1.7884285">
        <ele>148</ele>
        <time>2022-03-17T10:32:27.000Z</time>
      </trkpt>
      <trkpt lat="47.545193" lon="1.7884402">
        <ele>148</ele>
        <time>2022-03-17T10:32:28.000Z</time>
      </trkpt>
      <trkpt lat="47.545185" lon="1.788453">
        <ele>148</ele>
        <time>2022-03-17T10:32:29.000Z</time>
      </trkpt>
      <trkpt lat="47.545177" lon="1.7884643">
        <ele>148</ele>
        <time>2022-03-17T10:32:30.000Z</time>
      </trkpt>
      <trkpt lat="47.54517" lon="1.7884718">
        <ele>148</ele>
        <time>2022-03-17T10:32:31.000Z</time>
      </trkpt>
      <trkpt lat="47.545162" lon="1.7884818">
        <ele>148</ele>
        <time>2022-03-17T10:32:32.000Z</time>
      </trkpt>
      <trkpt lat="47.545155" lon="1.788495">
        <ele>148</ele>
        <time>2022-03-17T10:32:33.000Z</time>
      </trkpt>
      <trkpt lat="47.545143" lon="1.7885052">
        <ele>149</ele>
        <time>2022-03-17T10:32:34.000Z</time>
      </trkpt>
      <trkpt lat="47.54513" lon="1.7885168">
        <ele>149</ele>
        <time>2022-03-17T10:32:35.000Z</time>
      </trkpt>
      <trkpt lat="47.545124" lon="1.7885259">
        <ele>148</ele>
        <time>2022-03-17T10:32:36.000Z</time>
      </trkpt>
      <trkpt lat="47.54511" lon="1.7885351">
        <ele>149</ele>
        <time>2022-03-17T10:32:37.000Z</time>
      </trkpt>
      <trkpt lat="47.545097" lon="1.7885418">
        <ele>149</ele>
        <time>2022-03-17T10:32:38.000Z</time>
      </trkpt>
      <trkpt lat="47.545086" lon="1.7885485">
        <ele>149</ele>
        <time>2022-03-17T10:32:39.000Z</time>
      </trkpt>
      <trkpt lat="47.545074" lon="1.7885573">
        <ele>149</ele>
        <time>2022-03-17T10:32:40.000Z</time>
      </trkpt>
      <trkpt lat="47.545063" lon="1.788568">
        <ele>149</ele>
        <time>2022-03-17T10:32:41.000Z</time>
      </trkpt>
      <trkpt lat="47.545055" lon="1.7885771">
        <ele>149</ele>
        <time>2022-03-17T10:32:42.000Z</time>
      </trkpt>
      <trkpt lat="47.545044" lon="1.788588">
        <ele>149</ele>
        <time>2022-03-17T10:32:43.000Z</time>
      </trkpt>
      <trkpt lat="47.545036" lon="1.7885945">
        <ele>149</ele>
        <time>2022-03-17T10:32:44.000Z</time>
      </trkpt>
      <trkpt lat="47.545025" lon="1.7886068">
        <ele>150</ele>
        <time>2022-03-17T10:32:45.000Z</time>
      </trkpt>
      <trkpt lat="47.545017" lon="1.7886178">
        <ele>149</ele>
        <time>2022-03-17T10:32:46.000Z</time>
      </trkpt>
      <trkpt lat="47.545006" lon="1.7886306">
        <ele>149</ele>
        <time>2022-03-17T10:32:47.000Z</time>
      </trkpt>
      <trkpt lat="47.544994" lon="1.7886397">
        <ele>149</ele>
        <time>2022-03-17T10:32:48.000Z</time>
      </trkpt>
      <trkpt lat="47.544983" lon="1.7886512">
        <ele>149</ele>
        <time>2022-03-17T10:32:49.000Z</time>
      </trkpt>
      <trkpt lat="47.54497" lon="1.7886574">
        <ele>149</ele>
        <time>2022-03-17T10:32:50.000Z</time>
      </trkpt>
      <trkpt lat="47.54496" lon="1.7886686">
        <ele>149</ele>
        <time>2022-03-17T10:32:51.000Z</time>
      </trkpt>
      <trkpt lat="47.54495" lon="1.7886807">
        <ele>149</ele>
        <time>2022-03-17T10:32:52.000Z</time>
      </trkpt>
      <trkpt lat="47.54494" lon="1.7886919">
        <ele>148</ele>
        <time>2022-03-17T10:32:53.000Z</time>
      </trkpt>
      <trkpt lat="47.54493" lon="1.788709">
        <ele>148</ele>
        <time>2022-03-17T10:32:54.000Z</time>
      </trkpt>
      <trkpt lat="47.54492" lon="1.7887259">
        <ele>149</ele>
        <time>2022-03-17T10:32:55.000Z</time>
      </trkpt>
      <trkpt lat="47.544918" lon="1.7887473">
        <ele>148</ele>
        <time>2022-03-17T10:32:56.000Z</time>
      </trkpt>
      <trkpt lat="47.544907" lon="1.7887613">
        <ele>148</ele>
        <time>2022-03-17T10:32:57.000Z</time>
      </trkpt>
      <trkpt lat="47.544895" lon="1.7887716">
        <ele>148</ele>
        <time>2022-03-17T10:32:58.000Z</time>
      </trkpt>
      <trkpt lat="47.544884" lon="1.788789">
        <ele>148</ele>
        <time>2022-03-17T10:32:59.000Z</time>
      </trkpt>
      <trkpt lat="47.544876" lon="1.7888005">
        <ele>148</ele>
        <time>2022-03-17T10:33:00.000Z</time>
      </trkpt>
      <trkpt lat="47.54487" lon="1.7888153">
        <ele>148</ele>
        <time>2022-03-17T10:33:01.000Z</time>
      </trkpt>
      <trkpt lat="47.544857" lon="1.7888294">
        <ele>148</ele>
        <time>2022-03-17T10:33:02.000Z</time>
      </trkpt>
      <trkpt lat="47.544846" lon="1.7888424">
        <ele>148</ele>
        <time>2022-03-17T10:33:03.000Z</time>
      </trkpt>
      <trkpt lat="47.544838" lon="1.7888501">
        <ele>148</ele>
        <time>2022-03-17T10:33:04.000Z</time>
      </trkpt>
      <trkpt lat="47.54483" lon="1.7888548">
        <ele>148</ele>
        <time>2022-03-17T10:33:05.000Z</time>
      </trkpt>
      <trkpt lat="47.54482" lon="1.7888631">
        <ele>147</ele>
        <time>2022-03-17T10:33:06.000Z</time>
      </trkpt>
      <trkpt lat="47.54481" lon="1.788872">
        <ele>147</ele>
        <time>2022-03-17T10:33:07.000Z</time>
      </trkpt>
      <trkpt lat="47.5448" lon="1.7888857">
        <ele>147</ele>
        <time>2022-03-17T10:33:08.000Z</time>
      </trkpt>
      <trkpt lat="47.54479" lon="1.7888917">
        <ele>146</ele>
        <time>2022-03-17T10:33:09.000Z</time>
      </trkpt>
      <trkpt lat="47.544777" lon="1.7889035">
        <ele>146</ele>
        <time>2022-03-17T10:33:10.000Z</time>
      </trkpt>
      <trkpt lat="47.544765" lon="1.7889174">
        <ele>147</ele>
        <time>2022-03-17T10:33:11.000Z</time>
      </trkpt>
      <trkpt lat="47.544758" lon="1.7889287">
        <ele>147</ele>
        <time>2022-03-17T10:33:12.000Z</time>
      </trkpt>
      <trkpt lat="47.544746" lon="1.7889409">
        <ele>147</ele>
        <time>2022-03-17T10:33:13.000Z</time>
      </trkpt>
      <trkpt lat="47.544735" lon="1.7889545">
        <ele>147</ele>
        <time>2022-03-17T10:33:14.000Z</time>
      </trkpt>
      <trkpt lat="47.544724" lon="1.7889637">
        <ele>147</ele>
        <time>2022-03-17T10:33:15.000Z</time>
      </trkpt>
      <trkpt lat="47.544712" lon="1.7889711">
        <ele>147</ele>
        <time>2022-03-17T10:33:16.000Z</time>
      </trkpt>
      <trkpt lat="47.5447" lon="1.7889861">
        <ele>147</ele>
        <time>2022-03-17T10:33:17.000Z</time>
      </trkpt>
      <trkpt lat="47.54469" lon="1.7889992">
        <ele>147</ele>
        <time>2022-03-17T10:33:18.000Z</time>
      </trkpt>
      <trkpt lat="47.544678" lon="1.7890129">
        <ele>147</ele>
        <time>2022-03-17T10:33:19.000Z</time>
      </trkpt>
      <trkpt lat="47.544674" lon="1.7890209">
        <ele>147</ele>
        <time>2022-03-17T10:33:20.000Z</time>
      </trkpt>
      <trkpt lat="47.54466" lon="1.7890345">
        <ele>146</ele>
        <time>2022-03-17T10:33:21.000Z</time>
      </trkpt>
      <trkpt lat="47.544647" lon="1.7890446">
        <ele>147</ele>
        <time>2022-03-17T10:33:22.000Z</time>
      </trkpt>
      <trkpt lat="47.544636" lon="1.7890455">
        <ele>147</ele>
        <time>2022-03-17T10:33:23.000Z</time>
      </trkpt>
      <trkpt lat="47.54463" lon="1.7890517">
        <ele>148</ele>
        <time>2022-03-17T10:33:24.000Z</time>
      </trkpt>
      <trkpt lat="47.544617" lon="1.7890555">
        <ele>148</ele>
        <time>2022-03-17T10:33:25.000Z</time>
      </trkpt>
      <trkpt lat="47.544605" lon="1.7890661">
        <ele>149</ele>
        <time>2022-03-17T10:33:26.000Z</time>
      </trkpt>
      <trkpt lat="47.544598" lon="1.7890748">
        <ele>149</ele>
        <time>2022-03-17T10:33:27.000Z</time>
      </trkpt>
      <trkpt lat="47.544586" lon="1.7890844">
        <ele>148</ele>
        <time>2022-03-17T10:33:28.000Z</time>
      </trkpt>
      <trkpt lat="47.54458" lon="1.7890971">
        <ele>148</ele>
        <time>2022-03-17T10:33:29.000Z</time>
      </trkpt>
      <trkpt lat="47.54457" lon="1.7891091">
        <ele>148</ele>
        <time>2022-03-17T10:33:30.000Z</time>
      </trkpt>
      <trkpt lat="47.54456" lon="1.7891196">
        <ele>148</ele>
        <time>2022-03-17T10:33:31.000Z</time>
      </trkpt>
      <trkpt lat="47.54455" lon="1.7891335">
        <ele>149</ele>
        <time>2022-03-17T10:33:32.000Z</time>
      </trkpt>
      <trkpt lat="47.54454" lon="1.7891412">
        <ele>150</ele>
        <time>2022-03-17T10:33:33.000Z</time>
      </trkpt>
      <trkpt lat="47.54453" lon="1.789154">
        <ele>150</ele>
        <time>2022-03-17T10:33:34.000Z</time>
      </trkpt>
      <trkpt lat="47.54452" lon="1.7891603">
        <ele>150</ele>
        <time>2022-03-17T10:33:35.000Z</time>
      </trkpt>
      <trkpt lat="47.544514" lon="1.7891701">
        <ele>151</ele>
        <time>2022-03-17T10:33:36.000Z</time>
      </trkpt>
      <trkpt lat="47.544506" lon="1.789181">
        <ele>151</ele>
        <time>2022-03-17T10:33:37.000Z</time>
      </trkpt>
      <trkpt lat="47.5445" lon="1.7891904">
        <ele>151</ele>
        <time>2022-03-17T10:33:38.000Z</time>
      </trkpt>
      <trkpt lat="47.54449" lon="1.7892005">
        <ele>151</ele>
        <time>2022-03-17T10:33:39.000Z</time>
      </trkpt>
      <trkpt lat="47.544476" lon="1.7892102">
        <ele>151</ele>
        <time>2022-03-17T10:33:40.000Z</time>
      </trkpt>
      <trkpt lat="47.544468" lon="1.7892196">
        <ele>151</ele>
        <time>2022-03-17T10:33:41.000Z</time>
      </trkpt>
      <trkpt lat="47.544456" lon="1.7892386">
        <ele>151</ele>
        <time>2022-03-17T10:33:42.000Z</time>
      </trkpt>
      <trkpt lat="47.544445" lon="1.7892537">
        <ele>151</ele>
        <time>2022-03-17T10:33:43.000Z</time>
      </trkpt>
      <trkpt lat="47.544434" lon="1.7892668">
        <ele>150</ele>
        <time>2022-03-17T10:33:44.000Z</time>
      </trkpt>
      <trkpt lat="47.544422" lon="1.7892786">
        <ele>151</ele>
        <time>2022-03-17T10:33:45.000Z</time>
      </trkpt>
      <trkpt lat="47.54441" lon="1.7892846">
        <ele>152</ele>
        <time>2022-03-17T10:33:46.000Z</time>
      </trkpt>
      <trkpt lat="47.544403" lon="1.7892932">
        <ele>151</ele>
        <time>2022-03-17T10:33:47.000Z</time>
      </trkpt>
      <trkpt lat="47.54439" lon="1.7893022">
        <ele>151</ele>
        <time>2022-03-17T10:33:48.000Z</time>
      </trkpt>
      <trkpt lat="47.544384" lon="1.7893146">
        <ele>151</ele>
        <time>2022-03-17T10:33:49.000Z</time>
      </trkpt>
      <trkpt lat="47.54437" lon="1.7893187">
        <ele>151</ele>
        <time>2022-03-17T10:33:50.000Z</time>
      </trkpt>
      <trkpt lat="47.544357" lon="1.7893374">
        <ele>151</ele>
        <time>2022-03-17T10:33:51.000Z</time>
      </trkpt>
      <trkpt lat="47.544346" lon="1.7893509">
        <ele>151</ele>
        <time>2022-03-17T10:33:52.000Z</time>
      </trkpt>
      <trkpt lat="47.544334" lon="1.7893583">
        <ele>151</ele>
        <time>2022-03-17T10:33:53.000Z</time>
      </trkpt>
      <trkpt lat="47.544323" lon="1.7893711">
        <ele>151</ele>
        <time>2022-03-17T10:33:54.000Z</time>
      </trkpt>
      <trkpt lat="47.54431" lon="1.7893836">
        <ele>151</ele>
        <time>2022-03-17T10:33:55.000Z</time>
      </trkpt>
      <trkpt lat="47.544304" lon="1.7893969">
        <ele>151</ele>
        <time>2022-03-17T10:33:56.000Z</time>
      </trkpt>
      <trkpt lat="47.544296" lon="1.7894093">
        <ele>151</ele>
        <time>2022-03-17T10:33:57.000Z</time>
      </trkpt>
      <trkpt lat="47.54429" lon="1.789427">
        <ele>151</ele>
        <time>2022-03-17T10:33:58.000Z</time>
      </trkpt>
      <trkpt lat="47.54428" lon="1.7894365">
        <ele>152</ele>
        <time>2022-03-17T10:33:59.000Z</time>
      </trkpt>
      <trkpt lat="47.544273" lon="1.7894428">
        <ele>151</ele>
        <time>2022-03-17T10:34:00.000Z</time>
      </trkpt>
      <trkpt lat="47.544262" lon="1.7894429">
        <ele>152</ele>
        <time>2022-03-17T10:34:01.000Z</time>
      </trkpt>
      <trkpt lat="47.544254" lon="1.7894518">
        <ele>152</ele>
        <time>2022-03-17T10:34:02.000Z</time>
      </trkpt>
      <trkpt lat="47.544247" lon="1.7894596">
        <ele>152</ele>
        <time>2022-03-17T10:34:03.000Z</time>
      </trkpt>
      <trkpt lat="47.54424" lon="1.789467">
        <ele>151</ele>
        <time>2022-03-17T10:34:04.000Z</time>
      </trkpt>
      <trkpt lat="47.54423" lon="1.7894782">
        <ele>151</ele>
        <time>2022-03-17T10:34:05.000Z</time>
      </trkpt>
      <trkpt lat="47.54422" lon="1.7894884">
        <ele>151</ele>
        <time>2022-03-17T10:34:06.000Z</time>
      </trkpt>
      <trkpt lat="47.544212" lon="1.789499">
        <ele>151</ele>
        <time>2022-03-17T10:34:07.000Z</time>
      </trkpt>
      <trkpt lat="47.5442" lon="1.7895137">
        <ele>151</ele>
        <time>2022-03-17T10:34:08.000Z</time>
      </trkpt>
      <trkpt lat="47.54419" lon="1.7895256">
        <ele>152</ele>
        <time>2022-03-17T10:34:09.000Z</time>
      </trkpt>
      <trkpt lat="47.544178" lon="1.7895397">
        <ele>152</ele>
        <time>2022-03-17T10:34:10.000Z</time>
      </trkpt>
      <trkpt lat="47.544167" lon="1.7895585">
        <ele>153</ele>
        <time>2022-03-17T10:34:11.000Z</time>
      </trkpt>
      <trkpt lat="47.54416" lon="1.7895682">
        <ele>153</ele>
        <time>2022-03-17T10:34:12.000Z</time>
      </trkpt>
      <trkpt lat="47.54415" lon="1.7895796">
        <ele>152</ele>
        <time>2022-03-17T10:34:13.000Z</time>
      </trkpt>
      <trkpt lat="47.54414" lon="1.7895944">
        <ele>152</ele>
        <time>2022-03-17T10:34:14.000Z</time>
      </trkpt>
      <trkpt lat="47.544132" lon="1.7896104">
        <ele>152</ele>
        <time>2022-03-17T10:34:15.000Z</time>
      </trkpt>
      <trkpt lat="47.54412" lon="1.7896249">
        <ele>152</ele>
        <time>2022-03-17T10:34:16.000Z</time>
      </trkpt>
      <trkpt lat="47.544113" lon="1.7896395">
        <ele>152</ele>
        <time>2022-03-17T10:34:17.000Z</time>
      </trkpt>
      <trkpt lat="47.544106" lon="1.7896509">
        <ele>152</ele>
        <time>2022-03-17T10:34:18.000Z</time>
      </trkpt>
      <trkpt lat="47.544094" lon="1.7896638">
        <ele>151</ele>
        <time>2022-03-17T10:34:19.000Z</time>
      </trkpt>
      <trkpt lat="47.544083" lon="1.7896698">
        <ele>151</ele>
        <time>2022-03-17T10:34:20.000Z</time>
      </trkpt>
      <trkpt lat="47.54407" lon="1.7896733">
        <ele>152</ele>
        <time>2022-03-17T10:34:21.000Z</time>
      </trkpt>
      <trkpt lat="47.544056" lon="1.7896785">
        <ele>152</ele>
        <time>2022-03-17T10:34:22.000Z</time>
      </trkpt>
      <trkpt lat="47.544044" lon="1.789683">
        <ele>152</ele>
        <time>2022-03-17T10:34:23.000Z</time>
      </trkpt>
      <trkpt lat="47.544033" lon="1.7896882">
        <ele>152</ele>
        <time>2022-03-17T10:34:24.000Z</time>
      </trkpt>
      <trkpt lat="47.54402" lon="1.7896945">
        <ele>151</ele>
        <time>2022-03-17T10:34:25.000Z</time>
      </trkpt>
      <trkpt lat="47.544006" lon="1.7897004">
        <ele>151</ele>
        <time>2022-03-17T10:34:26.000Z</time>
      </trkpt>
      <trkpt lat="47.54399" lon="1.789704">
        <ele>151</ele>
        <time>2022-03-17T10:34:27.000Z</time>
      </trkpt>
      <trkpt lat="47.543983" lon="1.7897172">
        <ele>151</ele>
        <time>2022-03-17T10:34:28.000Z</time>
      </trkpt>
      <trkpt lat="47.543972" lon="1.7897276">
        <ele>150</ele>
        <time>2022-03-17T10:34:29.000Z</time>
      </trkpt>
      <trkpt lat="47.543957" lon="1.7897314">
        <ele>150</ele>
        <time>2022-03-17T10:34:30.000Z</time>
      </trkpt>
      <trkpt lat="47.543945" lon="1.7897387">
        <ele>150</ele>
        <time>2022-03-17T10:34:31.000Z</time>
      </trkpt>
      <trkpt lat="47.543934" lon="1.7897476">
        <ele>149</ele>
        <time>2022-03-17T10:34:32.000Z</time>
      </trkpt>
      <trkpt lat="47.543922" lon="1.7897555">
        <ele>149</ele>
        <time>2022-03-17T10:34:33.000Z</time>
      </trkpt>
      <trkpt lat="47.54391" lon="1.7897656">
        <ele>149</ele>
        <time>2022-03-17T10:34:34.000Z</time>
      </trkpt>
      <trkpt lat="47.543903" lon="1.7897748">
        <ele>148</ele>
        <time>2022-03-17T10:34:35.000Z</time>
      </trkpt>
      <trkpt lat="47.54389" lon="1.789784">
        <ele>148</ele>
        <time>2022-03-17T10:34:36.000Z</time>
      </trkpt>
      <trkpt lat="47.54388" lon="1.7897973">
        <ele>149</ele>
        <time>2022-03-17T10:34:37.000Z</time>
      </trkpt>
      <trkpt lat="47.54387" lon="1.7898054">
        <ele>148</ele>
        <time>2022-03-17T10:34:38.000Z</time>
      </trkpt>
      <trkpt lat="47.54386" lon="1.789815">
        <ele>148</ele>
        <time>2022-03-17T10:34:39.000Z</time>
      </trkpt>
      <trkpt lat="47.54385" lon="1.7898227">
        <ele>148</ele>
        <time>2022-03-17T10:34:40.000Z</time>
      </trkpt>
      <trkpt lat="47.543846" lon="1.7898301">
        <ele>148</ele>
        <time>2022-03-17T10:34:41.000Z</time>
      </trkpt>
      <trkpt lat="47.54384" lon="1.7898409">
        <ele>148</ele>
        <time>2022-03-17T10:34:42.000Z</time>
      </trkpt>
      <trkpt lat="47.54383" lon="1.789852">
        <ele>147</ele>
        <time>2022-03-17T10:34:43.000Z</time>
      </trkpt>
      <trkpt lat="47.543823" lon="1.7898618">
        <ele>147</ele>
        <time>2022-03-17T10:34:44.000Z</time>
      </trkpt>
      <trkpt lat="47.543816" lon="1.7898709">
        <ele>146</ele>
        <time>2022-03-17T10:34:45.000Z</time>
      </trkpt>
      <trkpt lat="47.543804" lon="1.7898788">
        <ele>146</ele>
        <time>2022-03-17T10:34:46.000Z</time>
      </trkpt>
      <trkpt lat="47.543797" lon="1.7898905">
        <ele>146</ele>
        <time>2022-03-17T10:34:47.000Z</time>
      </trkpt>
      <trkpt lat="47.543793" lon="1.7899045">
        <ele>146</ele>
        <time>2022-03-17T10:34:48.000Z</time>
      </trkpt>
      <trkpt lat="47.543785" lon="1.7899173">
        <ele>146</ele>
        <time>2022-03-17T10:34:49.000Z</time>
      </trkpt>
      <trkpt lat="47.543777" lon="1.789927">
        <ele>146</ele>
        <time>2022-03-17T10:34:50.000Z</time>
      </trkpt>
      <trkpt lat="47.543766" lon="1.7899342">
        <ele>145</ele>
        <time>2022-03-17T10:34:51.000Z</time>
      </trkpt>
      <trkpt lat="47.54376" lon="1.7899454">
        <ele>146</ele>
        <time>2022-03-17T10:34:52.000Z</time>
      </trkpt>
      <trkpt lat="47.543747" lon="1.7899526">
        <ele>146</ele>
        <time>2022-03-17T10:34:53.000Z</time>
      </trkpt>
      <trkpt lat="47.543736" lon="1.7899624">
        <ele>145</ele>
        <time>2022-03-17T10:34:54.000Z</time>
      </trkpt>
      <trkpt lat="47.543724" lon="1.7899761">
        <ele>145</ele>
        <time>2022-03-17T10:34:55.000Z</time>
      </trkpt>
      <trkpt lat="47.543713" lon="1.7899898">
        <ele>146</ele>
        <time>2022-03-17T10:34:56.000Z</time>
      </trkpt>
      <trkpt lat="47.5437" lon="1.7899964">
        <ele>146</ele>
        <time>2022-03-17T10:34:57.000Z</time>
      </trkpt>
      <trkpt lat="47.543694" lon="1.790006">
        <ele>146</ele>
        <time>2022-03-17T10:34:58.000Z</time>
      </trkpt>
      <trkpt lat="47.543682" lon="1.7900113">
        <ele>146</ele>
        <time>2022-03-17T10:34:59.000Z</time>
      </trkpt>
      <trkpt lat="47.54367" lon="1.7900203">
        <ele>146</ele>
        <time>2022-03-17T10:35:00.000Z</time>
      </trkpt>
      <trkpt lat="47.54366" lon="1.7900286">
        <ele>145</ele>
        <time>2022-03-17T10:35:01.000Z</time>
      </trkpt>
      <trkpt lat="47.543644" lon="1.7900333">
        <ele>146</ele>
        <time>2022-03-17T10:35:02.000Z</time>
      </trkpt>
      <trkpt lat="47.543633" lon="1.7900474">
        <ele>146</ele>
        <time>2022-03-17T10:35:03.000Z</time>
      </trkpt>
      <trkpt lat="47.543625" lon="1.790061">
        <ele>146</ele>
        <time>2022-03-17T10:35:04.000Z</time>
      </trkpt>
      <trkpt lat="47.543613" lon="1.7900656">
        <ele>147</ele>
        <time>2022-03-17T10:35:05.000Z</time>
      </trkpt>
      <trkpt lat="47.543602" lon="1.7900714">
        <ele>147</ele>
        <time>2022-03-17T10:35:06.000Z</time>
      </trkpt>
      <trkpt lat="47.54359" lon="1.7900734">
        <ele>147</ele>
        <time>2022-03-17T10:35:07.000Z</time>
      </trkpt>
      <trkpt lat="47.543587" lon="1.7900851">
        <ele>147</ele>
        <time>2022-03-17T10:35:08.000Z</time>
      </trkpt>
      <trkpt lat="47.543575" lon="1.7900889">
        <ele>147</ele>
        <time>2022-03-17T10:35:09.000Z</time>
      </trkpt>
      <trkpt lat="47.543564" lon="1.7900983">
        <ele>147</ele>
        <time>2022-03-17T10:35:10.000Z</time>
      </trkpt>
      <trkpt lat="47.543552" lon="1.7901095">
        <ele>147</ele>
        <time>2022-03-17T10:35:11.000Z</time>
      </trkpt>
      <trkpt lat="47.54354" lon="1.7901129">
        <ele>147</ele>
        <time>2022-03-17T10:35:12.000Z</time>
      </trkpt>
      <trkpt lat="47.543533" lon="1.7901193">
        <ele>147</ele>
        <time>2022-03-17T10:35:13.000Z</time>
      </trkpt>
      <trkpt lat="47.543526" lon="1.790125">
        <ele>147</ele>
        <time>2022-03-17T10:35:14.000Z</time>
      </trkpt>
      <trkpt lat="47.543514" lon="1.7901334">
        <ele>146</ele>
        <time>2022-03-17T10:35:15.000Z</time>
      </trkpt>
      <trkpt lat="47.543503" lon="1.7901417">
        <ele>146</ele>
        <time>2022-03-17T10:35:16.000Z</time>
      </trkpt>
      <trkpt lat="47.54349" lon="1.7901533">
        <ele>146</ele>
        <time>2022-03-17T10:35:17.000Z</time>
      </trkpt>
      <trkpt lat="47.543476" lon="1.790167">
        <ele>146</ele>
        <time>2022-03-17T10:35:18.000Z</time>
      </trkpt>
      <trkpt lat="47.543465" lon="1.7901783">
        <ele>146</ele>
        <time>2022-03-17T10:35:19.000Z</time>
      </trkpt>
      <trkpt lat="47.543453" lon="1.790194">
        <ele>147</ele>
        <time>2022-03-17T10:35:20.000Z</time>
      </trkpt>
      <trkpt lat="47.543446" lon="1.790205">
        <ele>147</ele>
        <time>2022-03-17T10:35:21.000Z</time>
      </trkpt>
      <trkpt lat="47.543438" lon="1.7902197">
        <ele>147</ele>
        <time>2022-03-17T10:35:22.000Z</time>
      </trkpt>
      <trkpt lat="47.543427" lon="1.7902346">
        <ele>147</ele>
        <time>2022-03-17T10:35:23.000Z</time>
      </trkpt>
      <trkpt lat="47.54342" lon="1.7902521">
        <ele>147</ele>
        <time>2022-03-17T10:35:24.000Z</time>
      </trkpt>
      <trkpt lat="47.543407" lon="1.7902696">
        <ele>147</ele>
        <time>2022-03-17T10:35:25.000Z</time>
      </trkpt>
      <trkpt lat="47.543404" lon="1.7902853">
        <ele>146</ele>
        <time>2022-03-17T10:35:26.000Z</time>
      </trkpt>
      <trkpt lat="47.543396" lon="1.7902988">
        <ele>146</ele>
        <time>2022-03-17T10:35:27.000Z</time>
      </trkpt>
      <trkpt lat="47.54339" lon="1.7903082">
        <ele>146</ele>
        <time>2022-03-17T10:35:28.000Z</time>
      </trkpt>
      <trkpt lat="47.54338" lon="1.7903196">
        <ele>146</ele>
        <time>2022-03-17T10:35:29.000Z</time>
      </trkpt>
      <trkpt lat="47.543377" lon="1.79034">
        <ele>146</ele>
        <time>2022-03-17T10:35:30.000Z</time>
      </trkpt>
      <trkpt lat="47.543377" lon="1.7903614">
        <ele>147</ele>
        <time>2022-03-17T10:35:31.000Z</time>
      </trkpt>
      <trkpt lat="47.543373" lon="1.7903794">
        <ele>147</ele>
        <time>2022-03-17T10:35:32.000Z</time>
      </trkpt>
      <trkpt lat="47.543365" lon="1.7903957">
        <ele>147</ele>
        <time>2022-03-17T10:35:33.000Z</time>
      </trkpt>
      <trkpt lat="47.54336" lon="1.790413">
        <ele>147</ele>
        <time>2022-03-17T10:35:34.000Z</time>
      </trkpt>
      <trkpt lat="47.543358" lon="1.7904315">
        <ele>148</ele>
        <time>2022-03-17T10:35:35.000Z</time>
      </trkpt>
      <trkpt lat="47.543354" lon="1.7904478">
        <ele>148</ele>
        <time>2022-03-17T10:35:36.000Z</time>
      </trkpt>
      <trkpt lat="47.54335" lon="1.7904648">
        <ele>148</ele>
        <time>2022-03-17T10:35:37.000Z</time>
      </trkpt>
      <trkpt lat="47.543343" lon="1.7904825">
        <ele>148</ele>
        <time>2022-03-17T10:35:38.000Z</time>
      </trkpt>
      <trkpt lat="47.54334" lon="1.7904997">
        <ele>148</ele>
        <time>2022-03-17T10:35:39.000Z</time>
      </trkpt>
      <trkpt lat="47.54333" lon="1.7905169">
        <ele>148</ele>
        <time>2022-03-17T10:35:40.000Z</time>
      </trkpt>
      <trkpt lat="47.543327" lon="1.790531">
        <ele>148</ele>
        <time>2022-03-17T10:35:41.000Z</time>
      </trkpt>
      <trkpt lat="47.54332" lon="1.790548">
        <ele>148</ele>
        <time>2022-03-17T10:35:42.000Z</time>
      </trkpt>
      <trkpt lat="47.543312" lon="1.7905674">
        <ele>147</ele>
        <time>2022-03-17T10:35:43.000Z</time>
      </trkpt>
      <trkpt lat="47.543312" lon="1.7905856">
        <ele>147</ele>
        <time>2022-03-17T10:35:44.000Z</time>
      </trkpt>
      <trkpt lat="47.543304" lon="1.7906065">
        <ele>147</ele>
        <time>2022-03-17T10:35:45.000Z</time>
      </trkpt>
      <trkpt lat="47.5433" lon="1.7906237">
        <ele>147</ele>
        <time>2022-03-17T10:35:46.000Z</time>
      </trkpt>
      <trkpt lat="47.543297" lon="1.7906429">
        <ele>148</ele>
        <time>2022-03-17T10:35:47.000Z</time>
      </trkpt>
      <trkpt lat="47.54329" lon="1.7906592">
        <ele>148</ele>
        <time>2022-03-17T10:35:48.000Z</time>
      </trkpt>
      <trkpt lat="47.543285" lon="1.7906785">
        <ele>148</ele>
        <time>2022-03-17T10:35:49.000Z</time>
      </trkpt>
      <trkpt lat="47.543278" lon="1.7906969">
        <ele>149</ele>
        <time>2022-03-17T10:35:50.000Z</time>
      </trkpt>
      <trkpt lat="47.543274" lon="1.7907081">
        <ele>149</ele>
        <time>2022-03-17T10:35:51.000Z</time>
      </trkpt>
      <trkpt lat="47.543274" lon="1.7907252">
        <ele>149</ele>
        <time>2022-03-17T10:35:52.000Z</time>
      </trkpt>
      <trkpt lat="47.543274" lon="1.7907426">
        <ele>149</ele>
        <time>2022-03-17T10:35:53.000Z</time>
      </trkpt>
      <trkpt lat="47.543266" lon="1.7907546">
        <ele>149</ele>
        <time>2022-03-17T10:35:54.000Z</time>
      </trkpt>
      <trkpt lat="47.543266" lon="1.7907685">
        <ele>149</ele>
        <time>2022-03-17T10:35:55.000Z</time>
      </trkpt>
      <trkpt lat="47.543262" lon="1.7907876">
        <ele>149</ele>
        <time>2022-03-17T10:35:56.000Z</time>
      </trkpt>
      <trkpt lat="47.543255" lon="1.7908045">
        <ele>149</ele>
        <time>2022-03-17T10:35:57.000Z</time>
      </trkpt>
      <trkpt lat="47.54325" lon="1.7908229">
        <ele>149</ele>
        <time>2022-03-17T10:35:58.000Z</time>
      </trkpt>
      <trkpt lat="47.543247" lon="1.790843">
        <ele>148</ele>
        <time>2022-03-17T10:35:59.000Z</time>
      </trkpt>
      <trkpt lat="47.543243" lon="1.7908629">
        <ele>148</ele>
        <time>2022-03-17T10:36:00.000Z</time>
      </trkpt>
      <trkpt lat="47.54324" lon="1.7908839">
        <ele>148</ele>
        <time>2022-03-17T10:36:01.000Z</time>
      </trkpt>
      <trkpt lat="47.543236" lon="1.7908953">
        <ele>148</ele>
        <time>2022-03-17T10:36:02.000Z</time>
      </trkpt>
      <trkpt lat="47.543232" lon="1.7909069">
        <ele>148</ele>
        <time>2022-03-17T10:36:03.000Z</time>
      </trkpt>
      <trkpt lat="47.54323" lon="1.7909243">
        <ele>147</ele>
        <time>2022-03-17T10:36:04.000Z</time>
      </trkpt>
      <trkpt lat="47.54323" lon="1.7909436">
        <ele>147</ele>
        <time>2022-03-17T10:36:05.000Z</time>
      </trkpt>
      <trkpt lat="47.543224" lon="1.79096">
        <ele>147</ele>
        <time>2022-03-17T10:36:06.000Z</time>
      </trkpt>
      <trkpt lat="47.54322" lon="1.7909762">
        <ele>148</ele>
        <time>2022-03-17T10:36:07.000Z</time>
      </trkpt>
      <trkpt lat="47.543217" lon="1.7909937">
        <ele>148</ele>
        <time>2022-03-17T10:36:08.000Z</time>
      </trkpt>
      <trkpt lat="47.54321" lon="1.7910063">
        <ele>148</ele>
        <time>2022-03-17T10:36:09.000Z</time>
      </trkpt>
      <trkpt lat="47.54321" lon="1.7910187">
        <ele>148</ele>
        <time>2022-03-17T10:36:10.000Z</time>
      </trkpt>
      <trkpt lat="47.5432" lon="1.7910393">
        <ele>148</ele>
        <time>2022-03-17T10:36:11.000Z</time>
      </trkpt>
      <trkpt lat="47.543198" lon="1.7910584">
        <ele>148</ele>
        <time>2022-03-17T10:36:12.000Z</time>
      </trkpt>
      <trkpt lat="47.543194" lon="1.7910736">
        <ele>148</ele>
        <time>2022-03-17T10:36:13.000Z</time>
      </trkpt>
      <trkpt lat="47.543186" lon="1.7910916">
        <ele>149</ele>
        <time>2022-03-17T10:36:14.000Z</time>
      </trkpt>
      <trkpt lat="47.543182" lon="1.7911047">
        <ele>149</ele>
        <time>2022-03-17T10:36:15.000Z</time>
      </trkpt>
      <trkpt lat="47.543175" lon="1.7911124">
        <ele>148</ele>
        <time>2022-03-17T10:36:16.000Z</time>
      </trkpt>
      <trkpt lat="47.54317" lon="1.7911232">
        <ele>149</ele>
        <time>2022-03-17T10:36:17.000Z</time>
      </trkpt>
      <trkpt lat="47.543163" lon="1.7911432">
        <ele>149</ele>
        <time>2022-03-17T10:36:18.000Z</time>
      </trkpt>
      <trkpt lat="47.54316" lon="1.7911638">
        <ele>150</ele>
        <time>2022-03-17T10:36:19.000Z</time>
      </trkpt>
      <trkpt lat="47.543156" lon="1.7911828">
        <ele>149</ele>
        <time>2022-03-17T10:36:20.000Z</time>
      </trkpt>
      <trkpt lat="47.543148" lon="1.791205">
        <ele>150</ele>
        <time>2022-03-17T10:36:21.000Z</time>
      </trkpt>
      <trkpt lat="47.543144" lon="1.7912257">
        <ele>150</ele>
        <time>2022-03-17T10:36:22.000Z</time>
      </trkpt>
      <trkpt lat="47.543144" lon="1.7912444">
        <ele>150</ele>
        <time>2022-03-17T10:36:23.000Z</time>
      </trkpt>
      <trkpt lat="47.54314" lon="1.7912563">
        <ele>150</ele>
        <time>2022-03-17T10:36:24.000Z</time>
      </trkpt>
      <trkpt lat="47.543137" lon="1.7912669">
        <ele>150</ele>
        <time>2022-03-17T10:36:25.000Z</time>
      </trkpt>
      <trkpt lat="47.54313" lon="1.7912832">
        <ele>150</ele>
        <time>2022-03-17T10:36:26.000Z</time>
      </trkpt>
      <trkpt lat="47.54313" lon="1.7913027">
        <ele>150</ele>
        <time>2022-03-17T10:36:27.000Z</time>
      </trkpt>
      <trkpt lat="47.54313" lon="1.7913221">
        <ele>150</ele>
        <time>2022-03-17T10:36:28.000Z</time>
      </trkpt>
      <trkpt lat="47.54312" lon="1.7913421">
        <ele>150</ele>
        <time>2022-03-17T10:36:29.000Z</time>
      </trkpt>
      <trkpt lat="47.543114" lon="1.7913612">
        <ele>150</ele>
        <time>2022-03-17T10:36:30.000Z</time>
      </trkpt>
      <trkpt lat="47.54311" lon="1.7913755">
        <ele>149</ele>
        <time>2022-03-17T10:36:31.000Z</time>
      </trkpt>
      <trkpt lat="47.543106" lon="1.7913945">
        <ele>150</ele>
        <time>2022-03-17T10:36:32.000Z</time>
      </trkpt>
      <trkpt lat="47.543102" lon="1.7914095">
        <ele>150</ele>
        <time>2022-03-17T10:36:33.000Z</time>
      </trkpt>
      <trkpt lat="47.543095" lon="1.7914244">
        <ele>150</ele>
        <time>2022-03-17T10:36:34.000Z</time>
      </trkpt>
      <trkpt lat="47.543087" lon="1.7914422">
        <ele>151</ele>
        <time>2022-03-17T10:36:35.000Z</time>
      </trkpt>
      <trkpt lat="47.543083" lon="1.7914602">
        <ele>150</ele>
        <time>2022-03-17T10:36:36.000Z</time>
      </trkpt>
      <trkpt lat="47.543076" lon="1.7914809">
        <ele>150</ele>
        <time>2022-03-17T10:36:37.000Z</time>
      </trkpt>
      <trkpt lat="47.543068" lon="1.7914997">
        <ele>150</ele>
        <time>2022-03-17T10:36:38.000Z</time>
      </trkpt>
      <trkpt lat="47.54306" lon="1.7915134">
        <ele>150</ele>
        <time>2022-03-17T10:36:39.000Z</time>
      </trkpt>
      <trkpt lat="47.543053" lon="1.7915277">
        <ele>150</ele>
        <time>2022-03-17T10:36:40.000Z</time>
      </trkpt>
      <trkpt lat="47.54305" lon="1.7915441">
        <ele>149</ele>
        <time>2022-03-17T10:36:41.000Z</time>
      </trkpt>
      <trkpt lat="47.54304" lon="1.7915576">
        <ele>149</ele>
        <time>2022-03-17T10:36:42.000Z</time>
      </trkpt>
      <trkpt lat="47.543034" lon="1.7915672">
        <ele>149</ele>
        <time>2022-03-17T10:36:43.000Z</time>
      </trkpt>
      <trkpt lat="47.543026" lon="1.7915827">
        <ele>149</ele>
        <time>2022-03-17T10:36:44.000Z</time>
      </trkpt>
      <trkpt lat="47.543022" lon="1.7916021">
        <ele>149</ele>
        <time>2022-03-17T10:36:45.000Z</time>
      </trkpt>
      <trkpt lat="47.543015" lon="1.7916214">
        <ele>149</ele>
        <time>2022-03-17T10:36:46.000Z</time>
      </trkpt>
      <trkpt lat="47.54301" lon="1.791639">
        <ele>149</ele>
        <time>2022-03-17T10:36:47.000Z</time>
      </trkpt>
      <trkpt lat="47.54301" lon="1.7916585">
        <ele>149</ele>
        <time>2022-03-17T10:36:48.000Z</time>
      </trkpt>
      <trkpt lat="47.543007" lon="1.7916778">
        <ele>148</ele>
        <time>2022-03-17T10:36:49.000Z</time>
      </trkpt>
      <trkpt lat="47.543" lon="1.7916937">
        <ele>149</ele>
        <time>2022-03-17T10:36:50.000Z</time>
      </trkpt>
      <trkpt lat="47.542995" lon="1.7917105">
        <ele>149</ele>
        <time>2022-03-17T10:36:51.000Z</time>
      </trkpt>
      <trkpt lat="47.542988" lon="1.791727">
        <ele>149</ele>
        <time>2022-03-17T10:36:52.000Z</time>
      </trkpt>
      <trkpt lat="47.542984" lon="1.7917409">
        <ele>149</ele>
        <time>2022-03-17T10:36:53.000Z</time>
      </trkpt>
      <trkpt lat="47.542976" lon="1.7917557">
        <ele>149</ele>
        <time>2022-03-17T10:36:54.000Z</time>
      </trkpt>
      <trkpt lat="47.542973" lon="1.791771">
        <ele>150</ele>
        <time>2022-03-17T10:36:55.000Z</time>
      </trkpt>
      <trkpt lat="47.54297" lon="1.7917869">
        <ele>149</ele>
        <time>2022-03-17T10:36:56.000Z</time>
      </trkpt>
      <trkpt lat="47.54296" lon="1.7918053">
        <ele>149</ele>
        <time>2022-03-17T10:36:57.000Z</time>
      </trkpt>
      <trkpt lat="47.542953" lon="1.791815">
        <ele>149</ele>
        <time>2022-03-17T10:36:58.000Z</time>
      </trkpt>
      <trkpt lat="47.542946" lon="1.7918284">
        <ele>149</ele>
        <time>2022-03-17T10:36:59.000Z</time>
      </trkpt>
      <trkpt lat="47.54294" lon="1.7918466">
        <ele>149</ele>
        <time>2022-03-17T10:37:00.000Z</time>
      </trkpt>
      <trkpt lat="47.542934" lon="1.7918595">
        <ele>150</ele>
        <time>2022-03-17T10:37:01.000Z</time>
      </trkpt>
      <trkpt lat="47.542927" lon="1.7918743">
        <ele>149</ele>
        <time>2022-03-17T10:37:02.000Z</time>
      </trkpt>
      <trkpt lat="47.54292" lon="1.791889">
        <ele>149</ele>
        <time>2022-03-17T10:37:03.000Z</time>
      </trkpt>
      <trkpt lat="47.542915" lon="1.7919">
        <ele>149</ele>
        <time>2022-03-17T10:37:04.000Z</time>
      </trkpt>
      <trkpt lat="47.542908" lon="1.7919159">
        <ele>148</ele>
        <time>2022-03-17T10:37:05.000Z</time>
      </trkpt>
      <trkpt lat="47.542904" lon="1.7919316">
        <ele>148</ele>
        <time>2022-03-17T10:37:06.000Z</time>
      </trkpt>
      <trkpt lat="47.542896" lon="1.7919486">
        <ele>148</ele>
        <time>2022-03-17T10:37:07.000Z</time>
      </trkpt>
      <trkpt lat="47.54289" lon="1.7919656">
        <ele>147</ele>
        <time>2022-03-17T10:37:08.000Z</time>
      </trkpt>
      <trkpt lat="47.54288" lon="1.7919818">
        <ele>147</ele>
        <time>2022-03-17T10:37:09.000Z</time>
      </trkpt>
      <trkpt lat="47.542873" lon="1.7919972">
        <ele>146</ele>
        <time>2022-03-17T10:37:10.000Z</time>
      </trkpt>
      <trkpt lat="47.542866" lon="1.7920145">
        <ele>147</ele>
        <time>2022-03-17T10:37:11.000Z</time>
      </trkpt>
      <trkpt lat="47.54286" lon="1.7920275">
        <ele>147</ele>
        <time>2022-03-17T10:37:12.000Z</time>
      </trkpt>
      <trkpt lat="47.542854" lon="1.7920438">
        <ele>147</ele>
        <time>2022-03-17T10:37:13.000Z</time>
      </trkpt>
      <trkpt lat="47.542843" lon="1.7920551">
        <ele>147</ele>
        <time>2022-03-17T10:37:14.000Z</time>
      </trkpt>
      <trkpt lat="47.542835" lon="1.7920698">
        <ele>147</ele>
        <time>2022-03-17T10:37:15.000Z</time>
      </trkpt>
      <trkpt lat="47.54283" lon="1.7920867">
        <ele>147</ele>
        <time>2022-03-17T10:37:16.000Z</time>
      </trkpt>
      <trkpt lat="47.542824" lon="1.7921035">
        <ele>147</ele>
        <time>2022-03-17T10:37:17.000Z</time>
      </trkpt>
      <trkpt lat="47.54282" lon="1.7921157">
        <ele>147</ele>
        <time>2022-03-17T10:37:18.000Z</time>
      </trkpt>
      <trkpt lat="47.54281" lon="1.7921325">
        <ele>147</ele>
        <time>2022-03-17T10:37:19.000Z</time>
      </trkpt>
      <trkpt lat="47.542805" lon="1.7921497">
        <ele>147</ele>
        <time>2022-03-17T10:37:20.000Z</time>
      </trkpt>
      <trkpt lat="47.5428" lon="1.792171">
        <ele>148</ele>
        <time>2022-03-17T10:37:21.000Z</time>
      </trkpt>
      <trkpt lat="47.542793" lon="1.792188">
        <ele>148</ele>
        <time>2022-03-17T10:37:22.000Z</time>
      </trkpt>
      <trkpt lat="47.54278" lon="1.7922008">
        <ele>147</ele>
        <time>2022-03-17T10:37:23.000Z</time>
      </trkpt>
      <trkpt lat="47.542774" lon="1.7922158">
        <ele>147</ele>
        <time>2022-03-17T10:37:24.000Z</time>
      </trkpt>
      <trkpt lat="47.542767" lon="1.7922295">
        <ele>147</ele>
        <time>2022-03-17T10:37:25.000Z</time>
      </trkpt>
      <trkpt lat="47.54276" lon="1.7922435">
        <ele>148</ele>
        <time>2022-03-17T10:37:26.000Z</time>
      </trkpt>
      <trkpt lat="47.54275" lon="1.7922566">
        <ele>147</ele>
        <time>2022-03-17T10:37:27.000Z</time>
      </trkpt>
      <trkpt lat="47.542747" lon="1.7922697">
        <ele>147</ele>
        <time>2022-03-17T10:37:28.000Z</time>
      </trkpt>
      <trkpt lat="47.542744" lon="1.7922903">
        <ele>147</ele>
        <time>2022-03-17T10:37:29.000Z</time>
      </trkpt>
      <trkpt lat="47.542736" lon="1.7923052">
        <ele>147</ele>
        <time>2022-03-17T10:37:30.000Z</time>
      </trkpt>
      <trkpt lat="47.54273" lon="1.7923213">
        <ele>147</ele>
        <time>2022-03-17T10:37:31.000Z</time>
      </trkpt>
      <trkpt lat="47.542725" lon="1.792337">
        <ele>147</ele>
        <time>2022-03-17T10:37:32.000Z</time>
      </trkpt>
      <trkpt lat="47.542717" lon="1.7923504">
        <ele>147</ele>
        <time>2022-03-17T10:37:33.000Z</time>
      </trkpt>
      <trkpt lat="47.54271" lon="1.792366">
        <ele>147</ele>
        <time>2022-03-17T10:37:34.000Z</time>
      </trkpt>
      <trkpt lat="47.5427" lon="1.792384">
        <ele>147</ele>
        <time>2022-03-17T10:37:35.000Z</time>
      </trkpt>
      <trkpt lat="47.5427" lon="1.7924005">
        <ele>147</ele>
        <time>2022-03-17T10:37:36.000Z</time>
      </trkpt>
      <trkpt lat="47.542694" lon="1.792416">
        <ele>147</ele>
        <time>2022-03-17T10:37:37.000Z</time>
      </trkpt>
      <trkpt lat="47.542686" lon="1.7924342">
        <ele>146</ele>
        <time>2022-03-17T10:37:38.000Z</time>
      </trkpt>
      <trkpt lat="47.54268" lon="1.7924504">
        <ele>147</ele>
        <time>2022-03-17T10:37:39.000Z</time>
      </trkpt>
      <trkpt lat="47.54267" lon="1.7924665">
        <ele>146</ele>
        <time>2022-03-17T10:37:40.000Z</time>
      </trkpt>
      <trkpt lat="47.542667" lon="1.7924836">
        <ele>146</ele>
        <time>2022-03-17T10:37:41.000Z</time>
      </trkpt>
      <trkpt lat="47.542656" lon="1.7924991">
        <ele>146</ele>
        <time>2022-03-17T10:37:42.000Z</time>
      </trkpt>
      <trkpt lat="47.542652" lon="1.7925142">
        <ele>146</ele>
        <time>2022-03-17T10:37:43.000Z</time>
      </trkpt>
      <trkpt lat="47.54264" lon="1.7925296">
        <ele>146</ele>
        <time>2022-03-17T10:37:44.000Z</time>
      </trkpt>
      <trkpt lat="47.542637" lon="1.7925452">
        <ele>146</ele>
        <time>2022-03-17T10:37:45.000Z</time>
      </trkpt>
      <trkpt lat="47.542625" lon="1.7925608">
        <ele>146</ele>
        <time>2022-03-17T10:37:46.000Z</time>
      </trkpt>
      <trkpt lat="47.542618" lon="1.792576">
        <ele>146</ele>
        <time>2022-03-17T10:37:47.000Z</time>
      </trkpt>
      <trkpt lat="47.54261" lon="1.7925936">
        <ele>146</ele>
        <time>2022-03-17T10:37:48.000Z</time>
      </trkpt>
      <trkpt lat="47.542606" lon="1.7926133">
        <ele>146</ele>
        <time>2022-03-17T10:37:49.000Z</time>
      </trkpt>
      <trkpt lat="47.5426" lon="1.7926273">
        <ele>146</ele>
        <time>2022-03-17T10:37:50.000Z</time>
      </trkpt>
      <trkpt lat="47.542595" lon="1.7926452">
        <ele>146</ele>
        <time>2022-03-17T10:37:51.000Z</time>
      </trkpt>
      <trkpt lat="47.54259" lon="1.7926583">
        <ele>146</ele>
        <time>2022-03-17T10:37:52.000Z</time>
      </trkpt>
      <trkpt lat="47.54258" lon="1.7926728">
        <ele>146</ele>
        <time>2022-03-17T10:37:53.000Z</time>
      </trkpt>
      <trkpt lat="47.542576" lon="1.792693">
        <ele>146</ele>
        <time>2022-03-17T10:37:54.000Z</time>
      </trkpt>
      <trkpt lat="47.54257" lon="1.7927107">
        <ele>146</ele>
        <time>2022-03-17T10:37:55.000Z</time>
      </trkpt>
      <trkpt lat="47.54256" lon="1.7927238">
        <ele>146</ele>
        <time>2022-03-17T10:37:56.000Z</time>
      </trkpt>
      <trkpt lat="47.542553" lon="1.7927308">
        <ele>146</ele>
        <time>2022-03-17T10:37:57.000Z</time>
      </trkpt>
      <trkpt lat="47.54254" lon="1.7927486">
        <ele>146</ele>
        <time>2022-03-17T10:37:58.000Z</time>
      </trkpt>
      <trkpt lat="47.542534" lon="1.7927638">
        <ele>146</ele>
        <time>2022-03-17T10:37:59.000Z</time>
      </trkpt>
      <trkpt lat="47.542526" lon="1.7927773">
        <ele>146</ele>
        <time>2022-03-17T10:38:00.000Z</time>
      </trkpt>
      <trkpt lat="47.542522" lon="1.792798">
        <ele>146</ele>
        <time>2022-03-17T10:38:01.000Z</time>
      </trkpt>
      <trkpt lat="47.542515" lon="1.7928107">
        <ele>145</ele>
        <time>2022-03-17T10:38:02.000Z</time>
      </trkpt>
      <trkpt lat="47.542507" lon="1.7928284">
        <ele>145</ele>
        <time>2022-03-17T10:38:03.000Z</time>
      </trkpt>
      <trkpt lat="47.5425" lon="1.7928401">
        <ele>144</ele>
        <time>2022-03-17T10:38:04.000Z</time>
      </trkpt>
      <trkpt lat="47.542496" lon="1.7928528">
        <ele>144</ele>
        <time>2022-03-17T10:38:05.000Z</time>
      </trkpt>
      <trkpt lat="47.542484" lon="1.7928661">
        <ele>144</ele>
        <time>2022-03-17T10:38:06.000Z</time>
      </trkpt>
      <trkpt lat="47.54248" lon="1.79288">
        <ele>144</ele>
        <time>2022-03-17T10:38:07.000Z</time>
      </trkpt>
      <trkpt lat="47.542477" lon="1.7928963">
        <ele>145</ele>
        <time>2022-03-17T10:38:08.000Z</time>
      </trkpt>
      <trkpt lat="47.54247" lon="1.7929112">
        <ele>144</ele>
        <time>2022-03-17T10:38:09.000Z</time>
      </trkpt>
      <trkpt lat="47.542458" lon="1.7929273">
        <ele>144</ele>
        <time>2022-03-17T10:38:10.000Z</time>
      </trkpt>
      <trkpt lat="47.54245" lon="1.7929453">
        <ele>144</ele>
        <time>2022-03-17T10:38:11.000Z</time>
      </trkpt>
      <trkpt lat="47.542442" lon="1.7929584">
        <ele>144</ele>
        <time>2022-03-17T10:38:12.000Z</time>
      </trkpt>
      <trkpt lat="47.54243" lon="1.7929729">
        <ele>144</ele>
        <time>2022-03-17T10:38:13.000Z</time>
      </trkpt>
      <trkpt lat="47.542423" lon="1.7929877">
        <ele>145</ele>
        <time>2022-03-17T10:38:14.000Z</time>
      </trkpt>
      <trkpt lat="47.542416" lon="1.7930024">
        <ele>145</ele>
        <time>2022-03-17T10:38:15.000Z</time>
      </trkpt>
      <trkpt lat="47.542408" lon="1.7930161">
        <ele>144</ele>
        <time>2022-03-17T10:38:16.000Z</time>
      </trkpt>
      <trkpt lat="47.5424" lon="1.7930336">
        <ele>144</ele>
        <time>2022-03-17T10:38:17.000Z</time>
      </trkpt>
      <trkpt lat="47.54239" lon="1.7930518">
        <ele>144</ele>
        <time>2022-03-17T10:38:18.000Z</time>
      </trkpt>
      <trkpt lat="47.54238" lon="1.7930663">
        <ele>144</ele>
        <time>2022-03-17T10:38:19.000Z</time>
      </trkpt>
      <trkpt lat="47.542374" lon="1.7930814">
        <ele>144</ele>
        <time>2022-03-17T10:38:20.000Z</time>
      </trkpt>
      <trkpt lat="47.542366" lon="1.7930894">
        <ele>144</ele>
        <time>2022-03-17T10:38:21.000Z</time>
      </trkpt>
      <trkpt lat="47.542355" lon="1.7931067">
        <ele>144</ele>
        <time>2022-03-17T10:38:22.000Z</time>
      </trkpt>
      <trkpt lat="47.542347" lon="1.7931222">
        <ele>144</ele>
        <time>2022-03-17T10:38:23.000Z</time>
      </trkpt>
      <trkpt lat="47.542343" lon="1.7931416">
        <ele>143</ele>
        <time>2022-03-17T10:38:24.000Z</time>
      </trkpt>
      <trkpt lat="47.542336" lon="1.7931616">
        <ele>144</ele>
        <time>2022-03-17T10:38:25.000Z</time>
      </trkpt>
      <trkpt lat="47.54233" lon="1.793181">
        <ele>144</ele>
        <time>2022-03-17T10:38:26.000Z</time>
      </trkpt>
      <trkpt lat="47.542324" lon="1.7931992">
        <ele>145</ele>
        <time>2022-03-17T10:38:27.000Z</time>
      </trkpt>
      <trkpt lat="47.542316" lon="1.7932165">
        <ele>145</ele>
        <time>2022-03-17T10:38:28.000Z</time>
      </trkpt>
      <trkpt lat="47.542313" lon="1.793236">
        <ele>145</ele>
        <time>2022-03-17T10:38:29.000Z</time>
      </trkpt>
      <trkpt lat="47.542305" lon="1.7932565">
        <ele>145</ele>
        <time>2022-03-17T10:38:30.000Z</time>
      </trkpt>
      <trkpt lat="47.542297" lon="1.7932767">
        <ele>146</ele>
        <time>2022-03-17T10:38:31.000Z</time>
      </trkpt>
      <trkpt lat="47.54229" lon="1.7932914">
        <ele>147</ele>
        <time>2022-03-17T10:38:32.000Z</time>
      </trkpt>
      <trkpt lat="47.542282" lon="1.7933086">
        <ele>148</ele>
        <time>2022-03-17T10:38:33.000Z</time>
      </trkpt>
      <trkpt lat="47.542274" lon="1.7933224">
        <ele>148</ele>
        <time>2022-03-17T10:38:34.000Z</time>
      </trkpt>
      <trkpt lat="47.542263" lon="1.7933373">
        <ele>147</ele>
        <time>2022-03-17T10:38:35.000Z</time>
      </trkpt>
      <trkpt lat="47.542255" lon="1.7933491">
        <ele>147</ele>
        <time>2022-03-17T10:38:36.000Z</time>
      </trkpt>
      <trkpt lat="47.542248" lon="1.7933635">
        <ele>148</ele>
        <time>2022-03-17T10:38:37.000Z</time>
      </trkpt>
      <trkpt lat="47.54224" lon="1.7933825">
        <ele>148</ele>
        <time>2022-03-17T10:38:38.000Z</time>
      </trkpt>
      <trkpt lat="47.54223" lon="1.7933954">
        <ele>148</ele>
        <time>2022-03-17T10:38:39.000Z</time>
      </trkpt>
      <trkpt lat="47.54222" lon="1.7934119">
        <ele>148</ele>
        <time>2022-03-17T10:38:40.000Z</time>
      </trkpt>
      <trkpt lat="47.542213" lon="1.7934239">
        <ele>147</ele>
        <time>2022-03-17T10:38:41.000Z</time>
      </trkpt>
      <trkpt lat="47.542206" lon="1.7934403">
        <ele>147</ele>
        <time>2022-03-17T10:38:42.000Z</time>
      </trkpt>
      <trkpt lat="47.5422" lon="1.793453">
        <ele>147</ele>
        <time>2022-03-17T10:38:43.000Z</time>
      </trkpt>
      <trkpt lat="47.542187" lon="1.7934661">
        <ele>147</ele>
        <time>2022-03-17T10:38:44.000Z</time>
      </trkpt>
      <trkpt lat="47.54218" lon="1.7934823">
        <ele>147</ele>
        <time>2022-03-17T10:38:45.000Z</time>
      </trkpt>
      <trkpt lat="47.54217" lon="1.793497">
        <ele>147</ele>
        <time>2022-03-17T10:38:46.000Z</time>
      </trkpt>
      <trkpt lat="47.542164" lon="1.7935103">
        <ele>147</ele>
        <time>2022-03-17T10:38:47.000Z</time>
      </trkpt>
      <trkpt lat="47.542152" lon="1.7935228">
        <ele>147</ele>
        <time>2022-03-17T10:38:48.000Z</time>
      </trkpt>
      <trkpt lat="47.542145" lon="1.7935318">
        <ele>147</ele>
        <time>2022-03-17T10:38:49.000Z</time>
      </trkpt>
      <trkpt lat="47.542137" lon="1.793549">
        <ele>147</ele>
        <time>2022-03-17T10:38:50.000Z</time>
      </trkpt>
      <trkpt lat="47.542126" lon="1.7935619">
        <ele>147</ele>
        <time>2022-03-17T10:38:51.000Z</time>
      </trkpt>
      <trkpt lat="47.542118" lon="1.7935724">
        <ele>147</ele>
        <time>2022-03-17T10:38:52.000Z</time>
      </trkpt>
      <trkpt lat="47.54211" lon="1.7935873">
        <ele>147</ele>
        <time>2022-03-17T10:38:53.000Z</time>
      </trkpt>
      <trkpt lat="47.542103" lon="1.793597">
        <ele>147</ele>
        <time>2022-03-17T10:38:54.000Z</time>
      </trkpt>
      <trkpt lat="47.54209" lon="1.7936112">
        <ele>148</ele>
        <time>2022-03-17T10:38:55.000Z</time>
      </trkpt>
      <trkpt lat="47.542084" lon="1.7936244">
        <ele>148</ele>
        <time>2022-03-17T10:38:56.000Z</time>
      </trkpt>
      <trkpt lat="47.542076" lon="1.793643">
        <ele>148</ele>
        <time>2022-03-17T10:38:57.000Z</time>
      </trkpt>
      <trkpt lat="47.54206" lon="1.7936554">
        <ele>148</ele>
        <time>2022-03-17T10:38:58.000Z</time>
      </trkpt>
      <trkpt lat="47.54205" lon="1.7936693">
        <ele>149</ele>
        <time>2022-03-17T10:38:59.000Z</time>
      </trkpt>
      <trkpt lat="47.54204" lon="1.7936835">
        <ele>149</ele>
        <time>2022-03-17T10:39:00.000Z</time>
      </trkpt>
      <trkpt lat="47.54203" lon="1.7936958">
        <ele>149</ele>
        <time>2022-03-17T10:39:01.000Z</time>
      </trkpt>
      <trkpt lat="47.54202" lon="1.7937102">
        <ele>149</ele>
        <time>2022-03-17T10:39:02.000Z</time>
      </trkpt>
      <trkpt lat="47.54201" lon="1.7937214">
        <ele>148</ele>
        <time>2022-03-17T10:39:03.000Z</time>
      </trkpt>
      <trkpt lat="47.542004" lon="1.793728">
        <ele>148</ele>
        <time>2022-03-17T10:39:04.000Z</time>
      </trkpt>
      <trkpt lat="47.541992" lon="1.7937375">
        <ele>148</ele>
        <time>2022-03-17T10:39:05.000Z</time>
      </trkpt>
      <trkpt lat="47.541977" lon="1.7937447">
        <ele>148</ele>
        <time>2022-03-17T10:39:06.000Z</time>
      </trkpt>
      <trkpt lat="47.541965" lon="1.7937562">
        <ele>149</ele>
        <time>2022-03-17T10:39:07.000Z</time>
      </trkpt>
      <trkpt lat="47.541954" lon="1.7937624">
        <ele>149</ele>
        <time>2022-03-17T10:39:08.000Z</time>
      </trkpt>
      <trkpt lat="47.541943" lon="1.7937717">
        <ele>149</ele>
        <time>2022-03-17T10:39:09.000Z</time>
      </trkpt>
      <trkpt lat="47.54193" lon="1.7937826">
        <ele>149</ele>
        <time>2022-03-17T10:39:10.000Z</time>
      </trkpt>
      <trkpt lat="47.54192" lon="1.793795">
        <ele>149</ele>
        <time>2022-03-17T10:39:11.000Z</time>
      </trkpt>
      <trkpt lat="47.541912" lon="1.7938064">
        <ele>150</ele>
        <time>2022-03-17T10:39:12.000Z</time>
      </trkpt>
      <trkpt lat="47.541904" lon="1.7938154">
        <ele>149</ele>
        <time>2022-03-17T10:39:13.000Z</time>
      </trkpt>
      <trkpt lat="47.541897" lon="1.7938242">
        <ele>149</ele>
        <time>2022-03-17T10:39:14.000Z</time>
      </trkpt>
      <trkpt lat="47.541885" lon="1.7938303">
        <ele>149</ele>
        <time>2022-03-17T10:39:15.000Z</time>
      </trkpt>
      <trkpt lat="47.541878" lon="1.7938291">
        <ele>149</ele>
        <time>2022-03-17T10:39:16.000Z</time>
      </trkpt>
      <trkpt lat="47.54187" lon="1.7938256">
        <ele>149</ele>
        <time>2022-03-17T10:39:17.000Z</time>
      </trkpt>
      <trkpt lat="47.541862" lon="1.793827">
        <ele>149</ele>
        <time>2022-03-17T10:39:18.000Z</time>
      </trkpt>
      <trkpt lat="47.541855" lon="1.793835">
        <ele>148</ele>
        <time>2022-03-17T10:39:19.000Z</time>
      </trkpt>
      <trkpt lat="47.54185" lon="1.7938493">
        <ele>148</ele>
        <time>2022-03-17T10:39:20.000Z</time>
      </trkpt>
      <trkpt lat="47.54184" lon="1.7938601">
        <ele>148</ele>
        <time>2022-03-17T10:39:21.000Z</time>
      </trkpt>
      <trkpt lat="47.541832" lon="1.7938716">
        <ele>149</ele>
        <time>2022-03-17T10:39:22.000Z</time>
      </trkpt>
      <trkpt lat="47.54182" lon="1.793882">
        <ele>148</ele>
        <time>2022-03-17T10:39:23.000Z</time>
      </trkpt>
      <trkpt lat="47.541813" lon="1.793894">
        <ele>149</ele>
        <time>2022-03-17T10:39:24.000Z</time>
      </trkpt>
      <trkpt lat="47.5418" lon="1.7939032">
        <ele>149</ele>
        <time>2022-03-17T10:39:25.000Z</time>
      </trkpt>
      <trkpt lat="47.541794" lon="1.7939183">
        <ele>149</ele>
        <time>2022-03-17T10:39:26.000Z</time>
      </trkpt>
      <trkpt lat="47.541782" lon="1.7939281">
        <ele>149</ele>
        <time>2022-03-17T10:39:27.000Z</time>
      </trkpt>
      <trkpt lat="47.54177" lon="1.7939379">
        <ele>148</ele>
        <time>2022-03-17T10:39:28.000Z</time>
      </trkpt>
      <trkpt lat="47.54176" lon="1.7939459">
        <ele>148</ele>
        <time>2022-03-17T10:39:29.000Z</time>
      </trkpt>
      <trkpt lat="47.541748" lon="1.7939577">
        <ele>149</ele>
        <time>2022-03-17T10:39:30.000Z</time>
      </trkpt>
      <trkpt lat="47.541737" lon="1.7939695">
        <ele>148</ele>
        <time>2022-03-17T10:39:31.000Z</time>
      </trkpt>
      <trkpt lat="47.54172" lon="1.7939777">
        <ele>148</ele>
        <time>2022-03-17T10:39:32.000Z</time>
      </trkpt>
      <trkpt lat="47.54171" lon="1.7939872">
        <ele>147</ele>
        <time>2022-03-17T10:39:33.000Z</time>
      </trkpt>
      <trkpt lat="47.5417" lon="1.793997">
        <ele>147</ele>
        <time>2022-03-17T10:39:34.000Z</time>
      </trkpt>
      <trkpt lat="47.541687" lon="1.794007">
        <ele>147</ele>
        <time>2022-03-17T10:39:35.000Z</time>
      </trkpt>
      <trkpt lat="47.541676" lon="1.7940143">
        <ele>146</ele>
        <time>2022-03-17T10:39:36.000Z</time>
      </trkpt>
      <trkpt lat="47.541668" lon="1.7940238">
        <ele>147</ele>
        <time>2022-03-17T10:39:37.000Z</time>
      </trkpt>
      <trkpt lat="47.541656" lon="1.7940335">
        <ele>147</ele>
        <time>2022-03-17T10:39:38.000Z</time>
      </trkpt>
      <trkpt lat="47.54164" lon="1.794042">
        <ele>147</ele>
        <time>2022-03-17T10:39:39.000Z</time>
      </trkpt>
      <trkpt lat="47.541634" lon="1.7940571">
        <ele>147</ele>
        <time>2022-03-17T10:39:40.000Z</time>
      </trkpt>
      <trkpt lat="47.541626" lon="1.7940636">
        <ele>146</ele>
        <time>2022-03-17T10:39:41.000Z</time>
      </trkpt>
      <trkpt lat="47.541622" lon="1.7940785">
        <ele>146</ele>
        <time>2022-03-17T10:39:42.000Z</time>
      </trkpt>
      <trkpt lat="47.54161" lon="1.794091">
        <ele>146</ele>
        <time>2022-03-17T10:39:43.000Z</time>
      </trkpt>
      <trkpt lat="47.5416" lon="1.7940981">
        <ele>147</ele>
        <time>2022-03-17T10:39:44.000Z</time>
      </trkpt>
      <trkpt lat="47.541588" lon="1.7941033">
        <ele>147</ele>
        <time>2022-03-17T10:39:45.000Z</time>
      </trkpt>
      <trkpt lat="47.54158" lon="1.7941151">
        <ele>147</ele>
        <time>2022-03-17T10:39:46.000Z</time>
      </trkpt>
      <trkpt lat="47.54157" lon="1.7941276">
        <ele>146</ele>
        <time>2022-03-17T10:39:47.000Z</time>
      </trkpt>
      <trkpt lat="47.54156" lon="1.794138">
        <ele>147</ele>
        <time>2022-03-17T10:39:48.000Z</time>
      </trkpt>
      <trkpt lat="47.54155" lon="1.7941452">
        <ele>147</ele>
        <time>2022-03-17T10:39:49.000Z</time>
      </trkpt>
      <trkpt lat="47.54154" lon="1.794154">
        <ele>148</ele>
        <time>2022-03-17T10:39:50.000Z</time>
      </trkpt>
      <trkpt lat="47.541527" lon="1.7941637">
        <ele>148</ele>
        <time>2022-03-17T10:39:51.000Z</time>
      </trkpt>
      <trkpt lat="47.541515" lon="1.7941767">
        <ele>149</ele>
        <time>2022-03-17T10:39:52.000Z</time>
      </trkpt>
      <trkpt lat="47.541508" lon="1.7941914">
        <ele>150</ele>
        <time>2022-03-17T10:39:53.000Z</time>
      </trkpt>
      <trkpt lat="47.541496" lon="1.7942032">
        <ele>150</ele>
        <time>2022-03-17T10:39:54.000Z</time>
      </trkpt>
      <trkpt lat="47.541485" lon="1.7942169">
        <ele>150</ele>
        <time>2022-03-17T10:39:55.000Z</time>
      </trkpt>
      <trkpt lat="47.541473" lon="1.7942299">
        <ele>150</ele>
        <time>2022-03-17T10:39:56.000Z</time>
      </trkpt>
      <trkpt lat="47.541462" lon="1.7942414">
        <ele>150</ele>
        <time>2022-03-17T10:39:57.000Z</time>
      </trkpt>
      <trkpt lat="47.54145" lon="1.794252">
        <ele>150</ele>
        <time>2022-03-17T10:39:58.000Z</time>
      </trkpt>
      <trkpt lat="47.541443" lon="1.7942644">
        <ele>150</ele>
        <time>2022-03-17T10:39:59.000Z</time>
      </trkpt>
      <trkpt lat="47.54143" lon="1.7942737">
        <ele>150</ele>
        <time>2022-03-17T10:40:00.000Z</time>
      </trkpt>
      <trkpt lat="47.541424" lon="1.7942867">
        <ele>150</ele>
        <time>2022-03-17T10:40:01.000Z</time>
      </trkpt>
      <trkpt lat="47.541412" lon="1.7942983">
        <ele>150</ele>
        <time>2022-03-17T10:40:02.000Z</time>
      </trkpt>
      <trkpt lat="47.541397" lon="1.7943125">
        <ele>150</ele>
        <time>2022-03-17T10:40:03.000Z</time>
      </trkpt>
      <trkpt lat="47.54139" lon="1.7943256">
        <ele>150</ele>
        <time>2022-03-17T10:40:04.000Z</time>
      </trkpt>
      <trkpt lat="47.54138" lon="1.7943364">
        <ele>150</ele>
        <time>2022-03-17T10:40:05.000Z</time>
      </trkpt>
      <trkpt lat="47.541374" lon="1.794348">
        <ele>150</ele>
        <time>2022-03-17T10:40:06.000Z</time>
      </trkpt>
      <trkpt lat="47.541363" lon="1.7943617">
        <ele>150</ele>
        <time>2022-03-17T10:40:07.000Z</time>
      </trkpt>
      <trkpt lat="47.541355" lon="1.7943751">
        <ele>150</ele>
        <time>2022-03-17T10:40:08.000Z</time>
      </trkpt>
      <trkpt lat="47.541344" lon="1.7943867">
        <ele>150</ele>
        <time>2022-03-17T10:40:09.000Z</time>
      </trkpt>
      <trkpt lat="47.541336" lon="1.7944014">
        <ele>150</ele>
        <time>2022-03-17T10:40:10.000Z</time>
      </trkpt>
      <trkpt lat="47.54133" lon="1.7944139">
        <ele>149</ele>
        <time>2022-03-17T10:40:11.000Z</time>
      </trkpt>
      <trkpt lat="47.54132" lon="1.7944207">
        <ele>149</ele>
        <time>2022-03-17T10:40:12.000Z</time>
      </trkpt>
      <trkpt lat="47.54131" lon="1.7944237">
        <ele>149</ele>
        <time>2022-03-17T10:40:13.000Z</time>
      </trkpt>
      <trkpt lat="47.541298" lon="1.7944332">
        <ele>149</ele>
        <time>2022-03-17T10:40:14.000Z</time>
      </trkpt>
      <trkpt lat="47.541286" lon="1.7944384">
        <ele>149</ele>
        <time>2022-03-17T10:40:15.000Z</time>
      </trkpt>
      <trkpt lat="47.541275" lon="1.7944428">
        <ele>150</ele>
        <time>2022-03-17T10:40:16.000Z</time>
      </trkpt>
      <trkpt lat="47.541267" lon="1.7944528">
        <ele>150</ele>
        <time>2022-03-17T10:40:17.000Z</time>
      </trkpt>
      <trkpt lat="47.541256" lon="1.7944592">
        <ele>150</ele>
        <time>2022-03-17T10:40:18.000Z</time>
      </trkpt>
      <trkpt lat="47.541245" lon="1.794466">
        <ele>150</ele>
        <time>2022-03-17T10:40:19.000Z</time>
      </trkpt>
      <trkpt lat="47.541233" lon="1.7944751">
        <ele>150</ele>
        <time>2022-03-17T10:40:20.000Z</time>
      </trkpt>
      <trkpt lat="47.54122" lon="1.7944769">
        <ele>151</ele>
        <time>2022-03-17T10:40:21.000Z</time>
      </trkpt>
      <trkpt lat="47.541214" lon="1.794484">
        <ele>151</ele>
        <time>2022-03-17T10:40:22.000Z</time>
      </trkpt>
      <trkpt lat="47.5412" lon="1.7944932">
        <ele>150</ele>
        <time>2022-03-17T10:40:23.000Z</time>
      </trkpt>
      <trkpt lat="47.54119" lon="1.7945011">
        <ele>150</ele>
        <time>2022-03-17T10:40:24.000Z</time>
      </trkpt>
      <trkpt lat="47.54118" lon="1.7945073">
        <ele>150</ele>
        <time>2022-03-17T10:40:25.000Z</time>
      </trkpt>
      <trkpt lat="47.54117" lon="1.7945182">
        <ele>150</ele>
        <time>2022-03-17T10:40:26.000Z</time>
      </trkpt>
      <trkpt lat="47.54116" lon="1.7945199">
        <ele>150</ele>
        <time>2022-03-17T10:40:27.000Z</time>
      </trkpt>
      <trkpt lat="47.54115" lon="1.7945256">
        <ele>149</ele>
        <time>2022-03-17T10:40:28.000Z</time>
      </trkpt>
      <trkpt lat="47.541138" lon="1.7945294">
        <ele>149</ele>
        <time>2022-03-17T10:40:29.000Z</time>
      </trkpt>
      <trkpt lat="47.541122" lon="1.7945281">
        <ele>149</ele>
        <time>2022-03-17T10:40:30.000Z</time>
      </trkpt>
      <trkpt lat="47.541107" lon="1.7945228">
        <ele>149</ele>
        <time>2022-03-17T10:40:31.000Z</time>
      </trkpt>
      <trkpt lat="47.541096" lon="1.794523">
        <ele>149</ele>
        <time>2022-03-17T10:40:32.000Z</time>
      </trkpt>
      <trkpt lat="47.541084" lon="1.7945238">
        <ele>149</ele>
        <time>2022-03-17T10:40:33.000Z</time>
      </trkpt>
      <trkpt lat="47.541073" lon="1.7945185">
        <ele>149</ele>
        <time>2022-03-17T10:40:34.000Z</time>
      </trkpt>
      <trkpt lat="47.54106" lon="1.7945172">
        <ele>148</ele>
        <time>2022-03-17T10:40:35.000Z</time>
      </trkpt>
      <trkpt lat="47.54105" lon="1.7945199">
        <ele>148</ele>
        <time>2022-03-17T10:40:36.000Z</time>
      </trkpt>
      <trkpt lat="47.54104" lon="1.7945186">
        <ele>148</ele>
        <time>2022-03-17T10:40:37.000Z</time>
      </trkpt>
      <trkpt lat="47.541027" lon="1.7945182">
        <ele>148</ele>
        <time>2022-03-17T10:40:38.000Z</time>
      </trkpt>
      <trkpt lat="47.54101" lon="1.7945154">
        <ele>148</ele>
        <time>2022-03-17T10:40:39.000Z</time>
      </trkpt>
      <trkpt lat="47.541004" lon="1.794512">
        <ele>148</ele>
        <time>2022-03-17T10:40:40.000Z</time>
      </trkpt>
      <trkpt lat="47.54099" lon="1.7945077">
        <ele>148</ele>
        <time>2022-03-17T10:40:41.000Z</time>
      </trkpt>
      <trkpt lat="47.540977" lon="1.7945064">
        <ele>147</ele>
        <time>2022-03-17T10:40:42.000Z</time>
      </trkpt>
      <trkpt lat="47.54097" lon="1.794505">
        <ele>147</ele>
        <time>2022-03-17T10:40:43.000Z</time>
      </trkpt>
      <trkpt lat="47.540955" lon="1.7945049">
        <ele>147</ele>
        <time>2022-03-17T10:40:44.000Z</time>
      </trkpt>
      <trkpt lat="47.54094" lon="1.7945035">
        <ele>147</ele>
        <time>2022-03-17T10:40:45.000Z</time>
      </trkpt>
      <trkpt lat="47.540928" lon="1.7945031">
        <ele>147</ele>
        <time>2022-03-17T10:40:46.000Z</time>
      </trkpt>
      <trkpt lat="47.540916" lon="1.7944993">
        <ele>147</ele>
        <time>2022-03-17T10:40:47.000Z</time>
      </trkpt>
      <trkpt lat="47.5409" lon="1.7944934">
        <ele>147</ele>
        <time>2022-03-17T10:40:48.000Z</time>
      </trkpt>
      <trkpt lat="47.54089" lon="1.7944932">
        <ele>146</ele>
        <time>2022-03-17T10:40:49.000Z</time>
      </trkpt>
      <trkpt lat="47.54088" lon="1.79449">
        <ele>146</ele>
        <time>2022-03-17T10:40:50.000Z</time>
      </trkpt>
      <trkpt lat="47.540867" lon="1.7944889">
        <ele>146</ele>
        <time>2022-03-17T10:40:51.000Z</time>
      </trkpt>
      <trkpt lat="47.54085" lon="1.7944881">
        <ele>145</ele>
        <time>2022-03-17T10:40:52.000Z</time>
      </trkpt>
      <trkpt lat="47.540836" lon="1.7944857">
        <ele>145</ele>
        <time>2022-03-17T10:40:53.000Z</time>
      </trkpt>
      <trkpt lat="47.540825" lon="1.7944843">
        <ele>145</ele>
        <time>2022-03-17T10:40:54.000Z</time>
      </trkpt>
      <trkpt lat="47.54081" lon="1.7944854">
        <ele>145</ele>
        <time>2022-03-17T10:40:55.000Z</time>
      </trkpt>
      <trkpt lat="47.540794" lon="1.7944881">
        <ele>145</ele>
        <time>2022-03-17T10:40:56.000Z</time>
      </trkpt>
      <trkpt lat="47.540783" lon="1.7944846">
        <ele>145</ele>
        <time>2022-03-17T10:40:57.000Z</time>
      </trkpt>
      <trkpt lat="47.540768" lon="1.7944844">
        <ele>145</ele>
        <time>2022-03-17T10:40:58.000Z</time>
      </trkpt>
      <trkpt lat="47.540756" lon="1.7944844">
        <ele>146</ele>
        <time>2022-03-17T10:40:59.000Z</time>
      </trkpt>
      <trkpt lat="47.54075" lon="1.7944797">
        <ele>146</ele>
        <time>2022-03-17T10:41:00.000Z</time>
      </trkpt>
      <trkpt lat="47.540737" lon="1.7944751">
        <ele>146</ele>
        <time>2022-03-17T10:41:01.000Z</time>
      </trkpt>
      <trkpt lat="47.540726" lon="1.7944736">
        <ele>146</ele>
        <time>2022-03-17T10:41:02.000Z</time>
      </trkpt>
      <trkpt lat="47.540714" lon="1.7944734">
        <ele>145</ele>
        <time>2022-03-17T10:41:03.000Z</time>
      </trkpt>
      <trkpt lat="47.5407" lon="1.7944773">
        <ele>146</ele>
        <time>2022-03-17T10:41:04.000Z</time>
      </trkpt>
      <trkpt lat="47.540688" lon="1.7944769">
        <ele>146</ele>
        <time>2022-03-17T10:41:05.000Z</time>
      </trkpt>
      <trkpt lat="47.540676" lon="1.7944762">
        <ele>146</ele>
        <time>2022-03-17T10:41:06.000Z</time>
      </trkpt>
      <trkpt lat="47.540665" lon="1.7944787">
        <ele>146</ele>
        <time>2022-03-17T10:41:07.000Z</time>
      </trkpt>
      <trkpt lat="47.540653" lon="1.794477">
        <ele>146</ele>
        <time>2022-03-17T10:41:08.000Z</time>
      </trkpt>
      <trkpt lat="47.54064" lon="1.7944785">
        <ele>145</ele>
        <time>2022-03-17T10:41:09.000Z</time>
      </trkpt>
      <trkpt lat="47.540627" lon="1.7944776">
        <ele>145</ele>
        <time>2022-03-17T10:41:10.000Z</time>
      </trkpt>
      <trkpt lat="47.540615" lon="1.794477">
        <ele>145</ele>
        <time>2022-03-17T10:41:11.000Z</time>
      </trkpt>
      <trkpt lat="47.540604" lon="1.794475">
        <ele>144</ele>
        <time>2022-03-17T10:41:12.000Z</time>
      </trkpt>
      <trkpt lat="47.540596" lon="1.7944747">
        <ele>144</ele>
        <time>2022-03-17T10:41:13.000Z</time>
      </trkpt>
      <trkpt lat="47.540585" lon="1.7944758">
        <ele>144</ele>
        <time>2022-03-17T10:41:14.000Z</time>
      </trkpt>
      <trkpt lat="47.54057" lon="1.7944773">
        <ele>144</ele>
        <time>2022-03-17T10:41:15.000Z</time>
      </trkpt>
      <trkpt lat="47.540558" lon="1.7944807">
        <ele>145</ele>
        <time>2022-03-17T10:41:16.000Z</time>
      </trkpt>
      <trkpt lat="47.540546" lon="1.7944816">
        <ele>144</ele>
        <time>2022-03-17T10:41:17.000Z</time>
      </trkpt>
      <trkpt lat="47.54053" lon="1.7944769">
        <ele>144</ele>
        <time>2022-03-17T10:41:18.000Z</time>
      </trkpt>
      <trkpt lat="47.54052" lon="1.7944742">
        <ele>145</ele>
        <time>2022-03-17T10:41:19.000Z</time>
      </trkpt>
      <trkpt lat="47.5405" lon="1.7944744">
        <ele>145</ele>
        <time>2022-03-17T10:41:20.000Z</time>
      </trkpt>
      <trkpt lat="47.54049" lon="1.7944707">
        <ele>145</ele>
        <time>2022-03-17T10:41:21.000Z</time>
      </trkpt>
      <trkpt lat="47.540474" lon="1.7944679">
        <ele>144</ele>
        <time>2022-03-17T10:41:22.000Z</time>
      </trkpt>
      <trkpt lat="47.54046" lon="1.7944684">
        <ele>144</ele>
        <time>2022-03-17T10:41:23.000Z</time>
      </trkpt>
      <trkpt lat="47.540447" lon="1.7944647">
        <ele>144</ele>
        <time>2022-03-17T10:41:25.000Z</time>
      </trkpt>
      <trkpt lat="47.540432" lon="1.7944642">
        <ele>143</ele>
        <time>2022-03-17T10:41:26.000Z</time>
      </trkpt>
      <trkpt lat="47.54042" lon="1.794466">
        <ele>143</ele>
        <time>2022-03-17T10:41:27.000Z</time>
      </trkpt>
      <trkpt lat="47.54041" lon="1.7944609">
        <ele>143</ele>
        <time>2022-03-17T10:41:28.000Z</time>
      </trkpt>
      <trkpt lat="47.540398" lon="1.7944582">
        <ele>143</ele>
        <time>2022-03-17T10:41:29.000Z</time>
      </trkpt>
      <trkpt lat="47.540382" lon="1.7944566">
        <ele>144</ele>
        <time>2022-03-17T10:41:30.000Z</time>
      </trkpt>
      <trkpt lat="47.54037" lon="1.7944564">
        <ele>144</ele>
        <time>2022-03-17T10:41:31.000Z</time>
      </trkpt>
      <trkpt lat="47.54036" lon="1.7944579">
        <ele>143</ele>
        <time>2022-03-17T10:41:32.000Z</time>
      </trkpt>
      <trkpt lat="47.540348" lon="1.7944574">
        <ele>144</ele>
        <time>2022-03-17T10:41:33.000Z</time>
      </trkpt>
      <trkpt lat="47.540333" lon="1.7944567">
        <ele>144</ele>
        <time>2022-03-17T10:41:34.000Z</time>
      </trkpt>
      <trkpt lat="47.54032" lon="1.7944564">
        <ele>144</ele>
        <time>2022-03-17T10:41:35.000Z</time>
      </trkpt>
      <trkpt lat="47.54031" lon="1.7944574">
        <ele>144</ele>
        <time>2022-03-17T10:41:36.000Z</time>
      </trkpt>
      <trkpt lat="47.540295" lon="1.7944595">
        <ele>144</ele>
        <time>2022-03-17T10:41:37.000Z</time>
      </trkpt>
      <trkpt lat="47.540283" lon="1.7944627">
        <ele>144</ele>
        <time>2022-03-17T10:41:38.000Z</time>
      </trkpt>
      <trkpt lat="47.540268" lon="1.7944674">
        <ele>144</ele>
        <time>2022-03-17T10:41:39.000Z</time>
      </trkpt>
      <trkpt lat="47.54026" lon="1.7944692">
        <ele>143</ele>
        <time>2022-03-17T10:41:40.000Z</time>
      </trkpt>
      <trkpt lat="47.540245" lon="1.7944673">
        <ele>143</ele>
        <time>2022-03-17T10:41:41.000Z</time>
      </trkpt>
      <trkpt lat="47.54023" lon="1.7944691">
        <ele>143</ele>
        <time>2022-03-17T10:41:42.000Z</time>
      </trkpt>
      <trkpt lat="47.54022" lon="1.7944684">
        <ele>142</ele>
        <time>2022-03-17T10:41:43.000Z</time>
      </trkpt>
      <trkpt lat="47.540203" lon="1.7944725">
        <ele>142</ele>
        <time>2022-03-17T10:41:44.000Z</time>
      </trkpt>
      <trkpt lat="47.54019" lon="1.7944741">
        <ele>143</ele>
        <time>2022-03-17T10:41:45.000Z</time>
      </trkpt>
      <trkpt lat="47.54018" lon="1.7944766">
        <ele>143</ele>
        <time>2022-03-17T10:41:46.000Z</time>
      </trkpt>
      <trkpt lat="47.540173" lon="1.7944795">
        <ele>143</ele>
        <time>2022-03-17T10:41:47.000Z</time>
      </trkpt>
      <trkpt lat="47.540157" lon="1.7944863">
        <ele>143</ele>
        <time>2022-03-17T10:41:48.000Z</time>
      </trkpt>
      <trkpt lat="47.540146" lon="1.7944884">
        <ele>144</ele>
        <time>2022-03-17T10:41:49.000Z</time>
      </trkpt>
      <trkpt lat="47.540134" lon="1.7944957">
        <ele>144</ele>
        <time>2022-03-17T10:41:50.000Z</time>
      </trkpt>
      <trkpt lat="47.540123" lon="1.7945027">
        <ele>144</ele>
        <time>2022-03-17T10:41:51.000Z</time>
      </trkpt>
      <trkpt lat="47.54011" lon="1.7945037">
        <ele>145</ele>
        <time>2022-03-17T10:41:52.000Z</time>
      </trkpt>
      <trkpt lat="47.540096" lon="1.7945073">
        <ele>145</ele>
        <time>2022-03-17T10:41:53.000Z</time>
      </trkpt>
      <trkpt lat="47.54008" lon="1.7945116">
        <ele>145</ele>
        <time>2022-03-17T10:41:54.000Z</time>
      </trkpt>
      <trkpt lat="47.54007" lon="1.7945166">
        <ele>145</ele>
        <time>2022-03-17T10:41:55.000Z</time>
      </trkpt>
      <trkpt lat="47.540054" lon="1.794523">
        <ele>145</ele>
        <time>2022-03-17T10:41:56.000Z</time>
      </trkpt>
      <trkpt lat="47.540043" lon="1.7945247">
        <ele>145</ele>
        <time>2022-03-17T10:41:57.000Z</time>
      </trkpt>
      <trkpt lat="47.540024" lon="1.7945254">
        <ele>146</ele>
        <time>2022-03-17T10:41:58.000Z</time>
      </trkpt>
      <trkpt lat="47.54001" lon="1.7945327">
        <ele>146</ele>
        <time>2022-03-17T10:41:59.000Z</time>
      </trkpt>
      <trkpt lat="47.539997" lon="1.7945405">
        <ele>145</ele>
        <time>2022-03-17T10:42:00.000Z</time>
      </trkpt>
      <trkpt lat="47.539986" lon="1.7945467">
        <ele>145</ele>
        <time>2022-03-17T10:42:01.000Z</time>
      </trkpt>
      <trkpt lat="47.539974" lon="1.7945553">
        <ele>145</ele>
        <time>2022-03-17T10:42:02.000Z</time>
      </trkpt>
      <trkpt lat="47.539963" lon="1.7945632">
        <ele>145</ele>
        <time>2022-03-17T10:42:03.000Z</time>
      </trkpt>
      <trkpt lat="47.539948" lon="1.7945678">
        <ele>144</ele>
        <time>2022-03-17T10:42:04.000Z</time>
      </trkpt>
      <trkpt lat="47.53994" lon="1.794576">
        <ele>144</ele>
        <time>2022-03-17T10:42:05.000Z</time>
      </trkpt>
      <trkpt lat="47.53993" lon="1.7945789">
        <ele>144</ele>
        <time>2022-03-17T10:42:06.000Z</time>
      </trkpt>
      <trkpt lat="47.539917" lon="1.7945828">
        <ele>144</ele>
        <time>2022-03-17T10:42:07.000Z</time>
      </trkpt>
      <trkpt lat="47.539906" lon="1.7945846">
        <ele>144</ele>
        <time>2022-03-17T10:42:08.000Z</time>
      </trkpt>
      <trkpt lat="47.539894" lon="1.7945886">
        <ele>145</ele>
        <time>2022-03-17T10:42:09.000Z</time>
      </trkpt>
      <trkpt lat="47.53988" lon="1.7945911">
        <ele>145</ele>
        <time>2022-03-17T10:42:10.000Z</time>
      </trkpt>
      <trkpt lat="47.53987" lon="1.7945948">
        <ele>146</ele>
        <time>2022-03-17T10:42:11.000Z</time>
      </trkpt>
      <trkpt lat="47.539856" lon="1.7945964">
        <ele>146</ele>
        <time>2022-03-17T10:42:12.000Z</time>
      </trkpt>
      <trkpt lat="47.539845" lon="1.7946042">
        <ele>145</ele>
        <time>2022-03-17T10:42:13.000Z</time>
      </trkpt>
      <trkpt lat="47.539833" lon="1.7946117">
        <ele>146</ele>
        <time>2022-03-17T10:42:14.000Z</time>
      </trkpt>
      <trkpt lat="47.539825" lon="1.794617">
        <ele>145</ele>
        <time>2022-03-17T10:42:15.000Z</time>
      </trkpt>
      <trkpt lat="47.539814" lon="1.7946182">
        <ele>145</ele>
        <time>2022-03-17T10:42:16.000Z</time>
      </trkpt>
      <trkpt lat="47.5398" lon="1.7946208">
        <ele>145</ele>
        <time>2022-03-17T10:42:17.000Z</time>
      </trkpt>
      <trkpt lat="47.539787" lon="1.794623">
        <ele>145</ele>
        <time>2022-03-17T10:42:18.000Z</time>
      </trkpt>
      <trkpt lat="47.539772" lon="1.7946243">
        <ele>145</ele>
        <time>2022-03-17T10:42:19.000Z</time>
      </trkpt>
      <trkpt lat="47.53976" lon="1.7946259">
        <ele>145</ele>
        <time>2022-03-17T10:42:20.000Z</time>
      </trkpt>
      <trkpt lat="47.53975" lon="1.794624">
        <ele>145</ele>
        <time>2022-03-17T10:42:21.000Z</time>
      </trkpt>
      <trkpt lat="47.539738" lon="1.7946259">
        <ele>145</ele>
        <time>2022-03-17T10:42:22.000Z</time>
      </trkpt>
      <trkpt lat="47.539726" lon="1.7946286">
        <ele>144</ele>
        <time>2022-03-17T10:42:23.000Z</time>
      </trkpt>
      <trkpt lat="47.539715" lon="1.7946343">
        <ele>144</ele>
        <time>2022-03-17T10:42:24.000Z</time>
      </trkpt>
      <trkpt lat="47.539696" lon="1.7946392">
        <ele>144</ele>
        <time>2022-03-17T10:42:25.000Z</time>
      </trkpt>
      <trkpt lat="47.539684" lon="1.7946427">
        <ele>144</ele>
        <time>2022-03-17T10:42:26.000Z</time>
      </trkpt>
      <trkpt lat="47.539673" lon="1.7946469">
        <ele>143</ele>
        <time>2022-03-17T10:42:27.000Z</time>
      </trkpt>
      <trkpt lat="47.539665" lon="1.794656">
        <ele>143</ele>
        <time>2022-03-17T10:42:28.000Z</time>
      </trkpt>
      <trkpt lat="47.539658" lon="1.7946659">
        <ele>143</ele>
        <time>2022-03-17T10:42:29.000Z</time>
      </trkpt>
      <trkpt lat="47.539646" lon="1.794673">
        <ele>143</ele>
        <time>2022-03-17T10:42:30.000Z</time>
      </trkpt>
      <trkpt lat="47.539635" lon="1.7946751">
        <ele>142</ele>
        <time>2022-03-17T10:42:31.000Z</time>
      </trkpt>
      <trkpt lat="47.539627" lon="1.7946731">
        <ele>142</ele>
        <time>2022-03-17T10:42:32.000Z</time>
      </trkpt>
      <trkpt lat="47.539616" lon="1.794673">
        <ele>141</ele>
        <time>2022-03-17T10:42:33.000Z</time>
      </trkpt>
      <trkpt lat="47.5396" lon="1.7946739">
        <ele>141</ele>
        <time>2022-03-17T10:42:34.000Z</time>
      </trkpt>
      <trkpt lat="47.539585" lon="1.7946754">
        <ele>141</ele>
        <time>2022-03-17T10:42:35.000Z</time>
      </trkpt>
      <trkpt lat="47.53957" lon="1.7946708">
        <ele>141</ele>
        <time>2022-03-17T10:42:36.000Z</time>
      </trkpt>
      <trkpt lat="47.53956" lon="1.7946707">
        <ele>141</ele>
        <time>2022-03-17T10:42:37.000Z</time>
      </trkpt>
      <trkpt lat="47.53954" lon="1.794667">
        <ele>141</ele>
        <time>2022-03-17T10:42:38.000Z</time>
      </trkpt>
      <trkpt lat="47.539524" lon="1.794665">
        <ele>141</ele>
        <time>2022-03-17T10:42:39.000Z</time>
      </trkpt>
      <trkpt lat="47.539513" lon="1.7946627">
        <ele>141</ele>
        <time>2022-03-17T10:42:40.000Z</time>
      </trkpt>
      <trkpt lat="47.539505" lon="1.7946662">
        <ele>141</ele>
        <time>2022-03-17T10:42:41.000Z</time>
      </trkpt>
      <trkpt lat="47.539494" lon="1.7946682">
        <ele>141</ele>
        <time>2022-03-17T10:42:42.000Z</time>
      </trkpt>
      <trkpt lat="47.53948" lon="1.7946719">
        <ele>141</ele>
        <time>2022-03-17T10:42:43.000Z</time>
      </trkpt>
      <trkpt lat="47.539463" lon="1.7946734">
        <ele>142</ele>
        <time>2022-03-17T10:42:44.000Z</time>
      </trkpt>
      <trkpt lat="47.53945" lon="1.7946752">
        <ele>141</ele>
        <time>2022-03-17T10:42:45.000Z</time>
      </trkpt>
      <trkpt lat="47.53944" lon="1.7946782">
        <ele>141</ele>
        <time>2022-03-17T10:42:46.000Z</time>
      </trkpt>
      <trkpt lat="47.539425" lon="1.7946804">
        <ele>141</ele>
        <time>2022-03-17T10:42:47.000Z</time>
      </trkpt>
      <trkpt lat="47.539413" lon="1.7946845">
        <ele>142</ele>
        <time>2022-03-17T10:42:48.000Z</time>
      </trkpt>
      <trkpt lat="47.539402" lon="1.7946873">
        <ele>141</ele>
        <time>2022-03-17T10:42:49.000Z</time>
      </trkpt>
      <trkpt lat="47.53939" lon="1.7946906">
        <ele>141</ele>
        <time>2022-03-17T10:42:50.000Z</time>
      </trkpt>
      <trkpt lat="47.539375" lon="1.7946943">
        <ele>142</ele>
        <time>2022-03-17T10:42:51.000Z</time>
      </trkpt>
      <trkpt lat="47.539364" lon="1.7946956">
        <ele>142</ele>
        <time>2022-03-17T10:42:52.000Z</time>
      </trkpt>
      <trkpt lat="47.539356" lon="1.794699">
        <ele>142</ele>
        <time>2022-03-17T10:42:53.000Z</time>
      </trkpt>
      <trkpt lat="47.539345" lon="1.794699">
        <ele>143</ele>
        <time>2022-03-17T10:42:54.000Z</time>
      </trkpt>
      <trkpt lat="47.53933" lon="1.7947012">
        <ele>143</ele>
        <time>2022-03-17T10:42:55.000Z</time>
      </trkpt>
      <trkpt lat="47.539318" lon="1.7947006">
        <ele>144</ele>
        <time>2022-03-17T10:42:56.000Z</time>
      </trkpt>
      <trkpt lat="47.539307" lon="1.7947022">
        <ele>144</ele>
        <time>2022-03-17T10:42:57.000Z</time>
      </trkpt>
      <trkpt lat="47.539295" lon="1.7947024">
        <ele>144</ele>
        <time>2022-03-17T10:42:58.000Z</time>
      </trkpt>
      <trkpt lat="47.539288" lon="1.7947012">
        <ele>144</ele>
        <time>2022-03-17T10:42:59.000Z</time>
      </trkpt>
      <trkpt lat="47.53928" lon="1.7947042">
        <ele>144</ele>
        <time>2022-03-17T10:43:00.000Z</time>
      </trkpt>
      <trkpt lat="47.53927" lon="1.7947077">
        <ele>144</ele>
        <time>2022-03-17T10:43:01.000Z</time>
      </trkpt>
      <trkpt lat="47.539257" lon="1.7947083">
        <ele>144</ele>
        <time>2022-03-17T10:43:02.000Z</time>
      </trkpt>
      <trkpt lat="47.53924" lon="1.79471">
        <ele>144</ele>
        <time>2022-03-17T10:43:03.000Z</time>
      </trkpt>
      <trkpt lat="47.53923" lon="1.7947109">
        <ele>144</ele>
        <time>2022-03-17T10:43:04.000Z</time>
      </trkpt>
      <trkpt lat="47.53922" lon="1.7947109">
        <ele>144</ele>
        <time>2022-03-17T10:43:05.000Z</time>
      </trkpt>
      <trkpt lat="47.539204" lon="1.794715">
        <ele>143</ele>
        <time>2022-03-17T10:43:06.000Z</time>
      </trkpt>
      <trkpt lat="47.539196" lon="1.7947167">
        <ele>143</ele>
        <time>2022-03-17T10:43:07.000Z</time>
      </trkpt>
      <trkpt lat="47.539185" lon="1.7947158">
        <ele>144</ele>
        <time>2022-03-17T10:43:08.000Z</time>
      </trkpt>
      <trkpt lat="47.539177" lon="1.7947154">
        <ele>144</ele>
        <time>2022-03-17T10:43:09.000Z</time>
      </trkpt>
      <trkpt lat="47.53917" lon="1.7947167">
        <ele>143</ele>
        <time>2022-03-17T10:43:10.000Z</time>
      </trkpt>
      <trkpt lat="47.539158" lon="1.7947185">
        <ele>143</ele>
        <time>2022-03-17T10:43:11.000Z</time>
      </trkpt>
      <trkpt lat="47.539146" lon="1.7947204">
        <ele>143</ele>
        <time>2022-03-17T10:43:12.000Z</time>
      </trkpt>
      <trkpt lat="47.53914" lon="1.7947212">
        <ele>143</ele>
        <time>2022-03-17T10:43:13.000Z</time>
      </trkpt>
      <trkpt lat="47.539127" lon="1.794723">
        <ele>142</ele>
        <time>2022-03-17T10:43:14.000Z</time>
      </trkpt>
      <trkpt lat="47.539116" lon="1.7947235">
        <ele>142</ele>
        <time>2022-03-17T10:43:15.000Z</time>
      </trkpt>
      <trkpt lat="47.5391" lon="1.7947253">
        <ele>142</ele>
        <time>2022-03-17T10:43:16.000Z</time>
      </trkpt>
      <trkpt lat="47.53909" lon="1.794726">
        <ele>142</ele>
        <time>2022-03-17T10:43:17.000Z</time>
      </trkpt>
      <trkpt lat="47.539078" lon="1.7947235">
        <ele>142</ele>
        <time>2022-03-17T10:43:18.000Z</time>
      </trkpt>
      <trkpt lat="47.539062" lon="1.7947241">
        <ele>142</ele>
        <time>2022-03-17T10:43:19.000Z</time>
      </trkpt>
      <trkpt lat="47.53905" lon="1.794727">
        <ele>142</ele>
        <time>2022-03-17T10:43:20.000Z</time>
      </trkpt>
      <trkpt lat="47.53904" lon="1.7947321">
        <ele>142</ele>
        <time>2022-03-17T10:43:21.000Z</time>
      </trkpt>
      <trkpt lat="47.539024" lon="1.7947333">
        <ele>142</ele>
        <time>2022-03-17T10:43:22.000Z</time>
      </trkpt>
      <trkpt lat="47.53901" lon="1.7947363">
        <ele>142</ele>
        <time>2022-03-17T10:43:23.000Z</time>
      </trkpt>
      <trkpt lat="47.538994" lon="1.7947385">
        <ele>142</ele>
        <time>2022-03-17T10:43:24.000Z</time>
      </trkpt>
      <trkpt lat="47.53898" lon="1.7947346">
        <ele>142</ele>
        <time>2022-03-17T10:43:25.000Z</time>
      </trkpt>
      <trkpt lat="47.538967" lon="1.794733">
        <ele>141</ele>
        <time>2022-03-17T10:43:26.000Z</time>
      </trkpt>
      <trkpt lat="47.53895" lon="1.7947342">
        <ele>141</ele>
        <time>2022-03-17T10:43:27.000Z</time>
      </trkpt>
      <trkpt lat="47.538937" lon="1.7947338">
        <ele>141</ele>
        <time>2022-03-17T10:43:28.000Z</time>
      </trkpt>
      <trkpt lat="47.53892" lon="1.7947371">
        <ele>141</ele>
        <time>2022-03-17T10:43:29.000Z</time>
      </trkpt>
      <trkpt lat="47.538914" lon="1.7947367">
        <ele>141</ele>
        <time>2022-03-17T10:43:30.000Z</time>
      </trkpt>
      <trkpt lat="47.5389" lon="1.7947371">
        <ele>141</ele>
        <time>2022-03-17T10:43:31.000Z</time>
      </trkpt>
      <trkpt lat="47.538887" lon="1.7947389">
        <ele>141</ele>
        <time>2022-03-17T10:43:32.000Z</time>
      </trkpt>
      <trkpt lat="47.538868" lon="1.7947396">
        <ele>142</ele>
        <time>2022-03-17T10:43:33.000Z</time>
      </trkpt>
      <trkpt lat="47.53885" lon="1.7947435">
        <ele>142</ele>
        <time>2022-03-17T10:43:34.000Z</time>
      </trkpt>
      <trkpt lat="47.538834" lon="1.7947471">
        <ele>142</ele>
        <time>2022-03-17T10:43:35.000Z</time>
      </trkpt>
      <trkpt lat="47.538822" lon="1.7947495">
        <ele>142</ele>
        <time>2022-03-17T10:43:36.000Z</time>
      </trkpt>
      <trkpt lat="47.538807" lon="1.7947503">
        <ele>142</ele>
        <time>2022-03-17T10:43:37.000Z</time>
      </trkpt>
      <trkpt lat="47.53879" lon="1.794754">
        <ele>142</ele>
        <time>2022-03-17T10:43:38.000Z</time>
      </trkpt>
      <trkpt lat="47.53878" lon="1.7947592">
        <ele>142</ele>
        <time>2022-03-17T10:43:39.000Z</time>
      </trkpt>
      <trkpt lat="47.53877" lon="1.7947559">
        <ele>142</ele>
        <time>2022-03-17T10:43:40.000Z</time>
      </trkpt>
      <trkpt lat="47.538754" lon="1.7947482">
        <ele>142</ele>
        <time>2022-03-17T10:43:41.000Z</time>
      </trkpt>
      <trkpt lat="47.538742" lon="1.7947501">
        <ele>142</ele>
        <time>2022-03-17T10:43:42.000Z</time>
      </trkpt>
      <trkpt lat="47.53873" lon="1.7947484">
        <ele>142</ele>
        <time>2022-03-17T10:43:43.000Z</time>
      </trkpt>
      <trkpt lat="47.538715" lon="1.7947435">
        <ele>141</ele>
        <time>2022-03-17T10:43:44.000Z</time>
      </trkpt>
      <trkpt lat="47.538704" lon="1.7947421">
        <ele>141</ele>
        <time>2022-03-17T10:43:45.000Z</time>
      </trkpt>
      <trkpt lat="47.538696" lon="1.7947415">
        <ele>141</ele>
        <time>2022-03-17T10:43:46.000Z</time>
      </trkpt>
      <trkpt lat="47.538685" lon="1.7947447">
        <ele>140</ele>
        <time>2022-03-17T10:43:47.000Z</time>
      </trkpt>
      <trkpt lat="47.538673" lon="1.794745">
        <ele>141</ele>
        <time>2022-03-17T10:43:48.000Z</time>
      </trkpt>
      <trkpt lat="47.538662" lon="1.7947448">
        <ele>141</ele>
        <time>2022-03-17T10:43:49.000Z</time>
      </trkpt>
      <trkpt lat="47.538647" lon="1.7947497">
        <ele>141</ele>
        <time>2022-03-17T10:43:50.000Z</time>
      </trkpt>
      <trkpt lat="47.538635" lon="1.7947488">
        <ele>140</ele>
        <time>2022-03-17T10:43:51.000Z</time>
      </trkpt>
      <trkpt lat="47.538624" lon="1.7947475">
        <ele>140</ele>
        <time>2022-03-17T10:43:52.000Z</time>
      </trkpt>
      <trkpt lat="47.538612" lon="1.794743">
        <ele>140</ele>
        <time>2022-03-17T10:43:53.000Z</time>
      </trkpt>
      <trkpt lat="47.538597" lon="1.7947413">
        <ele>140</ele>
        <time>2022-03-17T10:43:54.000Z</time>
      </trkpt>
      <trkpt lat="47.53858" lon="1.7947421">
        <ele>140</ele>
        <time>2022-03-17T10:43:55.000Z</time>
      </trkpt>
      <trkpt lat="47.53857" lon="1.7947444">
        <ele>140</ele>
        <time>2022-03-17T10:43:56.000Z</time>
      </trkpt>
      <trkpt lat="47.538555" lon="1.7947483">
        <ele>140</ele>
        <time>2022-03-17T10:43:57.000Z</time>
      </trkpt>
      <trkpt lat="47.538544" lon="1.7947507">
        <ele>140</ele>
        <time>2022-03-17T10:43:58.000Z</time>
      </trkpt>
      <trkpt lat="47.53853" lon="1.7947557">
        <ele>140</ele>
        <time>2022-03-17T10:43:59.000Z</time>
      </trkpt>
      <trkpt lat="47.53852" lon="1.7947601">
        <ele>140</ele>
        <time>2022-03-17T10:44:00.000Z</time>
      </trkpt>
      <trkpt lat="47.538506" lon="1.7947642">
        <ele>140</ele>
        <time>2022-03-17T10:44:01.000Z</time>
      </trkpt>
      <trkpt lat="47.538494" lon="1.794774">
        <ele>140</ele>
        <time>2022-03-17T10:44:02.000Z</time>
      </trkpt>
      <trkpt lat="47.538483" lon="1.7947819">
        <ele>141</ele>
        <time>2022-03-17T10:44:03.000Z</time>
      </trkpt>
      <trkpt lat="47.538475" lon="1.7947867">
        <ele>141</ele>
        <time>2022-03-17T10:44:04.000Z</time>
      </trkpt>
      <trkpt lat="47.538464" lon="1.7947938">
        <ele>141</ele>
        <time>2022-03-17T10:44:05.000Z</time>
      </trkpt>
      <trkpt lat="47.538456" lon="1.7948053">
        <ele>142</ele>
        <time>2022-03-17T10:44:06.000Z</time>
      </trkpt>
      <trkpt lat="47.538452" lon="1.7948152">
        <ele>143</ele>
        <time>2022-03-17T10:44:07.000Z</time>
      </trkpt>
      <trkpt lat="47.538445" lon="1.7948221">
        <ele>143</ele>
        <time>2022-03-17T10:44:08.000Z</time>
      </trkpt>
      <trkpt lat="47.538437" lon="1.7948356">
        <ele>143</ele>
        <time>2022-03-17T10:44:09.000Z</time>
      </trkpt>
      <trkpt lat="47.53843" lon="1.7948502">
        <ele>143</ele>
        <time>2022-03-17T10:44:10.000Z</time>
      </trkpt>
      <trkpt lat="47.53842" lon="1.7948645">
        <ele>143</ele>
        <time>2022-03-17T10:44:11.000Z</time>
      </trkpt>
      <trkpt lat="47.538414" lon="1.7948807">
        <ele>144</ele>
        <time>2022-03-17T10:44:12.000Z</time>
      </trkpt>
      <trkpt lat="47.538403" lon="1.7948987">
        <ele>143</ele>
        <time>2022-03-17T10:44:13.000Z</time>
      </trkpt>
      <trkpt lat="47.538395" lon="1.7949132">
        <ele>143</ele>
        <time>2022-03-17T10:44:14.000Z</time>
      </trkpt>
      <trkpt lat="47.538383" lon="1.794929">
        <ele>143</ele>
        <time>2022-03-17T10:44:15.000Z</time>
      </trkpt>
      <trkpt lat="47.538372" lon="1.7949424">
        <ele>143</ele>
        <time>2022-03-17T10:44:16.000Z</time>
      </trkpt>
      <trkpt lat="47.53836" lon="1.7949529">
        <ele>143</ele>
        <time>2022-03-17T10:44:17.000Z</time>
      </trkpt>
      <trkpt lat="47.53835" lon="1.7949632">
        <ele>143</ele>
        <time>2022-03-17T10:44:18.000Z</time>
      </trkpt>
      <trkpt lat="47.538338" lon="1.7949765">
        <ele>143</ele>
        <time>2022-03-17T10:44:19.000Z</time>
      </trkpt>
      <trkpt lat="47.538322" lon="1.7949907">
        <ele>143</ele>
        <time>2022-03-17T10:44:20.000Z</time>
      </trkpt>
      <trkpt lat="47.538315" lon="1.7950047">
        <ele>143</ele>
        <time>2022-03-17T10:44:21.000Z</time>
      </trkpt>
      <trkpt lat="47.538303" lon="1.7950159">
        <ele>143</ele>
        <time>2022-03-17T10:44:22.000Z</time>
      </trkpt>
      <trkpt lat="47.538292" lon="1.7950271">
        <ele>143</ele>
        <time>2022-03-17T10:44:23.000Z</time>
      </trkpt>
      <trkpt lat="47.53828" lon="1.7950407">
        <ele>143</ele>
        <time>2022-03-17T10:44:24.000Z</time>
      </trkpt>
      <trkpt lat="47.53827" lon="1.7950485">
        <ele>143</ele>
        <time>2022-03-17T10:44:25.000Z</time>
      </trkpt>
      <trkpt lat="47.538258" lon="1.7950612">
        <ele>143</ele>
        <time>2022-03-17T10:44:26.000Z</time>
      </trkpt>
      <trkpt lat="47.538246" lon="1.7950698">
        <ele>143</ele>
        <time>2022-03-17T10:44:27.000Z</time>
      </trkpt>
      <trkpt lat="47.538235" lon="1.7950804">
        <ele>143</ele>
        <time>2022-03-17T10:44:28.000Z</time>
      </trkpt>
      <trkpt lat="47.538223" lon="1.79509">
        <ele>143</ele>
        <time>2022-03-17T10:44:29.000Z</time>
      </trkpt>
      <trkpt lat="47.53821" lon="1.7951006">
        <ele>143</ele>
        <time>2022-03-17T10:44:30.000Z</time>
      </trkpt>
      <trkpt lat="47.538204" lon="1.7951047">
        <ele>143</ele>
        <time>2022-03-17T10:44:31.000Z</time>
      </trkpt>
      <trkpt lat="47.538197" lon="1.795117">
        <ele>142</ele>
        <time>2022-03-17T10:44:32.000Z</time>
      </trkpt>
      <trkpt lat="47.53819" lon="1.7951263">
        <ele>142</ele>
        <time>2022-03-17T10:44:33.000Z</time>
      </trkpt>
      <trkpt lat="47.53818" lon="1.795138">
        <ele>142</ele>
        <time>2022-03-17T10:44:34.000Z</time>
      </trkpt>
      <trkpt lat="47.53817" lon="1.7951503">
        <ele>142</ele>
        <time>2022-03-17T10:44:35.000Z</time>
      </trkpt>
      <trkpt lat="47.53816" lon="1.7951609">
        <ele>142</ele>
        <time>2022-03-17T10:44:36.000Z</time>
      </trkpt>
      <trkpt lat="47.538147" lon="1.7951727">
        <ele>142</ele>
        <time>2022-03-17T10:44:37.000Z</time>
      </trkpt>
      <trkpt lat="47.53814" lon="1.7951838">
        <ele>142</ele>
        <time>2022-03-17T10:44:38.000Z</time>
      </trkpt>
      <trkpt lat="47.53813" lon="1.7951975">
        <ele>142</ele>
        <time>2022-03-17T10:44:39.000Z</time>
      </trkpt>
      <trkpt lat="47.538124" lon="1.7952071">
        <ele>141</ele>
        <time>2022-03-17T10:44:40.000Z</time>
      </trkpt>
      <trkpt lat="47.538116" lon="1.7952186">
        <ele>141</ele>
        <time>2022-03-17T10:44:41.000Z</time>
      </trkpt>
      <trkpt lat="47.538105" lon="1.7952275">
        <ele>141</ele>
        <time>2022-03-17T10:44:42.000Z</time>
      </trkpt>
      <trkpt lat="47.538094" lon="1.795236">
        <ele>141</ele>
        <time>2022-03-17T10:44:43.000Z</time>
      </trkpt>
      <trkpt lat="47.538086" lon="1.795248">
        <ele>141</ele>
        <time>2022-03-17T10:44:44.000Z</time>
      </trkpt>
      <trkpt lat="47.538082" lon="1.7952608">
        <ele>141</ele>
        <time>2022-03-17T10:44:45.000Z</time>
      </trkpt>
      <trkpt lat="47.53807" lon="1.7952673">
        <ele>141</ele>
        <time>2022-03-17T10:44:46.000Z</time>
      </trkpt>
      <trkpt lat="47.53806" lon="1.7952803">
        <ele>140</ele>
        <time>2022-03-17T10:44:47.000Z</time>
      </trkpt>
      <trkpt lat="47.53805" lon="1.7952921">
        <ele>141</ele>
        <time>2022-03-17T10:44:48.000Z</time>
      </trkpt>
      <trkpt lat="47.538044" lon="1.7953062">
        <ele>141</ele>
        <time>2022-03-17T10:44:49.000Z</time>
      </trkpt>
      <trkpt lat="47.538033" lon="1.7953179">
        <ele>142</ele>
        <time>2022-03-17T10:44:50.000Z</time>
      </trkpt>
      <trkpt lat="47.53802" lon="1.7953309">
        <ele>142</ele>
        <time>2022-03-17T10:44:51.000Z</time>
      </trkpt>
      <trkpt lat="47.538013" lon="1.7953387">
        <ele>141</ele>
        <time>2022-03-17T10:44:52.000Z</time>
      </trkpt>
      <trkpt lat="47.538002" lon="1.7953426">
        <ele>141</ele>
        <time>2022-03-17T10:44:53.000Z</time>
      </trkpt>
      <trkpt lat="47.537994" lon="1.7953514">
        <ele>141</ele>
        <time>2022-03-17T10:44:54.000Z</time>
      </trkpt>
      <trkpt lat="47.53799" lon="1.7953619">
        <ele>141</ele>
        <time>2022-03-17T10:44:55.000Z</time>
      </trkpt>
      <trkpt lat="47.53798" lon="1.7953736">
        <ele>141</ele>
        <time>2022-03-17T10:44:56.000Z</time>
      </trkpt>
      <trkpt lat="47.53797" lon="1.7953867">
        <ele>141</ele>
        <time>2022-03-17T10:44:57.000Z</time>
      </trkpt>
      <trkpt lat="47.53796" lon="1.7954011">
        <ele>141</ele>
        <time>2022-03-17T10:44:58.000Z</time>
      </trkpt>
      <trkpt lat="47.537952" lon="1.7954149">
        <ele>140</ele>
        <time>2022-03-17T10:44:59.000Z</time>
      </trkpt>
      <trkpt lat="47.53794" lon="1.7954248">
        <ele>141</ele>
        <time>2022-03-17T10:45:00.000Z</time>
      </trkpt>
      <trkpt lat="47.53793" lon="1.7954386">
        <ele>140</ele>
        <time>2022-03-17T10:45:01.000Z</time>
      </trkpt>
      <trkpt lat="47.53792" lon="1.7954506">
        <ele>141</ele>
        <time>2022-03-17T10:45:02.000Z</time>
      </trkpt>
      <trkpt lat="47.53791" lon="1.7954583">
        <ele>141</ele>
        <time>2022-03-17T10:45:03.000Z</time>
      </trkpt>
      <trkpt lat="47.537903" lon="1.7954657">
        <ele>140</ele>
        <time>2022-03-17T10:45:04.000Z</time>
      </trkpt>
      <trkpt lat="47.537895" lon="1.7954766">
        <ele>141</ele>
        <time>2022-03-17T10:45:05.000Z</time>
      </trkpt>
      <trkpt lat="47.537884" lon="1.7954868">
        <ele>141</ele>
        <time>2022-03-17T10:45:06.000Z</time>
      </trkpt>
      <trkpt lat="47.537872" lon="1.7955023">
        <ele>141</ele>
        <time>2022-03-17T10:45:07.000Z</time>
      </trkpt>
      <trkpt lat="47.537865" lon="1.7955129">
        <ele>141</ele>
        <time>2022-03-17T10:45:08.000Z</time>
      </trkpt>
      <trkpt lat="47.537857" lon="1.7955244">
        <ele>141</ele>
        <time>2022-03-17T10:45:09.000Z</time>
      </trkpt>
      <trkpt lat="47.537853" lon="1.7955359">
        <ele>141</ele>
        <time>2022-03-17T10:45:10.000Z</time>
      </trkpt>
      <trkpt lat="47.537846" lon="1.7955472">
        <ele>141</ele>
        <time>2022-03-17T10:45:11.000Z</time>
      </trkpt>
      <trkpt lat="47.537834" lon="1.795557">
        <ele>141</ele>
        <time>2022-03-17T10:45:12.000Z</time>
      </trkpt>
      <trkpt lat="47.537823" lon="1.7955666">
        <ele>141</ele>
        <time>2022-03-17T10:45:13.000Z</time>
      </trkpt>
      <trkpt lat="47.53781" lon="1.7955766">
        <ele>141</ele>
        <time>2022-03-17T10:45:14.000Z</time>
      </trkpt>
      <trkpt lat="47.537804" lon="1.7955872">
        <ele>141</ele>
        <time>2022-03-17T10:45:15.000Z</time>
      </trkpt>
      <trkpt lat="47.537796" lon="1.7955985">
        <ele>142</ele>
        <time>2022-03-17T10:45:16.000Z</time>
      </trkpt>
      <trkpt lat="47.537785" lon="1.79561">
        <ele>142</ele>
        <time>2022-03-17T10:45:17.000Z</time>
      </trkpt>
      <trkpt lat="47.537773" lon="1.7956239">
        <ele>142</ele>
        <time>2022-03-17T10:45:18.000Z</time>
      </trkpt>
      <trkpt lat="47.53776" lon="1.7956365">
        <ele>142</ele>
        <time>2022-03-17T10:45:19.000Z</time>
      </trkpt>
      <trkpt lat="47.537754" lon="1.7956476">
        <ele>142</ele>
        <time>2022-03-17T10:45:20.000Z</time>
      </trkpt>
      <trkpt lat="47.537743" lon="1.7956578">
        <ele>142</ele>
        <time>2022-03-17T10:45:21.000Z</time>
      </trkpt>
      <trkpt lat="47.537735" lon="1.7956645">
        <ele>142</ele>
        <time>2022-03-17T10:45:22.000Z</time>
      </trkpt>
      <trkpt lat="47.537724" lon="1.7956733">
        <ele>141</ele>
        <time>2022-03-17T10:45:23.000Z</time>
      </trkpt>
      <trkpt lat="47.537712" lon="1.7956812">
        <ele>141</ele>
        <time>2022-03-17T10:45:24.000Z</time>
      </trkpt>
      <trkpt lat="47.5377" lon="1.7956879">
        <ele>140</ele>
        <time>2022-03-17T10:45:25.000Z</time>
      </trkpt>
      <trkpt lat="47.537693" lon="1.7956951">
        <ele>140</ele>
        <time>2022-03-17T10:45:26.000Z</time>
      </trkpt>
      <trkpt lat="47.53768" lon="1.7957039">
        <ele>141</ele>
        <time>2022-03-17T10:45:27.000Z</time>
      </trkpt>
      <trkpt lat="47.53767" lon="1.7957094">
        <ele>141</ele>
        <time>2022-03-17T10:45:28.000Z</time>
      </trkpt>
      <trkpt lat="47.53766" lon="1.7957156">
        <ele>141</ele>
        <time>2022-03-17T10:45:29.000Z</time>
      </trkpt>
      <trkpt lat="47.537647" lon="1.7957226">
        <ele>141</ele>
        <time>2022-03-17T10:45:30.000Z</time>
      </trkpt>
      <trkpt lat="47.537636" lon="1.7957343">
        <ele>141</ele>
        <time>2022-03-17T10:45:31.000Z</time>
      </trkpt>
      <trkpt lat="47.537624" lon="1.7957449">
        <ele>141</ele>
        <time>2022-03-17T10:45:32.000Z</time>
      </trkpt>
      <trkpt lat="47.537613" lon="1.7957557">
        <ele>141</ele>
        <time>2022-03-17T10:45:33.000Z</time>
      </trkpt>
      <trkpt lat="47.5376" lon="1.7957685">
        <ele>141</ele>
        <time>2022-03-17T10:45:34.000Z</time>
      </trkpt>
      <trkpt lat="47.53759" lon="1.7957796">
        <ele>141</ele>
        <time>2022-03-17T10:45:35.000Z</time>
      </trkpt>
      <trkpt lat="47.53758" lon="1.7957836">
        <ele>141</ele>
        <time>2022-03-17T10:45:36.000Z</time>
      </trkpt>
      <trkpt lat="47.537567" lon="1.7957913">
        <ele>142</ele>
        <time>2022-03-17T10:45:37.000Z</time>
      </trkpt>
      <trkpt lat="47.537556" lon="1.7957997">
        <ele>142</ele>
        <time>2022-03-17T10:45:38.000Z</time>
      </trkpt>
      <trkpt lat="47.537544" lon="1.7958091">
        <ele>142</ele>
        <time>2022-03-17T10:45:39.000Z</time>
      </trkpt>
      <trkpt lat="47.537533" lon="1.7958168">
        <ele>142</ele>
        <time>2022-03-17T10:45:40.000Z</time>
      </trkpt>
      <trkpt lat="47.537525" lon="1.795824">
        <ele>142</ele>
        <time>2022-03-17T10:45:41.000Z</time>
      </trkpt>
      <trkpt lat="47.537514" lon="1.7958269">
        <ele>142</ele>
        <time>2022-03-17T10:45:42.000Z</time>
      </trkpt>
      <trkpt lat="47.537502" lon="1.7958333">
        <ele>142</ele>
        <time>2022-03-17T10:45:43.000Z</time>
      </trkpt>
      <trkpt lat="47.537487" lon="1.7958399">
        <ele>143</ele>
        <time>2022-03-17T10:45:44.000Z</time>
      </trkpt>
      <trkpt lat="47.53748" lon="1.7958499">
        <ele>143</ele>
        <time>2022-03-17T10:45:45.000Z</time>
      </trkpt>
      <trkpt lat="47.53747" lon="1.7958606">
        <ele>143</ele>
        <time>2022-03-17T10:45:46.000Z</time>
      </trkpt>
      <trkpt lat="47.537464" lon="1.7958721">
        <ele>143</ele>
        <time>2022-03-17T10:45:47.000Z</time>
      </trkpt>
      <trkpt lat="47.537453" lon="1.7958847">
        <ele>143</ele>
        <time>2022-03-17T10:45:48.000Z</time>
      </trkpt>
      <trkpt lat="47.53744" lon="1.7958952">
        <ele>143</ele>
        <time>2022-03-17T10:45:49.000Z</time>
      </trkpt>
      <trkpt lat="47.53743" lon="1.7959045">
        <ele>143</ele>
        <time>2022-03-17T10:45:50.000Z</time>
      </trkpt>
      <trkpt lat="47.537422" lon="1.7959161">
        <ele>143</ele>
        <time>2022-03-17T10:45:51.000Z</time>
      </trkpt>
      <trkpt lat="47.53741" lon="1.7959272">
        <ele>143</ele>
        <time>2022-03-17T10:45:52.000Z</time>
      </trkpt>
      <trkpt lat="47.5374" lon="1.795936">
        <ele>143</ele>
        <time>2022-03-17T10:45:53.000Z</time>
      </trkpt>
      <trkpt lat="47.53739" lon="1.7959428">
        <ele>142</ele>
        <time>2022-03-17T10:45:54.000Z</time>
      </trkpt>
      <trkpt lat="47.537384" lon="1.7959491">
        <ele>143</ele>
        <time>2022-03-17T10:45:55.000Z</time>
      </trkpt>
      <trkpt lat="47.537373" lon="1.7959616">
        <ele>143</ele>
        <time>2022-03-17T10:45:56.000Z</time>
      </trkpt>
      <trkpt lat="47.53736" lon="1.7959698">
        <ele>144</ele>
        <time>2022-03-17T10:45:57.000Z</time>
      </trkpt>
      <trkpt lat="47.53735" lon="1.7959864">
        <ele>143</ele>
        <time>2022-03-17T10:45:58.000Z</time>
      </trkpt>
      <trkpt lat="47.537342" lon="1.7959946">
        <ele>144</ele>
        <time>2022-03-17T10:45:59.000Z</time>
      </trkpt>
      <trkpt lat="47.537334" lon="1.7960079">
        <ele>143</ele>
        <time>2022-03-17T10:46:00.000Z</time>
      </trkpt>
      <trkpt lat="47.537327" lon="1.7960207">
        <ele>143</ele>
        <time>2022-03-17T10:46:01.000Z</time>
      </trkpt>
      <trkpt lat="47.537315" lon="1.7960308">
        <ele>142</ele>
        <time>2022-03-17T10:46:02.000Z</time>
      </trkpt>
      <trkpt lat="47.5373" lon="1.7960324">
        <ele>142</ele>
        <time>2022-03-17T10:46:03.000Z</time>
      </trkpt>
      <trkpt lat="47.537292" lon="1.7960452">
        <ele>142</ele>
        <time>2022-03-17T10:46:04.000Z</time>
      </trkpt>
      <trkpt lat="47.53728" lon="1.7960603">
        <ele>142</ele>
        <time>2022-03-17T10:46:05.000Z</time>
      </trkpt>
      <trkpt lat="47.53727" lon="1.7960773">
        <ele>142</ele>
        <time>2022-03-17T10:46:06.000Z</time>
      </trkpt>
      <trkpt lat="47.537266" lon="1.796092">
        <ele>142</ele>
        <time>2022-03-17T10:46:07.000Z</time>
      </trkpt>
      <trkpt lat="47.537254" lon="1.7961035">
        <ele>142</ele>
        <time>2022-03-17T10:46:08.000Z</time>
      </trkpt>
      <trkpt lat="47.537247" lon="1.7961123">
        <ele>142</ele>
        <time>2022-03-17T10:46:09.000Z</time>
      </trkpt>
      <trkpt lat="47.537235" lon="1.7961208">
        <ele>142</ele>
        <time>2022-03-17T10:46:10.000Z</time>
      </trkpt>
      <trkpt lat="47.537228" lon="1.7961243">
        <ele>142</ele>
        <time>2022-03-17T10:46:11.000Z</time>
      </trkpt>
      <trkpt lat="47.53722" lon="1.7961385">
        <ele>141</ele>
        <time>2022-03-17T10:46:12.000Z</time>
      </trkpt>
      <trkpt lat="47.537205" lon="1.7961445">
        <ele>141</ele>
        <time>2022-03-17T10:46:13.000Z</time>
      </trkpt>
      <trkpt lat="47.537197" lon="1.7961549">
        <ele>140</ele>
        <time>2022-03-17T10:46:14.000Z</time>
      </trkpt>
      <trkpt lat="47.537186" lon="1.7961587">
        <ele>140</ele>
        <time>2022-03-17T10:46:15.000Z</time>
      </trkpt>
      <trkpt lat="47.537174" lon="1.7961599">
        <ele>141</ele>
        <time>2022-03-17T10:46:16.000Z</time>
      </trkpt>
      <trkpt lat="47.537163" lon="1.7961662">
        <ele>140</ele>
        <time>2022-03-17T10:46:17.000Z</time>
      </trkpt>
      <trkpt lat="47.53715" lon="1.7961751">
        <ele>140</ele>
        <time>2022-03-17T10:46:18.000Z</time>
      </trkpt>
      <trkpt lat="47.53714" lon="1.7961818">
        <ele>141</ele>
        <time>2022-03-17T10:46:19.000Z</time>
      </trkpt>
      <trkpt lat="47.537132" lon="1.7961929">
        <ele>141</ele>
        <time>2022-03-17T10:46:20.000Z</time>
      </trkpt>
      <trkpt lat="47.537125" lon="1.7961988">
        <ele>141</ele>
        <time>2022-03-17T10:46:21.000Z</time>
      </trkpt>
      <trkpt lat="47.537117" lon="1.7962016">
        <ele>141</ele>
        <time>2022-03-17T10:46:22.000Z</time>
      </trkpt>
      <trkpt lat="47.537106" lon="1.7962061">
        <ele>141</ele>
        <time>2022-03-17T10:46:23.000Z</time>
      </trkpt>
      <trkpt lat="47.537094" lon="1.7962149">
        <ele>141</ele>
        <time>2022-03-17T10:46:24.000Z</time>
      </trkpt>
      <trkpt lat="47.537083" lon="1.7962226">
        <ele>141</ele>
        <time>2022-03-17T10:46:25.000Z</time>
      </trkpt>
      <trkpt lat="47.537075" lon="1.7962276">
        <ele>141</ele>
        <time>2022-03-17T10:46:26.000Z</time>
      </trkpt>
      <trkpt lat="47.537064" lon="1.7962354">
        <ele>140</ele>
        <time>2022-03-17T10:46:27.000Z</time>
      </trkpt>
      <trkpt lat="47.537052" lon="1.7962468">
        <ele>140</ele>
        <time>2022-03-17T10:46:28.000Z</time>
      </trkpt>
      <trkpt lat="47.53704" lon="1.7962586">
        <ele>140</ele>
        <time>2022-03-17T10:46:29.000Z</time>
      </trkpt>
      <trkpt lat="47.537033" lon="1.7962724">
        <ele>140</ele>
        <time>2022-03-17T10:46:30.000Z</time>
      </trkpt>
      <trkpt lat="47.537025" lon="1.796279">
        <ele>139</ele>
        <time>2022-03-17T10:46:31.000Z</time>
      </trkpt>
      <trkpt lat="47.537018" lon="1.7962896">
        <ele>139</ele>
        <time>2022-03-17T10:46:32.000Z</time>
      </trkpt>
      <trkpt lat="47.537006" lon="1.7963027">
        <ele>139</ele>
        <time>2022-03-17T10:46:33.000Z</time>
      </trkpt>
      <trkpt lat="47.53699" lon="1.7963134">
        <ele>140</ele>
        <time>2022-03-17T10:46:34.000Z</time>
      </trkpt>
      <trkpt lat="47.536983" lon="1.7963274">
        <ele>140</ele>
        <time>2022-03-17T10:46:35.000Z</time>
      </trkpt>
      <trkpt lat="47.536972" lon="1.7963364">
        <ele>141</ele>
        <time>2022-03-17T10:46:36.000Z</time>
      </trkpt>
      <trkpt lat="47.536964" lon="1.7963442">
        <ele>141</ele>
        <time>2022-03-17T10:46:37.000Z</time>
      </trkpt>
      <trkpt lat="47.536957" lon="1.7963557">
        <ele>141</ele>
        <time>2022-03-17T10:46:38.000Z</time>
      </trkpt>
      <trkpt lat="47.53695" lon="1.796365">
        <ele>141</ele>
        <time>2022-03-17T10:46:39.000Z</time>
      </trkpt>
      <trkpt lat="47.536938" lon="1.7963727">
        <ele>141</ele>
        <time>2022-03-17T10:46:40.000Z</time>
      </trkpt>
      <trkpt lat="47.53693" lon="1.796376">
        <ele>142</ele>
        <time>2022-03-17T10:46:41.000Z</time>
      </trkpt>
      <trkpt lat="47.536922" lon="1.7963854">
        <ele>141</ele>
        <time>2022-03-17T10:46:42.000Z</time>
      </trkpt>
      <trkpt lat="47.536915" lon="1.7963955">
        <ele>141</ele>
        <time>2022-03-17T10:46:43.000Z</time>
      </trkpt>
      <trkpt lat="47.536903" lon="1.7964054">
        <ele>142</ele>
        <time>2022-03-17T10:46:44.000Z</time>
      </trkpt>
      <trkpt lat="47.536892" lon="1.7964114">
        <ele>141</ele>
        <time>2022-03-17T10:46:45.000Z</time>
      </trkpt>
      <trkpt lat="47.53688" lon="1.7964215">
        <ele>141</ele>
        <time>2022-03-17T10:46:46.000Z</time>
      </trkpt>
      <trkpt lat="47.536873" lon="1.7964245">
        <ele>141</ele>
        <time>2022-03-17T10:46:47.000Z</time>
      </trkpt>
      <trkpt lat="47.53686" lon="1.7964317">
        <ele>142</ele>
        <time>2022-03-17T10:46:48.000Z</time>
      </trkpt>
      <trkpt lat="47.53685" lon="1.7964414">
        <ele>142</ele>
        <time>2022-03-17T10:46:49.000Z</time>
      </trkpt>
      <trkpt lat="47.536842" lon="1.7964523">
        <ele>141</ele>
        <time>2022-03-17T10:46:50.000Z</time>
      </trkpt>
      <trkpt lat="47.53683" lon="1.7964605">
        <ele>141</ele>
        <time>2022-03-17T10:46:51.000Z</time>
      </trkpt>
      <trkpt lat="47.53682" lon="1.7964655">
        <ele>140</ele>
        <time>2022-03-17T10:46:52.000Z</time>
      </trkpt>
      <trkpt lat="47.53681" lon="1.7964748">
        <ele>140</ele>
        <time>2022-03-17T10:46:53.000Z</time>
      </trkpt>
      <trkpt lat="47.536804" lon="1.7964841">
        <ele>140</ele>
        <time>2022-03-17T10:46:54.000Z</time>
      </trkpt>
      <trkpt lat="47.536793" lon="1.7964895">
        <ele>140</ele>
        <time>2022-03-17T10:46:55.000Z</time>
      </trkpt>
      <trkpt lat="47.53678" lon="1.7964976">
        <ele>139</ele>
        <time>2022-03-17T10:46:56.000Z</time>
      </trkpt>
      <trkpt lat="47.53677" lon="1.7965057">
        <ele>140</ele>
        <time>2022-03-17T10:46:57.000Z</time>
      </trkpt>
      <trkpt lat="47.536762" lon="1.7965142">
        <ele>140</ele>
        <time>2022-03-17T10:46:58.000Z</time>
      </trkpt>
      <trkpt lat="47.53675" lon="1.7965237">
        <ele>140</ele>
        <time>2022-03-17T10:46:59.000Z</time>
      </trkpt>
      <trkpt lat="47.53674" lon="1.7965324">
        <ele>140</ele>
        <time>2022-03-17T10:47:00.000Z</time>
      </trkpt>
      <trkpt lat="47.53673" lon="1.7965418">
        <ele>140</ele>
        <time>2022-03-17T10:47:01.000Z</time>
      </trkpt>
      <trkpt lat="47.536724" lon="1.7965503">
        <ele>140</ele>
        <time>2022-03-17T10:47:02.000Z</time>
      </trkpt>
      <trkpt lat="47.536713" lon="1.7965565">
        <ele>140</ele>
        <time>2022-03-17T10:47:03.000Z</time>
      </trkpt>
      <trkpt lat="47.536705" lon="1.7965628">
        <ele>140</ele>
        <time>2022-03-17T10:47:04.000Z</time>
      </trkpt>
      <trkpt lat="47.536694" lon="1.7965754">
        <ele>140</ele>
        <time>2022-03-17T10:47:05.000Z</time>
      </trkpt>
      <trkpt lat="47.536682" lon="1.7965881">
        <ele>140</ele>
        <time>2022-03-17T10:47:06.000Z</time>
      </trkpt>
      <trkpt lat="47.53667" lon="1.7965996">
        <ele>140</ele>
        <time>2022-03-17T10:47:07.000Z</time>
      </trkpt>
      <trkpt lat="47.536663" lon="1.7966102">
        <ele>140</ele>
        <time>2022-03-17T10:47:08.000Z</time>
      </trkpt>
      <trkpt lat="47.536655" lon="1.7966208">
        <ele>140</ele>
        <time>2022-03-17T10:47:09.000Z</time>
      </trkpt>
      <trkpt lat="47.536644" lon="1.7966299">
        <ele>140</ele>
        <time>2022-03-17T10:47:10.000Z</time>
      </trkpt>
      <trkpt lat="47.536636" lon="1.7966385">
        <ele>140</ele>
        <time>2022-03-17T10:47:11.000Z</time>
      </trkpt>
      <trkpt lat="47.536625" lon="1.796647">
        <ele>140</ele>
        <time>2022-03-17T10:47:12.000Z</time>
      </trkpt>
      <trkpt lat="47.536613" lon="1.7966592">
        <ele>140</ele>
        <time>2022-03-17T10:47:13.000Z</time>
      </trkpt>
      <trkpt lat="47.536602" lon="1.7966685">
        <ele>140</ele>
        <time>2022-03-17T10:47:14.000Z</time>
      </trkpt>
      <trkpt lat="47.536594" lon="1.7966777">
        <ele>140</ele>
        <time>2022-03-17T10:47:15.000Z</time>
      </trkpt>
      <trkpt lat="47.536583" lon="1.7966892">
        <ele>140</ele>
        <time>2022-03-17T10:47:16.000Z</time>
      </trkpt>
      <trkpt lat="47.53657" lon="1.7966928">
        <ele>140</ele>
        <time>2022-03-17T10:47:17.000Z</time>
      </trkpt>
      <trkpt lat="47.536564" lon="1.7967016">
        <ele>141</ele>
        <time>2022-03-17T10:47:18.000Z</time>
      </trkpt>
      <trkpt lat="47.536552" lon="1.7967117">
        <ele>140</ele>
        <time>2022-03-17T10:47:19.000Z</time>
      </trkpt>
      <trkpt lat="47.53654" lon="1.7967222">
        <ele>140</ele>
        <time>2022-03-17T10:47:20.000Z</time>
      </trkpt>
      <trkpt lat="47.536533" lon="1.7967281">
        <ele>140</ele>
        <time>2022-03-17T10:47:21.000Z</time>
      </trkpt>
      <trkpt lat="47.536526" lon="1.7967352">
        <ele>140</ele>
        <time>2022-03-17T10:47:22.000Z</time>
      </trkpt>
      <trkpt lat="47.53652" lon="1.796746">
        <ele>140</ele>
        <time>2022-03-17T10:47:23.000Z</time>
      </trkpt>
      <trkpt lat="47.53651" lon="1.7967576">
        <ele>140</ele>
        <time>2022-03-17T10:47:24.000Z</time>
      </trkpt>
      <trkpt lat="47.536503" lon="1.7967688">
        <ele>140</ele>
        <time>2022-03-17T10:47:25.000Z</time>
      </trkpt>
      <trkpt lat="47.536488" lon="1.7967795">
        <ele>139</ele>
        <time>2022-03-17T10:47:26.000Z</time>
      </trkpt>
      <trkpt lat="47.536476" lon="1.7967902">
        <ele>139</ele>
        <time>2022-03-17T10:47:27.000Z</time>
      </trkpt>
      <trkpt lat="47.536465" lon="1.7968025">
        <ele>138</ele>
        <time>2022-03-17T10:47:28.000Z</time>
      </trkpt>
      <trkpt lat="47.536453" lon="1.7968125">
        <ele>138</ele>
        <time>2022-03-17T10:47:29.000Z</time>
      </trkpt>
      <trkpt lat="47.53644" lon="1.796823">
        <ele>138</ele>
        <time>2022-03-17T10:47:30.000Z</time>
      </trkpt>
      <trkpt lat="47.536427" lon="1.7968267">
        <ele>138</ele>
        <time>2022-03-17T10:47:31.000Z</time>
      </trkpt>
      <trkpt lat="47.53642" lon="1.7968354">
        <ele>137</ele>
        <time>2022-03-17T10:47:32.000Z</time>
      </trkpt>
      <trkpt lat="47.536407" lon="1.7968391">
        <ele>137</ele>
        <time>2022-03-17T10:47:33.000Z</time>
      </trkpt>
      <trkpt lat="47.5364" lon="1.7968457">
        <ele>137</ele>
        <time>2022-03-17T10:47:34.000Z</time>
      </trkpt>
      <trkpt lat="47.53639" lon="1.7968538">
        <ele>137</ele>
        <time>2022-03-17T10:47:35.000Z</time>
      </trkpt>
      <trkpt lat="47.536377" lon="1.7968622">
        <ele>137</ele>
        <time>2022-03-17T10:47:36.000Z</time>
      </trkpt>
      <trkpt lat="47.536366" lon="1.7968721">
        <ele>137</ele>
        <time>2022-03-17T10:47:37.000Z</time>
      </trkpt>
      <trkpt lat="47.536354" lon="1.7968816">
        <ele>137</ele>
        <time>2022-03-17T10:47:38.000Z</time>
      </trkpt>
      <trkpt lat="47.536343" lon="1.7968932">
        <ele>138</ele>
        <time>2022-03-17T10:47:39.000Z</time>
      </trkpt>
      <trkpt lat="47.536335" lon="1.7969062">
        <ele>138</ele>
        <time>2022-03-17T10:47:40.000Z</time>
      </trkpt>
      <trkpt lat="47.536327" lon="1.7969186">
        <ele>139</ele>
        <time>2022-03-17T10:47:41.000Z</time>
      </trkpt>
      <trkpt lat="47.536316" lon="1.7969283">
        <ele>138</ele>
        <time>2022-03-17T10:47:42.000Z</time>
      </trkpt>
      <trkpt lat="47.536304" lon="1.796938">
        <ele>138</ele>
        <time>2022-03-17T10:47:43.000Z</time>
      </trkpt>
      <trkpt lat="47.536293" lon="1.7969495">
        <ele>138</ele>
        <time>2022-03-17T10:47:44.000Z</time>
      </trkpt>
      <trkpt lat="47.536285" lon="1.7969598">
        <ele>138</ele>
        <time>2022-03-17T10:47:45.000Z</time>
      </trkpt>
      <trkpt lat="47.536274" lon="1.796971">
        <ele>138</ele>
        <time>2022-03-17T10:47:46.000Z</time>
      </trkpt>
      <trkpt lat="47.536266" lon="1.7969819">
        <ele>138</ele>
        <time>2022-03-17T10:47:47.000Z</time>
      </trkpt>
      <trkpt lat="47.536255" lon="1.796986">
        <ele>138</ele>
        <time>2022-03-17T10:47:48.000Z</time>
      </trkpt>
      <trkpt lat="47.53624" lon="1.7969879">
        <ele>139</ele>
        <time>2022-03-17T10:47:49.000Z</time>
      </trkpt>
      <trkpt lat="47.53623" lon="1.7969937">
        <ele>139</ele>
        <time>2022-03-17T10:47:50.000Z</time>
      </trkpt>
      <trkpt lat="47.53622" lon="1.7969974">
        <ele>138</ele>
        <time>2022-03-17T10:47:51.000Z</time>
      </trkpt>
      <trkpt lat="47.53621" lon="1.7969947">
        <ele>138</ele>
        <time>2022-03-17T10:47:52.000Z</time>
      </trkpt>
      <trkpt lat="47.5362" lon="1.796991">
        <ele>138</ele>
        <time>2022-03-17T10:47:53.000Z</time>
      </trkpt>
      <trkpt lat="47.536194" lon="1.7969943">
        <ele>138</ele>
        <time>2022-03-17T10:47:54.000Z</time>
      </trkpt>
      <trkpt lat="47.536186" lon="1.796996">
        <ele>138</ele>
        <time>2022-03-17T10:47:55.000Z</time>
      </trkpt>
      <trkpt lat="47.53618" lon="1.7969949">
        <ele>138</ele>
        <time>2022-03-17T10:47:56.000Z</time>
      </trkpt>
      <trkpt lat="47.53617" lon="1.7969958">
        <ele>138</ele>
        <time>2022-03-17T10:47:57.000Z</time>
      </trkpt>
      <trkpt lat="47.536163" lon="1.7969956">
        <ele>138</ele>
        <time>2022-03-17T10:47:58.000Z</time>
      </trkpt>
      <trkpt lat="47.536156" lon="1.7969906">
        <ele>138</ele>
        <time>2022-03-17T10:47:59.000Z</time>
      </trkpt>
      <trkpt lat="47.536148" lon="1.7969866">
        <ele>138</ele>
        <time>2022-03-17T10:48:00.000Z</time>
      </trkpt>
      <trkpt lat="47.536148" lon="1.796986">
        <ele>138</ele>
        <time>2022-03-17T10:48:01.000Z</time>
      </trkpt>
      <trkpt lat="47.536148" lon="1.7969856">
        <ele>139</ele>
        <time>2022-03-17T10:48:02.000Z</time>
      </trkpt>
      <trkpt lat="47.536148" lon="1.7969812">
        <ele>139</ele>
        <time>2022-03-17T10:48:03.000Z</time>
      </trkpt>
      <trkpt lat="47.53614" lon="1.7969742">
        <ele>140</ele>
        <time>2022-03-17T10:48:04.000Z</time>
      </trkpt>
      <trkpt lat="47.536133" lon="1.7969577">
        <ele>140</ele>
        <time>2022-03-17T10:48:05.000Z</time>
      </trkpt>
      <trkpt lat="47.53613" lon="1.7969413">
        <ele>140</ele>
        <time>2022-03-17T10:48:06.000Z</time>
      </trkpt>
      <trkpt lat="47.536133" lon="1.7969277">
        <ele>140</ele>
        <time>2022-03-17T10:48:07.000Z</time>
      </trkpt>
      <trkpt lat="47.536133" lon="1.7969066">
        <ele>140</ele>
        <time>2022-03-17T10:48:08.000Z</time>
      </trkpt>
      <trkpt lat="47.53613" lon="1.7968913">
        <ele>140</ele>
        <time>2022-03-17T10:48:09.000Z</time>
      </trkpt>
      <trkpt lat="47.53612" lon="1.7968792">
        <ele>140</ele>
        <time>2022-03-17T10:48:10.000Z</time>
      </trkpt>
      <trkpt lat="47.536114" lon="1.7968725">
        <ele>140</ele>
        <time>2022-03-17T10:48:11.000Z</time>
      </trkpt>
      <trkpt lat="47.53611" lon="1.7968687">
        <ele>140</ele>
        <time>2022-03-17T10:48:12.000Z</time>
      </trkpt>
      <trkpt lat="47.536102" lon="1.7968569">
        <ele>140</ele>
        <time>2022-03-17T10:48:13.000Z</time>
      </trkpt>
      <trkpt lat="47.536095" lon="1.7968479">
        <ele>140</ele>
        <time>2022-03-17T10:48:14.000Z</time>
      </trkpt>
      <trkpt lat="47.536087" lon="1.7968401">
        <ele>140</ele>
        <time>2022-03-17T10:48:15.000Z</time>
      </trkpt>
      <trkpt lat="47.536076" lon="1.7968322">
        <ele>140</ele>
        <time>2022-03-17T10:48:16.000Z</time>
      </trkpt>
      <trkpt lat="47.536064" lon="1.7968217">
        <ele>140</ele>
        <time>2022-03-17T10:48:17.000Z</time>
      </trkpt>
      <trkpt lat="47.53606" lon="1.7968128">
        <ele>140</ele>
        <time>2022-03-17T10:48:18.000Z</time>
      </trkpt>
      <trkpt lat="47.536053" lon="1.7968012">
        <ele>140</ele>
        <time>2022-03-17T10:48:19.000Z</time>
      </trkpt>
      <trkpt lat="47.53604" lon="1.7967849">
        <ele>140</ele>
        <time>2022-03-17T10:48:20.000Z</time>
      </trkpt>
      <trkpt lat="47.536037" lon="1.7967707">
        <ele>140</ele>
        <time>2022-03-17T10:48:21.000Z</time>
      </trkpt>
      <trkpt lat="47.53603" lon="1.7967553">
        <ele>140</ele>
        <time>2022-03-17T10:48:22.000Z</time>
      </trkpt>
      <trkpt lat="47.536026" lon="1.7967415">
        <ele>140</ele>
        <time>2022-03-17T10:48:23.000Z</time>
      </trkpt>
      <trkpt lat="47.536026" lon="1.7967387">
        <ele>140</ele>
        <time>2022-03-17T10:48:24.000Z</time>
      </trkpt>
      <trkpt lat="47.536022" lon="1.7967309">
        <ele>140</ele>
        <time>2022-03-17T10:48:25.000Z</time>
      </trkpt>
      <trkpt lat="47.536022" lon="1.7967192">
        <ele>140</ele>
        <time>2022-03-17T10:48:26.000Z</time>
      </trkpt>
      <trkpt lat="47.53602" lon="1.7967038">
        <ele>139</ele>
        <time>2022-03-17T10:48:27.000Z</time>
      </trkpt>
      <trkpt lat="47.53602" lon="1.7966866">
        <ele>139</ele>
        <time>2022-03-17T10:48:28.000Z</time>
      </trkpt>
      <trkpt lat="47.53602" lon="1.7966659">
        <ele>139</ele>
        <time>2022-03-17T10:48:29.000Z</time>
      </trkpt>
      <trkpt lat="47.536015" lon="1.796646">
        <ele>138</ele>
        <time>2022-03-17T10:48:30.000Z</time>
      </trkpt>
      <trkpt lat="47.53601" lon="1.796631">
        <ele>138</ele>
        <time>2022-03-17T10:48:31.000Z</time>
      </trkpt>
      <trkpt lat="47.536003" lon="1.7966175">
        <ele>138</ele>
        <time>2022-03-17T10:48:32.000Z</time>
      </trkpt>
      <trkpt lat="47.536" lon="1.7966052">
        <ele>138</ele>
        <time>2022-03-17T10:48:33.000Z</time>
      </trkpt>
      <trkpt lat="47.535995" lon="1.7965829">
        <ele>138</ele>
        <time>2022-03-17T10:48:34.000Z</time>
      </trkpt>
      <trkpt lat="47.53599" lon="1.7965624">
        <ele>138</ele>
        <time>2022-03-17T10:48:35.000Z</time>
      </trkpt>
      <trkpt lat="47.535988" lon="1.7965447">
        <ele>138</ele>
        <time>2022-03-17T10:48:36.000Z</time>
      </trkpt>
      <trkpt lat="47.535988" lon="1.7965363">
        <ele>139</ele>
        <time>2022-03-17T10:48:37.000Z</time>
      </trkpt>
      <trkpt lat="47.535988" lon="1.7965201">
        <ele>139</ele>
        <time>2022-03-17T10:48:38.000Z</time>
      </trkpt>
      <trkpt lat="47.535976" lon="1.7964922">
        <ele>139</ele>
        <time>2022-03-17T10:48:39.000Z</time>
      </trkpt>
      <trkpt lat="47.535976" lon="1.7964922">
        <ele>139</ele>
        <time>2022-03-17T10:48:39.000Z</time>
      </trkpt>
      <trkpt lat="47.535973" lon="1.7964759">
        <ele>140</ele>
        <time>2022-03-17T10:48:41.000Z</time>
      </trkpt>
      <trkpt lat="47.535973" lon="1.7964591">
        <ele>141</ele>
        <time>2022-03-17T10:48:42.000Z</time>
      </trkpt>
      <trkpt lat="47.535976" lon="1.7964425">
        <ele>142</ele>
        <time>2022-03-17T10:48:43.000Z</time>
      </trkpt>
      <trkpt lat="47.53597" lon="1.7964218">
        <ele>142</ele>
        <time>2022-03-17T10:48:44.000Z</time>
      </trkpt>
      <trkpt lat="47.53596" lon="1.7963845">
        <ele>143</ele>
        <time>2022-03-17T10:48:45.000Z</time>
      </trkpt>
      <trkpt lat="47.53596" lon="1.7963845">
        <ele>143</ele>
        <time>2022-03-17T10:48:45.000Z</time>
      </trkpt>
      <trkpt lat="47.535954" lon="1.7963506">
        <ele>143</ele>
        <time>2022-03-17T10:48:47.000Z</time>
      </trkpt>
      <trkpt lat="47.535954" lon="1.7963506">
        <ele>143</ele>
        <time>2022-03-17T10:48:47.000Z</time>
      </trkpt>
      <trkpt lat="47.535954" lon="1.7963405">
        <ele>143</ele>
        <time>2022-03-17T10:48:49.000Z</time>
      </trkpt>
      <trkpt lat="47.535946" lon="1.7963238">
        <ele>143</ele>
        <time>2022-03-17T10:48:50.000Z</time>
      </trkpt>
      <trkpt lat="47.535942" lon="1.7963108">
        <ele>143</ele>
        <time>2022-03-17T10:48:51.000Z</time>
      </trkpt>
      <trkpt lat="47.535934" lon="1.7962965">
        <ele>143</ele>
        <time>2022-03-17T10:48:52.000Z</time>
      </trkpt>
      <trkpt lat="47.53593" lon="1.7962809">
        <ele>144</ele>
        <time>2022-03-17T10:48:53.000Z</time>
      </trkpt>
      <trkpt lat="47.535923" lon="1.7962465">
        <ele>143</ele>
        <time>2022-03-17T10:48:54.000Z</time>
      </trkpt>
      <trkpt lat="47.535923" lon="1.7962465">
        <ele>143</ele>
        <time>2022-03-17T10:48:54.000Z</time>
      </trkpt>
      <trkpt lat="47.535915" lon="1.7962288">
        <ele>143</ele>
        <time>2022-03-17T10:48:56.000Z</time>
      </trkpt>
      <trkpt lat="47.535908" lon="1.7961931">
        <ele>143</ele>
        <time>2022-03-17T10:48:57.000Z</time>
      </trkpt>
      <trkpt lat="47.535904" lon="1.7961768">
        <ele>144</ele>
        <time>2022-03-17T10:48:58.000Z</time>
      </trkpt>
      <trkpt lat="47.535896" lon="1.7961597">
        <ele>143</ele>
        <time>2022-03-17T10:48:59.000Z</time>
      </trkpt>
      <trkpt lat="47.535896" lon="1.7961597">
        <ele>143</ele>
        <time>2022-03-17T10:48:59.000Z</time>
      </trkpt>
      <trkpt lat="47.535892" lon="1.7961307">
        <ele>144</ele>
        <time>2022-03-17T10:49:01.000Z</time>
      </trkpt>
      <trkpt lat="47.53589" lon="1.7961181">
        <ele>144</ele>
        <time>2022-03-17T10:49:02.000Z</time>
      </trkpt>
      <trkpt lat="47.535885" lon="1.7961061">
        <ele>144</ele>
        <time>2022-03-17T10:49:03.000Z</time>
      </trkpt>
      <trkpt lat="47.535885" lon="1.7961061">
        <ele>144</ele>
        <time>2022-03-17T10:49:03.000Z</time>
      </trkpt>
      <trkpt lat="47.53588" lon="1.796075">
        <ele>143</ele>
        <time>2022-03-17T10:49:05.000Z</time>
      </trkpt>
      <trkpt lat="47.535877" lon="1.7960546">
        <ele>144</ele>
        <time>2022-03-17T10:49:06.000Z</time>
      </trkpt>
      <trkpt lat="47.535873" lon="1.7960345">
        <ele>145</ele>
        <time>2022-03-17T10:49:07.000Z</time>
      </trkpt>
      <trkpt lat="47.535866" lon="1.7960155">
        <ele>145</ele>
        <time>2022-03-17T10:49:08.000Z</time>
      </trkpt>
      <trkpt lat="47.535866" lon="1.7960011">
        <ele>144</ele>
        <time>2022-03-17T10:49:09.000Z</time>
      </trkpt>
      <trkpt lat="47.53586" lon="1.7959859">
        <ele>145</ele>
        <time>2022-03-17T10:49:10.000Z</time>
      </trkpt>
      <trkpt lat="47.53586" lon="1.7959713">
        <ele>145</ele>
        <time>2022-03-17T10:49:11.000Z</time>
      </trkpt>
      <trkpt lat="47.535854" lon="1.7959561">
        <ele>145</ele>
        <time>2022-03-17T10:49:12.000Z</time>
      </trkpt>
      <trkpt lat="47.53585" lon="1.7959402">
        <ele>145</ele>
        <time>2022-03-17T10:49:13.000Z</time>
      </trkpt>
      <trkpt lat="47.535847" lon="1.7959254">
        <ele>145</ele>
        <time>2022-03-17T10:49:14.000Z</time>
      </trkpt>
      <trkpt lat="47.535843" lon="1.7959073">
        <ele>145</ele>
        <time>2022-03-17T10:49:15.000Z</time>
      </trkpt>
      <trkpt lat="47.53584" lon="1.7958883">
        <ele>145</ele>
        <time>2022-03-17T10:49:16.000Z</time>
      </trkpt>
      <trkpt lat="47.535835" lon="1.795873">
        <ele>145</ele>
        <time>2022-03-17T10:49:17.000Z</time>
      </trkpt>
      <trkpt lat="47.53583" lon="1.7958568">
        <ele>145</ele>
        <time>2022-03-17T10:49:18.000Z</time>
      </trkpt>
      <trkpt lat="47.535828" lon="1.7958404">
        <ele>145</ele>
        <time>2022-03-17T10:49:19.000Z</time>
      </trkpt>
      <trkpt lat="47.535828" lon="1.7958293">
        <ele>145</ele>
        <time>2022-03-17T10:49:20.000Z</time>
      </trkpt>
      <trkpt lat="47.535828" lon="1.7958125">
        <ele>145</ele>
        <time>2022-03-17T10:49:21.000Z</time>
      </trkpt>
      <trkpt lat="47.535824" lon="1.7957916">
        <ele>145</ele>
        <time>2022-03-17T10:49:22.000Z</time>
      </trkpt>
      <trkpt lat="47.535824" lon="1.7957916">
        <ele>145</ele>
        <time>2022-03-17T10:49:22.000Z</time>
      </trkpt>
      <trkpt lat="47.53582" lon="1.7957741">
        <ele>145</ele>
        <time>2022-03-17T10:49:24.000Z</time>
      </trkpt>
      <trkpt lat="47.535816" lon="1.7957402">
        <ele>146</ele>
        <time>2022-03-17T10:49:25.000Z</time>
      </trkpt>
      <trkpt lat="47.535812" lon="1.7957222">
        <ele>146</ele>
        <time>2022-03-17T10:49:26.000Z</time>
      </trkpt>
      <trkpt lat="47.53581" lon="1.7957036">
        <ele>145</ele>
        <time>2022-03-17T10:49:27.000Z</time>
      </trkpt>
      <trkpt lat="47.5358" lon="1.7956829">
        <ele>145</ele>
        <time>2022-03-17T10:49:28.000Z</time>
      </trkpt>
      <trkpt lat="47.5358" lon="1.795662">
        <ele>145</ele>
        <time>2022-03-17T10:49:29.000Z</time>
      </trkpt>
      <trkpt lat="47.5358" lon="1.795662">
        <ele>145</ele>
        <time>2022-03-17T10:49:29.000Z</time>
      </trkpt>
      <trkpt lat="47.535797" lon="1.7956418">
        <ele>145</ele>
        <time>2022-03-17T10:49:31.000Z</time>
      </trkpt>
      <trkpt lat="47.53579" lon="1.7956103">
        <ele>146</ele>
        <time>2022-03-17T10:49:32.000Z</time>
      </trkpt>
      <trkpt lat="47.535786" lon="1.7955943">
        <ele>146</ele>
        <time>2022-03-17T10:49:33.000Z</time>
      </trkpt>
      <trkpt lat="47.53578" lon="1.7955767">
        <ele>146</ele>
        <time>2022-03-17T10:49:34.000Z</time>
      </trkpt>
      <trkpt lat="47.535778" lon="1.7955626">
        <ele>146</ele>
        <time>2022-03-17T10:49:35.000Z</time>
      </trkpt>
      <trkpt lat="47.535774" lon="1.7955444">
        <ele>147</ele>
        <time>2022-03-17T10:49:36.000Z</time>
      </trkpt>
      <trkpt lat="47.535774" lon="1.7955444">
        <ele>147</ele>
        <time>2022-03-17T10:49:36.000Z</time>
      </trkpt>
      <trkpt lat="47.53577" lon="1.7955041">
        <ele>147</ele>
        <time>2022-03-17T10:49:38.000Z</time>
      </trkpt>
      <trkpt lat="47.53577" lon="1.7954847">
        <ele>146</ele>
        <time>2022-03-17T10:49:39.000Z</time>
      </trkpt>
      <trkpt lat="47.535767" lon="1.7954675">
        <ele>146</ele>
        <time>2022-03-17T10:49:40.000Z</time>
      </trkpt>
      <trkpt lat="47.535763" lon="1.7954454">
        <ele>146</ele>
        <time>2022-03-17T10:49:41.000Z</time>
      </trkpt>
      <trkpt lat="47.535755" lon="1.7954268">
        <ele>146</ele>
        <time>2022-03-17T10:49:42.000Z</time>
      </trkpt>
      <trkpt lat="47.535755" lon="1.79541">
        <ele>146</ele>
        <time>2022-03-17T10:49:43.000Z</time>
      </trkpt>
      <trkpt lat="47.53575" lon="1.7953893">
        <ele>146</ele>
        <time>2022-03-17T10:49:44.000Z</time>
      </trkpt>
      <trkpt lat="47.535748" lon="1.7953748">
        <ele>146</ele>
        <time>2022-03-17T10:49:45.000Z</time>
      </trkpt>
      <trkpt lat="47.535744" lon="1.7953619">
        <ele>146</ele>
        <time>2022-03-17T10:49:46.000Z</time>
      </trkpt>
      <trkpt lat="47.53574" lon="1.7953484">
        <ele>147</ele>
        <time>2022-03-17T10:49:47.000Z</time>
      </trkpt>
      <trkpt lat="47.535736" lon="1.7953303">
        <ele>147</ele>
        <time>2022-03-17T10:49:48.000Z</time>
      </trkpt>
      <trkpt lat="47.535732" lon="1.7953138">
        <ele>147</ele>
        <time>2022-03-17T10:49:49.000Z</time>
      </trkpt>
      <trkpt lat="47.53573" lon="1.7952961">
        <ele>147</ele>
        <time>2022-03-17T10:49:50.000Z</time>
      </trkpt>
      <trkpt lat="47.53573" lon="1.795278">
        <ele>147</ele>
        <time>2022-03-17T10:49:51.000Z</time>
      </trkpt>
      <trkpt lat="47.53573" lon="1.7952607">
        <ele>147</ele>
        <time>2022-03-17T10:49:52.000Z</time>
      </trkpt>
      <trkpt lat="47.535725" lon="1.795243">
        <ele>147</ele>
        <time>2022-03-17T10:49:53.000Z</time>
      </trkpt>
      <trkpt lat="47.535725" lon="1.7952269">
        <ele>147</ele>
        <time>2022-03-17T10:49:54.000Z</time>
      </trkpt>
      <trkpt lat="47.53572" lon="1.795208">
        <ele>147</ele>
        <time>2022-03-17T10:49:55.000Z</time>
      </trkpt>
      <trkpt lat="47.53572" lon="1.7951908">
        <ele>147</ele>
        <time>2022-03-17T10:49:56.000Z</time>
      </trkpt>
      <trkpt lat="47.535717" lon="1.7951713">
        <ele>147</ele>
        <time>2022-03-17T10:49:57.000Z</time>
      </trkpt>
      <trkpt lat="47.535717" lon="1.7951535">
        <ele>147</ele>
        <time>2022-03-17T10:49:58.000Z</time>
      </trkpt>
      <trkpt lat="47.53571" lon="1.7951398">
        <ele>146</ele>
        <time>2022-03-17T10:49:59.000Z</time>
      </trkpt>
      <trkpt lat="47.535706" lon="1.7951252">
        <ele>146</ele>
        <time>2022-03-17T10:50:00.000Z</time>
      </trkpt>
      <trkpt lat="47.5357" lon="1.7951097">
        <ele>146</ele>
        <time>2022-03-17T10:50:01.000Z</time>
      </trkpt>
      <trkpt lat="47.535698" lon="1.7950904">
        <ele>146</ele>
        <time>2022-03-17T10:50:02.000Z</time>
      </trkpt>
      <trkpt lat="47.535694" lon="1.7950778">
        <ele>146</ele>
        <time>2022-03-17T10:50:03.000Z</time>
      </trkpt>
      <trkpt lat="47.535694" lon="1.7950639">
        <ele>146</ele>
        <time>2022-03-17T10:50:04.000Z</time>
      </trkpt>
      <trkpt lat="47.535694" lon="1.7950448">
        <ele>145</ele>
        <time>2022-03-17T10:50:05.000Z</time>
      </trkpt>
      <trkpt lat="47.535694" lon="1.7950283">
        <ele>145</ele>
        <time>2022-03-17T10:50:06.000Z</time>
      </trkpt>
      <trkpt lat="47.53569" lon="1.7950131">
        <ele>145</ele>
        <time>2022-03-17T10:50:07.000Z</time>
      </trkpt>
      <trkpt lat="47.535686" lon="1.7949985">
        <ele>146</ele>
        <time>2022-03-17T10:50:08.000Z</time>
      </trkpt>
      <trkpt lat="47.535683" lon="1.7949814">
        <ele>145</ele>
        <time>2022-03-17T10:50:09.000Z</time>
      </trkpt>
      <trkpt lat="47.535683" lon="1.7949641">
        <ele>145</ele>
        <time>2022-03-17T10:50:10.000Z</time>
      </trkpt>
      <trkpt lat="47.53568" lon="1.7949463">
        <ele>145</ele>
        <time>2022-03-17T10:50:11.000Z</time>
      </trkpt>
      <trkpt lat="47.535675" lon="1.7949288">
        <ele>145</ele>
        <time>2022-03-17T10:50:12.000Z</time>
      </trkpt>
      <trkpt lat="47.53567" lon="1.7949169">
        <ele>145</ele>
        <time>2022-03-17T10:50:13.000Z</time>
      </trkpt>
      <trkpt lat="47.53567" lon="1.7949057">
        <ele>145</ele>
        <time>2022-03-17T10:50:14.000Z</time>
      </trkpt>
      <trkpt lat="47.53567" lon="1.7948921">
        <ele>145</ele>
        <time>2022-03-17T10:50:15.000Z</time>
      </trkpt>
      <trkpt lat="47.535667" lon="1.7948713">
        <ele>145</ele>
        <time>2022-03-17T10:50:16.000Z</time>
      </trkpt>
      <trkpt lat="47.535664" lon="1.7948529">
        <ele>145</ele>
        <time>2022-03-17T10:50:17.000Z</time>
      </trkpt>
      <trkpt lat="47.535664" lon="1.7948338">
        <ele>144</ele>
        <time>2022-03-17T10:50:18.000Z</time>
      </trkpt>
      <trkpt lat="47.53566" lon="1.794817">
        <ele>144</ele>
        <time>2022-03-17T10:50:19.000Z</time>
      </trkpt>
      <trkpt lat="47.535656" lon="1.7947993">
        <ele>144</ele>
        <time>2022-03-17T10:50:20.000Z</time>
      </trkpt>
      <trkpt lat="47.53566" lon="1.7947834">
        <ele>144</ele>
        <time>2022-03-17T10:50:21.000Z</time>
      </trkpt>
      <trkpt lat="47.53566" lon="1.7947665">
        <ele>144</ele>
        <time>2022-03-17T10:50:22.000Z</time>
      </trkpt>
      <trkpt lat="47.535656" lon="1.7947516">
        <ele>144</ele>
        <time>2022-03-17T10:50:23.000Z</time>
      </trkpt>
      <trkpt lat="47.535652" lon="1.7947364">
        <ele>144</ele>
        <time>2022-03-17T10:50:24.000Z</time>
      </trkpt>
      <trkpt lat="47.53565" lon="1.7947264">
        <ele>144</ele>
        <time>2022-03-17T10:50:25.000Z</time>
      </trkpt>
      <trkpt lat="47.53564" lon="1.794717">
        <ele>144</ele>
        <time>2022-03-17T10:50:26.000Z</time>
      </trkpt>
      <trkpt lat="47.535637" lon="1.7947073">
        <ele>144</ele>
        <time>2022-03-17T10:50:27.000Z</time>
      </trkpt>
      <trkpt lat="47.535633" lon="1.7946999">
        <ele>144</ele>
        <time>2022-03-17T10:50:28.000Z</time>
      </trkpt>
      <trkpt lat="47.53563" lon="1.7946935">
        <ele>145</ele>
        <time>2022-03-17T10:50:29.000Z</time>
      </trkpt>
      <trkpt lat="47.53562" lon="1.7946925">
        <ele>145</ele>
        <time>2022-03-17T10:50:30.000Z</time>
      </trkpt>
      <trkpt lat="47.53561" lon="1.7946966">
        <ele>144</ele>
        <time>2022-03-17T10:50:31.000Z</time>
      </trkpt>
      <trkpt lat="47.535595" lon="1.7947003">
        <ele>144</ele>
        <time>2022-03-17T10:50:32.000Z</time>
      </trkpt>
      <trkpt lat="47.535587" lon="1.7947047">
        <ele>144</ele>
        <time>2022-03-17T10:50:33.000Z</time>
      </trkpt>
      <trkpt lat="47.535576" lon="1.7947085">
        <ele>144</ele>
        <time>2022-03-17T10:50:34.000Z</time>
      </trkpt>
      <trkpt lat="47.535564" lon="1.7947087">
        <ele>143</ele>
        <time>2022-03-17T10:50:35.000Z</time>
      </trkpt>
      <trkpt lat="47.53555" lon="1.7947117">
        <ele>143</ele>
        <time>2022-03-17T10:50:36.000Z</time>
      </trkpt>
      <trkpt lat="47.53554" lon="1.7947177">
        <ele>143</ele>
        <time>2022-03-17T10:50:37.000Z</time>
      </trkpt>
      <trkpt lat="47.53553" lon="1.7947178">
        <ele>143</ele>
        <time>2022-03-17T10:50:38.000Z</time>
      </trkpt>
      <trkpt lat="47.535522" lon="1.7947148">
        <ele>143</ele>
        <time>2022-03-17T10:50:39.000Z</time>
      </trkpt>
      <trkpt lat="47.53551" lon="1.7947142">
        <ele>143</ele>
        <time>2022-03-17T10:50:40.000Z</time>
      </trkpt>
      <trkpt lat="47.535503" lon="1.7947158">
        <ele>144</ele>
        <time>2022-03-17T10:50:41.000Z</time>
      </trkpt>
      <trkpt lat="47.535492" lon="1.7947153">
        <ele>143</ele>
        <time>2022-03-17T10:50:42.000Z</time>
      </trkpt>
      <trkpt lat="47.53548" lon="1.7947147">
        <ele>143</ele>
        <time>2022-03-17T10:50:43.000Z</time>
      </trkpt>
      <trkpt lat="47.53547" lon="1.7947145">
        <ele>143</ele>
        <time>2022-03-17T10:50:44.000Z</time>
      </trkpt>
      <trkpt lat="47.535458" lon="1.7947174">
        <ele>143</ele>
        <time>2022-03-17T10:50:45.000Z</time>
      </trkpt>
      <trkpt lat="47.535446" lon="1.7947211">
        <ele>143</ele>
        <time>2022-03-17T10:50:46.000Z</time>
      </trkpt>
      <trkpt lat="47.53544" lon="1.7947228">
        <ele>143</ele>
        <time>2022-03-17T10:50:47.000Z</time>
      </trkpt>
      <trkpt lat="47.535427" lon="1.7947308">
        <ele>143</ele>
        <time>2022-03-17T10:50:48.000Z</time>
      </trkpt>
      <trkpt lat="47.535416" lon="1.7947415">
        <ele>143</ele>
        <time>2022-03-17T10:50:49.000Z</time>
      </trkpt>
      <trkpt lat="47.535404" lon="1.7947484">
        <ele>143</ele>
        <time>2022-03-17T10:50:50.000Z</time>
      </trkpt>
      <trkpt lat="47.535393" lon="1.7947553">
        <ele>144</ele>
        <time>2022-03-17T10:50:51.000Z</time>
      </trkpt>
      <trkpt lat="47.535385" lon="1.7947565">
        <ele>144</ele>
        <time>2022-03-17T10:50:52.000Z</time>
      </trkpt>
      <trkpt lat="47.535378" lon="1.7947571">
        <ele>144</ele>
        <time>2022-03-17T10:50:53.000Z</time>
      </trkpt>
      <trkpt lat="47.535362" lon="1.7947613">
        <ele>144</ele>
        <time>2022-03-17T10:50:54.000Z</time>
      </trkpt>
      <trkpt lat="47.53535" lon="1.7947648">
        <ele>144</ele>
        <time>2022-03-17T10:50:55.000Z</time>
      </trkpt>
      <trkpt lat="47.53534" lon="1.7947658">
        <ele>144</ele>
        <time>2022-03-17T10:50:56.000Z</time>
      </trkpt>
      <trkpt lat="47.535328" lon="1.7947667">
        <ele>144</ele>
        <time>2022-03-17T10:50:57.000Z</time>
      </trkpt>
      <trkpt lat="47.535316" lon="1.7947704">
        <ele>144</ele>
        <time>2022-03-17T10:50:58.000Z</time>
      </trkpt>
      <trkpt lat="47.53531" lon="1.7947716">
        <ele>144</ele>
        <time>2022-03-17T10:50:59.000Z</time>
      </trkpt>
      <trkpt lat="47.535297" lon="1.7947733">
        <ele>144</ele>
        <time>2022-03-17T10:51:00.000Z</time>
      </trkpt>
      <trkpt lat="47.535286" lon="1.7947752">
        <ele>145</ele>
        <time>2022-03-17T10:51:01.000Z</time>
      </trkpt>
      <trkpt lat="47.535275" lon="1.794783">
        <ele>145</ele>
        <time>2022-03-17T10:51:02.000Z</time>
      </trkpt>
      <trkpt lat="47.535267" lon="1.7947825">
        <ele>145</ele>
        <time>2022-03-17T10:51:03.000Z</time>
      </trkpt>
      <trkpt lat="47.535255" lon="1.7947859">
        <ele>145</ele>
        <time>2022-03-17T10:51:04.000Z</time>
      </trkpt>
      <trkpt lat="47.535244" lon="1.7947901">
        <ele>145</ele>
        <time>2022-03-17T10:51:05.000Z</time>
      </trkpt>
      <trkpt lat="47.535233" lon="1.7947956">
        <ele>145</ele>
        <time>2022-03-17T10:51:06.000Z</time>
      </trkpt>
      <trkpt lat="47.53522" lon="1.7948008">
        <ele>145</ele>
        <time>2022-03-17T10:51:07.000Z</time>
      </trkpt>
      <trkpt lat="47.53521" lon="1.7948017">
        <ele>145</ele>
        <time>2022-03-17T10:51:08.000Z</time>
      </trkpt>
      <trkpt lat="47.535194" lon="1.7948011">
        <ele>145</ele>
        <time>2022-03-17T10:51:09.000Z</time>
      </trkpt>
      <trkpt lat="47.53518" lon="1.7948065">
        <ele>145</ele>
        <time>2022-03-17T10:51:10.000Z</time>
      </trkpt>
      <trkpt lat="47.53517" lon="1.7948096">
        <ele>145</ele>
        <time>2022-03-17T10:51:11.000Z</time>
      </trkpt>
      <trkpt lat="47.535156" lon="1.7948145">
        <ele>145</ele>
        <time>2022-03-17T10:51:12.000Z</time>
      </trkpt>
      <trkpt lat="47.535145" lon="1.7948205">
        <ele>145</ele>
        <time>2022-03-17T10:51:13.000Z</time>
      </trkpt>
      <trkpt lat="47.535133" lon="1.7948235">
        <ele>145</ele>
        <time>2022-03-17T10:51:14.000Z</time>
      </trkpt>
      <trkpt lat="47.535122" lon="1.7948288">
        <ele>144</ele>
        <time>2022-03-17T10:51:15.000Z</time>
      </trkpt>
      <trkpt lat="47.53511" lon="1.7948322">
        <ele>144</ele>
        <time>2022-03-17T10:51:16.000Z</time>
      </trkpt>
      <trkpt lat="47.5351" lon="1.7948335">
        <ele>145</ele>
        <time>2022-03-17T10:51:17.000Z</time>
      </trkpt>
      <trkpt lat="47.535088" lon="1.7948354">
        <ele>145</ele>
        <time>2022-03-17T10:51:18.000Z</time>
      </trkpt>
      <trkpt lat="47.535072" lon="1.7948385">
        <ele>145</ele>
        <time>2022-03-17T10:51:19.000Z</time>
      </trkpt>
      <trkpt lat="47.535057" lon="1.7948397">
        <ele>145</ele>
        <time>2022-03-17T10:51:20.000Z</time>
      </trkpt>
      <trkpt lat="47.535046" lon="1.7948453">
        <ele>145</ele>
        <time>2022-03-17T10:51:21.000Z</time>
      </trkpt>
      <trkpt lat="47.535034" lon="1.7948493">
        <ele>145</ele>
        <time>2022-03-17T10:51:22.000Z</time>
      </trkpt>
      <trkpt lat="47.53502" lon="1.7948489">
        <ele>144</ele>
        <time>2022-03-17T10:51:23.000Z</time>
      </trkpt>
      <trkpt lat="47.535007" lon="1.7948523">
        <ele>144</ele>
        <time>2022-03-17T10:51:24.000Z</time>
      </trkpt>
      <trkpt lat="47.534996" lon="1.7948582">
        <ele>144</ele>
        <time>2022-03-17T10:51:25.000Z</time>
      </trkpt>
      <trkpt lat="47.53498" lon="1.7948638">
        <ele>144</ele>
        <time>2022-03-17T10:51:26.000Z</time>
      </trkpt>
      <trkpt lat="47.53497" lon="1.7948633">
        <ele>144</ele>
        <time>2022-03-17T10:51:27.000Z</time>
      </trkpt>
      <trkpt lat="47.534958" lon="1.7948643">
        <ele>144</ele>
        <time>2022-03-17T10:51:28.000Z</time>
      </trkpt>
      <trkpt lat="47.534946" lon="1.7948673">
        <ele>144</ele>
        <time>2022-03-17T10:51:29.000Z</time>
      </trkpt>
      <trkpt lat="47.534935" lon="1.794874">
        <ele>144</ele>
        <time>2022-03-17T10:51:30.000Z</time>
      </trkpt>
      <trkpt lat="47.534924" lon="1.7948807">
        <ele>144</ele>
        <time>2022-03-17T10:51:31.000Z</time>
      </trkpt>
      <trkpt lat="47.534912" lon="1.7948884">
        <ele>144</ele>
        <time>2022-03-17T10:51:32.000Z</time>
      </trkpt>
      <trkpt lat="47.5349" lon="1.7948962">
        <ele>144</ele>
        <time>2022-03-17T10:51:33.000Z</time>
      </trkpt>
      <trkpt lat="47.534893" lon="1.7949035">
        <ele>144</ele>
        <time>2022-03-17T10:51:34.000Z</time>
      </trkpt>
      <trkpt lat="47.534885" lon="1.7949134">
        <ele>144</ele>
        <time>2022-03-17T10:51:35.000Z</time>
      </trkpt>
      <trkpt lat="47.534874" lon="1.7949264">
        <ele>144</ele>
        <time>2022-03-17T10:51:36.000Z</time>
      </trkpt>
      <trkpt lat="47.534866" lon="1.7949371">
        <ele>143</ele>
        <time>2022-03-17T10:51:37.000Z</time>
      </trkpt>
      <trkpt lat="47.53486" lon="1.7949451">
        <ele>143</ele>
        <time>2022-03-17T10:51:38.000Z</time>
      </trkpt>
      <trkpt lat="47.53485" lon="1.7949594">
        <ele>142</ele>
        <time>2022-03-17T10:51:39.000Z</time>
      </trkpt>
      <trkpt lat="47.53484" lon="1.7949705">
        <ele>142</ele>
        <time>2022-03-17T10:51:40.000Z</time>
      </trkpt>
      <trkpt lat="47.53483" lon="1.7949862">
        <ele>142</ele>
        <time>2022-03-17T10:51:41.000Z</time>
      </trkpt>
      <trkpt lat="47.534817" lon="1.7950022">
        <ele>142</ele>
        <time>2022-03-17T10:51:42.000Z</time>
      </trkpt>
      <trkpt lat="47.53481" lon="1.795013">
        <ele>142</ele>
        <time>2022-03-17T10:51:43.000Z</time>
      </trkpt>
      <trkpt lat="47.5348" lon="1.7950238">
        <ele>142</ele>
        <time>2022-03-17T10:51:44.000Z</time>
      </trkpt>
      <trkpt lat="47.53479" lon="1.795031">
        <ele>141</ele>
        <time>2022-03-17T10:51:45.000Z</time>
      </trkpt>
      <trkpt lat="47.53478" lon="1.7950399">
        <ele>141</ele>
        <time>2022-03-17T10:51:46.000Z</time>
      </trkpt>
      <trkpt lat="47.534767" lon="1.7950464">
        <ele>141</ele>
        <time>2022-03-17T10:51:47.000Z</time>
      </trkpt>
      <trkpt lat="47.53476" lon="1.7950561">
        <ele>141</ele>
        <time>2022-03-17T10:51:48.000Z</time>
      </trkpt>
      <trkpt lat="47.534748" lon="1.7950629">
        <ele>142</ele>
        <time>2022-03-17T10:51:49.000Z</time>
      </trkpt>
      <trkpt lat="47.534733" lon="1.7950631">
        <ele>142</ele>
        <time>2022-03-17T10:51:50.000Z</time>
      </trkpt>
      <trkpt lat="47.534725" lon="1.7950617">
        <ele>142</ele>
        <time>2022-03-17T10:51:51.000Z</time>
      </trkpt>
      <trkpt lat="47.534718" lon="1.7950636">
        <ele>142</ele>
        <time>2022-03-17T10:51:52.000Z</time>
      </trkpt>
      <trkpt lat="47.53471" lon="1.7950655">
        <ele>143</ele>
        <time>2022-03-17T10:51:53.000Z</time>
      </trkpt>
      <trkpt lat="47.5347" lon="1.7950679">
        <ele>143</ele>
        <time>2022-03-17T10:51:54.000Z</time>
      </trkpt>
      <trkpt lat="47.534687" lon="1.7950714">
        <ele>143</ele>
        <time>2022-03-17T10:51:55.000Z</time>
      </trkpt>
      <trkpt lat="47.534676" lon="1.7950742">
        <ele>144</ele>
        <time>2022-03-17T10:51:56.000Z</time>
      </trkpt>
      <trkpt lat="47.534664" lon="1.7950829">
        <ele>144</ele>
        <time>2022-03-17T10:51:57.000Z</time>
      </trkpt>
      <trkpt lat="47.534653" lon="1.7950908">
        <ele>143</ele>
        <time>2022-03-17T10:51:58.000Z</time>
      </trkpt>
      <trkpt lat="47.534637" lon="1.7950957">
        <ele>143</ele>
        <time>2022-03-17T10:51:59.000Z</time>
      </trkpt>
      <trkpt lat="47.534622" lon="1.7950983">
        <ele>143</ele>
        <time>2022-03-17T10:52:00.000Z</time>
      </trkpt>
      <trkpt lat="47.53461" lon="1.7951035">
        <ele>142</ele>
        <time>2022-03-17T10:52:01.000Z</time>
      </trkpt>
      <trkpt lat="47.534595" lon="1.795105">
        <ele>143</ele>
        <time>2022-03-17T10:52:02.000Z</time>
      </trkpt>
      <trkpt lat="47.534588" lon="1.7951051">
        <ele>143</ele>
        <time>2022-03-17T10:52:03.000Z</time>
      </trkpt>
      <trkpt lat="47.534576" lon="1.7951092">
        <ele>143</ele>
        <time>2022-03-17T10:52:04.000Z</time>
      </trkpt>
      <trkpt lat="47.534565" lon="1.7951113">
        <ele>143</ele>
        <time>2022-03-17T10:52:05.000Z</time>
      </trkpt>
      <trkpt lat="47.534554" lon="1.7951114">
        <ele>143</ele>
        <time>2022-03-17T10:52:06.000Z</time>
      </trkpt>
      <trkpt lat="47.534542" lon="1.7951102">
        <ele>143</ele>
        <time>2022-03-17T10:52:07.000Z</time>
      </trkpt>
      <trkpt lat="47.53453" lon="1.7951112">
        <ele>143</ele>
        <time>2022-03-17T10:52:08.000Z</time>
      </trkpt>
      <trkpt lat="47.53452" lon="1.7951151">
        <ele>143</ele>
        <time>2022-03-17T10:52:09.000Z</time>
      </trkpt>
      <trkpt lat="47.534504" lon="1.7951211">
        <ele>143</ele>
        <time>2022-03-17T10:52:10.000Z</time>
      </trkpt>
      <trkpt lat="47.534492" lon="1.7951268">
        <ele>143</ele>
        <time>2022-03-17T10:52:11.000Z</time>
      </trkpt>
      <trkpt lat="47.53448" lon="1.7951332">
        <ele>142</ele>
        <time>2022-03-17T10:52:12.000Z</time>
      </trkpt>
      <trkpt lat="47.53447" lon="1.7951374">
        <ele>142</ele>
        <time>2022-03-17T10:52:13.000Z</time>
      </trkpt>
      <trkpt lat="47.53446" lon="1.7951444">
        <ele>143</ele>
        <time>2022-03-17T10:52:14.000Z</time>
      </trkpt>
      <trkpt lat="47.53445" lon="1.7951478">
        <ele>143</ele>
        <time>2022-03-17T10:52:15.000Z</time>
      </trkpt>
      <trkpt lat="47.534443" lon="1.7951554">
        <ele>142</ele>
        <time>2022-03-17T10:52:16.000Z</time>
      </trkpt>
      <trkpt lat="47.534435" lon="1.7951589">
        <ele>142</ele>
        <time>2022-03-17T10:52:17.000Z</time>
      </trkpt>
      <trkpt lat="47.53442" lon="1.795164">
        <ele>142</ele>
        <time>2022-03-17T10:52:18.000Z</time>
      </trkpt>
      <trkpt lat="47.534405" lon="1.7951677">
        <ele>141</ele>
        <time>2022-03-17T10:52:19.000Z</time>
      </trkpt>
      <trkpt lat="47.534393" lon="1.7951739">
        <ele>141</ele>
        <time>2022-03-17T10:52:20.000Z</time>
      </trkpt>
      <trkpt lat="47.53438" lon="1.7951784">
        <ele>142</ele>
        <time>2022-03-17T10:52:21.000Z</time>
      </trkpt>
      <trkpt lat="47.534367" lon="1.795184">
        <ele>141</ele>
        <time>2022-03-17T10:52:22.000Z</time>
      </trkpt>
      <trkpt lat="47.534355" lon="1.795188">
        <ele>141</ele>
        <time>2022-03-17T10:52:23.000Z</time>
      </trkpt>
      <trkpt lat="47.53434" lon="1.7951881">
        <ele>141</ele>
        <time>2022-03-17T10:52:24.000Z</time>
      </trkpt>
      <trkpt lat="47.53433" lon="1.7951936">
        <ele>141</ele>
        <time>2022-03-17T10:52:25.000Z</time>
      </trkpt>
      <trkpt lat="47.534306" lon="1.795191">
        <ele>140</ele>
        <time>2022-03-17T10:52:26.000Z</time>
      </trkpt>
      <trkpt lat="47.534294" lon="1.7951941">
        <ele>140</ele>
        <time>2022-03-17T10:52:27.000Z</time>
      </trkpt>
      <trkpt lat="47.53428" lon="1.7952007">
        <ele>141</ele>
        <time>2022-03-17T10:52:28.000Z</time>
      </trkpt>
      <trkpt lat="47.534267" lon="1.7952029">
        <ele>141</ele>
        <time>2022-03-17T10:52:29.000Z</time>
      </trkpt>
      <trkpt lat="47.53426" lon="1.7952119">
        <ele>140</ele>
        <time>2022-03-17T10:52:30.000Z</time>
      </trkpt>
      <trkpt lat="47.53425" lon="1.7952145">
        <ele>139</ele>
        <time>2022-03-17T10:52:31.000Z</time>
      </trkpt>
      <trkpt lat="47.534237" lon="1.7952231">
        <ele>139</ele>
        <time>2022-03-17T10:52:32.000Z</time>
      </trkpt>
      <trkpt lat="47.534225" lon="1.7952337">
        <ele>139</ele>
        <time>2022-03-17T10:52:33.000Z</time>
      </trkpt>
      <trkpt lat="47.534218" lon="1.7952453">
        <ele>139</ele>
        <time>2022-03-17T10:52:34.000Z</time>
      </trkpt>
      <trkpt lat="47.53421" lon="1.7952554">
        <ele>138</ele>
        <time>2022-03-17T10:52:35.000Z</time>
      </trkpt>
      <trkpt lat="47.534203" lon="1.7952688">
        <ele>138</ele>
        <time>2022-03-17T10:52:36.000Z</time>
      </trkpt>
      <trkpt lat="47.5342" lon="1.7952833">
        <ele>138</ele>
        <time>2022-03-17T10:52:37.000Z</time>
      </trkpt>
      <trkpt lat="47.534187" lon="1.7953006">
        <ele>138</ele>
        <time>2022-03-17T10:52:38.000Z</time>
      </trkpt>
      <trkpt lat="47.53418" lon="1.7953142">
        <ele>137</ele>
        <time>2022-03-17T10:52:39.000Z</time>
      </trkpt>
      <trkpt lat="47.534176" lon="1.7953241">
        <ele>137</ele>
        <time>2022-03-17T10:52:40.000Z</time>
      </trkpt>
      <trkpt lat="47.53417" lon="1.7953358">
        <ele>137</ele>
        <time>2022-03-17T10:52:41.000Z</time>
      </trkpt>
      <trkpt lat="47.53417" lon="1.7953509">
        <ele>136</ele>
        <time>2022-03-17T10:52:42.000Z</time>
      </trkpt>
      <trkpt lat="47.53416" lon="1.7953646">
        <ele>137</ele>
        <time>2022-03-17T10:52:43.000Z</time>
      </trkpt>
      <trkpt lat="47.534157" lon="1.7953827">
        <ele>137</ele>
        <time>2022-03-17T10:52:44.000Z</time>
      </trkpt>
      <trkpt lat="47.534157" lon="1.7953964">
        <ele>137</ele>
        <time>2022-03-17T10:52:45.000Z</time>
      </trkpt>
      <trkpt lat="47.534157" lon="1.7954134">
        <ele>136</ele>
        <time>2022-03-17T10:52:46.000Z</time>
      </trkpt>
      <trkpt lat="47.534153" lon="1.7954345">
        <ele>136</ele>
        <time>2022-03-17T10:52:47.000Z</time>
      </trkpt>
      <trkpt lat="47.534153" lon="1.7954555">
        <ele>136</ele>
        <time>2022-03-17T10:52:48.000Z</time>
      </trkpt>
      <trkpt lat="47.534153" lon="1.7954744">
        <ele>136</ele>
        <time>2022-03-17T10:52:49.000Z</time>
      </trkpt>
      <trkpt lat="47.53415" lon="1.7954894">
        <ele>135</ele>
        <time>2022-03-17T10:52:50.000Z</time>
      </trkpt>
      <trkpt lat="47.53414" lon="1.7955076">
        <ele>136</ele>
        <time>2022-03-17T10:52:51.000Z</time>
      </trkpt>
      <trkpt lat="47.53414" lon="1.7955236">
        <ele>136</ele>
        <time>2022-03-17T10:52:52.000Z</time>
      </trkpt>
      <trkpt lat="47.534134" lon="1.7955409">
        <ele>135</ele>
        <time>2022-03-17T10:52:53.000Z</time>
      </trkpt>
      <trkpt lat="47.534134" lon="1.795556">
        <ele>136</ele>
        <time>2022-03-17T10:52:54.000Z</time>
      </trkpt>
      <trkpt lat="47.53413" lon="1.7955732">
        <ele>136</ele>
        <time>2022-03-17T10:52:55.000Z</time>
      </trkpt>
      <trkpt lat="47.534126" lon="1.7955956">
        <ele>136</ele>
        <time>2022-03-17T10:52:56.000Z</time>
      </trkpt>
      <trkpt lat="47.53412" lon="1.7956142">
        <ele>136</ele>
        <time>2022-03-17T10:52:57.000Z</time>
      </trkpt>
      <trkpt lat="47.53412" lon="1.7956303">
        <ele>136</ele>
        <time>2022-03-17T10:52:58.000Z</time>
      </trkpt>
      <trkpt lat="47.534115" lon="1.7956464">
        <ele>136</ele>
        <time>2022-03-17T10:52:59.000Z</time>
      </trkpt>
      <trkpt lat="47.53411" lon="1.7956634">
        <ele>136</ele>
        <time>2022-03-17T10:53:00.000Z</time>
      </trkpt>
      <trkpt lat="47.534107" lon="1.7956781">
        <ele>136</ele>
        <time>2022-03-17T10:53:01.000Z</time>
      </trkpt>
      <trkpt lat="47.534107" lon="1.795695">
        <ele>136</ele>
        <time>2022-03-17T10:53:02.000Z</time>
      </trkpt>
      <trkpt lat="47.534103" lon="1.7957137">
        <ele>136</ele>
        <time>2022-03-17T10:53:03.000Z</time>
      </trkpt>
      <trkpt lat="47.534107" lon="1.7957385">
        <ele>136</ele>
        <time>2022-03-17T10:53:04.000Z</time>
      </trkpt>
      <trkpt lat="47.534107" lon="1.7957599">
        <ele>135</ele>
        <time>2022-03-17T10:53:05.000Z</time>
      </trkpt>
      <trkpt lat="47.53411" lon="1.7957805">
        <ele>135</ele>
        <time>2022-03-17T10:53:06.000Z</time>
      </trkpt>
      <trkpt lat="47.534107" lon="1.7957966">
        <ele>135</ele>
        <time>2022-03-17T10:53:07.000Z</time>
      </trkpt>
      <trkpt lat="47.534103" lon="1.7958201">
        <ele>135</ele>
        <time>2022-03-17T10:53:08.000Z</time>
      </trkpt>
      <trkpt lat="47.534103" lon="1.7958434">
        <ele>135</ele>
        <time>2022-03-17T10:53:09.000Z</time>
      </trkpt>
      <trkpt lat="47.534103" lon="1.7958691">
        <ele>136</ele>
        <time>2022-03-17T10:53:10.000Z</time>
      </trkpt>
      <trkpt lat="47.5341" lon="1.7958854">
        <ele>136</ele>
        <time>2022-03-17T10:53:11.000Z</time>
      </trkpt>
      <trkpt lat="47.5341" lon="1.7959039">
        <ele>136</ele>
        <time>2022-03-17T10:53:12.000Z</time>
      </trkpt>
      <trkpt lat="47.5341" lon="1.7959241">
        <ele>136</ele>
        <time>2022-03-17T10:53:13.000Z</time>
      </trkpt>
      <trkpt lat="47.534103" lon="1.7959388">
        <ele>136</ele>
        <time>2022-03-17T10:53:14.000Z</time>
      </trkpt>
      <trkpt lat="47.534107" lon="1.7959527">
        <ele>136</ele>
        <time>2022-03-17T10:53:15.000Z</time>
      </trkpt>
      <trkpt lat="47.534107" lon="1.7959715">
        <ele>136</ele>
        <time>2022-03-17T10:53:16.000Z</time>
      </trkpt>
      <trkpt lat="47.534103" lon="1.7959864">
        <ele>137</ele>
        <time>2022-03-17T10:53:17.000Z</time>
      </trkpt>
      <trkpt lat="47.5341" lon="1.795999">
        <ele>136</ele>
        <time>2022-03-17T10:53:18.000Z</time>
      </trkpt>
      <trkpt lat="47.5341" lon="1.7960182">
        <ele>136</ele>
        <time>2022-03-17T10:53:19.000Z</time>
      </trkpt>
      <trkpt lat="47.534103" lon="1.7960371">
        <ele>136</ele>
        <time>2022-03-17T10:53:20.000Z</time>
      </trkpt>
      <trkpt lat="47.5341" lon="1.7960514">
        <ele>136</ele>
        <time>2022-03-17T10:53:21.000Z</time>
      </trkpt>
      <trkpt lat="47.534096" lon="1.7960675">
        <ele>136</ele>
        <time>2022-03-17T10:53:22.000Z</time>
      </trkpt>
      <trkpt lat="47.534092" lon="1.7960867">
        <ele>136</ele>
        <time>2022-03-17T10:53:23.000Z</time>
      </trkpt>
      <trkpt lat="47.534092" lon="1.7961029">
        <ele>136</ele>
        <time>2022-03-17T10:53:24.000Z</time>
      </trkpt>
      <trkpt lat="47.53409" lon="1.7961186">
        <ele>136</ele>
        <time>2022-03-17T10:53:25.000Z</time>
      </trkpt>
      <trkpt lat="47.534084" lon="1.7961342">
        <ele>136</ele>
        <time>2022-03-17T10:53:26.000Z</time>
      </trkpt>
      <trkpt lat="47.534084" lon="1.7961535">
        <ele>136</ele>
        <time>2022-03-17T10:53:27.000Z</time>
      </trkpt>
      <trkpt lat="47.53408" lon="1.7961662">
        <ele>136</ele>
        <time>2022-03-17T10:53:28.000Z</time>
      </trkpt>
      <trkpt lat="47.53408" lon="1.7961793">
        <ele>135</ele>
        <time>2022-03-17T10:53:29.000Z</time>
      </trkpt>
      <trkpt lat="47.534077" lon="1.7961909">
        <ele>135</ele>
        <time>2022-03-17T10:53:30.000Z</time>
      </trkpt>
      <trkpt lat="47.534073" lon="1.7962034">
        <ele>135</ele>
        <time>2022-03-17T10:53:31.000Z</time>
      </trkpt>
      <trkpt lat="47.534073" lon="1.7962216">
        <ele>135</ele>
        <time>2022-03-17T10:53:32.000Z</time>
      </trkpt>
      <trkpt lat="47.53407" lon="1.7962383">
        <ele>134</ele>
        <time>2022-03-17T10:53:33.000Z</time>
      </trkpt>
      <trkpt lat="47.53407" lon="1.796253">
        <ele>134</ele>
        <time>2022-03-17T10:53:34.000Z</time>
      </trkpt>
      <trkpt lat="47.53407" lon="1.7962704">
        <ele>133</ele>
        <time>2022-03-17T10:53:35.000Z</time>
      </trkpt>
      <trkpt lat="47.534065" lon="1.7962886">
        <ele>133</ele>
        <time>2022-03-17T10:53:36.000Z</time>
      </trkpt>
      <trkpt lat="47.53406" lon="1.7963028">
        <ele>133</ele>
        <time>2022-03-17T10:53:37.000Z</time>
      </trkpt>
      <trkpt lat="47.534054" lon="1.7963223">
        <ele>133</ele>
        <time>2022-03-17T10:53:38.000Z</time>
      </trkpt>
      <trkpt lat="47.534054" lon="1.7963411">
        <ele>133</ele>
        <time>2022-03-17T10:53:39.000Z</time>
      </trkpt>
      <trkpt lat="47.534054" lon="1.7963592">
        <ele>133</ele>
        <time>2022-03-17T10:53:40.000Z</time>
      </trkpt>
      <trkpt lat="47.53405" lon="1.7963753">
        <ele>133</ele>
        <time>2022-03-17T10:53:41.000Z</time>
      </trkpt>
      <trkpt lat="47.53405" lon="1.7963891">
        <ele>133</ele>
        <time>2022-03-17T10:53:42.000Z</time>
      </trkpt>
      <trkpt lat="47.53405" lon="1.7964002">
        <ele>132</ele>
        <time>2022-03-17T10:53:43.000Z</time>
      </trkpt>
      <trkpt lat="47.53405" lon="1.7964146">
        <ele>132</ele>
        <time>2022-03-17T10:53:44.000Z</time>
      </trkpt>
      <trkpt lat="47.534046" lon="1.7964325">
        <ele>132</ele>
        <time>2022-03-17T10:53:45.000Z</time>
      </trkpt>
      <trkpt lat="47.534042" lon="1.7964516">
        <ele>132</ele>
        <time>2022-03-17T10:53:46.000Z</time>
      </trkpt>
      <trkpt lat="47.534042" lon="1.7964723">
        <ele>132</ele>
        <time>2022-03-17T10:53:47.000Z</time>
      </trkpt>
      <trkpt lat="47.534042" lon="1.7964934">
        <ele>132</ele>
        <time>2022-03-17T10:53:48.000Z</time>
      </trkpt>
      <trkpt lat="47.53404" lon="1.7965158">
        <ele>132</ele>
        <time>2022-03-17T10:53:49.000Z</time>
      </trkpt>
      <trkpt lat="47.53403" lon="1.7965313">
        <ele>132</ele>
        <time>2022-03-17T10:53:50.000Z</time>
      </trkpt>
      <trkpt lat="47.534027" lon="1.7965515">
        <ele>132</ele>
        <time>2022-03-17T10:53:51.000Z</time>
      </trkpt>
      <trkpt lat="47.534023" lon="1.7965678">
        <ele>132</ele>
        <time>2022-03-17T10:53:52.000Z</time>
      </trkpt>
      <trkpt lat="47.534023" lon="1.796585">
        <ele>132</ele>
        <time>2022-03-17T10:53:53.000Z</time>
      </trkpt>
      <trkpt lat="47.534023" lon="1.7966027">
        <ele>132</ele>
        <time>2022-03-17T10:53:54.000Z</time>
      </trkpt>
      <trkpt lat="47.53402" lon="1.7966207">
        <ele>132</ele>
        <time>2022-03-17T10:53:55.000Z</time>
      </trkpt>
      <trkpt lat="47.53402" lon="1.7966357">
        <ele>133</ele>
        <time>2022-03-17T10:53:56.000Z</time>
      </trkpt>
      <trkpt lat="47.53402" lon="1.796653">
        <ele>133</ele>
        <time>2022-03-17T10:53:57.000Z</time>
      </trkpt>
      <trkpt lat="47.534016" lon="1.7966707">
        <ele>133</ele>
        <time>2022-03-17T10:53:58.000Z</time>
      </trkpt>
      <trkpt lat="47.53401" lon="1.7966887">
        <ele>133</ele>
        <time>2022-03-17T10:53:59.000Z</time>
      </trkpt>
      <trkpt lat="47.534008" lon="1.7967019">
        <ele>133</ele>
        <time>2022-03-17T10:54:00.000Z</time>
      </trkpt>
      <trkpt lat="47.53401" lon="1.7967186">
        <ele>133</ele>
        <time>2022-03-17T10:54:01.000Z</time>
      </trkpt>
      <trkpt lat="47.534008" lon="1.7967312">
        <ele>134</ele>
        <time>2022-03-17T10:54:02.000Z</time>
      </trkpt>
      <trkpt lat="47.534008" lon="1.7967516">
        <ele>134</ele>
        <time>2022-03-17T10:54:03.000Z</time>
      </trkpt>
      <trkpt lat="47.534004" lon="1.7967699">
        <ele>134</ele>
        <time>2022-03-17T10:54:04.000Z</time>
      </trkpt>
      <trkpt lat="47.533997" lon="1.7967889">
        <ele>134</ele>
        <time>2022-03-17T10:54:05.000Z</time>
      </trkpt>
      <trkpt lat="47.533997" lon="1.7968069">
        <ele>134</ele>
        <time>2022-03-17T10:54:06.000Z</time>
      </trkpt>
      <trkpt lat="47.533993" lon="1.7968218">
        <ele>134</ele>
        <time>2022-03-17T10:54:07.000Z</time>
      </trkpt>
      <trkpt lat="47.533993" lon="1.7968326">
        <ele>133</ele>
        <time>2022-03-17T10:54:08.000Z</time>
      </trkpt>
      <trkpt lat="47.53399" lon="1.7968441">
        <ele>133</ele>
        <time>2022-03-17T10:54:09.000Z</time>
      </trkpt>
      <trkpt lat="47.533985" lon="1.7968631">
        <ele>133</ele>
        <time>2022-03-17T10:54:10.000Z</time>
      </trkpt>
      <trkpt lat="47.533985" lon="1.7968785">
        <ele>133</ele>
        <time>2022-03-17T10:54:11.000Z</time>
      </trkpt>
      <trkpt lat="47.533985" lon="1.7968986">
        <ele>134</ele>
        <time>2022-03-17T10:54:12.000Z</time>
      </trkpt>
      <trkpt lat="47.533985" lon="1.7969173">
        <ele>134</ele>
        <time>2022-03-17T10:54:13.000Z</time>
      </trkpt>
      <trkpt lat="47.533985" lon="1.7969316">
        <ele>134</ele>
        <time>2022-03-17T10:54:14.000Z</time>
      </trkpt>
      <trkpt lat="47.533985" lon="1.7969522">
        <ele>134</ele>
        <time>2022-03-17T10:54:15.000Z</time>
      </trkpt>
      <trkpt lat="47.53399" lon="1.7969706">
        <ele>134</ele>
        <time>2022-03-17T10:54:16.000Z</time>
      </trkpt>
      <trkpt lat="47.53399" lon="1.7969847">
        <ele>133</ele>
        <time>2022-03-17T10:54:17.000Z</time>
      </trkpt>
      <trkpt lat="47.53399" lon="1.7969983">
        <ele>133</ele>
        <time>2022-03-17T10:54:18.000Z</time>
      </trkpt>
      <trkpt lat="47.533985" lon="1.7970113">
        <ele>133</ele>
        <time>2022-03-17T10:54:19.000Z</time>
      </trkpt>
      <trkpt lat="47.533985" lon="1.7970288">
        <ele>133</ele>
        <time>2022-03-17T10:54:20.000Z</time>
      </trkpt>
      <trkpt lat="47.533985" lon="1.7970424">
        <ele>134</ele>
        <time>2022-03-17T10:54:21.000Z</time>
      </trkpt>
      <trkpt lat="47.533985" lon="1.7970579">
        <ele>134</ele>
        <time>2022-03-17T10:54:22.000Z</time>
      </trkpt>
      <trkpt lat="47.533985" lon="1.7970742">
        <ele>135</ele>
        <time>2022-03-17T10:54:23.000Z</time>
      </trkpt>
      <trkpt lat="47.53399" lon="1.7970922">
        <ele>135</ele>
        <time>2022-03-17T10:54:24.000Z</time>
      </trkpt>
      <trkpt lat="47.53399" lon="1.7971101">
        <ele>134</ele>
        <time>2022-03-17T10:54:25.000Z</time>
      </trkpt>
      <trkpt lat="47.53399" lon="1.7971259">
        <ele>134</ele>
        <time>2022-03-17T10:54:26.000Z</time>
      </trkpt>
      <trkpt lat="47.533993" lon="1.7971389">
        <ele>134</ele>
        <time>2022-03-17T10:54:27.000Z</time>
      </trkpt>
      <trkpt lat="47.533993" lon="1.7971522">
        <ele>134</ele>
        <time>2022-03-17T10:54:28.000Z</time>
      </trkpt>
      <trkpt lat="47.53399" lon="1.7971654">
        <ele>134</ele>
        <time>2022-03-17T10:54:29.000Z</time>
      </trkpt>
      <trkpt lat="47.53399" lon="1.7971779">
        <ele>134</ele>
        <time>2022-03-17T10:54:30.000Z</time>
      </trkpt>
      <trkpt lat="47.53399" lon="1.7971911">
        <ele>134</ele>
        <time>2022-03-17T10:54:31.000Z</time>
      </trkpt>
      <trkpt lat="47.53399" lon="1.7972078">
        <ele>134</ele>
        <time>2022-03-17T10:54:32.000Z</time>
      </trkpt>
      <trkpt lat="47.53399" lon="1.7972223">
        <ele>134</ele>
        <time>2022-03-17T10:54:33.000Z</time>
      </trkpt>
      <trkpt lat="47.533985" lon="1.7972383">
        <ele>134</ele>
        <time>2022-03-17T10:54:34.000Z</time>
      </trkpt>
      <trkpt lat="47.533985" lon="1.7972546">
        <ele>134</ele>
        <time>2022-03-17T10:54:35.000Z</time>
      </trkpt>
      <trkpt lat="47.53398" lon="1.797268">
        <ele>134</ele>
        <time>2022-03-17T10:54:36.000Z</time>
      </trkpt>
      <trkpt lat="47.53398" lon="1.7972854">
        <ele>134</ele>
        <time>2022-03-17T10:54:37.000Z</time>
      </trkpt>
      <trkpt lat="47.533978" lon="1.7973024">
        <ele>134</ele>
        <time>2022-03-17T10:54:38.000Z</time>
      </trkpt>
      <trkpt lat="47.533978" lon="1.797321">
        <ele>135</ele>
        <time>2022-03-17T10:54:39.000Z</time>
      </trkpt>
      <trkpt lat="47.533974" lon="1.7973424">
        <ele>135</ele>
        <time>2022-03-17T10:54:40.000Z</time>
      </trkpt>
      <trkpt lat="47.53397" lon="1.7973614">
        <ele>135</ele>
        <time>2022-03-17T10:54:41.000Z</time>
      </trkpt>
      <trkpt lat="47.533966" lon="1.7973781">
        <ele>135</ele>
        <time>2022-03-17T10:54:42.000Z</time>
      </trkpt>
      <trkpt lat="47.533966" lon="1.7973943">
        <ele>135</ele>
        <time>2022-03-17T10:54:43.000Z</time>
      </trkpt>
      <trkpt lat="47.53396" lon="1.7974133">
        <ele>136</ele>
        <time>2022-03-17T10:54:44.000Z</time>
      </trkpt>
      <trkpt lat="47.53396" lon="1.7974325">
        <ele>135</ele>
        <time>2022-03-17T10:54:45.000Z</time>
      </trkpt>
      <trkpt lat="47.533955" lon="1.7974503">
        <ele>135</ele>
        <time>2022-03-17T10:54:46.000Z</time>
      </trkpt>
      <trkpt lat="47.53395" lon="1.7974658">
        <ele>135</ele>
        <time>2022-03-17T10:54:47.000Z</time>
      </trkpt>
      <trkpt lat="47.533947" lon="1.7974873">
        <ele>135</ele>
        <time>2022-03-17T10:54:48.000Z</time>
      </trkpt>
      <trkpt lat="47.533947" lon="1.7975022">
        <ele>135</ele>
        <time>2022-03-17T10:54:49.000Z</time>
      </trkpt>
      <trkpt lat="47.533943" lon="1.79752">
        <ele>135</ele>
        <time>2022-03-17T10:54:50.000Z</time>
      </trkpt>
      <trkpt lat="47.533943" lon="1.7975392">
        <ele>135</ele>
        <time>2022-03-17T10:54:51.000Z</time>
      </trkpt>
      <trkpt lat="47.533947" lon="1.7975589">
        <ele>135</ele>
        <time>2022-03-17T10:54:52.000Z</time>
      </trkpt>
      <trkpt lat="47.533947" lon="1.797577">
        <ele>135</ele>
        <time>2022-03-17T10:54:53.000Z</time>
      </trkpt>
      <trkpt lat="47.533947" lon="1.7975953">
        <ele>136</ele>
        <time>2022-03-17T10:54:54.000Z</time>
      </trkpt>
      <trkpt lat="47.533947" lon="1.7976148">
        <ele>136</ele>
        <time>2022-03-17T10:54:55.000Z</time>
      </trkpt>
      <trkpt lat="47.53395" lon="1.7976341">
        <ele>137</ele>
        <time>2022-03-17T10:54:56.000Z</time>
      </trkpt>
      <trkpt lat="47.53395" lon="1.7976562">
        <ele>137</ele>
        <time>2022-03-17T10:54:57.000Z</time>
      </trkpt>
      <trkpt lat="47.53395" lon="1.7976774">
        <ele>137</ele>
        <time>2022-03-17T10:54:58.000Z</time>
      </trkpt>
      <trkpt lat="47.533947" lon="1.7976944">
        <ele>137</ele>
        <time>2022-03-17T10:54:59.000Z</time>
      </trkpt>
      <trkpt lat="47.533947" lon="1.7977123">
        <ele>137</ele>
        <time>2022-03-17T10:55:00.000Z</time>
      </trkpt>
      <trkpt lat="47.533943" lon="1.7977301">
        <ele>137</ele>
        <time>2022-03-17T10:55:01.000Z</time>
      </trkpt>
      <trkpt lat="47.53394" lon="1.7977456">
        <ele>137</ele>
        <time>2022-03-17T10:55:02.000Z</time>
      </trkpt>
      <trkpt lat="47.53394" lon="1.797763">
        <ele>137</ele>
        <time>2022-03-17T10:55:03.000Z</time>
      </trkpt>
      <trkpt lat="47.533936" lon="1.7977806">
        <ele>137</ele>
        <time>2022-03-17T10:55:04.000Z</time>
      </trkpt>
      <trkpt lat="47.53394" lon="1.7977988">
        <ele>137</ele>
        <time>2022-03-17T10:55:05.000Z</time>
      </trkpt>
      <trkpt lat="47.53394" lon="1.7978172">
        <ele>137</ele>
        <time>2022-03-17T10:55:06.000Z</time>
      </trkpt>
      <trkpt lat="47.533943" lon="1.7978344">
        <ele>137</ele>
        <time>2022-03-17T10:55:07.000Z</time>
      </trkpt>
      <trkpt lat="47.533943" lon="1.7978516">
        <ele>137</ele>
        <time>2022-03-17T10:55:08.000Z</time>
      </trkpt>
      <trkpt lat="47.53394" lon="1.7978708">
        <ele>137</ele>
        <time>2022-03-17T10:55:09.000Z</time>
      </trkpt>
      <trkpt lat="47.533936" lon="1.7978873">
        <ele>137</ele>
        <time>2022-03-17T10:55:10.000Z</time>
      </trkpt>
      <trkpt lat="47.533936" lon="1.7979053">
        <ele>136</ele>
        <time>2022-03-17T10:55:11.000Z</time>
      </trkpt>
      <trkpt lat="47.533936" lon="1.7979239">
        <ele>136</ele>
        <time>2022-03-17T10:55:12.000Z</time>
      </trkpt>
      <trkpt lat="47.53394" lon="1.797941">
        <ele>136</ele>
        <time>2022-03-17T10:55:13.000Z</time>
      </trkpt>
      <trkpt lat="47.533936" lon="1.7979577">
        <ele>136</ele>
        <time>2022-03-17T10:55:14.000Z</time>
      </trkpt>
      <trkpt lat="47.53393" lon="1.7979764">
        <ele>136</ele>
        <time>2022-03-17T10:55:15.000Z</time>
      </trkpt>
      <trkpt lat="47.533928" lon="1.7979933">
        <ele>136</ele>
        <time>2022-03-17T10:55:16.000Z</time>
      </trkpt>
      <trkpt lat="47.533924" lon="1.7980089">
        <ele>137</ele>
        <time>2022-03-17T10:55:17.000Z</time>
      </trkpt>
      <trkpt lat="47.533928" lon="1.7980251">
        <ele>136</ele>
        <time>2022-03-17T10:55:18.000Z</time>
      </trkpt>
      <trkpt lat="47.533928" lon="1.7980423">
        <ele>136</ele>
        <time>2022-03-17T10:55:19.000Z</time>
      </trkpt>
      <trkpt lat="47.533928" lon="1.798061">
        <ele>136</ele>
        <time>2022-03-17T10:55:20.000Z</time>
      </trkpt>
      <trkpt lat="47.53393" lon="1.7980788">
        <ele>135</ele>
        <time>2022-03-17T10:55:21.000Z</time>
      </trkpt>
      <trkpt lat="47.53393" lon="1.7980961">
        <ele>135</ele>
        <time>2022-03-17T10:55:22.000Z</time>
      </trkpt>
      <trkpt lat="47.533928" lon="1.7981118">
        <ele>135</ele>
        <time>2022-03-17T10:55:23.000Z</time>
      </trkpt>
      <trkpt lat="47.533928" lon="1.7981298">
        <ele>135</ele>
        <time>2022-03-17T10:55:24.000Z</time>
      </trkpt>
      <trkpt lat="47.53393" lon="1.7981467">
        <ele>135</ele>
        <time>2022-03-17T10:55:25.000Z</time>
      </trkpt>
      <trkpt lat="47.53393" lon="1.7981641">
        <ele>136</ele>
        <time>2022-03-17T10:55:26.000Z</time>
      </trkpt>
      <trkpt lat="47.53393" lon="1.7981822">
        <ele>136</ele>
        <time>2022-03-17T10:55:27.000Z</time>
      </trkpt>
      <trkpt lat="47.533928" lon="1.7981985">
        <ele>136</ele>
        <time>2022-03-17T10:55:28.000Z</time>
      </trkpt>
      <trkpt lat="47.533928" lon="1.7982168">
        <ele>135</ele>
        <time>2022-03-17T10:55:29.000Z</time>
      </trkpt>
      <trkpt lat="47.533924" lon="1.7982317">
        <ele>135</ele>
        <time>2022-03-17T10:55:30.000Z</time>
      </trkpt>
      <trkpt lat="47.53392" lon="1.7982471">
        <ele>135</ele>
        <time>2022-03-17T10:55:31.000Z</time>
      </trkpt>
      <trkpt lat="47.53392" lon="1.798262">
        <ele>135</ele>
        <time>2022-03-17T10:55:32.000Z</time>
      </trkpt>
      <trkpt lat="47.53392" lon="1.7982764">
        <ele>134</ele>
        <time>2022-03-17T10:55:33.000Z</time>
      </trkpt>
      <trkpt lat="47.533916" lon="1.7982948">
        <ele>133</ele>
        <time>2022-03-17T10:55:34.000Z</time>
      </trkpt>
      <trkpt lat="47.533913" lon="1.798314">
        <ele>133</ele>
        <time>2022-03-17T10:55:35.000Z</time>
      </trkpt>
      <trkpt lat="47.533913" lon="1.7983296">
        <ele>132</ele>
        <time>2022-03-17T10:55:36.000Z</time>
      </trkpt>
      <trkpt lat="47.53391" lon="1.7983474">
        <ele>132</ele>
        <time>2022-03-17T10:55:37.000Z</time>
      </trkpt>
      <trkpt lat="47.53391" lon="1.7983654">
        <ele>133</ele>
        <time>2022-03-17T10:55:38.000Z</time>
      </trkpt>
      <trkpt lat="47.533913" lon="1.7983773">
        <ele>133</ele>
        <time>2022-03-17T10:55:39.000Z</time>
      </trkpt>
      <trkpt lat="47.533913" lon="1.7983947">
        <ele>132</ele>
        <time>2022-03-17T10:55:40.000Z</time>
      </trkpt>
      <trkpt lat="47.533913" lon="1.7984113">
        <ele>132</ele>
        <time>2022-03-17T10:55:41.000Z</time>
      </trkpt>
      <trkpt lat="47.533913" lon="1.7984278">
        <ele>132</ele>
        <time>2022-03-17T10:55:42.000Z</time>
      </trkpt>
      <trkpt lat="47.533916" lon="1.798445">
        <ele>132</ele>
        <time>2022-03-17T10:55:43.000Z</time>
      </trkpt>
      <trkpt lat="47.533913" lon="1.7984625">
        <ele>132</ele>
        <time>2022-03-17T10:55:44.000Z</time>
      </trkpt>
      <trkpt lat="47.533916" lon="1.7984818">
        <ele>133</ele>
        <time>2022-03-17T10:55:45.000Z</time>
      </trkpt>
      <trkpt lat="47.53392" lon="1.7984974">
        <ele>133</ele>
        <time>2022-03-17T10:55:46.000Z</time>
      </trkpt>
      <trkpt lat="47.53392" lon="1.798513">
        <ele>134</ele>
        <time>2022-03-17T10:55:47.000Z</time>
      </trkpt>
      <trkpt lat="47.53392" lon="1.7985245">
        <ele>134</ele>
        <time>2022-03-17T10:55:48.000Z</time>
      </trkpt>
      <trkpt lat="47.53392" lon="1.7985367">
        <ele>134</ele>
        <time>2022-03-17T10:55:49.000Z</time>
      </trkpt>
      <trkpt lat="47.533924" lon="1.7985508">
        <ele>135</ele>
        <time>2022-03-17T10:55:50.000Z</time>
      </trkpt>
      <trkpt lat="47.533924" lon="1.7985655">
        <ele>135</ele>
        <time>2022-03-17T10:55:51.000Z</time>
      </trkpt>
      <trkpt lat="47.533924" lon="1.7985809">
        <ele>135</ele>
        <time>2022-03-17T10:55:52.000Z</time>
      </trkpt>
      <trkpt lat="47.53392" lon="1.7985977">
        <ele>135</ele>
        <time>2022-03-17T10:55:53.000Z</time>
      </trkpt>
      <trkpt lat="47.53392" lon="1.7986131">
        <ele>135</ele>
        <time>2022-03-17T10:55:54.000Z</time>
      </trkpt>
      <trkpt lat="47.53392" lon="1.7986299">
        <ele>135</ele>
        <time>2022-03-17T10:55:55.000Z</time>
      </trkpt>
      <trkpt lat="47.533924" lon="1.7986492">
        <ele>135</ele>
        <time>2022-03-17T10:55:56.000Z</time>
      </trkpt>
      <trkpt lat="47.53393" lon="1.7986692">
        <ele>135</ele>
        <time>2022-03-17T10:55:57.000Z</time>
      </trkpt>
      <trkpt lat="47.53393" lon="1.7986861">
        <ele>135</ele>
        <time>2022-03-17T10:55:58.000Z</time>
      </trkpt>
      <trkpt lat="47.533936" lon="1.7987047">
        <ele>135</ele>
        <time>2022-03-17T10:55:59.000Z</time>
      </trkpt>
      <trkpt lat="47.533936" lon="1.7987213">
        <ele>134</ele>
        <time>2022-03-17T10:56:00.000Z</time>
      </trkpt>
      <trkpt lat="47.533936" lon="1.7987381">
        <ele>134</ele>
        <time>2022-03-17T10:56:01.000Z</time>
      </trkpt>
      <trkpt lat="47.533936" lon="1.7987555">
        <ele>134</ele>
        <time>2022-03-17T10:56:02.000Z</time>
      </trkpt>
      <trkpt lat="47.533936" lon="1.7987758">
        <ele>133</ele>
        <time>2022-03-17T10:56:03.000Z</time>
      </trkpt>
      <trkpt lat="47.53394" lon="1.7987968">
        <ele>133</ele>
        <time>2022-03-17T10:56:04.000Z</time>
      </trkpt>
      <trkpt lat="47.53394" lon="1.7988199">
        <ele>132</ele>
        <time>2022-03-17T10:56:05.000Z</time>
      </trkpt>
      <trkpt lat="47.533943" lon="1.7988429">
        <ele>132</ele>
        <time>2022-03-17T10:56:06.000Z</time>
      </trkpt>
      <trkpt lat="47.533947" lon="1.7988622">
        <ele>132</ele>
        <time>2022-03-17T10:56:07.000Z</time>
      </trkpt>
      <trkpt lat="47.533947" lon="1.7988812">
        <ele>132</ele>
        <time>2022-03-17T10:56:08.000Z</time>
      </trkpt>
      <trkpt lat="47.53395" lon="1.7988999">
        <ele>133</ele>
        <time>2022-03-17T10:56:09.000Z</time>
      </trkpt>
      <trkpt lat="47.53395" lon="1.7989146">
        <ele>133</ele>
        <time>2022-03-17T10:56:10.000Z</time>
      </trkpt>
      <trkpt lat="47.53396" lon="1.7989331">
        <ele>134</ele>
        <time>2022-03-17T10:56:11.000Z</time>
      </trkpt>
      <trkpt lat="47.533962" lon="1.7989497">
        <ele>134</ele>
        <time>2022-03-17T10:56:12.000Z</time>
      </trkpt>
      <trkpt lat="47.533966" lon="1.7989681">
        <ele>134</ele>
        <time>2022-03-17T10:56:13.000Z</time>
      </trkpt>
      <trkpt lat="47.533966" lon="1.7989826">
        <ele>134</ele>
        <time>2022-03-17T10:56:14.000Z</time>
      </trkpt>
      <trkpt lat="47.533974" lon="1.7989982">
        <ele>134</ele>
        <time>2022-03-17T10:56:15.000Z</time>
      </trkpt>
      <trkpt lat="47.53398" lon="1.7990117">
        <ele>135</ele>
        <time>2022-03-17T10:56:16.000Z</time>
      </trkpt>
      <trkpt lat="47.53399" lon="1.7990258">
        <ele>135</ele>
        <time>2022-03-17T10:56:17.000Z</time>
      </trkpt>
      <trkpt lat="47.533997" lon="1.7990404">
        <ele>135</ele>
        <time>2022-03-17T10:56:18.000Z</time>
      </trkpt>
      <trkpt lat="47.534004" lon="1.7990549">
        <ele>135</ele>
        <time>2022-03-17T10:56:19.000Z</time>
      </trkpt>
      <trkpt lat="47.53401" lon="1.799071">
        <ele>135</ele>
        <time>2022-03-17T10:56:20.000Z</time>
      </trkpt>
      <trkpt lat="47.534016" lon="1.7990837">
        <ele>135</ele>
        <time>2022-03-17T10:56:21.000Z</time>
      </trkpt>
      <trkpt lat="47.534016" lon="1.7990966">
        <ele>135</ele>
        <time>2022-03-17T10:56:22.000Z</time>
      </trkpt>
      <trkpt lat="47.53402" lon="1.7991122">
        <ele>136</ele>
        <time>2022-03-17T10:56:23.000Z</time>
      </trkpt>
      <trkpt lat="47.534023" lon="1.7991297">
        <ele>136</ele>
        <time>2022-03-17T10:56:24.000Z</time>
      </trkpt>
      <trkpt lat="47.534023" lon="1.7991426">
        <ele>136</ele>
        <time>2022-03-17T10:56:25.000Z</time>
      </trkpt>
      <trkpt lat="47.53403" lon="1.79916">
        <ele>136</ele>
        <time>2022-03-17T10:56:26.000Z</time>
      </trkpt>
      <trkpt lat="47.534035" lon="1.7991791">
        <ele>136</ele>
        <time>2022-03-17T10:56:27.000Z</time>
      </trkpt>
      <trkpt lat="47.534035" lon="1.7991972">
        <ele>136</ele>
        <time>2022-03-17T10:56:28.000Z</time>
      </trkpt>
      <trkpt lat="47.53404" lon="1.7992144">
        <ele>136</ele>
        <time>2022-03-17T10:56:29.000Z</time>
      </trkpt>
      <trkpt lat="47.53404" lon="1.7992344">
        <ele>136</ele>
        <time>2022-03-17T10:56:30.000Z</time>
      </trkpt>
      <trkpt lat="47.53404" lon="1.7992527">
        <ele>136</ele>
        <time>2022-03-17T10:56:31.000Z</time>
      </trkpt>
      <trkpt lat="47.534046" lon="1.7992709">
        <ele>136</ele>
        <time>2022-03-17T10:56:32.000Z</time>
      </trkpt>
      <trkpt lat="47.534046" lon="1.7992914">
        <ele>136</ele>
        <time>2022-03-17T10:56:33.000Z</time>
      </trkpt>
      <trkpt lat="47.53405" lon="1.799307">
        <ele>135</ele>
        <time>2022-03-17T10:56:34.000Z</time>
      </trkpt>
      <trkpt lat="47.534054" lon="1.799321">
        <ele>135</ele>
        <time>2022-03-17T10:56:35.000Z</time>
      </trkpt>
      <trkpt lat="47.534058" lon="1.7993355">
        <ele>135</ele>
        <time>2022-03-17T10:56:36.000Z</time>
      </trkpt>
      <trkpt lat="47.53406" lon="1.7993479">
        <ele>135</ele>
        <time>2022-03-17T10:56:37.000Z</time>
      </trkpt>
      <trkpt lat="47.534065" lon="1.7993662">
        <ele>135</ele>
        <time>2022-03-17T10:56:38.000Z</time>
      </trkpt>
      <trkpt lat="47.53407" lon="1.7993864">
        <ele>135</ele>
        <time>2022-03-17T10:56:39.000Z</time>
      </trkpt>
      <trkpt lat="47.534077" lon="1.7994066">
        <ele>136</ele>
        <time>2022-03-17T10:56:40.000Z</time>
      </trkpt>
      <trkpt lat="47.53408" lon="1.7994221">
        <ele>136</ele>
        <time>2022-03-17T10:56:41.000Z</time>
      </trkpt>
      <trkpt lat="47.53409" lon="1.7994403">
        <ele>136</ele>
        <time>2022-03-17T10:56:42.000Z</time>
      </trkpt>
      <trkpt lat="47.534092" lon="1.7994555">
        <ele>136</ele>
        <time>2022-03-17T10:56:43.000Z</time>
      </trkpt>
      <trkpt lat="47.534092" lon="1.7994677">
        <ele>136</ele>
        <time>2022-03-17T10:56:44.000Z</time>
      </trkpt>
      <trkpt lat="47.534096" lon="1.7994808">
        <ele>136</ele>
        <time>2022-03-17T10:56:45.000Z</time>
      </trkpt>
      <trkpt lat="47.534096" lon="1.799497">
        <ele>136</ele>
        <time>2022-03-17T10:56:46.000Z</time>
      </trkpt>
      <trkpt lat="47.5341" lon="1.7995137">
        <ele>136</ele>
        <time>2022-03-17T10:56:47.000Z</time>
      </trkpt>
      <trkpt lat="47.534103" lon="1.799536">
        <ele>136</ele>
        <time>2022-03-17T10:56:48.000Z</time>
      </trkpt>
      <trkpt lat="47.534107" lon="1.7995579">
        <ele>136</ele>
        <time>2022-03-17T10:56:49.000Z</time>
      </trkpt>
      <trkpt lat="47.534107" lon="1.7995741">
        <ele>135</ele>
        <time>2022-03-17T10:56:50.000Z</time>
      </trkpt>
      <trkpt lat="47.534107" lon="1.7995892">
        <ele>136</ele>
        <time>2022-03-17T10:56:51.000Z</time>
      </trkpt>
      <trkpt lat="47.534107" lon="1.7996054">
        <ele>136</ele>
        <time>2022-03-17T10:56:52.000Z</time>
      </trkpt>
      <trkpt lat="47.534107" lon="1.7996234">
        <ele>136</ele>
        <time>2022-03-17T10:56:53.000Z</time>
      </trkpt>
      <trkpt lat="47.534107" lon="1.7996382">
        <ele>136</ele>
        <time>2022-03-17T10:56:54.000Z</time>
      </trkpt>
      <trkpt lat="47.534107" lon="1.7996544">
        <ele>135</ele>
        <time>2022-03-17T10:56:55.000Z</time>
      </trkpt>
      <trkpt lat="47.534107" lon="1.7996706">
        <ele>135</ele>
        <time>2022-03-17T10:56:56.000Z</time>
      </trkpt>
      <trkpt lat="47.534107" lon="1.7996885">
        <ele>135</ele>
        <time>2022-03-17T10:56:57.000Z</time>
      </trkpt>
      <trkpt lat="47.53411" lon="1.7997082">
        <ele>135</ele>
        <time>2022-03-17T10:56:58.000Z</time>
      </trkpt>
      <trkpt lat="47.53411" lon="1.7997234">
        <ele>135</ele>
        <time>2022-03-17T10:56:59.000Z</time>
      </trkpt>
      <trkpt lat="47.534115" lon="1.7997429">
        <ele>135</ele>
        <time>2022-03-17T10:57:00.000Z</time>
      </trkpt>
      <trkpt lat="47.534122" lon="1.7997569">
        <ele>136</ele>
        <time>2022-03-17T10:57:01.000Z</time>
      </trkpt>
      <trkpt lat="47.53413" lon="1.7997708">
        <ele>137</ele>
        <time>2022-03-17T10:57:02.000Z</time>
      </trkpt>
      <trkpt lat="47.53414" lon="1.7997817">
        <ele>137</ele>
        <time>2022-03-17T10:57:03.000Z</time>
      </trkpt>
      <trkpt lat="47.53415" lon="1.799796">
        <ele>137</ele>
        <time>2022-03-17T10:57:04.000Z</time>
      </trkpt>
      <trkpt lat="47.534153" lon="1.799809">
        <ele>138</ele>
        <time>2022-03-17T10:57:05.000Z</time>
      </trkpt>
      <trkpt lat="47.534153" lon="1.7998245">
        <ele>137</ele>
        <time>2022-03-17T10:57:06.000Z</time>
      </trkpt>
      <trkpt lat="47.534157" lon="1.7998437">
        <ele>137</ele>
        <time>2022-03-17T10:57:07.000Z</time>
      </trkpt>
      <trkpt lat="47.53416" lon="1.7998618">
        <ele>137</ele>
        <time>2022-03-17T10:57:08.000Z</time>
      </trkpt>
      <trkpt lat="47.53417" lon="1.7998793">
        <ele>137</ele>
        <time>2022-03-17T10:57:09.000Z</time>
      </trkpt>
      <trkpt lat="47.53417" lon="1.7998931">
        <ele>138</ele>
        <time>2022-03-17T10:57:10.000Z</time>
      </trkpt>
      <trkpt lat="47.534176" lon="1.7999132">
        <ele>137</ele>
        <time>2022-03-17T10:57:11.000Z</time>
      </trkpt>
      <trkpt lat="47.534184" lon="1.7999282">
        <ele>138</ele>
        <time>2022-03-17T10:57:12.000Z</time>
      </trkpt>
      <trkpt lat="47.534187" lon="1.7999423">
        <ele>138</ele>
        <time>2022-03-17T10:57:13.000Z</time>
      </trkpt>
      <trkpt lat="47.53419" lon="1.7999579">
        <ele>138</ele>
        <time>2022-03-17T10:57:14.000Z</time>
      </trkpt>
      <trkpt lat="47.5342" lon="1.7999697">
        <ele>138</ele>
        <time>2022-03-17T10:57:15.000Z</time>
      </trkpt>
      <trkpt lat="47.534206" lon="1.7999847">
        <ele>137</ele>
        <time>2022-03-17T10:57:16.000Z</time>
      </trkpt>
      <trkpt lat="47.534218" lon="1.7999955">
        <ele>137</ele>
        <time>2022-03-17T10:57:17.000Z</time>
      </trkpt>
      <trkpt lat="47.53422" lon="1.8000072">
        <ele>138</ele>
        <time>2022-03-17T10:57:18.000Z</time>
      </trkpt>
      <trkpt lat="47.53423" lon="1.8000214">
        <ele>138</ele>
        <time>2022-03-17T10:57:19.000Z</time>
      </trkpt>
      <trkpt lat="47.534237" lon="1.8000344">
        <ele>138</ele>
        <time>2022-03-17T10:57:20.000Z</time>
      </trkpt>
      <trkpt lat="47.53424" lon="1.8000481">
        <ele>138</ele>
        <time>2022-03-17T10:57:21.000Z</time>
      </trkpt>
      <trkpt lat="47.534245" lon="1.8000629">
        <ele>138</ele>
        <time>2022-03-17T10:57:22.000Z</time>
      </trkpt>
      <trkpt lat="47.534252" lon="1.8000743">
        <ele>139</ele>
        <time>2022-03-17T10:57:23.000Z</time>
      </trkpt>
      <trkpt lat="47.534256" lon="1.8000884">
        <ele>139</ele>
        <time>2022-03-17T10:57:24.000Z</time>
      </trkpt>
      <trkpt lat="47.534264" lon="1.8001016">
        <ele>139</ele>
        <time>2022-03-17T10:57:25.000Z</time>
      </trkpt>
      <trkpt lat="47.534267" lon="1.8001151">
        <ele>139</ele>
        <time>2022-03-17T10:57:26.000Z</time>
      </trkpt>
      <trkpt lat="47.534275" lon="1.80013">
        <ele>139</ele>
        <time>2022-03-17T10:57:27.000Z</time>
      </trkpt>
      <trkpt lat="47.53428" lon="1.8001425">
        <ele>138</ele>
        <time>2022-03-17T10:57:28.000Z</time>
      </trkpt>
      <trkpt lat="47.534283" lon="1.800156">
        <ele>137</ele>
        <time>2022-03-17T10:57:29.000Z</time>
      </trkpt>
      <trkpt lat="47.534286" lon="1.800174">
        <ele>137</ele>
        <time>2022-03-17T10:57:30.000Z</time>
      </trkpt>
      <trkpt lat="47.534294" lon="1.8001922">
        <ele>136</ele>
        <time>2022-03-17T10:57:31.000Z</time>
      </trkpt>
      <trkpt lat="47.534298" lon="1.8002108">
        <ele>137</ele>
        <time>2022-03-17T10:57:32.000Z</time>
      </trkpt>
      <trkpt lat="47.534306" lon="1.8002249">
        <ele>137</ele>
        <time>2022-03-17T10:57:33.000Z</time>
      </trkpt>
      <trkpt lat="47.534313" lon="1.8002372">
        <ele>137</ele>
        <time>2022-03-17T10:57:34.000Z</time>
      </trkpt>
      <trkpt lat="47.53432" lon="1.8002514">
        <ele>137</ele>
        <time>2022-03-17T10:57:35.000Z</time>
      </trkpt>
      <trkpt lat="47.53433" lon="1.8002695">
        <ele>136</ele>
        <time>2022-03-17T10:57:36.000Z</time>
      </trkpt>
      <trkpt lat="47.534332" lon="1.8002845">
        <ele>136</ele>
        <time>2022-03-17T10:57:37.000Z</time>
      </trkpt>
      <trkpt lat="47.53434" lon="1.8003001">
        <ele>136</ele>
        <time>2022-03-17T10:57:38.000Z</time>
      </trkpt>
      <trkpt lat="47.534344" lon="1.8003162">
        <ele>136</ele>
        <time>2022-03-17T10:57:39.000Z</time>
      </trkpt>
      <trkpt lat="47.53435" lon="1.8003287">
        <ele>135</ele>
        <time>2022-03-17T10:57:40.000Z</time>
      </trkpt>
      <trkpt lat="47.534355" lon="1.8003417">
        <ele>135</ele>
        <time>2022-03-17T10:57:41.000Z</time>
      </trkpt>
      <trkpt lat="47.534363" lon="1.800354">
        <ele>135</ele>
        <time>2022-03-17T10:57:42.000Z</time>
      </trkpt>
      <trkpt lat="47.534367" lon="1.8003697">
        <ele>135</ele>
        <time>2022-03-17T10:57:43.000Z</time>
      </trkpt>
      <trkpt lat="47.53437" lon="1.8003832">
        <ele>136</ele>
        <time>2022-03-17T10:57:44.000Z</time>
      </trkpt>
      <trkpt lat="47.53438" lon="1.8003949">
        <ele>136</ele>
        <time>2022-03-17T10:57:45.000Z</time>
      </trkpt>
      <trkpt lat="47.53439" lon="1.800405">
        <ele>136</ele>
        <time>2022-03-17T10:57:46.000Z</time>
      </trkpt>
      <trkpt lat="47.534397" lon="1.8004194">
        <ele>136</ele>
        <time>2022-03-17T10:57:47.000Z</time>
      </trkpt>
      <trkpt lat="47.534405" lon="1.8004328">
        <ele>136</ele>
        <time>2022-03-17T10:57:48.000Z</time>
      </trkpt>
      <trkpt lat="47.534412" lon="1.8004465">
        <ele>136</ele>
        <time>2022-03-17T10:57:49.000Z</time>
      </trkpt>
      <trkpt lat="47.53442" lon="1.800462">
        <ele>136</ele>
        <time>2022-03-17T10:57:50.000Z</time>
      </trkpt>
      <trkpt lat="47.534428" lon="1.8004766">
        <ele>137</ele>
        <time>2022-03-17T10:57:51.000Z</time>
      </trkpt>
      <trkpt lat="47.534435" lon="1.800492">
        <ele>137</ele>
        <time>2022-03-17T10:57:52.000Z</time>
      </trkpt>
      <trkpt lat="47.534443" lon="1.8005108">
        <ele>137</ele>
        <time>2022-03-17T10:57:53.000Z</time>
      </trkpt>
      <trkpt lat="47.534447" lon="1.8005273">
        <ele>138</ele>
        <time>2022-03-17T10:57:54.000Z</time>
      </trkpt>
      <trkpt lat="47.53445" lon="1.8005464">
        <ele>138</ele>
        <time>2022-03-17T10:57:55.000Z</time>
      </trkpt>
      <trkpt lat="47.53446" lon="1.8005625">
        <ele>137</ele>
        <time>2022-03-17T10:57:56.000Z</time>
      </trkpt>
      <trkpt lat="47.534462" lon="1.8005805">
        <ele>137</ele>
        <time>2022-03-17T10:57:57.000Z</time>
      </trkpt>
      <trkpt lat="47.534466" lon="1.8005965">
        <ele>137</ele>
        <time>2022-03-17T10:57:58.000Z</time>
      </trkpt>
      <trkpt lat="47.53447" lon="1.8006114">
        <ele>137</ele>
        <time>2022-03-17T10:57:59.000Z</time>
      </trkpt>
      <trkpt lat="47.534477" lon="1.8006263">
        <ele>137</ele>
        <time>2022-03-17T10:58:00.000Z</time>
      </trkpt>
      <trkpt lat="47.534485" lon="1.800645">
        <ele>137</ele>
        <time>2022-03-17T10:58:01.000Z</time>
      </trkpt>
      <trkpt lat="47.53449" lon="1.8006647">
        <ele>137</ele>
        <time>2022-03-17T10:58:02.000Z</time>
      </trkpt>
      <trkpt lat="47.534496" lon="1.8006803">
        <ele>137</ele>
        <time>2022-03-17T10:58:03.000Z</time>
      </trkpt>
      <trkpt lat="47.5345" lon="1.8006978">
        <ele>137</ele>
        <time>2022-03-17T10:58:04.000Z</time>
      </trkpt>
      <trkpt lat="47.534504" lon="1.8007141">
        <ele>137</ele>
        <time>2022-03-17T10:58:05.000Z</time>
      </trkpt>
      <trkpt lat="47.534508" lon="1.8007329">
        <ele>137</ele>
        <time>2022-03-17T10:58:06.000Z</time>
      </trkpt>
      <trkpt lat="47.53451" lon="1.8007522">
        <ele>137</ele>
        <time>2022-03-17T10:58:07.000Z</time>
      </trkpt>
      <trkpt lat="47.534515" lon="1.8007692">
        <ele>137</ele>
        <time>2022-03-17T10:58:08.000Z</time>
      </trkpt>
      <trkpt lat="47.53452" lon="1.800788">
        <ele>137</ele>
        <time>2022-03-17T10:58:09.000Z</time>
      </trkpt>
      <trkpt lat="47.534523" lon="1.8008078">
        <ele>137</ele>
        <time>2022-03-17T10:58:10.000Z</time>
      </trkpt>
      <trkpt lat="47.534527" lon="1.8008235">
        <ele>137</ele>
        <time>2022-03-17T10:58:11.000Z</time>
      </trkpt>
      <trkpt lat="47.534527" lon="1.8008398">
        <ele>137</ele>
        <time>2022-03-17T10:58:12.000Z</time>
      </trkpt>
      <trkpt lat="47.53452" lon="1.8008527">
        <ele>137</ele>
        <time>2022-03-17T10:58:13.000Z</time>
      </trkpt>
      <trkpt lat="47.534515" lon="1.8008716">
        <ele>137</ele>
        <time>2022-03-17T10:58:14.000Z</time>
      </trkpt>
      <trkpt lat="47.534504" lon="1.8008932">
        <ele>137</ele>
        <time>2022-03-17T10:58:15.000Z</time>
      </trkpt>
      <trkpt lat="47.534496" lon="1.8009129">
        <ele>137</ele>
        <time>2022-03-17T10:58:16.000Z</time>
      </trkpt>
      <trkpt lat="47.53449" lon="1.8009293">
        <ele>136</ele>
        <time>2022-03-17T10:58:17.000Z</time>
      </trkpt>
      <trkpt lat="47.53448" lon="1.8009398">
        <ele>136</ele>
        <time>2022-03-17T10:58:18.000Z</time>
      </trkpt>
      <trkpt lat="47.53447" lon="1.8009514">
        <ele>136</ele>
        <time>2022-03-17T10:58:19.000Z</time>
      </trkpt>
      <trkpt lat="47.53446" lon="1.800961">
        <ele>136</ele>
        <time>2022-03-17T10:58:20.000Z</time>
      </trkpt>
      <trkpt lat="47.534447" lon="1.8009714">
        <ele>136</ele>
        <time>2022-03-17T10:58:21.000Z</time>
      </trkpt>
      <trkpt lat="47.534435" lon="1.8009775">
        <ele>135</ele>
        <time>2022-03-17T10:58:22.000Z</time>
      </trkpt>
      <trkpt lat="47.534428" lon="1.8009816">
        <ele>135</ele>
        <time>2022-03-17T10:58:23.000Z</time>
      </trkpt>
      <trkpt lat="47.53442" lon="1.8009849">
        <ele>135</ele>
        <time>2022-03-17T10:58:24.000Z</time>
      </trkpt>
      <trkpt lat="47.53441" lon="1.8009906">
        <ele>135</ele>
        <time>2022-03-17T10:58:25.000Z</time>
      </trkpt>
      <trkpt lat="47.5344" lon="1.800997">
        <ele>135</ele>
        <time>2022-03-17T10:58:26.000Z</time>
      </trkpt>
      <trkpt lat="47.53439" lon="1.801003">
        <ele>135</ele>
        <time>2022-03-17T10:58:27.000Z</time>
      </trkpt>
      <trkpt lat="47.534378" lon="1.8010015">
        <ele>134</ele>
        <time>2022-03-17T10:58:28.000Z</time>
      </trkpt>
      <trkpt lat="47.534367" lon="1.8010079">
        <ele>134</ele>
        <time>2022-03-17T10:58:29.000Z</time>
      </trkpt>
      <trkpt lat="47.53436" lon="1.8010151">
        <ele>134</ele>
        <time>2022-03-17T10:58:30.000Z</time>
      </trkpt>
      <trkpt lat="47.534348" lon="1.8010256">
        <ele>134</ele>
        <time>2022-03-17T10:58:31.000Z</time>
      </trkpt>
      <trkpt lat="47.53434" lon="1.801035">
        <ele>134</ele>
        <time>2022-03-17T10:58:32.000Z</time>
      </trkpt>
      <trkpt lat="47.53433" lon="1.8010437">
        <ele>134</ele>
        <time>2022-03-17T10:58:33.000Z</time>
      </trkpt>
      <trkpt lat="47.534313" lon="1.8010498">
        <ele>134</ele>
        <time>2022-03-17T10:58:34.000Z</time>
      </trkpt>
      <trkpt lat="47.5343" lon="1.8010557">
        <ele>134</ele>
        <time>2022-03-17T10:58:35.000Z</time>
      </trkpt>
      <trkpt lat="47.53429" lon="1.8010623">
        <ele>134</ele>
        <time>2022-03-17T10:58:36.000Z</time>
      </trkpt>
      <trkpt lat="47.53428" lon="1.8010653">
        <ele>135</ele>
        <time>2022-03-17T10:58:37.000Z</time>
      </trkpt>
      <trkpt lat="47.534267" lon="1.8010721">
        <ele>135</ele>
        <time>2022-03-17T10:58:38.000Z</time>
      </trkpt>
      <trkpt lat="47.534256" lon="1.8010814">
        <ele>134</ele>
        <time>2022-03-17T10:58:39.000Z</time>
      </trkpt>
      <trkpt lat="47.534245" lon="1.801091">
        <ele>134</ele>
        <time>2022-03-17T10:58:40.000Z</time>
      </trkpt>
      <trkpt lat="47.534237" lon="1.8010932">
        <ele>134</ele>
        <time>2022-03-17T10:58:41.000Z</time>
      </trkpt>
      <trkpt lat="47.534225" lon="1.801094">
        <ele>134</ele>
        <time>2022-03-17T10:58:42.000Z</time>
      </trkpt>
      <trkpt lat="47.534214" lon="1.8010963">
        <ele>134</ele>
        <time>2022-03-17T10:58:43.000Z</time>
      </trkpt>
      <trkpt lat="47.534203" lon="1.8011017">
        <ele>134</ele>
        <time>2022-03-17T10:58:44.000Z</time>
      </trkpt>
      <trkpt lat="47.53419" lon="1.8011109">
        <ele>134</ele>
        <time>2022-03-17T10:58:45.000Z</time>
      </trkpt>
      <trkpt lat="47.534184" lon="1.801121">
        <ele>134</ele>
        <time>2022-03-17T10:58:46.000Z</time>
      </trkpt>
      <trkpt lat="47.534172" lon="1.8011329">
        <ele>134</ele>
        <time>2022-03-17T10:58:47.000Z</time>
      </trkpt>
      <trkpt lat="47.53416" lon="1.8011332">
        <ele>134</ele>
        <time>2022-03-17T10:58:48.000Z</time>
      </trkpt>
      <trkpt lat="47.53415" lon="1.801132">
        <ele>134</ele>
        <time>2022-03-17T10:58:49.000Z</time>
      </trkpt>
      <trkpt lat="47.534134" lon="1.8011396">
        <ele>134</ele>
        <time>2022-03-17T10:58:50.000Z</time>
      </trkpt>
      <trkpt lat="47.534122" lon="1.8011467">
        <ele>133</ele>
        <time>2022-03-17T10:58:51.000Z</time>
      </trkpt>
      <trkpt lat="47.534115" lon="1.8011533">
        <ele>133</ele>
        <time>2022-03-17T10:58:52.000Z</time>
      </trkpt>
      <trkpt lat="47.534107" lon="1.8011577">
        <ele>133</ele>
        <time>2022-03-17T10:58:53.000Z</time>
      </trkpt>
      <trkpt lat="47.5341" lon="1.8011607">
        <ele>134</ele>
        <time>2022-03-17T10:58:54.000Z</time>
      </trkpt>
      <trkpt lat="47.534092" lon="1.8011689">
        <ele>134</ele>
        <time>2022-03-17T10:58:55.000Z</time>
      </trkpt>
      <trkpt lat="47.534077" lon="1.801174">
        <ele>135</ele>
        <time>2022-03-17T10:58:56.000Z</time>
      </trkpt>
      <trkpt lat="47.534065" lon="1.8011829">
        <ele>135</ele>
        <time>2022-03-17T10:58:57.000Z</time>
      </trkpt>
      <trkpt lat="47.534054" lon="1.8011866">
        <ele>135</ele>
        <time>2022-03-17T10:58:58.000Z</time>
      </trkpt>
      <trkpt lat="47.534042" lon="1.8011905">
        <ele>135</ele>
        <time>2022-03-17T10:58:59.000Z</time>
      </trkpt>
      <trkpt lat="47.53403" lon="1.8011944">
        <ele>135</ele>
        <time>2022-03-17T10:59:00.000Z</time>
      </trkpt>
      <trkpt lat="47.53401" lon="1.8012046">
        <ele>135</ele>
        <time>2022-03-17T10:59:01.000Z</time>
      </trkpt>
      <trkpt lat="47.534" lon="1.8012137">
        <ele>135</ele>
        <time>2022-03-17T10:59:02.000Z</time>
      </trkpt>
      <trkpt lat="47.533993" lon="1.801221">
        <ele>135</ele>
        <time>2022-03-17T10:59:03.000Z</time>
      </trkpt>
      <trkpt lat="47.533978" lon="1.8012253">
        <ele>135</ele>
        <time>2022-03-17T10:59:04.000Z</time>
      </trkpt>
      <trkpt lat="47.533966" lon="1.80123">
        <ele>135</ele>
        <time>2022-03-17T10:59:05.000Z</time>
      </trkpt>
      <trkpt lat="47.533955" lon="1.8012328">
        <ele>135</ele>
        <time>2022-03-17T10:59:06.000Z</time>
      </trkpt>
      <trkpt lat="47.533943" lon="1.8012304">
        <ele>135</ele>
        <time>2022-03-17T10:59:07.000Z</time>
      </trkpt>
      <trkpt lat="47.533936" lon="1.8012254">
        <ele>135</ele>
        <time>2022-03-17T10:59:08.000Z</time>
      </trkpt>
      <trkpt lat="47.533924" lon="1.8012223">
        <ele>135</ele>
        <time>2022-03-17T10:59:09.000Z</time>
      </trkpt>
      <trkpt lat="47.533916" lon="1.8012174">
        <ele>135</ele>
        <time>2022-03-17T10:59:10.000Z</time>
      </trkpt>
      <trkpt lat="47.533905" lon="1.8012116">
        <ele>135</ele>
        <time>2022-03-17T10:59:11.000Z</time>
      </trkpt>
      <trkpt lat="47.533897" lon="1.801204">
        <ele>135</ele>
        <time>2022-03-17T10:59:12.000Z</time>
      </trkpt>
      <trkpt lat="47.533894" lon="1.8011929">
        <ele>136</ele>
        <time>2022-03-17T10:59:13.000Z</time>
      </trkpt>
      <trkpt lat="47.533886" lon="1.8011805">
        <ele>136</ele>
        <time>2022-03-17T10:59:14.000Z</time>
      </trkpt>
      <trkpt lat="47.533882" lon="1.8011729">
        <ele>137</ele>
        <time>2022-03-17T10:59:15.000Z</time>
      </trkpt>
      <trkpt lat="47.533882" lon="1.8011636">
        <ele>136</ele>
        <time>2022-03-17T10:59:16.000Z</time>
      </trkpt>
      <trkpt lat="47.53388" lon="1.8011557">
        <ele>136</ele>
        <time>2022-03-17T10:59:17.000Z</time>
      </trkpt>
      <trkpt lat="47.53387" lon="1.8011504">
        <ele>136</ele>
        <time>2022-03-17T10:59:18.000Z</time>
      </trkpt>
      <trkpt lat="47.53386" lon="1.8011429">
        <ele>136</ele>
        <time>2022-03-17T10:59:19.000Z</time>
      </trkpt>
      <trkpt lat="47.533844" lon="1.8011309">
        <ele>136</ele>
        <time>2022-03-17T10:59:20.000Z</time>
      </trkpt>
      <trkpt lat="47.533833" lon="1.8011214">
        <ele>136</ele>
        <time>2022-03-17T10:59:21.000Z</time>
      </trkpt>
      <trkpt lat="47.53382" lon="1.8011143">
        <ele>136</ele>
        <time>2022-03-17T10:59:22.000Z</time>
      </trkpt>
      <trkpt lat="47.533813" lon="1.8011088">
        <ele>136</ele>
        <time>2022-03-17T10:59:23.000Z</time>
      </trkpt>
      <trkpt lat="47.533806" lon="1.8011005">
        <ele>136</ele>
        <time>2022-03-17T10:59:24.000Z</time>
      </trkpt>
      <trkpt lat="47.5338" lon="1.8010904">
        <ele>136</ele>
        <time>2022-03-17T10:59:25.000Z</time>
      </trkpt>
      <trkpt lat="47.53379" lon="1.801078">
        <ele>137</ele>
        <time>2022-03-17T10:59:26.000Z</time>
      </trkpt>
      <trkpt lat="47.533787" lon="1.8010688">
        <ele>136</ele>
        <time>2022-03-17T10:59:27.000Z</time>
      </trkpt>
      <trkpt lat="47.533775" lon="1.8010669">
        <ele>136</ele>
        <time>2022-03-17T10:59:28.000Z</time>
      </trkpt>
      <trkpt lat="47.533764" lon="1.8010656">
        <ele>136</ele>
        <time>2022-03-17T10:59:29.000Z</time>
      </trkpt>
      <trkpt lat="47.533752" lon="1.8010606">
        <ele>136</ele>
        <time>2022-03-17T10:59:30.000Z</time>
      </trkpt>
      <trkpt lat="47.533745" lon="1.8010529">
        <ele>136</ele>
        <time>2022-03-17T10:59:31.000Z</time>
      </trkpt>
      <trkpt lat="47.533733" lon="1.801052">
        <ele>136</ele>
        <time>2022-03-17T10:59:32.000Z</time>
      </trkpt>
      <trkpt lat="47.53372" lon="1.8010533">
        <ele>136</ele>
        <time>2022-03-17T10:59:33.000Z</time>
      </trkpt>
      <trkpt lat="47.533707" lon="1.8010592">
        <ele>135</ele>
        <time>2022-03-17T10:59:34.000Z</time>
      </trkpt>
      <trkpt lat="47.533695" lon="1.801064">
        <ele>135</ele>
        <time>2022-03-17T10:59:35.000Z</time>
      </trkpt>
      <trkpt lat="47.533688" lon="1.8010663">
        <ele>134</ele>
        <time>2022-03-17T10:59:36.000Z</time>
      </trkpt>
      <trkpt lat="47.53368" lon="1.8010614">
        <ele>134</ele>
        <time>2022-03-17T10:59:37.000Z</time>
      </trkpt>
      <trkpt lat="47.533672" lon="1.8010616">
        <ele>134</ele>
        <time>2022-03-17T10:59:38.000Z</time>
      </trkpt>
      <trkpt lat="47.53366" lon="1.8010696">
        <ele>134</ele>
        <time>2022-03-17T10:59:39.000Z</time>
      </trkpt>
      <trkpt lat="47.53365" lon="1.8010719">
        <ele>133</ele>
        <time>2022-03-17T10:59:40.000Z</time>
      </trkpt>
      <trkpt lat="47.533638" lon="1.8010775">
        <ele>133</ele>
        <time>2022-03-17T10:59:41.000Z</time>
      </trkpt>
      <trkpt lat="47.533627" lon="1.801082">
        <ele>133</ele>
        <time>2022-03-17T10:59:42.000Z</time>
      </trkpt>
      <trkpt lat="47.533615" lon="1.8010912">
        <ele>133</ele>
        <time>2022-03-17T10:59:43.000Z</time>
      </trkpt>
      <trkpt lat="47.533604" lon="1.8011025">
        <ele>133</ele>
        <time>2022-03-17T10:59:44.000Z</time>
      </trkpt>
      <trkpt lat="47.533596" lon="1.8011069">
        <ele>133</ele>
        <time>2022-03-17T10:59:45.000Z</time>
      </trkpt>
      <trkpt lat="47.533585" lon="1.8011146">
        <ele>133</ele>
        <time>2022-03-17T10:59:46.000Z</time>
      </trkpt>
      <trkpt lat="47.533573" lon="1.8011203">
        <ele>133</ele>
        <time>2022-03-17T10:59:47.000Z</time>
      </trkpt>
      <trkpt lat="47.53356" lon="1.8011253">
        <ele>132</ele>
        <time>2022-03-17T10:59:48.000Z</time>
      </trkpt>
      <trkpt lat="47.53355" lon="1.8011303">
        <ele>132</ele>
        <time>2022-03-17T10:59:49.000Z</time>
      </trkpt>
      <trkpt lat="47.533543" lon="1.8011385">
        <ele>132</ele>
        <time>2022-03-17T10:59:50.000Z</time>
      </trkpt>
      <trkpt lat="47.53353" lon="1.801148">
        <ele>131</ele>
        <time>2022-03-17T10:59:51.000Z</time>
      </trkpt>
      <trkpt lat="47.533524" lon="1.8011549">
        <ele>131</ele>
        <time>2022-03-17T10:59:52.000Z</time>
      </trkpt>
      <trkpt lat="47.533512" lon="1.8011594">
        <ele>131</ele>
        <time>2022-03-17T10:59:53.000Z</time>
      </trkpt>
      <trkpt lat="47.5335" lon="1.8011642">
        <ele>131</ele>
        <time>2022-03-17T10:59:54.000Z</time>
      </trkpt>
      <trkpt lat="47.53349" lon="1.8011721">
        <ele>131</ele>
        <time>2022-03-17T10:59:55.000Z</time>
      </trkpt>
      <trkpt lat="47.53348" lon="1.8011814">
        <ele>131</ele>
        <time>2022-03-17T10:59:56.000Z</time>
      </trkpt>
      <trkpt lat="47.533474" lon="1.8011929">
        <ele>132</ele>
        <time>2022-03-17T10:59:57.000Z</time>
      </trkpt>
      <trkpt lat="47.533466" lon="1.8012017">
        <ele>132</ele>
        <time>2022-03-17T10:59:58.000Z</time>
      </trkpt>
      <trkpt lat="47.53345" lon="1.8012083">
        <ele>132</ele>
        <time>2022-03-17T10:59:59.000Z</time>
      </trkpt>
      <trkpt lat="47.53344" lon="1.8012179">
        <ele>132</ele>
        <time>2022-03-17T11:00:00.000Z</time>
      </trkpt>
      <trkpt lat="47.533432" lon="1.8012221">
        <ele>133</ele>
        <time>2022-03-17T11:00:01.000Z</time>
      </trkpt>
      <trkpt lat="47.533424" lon="1.8012234">
        <ele>133</ele>
        <time>2022-03-17T11:00:02.000Z</time>
      </trkpt>
      <trkpt lat="47.533413" lon="1.8012198">
        <ele>133</ele>
        <time>2022-03-17T11:00:03.000Z</time>
      </trkpt>
      <trkpt lat="47.5334" lon="1.8012202">
        <ele>134</ele>
        <time>2022-03-17T11:00:04.000Z</time>
      </trkpt>
      <trkpt lat="47.53339" lon="1.8012269">
        <ele>134</ele>
        <time>2022-03-17T11:00:05.000Z</time>
      </trkpt>
      <trkpt lat="47.533382" lon="1.8012345">
        <ele>133</ele>
        <time>2022-03-17T11:00:06.000Z</time>
      </trkpt>
      <trkpt lat="47.53338" lon="1.8012407">
        <ele>133</ele>
        <time>2022-03-17T11:00:07.000Z</time>
      </trkpt>
      <trkpt lat="47.53337" lon="1.8012482">
        <ele>134</ele>
        <time>2022-03-17T11:00:08.000Z</time>
      </trkpt>
      <trkpt lat="47.533363" lon="1.8012568">
        <ele>134</ele>
        <time>2022-03-17T11:00:09.000Z</time>
      </trkpt>
      <trkpt lat="47.533356" lon="1.8012649">
        <ele>133</ele>
        <time>2022-03-17T11:00:10.000Z</time>
      </trkpt>
      <trkpt lat="47.533348" lon="1.8012726">
        <ele>133</ele>
        <time>2022-03-17T11:00:11.000Z</time>
      </trkpt>
      <trkpt lat="47.533333" lon="1.8012776">
        <ele>133</ele>
        <time>2022-03-17T11:00:12.000Z</time>
      </trkpt>
      <trkpt lat="47.533325" lon="1.8012844">
        <ele>132</ele>
        <time>2022-03-17T11:00:13.000Z</time>
      </trkpt>
      <trkpt lat="47.53331" lon="1.8012899">
        <ele>131</ele>
        <time>2022-03-17T11:00:14.000Z</time>
      </trkpt>
      <trkpt lat="47.53329" lon="1.8012975">
        <ele>131</ele>
        <time>2022-03-17T11:00:15.000Z</time>
      </trkpt>
      <trkpt lat="47.53328" lon="1.801307">
        <ele>131</ele>
        <time>2022-03-17T11:00:16.000Z</time>
      </trkpt>
      <trkpt lat="47.533268" lon="1.801314">
        <ele>131</ele>
        <time>2022-03-17T11:00:17.000Z</time>
      </trkpt>
      <trkpt lat="47.53325" lon="1.8013188">
        <ele>130</ele>
        <time>2022-03-17T11:00:18.000Z</time>
      </trkpt>
      <trkpt lat="47.533234" lon="1.801333">
        <ele>130</ele>
        <time>2022-03-17T11:00:19.000Z</time>
      </trkpt>
      <trkpt lat="47.533222" lon="1.8013457">
        <ele>130</ele>
        <time>2022-03-17T11:00:20.000Z</time>
      </trkpt>
      <trkpt lat="47.533207" lon="1.8013594">
        <ele>130</ele>
        <time>2022-03-17T11:00:21.000Z</time>
      </trkpt>
      <trkpt lat="47.533195" lon="1.8013687">
        <ele>130</ele>
        <time>2022-03-17T11:00:22.000Z</time>
      </trkpt>
      <trkpt lat="47.533188" lon="1.8013755">
        <ele>130</ele>
        <time>2022-03-17T11:00:23.000Z</time>
      </trkpt>
      <trkpt lat="47.533176" lon="1.8013777">
        <ele>131</ele>
        <time>2022-03-17T11:00:24.000Z</time>
      </trkpt>
      <trkpt lat="47.533165" lon="1.801386">
        <ele>131</ele>
        <time>2022-03-17T11:00:25.000Z</time>
      </trkpt>
      <trkpt lat="47.533157" lon="1.8013916">
        <ele>131</ele>
        <time>2022-03-17T11:00:26.000Z</time>
      </trkpt>
      <trkpt lat="47.533146" lon="1.8013986">
        <ele>131</ele>
        <time>2022-03-17T11:00:27.000Z</time>
      </trkpt>
      <trkpt lat="47.533134" lon="1.8014067">
        <ele>131</ele>
        <time>2022-03-17T11:00:28.000Z</time>
      </trkpt>
      <trkpt lat="47.533127" lon="1.8014166">
        <ele>131</ele>
        <time>2022-03-17T11:00:29.000Z</time>
      </trkpt>
      <trkpt lat="47.53311" lon="1.8014288">
        <ele>130</ele>
        <time>2022-03-17T11:00:30.000Z</time>
      </trkpt>
      <trkpt lat="47.5331" lon="1.8014379">
        <ele>131</ele>
        <time>2022-03-17T11:00:31.000Z</time>
      </trkpt>
      <trkpt lat="47.53309" lon="1.8014423">
        <ele>130</ele>
        <time>2022-03-17T11:00:32.000Z</time>
      </trkpt>
      <trkpt lat="47.533073" lon="1.8014472">
        <ele>130</ele>
        <time>2022-03-17T11:00:33.000Z</time>
      </trkpt>
      <trkpt lat="47.533062" lon="1.8014516">
        <ele>130</ele>
        <time>2022-03-17T11:00:34.000Z</time>
      </trkpt>
      <trkpt lat="47.53305" lon="1.8014594">
        <ele>130</ele>
        <time>2022-03-17T11:00:35.000Z</time>
      </trkpt>
      <trkpt lat="47.533035" lon="1.8014622">
        <ele>130</ele>
        <time>2022-03-17T11:00:36.000Z</time>
      </trkpt>
      <trkpt lat="47.53302" lon="1.8014623">
        <ele>130</ele>
        <time>2022-03-17T11:00:37.000Z</time>
      </trkpt>
      <trkpt lat="47.533005" lon="1.8014684">
        <ele>130</ele>
        <time>2022-03-17T11:00:38.000Z</time>
      </trkpt>
      <trkpt lat="47.532993" lon="1.8014755">
        <ele>130</ele>
        <time>2022-03-17T11:00:39.000Z</time>
      </trkpt>
      <trkpt lat="47.532978" lon="1.8014805">
        <ele>130</ele>
        <time>2022-03-17T11:00:40.000Z</time>
      </trkpt>
      <trkpt lat="47.532963" lon="1.8014828">
        <ele>129</ele>
        <time>2022-03-17T11:00:41.000Z</time>
      </trkpt>
      <trkpt lat="47.532948" lon="1.8014934">
        <ele>130</ele>
        <time>2022-03-17T11:00:42.000Z</time>
      </trkpt>
      <trkpt lat="47.532932" lon="1.8014979">
        <ele>130</ele>
        <time>2022-03-17T11:00:43.000Z</time>
      </trkpt>
      <trkpt lat="47.532925" lon="1.8015027">
        <ele>130</ele>
        <time>2022-03-17T11:00:44.000Z</time>
      </trkpt>
      <trkpt lat="47.53291" lon="1.8015107">
        <ele>130</ele>
        <time>2022-03-17T11:00:45.000Z</time>
      </trkpt>
      <trkpt lat="47.532894" lon="1.8015169">
        <ele>129</ele>
        <time>2022-03-17T11:00:46.000Z</time>
      </trkpt>
      <trkpt lat="47.53288" lon="1.80152">
        <ele>129</ele>
        <time>2022-03-17T11:00:47.000Z</time>
      </trkpt>
      <trkpt lat="47.532867" lon="1.801526">
        <ele>129</ele>
        <time>2022-03-17T11:00:48.000Z</time>
      </trkpt>
      <trkpt lat="47.532856" lon="1.8015285">
        <ele>129</ele>
        <time>2022-03-17T11:00:49.000Z</time>
      </trkpt>
      <trkpt lat="47.532845" lon="1.8015336">
        <ele>129</ele>
        <time>2022-03-17T11:00:50.000Z</time>
      </trkpt>
      <trkpt lat="47.53283" lon="1.8015373">
        <ele>129</ele>
        <time>2022-03-17T11:00:51.000Z</time>
      </trkpt>
      <trkpt lat="47.532818" lon="1.8015473">
        <ele>129</ele>
        <time>2022-03-17T11:00:52.000Z</time>
      </trkpt>
      <trkpt lat="47.532806" lon="1.8015589">
        <ele>129</ele>
        <time>2022-03-17T11:00:53.000Z</time>
      </trkpt>
      <trkpt lat="47.532795" lon="1.8015677">
        <ele>128</ele>
        <time>2022-03-17T11:00:54.000Z</time>
      </trkpt>
      <trkpt lat="47.532784" lon="1.8015702">
        <ele>128</ele>
        <time>2022-03-17T11:00:55.000Z</time>
      </trkpt>
      <trkpt lat="47.532772" lon="1.8015754">
        <ele>128</ele>
        <time>2022-03-17T11:00:56.000Z</time>
      </trkpt>
      <trkpt lat="47.532764" lon="1.8015826">
        <ele>129</ele>
        <time>2022-03-17T11:00:57.000Z</time>
      </trkpt>
      <trkpt lat="47.53275" lon="1.8015852">
        <ele>129</ele>
        <time>2022-03-17T11:00:58.000Z</time>
      </trkpt>
      <trkpt lat="47.532734" lon="1.8015866">
        <ele>129</ele>
        <time>2022-03-17T11:00:59.000Z</time>
      </trkpt>
      <trkpt lat="47.53272" lon="1.8015897">
        <ele>130</ele>
        <time>2022-03-17T11:01:00.000Z</time>
      </trkpt>
      <trkpt lat="47.5327" lon="1.8015974">
        <ele>130</ele>
        <time>2022-03-17T11:01:01.000Z</time>
      </trkpt>
      <trkpt lat="47.53269" lon="1.8016026">
        <ele>130</ele>
        <time>2022-03-17T11:01:02.000Z</time>
      </trkpt>
      <trkpt lat="47.532677" lon="1.8016073">
        <ele>131</ele>
        <time>2022-03-17T11:01:03.000Z</time>
      </trkpt>
      <trkpt lat="47.532665" lon="1.8016098">
        <ele>131</ele>
        <time>2022-03-17T11:01:04.000Z</time>
      </trkpt>
      <trkpt lat="47.53265" lon="1.8016124">
        <ele>131</ele>
        <time>2022-03-17T11:01:05.000Z</time>
      </trkpt>
      <trkpt lat="47.53264" lon="1.8016126">
        <ele>131</ele>
        <time>2022-03-17T11:01:06.000Z</time>
      </trkpt>
      <trkpt lat="47.532627" lon="1.8016121">
        <ele>131</ele>
        <time>2022-03-17T11:01:07.000Z</time>
      </trkpt>
      <trkpt lat="47.532616" lon="1.8016192">
        <ele>131</ele>
        <time>2022-03-17T11:01:08.000Z</time>
      </trkpt>
      <trkpt lat="47.532604" lon="1.8016264">
        <ele>131</ele>
        <time>2022-03-17T11:01:09.000Z</time>
      </trkpt>
      <trkpt lat="47.532593" lon="1.8016326">
        <ele>131</ele>
        <time>2022-03-17T11:01:10.000Z</time>
      </trkpt>
      <trkpt lat="47.532585" lon="1.8016473">
        <ele>131</ele>
        <time>2022-03-17T11:01:11.000Z</time>
      </trkpt>
      <trkpt lat="47.53257" lon="1.8016577">
        <ele>131</ele>
        <time>2022-03-17T11:01:12.000Z</time>
      </trkpt>
      <trkpt lat="47.53256" lon="1.8016636">
        <ele>131</ele>
        <time>2022-03-17T11:01:13.000Z</time>
      </trkpt>
      <trkpt lat="47.532547" lon="1.8016727">
        <ele>131</ele>
        <time>2022-03-17T11:01:14.000Z</time>
      </trkpt>
      <trkpt lat="47.532536" lon="1.8016851">
        <ele>131</ele>
        <time>2022-03-17T11:01:15.000Z</time>
      </trkpt>
      <trkpt lat="47.53252" lon="1.8016962">
        <ele>131</ele>
        <time>2022-03-17T11:01:16.000Z</time>
      </trkpt>
      <trkpt lat="47.532513" lon="1.8017055">
        <ele>130</ele>
        <time>2022-03-17T11:01:17.000Z</time>
      </trkpt>
      <trkpt lat="47.5325" lon="1.8017105">
        <ele>130</ele>
        <time>2022-03-17T11:01:18.000Z</time>
      </trkpt>
      <trkpt lat="47.532494" lon="1.8017166">
        <ele>130</ele>
        <time>2022-03-17T11:01:19.000Z</time>
      </trkpt>
      <trkpt lat="47.532482" lon="1.8017278">
        <ele>130</ele>
        <time>2022-03-17T11:01:20.000Z</time>
      </trkpt>
      <trkpt lat="47.53247" lon="1.8017368">
        <ele>130</ele>
        <time>2022-03-17T11:01:21.000Z</time>
      </trkpt>
      <trkpt lat="47.53246" lon="1.801742">
        <ele>131</ele>
        <time>2022-03-17T11:01:22.000Z</time>
      </trkpt>
      <trkpt lat="47.532448" lon="1.8017529">
        <ele>130</ele>
        <time>2022-03-17T11:01:23.000Z</time>
      </trkpt>
      <trkpt lat="47.532436" lon="1.8017579">
        <ele>130</ele>
        <time>2022-03-17T11:01:24.000Z</time>
      </trkpt>
      <trkpt lat="47.532425" lon="1.8017659">
        <ele>130</ele>
        <time>2022-03-17T11:01:25.000Z</time>
      </trkpt>
      <trkpt lat="47.532413" lon="1.8017714">
        <ele>130</ele>
        <time>2022-03-17T11:01:26.000Z</time>
      </trkpt>
      <trkpt lat="47.532406" lon="1.8017777">
        <ele>130</ele>
        <time>2022-03-17T11:01:27.000Z</time>
      </trkpt>
      <trkpt lat="47.532394" lon="1.8017861">
        <ele>130</ele>
        <time>2022-03-17T11:01:28.000Z</time>
      </trkpt>
      <trkpt lat="47.53238" lon="1.8017992">
        <ele>130</ele>
        <time>2022-03-17T11:01:29.000Z</time>
      </trkpt>
      <trkpt lat="47.53237" lon="1.8018076">
        <ele>130</ele>
        <time>2022-03-17T11:01:30.000Z</time>
      </trkpt>
      <trkpt lat="47.53236" lon="1.8018203">
        <ele>130</ele>
        <time>2022-03-17T11:01:31.000Z</time>
      </trkpt>
      <trkpt lat="47.532352" lon="1.801833">
        <ele>130</ele>
        <time>2022-03-17T11:01:32.000Z</time>
      </trkpt>
      <trkpt lat="47.53234" lon="1.80184">
        <ele>130</ele>
        <time>2022-03-17T11:01:33.000Z</time>
      </trkpt>
      <trkpt lat="47.53233" lon="1.8018507">
        <ele>130</ele>
        <time>2022-03-17T11:01:34.000Z</time>
      </trkpt>
      <trkpt lat="47.53232" lon="1.8018551">
        <ele>130</ele>
        <time>2022-03-17T11:01:35.000Z</time>
      </trkpt>
      <trkpt lat="47.532307" lon="1.8018644">
        <ele>130</ele>
        <time>2022-03-17T11:01:36.000Z</time>
      </trkpt>
      <trkpt lat="47.532295" lon="1.8018782">
        <ele>129</ele>
        <time>2022-03-17T11:01:37.000Z</time>
      </trkpt>
      <trkpt lat="47.532284" lon="1.8018842">
        <ele>130</ele>
        <time>2022-03-17T11:01:38.000Z</time>
      </trkpt>
      <trkpt lat="47.532272" lon="1.8018904">
        <ele>129</ele>
        <time>2022-03-17T11:01:39.000Z</time>
      </trkpt>
      <trkpt lat="47.532265" lon="1.8018966">
        <ele>129</ele>
        <time>2022-03-17T11:01:40.000Z</time>
      </trkpt>
      <trkpt lat="47.53225" lon="1.8019048">
        <ele>129</ele>
        <time>2022-03-17T11:01:41.000Z</time>
      </trkpt>
      <trkpt lat="47.53224" lon="1.8019147">
        <ele>129</ele>
        <time>2022-03-17T11:01:42.000Z</time>
      </trkpt>
      <trkpt lat="47.53223" lon="1.801925">
        <ele>129</ele>
        <time>2022-03-17T11:01:43.000Z</time>
      </trkpt>
      <trkpt lat="47.53222" lon="1.8019361">
        <ele>129</ele>
        <time>2022-03-17T11:01:44.000Z</time>
      </trkpt>
      <trkpt lat="47.532207" lon="1.8019463">
        <ele>130</ele>
        <time>2022-03-17T11:01:45.000Z</time>
      </trkpt>
      <trkpt lat="47.532196" lon="1.8019545">
        <ele>130</ele>
        <time>2022-03-17T11:01:46.000Z</time>
      </trkpt>
      <trkpt lat="47.532185" lon="1.8019643">
        <ele>129</ele>
        <time>2022-03-17T11:01:47.000Z</time>
      </trkpt>
      <trkpt lat="47.532173" lon="1.801971">
        <ele>129</ele>
        <time>2022-03-17T11:01:48.000Z</time>
      </trkpt>
      <trkpt lat="47.53216" lon="1.8019805">
        <ele>129</ele>
        <time>2022-03-17T11:01:49.000Z</time>
      </trkpt>
      <trkpt lat="47.53215" lon="1.8019861">
        <ele>129</ele>
        <time>2022-03-17T11:01:50.000Z</time>
      </trkpt>
      <trkpt lat="47.532143" lon="1.801992">
        <ele>129</ele>
        <time>2022-03-17T11:01:51.000Z</time>
      </trkpt>
      <trkpt lat="47.53213" lon="1.802003">
        <ele>129</ele>
        <time>2022-03-17T11:01:52.000Z</time>
      </trkpt>
      <trkpt lat="47.53212" lon="1.802012">
        <ele>129</ele>
        <time>2022-03-17T11:01:53.000Z</time>
      </trkpt>
      <trkpt lat="47.53211" lon="1.8020203">
        <ele>130</ele>
        <time>2022-03-17T11:01:54.000Z</time>
      </trkpt>
      <trkpt lat="47.532097" lon="1.8020291">
        <ele>130</ele>
        <time>2022-03-17T11:01:55.000Z</time>
      </trkpt>
      <trkpt lat="47.53209" lon="1.802034">
        <ele>130</ele>
        <time>2022-03-17T11:01:56.000Z</time>
      </trkpt>
      <trkpt lat="47.532078" lon="1.8020397">
        <ele>130</ele>
        <time>2022-03-17T11:01:57.000Z</time>
      </trkpt>
      <trkpt lat="47.53207" lon="1.8020482">
        <ele>129</ele>
        <time>2022-03-17T11:01:58.000Z</time>
      </trkpt>
      <trkpt lat="47.532063" lon="1.8020533">
        <ele>129</ele>
        <time>2022-03-17T11:01:59.000Z</time>
      </trkpt>
      <trkpt lat="47.53205" lon="1.8020606">
        <ele>130</ele>
        <time>2022-03-17T11:02:00.000Z</time>
      </trkpt>
      <trkpt lat="47.532043" lon="1.8020694">
        <ele>129</ele>
        <time>2022-03-17T11:02:01.000Z</time>
      </trkpt>
      <trkpt lat="47.532036" lon="1.8020803">
        <ele>129</ele>
        <time>2022-03-17T11:02:02.000Z</time>
      </trkpt>
      <trkpt lat="47.53203" lon="1.8020889">
        <ele>129</ele>
        <time>2022-03-17T11:02:03.000Z</time>
      </trkpt>
      <trkpt lat="47.53202" lon="1.8020959">
        <ele>129</ele>
        <time>2022-03-17T11:02:04.000Z</time>
      </trkpt>
      <trkpt lat="47.532017" lon="1.8021067">
        <ele>129</ele>
        <time>2022-03-17T11:02:05.000Z</time>
      </trkpt>
      <trkpt lat="47.532005" lon="1.8021191">
        <ele>130</ele>
        <time>2022-03-17T11:02:06.000Z</time>
      </trkpt>
      <trkpt lat="47.531998" lon="1.8021352">
        <ele>130</ele>
        <time>2022-03-17T11:02:07.000Z</time>
      </trkpt>
      <trkpt lat="47.531994" lon="1.8021523">
        <ele>130</ele>
        <time>2022-03-17T11:02:08.000Z</time>
      </trkpt>
      <trkpt lat="47.531986" lon="1.8021663">
        <ele>131</ele>
        <time>2022-03-17T11:02:09.000Z</time>
      </trkpt>
      <trkpt lat="47.53198" lon="1.802189">
        <ele>132</ele>
        <time>2022-03-17T11:02:10.000Z</time>
      </trkpt>
      <trkpt lat="47.53197" lon="1.8022019">
        <ele>132</ele>
        <time>2022-03-17T11:02:11.000Z</time>
      </trkpt>
      <trkpt lat="47.531963" lon="1.8022143">
        <ele>132</ele>
        <time>2022-03-17T11:02:12.000Z</time>
      </trkpt>
      <trkpt lat="47.531956" lon="1.8022252">
        <ele>132</ele>
        <time>2022-03-17T11:02:13.000Z</time>
      </trkpt>
      <trkpt lat="47.531944" lon="1.802239">
        <ele>131</ele>
        <time>2022-03-17T11:02:14.000Z</time>
      </trkpt>
      <trkpt lat="47.531933" lon="1.8022504">
        <ele>132</ele>
        <time>2022-03-17T11:02:15.000Z</time>
      </trkpt>
      <trkpt lat="47.531925" lon="1.8022614">
        <ele>132</ele>
        <time>2022-03-17T11:02:16.000Z</time>
      </trkpt>
      <trkpt lat="47.53192" lon="1.8022766">
        <ele>132</ele>
        <time>2022-03-17T11:02:17.000Z</time>
      </trkpt>
      <trkpt lat="47.531914" lon="1.802295">
        <ele>132</ele>
        <time>2022-03-17T11:02:18.000Z</time>
      </trkpt>
      <trkpt lat="47.531906" lon="1.8023094">
        <ele>133</ele>
        <time>2022-03-17T11:02:19.000Z</time>
      </trkpt>
      <trkpt lat="47.5319" lon="1.802323">
        <ele>132</ele>
        <time>2022-03-17T11:02:20.000Z</time>
      </trkpt>
      <trkpt lat="47.53189" lon="1.8023416">
        <ele>132</ele>
        <time>2022-03-17T11:02:21.000Z</time>
      </trkpt>
      <trkpt lat="47.531887" lon="1.8023546">
        <ele>133</ele>
        <time>2022-03-17T11:02:22.000Z</time>
      </trkpt>
      <trkpt lat="47.53188" lon="1.8023674">
        <ele>133</ele>
        <time>2022-03-17T11:02:23.000Z</time>
      </trkpt>
      <trkpt lat="47.531876" lon="1.8023827">
        <ele>133</ele>
        <time>2022-03-17T11:02:24.000Z</time>
      </trkpt>
      <trkpt lat="47.531864" lon="1.802401">
        <ele>133</ele>
        <time>2022-03-17T11:02:25.000Z</time>
      </trkpt>
      <trkpt lat="47.53186" lon="1.8024181">
        <ele>133</ele>
        <time>2022-03-17T11:02:26.000Z</time>
      </trkpt>
      <trkpt lat="47.531853" lon="1.802432">
        <ele>133</ele>
        <time>2022-03-17T11:02:27.000Z</time>
      </trkpt>
      <trkpt lat="47.53185" lon="1.8024447">
        <ele>134</ele>
        <time>2022-03-17T11:02:28.000Z</time>
      </trkpt>
      <trkpt lat="47.53184" lon="1.8024561">
        <ele>133</ele>
        <time>2022-03-17T11:02:29.000Z</time>
      </trkpt>
      <trkpt lat="47.531837" lon="1.8024696">
        <ele>133</ele>
        <time>2022-03-17T11:02:30.000Z</time>
      </trkpt>
      <trkpt lat="47.53183" lon="1.8024873">
        <ele>134</ele>
        <time>2022-03-17T11:02:31.000Z</time>
      </trkpt>
      <trkpt lat="47.531826" lon="1.8025036">
        <ele>134</ele>
        <time>2022-03-17T11:02:32.000Z</time>
      </trkpt>
      <trkpt lat="47.53182" lon="1.8025186">
        <ele>134</ele>
        <time>2022-03-17T11:02:33.000Z</time>
      </trkpt>
      <trkpt lat="47.53181" lon="1.8025352">
        <ele>134</ele>
        <time>2022-03-17T11:02:34.000Z</time>
      </trkpt>
      <trkpt lat="47.531803" lon="1.8025509">
        <ele>134</ele>
        <time>2022-03-17T11:02:35.000Z</time>
      </trkpt>
      <trkpt lat="47.531796" lon="1.8025669">
        <ele>134</ele>
        <time>2022-03-17T11:02:36.000Z</time>
      </trkpt>
      <trkpt lat="47.531788" lon="1.802579">
        <ele>134</ele>
        <time>2022-03-17T11:02:37.000Z</time>
      </trkpt>
      <trkpt lat="47.531784" lon="1.8025934">
        <ele>134</ele>
        <time>2022-03-17T11:02:38.000Z</time>
      </trkpt>
      <trkpt lat="47.53178" lon="1.8026052">
        <ele>134</ele>
        <time>2022-03-17T11:02:39.000Z</time>
      </trkpt>
      <trkpt lat="47.531773" lon="1.802616">
        <ele>134</ele>
        <time>2022-03-17T11:02:40.000Z</time>
      </trkpt>
      <trkpt lat="47.53177" lon="1.8026258">
        <ele>134</ele>
        <time>2022-03-17T11:02:41.000Z</time>
      </trkpt>
      <trkpt lat="47.53176" lon="1.8026432">
        <ele>134</ele>
        <time>2022-03-17T11:02:42.000Z</time>
      </trkpt>
      <trkpt lat="47.531757" lon="1.8026527">
        <ele>134</ele>
        <time>2022-03-17T11:02:43.000Z</time>
      </trkpt>
      <trkpt lat="47.53175" lon="1.8026651">
        <ele>133</ele>
        <time>2022-03-17T11:02:44.000Z</time>
      </trkpt>
      <trkpt lat="47.531746" lon="1.8026786">
        <ele>133</ele>
        <time>2022-03-17T11:02:45.000Z</time>
      </trkpt>
      <trkpt lat="47.53174" lon="1.8026959">
        <ele>133</ele>
        <time>2022-03-17T11:02:46.000Z</time>
      </trkpt>
      <trkpt lat="47.53173" lon="1.8027151">
        <ele>134</ele>
        <time>2022-03-17T11:02:47.000Z</time>
      </trkpt>
      <trkpt lat="47.531723" lon="1.8027275">
        <ele>134</ele>
        <time>2022-03-17T11:02:48.000Z</time>
      </trkpt>
      <trkpt lat="47.53172" lon="1.8027366">
        <ele>134</ele>
        <time>2022-03-17T11:02:49.000Z</time>
      </trkpt>
      <trkpt lat="47.53171" lon="1.8027487">
        <ele>133</ele>
        <time>2022-03-17T11:02:50.000Z</time>
      </trkpt>
      <trkpt lat="47.531708" lon="1.8027627">
        <ele>133</ele>
        <time>2022-03-17T11:02:51.000Z</time>
      </trkpt>
      <trkpt lat="47.5317" lon="1.8027774">
        <ele>133</ele>
        <time>2022-03-17T11:02:52.000Z</time>
      </trkpt>
      <trkpt lat="47.531693" lon="1.8027916">
        <ele>133</ele>
        <time>2022-03-17T11:02:53.000Z</time>
      </trkpt>
      <trkpt lat="47.531685" lon="1.8028052">
        <ele>133</ele>
        <time>2022-03-17T11:02:54.000Z</time>
      </trkpt>
      <trkpt lat="47.531677" lon="1.8028178">
        <ele>133</ele>
        <time>2022-03-17T11:02:55.000Z</time>
      </trkpt>
      <trkpt lat="47.53167" lon="1.8028336">
        <ele>134</ele>
        <time>2022-03-17T11:02:56.000Z</time>
      </trkpt>
      <trkpt lat="47.531662" lon="1.8028483">
        <ele>134</ele>
        <time>2022-03-17T11:02:57.000Z</time>
      </trkpt>
      <trkpt lat="47.53166" lon="1.8028628">
        <ele>134</ele>
        <time>2022-03-17T11:02:58.000Z</time>
      </trkpt>
      <trkpt lat="47.53165" lon="1.8028817">
        <ele>134</ele>
        <time>2022-03-17T11:02:59.000Z</time>
      </trkpt>
      <trkpt lat="47.531643" lon="1.802898">
        <ele>134</ele>
        <time>2022-03-17T11:03:00.000Z</time>
      </trkpt>
      <trkpt lat="47.531635" lon="1.8029097">
        <ele>134</ele>
        <time>2022-03-17T11:03:01.000Z</time>
      </trkpt>
      <trkpt lat="47.531628" lon="1.8029178">
        <ele>134</ele>
        <time>2022-03-17T11:03:02.000Z</time>
      </trkpt>
      <trkpt lat="47.531624" lon="1.8029209">
        <ele>133</ele>
        <time>2022-03-17T11:03:03.000Z</time>
      </trkpt>
      <trkpt lat="47.531624" lon="1.8029246">
        <ele>133</ele>
        <time>2022-03-17T11:03:04.000Z</time>
      </trkpt>
      <trkpt lat="47.531616" lon="1.8029348">
        <ele>133</ele>
        <time>2022-03-17T11:03:05.000Z</time>
      </trkpt>
      <trkpt lat="47.531612" lon="1.8029444">
        <ele>133</ele>
        <time>2022-03-17T11:03:06.000Z</time>
      </trkpt>
      <trkpt lat="47.53161" lon="1.8029606">
        <ele>133</ele>
        <time>2022-03-17T11:03:07.000Z</time>
      </trkpt>
      <trkpt lat="47.5316" lon="1.8029748">
        <ele>133</ele>
        <time>2022-03-17T11:03:08.000Z</time>
      </trkpt>
      <trkpt lat="47.531597" lon="1.80298">
        <ele>134</ele>
        <time>2022-03-17T11:03:08.395Z</time>
      </trkpt>
      <trkpt lat="47.531597" lon="1.80298">
        <ele>95.04790328890101</ele>
        <time>2022-03-17T11:03:08.395Z</time>
      </trkpt>
      <trkpt lat="47.53202525420156" lon="1.803183036293898">
        <ele>95.15656794649605</ele>
        <time>2022-03-17T11:03:46.886Z</time>
      </trkpt>
      <trkpt lat="47.532047723806755" lon="1.8031936891849796">
        <ele>95.17051837963581</ele>
        <time>2022-03-17T11:03:48.905Z</time>
      </trkpt>
      <trkpt lat="47.53216747834742" lon="1.803402356995747">
        <ele>95.0032806938506</ele>
        <time>2022-03-17T11:04:04.733Z</time>
      </trkpt>
      <trkpt lat="47.53216747834742" lon="1.803402356995747">
        <ele>95.0032806938506</ele>
        <time>2022-03-17T11:04:04.733Z</time>
      </trkpt>
      <trkpt lat="47.53222" lon="1.8036293">
        <ele>94.54178458832523</ele>
        <time>2022-03-17T11:04:16.855Z</time>
      </trkpt>
      <trkpt lat="47.53222" lon="1.8036293">
        <ele>136</ele>
        <time>2022-03-17T11:04:16.855Z</time>
      </trkpt>
      <trkpt lat="47.532223" lon="1.8036466">
        <ele>136</ele>
        <time>2022-03-17T11:04:27.000Z</time>
      </trkpt>
      <trkpt lat="47.532227" lon="1.8036672">
        <ele>136</ele>
        <time>2022-03-17T11:04:28.000Z</time>
      </trkpt>
      <trkpt lat="47.53223" lon="1.8036877">
        <ele>137</ele>
        <time>2022-03-17T11:04:29.000Z</time>
      </trkpt>
      <trkpt lat="47.532234" lon="1.8037122">
        <ele>138</ele>
        <time>2022-03-17T11:04:30.000Z</time>
      </trkpt>
      <trkpt lat="47.532238" lon="1.8037301">
        <ele>138</ele>
        <time>2022-03-17T11:04:31.000Z</time>
      </trkpt>
      <trkpt lat="47.532238" lon="1.803749">
        <ele>139</ele>
        <time>2022-03-17T11:04:32.000Z</time>
      </trkpt>
      <trkpt lat="47.53224" lon="1.8037672">
        <ele>139</ele>
        <time>2022-03-17T11:04:33.000Z</time>
      </trkpt>
      <trkpt lat="47.53224" lon="1.8037869">
        <ele>140</ele>
        <time>2022-03-17T11:04:34.000Z</time>
      </trkpt>
      <trkpt lat="47.532246" lon="1.8038075">
        <ele>140</ele>
        <time>2022-03-17T11:04:35.000Z</time>
      </trkpt>
      <trkpt lat="47.53225" lon="1.8038224">
        <ele>140</ele>
        <time>2022-03-17T11:04:36.000Z</time>
      </trkpt>
      <trkpt lat="47.53225" lon="1.8038414">
        <ele>140</ele>
        <time>2022-03-17T11:04:37.000Z</time>
      </trkpt>
      <trkpt lat="47.532257" lon="1.8038502">
        <ele>139</ele>
        <time>2022-03-17T11:04:38.000Z</time>
      </trkpt>
      <trkpt lat="47.532257" lon="1.8038627">
        <ele>139</ele>
        <time>2022-03-17T11:04:39.000Z</time>
      </trkpt>
      <trkpt lat="47.532257" lon="1.8038781">
        <ele>139</ele>
        <time>2022-03-17T11:04:40.000Z</time>
      </trkpt>
      <trkpt lat="47.53226" lon="1.8038944">
        <ele>139</ele>
        <time>2022-03-17T11:04:41.000Z</time>
      </trkpt>
      <trkpt lat="47.532265" lon="1.8039113">
        <ele>140</ele>
        <time>2022-03-17T11:04:42.000Z</time>
      </trkpt>
      <trkpt lat="47.53227" lon="1.8039291">
        <ele>140</ele>
        <time>2022-03-17T11:04:43.000Z</time>
      </trkpt>
      <trkpt lat="47.532272" lon="1.8039474">
        <ele>140</ele>
        <time>2022-03-17T11:04:44.000Z</time>
      </trkpt>
      <trkpt lat="47.53228" lon="1.8039657">
        <ele>140</ele>
        <time>2022-03-17T11:04:45.000Z</time>
      </trkpt>
      <trkpt lat="47.532284" lon="1.8039826">
        <ele>139</ele>
        <time>2022-03-17T11:04:46.000Z</time>
      </trkpt>
      <trkpt lat="47.532288" lon="1.8039994">
        <ele>139</ele>
        <time>2022-03-17T11:04:47.000Z</time>
      </trkpt>
      <trkpt lat="47.53229" lon="1.8040164">
        <ele>139</ele>
        <time>2022-03-17T11:04:48.000Z</time>
      </trkpt>
      <trkpt lat="47.532295" lon="1.8040353">
        <ele>138</ele>
        <time>2022-03-17T11:04:49.000Z</time>
      </trkpt>
      <trkpt lat="47.5323" lon="1.8040527">
        <ele>137</ele>
        <time>2022-03-17T11:04:50.000Z</time>
      </trkpt>
      <trkpt lat="47.532307" lon="1.8040757">
        <ele>138</ele>
        <time>2022-03-17T11:04:51.000Z</time>
      </trkpt>
      <trkpt lat="47.53231" lon="1.8040935">
        <ele>137</ele>
        <time>2022-03-17T11:04:52.000Z</time>
      </trkpt>
      <trkpt lat="47.532314" lon="1.804111">
        <ele>138</ele>
        <time>2022-03-17T11:04:53.000Z</time>
      </trkpt>
      <trkpt lat="47.532322" lon="1.8041228">
        <ele>138</ele>
        <time>2022-03-17T11:04:54.000Z</time>
      </trkpt>
      <trkpt lat="47.532326" lon="1.8041401">
        <ele>137</ele>
        <time>2022-03-17T11:04:55.000Z</time>
      </trkpt>
      <trkpt lat="47.532326" lon="1.8041549">
        <ele>137</ele>
        <time>2022-03-17T11:04:56.000Z</time>
      </trkpt>
      <trkpt lat="47.532326" lon="1.8041714">
        <ele>137</ele>
        <time>2022-03-17T11:04:57.000Z</time>
      </trkpt>
      <trkpt lat="47.532326" lon="1.8041915">
        <ele>136</ele>
        <time>2022-03-17T11:04:58.000Z</time>
      </trkpt>
      <trkpt lat="47.53233" lon="1.8042109">
        <ele>137</ele>
        <time>2022-03-17T11:04:59.000Z</time>
      </trkpt>
      <trkpt lat="47.532333" lon="1.8042302">
        <ele>137</ele>
        <time>2022-03-17T11:05:00.000Z</time>
      </trkpt>
      <trkpt lat="47.532337" lon="1.804247">
        <ele>137</ele>
        <time>2022-03-17T11:05:01.000Z</time>
      </trkpt>
      <trkpt lat="47.532337" lon="1.8042648">
        <ele>137</ele>
        <time>2022-03-17T11:05:02.000Z</time>
      </trkpt>
      <trkpt lat="47.53234" lon="1.8042843">
        <ele>138</ele>
        <time>2022-03-17T11:05:03.000Z</time>
      </trkpt>
      <trkpt lat="47.532345" lon="1.8043023">
        <ele>138</ele>
        <time>2022-03-17T11:05:04.000Z</time>
      </trkpt>
      <trkpt lat="47.53235" lon="1.8043207">
        <ele>139</ele>
        <time>2022-03-17T11:05:05.000Z</time>
      </trkpt>
      <trkpt lat="47.532352" lon="1.8043351">
        <ele>139</ele>
        <time>2022-03-17T11:05:06.000Z</time>
      </trkpt>
      <trkpt lat="47.532352" lon="1.8043524">
        <ele>139</ele>
        <time>2022-03-17T11:05:07.000Z</time>
      </trkpt>
      <trkpt lat="47.532352" lon="1.8043731">
        <ele>138</ele>
        <time>2022-03-17T11:05:08.000Z</time>
      </trkpt>
      <trkpt lat="47.532356" lon="1.8043925">
        <ele>138</ele>
        <time>2022-03-17T11:05:09.000Z</time>
      </trkpt>
      <trkpt lat="47.532356" lon="1.8044114">
        <ele>138</ele>
        <time>2022-03-17T11:05:10.000Z</time>
      </trkpt>
      <trkpt lat="47.532352" lon="1.8044251">
        <ele>138</ele>
        <time>2022-03-17T11:05:11.000Z</time>
      </trkpt>
      <trkpt lat="47.532356" lon="1.8044384">
        <ele>137</ele>
        <time>2022-03-17T11:05:12.000Z</time>
      </trkpt>
      <trkpt lat="47.53236" lon="1.8044565">
        <ele>137</ele>
        <time>2022-03-17T11:05:13.000Z</time>
      </trkpt>
      <trkpt lat="47.532364" lon="1.8044722">
        <ele>137</ele>
        <time>2022-03-17T11:05:14.000Z</time>
      </trkpt>
      <trkpt lat="47.532368" lon="1.8044959">
        <ele>137</ele>
        <time>2022-03-17T11:05:15.000Z</time>
      </trkpt>
      <trkpt lat="47.532368" lon="1.8045164">
        <ele>137</ele>
        <time>2022-03-17T11:05:16.000Z</time>
      </trkpt>
      <trkpt lat="47.532368" lon="1.8045336">
        <ele>137</ele>
        <time>2022-03-17T11:05:17.000Z</time>
      </trkpt>
      <trkpt lat="47.53237" lon="1.8045511">
        <ele>137</ele>
        <time>2022-03-17T11:05:18.000Z</time>
      </trkpt>
      <trkpt lat="47.532375" lon="1.8045686">
        <ele>138</ele>
        <time>2022-03-17T11:05:19.000Z</time>
      </trkpt>
      <trkpt lat="47.532375" lon="1.8045863">
        <ele>138</ele>
        <time>2022-03-17T11:05:20.000Z</time>
      </trkpt>
      <trkpt lat="47.532375" lon="1.8046056">
        <ele>139</ele>
        <time>2022-03-17T11:05:21.000Z</time>
      </trkpt>
      <trkpt lat="47.53238" lon="1.8046237">
        <ele>138</ele>
        <time>2022-03-17T11:05:22.000Z</time>
      </trkpt>
      <trkpt lat="47.53238" lon="1.8046399">
        <ele>138</ele>
        <time>2022-03-17T11:05:23.000Z</time>
      </trkpt>
      <trkpt lat="47.532383" lon="1.8046564">
        <ele>138</ele>
        <time>2022-03-17T11:05:24.000Z</time>
      </trkpt>
      <trkpt lat="47.532387" lon="1.8046675">
        <ele>138</ele>
        <time>2022-03-17T11:05:25.000Z</time>
      </trkpt>
      <trkpt lat="47.53239" lon="1.8046837">
        <ele>139</ele>
        <time>2022-03-17T11:05:26.000Z</time>
      </trkpt>
      <trkpt lat="47.5324" lon="1.8047029">
        <ele>139</ele>
        <time>2022-03-17T11:05:27.000Z</time>
      </trkpt>
      <trkpt lat="47.532402" lon="1.8047215">
        <ele>140</ele>
        <time>2022-03-17T11:05:28.000Z</time>
      </trkpt>
      <trkpt lat="47.532406" lon="1.8047416">
        <ele>140</ele>
        <time>2022-03-17T11:05:29.000Z</time>
      </trkpt>
      <trkpt lat="47.53241" lon="1.8047628">
        <ele>139</ele>
        <time>2022-03-17T11:05:30.000Z</time>
      </trkpt>
      <trkpt lat="47.532413" lon="1.8047816">
        <ele>140</ele>
        <time>2022-03-17T11:05:31.000Z</time>
      </trkpt>
      <trkpt lat="47.532417" lon="1.8048009">
        <ele>140</ele>
        <time>2022-03-17T11:05:32.000Z</time>
      </trkpt>
      <trkpt lat="47.53242" lon="1.8048171">
        <ele>139</ele>
        <time>2022-03-17T11:05:33.000Z</time>
      </trkpt>
      <trkpt lat="47.532425" lon="1.8048323">
        <ele>139</ele>
        <time>2022-03-17T11:05:34.000Z</time>
      </trkpt>
      <trkpt lat="47.53243" lon="1.8048475">
        <ele>139</ele>
        <time>2022-03-17T11:05:35.000Z</time>
      </trkpt>
      <trkpt lat="47.532433" lon="1.8048563">
        <ele>139</ele>
        <time>2022-03-17T11:05:36.000Z</time>
      </trkpt>
      <trkpt lat="47.532436" lon="1.8048697">
        <ele>139</ele>
        <time>2022-03-17T11:05:37.000Z</time>
      </trkpt>
      <trkpt lat="47.53244" lon="1.8048825">
        <ele>139</ele>
        <time>2022-03-17T11:05:38.000Z</time>
      </trkpt>
      <trkpt lat="47.53244" lon="1.8048958">
        <ele>139</ele>
        <time>2022-03-17T11:05:39.000Z</time>
      </trkpt>
      <trkpt lat="47.53244" lon="1.804912">
        <ele>139</ele>
        <time>2022-03-17T11:05:40.000Z</time>
      </trkpt>
      <trkpt lat="47.532444" lon="1.8049285">
        <ele>140</ele>
        <time>2022-03-17T11:05:41.000Z</time>
      </trkpt>
      <trkpt lat="47.532448" lon="1.8049424">
        <ele>140</ele>
        <time>2022-03-17T11:05:42.000Z</time>
      </trkpt>
      <trkpt lat="47.53245" lon="1.8049549">
        <ele>139</ele>
        <time>2022-03-17T11:05:42.956Z</time>
      </trkpt>
      <trkpt lat="47.53245" lon="1.8049549">
        <ele>93.27512308620015</ele>
        <time>2022-03-17T11:05:42.956Z</time>
      </trkpt>
      <trkpt lat="47.532660845072776" lon="1.8055431413550447">
        <ele>92.5974377384415</ele>
        <time>2022-03-17T11:06:32.547Z</time>
      </trkpt>
      <trkpt lat="47.53275979579962" lon="1.805819206187266">
        <ele>93.33299756702934</ele>
        <time>2022-03-17T11:06:46.082Z</time>
      </trkpt>
      <trkpt lat="47.53275979579962" lon="1.805819206187266">
        <ele>93.33299756702934</ele>
        <time>2022-03-17T11:06:46.082Z</time>
      </trkpt>
      <trkpt lat="47.532800214083494" lon="1.8058990914211392">
        <ele>93.54987930227088</ele>
        <time>2022-03-17T11:06:50.404Z</time>
      </trkpt>
      <trkpt lat="47.532932" lon="1.8061616">
        <ele>94.31532534500676</ele>
        <time>2022-03-17T11:07:04.569Z</time>
      </trkpt>
    </trkseg>
  </trk>
</gpx>
